Date	Time of Day	Time of Run (sec)	Data PointGroup	Data Point Number	N1 Frequency (Hz)	N1 Percent	N1 RPM (51,120)	N2 Frequency (Hz)	N2 Percent	N2 RPM (35,000)	Engine TOT (F)	Air Plenum Temperature (F)	Ambient Temperature (F)	Ambient Pressure (psia)	Ambient Relative Humidity	Compressor Bleed Temperature (F)	Compressor Bleed Pressure (psig)	Bleed Temperature (F)	Bleed Pressure (in H2O)	Bleed Pressure (psia)	Bleed DP Pressure (in H2O)	Bleed Air SV	Sample	Orifice Plate	Sonic Orifice Plate Dia.	Dyno RPM	Dyno Torque (lbf*ft)	Dyno HorsePower (Hp)	Compressor Bleed Pressure (psia)	Compressor Pressure Ratio	Compressor Bleed Temperature (C)	Comp Simple Isentropic Temp Expected (C)	Bleed Air Mass Flow (lbm/min)	Bleed Air Volumetric Flow (SCFM)	Bleed Air Volumetric Flow (LPM)
8/7/2014 3:07:13 PM	15:07:13	0	A	1	57	81.42857	41626.28	48	68.57143	24000	1097.32	86.45337	86.86938	14.19113	54.64	332.2975	37.47655	86.40929	1.006001	14.22611	1.379999	1	3	1	0.15	4112	117.3999	91.75878	51.87875	3.655717	166.8319	163.3403	0.9523519	12.45102	352.5732
8/7/2014 3:07:23 PM	15:07:23	0	A	1	57	81.42857	41626.28	48	68.57143	24000	1094.066	86.5415	86.86938	14.19113	54.64	334.1332	37.24537	86.49744	0.8980007	14.2247	1.365999	1	3	1	0.15	4098	117	91.29017	51.48674	3.628094	167.8518	162.4827	0.9474224	12.38658	350.7482
8/7/2014 3:07:33 PM	15:07:33	0	A	1	57	81.42857	41626.28	48	67.14285	23500	1093.052	86.32115	86.87796	14.19075	54.63499	336.0585	37.58712	86.5415	0.9860001	14.22367	1.349001	1	3	1	0.15	4088	116.6001	90.75613	51.7276	3.645164	168.9214	162.8808	0.9414486	12.30847	348.5366
8/7/2014 3:07:43 PM	15:07:43	0	A	1	57	81.42857	41626.28	47	67.14285	23500	1089.926	86.05673	86.89505	14.19037	54.58501	337.4921	37.51173	86.49744	0.9790001	14.22525	1.362	1	3	1	0.15	4094	116.3999	90.73328	51.92324	3.659047	169.7178	163.1347	0.9460474	12.3686	350.2391
8/7/2014 3:07:53 PM	15:07:53	0	A	1	57	81.42857	41626.28	48	68.57143	24000	1086.419	85.57195	86.89505	14.19037	54.58501	339.158	37.97912	86.58558	1.041	14.22547	1.374001	1	3	1	0.15	4104	116.7998	91.2674	51.81268	3.651255	170.6433	162.4865	0.950107	12.42167	351.7421
8/7/2014 3:08:03 PM	15:08:03	0	A	1	57	81.42857	41626.28	48	68.57143	24000	1089.123	85.48381	86.88647	14.18962	54.535	341.0039	38.06454	86.62965	-0.3560009	14.18652	1.799965E-02	0	3	1	0.15	4114	117.3999	91.6466	52.48536	3.698855	171.6689	164.0019	0.1087756	1.422129	40.27014
8/7/2014 3:08:13 PM	15:08:13	0	A	1	57	81.42857	41626.28	48	68.57143	24000	1085.32	85.61603	86.91217	14.19037	54.97501	310.4028	37.72783	86.67372	0.9759998	14.22633	1.358	1	3	1	0.15	4117	116.3999	91.24303	52.04888	3.667901	154.6682	163.0781	0.9445501	12.34902	349.6848
8/7/2014 3:08:23 PM	15:08:23	0	A	1	57	81.42857	41626.28	48	68.57143	24000	1088.405	85.57195	86.91217	14.19037	54.97501	338.6627	37.65245	86.58558	0.9829998	14.22753	1.360001	1	3	1	0.15	4120	116.7998	91.78026	52.30518	3.685962	170.3682	163.6444	0.9474193	12.38654	350.747
8/7/2014 3:08:33 PM	15:08:33	0	A	1	58	82.85715	42356.57	50	70	24500	1094.32	84.95496	86.90359	14.19037	54.705	343.7504	39.73308	86.5415	1.014999	14.23053	1.447001	1	3	1	0.15	4245	116.7998	94.24163	53.88326	3.797169	173.1947	166.8041	0.9751609	12.74923	361.0173
8/7/2014 3:08:43 PM	15:08:43	0	A	1	58	82.85715	42356.57	52	74.28571	26000	1095.714	84.69054	86.94635	14.18962	54.59	349.6484	39.62251	86.49744	1.087999	14.22779	1.434999	1	3	1	0.15	4433	116.7998	98.41534	54.18405	3.818568	176.4713	167.2844	0.9723991	12.71312	359.9949
8/7/2014 3:08:53 PM	15:08:53	0	A	1	57	81.42857	41626.28	53	75.71429	26500	1094.7	84.55833	86.94635	14.18962	54.59	353.6105	39.86878	86.5415	1.030001	14.22909	1.415001	1	3	1	0.15	4501	116.3999	99.75343	53.91265	3.799442	178.6725	166.5575	0.9663437	12.63395	357.7531
8/7/2014 3:09:03 PM	15:09:03	0	A	1	58	82.85715	42356.57	53	75.71429	26500	1093.475	84.33797	86.97198	14.19	54.39999	356.0417	39.73811	86.40929	1.052999	14.22878	1.43	1	3	1	0.15	4528	116.7998	100.8692	53.93815	3.801139	180.0232	166.4345	0.9694843	12.67501	358.9158
8/7/2014 3:09:13 PM	15:09:13	0	A	1	59	84.28571	43086.86	53	75.71429	26500	1100.108	84.1617	86.98911	14.18925	54.255	358.6981	40.06477	86.45337	1.047001	14.22835	1.422001	1	3	1	0.15	4541	117.3999	101.3319	54.0731	3.81085	181.499	166.6068	0.9667351	12.63907	357.898
8/7/2014 3:09:23 PM	15:09:23	0	A	1	58	82.85715	42356.57	54	77.14286	27000	1103.953	84.55833	86.98911	14.18925	54.255	362.4801	39.48179	86.62965	1.004	14.22723	1.409	1	3	1	0.15	4607	117.2002	102.8046	53.99771	3.805537	183.6001	166.7553	0.9621144	12.57866	356.1873
8/7/2014 3:09:33 PM	15:09:33	0	A	1	58	82.85715	42356.57	54	77.14286	27000	1101.46	84.38205	87.01477	14.19037	54.345	364.7312	39.44661	86.45337	1.076	14.22832	1.424999	1	3	1	0.15	4641	116	102.8562	54.11946	3.813815	184.8507	166.881	0.9673917	12.64765	358.1411
8/7/2014 3:09:43 PM	15:09:43	0	A	1	59	82.85715	42356.57	55	78.57143	27500	1104.037	84.6024	87.03183	14.18962	54.48	367.3426	40.17031	86.36523	1.097	14.2275	1.451	1	3	1	0.15	4705	117.6001	105.1704	54.74189	3.857882	186.3015	168.4804	0.976555	12.76745	361.5334
8/7/2014 3:09:53 PM	15:09:53	0	A	1	60	85.71429	43817.14	57	81.42857	28500	1118.952	84.9109	87.03183	14.18962	54.48	371.0345	41.65289	86.40929	1.152	14.22967	1.499001	1	3	1	0.15	4899	116.2002	108.5741	55.71688	3.926593	188.3525	170.9249	0.9925212	12.9762	367.4443
8/7/2014 3:10:03 PM	15:10:03	0	A	1	60	85.71429	43817.14	59	84.28571	29500	1124.698	85.43974	87.07458	14.18925	54.605	375.3567	41.73834	86.5415	1.065001	14.22879	1.506001	1	3	1	0.15	5033	115	110.2024	55.97282	3.944734	190.7537	171.9314	0.9946887	13.00453	368.2468
8/7/2014 3:10:13 PM	15:10:13	0	A	1	60	84.28571	43086.86	60	85.71429	30000	1125.332	85.43974	87.1088	14.18925	54.46001	378.4633	42.20069	86.5415	1.065001	14.23002	1.514	1	3	1	0.15	5154	116.7998	114.618	56.16881	3.958547	192.4796	172.3681	0.9973556	13.0394	369.2341
8/7/2014 3:10:23 PM	15:10:23	0	A	1	59	84.28571	43086.86	61	87.14285	30500	1123.219	85.74824	87.1088	14.18925	54.46001	380.9396	42.18562	86.45337	1.09	14.22929	1.497	1	3	1	0.15	5191	116	114.8482	56.02809	3.948629	193.8554	172.3066	0.9918126	12.96693	367.182
8/7/2014 3:10:33 PM	15:10:33	0	A	1	60	85.71429	43817.14	61	87.14285	30500	1125.205	85.74824	87.14301	14.18962	54.5	382.8756	42.28111	86.62965	1.103001	14.23053	1.509001	1	3	1	0.15	5203	119	117.8873	57.13412	4.026472	194.9309	174.7533	0.9956474	13.01707	368.6017
8/7/2014 3:10:43 PM	15:10:43	0	A	1	60	85.71429	43817.14	61	87.14285	30500	1120.98	85.70416	87.12592	14.18962	54.825	384.4965	42.63291	86.76186	1.077	14.23079	1.488001	1	3	1	0.15	5219	116.2002	115.2687	56.62149	3.990345	195.8314	173.5859	0.9886131	12.9251	365.9975
8/7/2014 3:10:53 PM	15:10:53	0	A	1	60	85.71429	43817.14	61	87.14285	30500	1124.149	85.13125	87.12592	14.18962	54.825	385.8472	42.90931	86.76186	1.125	14.23057	1.511999	1	3	1	0.15	5208	121.3999	120.3803	56.93811	4.012658	196.5818	173.8154	0.9965245	13.02853	368.9264
8/7/2014 3:11:03 PM	15:11:03	0	A	1	60	85.71429	43817.14	61	87.14285	30500	1128.12	85.04311	87.10025	14.18925	54.875	388.7287	43.02993	86.67372	1.183001	14.23067	1.533001	1	3	1	0.15	5205	121.3999	120.1131	57.42523	4.047094	198.1826	174.8158	1.003466	13.11929	371.4964
8/7/2014 3:11:13 PM	15:11:13	0	A	1	60	85.71429	43817.14	61	87.14285	30500	1124.909	85.21939	87.08316	14.18962	54.985	389.7642	42.96962	86.62965	1.132	14.23216	1.535	1	3	1	0.15	5205	121.2002	119.7163	57.20448	4.03143	198.7579	174.4735	1.004218	13.12912	371.7747
8/7/2014 3:11:23 PM	15:11:23	0	A	1	60	85.71429	43817.14	61	87.14285	30500	1131.543	85.43974	87.08316	14.18962	54.985	391.5651	43.045	86.80593	1.159	14.22949	1.514	1	3	1	0.15	5202	122	120.836	57.36027	4.042409	199.7584	174.9964	0.9970895	13.03592	369.1356
8/7/2014 3:11:33 PM	15:11:33	0	A	1	60	85.71429	43817.14	61	87.14285	30500	1134.365	85.70416	87.07458	14.19037	55.205	393.0059	43.13548	86.76186	1.091999	14.23071	1.504	1	3	1	0.15	5196	120.6001	119.9054	57.28564	4.036936	200.5588	174.9347	0.9948716	13.00692	368.3145
8/7/2014 3:11:43 PM	15:11:43	0	A	1	60	85.71429	43817.14	60	87.14285	30500	1135.172	86.5415	87.08316	14.18962	54.845	394.1765	42.49219	86.85	1.077999	14.2314	1.497999	1	3	1	0.15	5172	121.6001	120.3363	57.28992	4.037451	201.2092	175.7476	0.9925254	12.97625	367.4459
8/7/2014 3:11:53 PM	15:11:53	0	A	1	60	85.71429	43817.14	61	87.14285	30500	1137.468	87.07035	87.08316	14.18962	54.845	395.7973	42.8289	86.85	1.089001	14.23202	1.476999	1	3	1	0.15	5160	122.7998	120.0571	56.88786	4.009116	202.1096	175.2952	0.9849334	12.87699	364.6352
8/7/2014 3:12:03 PM	15:12:03	0	A	1	60	85.71429	43817.14	60	85.71429	30000	1139.381	87.5992	87.07458	14.19	54.95	398.4987	42.25095	87.11443	1.080999	14.23225	1.483	1	3	1	0.15	5149	120.7998	118.8208	56.97367	4.015058	203.6104	175.9155	0.9867055	12.90016	365.2913
8/7/2014 3:12:13 PM	15:12:13	0	A	1	60	85.71429	43817.14	60	87.14285	30500	1135.045	87.29071	87.04041	14.19	54.88	399.5343	42.77864	87.20257	1.122999	14.23109	1.496	1	3	1	0.15	5154	122.2002	119.9175	57.15962	4.028162	204.1857	176.0729	0.9908749	12.95467	366.8349
8/7/2014 3:12:23 PM	15:12:23	0	A	1	59	84.28571	43086.86	59	84.28571	29500	1116.67	87.07035	87.04041	14.19	54.88	398.6788	41.45187	87.42292	1.017	14.22596	1.416	1	3	1	0.15	5100	117.6001	114.5825	55.04381	3.879057	203.7105	171.1648	0.9644367	12.60902	357.0471
8/7/2014 3:12:33 PM	15:12:33	0	A	1	59	84.28571	43086.86	58	82.85715	29000	1110.206	86.89407	87.04895	14.19	55.16	397.4632	40.75832	87.42292	1.030001	14.22632	1.365	1	3	1	0.15	4968	117.7998	111.2386	54.87795	3.867368	203.0351	170.6456	0.9463057	12.37198	350.3347
8/7/2014 3:12:43 PM	15:12:43	0	A	1	59	84.28571	43086.86	57	81.42857	28500	1104.375	86.93814	87.04041	14.18962	54.455	396.1575	40.2256	87.46699	1.047001	14.22728	1.377001	1	3	1	0.15	4859	116.7998	107.6876	54.39512	3.833443	202.3098	169.5856	0.9501091	12.4217	351.7428
8/7/2014 3:12:53 PM	15:12:53	0	A	1	59	84.28571	43086.86	56	80	28000	1104.375	86.32115	87.04041	14.18962	54.455	394.8518	40.62263	87.51106	0.9850006	14.22446	1.374001	1	3	1	0.15	4819	117	106.9848	54.8625	3.866381	201.5844	170.3634	0.9492684	12.41071	351.4316
8/7/2014 3:13:03 PM	15:13:03	0	A	1	59	84.28571	43086.86	56	80	28000	1103.404	85.92452	87.02328	14.18925	54.285	393.9514	40.46181	87.42292	1.035	14.22763	1.372	1	3	1	0.15	4817	117.7998	108.2243	54.70633	3.855477	201.0841	169.4758	0.9487622	12.40409	351.2441
8/7/2014 3:13:13 PM	15:13:13	0	A	1	59	84.28571	43086.86	56	80	28000	1100.531	85.3516	87.03183	14.18925	54.28999	393.3661	40.54724	87.5992	1.049999	14.22369	1.375999	1	3	1	0.15	4818	117.2002	107.3294	54.87218	3.867166	200.7339	169.3867	0.9498697	12.41857	351.6542
8/7/2014 3:13:23 PM	15:13:23	0	A	1	59	82.85715	42356.57	57	81.42857	28500	1101.333	85.13125	87.03183	14.18925	54.28999	393.4561	40.42159	87.5992	1.002001	14.2272	1.377001	1	3	1	0.15	4817	116.3999	106.5736	54.79178	3.8615	200.809	169.0258	0.9503306	12.4246	351.8248
8/7/2014 3:13:33 PM	15:13:33	0	A	1	59	84.28571	43086.86	56	80	28000	1098.714	84.47018	87.04041	14.18925	54.42999	393.3661	40.76335	87.64327	0.9979992	14.22828	1.381001	1	3	1	0.15	4831	117.6001	108.3547	55.40994	3.905065	200.7589	169.8816	0.9516946	12.44243	352.3298
8/7/2014 3:13:43 PM	15:13:43	0	A	1	59	84.28571	43086.86	56	80	28000	1099.981	84.47018	87.02328	14.1885	54.47501	393.4111	40.27586	87.55513	1.002001	14.22645	1.367001	1	3	1	0.15	4825	117	107.4854	54.91164	3.870151	200.7839	168.7667	0.9469081	12.37985	350.5578
8/7/2014 3:13:53 PM	15:13:53	0	A	1	59	82.85715	42356.57	56	80	28000	1099.812	84.24983	87.02328	14.1885	54.47501	393.5012	40.69802	87.37885	1.066999	14.22706	1.381001	1	3	1	0.15	4826	115.6001	106.4048	55.07246	3.881486	200.834	168.9504	0.9518906	12.44499	352.4024
8/7/2014 3:14:03 PM	15:14:03	0	A	1	59	84.28571	43086.86	57	80	28000	1101.46	84.33797	87.04895	14.18888	54.45	393.186	40.66283	87.33478	0.9629993	14.22689	1.374001	1	3	1	0.15	4828	117.3999	107.7362	55.10299	3.883535	200.6589	169.0875	0.9495217	12.41402	351.5254
8/7/2014 3:14:13 PM	15:14:13	0	A	1	58	82.85715	42356.57	57	80	28000	1098.883	84.24983	87.04895	14.18888	54.325	392.9609	40.52715	87.37885	1.076	14.22881	1.393999	1	3	1	0.15	4825	117	107.3015	54.95724	3.873263	200.5338	168.6874	0.9564036	12.50399	354.0731
8/7/2014 3:14:23 PM	15:14:23	0	A	1	59	84.28571	43086.86	56	81.42857	28500	1101.46	84.33797	87.04895	14.18888	54.325	393.231	40.76335	87.37885	1.061001	14.22523	1.355	1	3	1	0.15	4819	117.6001	107.9023	54.74114	3.858032	200.6839	168.2707	0.9435507	12.33596	349.3148
8/7/2014 3:14:33 PM	15:14:33	0	A	1	59	82.85715	42356.57	57	81.42857	28500	1103.699	84.6024	87.03183	14.18888	54.46001	393.6812	40.47186	87.42292	1.075001	14.22671	1.388	1	3	1	0.15	4809	117.2002	107.3123	54.80648	3.862638	200.934	168.6331	0.9542401	12.47571	353.2722
8/7/2014 3:14:43 PM	15:14:43	0	A	1	59	84.28571	43086.86	56	80	28000	1101.333	84.55833	87.01477	14.18888	54.44501	393.4561	40.93422	87.33478	1.073999	14.22574	1.377001	1	3	1	0.15	4821	117.2002	107.58	55.299	3.897349	200.809	169.7076	0.9505103	12.42695	351.8914
8/7/2014 3:14:53 PM	15:14:53	0	A	1	59	84.28571	43086.86	57	81.42857	28500	1105.939	84.64647	87.01477	14.18888	54.44501	393.7263	40.84377	87.33478	1.01	14.22693	1.365999	1	3	1	0.15	4810	117.3999	108.067	54.39437	3.833593	200.959	167.7342	0.9450268	12.35526	349.8613
8/7/2014 3:15:03 PM	15:15:03	0	A	1	58	84.28571	43086.86	56	80	28000	1107.544	85.17532	87.02328	14.18888	54.94501	393.9514	40.6578	87.29071	1.021999	14.22791	1.365	1	3	1	0.15	4798	116.3999	106.5186	54.42955	3.836072	201.0841	168.2427	0.9464973	12.37448	350.4057
8/7/2014 3:15:13 PM	15:15:13	0	A	1	58	84.28571	43086.86	56	80	28000	1105.558	85.92452	87.03183	14.18812	55.005	394.0864	40.60756	87.29071	1.048	14.22556	1.372	1	3	1	0.15	4783	117.6001	107.0962	55.11732	3.88475	201.1591	170.4161	0.9488233	12.40489	351.2668
8/7/2014 3:15:23 PM	15:15:23	0	A	1	58	84.28571	43086.86	56	80	28000	1103.699	85.48381	87.03183	14.18812	55.005	393.276	41.10509	87.42292	0.9519997	14.22629	1.365999	1	3	1	0.15	4794	117.3999	106.7948	54.65998	3.852516	200.7089	169.0229	0.9466684	12.37672	350.4691
8/7/2014 3:15:33 PM	15:15:33	0	A	1	58	82.85715	42356.57	56	80	28000	1102.516	85.21939	87.01477	14.1885	54.96001	393.3661	40.42159	87.51106	1.040001	14.22525	1.367001	1	3	1	0.15	4804	117.3999	107.5665	55.07246	3.881486	200.7589	169.7384	0.9472359	12.38414	350.6791
8/7/2014 3:15:43 PM	15:15:43	0	A	1	59	82.85715	42356.57	56	81.42857	28500	1101.291	84.73461	87.0062	14.18812	54.77	392.6907	41.28601	87.37885	1.039	14.22741	1.370001	1	3	1	0.15	4820	116.3999	106.64	54.83588	3.864914	200.3837	168.8135	0.9484484	12.39999	351.128
8/7/2014 3:15:53 PM	15:15:53	0	A	1	59	84.28571	43086.86	57	81.42857	28500	1102.263	84.47018	87.0062	14.18812	54.77	392.3305	40.84878	87.46699	1.143999	14.22546	1.362	1	3	1	0.15	4817	116.6001	107.3072	55.30327	3.897856	200.1836	169.652	0.9452	12.35752	349.9254
8/7/2014 3:16:03 PM	15:16:03	0	A	1	58	82.85715	42356.57	57	80	28000	1101.164	84.42612	86.97198	14.18887	54.85001	392.0604	40.82867	87.42292	1.076	14.22635	1.368999	1	3	1	0.15	4828	117.7998	107.7362	54.75119	3.858741	200.0336	168.365	0.9476852	12.39001	350.8455
8/7/2014 3:16:13 PM	15:16:13	0	A	1	58	82.85715	42356.57	57	80	28000	1101.671	83.72099	86.96344	14.18812	54.52	392.1955	41.0498	87.42292	1.014999	14.22773	1.353001	1	3	1	0.15	4833	116.3999	107.2956	54.94644	3.872707	200.1086	168.2399	0.942217	12.31852	348.8211
8/7/2014 3:16:23 PM	15:16:23	0	A	1	59	82.85715	42356.57	57	81.42857	28500	1102.643	83.8532	86.96344	14.18812	54.52	391.9703	40.56734	87.33478	1.030001	14.22419	1.365999	1	3	1	0.15	4826	116.2002	107.1402	54.80573	3.862789	199.9835	168.0298	0.9476984	12.39018	350.8504
8/7/2014 3:16:33 PM	15:16:33	0	A	1	59	84.28571	43086.86	57	81.42857	28500	1104.756	83.80913	86.94635	14.18775	54.375	391.7452	40.94427	87.37885	1.093	14.2249	1.344999	1	3	1	0.15	4812	117.3999	107.3792	54.90588	3.86995	199.8585	168.2234	0.9393621	12.2812	347.7642
8/7/2014 3:16:43 PM	15:16:43	0	A	1	59	82.85715	42356.57	56	80	28000	1105.558	83.94134	86.92923	14.18812	54.33501	391.34	40.60756	87.37885	1.077999	14.22376	1.354	1	3	1	0.15	4817	116.2002	106.7568	55.39875	3.904586	199.6334	169.4358	0.9435095	12.33542	349.2996
8/7/2014 3:16:53 PM	15:16:53	0	A	1	58	84.28571	43086.86	55	78.57143	27500	1109.15	84.02948	86.92923	14.18812	54.33501	392.1505	40.54222	87.11443	1.048	14.22462	1.32	1	3	1	0.15	4784	116.7998	106.572	54.48408	3.840119	200.0836	167.4447	0.9308658	12.17012	344.6187
8/7/2014 3:17:03 PM	15:17:03	0	A	1	59	84.28571	43086.86	55	78.57143	27500	1112.868	84.29391	86.92072	14.18812	54.325	393.231	39.94416	87.24664	0.9249992	14.22379	1.316	1	3	1	0.15	4729	117.2002	105.1665	54.08706	3.812136	200.6839	166.7554	0.9317585	12.18179	344.9492
8/7/2014 3:17:13 PM	15:17:13	0	A	1	58	82.85715	42356.57	55	77.14286	27000	1122.586	84.73461	86.92923	14.18738	54.33	394.4016	39.35615	87.07035	1.027	14.22315	1.304001	1	3	1	0.15	4657	116.6001	104.0975	53.60384	3.778277	201.3342	166.011	0.92484	12.09133	342.3878
8/7/2014 3:17:23 PM	15:17:23	0	A	1	58	82.85715	42356.57	55	77.14286	27000	1120.727	84.24983	86.92923	14.18738	54.33	395.4372	39.26569	87.02628	0.9680004	14.2259	1.292999	1	3	1	0.15	4642	117.6001	103.7622	53.88026	3.79776	201.9095	166.2536	0.9246178	12.08843	342.3056
8/7/2014 3:17:33 PM	15:17:33	0	A	1	59	82.85715	42356.57	55	78.57143	27500	1110.84	83.80913	86.93781	14.18738	54.31	395.5722	40.25575	87.1585	1.011	14.22485	1.347	1	3	1	0.15	4681	116.7998	104.6339	54.63912	3.851249	201.9846	167.6239	0.9402477	12.29277	348.092
8/7/2014 3:17:43 PM	15:17:43	0	A	1	59	84.28571	43086.86	55	78.57143	27500	1113.037	84.20576	86.93781	14.18775	54.45	395.257	40.11504	87.11443	0.9440002	14.22266	1.312	1	3	1	0.15	4702	117	104.9246	54.41335	3.835235	201.8095	167.4302	0.9279731	12.1323	343.5478
8/7/2014 3:17:53 PM	15:17:53	3	A	1	59	84.28571	43086.86	55	78.57143	27500	1109.065	84.77868	86.93781	14.18775	54.45	395.4822	39.92908	87.20257	0.9979992	14.22501	1.313	1	3	1	0.15	4727	116.6001	104.9423	54.12185	3.814689	201.9346	167.23	0.9283168	12.13679	343.675
8/7/2014 3:18:03 PM	15:18:03	13	A	1	59	84.28571	43086.86	56	80	28000	1107.249	84.95496	86.92072	14.18775	54.59	394.9869	40.24068	87.24664	0.9899998	14.2249	1.336	1	3	1	0.15	4738	117.6001	105.7279	54.65961	3.852592	201.6594	168.5964	0.9363596	12.24194	346.6526
8/7/2014 3:18:13 PM	15:18:13	23	A	1	59	84.28571	43086.86	56	80	28000	1106.023	85.08717	86.93781	14.18812	54.735	394.4466	40.61257	87.37885	1.033001	14.22618	1.34	1	3	1	0.15	4762	116	105.3568	54.64993	3.851808	201.3593	168.6785	0.9376788	12.25919	347.141
8/7/2014 3:18:23 PM	15:18:23	33	A	1	59	84.28571	43086.86	56	80	28000	1105.685	84.77868	86.93781	14.18812	54.735	394.5817	40.49196	87.37885	0.9899998	14.2277	1.349001	1	3	1	0.15	4773	117	105.7816	54.69516	3.854996	201.4343	168.5307	0.9408489	12.30063	348.3146
8/7/2014 3:18:33 PM	15:18:33	43	A	1	59	82.85715	42356.57	56	80	28000	1104.333	84.9109	86.92923	14.187	54.655	394.1765	40.51708	87.37885	1.121	14.22397	1.347	1	3	1	0.15	4774	116.3999	106.1673	54.75434	3.859473	201.2092	168.7819	0.9382951	12.26724	347.3691
8/7/2014 3:18:43 PM	15:18:43	53	A	1	58	82.85715	42356.57	56	78.57143	27500	1103.192	84.77868	86.92923	14.187	54.655	394.1315	40.81863	87.46699	1.046	14.22491	1.339001	1	3	1	0.15	4784	117.6001	107.1186	54.68399	3.854514	201.1842	168.5152	0.9399949	12.28947	347.9984
8/7/2014 3:18:53 PM	15:18:53	63	A	1	59	84.28571	43086.86	56	80	28000	1103.995	84.29391	86.93781	14.187	54.69	394.0864	40.81863	87.55513	1.046	14.22469	1.337999	1	3	1	0.15	4781	117	106.5052	54.77948	3.861245	201.1591	168.338	0.9353746	12.22906	346.2879
8/7/2014 3:19:03 PM	15:19:03	73	A	1	59	82.85715	42356.57	56	80	28000	1103.488	84.47018	86.92072	14.187	54.495	393.5012	40.71812	87.51106	1.013	14.22278	1.341999	1	3	1	0.15	4779	116.7998	106.0968	54.73927	3.85841	200.834	168.3901	0.9381343	12.26514	347.3095
8/7/2014 3:19:13 PM	15:19:13	83	A	1	58	84.28571	43086.86	56	80	28000	1104.502	84.38205	86.92923	14.187	54.245	393.3661	40.46181	87.51106	1.066	14.22155	1.339001	1	3	1	0.15	4777	116	105.6886	54.43772	3.837155	200.7589	167.6349	0.9370651	12.25117	346.9138
8/7/2014 3:19:23 PM	15:19:23	93	A	1	58	84.28571	43086.86	55	78.57143	27500	1104.291	84.64647	86.92923	14.187	54.245	393.9063	40.30601	87.64327	0.9659996	14.22444	1.339001	1	3	1	0.15	4779	116.2002	106.2785	54.72419	3.857347	201.0591	168.499	0.9398255	12.28725	347.9357
8/7/2014 3:19:33 PM	15:19:33	103	A	1	58	84.28571	43086.86	55	78.57143	27500	1107.629	84.77868	86.91217	14.187	54.37	393.7713	40.37135	87.64327	0.9990005	14.22274	1.32	1	3	1	0.15	4772	116.7998	106.4866	54.60358	3.848846	200.9841	168.3329	0.9317442	12.1816	344.9439
8/7/2014 3:19:43 PM	15:19:43	113	A	1	59	82.85715	42356.57	56	80	28000	1105.643	85.04311	86.91217	14.187	54.37	394.2665	40.89401	87.73141	1.069	14.22419	1.337	1	3	1	0.15	4759	117	106.1965	54.61866	3.849909	201.2592	168.5815	0.9362603	12.24064	346.6158
8/7/2014 3:19:53 PM	15:19:53	123	A	1	58	82.85715	42356.57	56	80	28000	1106.192	85.30753	86.93781	14.18625	54.655	394.1315	40.20549	87.5992	1.077999	14.22478	1.316999	1	3	1	0.15	4757	117.3999	105.9706	54.39175	3.834117	201.1842	168.2866	0.930795	12.16919	344.5925
8/7/2014 3:20:03 PM	15:20:03	133	A	1	59	82.85715	42356.57	56	80	28000	1107.798	85.52789	86.92072	14.18662	55.34	393.9964	39.96427	87.86362	1.038	14.22327	1.329	1	3	1	0.15	4761	116.7998	105.8782	54.65848	3.852818	201.1091	169.0684	0.9333174	12.20217	345.5263
8/7/2014 3:20:13 PM	15:20:13	143	A	1	59	84.28571	43086.86	56	80	28000	1108.854	85.92452	86.92923	14.18625	55.77499	394.5817	39.94416	87.77548	1.016001	14.22485	1.318001	1	3	1	0.15	4749	117.7998	106.1539	54.4018	3.834826	201.4343	168.8093	0.9295839	12.15336	344.1441
8/7/2014 3:20:23 PM	15:20:23	153	A	1	59	84.28571	43086.86	55	78.57143	27500	1107.375	85.88045	86.92923	14.18625	55.77499	393.9964	40.33113	87.99583	1.028	14.22253	1.320999	1	3	1	0.15	4756	117.6001	106.4917	54.72847	3.857853	201.1091	169.5165	0.9303806	12.16377	344.4391
8/7/2014 3:20:33 PM	15:20:33	163	A	1	58	82.85715	42356.57	56	78.57143	27500	1108.136	85.88045	86.91217	14.18625	55.015	393.321	40.59248	87.99583	0.9960003	14.22264	1.333	1	3	1	0.15	4757	117	105.7892	54.67822	3.854311	200.7339	169.4025	0.9366783	12.24611	346.7706
8/7/2014 3:20:43 PM	15:20:43	173	A	1	58	84.28571	43086.86	55	78.57143	27500	1107.925	85.6601	86.91217	14.18625	55.015	392.6007	40.16529	88.08398	1.051001	14.22376	1.319	1	3	1	0.15	4769	116.3999	105.693	54.73852	3.858561	200.3337	169.3605	0.9307032	12.16799	344.5585
8/7/2014 3:20:53 PM	15:20:53	183	A	1	59	84.28571	43086.86	56	80	28000	1104.375	85.57195	86.86938	14.18625	54.325	392.2405	40.11504	88.12805	0.9729996	14.22517	1.320999	1	3	1	0.15	4768	117	106.5786	54.62292	3.850413	200.1336	169.0266	0.9303554	12.16344	344.4297
8/7/2014 3:21:03 PM	15:21:03	193	A	1	59	84.28571	43086.86	56	80	28000	1105.812	85.26346	86.82663	14.18587	54.41	392.2405	40.64273	88.12805	1.080999	14.22324	1.343	1	3	1	0.15	4765	116.6001	105.9671	54.65773	3.852968	200.1336	168.8587	0.9369525	12.24969	346.8721
8/7/2014 3:21:13 PM	15:21:13	203	A	1	59	84.28571	43086.86	55	80	28000	1111.009	85.6601	86.80099	14.18625	54.71001	392.9609	40.33113	88.26026	1.049	14.22293	1.304001	1	3	1	0.15	4751	117.2002	105.8369	54.50231	3.841911	200.5338	168.8239	0.9242026	12.083	342.1519
8/7/2014 3:21:23 PM	15:21:23	213	A	1	59	84.28571	43086.86	56	80	28000	1107.882	86.05673	86.80099	14.18625	54.71001	392.9609	39.8336	88.17212	1.033001	14.22159	1.327999	1	3	1	0.15	4747	116.3999	104.844	54.28118	3.826323	200.5338	168.6411	0.9326689	12.19369	345.2862
8/7/2014 3:21:33 PM	15:21:33	0	A	1	59	84.28571	43086.86	55	78.57143	27500	1113.924	86.14487	86.75824	14.18587	54.80499	393.0509	40.24571	88.39248	1.027	14.22259	1.327999	1	3	1	0.15	4739	116.7998	105.3889	54.09988	3.813644	200.5838	168.3012	0.9338943	12.20971	345.7399
8/7/2014 3:21:43 PM	15:21:43	0	A	1	59	84.28571	43086.86	56	80	28000	1110.291	86.5415	86.72403	14.18587	54.78	392.8708	40.33617	88.48061	1.009001	14.22346	1.316	1	3	1	0.15	4741	116.3999	105.4334	54.66779	3.853678	200.4838	169.9183	0.9282591	12.13603	343.6537
8/7/2014 3:21:53 PM	15:21:53	0	A	1	59	82.85715	42356.57	55	78.57143	27500	1113.164	86.71779	86.72403	14.18587	54.78	393.141	39.85872	88.21619	1.027	14.22299	1.299999	1	3	1	0.15	4702	117.2002	104.5661	54.03958	3.809393	200.6339	168.6263	0.9228191	12.06491	341.6397
8/7/2014 3:22:03 PM	15:22:03	0	A	1	58	82.85715	42356.57	54	77.14286	27000	1131.712	88.96539	86.69839	14.18587	54.765	395.4822	39.06968	88.26026	0.9120007	14.22165	1.281	1	3	1	0.15	4588	117.6001	102.73	53.43649	3.76688	201.9346	169.0489	0.9159936	11.97568	339.1128
8/7/2014 3:22:13 PM	15:22:13	0	A	1	58	82.85715	42356.57	53	75.71429	26500	1138.106	91.25706	86.66422	14.18625	54.845	396.7428	38.46661	88.43655	0.9090004	14.22123	1.256001	1	3	1	0.15	4512	116.7998	100.6847	52.85388	3.725712	202.6349	169.529	0.9029136	11.80467	334.2704
8/7/2014 3:22:23 PM	15:22:23	0	A	1	58	82.85715	42356.57	53	75.71429	26500	1125.121	91.87405	86.66422	14.18625	54.845	396.1575	39.24057	88.52469	0.9829998	14.22239	1.305	1	3	1	0.15	4523	117.2002	100.7578	53.3866	3.763264	202.3098	171.2736	0.9242972	12.08424	342.1869
8/7/2014 3:22:33 PM	15:22:33	0	A	1	58	82.85715	42356.57	53	77.14286	27000	1126.938	90.28751	86.68127	14.18625	55.19501	394.8969	38.74805	88.56876	0.9430008	14.22326	1.25	1	3	1	0.15	4559	117.2002	101.5598	52.92926	3.731026	201.6094	168.9268	0.9039649	11.81841	334.6596
8/7/2014 3:22:43 PM	15:22:43	0	A	1	59	84.28571	43086.86	53	75.71429	26500	1119.248	89.89088	86.64713	14.18625	55.565	394.7168	39.18528	88.70097	1.024	14.22308	1.273001	1	3	1	0.15	4562	117	101.4527	53.16046	3.747323	201.5093	169.1485	0.91281	11.93405	337.9342
8/7/2014 3:22:53 PM	15:22:53	0	A	1	58	82.85715	42356.57	54	77.14286	27000	1118.53	89.31796	86.64713	14.18625	55.565	394.6267	39.05964	88.87725	0.9710007	14.22174	1.296	1	3	1	0.15	4582	117.3999	102.421	53.48713	3.77035	201.4593	169.4475	0.9208181	12.03875	340.8989
8/7/2014 3:23:03 PM	15:23:03	0	A	1	58	82.85715	42356.57	54	77.14286	27000	1114.135	88.78911	86.62143	14.1855	55.815	393.7263	39.66273	88.78911	1.065001	14.22196	1.297001	1	3	1	0.15	4614	116.2002	102.0823	53.55171	3.775102	200.959	169.1774	0.9198254	12.02577	340.5314
8/7/2014 3:23:13 PM	15:23:13	0	A	1	59	84.28571	43086.86	54	77.14286	27000	1112.614	87.95177	86.60437	14.18662	56.395	392.7357	39.55717	89.00946	1.087	14.22197	1.306	1	3	1	0.15	4638	118	103.8495	53.81416	3.793303	200.4088	169.0985	0.9249402	12.09264	342.425
8/7/2014 3:23:23 PM	15:23:23	0	A	1	58	84.28571	43086.86	54	77.14286	27000	1108.6	87.51106	86.60437	14.18662	56.395	392.4206	39.6577	89.0976	0.9860001	14.22461	1.309	1	3	1	0.15	4656	116.6001	103.5431	53.53273	3.773465	200.2337	168.093	0.9253018	12.09737	342.5589
8/7/2014 3:23:33 PM	15:23:33	0	A	1	58	84.28571	43086.86	55	78.57143	27500	1109.319	87.1585	86.57016	14.18587	56.005	392.2855	39.76826	89.22981	1.042	14.22447	1.326	1	3	1	0.15	4669	116.3999	103.6547	54.0647	3.811164	200.1586	169.0403	0.9311584	12.17394	344.727
8/7/2014 3:23:43 PM	15:23:43	0	A	1	59	84.28571	43086.86	55	78.57143	27500	1108.389	86.5415	86.56161	14.18587	56.49001	392.2855	39.42149	89.22981	0.9820004	14.22534	1.319	1	3	1	0.15	4673	117	104.4551	53.97424	3.804788	200.1586	168.3339	0.9273129	12.12366	343.3033
8/7/2014 3:23:53 PM	15:23:53	0	A	1	59	84.28571	43086.86	55	78.57143	27500	1109.192	86.62965	86.56161	14.18587	56.49001	391.9253	39.85872	89.27389	1.025999	14.22263	1.318001	1	3	1	0.15	4668	117.3999	104.3434	54.14008	3.816478	199.9585	168.7854	0.9282454	12.13586	343.6486
8/7/2014 3:24:03 PM	15:24:03	0	A	1	58	84.28571	43086.86	54	77.14286	27000	1109.023	86.85	86.55304	14.18587	56.705	392.6457	39.60242	89.45017	1.038	14.22324	1.315001	1	3	1	0.15	4662	116.2002	103.1443	54.34111	3.830649	200.3587	169.4236	0.9260232	12.1068	342.8259
8/7/2014 3:24:13 PM	15:24:13	0	A	1	59	84.28571	43086.86	54	77.14286	27000	1111.558	86.89407	86.54449	14.18587	56.80499	392.1054	39.57728	89.45017	1.018	14.22321	1.322001	1	3	1	0.15	4649	117	103.2107	53.69782	3.785302	200.0586	167.9829	0.929185	12.14814	343.9964
8/7/2014 3:24:23 PM	15:24:23	0	A	1	59	84.28571	43086.86	54	77.14286	27000	1109.361	86.89407	86.54449	14.18587	56.80499	391.9703	39.57728	89.45017	1.046	14.22404	1.319	1	3	1	0.15	4638	116.6001	103.1428	53.97424	3.804788	199.9835	168.6189	0.9284895	12.13905	343.739
8/7/2014 3:24:33 PM	15:24:33	0	A	1	58	82.85715	42356.57	55	77.14286	27000	1110.248	86.62965	86.51883	14.18587	56.845	391.6552	39.72303	89.4061	1.051001	14.22288	1.312	1	3	1	0.15	4652	117	103.9857	54.1803	3.819313	199.8084	168.8775	0.9260387	12.10701	342.8317
8/7/2014 3:24:43 PM	15:24:43	0	A	1	59	84.28571	43086.86	55	78.57143	27500	1107.502	86.45337	86.50177	14.18587	57.33	390.9798	39.71299	89.53831	1.093	14.22234	1.326	1	3	1	0.15	4669	116.3999	103.8322	53.82346	3.794159	199.4332	167.9164	0.9301107	12.16024	344.3391
8/7/2014 3:24:53 PM	15:24:53	0	A	1	59	84.28571	43086.86	55	78.57143	27500	1106.53	86.27708	86.50177	14.18587	57.33	390.5746	39.55216	89.67052	1.07	14.22505	1.312	1	3	1	0.15	4665	116.7998	103.9211	54.40644	3.835255	199.2081	169.1087	0.9259038	12.10524	342.7817
8/7/2014 3:25:03 PM	15:25:03	0	A	1	59	84.28571	43086.86	54	77.14286	27000	1109.234	86.80593	86.48465	14.1855	57.16	390.5746	39.48682	89.67052	1.014	14.22323	1.291	1	3	1	0.15	4652	117	103.1	54.20505	3.821159	199.2081	169.0801	0.9184225	12.00743	340.0121
8/7/2014 3:25:13 PM	15:25:13	0	A	1	58	84.28571	43086.86	54	77.14286	27000	1107.671	86.67372	86.49319	14.1855	57.435	390.1244	39.90898	89.62645	1.056	14.22421	1.318001	1	3	1	0.15	4654	117.3999	104.0304	53.82309	3.794233	198.958	168.0967	0.9251944	12.09597	342.5191
8/7/2014 3:25:23 PM	15:25:23	0	A	1	58	82.85715	42356.57	55	77.14286	27000	1108.22	86.93814	86.49319	14.1855	57.435	390.1694	40.19042	89.80274	1.115999	14.22229	1.325001	1	3	1	0.15	4651	116.6001	103.0778	53.62709	3.780416	198.983	167.8586	0.9267357	12.11612	343.0897
8/7/2014 3:25:33 PM	15:25:33	4	A	1	59	82.85715	42356.57	54	77.14286	27000	1108.178	86.62965	86.47607	14.18512	57.405	390.0344	39.66774	89.67052	1.065001	14.22336	1.320999	1	3	1	0.15	4643	117.7998	103.9615	54.0338	3.809188	198.908	168.5484	0.9303815	12.16378	344.4394
8/7/2014 3:25:43 PM	15:25:43	14	A	1	59	82.85715	42356.57	54	78.57143	27500	1109.234	86.80593	86.47607	14.18512	57.405	390.6647	39.53708	89.89088	1.065001	14.22137	1.315001	1	3	1	0.15	4650	116.7998	103.4097	53.88302	3.798558	199.2582	168.3446	0.9266382	12.11484	343.0536
8/7/2014 3:25:53 PM	15:25:53	24	A	1	59	84.28571	43086.86	54	78.57143	27500	1107.84	86.18894	86.48465	14.1855	57.22	390.2144	40.15523	89.97901	1.091	14.22406	1.327999	1	3	1	0.15	4666	117.7998	105.0096	54.22012	3.822222	199.008	168.6152	0.9312142	12.17467	344.7477
8/7/2014 3:26:03 PM	15:26:03	34	A	1	58	84.28571	43086.86	55	78.57143	27500	1107.249	85.96859	86.48465	14.1855	56.85001	389.8542	39.95421	89.89088	1.083	14.22287	1.323999	1	3	1	0.15	4679	118	105.3022	54.05428	3.810531	198.8079	168.0575	0.9298289	12.15656	344.2348
8/7/2014 3:26:13 PM	15:26:13	44	A	1	59	84.28571	43086.86	55	78.57143	27500	1106.784	85.6601	86.49319	14.1855	56.63499	389.6742	40.25072	89.97901	1.117001	14.22373	1.319	1	3	1	0.15	4682	117.6001	105.1912	54.12966	3.815845	198.7079	168.0875	0.9273514	12.12417	343.3176
8/7/2014 3:26:23 PM	15:26:23	54	A	1	59	84.28571	43086.86	54	77.14286	27000	1106.826	86.01266	86.49319	14.1855	56.63499	389.449	39.61246	90.02309	1.072001	14.22381	1.330999	1	3	1	0.15	4675	117	104.3221	54.08945	3.81301	198.5828	168.1737	0.9300973	12.16007	344.3342
8/7/2014 3:26:33 PM	15:26:33	64	A	1	59	84.28571	43086.86	54	78.57143	27500	1107.291	85.92452	86.48465	14.1855	57.16499	388.5486	39.9341	89.93494	1.097	14.22561	1.313	1	3	1	0.15	4666	116.3999	103.4102	54.11459	3.814782	198.0826	168.1599	0.9260458	12.1071	342.8343
8/7/2014 3:26:43 PM	15:26:43	74	A	1	58	84.28571	43086.86	54	77.14286	27000	1104.164	85.74824	86.48465	14.1855	57.16499	388.9988	40.15022	89.97901	1.016001	14.22471	1.313	1	3	1	0.15	4679	116.7998	103.6983	54.34073	3.830724	198.3327	168.5339	0.9280783	12.13367	343.5868
8/7/2014 3:26:53 PM	15:26:53	84	A	1	58	82.85715	42356.57	55	78.57143	27500	1103.868	85.17532	86.45901	14.18475	56.44501	388.2784	40.54724	90.06715	1.091999	14.22425	1.323	1	3	1	0.15	4711	117.2002	105.1254	54.4807	3.840794	197.9325	168.395	0.9328912	12.1966	345.3685
8/7/2014 3:27:03 PM	15:27:03	94	A	1	59	84.28571	43086.86	55	78.57143	27500	1104.291	85.04311	86.4248	14.18513	56.36501	387.6031	40.21052	89.93494	1.145	14.22578	1.306999	1	3	1	0.15	4707	118.3999	105.9323	54.05892	3.810958	197.5573	167.323	0.9239237	12.07935	342.0486
8/7/2014 3:27:13 PM	15:27:13	104	A	1	59	84.28571	43086.86	55	78.57143	27500	1107.164	85.52789	86.37354	14.18475	56.005	387.378	40.28088	89.97901	1.084	14.22573	1.323	1	3	1	0.15	4684	117.3999	104.3444	54.33497	3.83052	197.4322	168.3488	0.9316095	12.17984	344.8941
8/7/2014 3:27:23 PM	15:27:23	114	A	1	59	82.85715	42356.57	55	78.57143	27500	1106.446	85.74824	86.37354	14.18475	56.005	387.8282	40.24068	90.02309	1.093	14.22346	1.341999	1	3	1	0.15	4684	117.3999	104.701	54.47065	3.840086	197.6824	168.8365	0.9314821	12.17817	344.8469
8/7/2014 3:27:33 PM	15:27:33	124	A	1	59	84.28571	43086.86	55	78.57143	27500	1105.22	85.57195	86.33075	14.18475	55.63499	387.8282	40.30601	90.02309	1.153	14.22609	1.334999	1	3	1	0.15	4702	117.2002	105.1033	54.78728	3.862407	197.6824	169.4126	0.9374922	12.25675	347.0719
8/7/2014 3:27:43 PM	15:27:43	134	A	1	58	82.85715	42356.57	56	78.57143	27500	1103.995	85.04311	86.28799	14.18438	55.52	388.1884	39.87379	90.11123	1.127001	14.22388	1.351999	1	3	1	0.15	4716	117.3999	105.4163	54.72157	3.857876	197.8825	168.8378	0.9383785	12.26834	347.4
8/7/2014 3:27:53 PM	15:27:53	144	A	1	58	82.85715	42356.57	55	78.57143	27500	1101.925	84.69054	86.28799	14.18438	55.52	387.7832	40.57739	90.11123	1.110001	14.22062	1.341	1	3	1	0.15	4735	116.7998	105.661	54.38987	3.834491	197.6573	167.7989	0.9348125	12.22171	346.0798
8/7/2014 3:28:03 PM	15:28:03	154	A	1	58	82.85715	42356.57	56	78.57143	27500	1101.587	84.47018	86.19397	14.18475	55.59	388.0983	40.2658	89.89088	1.115	14.22389	1.356001	1	3	1	0.15	4734	118	106.3595	54.67168	3.854258	197.8324	168.2568	0.9409976	12.30258	348.3696
8/7/2014 3:28:13 PM	15:28:13	164	A	1	59	84.28571	43086.86	55	80	28000	1102.77	84.73461	86.19397	14.18475	55.59	388.7287	40.60756	89.84681	1.063	14.22523	1.354	1	3	1	0.15	4731	116.7998	105.5717	54.66163	3.853549	198.1826	168.4484	0.9400446	12.29012	348.0168
8/7/2014 3:28:23 PM	15:28:23	174	A	1	59	84.28571	43086.86	55	78.57143	27500	1103.235	84.69054	86.16833	14.18438	56.265	388.6386	40.43166	89.89088	1.139	14.22424	1.334999	1	3	1	0.15	4739	117	106.4719	54.56577	3.846893	198.1326	168.1986	0.936163	12.23937	346.5798
8/7/2014 3:28:33 PM	15:28:33	184	A	1	59	84.28571	43086.86	56	78.57143	27500	1103.277	84.9109	86.12555	14.18438	56.375	388.8187	40.23565	89.80274	1.042999	14.22485	1.351999	1	3	1	0.15	4737	117.7998	105.8857	54.59089	3.848664	198.2326	168.4343	0.939715	12.28581	347.8948
8/7/2014 3:28:43 PM	15:28:43	194	A	1	59	84.28571	43086.86	55	78.57143	27500	1104.756	85.17532	86.09991	14.18438	56.485	388.8187	40.21052	89.80274	1.157	14.22192	1.333	1	3	1	0.15	4743	117.7998	106.381	54.52054	3.843704	198.2326	168.4889	0.9319874	12.18478	345.0339
8/7/2014 3:28:53 PM	15:28:53	204	A	1	58	84.28571	43086.86	55	78.57143	27500	1110.333	86.36523	86.09991	14.18438	56.485	389.0888	40.42662	89.80274	1.125999	14.22496	1.33	1	3	1	0.15	4720	117.2002	105.1463	54.20392	3.821382	198.3827	168.7306	0.9320711	12.18587	345.0649
8/7/2014 3:29:03 PM	15:29:03	214	A	1	59	84.28571	43086.86	55	78.57143	27500	1109.276	86.58558	86.10843	14.18437	56.815	389.404	40.3261	89.71458	1.068001	14.22275	1.336	1	3	1	0.15	4718	117.2002	105.461	54.46024	3.839453	198.5578	169.4945	0.934171	12.21333	345.8423
8/7/2014 3:29:13 PM	15:29:13	224	A	1	58	84.28571	43086.86	56	78.57143	27500	1107.755	86.27708	86.10843	14.18437	56.815	389.5391	40.32109	89.71458	1.17	14.22449	1.322001	1	3	1	0.15	4723	117.2002	105.3932	54.33459	3.830595	198.6328	168.9579	0.929337	12.15013	344.0527
8/7/2014 3:29:23 PM	15:29:23	234	A	1	59	84.28571	43086.86	55	78.57143	27500	1107.122	86.14487	86.09991	14.18437	57.105	389.6742	40.56734	89.45017	1.09	14.22293	1.325001	1	3	1	0.15	4730	116.7998	105.0089	54.72157	3.857877	198.7079	169.7318	0.9305676	12.16622	344.5083
8/7/2014 3:29:33 PM	15:29:33	244	A	1	59	82.85715	42356.57	56	80	28000	1107.755	85.96859	86.09137	14.18438	57.57001	390.1244	40.43667	89.75867	1.069	14.2238	1.327	1	3	1	0.15	4724	117	105.5951	54.55069	3.84583	198.958	169.2005	0.9310288	12.17225	344.679
8/7/2014 3:29:43 PM	15:29:43	254	A	1	59	84.28571	43086.86	55	78.57143	27500	1107.037	86.01266	86.09137	14.184	57.875	389.9443	40.3261	89.58238	1.091999	14.22383	1.34	1	3	1	0.15	4723	117.2002	105.9324	54.49503	3.842007	198.858	169.1127	0.9357097	12.23344	346.412
8/7/2014 3:29:53 PM	15:29:53	264	A	1	59	82.85715	42356.57	56	80	28000	1107.122	86.05673	86.09137	14.184	57.875	390.9348	40.59248	89.62645	1.083	14.22372	1.313999	1	3	1	0.15	4732	117.6001	105.7739	55.04284	3.880629	199.4082	170.3915	0.9265751	12.11402	343.0302
8/7/2014 3:30:03 PM	15:30:03	274	A	1	59	84.28571	43086.86	55	78.57143	27500	1108.178	85.96859	86.117	14.184	58.3	390.6647	40.35627	89.62645	1.083	14.22357	1.329	1	3	1	0.15	4729	118	106.6073	54.09801	3.814016	199.2582	168.1707	0.9339185	12.21002	345.7488
8/7/2014 3:30:13 PM	15:30:13	284	A	1	58	84.28571	43086.86	54	77.14286	27000	1109.953	86.45337	86.117	14.184	58.3	391.4301	39.59236	89.58238	1.079	14.22325	1.323999	1	3	1	0.15	4705	117	105.1704	54.57544	3.847676	199.6834	169.6531	0.9301087	12.16022	344.3384
8/7/2014 3:30:23 PM	15:30:23	294	A	1	59	84.28571	43086.86	55	78.57143	27500	1112.192	86.58558	86.13409	14.18475	58.505	391.4751	39.98939	89.75867	1.134001	14.22093	1.318001	1	3	1	0.15	4692	117.7998	105.2371	54.40532	3.83548	199.7084	169.3659	0.9277752	12.12971	343.4745
8/7/2014 3:30:33 PM	15:30:33	304	A	1	59	82.85715	42356.57	55	78.57143	27500	1112.488	86.58558	86.15976	14.18437	58.605	392.0154	40.35124	89.75867	1.118999	14.22275	1.316999	1	3	1	0.15	4678	116.6001	103.6762	54.12854	3.816068	200.0086	168.7364	0.9274936	12.12603	343.3703
8/7/2014 3:30:43 PM	15:30:43	314	A	1	59	84.28571	43086.86	54	78.57143	27500	1111.051	87.07035	86.18539	14.18475	57.875	392.2855	40.20549	89.75867	1.051001	14.22259	1.327	1	3	1	0.15	4684	117.2002	103.8092	54.26963	3.825914	200.1586	169.4484	0.9310052	12.17194	344.6703
8/7/2014 3:30:53 PM	15:30:53	324	A	1	59	82.85715	42356.57	55	78.57143	27500	1108.812	86.62965	86.18539	14.18475	57.875	391.4301	40.27083	89.71458	1.077	14.22338	1.332001	1	3	1	0.15	4698	118.6001	105.9084	54.96819	3.875161	199.6834	170.6815	0.9328068	12.19549	345.3373
8/7/2014 3:31:03 PM	15:31:03	334	A	1	59	84.28571	43086.86	55	78.57143	27500	1109.192	86.62965	86.2196	14.18475	57.235	390.8448	39.94918	89.67052	1.097	14.22519	1.323	1	3	1	0.15	4712	118.2002	106.5828	54.56614	3.846817	199.3582	169.7683	0.9297609	12.15567	344.2097
8/7/2014 3:31:13 PM	15:31:13	344	A	1	59	84.28571	43086.86	55	78.57143	27500	1103.657	85.88045	86.20248	14.18438	56.92	390.9798	40.62765	89.80274	1.124001	14.22521	1.325001	1	3	1	0.15	4730	117	105.1888	55.03316	3.879843	199.4332	170.2231	0.9303435	12.16329	344.4254
8/7/2014 3:31:23 PM	15:31:23	354	A	1	59	84.28571	43086.86	55	80	28000	1104.08	85.48381	86.20248	14.18438	56.92	390.2144	40.54724	89.84681	1.108999	14.22576	1.35	1	3	1	0.15	4751	117.3999	106.018	54.74669	3.859647	199.008	169.2524	0.9390317	12.27687	347.6418
8/7/2014 3:31:33 PM	15:31:33	364	A	1	59	84.28571	43086.86	56	78.57143	27500	1104.756	85.21939	86.2196	14.18513	56.78	389.9443	40.3261	89.84681	1.073	14.22416	1.327	1	3	1	0.15	4751	117.7998	106.1986	54.84796	3.866583	198.858	169.2606	0.9341218	12.21268	345.8241
8/7/2014 3:31:43 PM	15:31:43	374	A	1	58	82.85715	42356.57	56	78.57143	27500	1106.53	85.17532	86.21103	14.18437	56.77499	389.359	40.18539	89.80274	1.091999	14.22492	1.344999	1	3	1	0.15	4751	117.6001	106.1986	54.84721	3.866734	198.5328	169.2297	0.9373123	12.2544	347.0053
8/7/2014 3:31:53 PM	15:31:53	384	A	1	59	84.28571	43086.86	55	80	28000	1104.206	85.30753	86.21103	14.18437	56.77499	389.1339	40.58242	89.80274	1.086	14.2251	1.35	1	3	1	0.15	4744	116.7998	105.3197	54.78187	3.862128	198.4077	169.1891	0.93905	12.27711	347.6486
8/7/2014 3:32:03 PM	15:32:03	394	A	1	59	84.28571	43086.86	56	80	28000	1106.53	85.17532	86.20248	14.18475	56.63	388.9988	40.52715	89.84681	1.142	14.22476	1.354	1	3	1	0.15	4767	116.7998	106.1933	55.41046	3.90634	198.3327	170.4964	0.9403858	12.29458	348.1432
8/7/2014 3:32:13 PM	15:32:13	404	A	1	59	84.28571	43086.86	56	80	28000	1105.939	85.04311	86.19397	14.18475	56.25	389.5841	40.63771	89.75867	1.129999	14.22656	1.358	1	3	1	0.15	4788	116	106.2966	54.82246	3.864887	198.6579	169.0631	0.9419	12.31437	348.7037
8/7/2014 3:32:23 PM	15:32:23	414	A	1	59	84.28571	43086.86	56	80	28000	1104.967	84.9109	86.19397	14.18475	56.25	389.9893	41.31115	89.75867	1.080999	14.22501	1.355	1	3	1	0.15	4806	117.3999	107.794	55.17425	3.889688	198.883	169.7499	0.941492	12.30904	348.5527
8/7/2014 3:32:33 PM	15:32:33	424	A	1	59	84.28571	43086.86	56	80	28000	1106.995	84.69054	86.18539	14.18475	56.05499	389.7642	41.19053	89.67052	1.163	14.22964	1.365999	1	3	1	0.15	4822	117.3999	107.9695	55.13405	3.886854	198.6829	169.4801	0.943103	12.3301	349.1491
8/7/2014 3:32:43 PM	15:32:43	434	A	1	59	84.28571	43086.86	57	80	28000	1108.685	84.86683	86.18539	14.18475	56.05499	390.2144	41.05484	89.58238	1.110001	14.22436	1.353001	1	3	1	0.15	4828	116.3999	107.0006	55.56124	3.91697	199.008	170.5834	0.9402374	12.29264	348.0882
8/7/2014 3:32:53 PM	15:32:53	444	A	1	59	84.28571	43086.86	57	81.42857	28500	1107.206	84.51426	86.18539	14.18512	56.185	390.2144	41.02468	89.71458	1.101	14.22813	1.353001	1	3	1	0.15	4838	117.2002	107.775	55.15453	3.888195	199.008	169.3796	0.9447539	12.35169	349.7603
8/7/2014 3:33:03 PM	15:33:03	454	A	1	59	84.28571	43086.86	57	81.42857	28500	1105.009	84.42612	86.19397	14.18512	56.315	389.9893	41.07996	89.62645	1.134001	14.22625	1.351999	1	3	1	0.15	4836	117	107.9147	55.45606	3.909452	198.883	169.9853	0.9399187	12.28847	347.9702
8/7/2014 3:33:13 PM	15:33:13	464	A	1	59	84.28571	43086.86	56	81.42857	28500	1106.911	84.6024	86.19397	14.18513	56.375	390.1694	40.8337	89.53831	1.120001	14.22672	1.355	1	3	1	0.15	4825	118.2002	108.588	54.85299	3.866937	198.983	168.771	0.9382724	12.26695	347.3607
8/7/2014 3:33:23 PM	15:33:23	474	A	1	59	84.28571	43086.86	56	81.42857	28500	1109.572	85.30753	86.19397	14.18513	56.375	390.7547	40.95432	89.58238	1.129	14.22304	1.343	1	3	1	0.15	4815	117.2002	107.4461	54.75247	3.859851	199.3082	169.1159	0.9370765	12.25131	346.918
8/7/2014 3:33:33 PM	15:33:33	484	A	1	59	84.28571	43086.86	56	81.42857	28500	1109.488	85.21939	86.21103	14.18513	56.53999	390.5296	40.64775	89.49424	1.164	14.22441	1.351	1	3	1	0.15	4822	118.6001	108.7038	55.05904	3.881463	199.1831	169.7376	0.9396212	12.28458	347.86
8/7/2014 3:33:43 PM	15:33:43	494	A	1	59	84.28571	43086.86	56	80	28000	1108.643	85.43974	86.2196	14.18475	56.215	390.8898	41.11013	89.31796	1.077999	14.22526	1.337	1	3	1	0.15	4822	117.7998	107.9695	55.05364	3.881185	199.3832	169.9078	0.9349415	12.2234	346.1275
8/7/2014 3:33:53 PM	15:33:53	504	A	1	59	84.28571	43086.86	57	80	28000	1109.741	85.6601	86.2196	14.18475	56.215	390.5746	41.15535	89.4061	1.059999	14.22392	1.358999	1	3	1	0.15	4825	117.2002	108.0367	55.08882	3.883665	199.2081	170.1664	0.9434945	12.33522	349.294
8/7/2014 3:34:03 PM	15:34:03	514	A	1	59	84.28571	43086.86	56	81.42857	28500	1106.699	85.04311	86.23672	14.1855	55.795	390.7097	41.0498	89.4061	1.101999	14.22496	1.351	1	3	1	0.15	4835	117.3999	107.7081	55.00916	3.877844	199.2832	169.4785	0.9397366	12.28609	347.9028
8/7/2014 3:34:13 PM	15:34:13	524	A	1	59	84.28571	43086.86	56	80	28000	1107.967	85.04311	86.25381	14.18513	55.405	391.1149	40.90908	89.4061	1.09	14.22535	1.364	1	3	1	0.15	4827	117.6001	107.7139	55.64704	3.922915	199.5083	170.916	0.9428467	12.32675	349.0542
8/7/2014 3:34:23 PM	15:34:23	534	A	1	59	84.28571	43086.86	56	80	28000	1117.051	85.3516	86.25381	14.18513	55.405	392.1054	40.34621	89.45017	1.068001	14.22517	1.334999	1	3	1	0.15	4806	115.6001	105.9639	54.44591	3.838239	200.0586	168.4554	0.9341356	12.21286	345.8292
8/7/2014 3:34:33 PM	15:34:33	544	A	1	59	84.28571	43086.86	56	80	28000	1108.812	85.57195	86.27945	14.18475	55.48	392.5557	40.81863	89.49424	1.152	14.22425	1.341999	1	3	1	0.15	4808	117.3999	107.2899	54.86266	3.867721	200.3087	169.5834	0.9358121	12.23478	346.4499
8/7/2014 3:34:43 PM	15:34:43	554	A	1	59	84.28571	43086.86	57	81.42857	28500	1109.995	85.48381	86.30511	14.18475	55.36	392.9158	41.06991	89.58238	1.028	14.22544	1.349001	1	3	1	0.15	4820	118.2002	108.2917	55.07375	3.882603	200.5088	169.9891	0.9399321	12.28865	347.9752
8/7/2014 3:34:53 PM	15:34:53	564	A	1	59	84.28571	43086.86	57	81.42857	28500	1107.122	85.17532	86.30511	14.18475	55.36	392.8708	40.74324	89.4061	1.094999	14.22306	1.326	1	3	1	0.15	4830	117.3999	107.7809	55.25969	3.895712	200.4838	170.1574	0.9309475	12.17118	344.649
8/7/2014 3:35:03 PM	15:35:03	574	A	1	59	84.28571	43086.86	56	80	28000	1109.699	85.26346	86.30511	14.1855	55.12	392.3756	40.69802	89.45017	1.120001	14.22428	1.333	1	3	1	0.15	4825	118	108.2201	54.94382	3.873238	200.2087	169.5099	0.9333956	12.20319	345.5553
8/7/2014 3:35:13 PM	15:35:13	584	A	1	59	84.28571	43086.86	57	81.42857	28500	1110.079	85.61603	86.3222	14.18512	55.345	392.3305	40.74828	89.4061	1.094999	14.22632	1.333	1	3	1	0.15	4810	117.2002	107.3346	55.07913	3.88288	200.1836	170.1054	0.9335073	12.20465	345.5966
8/7/2014 3:35:23 PM	15:35:23	594	A	1	59	84.28571	43086.86	56	80	28000	1112.783	86.36523	86.3222	14.18512	55.345	393.141	40.48191	89.53831	1.073	14.2247	1.326	1	3	1	0.15	4788	117.7998	107.7553	54.56652	3.846742	200.6339	169.5515	0.930894	12.17048	344.6292
8/7/2014 3:35:33 PM	15:35:33	604	A	1	58	84.28571	43086.86	56	80	28000	1113.079	86.71779	86.33929	14.18475	55.96001	393.231	40.41658	89.62645	1.066999	14.22262	1.316	1	3	1	0.15	4779	117.3999	106.2785	54.96318	3.874808	200.6839	170.7418	0.9272473	12.12281	343.2791
8/7/2014 3:35:43 PM	15:35:43	614	A	1	59	84.28571	43086.86	56	80	28000	1111.6	86.93814	86.34784	14.18513	56.2	393.0509	40.21555	89.45017	1.065001	14.223	1.320999	1	3	1	0.15	4770	118.2002	107.3502	54.50118	3.842136	200.5838	169.867	0.929511	12.1524	344.1172
8/7/2014 3:35:53 PM	15:35:53	624	A	1	59	84.28571	43086.86	56	78.57143	27500	1111.516	87.02628	86.34784	14.18513	56.2	393.6362	40.51207	89.62645	1.122	14.22419	1.325001	1	3	1	0.15	4754	116.7998	105.7225	54.61175	3.849931	200.909	170.1905	0.9304491	12.16467	344.4644
8/7/2014 3:36:03 PM	15:36:03	634	A	1	59	84.28571	43086.86	55	80	28000	1116.586	87.42292	86.39059	14.18475	56.575	394.3566	40.24068	89.80274	1.132999	14.22378	1.308001	1	3	1	0.15	4755	118	106.8314	54.45055	3.838668	201.3092	170.1476	0.9239857	12.08016	342.0716
8/7/2014 3:36:13 PM	15:36:13	644	A	1	59	84.28571	43086.86	56	80	28000	1118.783	87.95177	86.39059	14.18438	55.45	395.3471	40.4015	89.84681	1.091	14.22442	1.313999	1	3	1	0.15	4749	118.2002	106.8776	54.18382	3.819965	201.8595	169.9684	0.9264154	12.11193	342.9711
8/7/2014 3:36:23 PM	15:36:23	654	A	1	59	84.28571	43086.86	56	80	28000	1115.614	88.12805	86.39059	14.18438	55.45	395.6172	40.30098	89.84681	1.083	14.22319	1.334999	1	3	1	0.15	4759	117	106.1965	54.66126	3.853625	202.0096	171.2035	0.9337382	12.20767	345.6821
8/7/2014 3:36:33 PM	15:36:33	664	A	1	59	84.28571	43086.86	56	80	28000	1113.628	87.51106	86.39059	14.18475	55.11	395.257	40.31103	90.06715	1.087	14.22548	1.332001	1	3	1	0.15	4766	116.7998	105.8082	54.6365	3.851777	201.8095	170.6433	0.933283	12.20172	345.5136
8/7/2014 3:36:43 PM	15:36:43	674	A	1	59	84.28571	43086.86	56	80	28000	1113.248	87.1585	86.4248	14.18438	55.25	395.212	40.5573	90.11123	1.181	14.22142	1.33	1	3	1	0.15	4762	117	106.4445	54.34464	3.831303	201.7845	169.6946	0.931703	12.18106	344.9286
8/7/2014 3:36:53 PM	15:36:53	684	A	1	59	84.28571	43086.86	55	80	28000	1114.304	87.55513	86.4248	14.18438	55.25	395.3021	40.19545	90.06715	1.014	14.22424	1.330999	1	3	1	0.15	4757	117.6001	106.3328	54.77686	3.861774	201.8345	171.002	0.9311278	12.17354	344.7157
8/7/2014 3:37:13 PM	15:37:13	0	A	1	59	84.28571	43086.86	55	80	28000	1115.149	88.17212	86.45044	14.18438	54.77499	395.3471	39.8939	90.1553	1.094	14.22362	1.304001	1	3	1	0.15	4723	117.6001	105.5728	54.23407	3.823508	201.8595	170.2621	0.9247227	12.0898	342.3444
8/7/2014 3:37:16 PM	15:37:16	0	A	2	59	84.28571	43086.86	55	78.57143	27500	1115.149	88.03991	86.45044	14.18438	54.77499	395.212	40.35124	90.24344	1.087999	14.22532	1.32	1	3	1	0.15	4723	116.3999	104.6735	54.68137	3.855042	201.7845	171.1778	0.9282206	12.13553	343.6394
8/7/2014 3:37:23 PM	15:37:23	6	A	2	59	84.28571	43086.86	55	78.57143	27500	1112.107	88.03991	86.45044	14.18438	54.77499	395.3021	40.3412	90.33158	1.118	14.22482	1.315001	1	3	1	0.15	4732	117.6001	105.4136	54.61603	3.850436	201.8345	171.0288	0.928485	12.13899	343.7373
8/7/2014 3:37:26 PM	15:37:26	9	A	2	59	84.28571	43086.86	55	80	28000	1111.981	87.77548	86.45044	14.18438	54.77499	395.4372	40.13514	90.33158	1.121	14.22355	1.299999	1	3	1	0.15	4734	117.6001	106.3595	55.03316	3.879843	201.9095	171.7632	0.9210601	12.04191	340.9885
8/7/2014 3:37:33 PM	15:37:33	16	A	2	59	84.28571	43086.86	56	80	28000	1111.22	86.98222	86.45044	14.18475	54.50999	395.9324	40.4015	90.41972	1.103001	14.22523	1.33	1	3	1	0.15	4759	117.2002	106.0151	55.00338	3.877642	202.1847	171.0477	0.9315571	12.17915	344.8746
8/7/2014 3:37:36 PM	15:37:36	19	A	2	59	84.28571	43086.86	56	80	28000	1108.22	86.85	86.45044	14.18475	54.50999	395.257	40.62765	90.28751	1.191999	14.22226	1.337	1	3	1	0.15	4772	117.6001	106.1228	54.82748	3.865241	201.8095	170.5413	0.9333233	12.20224	345.5285
8/7/2014 3:37:43 PM	15:37:43	26	A	2	59	84.28571	43086.86	56	80	28000	1110.882	86.62965	86.48465	14.18475	54.49001	395.212	40.57739	90.50787	1.113001	14.22288	1.332001	1	3	1	0.15	4768	117.7998	106.3973	54.60133	3.849298	201.7845	169.8484	0.9321275	12.18661	345.0858
8/7/2014 3:37:46 PM	15:37:46	29	A	2	59	84.28571	43086.86	56	80	28000	1111.178	86.67372	86.48465	14.18475	54.49001	395.122	40.69802	90.41972	1.143	14.22403	1.306999	1	3	1	0.15	4766	116.6001	105.8082	54.49076	3.841503	201.7344	169.4894	0.9234752	12.07349	341.8826
8/7/2014 3:37:53 PM	15:37:53	36	A	2	59	84.28571	43086.86	56	80	28000	1112.445	86.5415	86.48465	14.18475	54.49001	394.8518	40.49699	90.55194	1.063	14.22288	1.313999	1	3	1	0.15	4771	115.7998	105.0108	54.6365	3.851777	201.5844	169.857	0.9278941	12.13126	343.5185
8/7/2014 3:37:56 PM	15:37:56	39	A	2	59	84.28571	43086.86	56	80	28000	1109.023	86.32115	86.48465	14.18475	54.49001	394.8518	40.46684	90.55194	1.141001	14.2245	1.329	1	3	1	0.15	4777	118	107.5077	54.72697	3.858155	201.5844	169.8839	0.9310906	12.17305	344.7019
8/7/2014 3:38:03 PM	15:38:03	46	A	2	59	84.28571	43086.86	56	80	28000	1107.798	85.7923	86.47607	14.184	54.53	394.6267	40.57237	90.41972	1.099001	14.22372	1.343	1	3	1	0.15	4788	116.7998	106.4786	54.77145	3.861496	201.4593	169.5622	0.9360434	12.23781	346.5355
8/7/2014 3:38:06 PM	15:38:06	49	A	2	59	84.28571	43086.86	56	81.42857	28500	1106.277	85.88045	86.47607	14.184	54.53	394.7618	40.52715	90.46379	1.110001	14.22285	1.333	1	3	1	0.15	4788	117.7998	107.3903	54.44479	3.838465	201.5343	168.8912	0.9328481	12.19603	345.3526
8/7/2014 3:38:13 PM	15:38:13	56	A	2	59	84.28571	43086.86	56	80	28000	1108.685	85.7923	86.47607	14.184	54.53	394.7168	40.4015	90.41972	1.098	14.22263	1.334	1	3	1	0.15	4786	118	107.5278	54.53021	3.844488	201.5093	169.0143	0.9328687	12.1963	345.3602
8/7/2014 3:38:16 PM	15:38:16	59	A	2	59	84.28571	43086.86	56	80	28000	1107.544	85.6601	86.47607	14.184	55.185	394.7168	40.14016	90.41972	1.056	14.22361	1.336	1	3	1	0.15	4788	116.7998	106.2966	54.69104	3.855826	201.5093	169.2725	0.9336196	12.20612	345.6382
8/7/2014 3:38:23 PM	15:38:23	66	A	2	59	84.28571	43086.86	56	80	28000	1108.896	85.74824	86.47607	14.184	55.185	394.4916	40.04467	90.33158	1.1	14.22144	1.313999	1	3	1	0.15	4781	119	107.9618	54.22366	3.822875	201.3842	168.2798	0.925913	12.10536	342.7851
8/7/2014 3:38:26 PM	15:38:26	69	A	2	59	84.28571	43086.86	56	80	28000	1107.502	85.6601	86.47607	14.184	55.185	394.8068	40.27083	90.37565	1.162001	14.22589	1.323999	1	3	1	0.15	4778	117.6001	106.6205	54.42467	3.837047	201.5594	168.6669	0.9295182	12.1525	344.1198
8/7/2014 3:38:33 PM	15:38:33	76	A	2	59	84.28571	43086.86	56	80	28000	1108.009	85.70416	86.48465	14.18438	55.31	395.257	40.48191	90.41972	1.125	14.22323	1.329	1	3	1	0.15	4771	118.2002	107.3727	55.06331	3.881969	201.8095	170.0046	0.9325374	12.19197	345.2375
8/7/2014 3:38:36 PM	15:38:36	79	A	2	59	84.28571	43086.86	56	80	28000	1108.896	85.57195	86.48465	14.18438	55.31	395.257	40.45678	90.55194	1.106001	14.22214	1.308001	1	3	1	0.15	4768	116.6001	106.0339	54.24915	3.824571	201.8095	168.192	0.9236495	12.07577	341.9471
8/7/2014 3:38:43 PM	15:38:43	86	A	2	58	84.28571	43086.86	56	80	28000	1110.459	85.83637	86.5274	14.18325	55.64999	395.032	40.72817	90.41972	1.132	14.22423	1.315001	1	3	1	0.15	4765	116.7998	105.9671	54.62998	3.851725	201.6844	169.2834	0.9262792	12.11015	342.9207
8/7/2014 3:38:46 PM	15:38:46	89	A	2	59	84.28571	43086.86	56	80	28000	1109.065	85.83637	86.5274	14.18325	55.64999	395.167	40.31103	90.46379	1.132999	14.2225	1.320999	1	3	1	0.15	4766	117	105.9894	54.50434	3.842867	201.7594	168.9977	0.9300523	12.15948	344.3176
8/7/2014 3:38:53 PM	15:38:53	96	A	2	59	84.28571	43086.86	56	80	28000	1106.953	85.48381	86.5274	14.18325	55.64999	394.4916	40.39647	90.46379	1.070999	14.22409	1.341	1	3	1	0.15	4771	116.2002	105.5559	54.68024	3.855269	201.3842	169.1115	0.9353153	12.22829	346.266
8/7/2014 3:38:56 PM	15:38:56	99	A	2	59	84.28571	43086.86	56	80	28000	1111.009	85.74824	86.5274	14.18325	55.64999	394.3566	40.50704	90.46379	1.136	14.22206	1.325001	1	3	1	0.15	4773	118.3999	107.5992	54.53449	3.844993	201.3092	168.9948	0.929682	12.15464	344.1805
8/7/2014 3:39:03 PM	15:39:03	106	A	2	59	84.28571	43086.86	56	80	28000	1108.77	85.57195	86.5274	14.184	55.50999	393.4111	40.31606	90.46379	1.080999	14.22527	1.330999	1	3	1	0.15	4776	117.3999	106.7575	54.38446	3.834212	200.7839	168.5038	0.93187	12.18324	344.9905
8/7/2014 3:39:06 PM	15:39:06	109	A	2	59	84.28571	43086.86	56	80	28000	1108.262	85.43974	86.5274	14.184	55.50999	392.8708	40.45175	90.33158	1.042	14.22484	1.316	1	3	1	0.15	4777	117.6001	106.7798	54.59555	3.849094	200.4838	168.8769	0.9267362	12.11613	343.0899
8/7/2014 3:39:13 PM	15:39:13	116	A	2	59	84.28571	43086.86	56	80	28000	1107.544	85.6601	86.5274	14.184	55.50999	392.7357	40.61257	90.33158	1.150999	14.22513	1.320999	1	3	1	0.15	4777	117.3999	106.9619	54.8418	3.866456	200.4088	169.6143	0.9285035	12.13923	343.7442
8/7/2014 3:39:16 PM	15:39:16	119	A	2	59	84.28571	43086.86	56	80	28000	1108.178	85.52789	86.5274	14.184	55.50999	392.8708	40.38139	90.33158	1.148001	14.2239	1.333	1	3	1	0.15	4774	117.6001	107.4402	54.77648	3.86185	200.4838	169.3589	0.9326559	12.19352	345.2814
8/7/2014 3:39:23 PM	15:39:23	126	A	2	59	84.28571	43086.86	56	80	28000	1108.474	85.52789	86.5274	14.184	55.50999	392.9158	40.2859	90.33158	1.115	14.22581	1.312	1	3	1	0.15	4772	116.7998	106.3047	54.5855	3.848386	200.5088	168.9256	0.925361	12.09814	342.5807
8/7/2014 3:39:26 PM	15:39:26	129	A	2	59	84.28571	43086.86	56	80	28000	1109.741	85.48381	86.5274	14.184	55.50999	393.186	40.65279	90.37565	1.146999	14.22545	1.322001	1	3	1	0.15	4767	117.6001	106.5563	54.53524	3.844842	200.6589	168.7756	0.9288071	12.1432	343.8566
8/7/2014 3:39:33 PM	15:39:33	136	A	2	59	84.28571	43086.86	55	80	28000	1109.868	85.92452	86.5274	14.184	55.83501	392.8708	40.18539	90.33158	1.143	14.22625	1.336	1	3	1	0.15	4764	116.7998	105.5822	54.24877	3.824646	200.4838	168.4798	0.9355109	12.23084	346.3384
8/7/2014 3:39:36 PM	15:39:36	139	A	2	59	84.28571	43086.86	55	80	28000	1109.868	85.92452	86.5274	14.184	55.83501	392.8708	40.18539	90.33158	1.143	14.22625	1.336	1	3	1	0.15	4764	116.7998	105.5822	54.24877	3.824646	200.4838	168.4798	0.9355109	12.23084	346.3384
8/7/2014 3:39:43 PM	15:39:43	146	A	2	59	84.28571	43086.86	56	80	28000	1111.347	86.05673	86.5274	14.184	56.605	392.9609	40.46181	90.28751	1.167999	14.2252	1.326	1	3	1	0.15	4763	116.6001	106.1042	54.71616	3.857597	200.5338	169.6513	0.9320315	12.18536	345.0503
8/7/2014 3:39:46 PM	15:39:46	149	A	2	59	84.28571	43086.86	56	80	28000	1110.333	85.92452	86.5274	14.184	56.605	393.4111	40.5975	90.33158	1.089001	14.22585	1.344	1	3	1	0.15	4767	118.3999	107.4639	55.09309	3.884171	200.7839	170.3976	0.9365319	12.24419	346.7164
8/7/2014 3:39:53 PM	15:39:53	156	A	2	59	84.28571	43086.86	56	80	28000	1107.037	85.6601	86.5274	14.184	56.605	393.4111	40.70303	90.33158	1.065001	14.22571	1.343	1	3	1	0.15	4775	117	106.5536	55.02776	3.879566	200.7839	170.035	0.9351389	12.22598	346.2007
8/7/2014 3:39:56 PM	15:39:56	159	A	2	59	84.28571	43086.86	56	80	28000	1107.037	85.3516	86.5274	14.184	56.605	393.276	40.87893	90.19937	1.134001	14.22827	1.34	1	3	1	0.15	4778	117.3999	106.9843	54.39452	3.834921	200.7089	168.3483	0.9353279	12.22845	346.2706
8/7/2014 3:40:03 PM	15:40:03	166	A	2	59	84.28571	43086.86	56	80	28000	1105.685	85.21939	86.5274	14.18363	56.82001	393.0509	40.50704	90.19937	1.107	14.22201	1.322001	1	3	1	0.15	4785	118.2002	107.6878	54.83138	3.865823	200.5838	169.2362	0.9288656	12.14396	343.8781
8/7/2014 3:40:06 PM	15:40:06	169	A	2	59	84.28571	43086.86	56	80	28000	1106.319	85.08717	86.5274	14.18363	56.82001	393.0509	40.43667	90.24344	1.122	14.22425	1.341	1	3	1	0.15	4784	116.7998	106.572	54.71077	3.857319	200.5838	168.8557	0.9344859	12.21744	345.9589
8/7/2014 3:40:13 PM	15:40:13	176	A	2	59	84.28571	43086.86	56	78.57143	27500	1107.375	85.21939	86.51883	14.18362	56.88499	393.0059	40.52715	90.33158	1.091	14.22649	1.320999	1	3	1	0.15	4774	117.2002	106.3493	54.59517	3.849169	200.5588	168.7007	0.9285401	12.13971	343.7577
8/7/2014 3:40:16 PM	15:40:16	179	A	2	59	84.28571	43086.86	56	80	28000	1108.262	85.3516	86.51883	14.18362	56.88499	393.276	40.68795	90.19937	1.142	14.22399	1.346001	1	3	1	0.15	4769	116.6001	105.693	55.02739	3.879642	200.7089	169.7868	0.9372699	12.25384	346.9896
8/7/2014 3:40:23 PM	15:40:23	186	A	2	59	84.28571	43086.86	56	80	28000	1109.319	85.26346	86.51883	14.18362	56.88499	393.4561	40.62765	90.24344	1.198	14.22323	1.327	1	3	1	0.15	4770	117	106.6234	54.49968	3.842437	200.809	168.5195	0.9305912	12.16652	344.517
8/7/2014 3:40:26 PM	15:40:26	189	A	2	59	84.28571	43086.86	56	80	28000	1107.291	85.39568	86.51883	14.18362	56.88499	393.4561	40.09996	90.24344	1.142	14.22312	1.327	1	3	1	0.15	4771	117	105.374	54.70574	3.856965	200.809	169.0946	0.9305876	12.16648	344.5157
8/7/2014 3:40:33 PM	15:40:33	196	A	2	59	84.28571	43086.86	56	80	28000	1109.488	85.70416	86.53595	14.184	57.21001	393.8613	40.28088	90.24344	1.184	14.2248	1.32	1	3	1	0.15	4760	117	106.3998	54.43975	3.83811	201.0341	168.7369	0.9299552	12.15821	344.2816
8/7/2014 3:40:36 PM	15:40:36	199	A	2	59	84.28571	43086.86	56	80	28000	1109.868	85.74824	86.53595	14.184	57.21001	393.4561	40.50704	90.24344	1.163	14.22252	1.32	1	3	1	0.15	4756	117.7998	106.4917	54.71616	3.857597	200.809	169.401	0.9274267	12.12515	343.3455
8/7/2014 3:40:43 PM	15:40:43	206	A	2	59	84.28571	43086.86	56	80	28000	1111.009	86.32115	86.55304	14.18362	57.05499	393.4561	40.42159	90.24344	1.104	14.22446	1.327999	1	3	1	0.15	4741	118	106.5168	54.63036	3.85165	200.809	169.6741	0.9310001	12.17187	344.6684
8/7/2014 3:40:46 PM	15:40:46	209	A	2	59	84.28571	43086.86	56	80	28000	1111.009	86.32115	86.55304	14.18362	57.05499	393.4561	40.42159	90.24344	1.104	14.22446	1.327999	1	3	1	0.15	4741	118	106.5168	54.63036	3.85165	200.809	169.6741	0.9310001	12.17187	344.6684
8/7/2014 3:40:53 PM	15:40:53	216	A	2	59	84.28571	43086.86	55	80	28000	1113.29	86.27708	86.55304	14.18362	57.05499	393.6362	40.3412	90.28751	1.122999	14.22461	1.332001	1	3	1	0.15	4745	117	105.3419	54.57005	3.847398	200.909	169.5012	0.9347881	12.2214	346.0708
8/7/2014 3:40:56 PM	15:40:56	219	A	2	59	84.28571	43086.86	55	78.57143	27500	1110.755	86.27708	86.55304	14.18362	57.05499	393.5012	40.43166	90.28751	1.143	14.22381	1.334999	1	3	1	0.15	4752	115.6001	104.9544	54.50471	3.842792	200.834	169.3524	0.9319735	12.1846	345.0288
8/7/2014 3:41:03 PM	15:41:03	226	A	2	59	84.28571	43086.86	56	80	28000	1107.925	86.1008	86.5787	14.184	57.36	393.9063	40.56231	90.28751	1.048	14.2252	1.339001	1	3	1	0.15	4761	117	106.2411	54.69104	3.855826	201.0591	169.6301	0.9330859	12.19914	345.4406
8/7/2014 3:41:06 PM	15:41:06	229	A	2	59	84.28571	43086.86	55	80	28000	1110.206	86.01266	86.5787	14.184	57.36	394.0864	40.51207	90.33158	1.132	14.22401	1.327	1	3	1	0.15	4762	117.2002	106.9886	54.71616	3.857597	201.1591	169.6156	0.9322919	12.18876	345.1467
8/7/2014 3:41:13 PM	15:41:13	236	A	2	59	84.28571	43086.86	55	78.57143	27500	1107.925	85.88045	86.60437	14.184	56.92	393.8163	40.62263	90.33158	1.145	14.22654	1.323	1	3	1	0.15	4765	117.3999	106.8744	54.64581	3.852637	201.0091	169.3485	0.9292517	12.14901	344.0211
8/7/2014 3:41:16 PM	15:41:16	239	A	2	59	84.28571	43086.86	56	80	28000	1108.685	85.92452	86.60437	14.184	56.92	393.9063	40.16026	90.41972	1.132999	14.22581	1.327999	1	3	1	0.15	4767	117.3999	106.1933	54.60058	3.849448	201.0591	169.2815	0.9308847	12.17036	344.6257
8/7/2014 3:41:23 PM	15:41:23	246	A	2	59	84.28571	43086.86	56	78.57143	27500	1108.685	85.7923	86.60437	14.184	56.92	393.7713	40.49699	90.28751	1.128	14.22556	1.337999	1	3	1	0.15	4766	116.3999	106.171	54.74129	3.859369	200.9841	169.4938	0.934485	12.21743	345.9586
8/7/2014 3:41:26 PM	15:41:26	249	A	2	59	84.28571	43086.86	55	80	28000	1109.446	85.7923	86.60437	14.184	56.92	393.9063	40.96941	90.28751	1.127001	14.22495	1.339001	1	3	1	0.15	4766	116.6001	105.9894	54.81668	3.864684	201.0591	169.6648	0.9379361	12.26255	347.2362
8/7/2014 3:41:33 PM	15:41:33	256	A	2	59	84.28571	43086.86	56	80	28000	1111.136	85.83637	86.60437	14.18325	56.5	394.1315	40.71309	90.24344	1.163	14.2225	1.332001	1	3	1	0.15	4771	117.6001	107.3727	54.53449	3.844993	201.1842	169.0663	0.9323221	12.18916	345.1579
8/7/2014 3:41:36 PM	15:41:36	259	A	2	59	84.28571	43086.86	56	80	28000	1108.854	85.70416	86.60437	14.18325	56.5	393.9964	40.39144	90.24344	1.127001	14.22123	1.326	1	3	1	0.15	4771	116	105.5559	54.53952	3.845347	201.1091	168.9705	0.9329743	12.19768	345.3993
8/7/2014 3:41:43 PM	15:41:43	266	A	2	59	84.28571	43086.86	56	80	28000	1108.643	85.74824	86.60437	14.18325	56.5	394.8969	40.68795	90.33158	1.070999	14.2255	1.333	1	3	1	0.15	4769	117.2002	106.7828	54.76064	3.860937	201.6094	169.5085	0.9327004	12.1941	345.2979
8/7/2014 3:41:46 PM	15:41:46	269	A	2	59	84.28571	43086.86	56	80	28000	1106.234	85.74824	86.63855	14.18438	56.14999	394.2215	40.45175	90.33158	1.094999	14.22539	1.336	1	3	1	0.15	4768	116.3999	106.3973	54.7869	3.862483	201.2342	169.5582	0.9337507	12.20783	345.6867
8/7/2014 3:41:53 PM	15:41:53	276	A	2	59	84.28571	43086.86	56	80	28000	1107.671	85.3516	86.63855	14.18438	56.14999	394.2665	40.80858	90.24344	1.152	14.2242	1.336	1	3	1	0.15	4773	116.6001	105.7816	54.51048	3.842994	201.2592	168.6088	0.9320304	12.18534	345.0499
8/7/2014 3:41:56 PM	15:41:56	279	A	2	59	84.28571	43086.86	56	80	28000	1107.671	85.3516	86.63855	14.18438	56.14999	394.2665	40.80858	90.24344	1.152	14.2242	1.336	1	3	1	0.15	4773	116.6001	105.7816	54.51048	3.842994	201.2592	168.6088	0.9320304	12.18534	345.0499
8/7/2014 3:42:03 PM	15:42:03	286	A	2	59	84.28571	43086.86	56	80	28000	1106.277	85.04311	86.67276	14.184	55.83	393.9964	40.74324	90.24344	1.179001	14.22415	1.329	1	3	1	0.15	4781	118.6001	107.9618	55.11319	3.885589	201.1091	169.7264	0.9313216	12.17607	344.7875
8/7/2014 3:42:06 PM	15:42:06	289	A	2	59	84.28571	43086.86	56	80	28000	1105.77	84.77868	86.67276	14.184	55.83	394.2665	40.89401	90.24344	1.164	14.22502	1.349001	1	3	1	0.15	4787	118.2002	107.5503	55.11823	3.885944	201.2592	169.5227	0.9372721	12.25387	346.9904
8/7/2014 3:42:13 PM	15:42:13	296	A	2	59	84.28571	43086.86	56	80	28000	1105.685	84.33797	86.71552	14.18438	55.87	393.6812	40.72817	90.33158	1.153999	14.22525	1.344	1	3	1	0.15	4786	115.7998	106.2522	54.86731	3.868151	200.934	168.5952	0.9365241	12.24409	346.7135
8/7/2014 3:42:16 PM	15:42:16	299	A	2	59	84.28571	43086.86	56	80	28000	1103.404	84.33797	86.71552	14.18438	55.87	393.6812	40.92416	90.33158	1.156	14.22427	1.323999	1	3	1	0.15	4785	117.7998	107.323	54.83213	3.865671	200.934	168.5157	0.929509	12.15238	344.1164
8/7/2014 3:42:23 PM	15:42:23	306	A	2	59	82.85715	42356.57	56	80	28000	1108.981	84.73461	86.71552	14.18438	55.87	393.7713	40.43166	90.1553	1.128	14.22474	1.337999	1	3	1	0.15	4773	117.2002	107.0538	54.50547	3.842641	200.9841	168.0974	0.9345617	12.21844	345.987
8/7/2014 3:42:26 PM	15:42:26	309	A	2	59	84.28571	43086.86	56	80	28000	1107.882	84.69054	86.71552	14.18438	55.87	393.7713	40.92919	90.1553	1.106001	14.22561	1.320999	1	3	1	0.15	4769	117.7998	106.9641	54.86731	3.868151	200.9841	168.8815	0.9286501	12.14115	343.7984
8/7/2014 3:42:33 PM	15:42:33	316	A	2	59	84.28571	43086.86	56	80	28000	1108.685	84.82275	86.7326	14.18438	55.86501	393.9514	40.62765	90.19937	1.124001	14.22615	1.322001	1	3	1	0.15	4760	116.7998	105.8559	54.88239	3.869215	201.0841	169.023	0.9289981	12.1457	343.9272
8/7/2014 3:42:36 PM	15:42:36	319	A	2	59	84.28571	43086.86	56	78.57143	27500	1108.305	85.04311	86.7326	14.18438	55.86501	393.4111	40.62263	90.06715	1.145	14.22489	1.33	1	3	1	0.15	4758	117.6001	106.5365	54.65623	3.85327	200.7839	168.6897	0.9315058	12.17848	344.8556
8/7/2014 3:42:43 PM	15:42:43	326	A	2	59	84.28571	43086.86	55	78.57143	27500	1112.995	85.30753	86.7326	14.18438	55.86501	393.6812	40.65279	90.06715	1.146999	14.22529	1.326	1	3	1	0.15	4739	118	106.6525	54.98793	3.876655	200.934	169.6552	0.9294128	12.15112	344.0808
8/7/2014 3:42:46 PM	15:42:46	329	A	2	59	84.28571	43086.86	56	80	28000	1111.22	85.43974	86.79245	14.184	55.52499	393.7713	40.09493	90.1553	1.094999	14.22664	1.32	1	3	1	0.15	4741	118	106.3361	54.49503	3.842007	200.9841	168.6484	0.9283478	12.13719	343.6865
8/7/2014 3:42:53 PM	15:42:53	336	A	2	59	84.28571	43086.86	55	78.57143	27500	1113.417	86.01266	86.79245	14.184	55.52499	394.0864	40.01451	90.19937	1.08	14.22184	1.312	1	3	1	0.15	4726	116.3999	104.74	54.09801	3.814016	201.1591	168.2063	0.9263914	12.11162	342.9622
8/7/2014 3:42:56 PM	15:42:56	339	A	2	59	84.28571	43086.86	55	78.57143	27500	1119.501	86.01266	86.79245	14.184	55.52499	394.8969	39.32097	90.19937	1.091	14.22195	1.263	1	3	1	0.15	4701	116.6001	104.7231	53.84673	3.7963	201.6094	167.6302	0.9079741	11.87083	336.1439
8/7/2014 3:43:03 PM	15:43:03	346	A	2	59	84.28571	43086.86	54	77.14286	27000	1122.712	88.92133	86.83521	14.18438	55.565	396.0675	40.10499	90.1553	1.115999	14.22319	1.299999	1	3	1	0.15	4619	117	102.7203	54.03305	3.809336	202.2597	170.4061	0.9215547	12.04838	341.1716
8/7/2014 3:43:06 PM	15:43:06	349	A	2	59	84.28571	43086.86	54	77.14286	27000	1122.712	88.92133	86.83521	14.18438	55.565	396.0675	40.10499	90.1553	1.115999	14.22319	1.299999	1	3	1	0.15	4619	117	102.7203	54.03305	3.809336	202.2597	170.4061	0.9215547	12.04838	341.1716
8/7/2014 3:43:13 PM	15:43:13	356	A	2	59	84.28571	43086.86	54	78.57143	27500	1118.614	89.27389	86.87796	14.184	55.78	396.1125	39.57225	90.19937	1.040001	14.22303	1.298	1	3	1	0.15	4637	118	103.8272	54.02764	3.809055	202.2847	170.682	0.9204462	12.03389	340.7612
8/7/2014 3:43:16 PM	15:43:16	359	A	2	59	84.28571	43086.86	54	77.14286	27000	1117.727	89.4061	86.87796	14.184	55.78	396.2025	39.82354	90.41972	1.143	14.22542	1.299999	1	3	1	0.15	4645	117.3999	103.2985	54.31411	3.829252	202.3348	171.4481	0.9245679	12.08778	342.2871
8/7/2014 3:43:23 PM	15:43:23	366	A	2	59	84.28571	43086.86	54	78.57143	27500	1116.839	89.27389	86.87796	14.184	55.78	395.9774	39.98436	90.33158	1.124001	14.22155	1.301001	1	3	1	0.15	4661	118.6001	104.7194	53.89699	3.799844	202.2097	170.3805	0.919583	12.0226	340.4417
8/7/2014 3:43:26 PM	15:43:26	369	A	2	59	84.28571	43086.86	55	77.14286	27000	1118.361	89.00946	86.87796	14.184	55.78	395.8423	40.0095	90.33158	1.136	14.22198	1.313999	1	3	1	0.15	4662	117.6001	103.8543	54.56036	3.846613	202.1346	171.5839	0.9245349	12.08735	342.2749
8/7/2014 3:43:33 PM	15:43:33	376	A	2	59	84.28571	43086.86	55	78.57143	27500	1117.389	89.00946	86.91217	14.184	56.015	395.7973	39.94416	90.41972	1.025	14.2248	1.311001	1	3	1	0.15	4665	117.2002	104.4541	54.35934	3.832441	202.1096	171.2306	0.9259437	12.10576	342.7965
8/7/2014 3:43:36 PM	15:43:36	379	A	2	59	84.28571	43086.86	55	78.57143	27500	1116.501	88.87725	86.91217	14.184	56.015	395.7973	39.8939	90.41972	1.083	14.22303	1.323999	1	3	1	0.15	4666	117.2002	103.9434	54.41463	3.836339	202.1096	171.2503	0.9269465	12.11887	343.1677
8/7/2014 3:43:43 PM	15:43:43	386	A	2	58	82.85715	42356.57	55	77.14286	27000	1119.036	89.0976	86.96344	14.184	55.98	395.8423	39.58735	90.59601	1.111	14.22328	1.299999	1	3	1	0.15	4658	117.3999	103.9427	53.84673	3.7963	202.1346	170.1221	0.9232838	12.07099	341.8118
8/7/2014 3:43:46 PM	15:43:46	389	A	2	59	84.28571	43086.86	54	77.14286	27000	1118.572	88.83318	86.96344	14.184	55.98	396.1125	40.2859	90.59601	1.158001	14.22383	1.306999	1	3	1	0.15	4653	116.6001	102.9452	54.22366	3.822875	202.2847	170.7765	0.9208356	12.03898	340.9054
8/7/2014 3:43:53 PM	15:43:53	396	A	2	59	84.28571	43086.86	55	78.57143	27500	1116.544	88.43655	86.96344	14.184	55.98	395.9774	39.39133	90.59601	1.101	14.22173	1.290001	1	3	1	0.15	4655	117.7998	104.5846	53.59544	3.778584	202.2097	169.0075	0.9182987	12.00581	339.9662
8/7/2014 3:43:56 PM	15:43:56	399	A	2	59	82.85715	42356.57	55	78.57143	27500	1120.219	88.74504	86.96344	14.184	55.98	396.0675	39.51698	90.68414	1.110001	14.22299	1.294001	1	3	1	0.15	4639	117.3999	103.1651	53.5703	3.776812	202.2597	169.1981	0.9157944	11.97307	339.0391
8/7/2014 3:44:03 PM	15:44:03	406	A	2	59	84.28571	43086.86	54	77.14286	27000	1116.206	88.52469	86.99765	14.18362	55.075	396.6078	40.16529	90.68414	1.045	14.22558	1.306999	1	3	1	0.15	4639	117.2002	103.8719	53.94184	3.803107	202.5599	169.8819	0.9215252	12.048	341.1607
8/7/2014 3:44:06 PM	15:44:06	409	A	2	59	84.28571	43086.86	54	77.14286	27000	1115.065	88.39248	86.99765	14.18362	55.075	396.3376	39.6778	90.68414	1.139	14.22399	1.313999	1	3	1	0.15	4650	117	103.5869	54.10768	3.814799	202.4098	170.1568	0.9221966	12.05677	341.4092
8/7/2014 3:44:13 PM	15:44:13	416	A	2	59	84.28571	43086.86	55	78.57143	27500	1115.994	87.99583	86.99765	14.18362	55.075	395.8423	39.99944	90.72821	1.160999	14.22385	1.316	1	3	1	0.15	4664	118.2002	105.3197	54.08256	3.813028	202.1346	169.7782	0.9263787	12.11145	342.9575
8/7/2014 3:44:16 PM	15:44:16	419	A	2	59	84.28571	43086.86	54	78.57143	27500	1113.079	87.46699	87.03183	14.18362	54.91499	395.8423	39.96427	90.59601	1.040001	14.2245	1.316999	1	3	1	0.15	4666	118	105.187	54.08256	3.813028	202.1346	169.3505	0.9243997	12.08558	342.2249
8/7/2014 3:44:23 PM	15:44:23	426	A	2	59	84.28571	43086.86	55	78.57143	27500	1116.67	87.86362	87.03183	14.18362	54.91499	395.6172	39.58735	90.77229	1.122999	14.22356	1.305	1	3	1	0.15	4656	116.3999	103.1886	54.05241	3.810902	202.0096	169.602	0.9242225	12.08326	342.1593
8/7/2014 3:44:26 PM	15:44:26	429	A	2	59	84.28571	43086.86	54	77.14286	27000	1116.333	88.03991	87.03183	14.18362	54.91499	395.6623	39.56221	90.81635	1.055	14.22602	1.297001	1	3	1	0.15	4654	116.6001	103.3217	54.06245	3.81161	202.0346	169.7676	0.9210901	12.04231	340.9996
8/7/2014 3:44:33 PM	15:44:33	436	A	2	59	84.28571	43086.86	54	77.14286	27000	1114.854	88.21619	87.10025	14.184	55.465	396.0675	39.53708	90.81635	1.098	14.22292	1.308001	1	3	1	0.15	4639	117.6001	103.8719	53.82159	3.794528	202.2597	169.3521	0.9234578	12.07326	341.8762
8/7/2014 3:44:36 PM	15:44:36	439	A	2	59	84.28571	43086.86	54	77.14286	27000	1116.375	88.3484	87.10025	14.184	55.465	396.2025	40.31103	90.81635	1.136	14.2256	1.309	1	3	1	0.15	4640	117	103.3642	54.02764	3.809055	202.3348	169.9337	0.924233	12.0834	342.1631
8/7/2014 3:44:43 PM	15:44:43	446	A	2	59	82.85715	42356.57	55	78.57143	27500	1115.487	88.08398	87.13443	14.18438	55	395.8423	39.88386	90.86044	1.115	14.22521	1.305	1	3	1	0.15	4644	117	103.6303	53.77172	3.790912	202.1346	169.127	0.92066	12.03668	340.8404
8/7/2014 3:44:46 PM	15:44:46	449	A	2	59	84.28571	43086.86	55	78.57143	27500	1115.234	87.81956	87.13443	14.18438	55	395.8423	40.14016	90.86044	1.004	14.22373	1.294001	1	3	1	0.15	4647	119	104.7587	53.83704	3.795517	202.1346	169.0641	0.9185132	12.00862	340.0456
8/7/2014 3:44:53 PM	15:44:53	456	A	2	59	84.28571	43086.86	55	77.14286	27000	1112.107	87.68735	87.13443	14.18438	55	395.4372	39.96928	90.86044	1.129999	14.22294	1.308001	1	3	1	0.15	4662	117.3999	103.6766	54.12854	3.816068	202.0596	169.6277	0.9234226	12.0728	341.8631
8/7/2014 3:44:56 PM	15:44:56	459	A	2	59	84.28571	43086.86	54	77.14286	27000	1113.375	87.42292	87.13443	14.18438	55	395.3021	40.09996	90.99264	1.084	14.22511	1.302	1	3	1	0.15	4667	117.2002	103.7878	54.05316	3.810753	201.8345	169.2408	0.9194832	12.0213	340.4048
8/7/2014 3:45:03 PM	15:45:03	466	A	2	59	84.28571	43086.86	54	77.14286	27000	1112.995	87.11443	87.1601	14.18438	54.3	395.3922	40.22057	91.08078	1.145	14.22507	1.313999	1	3	1	0.15	4675	117	104.1439	54.27429	3.826343	201.8845	169.498	0.9282067	12.13535	343.6343
8/7/2014 3:45:06 PM	15:45:06	469	A	2	59	84.28571	43086.86	55	78.57143	27500	1113.079	87.11443	87.1601	14.18438	54.3	395.3922	40.70806	91.08078	1.104	14.22272	1.311001	1	3	1	0.15	4674	117.6001	105.0115	54.33961	3.830948	201.8845	169.8616	0.9242721	12.08391	342.1776
8/7/2014 3:45:13 PM	15:45:13	476	A	2	59	84.28571	43086.86	55	78.57143	27500	1111.305	86.98222	87.1601	14.18438	54.3	394.9419	40.58242	91.16891	1.117001	14.22482	1.315001	1	3	1	0.15	4684	117.2002	104.701	54.60096	3.849373	201.6344	170.1367	0.9246274	12.08855	342.3092
8/7/2014 3:45:16 PM	15:45:16	479	A	2	59	84.28571	43086.86	55	78.57143	27500	1110.164	86.62965	87.17719	14.18362	53.80499	394.7618	39.90898	90.99264	1.150999	14.22432	1.306	1	3	1	0.15	4692	117.6001	105.5948	54.27855	3.826847	201.5343	169.1219	0.9226311	12.06246	341.5701
8/7/2014 3:45:23 PM	15:45:23	486	A	2	59	84.28571	43086.86	55	78.57143	27500	1111.6	86.36523	87.17719	14.18362	53.80499	394.3566	40.2859	91.12485	1.153999	14.22417	1.322001	1	3	1	0.15	4704	116.6001	104.4317	54.56502	3.847043	201.3092	169.5612	0.9281455	12.13455	343.6116
8/7/2014 3:45:26 PM	15:45:26	489	A	2	59	84.28571	43086.86	55	78.57143	27500	1109.699	86.01266	87.17719	14.18362	53.80499	393.7263	40.55227	91.16891	1.118	14.22482	1.330999	1	3	1	0.15	4715	117	104.8552	54.4243	3.837122	200.959	168.9549	0.9312655	12.17534	344.7667
8/7/2014 3:45:33 PM	15:45:33	496	A	2	59	84.28571	43086.86	56	80	28000	1106.784	85.26346	87.20285	14.184	53.395	393.3661	40.48191	91.213	1.160999	14.22578	1.344999	1	3	1	0.15	4730	116.7998	105.0089	54.63073	3.851574	200.7589	168.8138	0.9361259	12.23888	346.566
8/7/2014 3:45:36 PM	15:45:36	499	A	2	59	84.28571	43086.86	55	80	28000	1106.361	85.08717	87.20285	14.184	53.395	392.9609	40.14016	91.213	1.132999	14.22469	1.302	1	3	1	0.15	4731	117.2002	105.5717	54.4096	3.835984	200.5338	168.1684	0.9203723	12.03292	340.7339
8/7/2014 3:45:43 PM	15:45:43	506	A	2	59	84.28571	43086.86	56	80	28000	1106.868	84.95496	87.21997	14.18438	53.23	392.1505	40.53719	91.213	1.139999	14.22608	1.334999	1	3	1	0.15	4734	117.2002	105.6386	54.65121	3.852916	200.0836	168.6069	0.9326755	12.19377	345.2887
8/7/2014 3:45:46 PM	15:45:46	509	A	2	59	84.28571	43086.86	56	78.57143	27500	1108.136	85.30753	87.21997	14.18438	53.23	392.0604	40.29094	91.12485	1.063999	14.2259	1.327999	1	3	1	0.15	4727	117.7998	106.5622	54.68137	3.855042	200.0336	168.9612	0.931002	12.1719	344.6691
8/7/2014 3:45:53 PM	15:45:53	516	A	2	59	84.28571	43086.86	55	80	28000	1106.784	85.04311	87.21997	14.18438	53.23	391.6552	40.50201	91.12485	1.111	14.2276	1.323	1	3	1	0.15	4733	118.6001	105.9767	54.88741	3.869568	199.8084	169.2132	0.9285982	12.14047	343.7792
8/7/2014 3:45:56 PM	15:45:56	519	A	2	59	82.85715	42356.57	56	80	28000	1107.671	84.86683	87.21997	14.18438	53.23	391.4751	40.50201	91.08078	1.125	14.225	1.333	1	3	1	0.15	4738	118	106.4494	54.86731	3.868151	199.7084	169.0247	0.933795	12.20841	345.7031
8/7/2014 3:46:03 PM	15:46:03	526	A	2	59	84.28571	43086.86	55	80	28000	1106.277	84.47018	87.21997	14.184	52.87	391.295	40.8136	91.03671	1.143	14.22444	1.327	1	3	1	0.15	4751	117.2002	105.8369	54.4096	3.835984	199.6084	167.6685	0.92997	12.1584	344.2871
8/7/2014 3:46:06 PM	15:46:06	529	A	2	59	84.28571	43086.86	56	78.57143	27500	1104.629	84.07355	87.21997	14.184	52.87	391.4301	40.80858	91.03671	1.143999	14.22419	1.316	1	3	1	0.15	4755	118.3999	107.1934	54.83678	3.866102	199.6834	168.3148	0.92612	12.10807	342.8618
8/7/2014 3:46:13 PM	15:46:13	536	A	2	59	84.28571	43086.86	56	80	28000	1103.742	84.02948	87.21997	14.184	52.87	391.4301	40.89904	91.03671	1.117001	14.22708	1.330999	1	3	1	0.15	4760	117.7998	106.7623	54.89709	3.870353	199.6834	168.4152	0.9314638	12.17793	344.8401
8/7/2014 3:46:16 PM	15:46:16	539	A	2	59	84.28571	43086.86	56	78.57143	27500	1105.643	84.02948	87.21997	14.18362	52.72	391.8353	40.42662	90.9045	1.138	14.22396	1.337	1	3	1	0.15	4758	118.3999	107.0801	54.68061	3.855193	199.9085	167.9293	0.933562	12.20536	345.6169
8/7/2014 3:46:23 PM	15:46:23	546	A	2	59	84.28571	43086.86	56	80	28000	1105.685	83.72099	87.21997	14.18362	52.72	391.8353	40.44673	90.9045	1.122999	14.22551	1.322001	1	3	1	0.15	4753	118	106.6053	54.8163	3.86476	199.9085	167.9857	0.9294089	12.15107	344.0793
8/7/2014 3:46:26 PM	15:46:26	549	A	2	59	84.28571	43086.86	55	80	28000	1107.46	83.94134	87.21997	14.18362	52.72	391.8353	40.65279	90.77229	1.150999	14.22334	1.313	1	3	1	0.15	4749	118.3999	107.0581	54.32378	3.830035	199.9085	167.0484	0.9252489	12.09668	342.5392
8/7/2014 3:46:33 PM	15:46:33	556	A	2	59	84.28571	43086.86	56	78.57143	27500	1106.826	83.94134	87.18576	14.18362	52.81	391.8803	40.32109	90.81635	1.142	14.22475	1.337	1	3	1	0.15	4746	117.2002	105.9064	54.69569	3.856256	199.9335	167.8918	0.933656	12.20659	345.6516
8/7/2014 3:46:36 PM	15:46:36	559	A	2	59	84.28571	43086.86	56	80	28000	1103.573	84.1617	87.18576	14.18362	52.81	391.9703	40.6176	90.9045	1.171	14.22399	1.332001	1	3	1	0.15	4750	116.7998	105.2719	54.5399	3.845272	199.9835	167.7177	0.9311098	12.1733	344.709
8/7/2014 3:46:43 PM	15:46:43	566	A	2	59	84.28571	43086.86	56	78.57143	27500	1105.727	84.07355	87.16864	14.18325	52.88499	392.2405	40.18539	90.77229	1.062	14.22543	1.322001	1	3	1	0.15	4748	117.3999	105.7701	54.64003	3.852433	200.1336	167.8763	0.9284847	12.13898	343.7372
8/7/2014 3:46:46 PM	15:46:46	569	A	2	59	84.28571	43086.86	56	80	28000	1105.22	83.94134	87.16864	14.18325	52.88499	392.1054	40.57739	90.77229	1.056999	14.22311	1.329	1	3	1	0.15	4749	117	105.6113	54.36362	3.832945	200.0586	167.1422	0.9308451	12.16984	344.6111
8/7/2014 3:46:53 PM	15:46:53	576	A	2	58	84.28571	43086.86	55	78.57143	27500	1106.657	83.80913	87.16864	14.18325	52.88499	392.4206	40.4417	90.81635	1.186001	14.22412	1.306999	1	3	1	0.15	4739	117.3999	105.9304	54.57469	3.847827	200.2337	167.514	0.9266369	12.11483	343.0531
8/7/2014 3:46:56 PM	15:46:56	579	A	2	59	84.28571	43086.86	56	78.57143	27500	1106.699	84.07355	87.16864	14.18325	52.88499	392.6907	40.05974	90.68414	1.145	14.22268	1.296	1	3	1	0.15	4734	118	106.3595	54.77573	3.862001	200.3837	168.1834	0.919312	12.01906	340.3413
8/7/2014 3:47:03 PM	15:47:03	586	A	2	59	84.28571	43086.86	56	80	28000	1107.079	84.11762	87.17719	14.184	53.02499	392.7808	40.69299	90.64008	1.171	14.22534	1.32	1	3	1	0.15	4728	117.3999	105.3245	54.59052	3.848739	200.4338	167.7934	0.9272018	12.12221	343.2623
8/7/2014 3:47:06 PM	15:47:06	589	A	2	59	84.28571	43086.86	56	78.57143	27500	1105.305	83.98541	87.17719	14.184	53.02499	392.6907	40.18539	90.68414	1.141001	14.22639	1.319	1	3	1	0.15	4724	117	105.4155	54.64078	3.852283	200.3837	167.8	0.9278736	12.13099	343.511
8/7/2014 3:47:13 PM	15:47:13	596	A	2	59	84.28571	43086.86	55	78.57143	27500	1113.966	84.11762	87.1601	14.184	53.045	393.5012	39.78837	90.68414	1.118999	14.2248	1.309	1	3	1	0.15	4688	117	104.6122	54.30406	3.828544	200.834	167.1787	0.9236258	12.07546	341.9384
8/7/2014 3:47:16 PM	15:47:16	599	A	2	59	84.28571	43086.86	55	78.57143	27500	1110.291	84.24983	87.1601	14.184	53.045	393.5912	39.8336	90.77229	1.117001	14.2243	1.292999	1	3	1	0.15	4680	117.6001	104.6116	54.14827	3.81756	200.884	166.8952	0.9182367	12.005	339.9433
8/7/2014 3:47:23 PM	15:47:23	606	A	2	59	84.28571	43086.86	55	77.14286	27000	1116.037	84.38205	87.1601	14.184	53.045	393.4111	40.09493	90.77229	1.142	14.22444	1.290001	1	3	1	0.15	4665	116.3999	103.3881	54.06786	3.811891	200.7839	166.8187	0.9171797	11.99118	339.5519
8/7/2014 3:47:26 PM	15:47:26	609	A	2	59	84.28571	43086.86	55	78.57143	27500	1114.135	84.64647	87.1601	14.184	53.045	393.5462	39.95924	90.72821	1.028	14.22415	1.298	1	3	1	0.15	4655	117.3999	104.5846	54.12313	3.815788	200.859	167.1587	0.9200328	12.02848	340.6082
8/7/2014 3:47:33 PM	15:47:33	616	A	2	59	84.28571	43086.86	54	78.57143	27500	1114.769	85.30753	87.17719	14.18363	53.47501	393.8163	39.80846	90.59601	1.167999	14.22255	1.281	1	3	1	0.15	4647	117.3999	103.5201	54.15794	3.818343	201.0091	167.7762	0.9140604	11.9504	338.3971
8/7/2014 3:47:36 PM	15:47:36	619	A	2	59	84.28571	43086.86	54	77.14286	27000	1116.29	85.43974	87.17719	14.18363	53.47501	393.9514	39.98939	90.59601	1.155001	14.22381	1.290001	1	3	1	0.15	4639	115.7998	102.6355	53.73579	3.788579	201.0841	166.916	0.9133922	11.94167	338.1497
8/7/2014 3:47:43 PM	15:47:43	626	A	2	59	84.28571	43086.86	53	77.14286	27000	1124.318	86.45337	87.17719	14.18363	53.47501	395.077	39.55216	90.64008	1.153	14.22443	1.27	1	3	1	0.15	4590	117.2002	102.7748	53.55486	3.775823	201.7094	167.3173	0.9094568	11.89021	336.6928
8/7/2014 3:47:46 PM	15:47:46	629	A	2	59	84.28571	43086.86	54	77.14286	27000	1127.276	87.20257	87.17719	14.184	53.655	395.4822	39.1501	90.64008	1.089001	14.22155	1.236	1	3	1	0.15	4562	116.6001	101.4527	53.02753	3.738546	201.9346	166.6953	0.9018435	11.79068	333.8743
8/7/2014 3:47:53 PM	15:47:53	636	A	2	58	84.28571	43086.86	53	75.71429	26500	1125.881	89.18575	87.17719	14.184	53.655	396.2025	39.4617	90.72821	1.111	14.22281	1.27	1	3	1	0.15	4523	116.7998	100.9302	53.60548	3.779292	202.3348	169.6351	0.9129046	11.93529	337.9692
8/7/2014 3:47:56 PM	15:47:56	639	A	2	59	84.28571	43086.86	53	77.14286	27000	1121.191	89.14168	87.17719	14.184	53.655	396.0675	39.47678	90.68414	1.157	14.22397	1.278999	1	3	1	0.15	4538	117.3999	101.6105	53.56026	3.776104	202.2597	169.4947	0.9133273	11.94082	338.1257
8/7/2014 3:48:03 PM	15:48:03	646	A	2	59	84.28571	43086.86	54	77.14286	27000	1117.558	89.00946	87.20285	14.18362	53.67999	395.7523	39.39133	90.77229	1.122	14.22555	1.274	1	3	1	0.15	4568	117	102.1081	53.39404	3.764485	202.0846	169.0056	0.9115214	11.91721	337.4572
8/7/2014 3:48:06 PM	15:48:06	649	A	2	59	84.28571	43086.86	53	75.71429	26500	1118.698	88.87725	87.20285	14.18362	53.67999	395.6172	39.6778	90.77229	1.113001	14.22396	1.299999	1	3	1	0.15	4571	117.3999	102.1751	53.80112	3.793186	202.0096	169.842	0.9175208	11.99564	339.6782
8/7/2014 3:48:13 PM	15:48:13	656	A	2	59	84.28571	43086.86	54	77.14286	27000	1114.516	87.99583	87.19431	14.184	53.565	395.7523	39.57225	90.9045	1.169001	14.22455	1.282	1	3	1	0.15	4599	117.7998	102.801	53.70601	3.78638	202.0846	168.9074	0.9142329	11.95266	338.461
8/7/2014 3:48:16 PM	15:48:16	659	A	2	59	84.28571	43086.86	54	77.14286	27000	1118.361	88.12805	87.19431	14.184	53.565	396.0225	39.62251	90.77229	1.098	14.22469	1.296	1	3	1	0.15	4601	117.6001	102.6708	53.84673	3.7963	202.2347	169.3389	0.9186193	12.01	340.0849
8/7/2014 3:48:23 PM	15:48:23	666	A	2	58	82.85715	42356.57	54	77.14286	27000	1118.361	87.51106	87.19431	14.184	53.565	396.2476	39.57225	90.99264	1.101	14.22571	1.292999	1	3	1	0.15	4588	117	102.2058	53.53513	3.774333	202.3598	168.1214	0.9180977	12.00319	339.8918
8/7/2014 3:48:26 PM	15:48:26	669	A	2	59	82.85715	42356.57	54	77.14286	27000	1116.755	87.29071	87.19431	14.184	53.565	396.0225	39.83863	90.9045	1.129	14.22307	1.268999	1	3	1	0.15	4589	117.6001	102.7524	53.69595	3.78567	202.2347	168.315	0.909567	11.89165	336.7336
8/7/2014 3:48:33 PM	15:48:33	676	A	2	59	84.28571	43086.86	53	77.14286	27000	1116.67	87.29071	87.21997	14.18362	53.61501	395.8874	39.55717	90.9045	1.136	14.22475	1.281	1	3	1	0.15	4588	117	102.3807	54.12779	3.816217	202.1597	169.3116	0.9174451	11.99465	339.6502
8/7/2014 3:48:36 PM	15:48:36	679	A	2	59	84.28571	43086.86	54	77.14286	27000	1115.023	87.07035	87.21997	14.18362	53.61501	395.7523	39.77329	90.9045	1.082001	14.222	1.301001	1	3	1	0.15	4604	117.6001	103.2633	54.42933	3.837477	202.0846	169.8233	0.921946	12.0535	341.3165
8/7/2014 3:48:43 PM	15:48:43	0	A	2	59	84.28571	43086.86	54	77.14286	27000	1112.023	86.67372	87.23703	14.18363	53.55	395.5272	39.70292	90.94857	1.084	14.22457	1.299999	1	3	1	0.15	4617	117.6001	103.3793	53.83629	3.795665	201.9596	168.1434	0.9205725	12.03554	340.808
8/7/2014 3:48:46 PM	15:48:46	0	A	2	59	84.28571	43086.86	54	77.14286	27000	1113.544	86.67372	87.23703	14.18363	53.55	395.6623	39.97432	90.94857	1.070999	14.22226	1.285999	1	3	1	0.15	4616	117.6001	103.0055	54.15794	3.818343	202.0346	168.8816	0.9155424	11.96978	338.9458
8/7/2014 3:48:53 PM	15:48:53	4	A	3	59	84.28571	43086.86	54	77.14286	27000	1122.036	86.67372	87.23703	14.18363	53.55	396.0675	38.88877	91.08078	1.146999	14.22103	1.25	1	3	1	0.15	4588	117.2002	102.3807	53.43927	3.767673	202.2597	167.2279	0.90361	11.81377	334.5282
8/7/2014 3:48:56 PM	15:48:56	7	A	3	59	84.28571	43086.86	53	75.71429	26500	1127.613	88.6569	87.23703	14.18363	53.55	396.3376	38.97421	90.94857	1.101999	14.21894	1.25	1	3	1	0.15	4553	116.2002	100.3857	53.12767	3.745704	202.4098	168.1018	0.9025806	11.80031	334.1471
8/7/2014 3:49:03 PM	15:49:03	14	A	3	59	84.28571	43086.86	53	75.71429	26500	1118.91	88.48061	87.26273	14.18363	53.3	396.2025	39.52201	90.81635	1.145	14.22504	1.281	1	3	1	0.15	4544	117.3999	101.7448	53.62522	3.780784	202.3348	169.1152	0.9168064	11.9863	339.4138
8/7/2014 3:49:06 PM	15:49:06	17	A	3	59	84.28571	43086.86	53	75.71429	26500	1114.854	88.17212	87.26273	14.18363	53.3	396.0675	39.27574	90.94857	1.124001	14.22436	1.287001	1	3	1	0.15	4556	117.3999	101.4929	53.83629	3.795665	202.2597	169.3537	0.9159641	11.97529	339.1019
8/7/2014 3:49:13 PM	15:49:13	24	A	3	59	84.28571	43086.86	54	77.14286	27000	1116.882	88.17212	87.26273	14.18363	53.3	395.7073	39.30088	91.12485	1.163	14.22248	1.292999	1	3	1	0.15	4569	116.7998	101.6084	53.4845	3.770863	202.0596	168.5405	0.9178951	12.00054	339.8168
8/7/2014 3:49:16 PM	15:49:16	27	A	3	59	84.28571	43086.86	53	75.71429	26500	1115.91	88.39248	87.27979	14.18362	53.63	395.7073	38.96415	90.99264	1.129	14.22414	1.284	1	3	1	0.15	4568	117	101.2383	53.62019	3.780429	202.0596	169.0325	0.9148614	11.96087	338.6937
8/7/2014 3:49:23 PM	15:49:23	34	A	3	58	82.85715	42356.57	54	75.71429	26500	1116.333	88.3484	87.27979	14.18362	53.63	396.2476	39.30088	90.99264	1.157	14.22457	1.280001	1	3	1	0.15	4561	117.2002	102.1254	53.75086	3.789642	202.3598	169.299	0.9134429	11.94233	338.1685
8/7/2014 3:49:26 PM	15:49:26	37	A	3	59	84.28571	43086.86	53	77.14286	27000	1115.699	88.21619	87.27979	14.18362	53.63	396.1575	39.84867	91.03671	1.072001	14.22363	1.309999	1	3	1	0.15	4570	117	101.8048	53.89158	3.799563	202.3098	169.5168	0.9239827	12.08012	342.0705
8/7/2014 3:49:33 PM	15:49:33	44	A	3	59	84.28571	43086.86	54	77.14286	27000	1110.924	87.64327	87.29688	14.18362	53.91	396.0225	39.59236	91.16891	1.072001	14.22443	1.309999	1	3	1	0.15	4597	117.3999	102.9315	53.97701	3.805587	202.2347	169.2505	0.9238981	12.07902	342.0392
8/7/2014 3:49:36 PM	15:49:36	47	A	3	59	84.28571	43086.86	54	77.14286	27000	1111.938	87.24664	87.29688	14.18362	53.91	396.1575	40.02457	91.16891	1.114	14.22721	1.287001	1	3	1	0.15	4609	117.3999	103.2002	53.7408	3.788933	202.3098	168.3862	0.9158849	11.97426	339.0726
8/7/2014 3:49:43 PM	15:49:43	54	A	3	59	84.28571	43086.86	54	77.14286	27000	1115.994	87.11443	87.32257	14.184	54.17	396.0675	39.29081	91.213	1.145	14.22538	1.291	1	3	1	0.15	4605	117.7998	103.1106	53.66077	3.78319	202.2597	168.0917	0.9172061	11.99153	339.5617
8/7/2014 3:49:46 PM	15:49:46	57	A	3	58	82.85715	42356.57	54	77.14286	27000	1116.079	87.46699	87.32257	14.184	54.17	396.2476	39.75821	91.25706	1.124001	14.22661	1.313	1	3	1	0.15	4596	118.2002	103.609	54.01759	3.808347	202.3598	169.198	0.9249564	12.09286	342.431
8/7/2014 3:49:53 PM	15:49:53	64	A	3	59	84.28571	43086.86	54	77.14286	27000	1114.685	87.24664	87.32257	14.184	54.17	396.3826	39.60743	91.25706	1.153	14.2265	1.289	1	3	1	0.15	4610	117.3999	103.0469	54.13318	3.816496	202.4348	169.2851	0.916493	11.98221	339.2977
8/7/2014 3:49:56 PM	15:49:56	67	A	3	59	84.28571	43086.86	54	77.14286	27000	1113.037	87.24664	87.32257	14.184	54.17	396.2926	39.49186	91.30114	1.106001	14.22675	1.285	1	3	1	0.15	4606	117.3999	102.7823	53.79144	3.792402	202.3848	168.4996	0.9136302	11.94478	338.2379
8/7/2014 3:50:03 PM	15:50:03	74	A	3	59	84.28571	43086.86	53	75.71429	26500	1118.783	87.68735	87.34821	14.18362	54.42	396.3826	39.19532	91.38927	1.121	14.22652	1.282	1	3	1	0.15	4590	117.3999	102.2503	53.77097	3.79106	202.4348	168.8116	0.9128438	11.9345	337.9467
8/7/2014 3:50:06 PM	15:50:06	77	A	3	58	84.28571	43086.86	54	77.14286	27000	1112.445	87.55513	87.34821	14.18362	54.42	396.3826	39.36118	91.52148	1.106001	14.22482	1.292999	1	3	1	0.15	4583	117.6001	102.618	53.60008	3.779012	202.4348	168.3104	0.9144576	11.9556	338.5442
8/7/2014 3:50:13 PM	15:50:13	84	A	3	59	84.28571	43086.86	54	77.14286	27000	1111.051	87.68735	87.38239	14.18325	54.74001	395.7973	39.3863	91.47741	1.174	14.22337	1.315001	1	3	1	0.15	4591	117.3999	102.4476	54.28321	3.827276	202.1096	169.9922	0.9260819	12.10757	342.8477
8/7/2014 3:50:16 PM	15:50:16	87	A	3	58	84.28571	43086.86	54	77.14286	27000	1109.657	87.1585	87.38239	14.18325	54.74001	395.6623	39.81852	91.74184	1.209999	14.22434	1.296	1	3	1	0.15	4601	116.6001	102.4954	54.32341	3.83011	202.0346	169.6559	0.9184811	12.0082	340.0337
8/7/2014 3:50:23 PM	15:50:23	94	A	3	58	84.28571	43086.86	54	77.14286	27000	1105.727	86.23302	87.38239	14.18325	54.74001	394.9869	39.75319	91.87405	1.158001	14.22506	1.311001	1	3	1	0.15	4626	117.6001	103.5809	54.00679	3.807786	201.6594	168.1821	0.9236976	12.0764	341.9649
8/7/2014 3:50:26 PM	15:50:26	97	A	3	59	84.28571	43086.86	54	77.14286	27000	1106.995	86.49744	87.38239	14.18325	54.74001	394.1765	39.90395	91.74184	1.142	14.22615	1.302	1	3	1	0.15	4635	117.6001	103.7824	54.02188	3.80885	201.2092	168.4305	0.9206816	12.03697	340.8484
8/7/2014 3:50:33 PM	15:50:33	104	A	3	59	84.28571	43086.86	54	77.14286	27000	1105.22	85.52789	87.4166	14.18325	55.56	393.0959	40.13514	91.74184	1.226999	14.22286	1.341999	1	3	1	0.15	4661	119	105.4292	54.76064	3.860937	200.6089	169.3296	0.9345371	12.21811	345.9779
8/7/2014 3:50:36 PM	15:50:36	107	A	3	59	82.85715	42356.57	55	78.57143	27500	1105.389	85.52789	87.4166	14.18325	55.56	392.6457	39.99944	91.82998	1.129	14.22492	1.322001	1	3	1	0.15	4668	117.3999	104.6988	54.60484	3.849953	200.3587	168.9761	0.9261606	12.1086	342.8768
8/7/2014 3:50:43 PM	15:50:43	114	A	3	59	84.28571	43086.86	55	78.57143	27500	1102.263	85.08717	87.4166	14.18325	55.56	392.2405	40.31103	91.69777	1.233999	14.22618	1.323	1	3	1	0.15	4671	117.3999	104.5885	54.01685	3.808496	200.1336	167.2788	0.9305261	12.16567	344.493
8/7/2014 3:50:46 PM	15:50:46	117	A	3	59	84.28571	43086.86	55	78.57143	27500	1106.192	84.95496	87.39096	14.18362	55.57001	391.7452	40.14519	91.60963	1.114	14.22403	1.33	1	3	1	0.15	4674	118.2002	105.0115	54.23332	3.823658	199.8585	167.663	0.93051	12.16546	344.487
8/7/2014 3:50:53 PM	15:50:53	124	A	3	59	82.85715	42356.57	55	78.57143	27500	1105.516	84.99904	87.39096	14.18362	55.57001	391.0248	39.80344	91.69777	1.188999	14.22468	1.323999	1	3	1	0.15	4662	117.6001	104.7419	54.54994	3.84598	199.6084	168.4193	0.928366	12.13743	343.6933
8/7/2014 3:50:56 PM	15:50:56	127	A	3	59	84.28571	43086.86	55	78.57143	27500	1102.981	85.13125	87.39096	14.18362	55.57001	390.7547	39.88887	91.56557	1.17	14.22511	1.327999	1	3	1	0.15	4662	117.3999	104.032	54.11773	3.815508	199.3082	167.5418	0.929907	12.15758	344.2637
8/7/2014 3:51:03 PM	15:51:03	134	A	3	59	84.28571	43086.86	54	78.57143	27500	1106.911	85.08717	87.33963	14.18362	55.89	390.0344	40.11504	91.52148	1.186001	14.22656	1.318001	1	3	1	0.15	4657	116.7998	103.7429	54.66554	3.854131	198.908	168.7531	0.9268326	12.11738	343.1255
8/7/2014 3:51:06 PM	15:51:06	137	A	3	59	82.85715	42356.57	55	78.57143	27500	1104.756	85.13125	87.33963	14.18362	55.89	389.8092	40.56734	91.56557	1.135	14.2254	1.337	1	3	1	0.15	4659	117.6001	104.1422	54.83641	3.866178	198.7829	169.1761	0.933035	12.19847	345.4218
8/7/2014 3:51:13 PM	15:51:13	144	A	3	59	82.85715	42356.57	55	78.57143	27500	1105.051	85.13125	87.30545	14.18438	56.255	389.1339	40.06981	91.43334	1.131001	14.2268	1.319	1	3	1	0.15	4659	117.3999	104.3198	54.1788	3.819611	198.4077	167.6747	0.9220033	12.05425	341.3377
8/7/2014 3:51:16 PM	15:51:16	147	A	3	59	84.28571	43086.86	54	77.14286	27000	1104.671	85.13125	87.30545	14.18438	56.255	389.1339	40.19042	91.56557	1.15	14.22872	1.308001	1	3	1	0.15	4661	116.6001	103.2994	54.69141	3.855751	198.4077	168.841	0.9230028	12.06731	341.7077
8/7/2014 3:51:23 PM	15:51:23	154	A	3	58	82.85715	42356.57	55	77.14286	27000	1102.009	85.04311	87.30545	14.18438	56.255	388.3235	40.24571	91.30114	1.169001	14.22709	1.341	1	3	1	0.15	4673	117.2002	104.2774	54.40998	3.835909	197.9575	168.1303	0.9347233	12.22055	346.0468
8/7/2014 3:51:26 PM	15:51:26	157	A	3	58	82.85715	42356.57	55	78.57143	27500	1103.657	84.77868	87.30545	14.18438	56.255	388.4585	39.97432	91.30114	1.160999	14.22829	1.329	1	3	1	0.15	4672	116.6001	103.5432	54.93265	3.872758	198.0325	169.1007	0.9302177	12.16164	344.3788
8/7/2014 3:51:33 PM	15:51:33	164	A	3	59	84.28571	43086.86	55	78.57143	27500	1103.953	84.69054	87.29688	14.18325	55.33501	388.5936	40.40652	91.30114	1.186001	14.22539	1.334	1	3	1	0.15	4669	117.3999	104.3657	54.54957	3.846056	198.1076	168.1716	0.932218	12.18779	345.1193
8/7/2014 3:51:36 PM	15:51:36	167	A	3	59	84.28571	43086.86	55	78.57143	27500	1103.953	84.69054	87.29688	14.18325	55.33501	388.5936	40.32109	91.30114	1.229	14.2238	1.332001	1	3	1	0.15	4668	118.2002	105.5876	54.19777	3.821251	198.1076	167.3712	0.9283429	12.13713	343.6847
8/7/2014 3:51:43 PM	15:51:43	174	A	3	59	84.28571	43086.86	54	78.57143	27500	1104.122	84.64647	87.29688	14.18325	55.33501	388.7737	40.16026	91.34521	1.125	14.22633	1.313	1	3	1	0.15	4664	117.6001	103.8988	54.37367	3.833654	198.2076	167.7362	0.9248679	12.0917	342.3982
8/7/2014 3:51:46 PM	15:51:46	177	A	3	59	84.28571	43086.86	55	78.57143	27500	1102.221	84.9109	87.25415	14.18362	55.105	388.3685	40.01451	91.213	1.186001	14.22869	1.325001	1	3	1	0.15	4663	116.6001	103.5215	54.47456	3.840666	197.9825	168.1766	0.9292758	12.14933	344.03
8/7/2014 3:51:53 PM	15:51:53	184	A	3	59	84.28571	43086.86	54	78.57143	27500	1102.728	84.69054	87.25415	14.18362	55.105	388.3235	40.13514	91.43334	1.157	14.22392	1.318001	1	3	1	0.15	4663	117.6001	104.4093	54.35896	3.832516	197.9575	167.7351	0.9264727	12.11268	342.9923
8/7/2014 3:51:56 PM	15:51:56	187	A	3	59	84.28571	43086.86	54	77.14286	27000	1102.347	84.69054	87.25415	14.18362	55.105	388.1434	39.98436	91.25706	1.164	14.22526	1.311001	1	3	1	0.15	4659	117.2002	103.7874	54.38409	3.834287	197.8574	167.7923	0.9242089	12.08308	342.1542
8/7/2014 3:52:03 PM	15:52:03	194	A	3	59	84.28571	43086.86	54	77.14286	27000	1102.009	84.77868	87.22849	14.18325	55.455	387.9182	40.12508	91.30114	1.216	14.22586	1.336	1	3	1	0.15	4655	117.3999	104.4072	54.36362	3.832945	197.7324	167.8204	0.9329354	12.19717	345.3849
8/7/2014 3:52:06 PM	15:52:06	197	A	3	58	82.85715	42356.57	55	77.14286	27000	1105.178	84.77868	87.22849	14.18325	55.455	387.6481	40.06477	91.30114	1.153	14.22694	1.315001	1	3	1	0.15	4651	118.2002	105.203	54.10731	3.814874	197.5823	167.2361	0.9266912	12.11554	343.0732
8/7/2014 3:52:13 PM	15:52:13	204	A	3	59	82.85715	42356.57	55	78.57143	27500	1105.558	84.86683	87.20285	14.18362	55.92999	387.5581	40.3261	91.34521	1.209	14.22522	1.334999	1	3	1	0.15	4650	117.2002	104.2951	53.86143	3.797437	197.5323	166.7416	0.9279771	12.13235	343.5493
8/7/2014 3:52:16 PM	15:52:16	207	A	3	59	84.28571	43086.86	55	78.57143	27500	1103.066	84.99904	87.20285	14.18362	55.92999	387.423	40.31103	91.213	1.131001	14.2241	1.327999	1	3	1	0.15	4654	117.2002	103.8534	54.40419	3.835705	197.4572	168.088	0.9301555	12.16083	344.3557
8/7/2014 3:52:23 PM	15:52:23	214	A	3	59	84.28571	43086.86	54	78.57143	27500	1104.46	84.95496	87.20285	14.18362	55.92999	387.468	40.26078	91.25706	1.188999	14.22656	1.339001	1	3	1	0.15	4653	118	104.5397	54.64543	3.852713	197.4822	168.6003	0.9322963	12.18882	345.1483
8/7/2014 3:52:26 PM	15:52:26	217	A	3	58	84.28571	43086.86	54	77.14286	27000	1102.601	85.04311	87.20285	14.18362	55.92999	387.1529	40.33617	91.08078	1.142	14.22565	1.309999	1	3	1	0.15	4656	117.2002	103.5431	54.23332	3.823658	197.3072	167.7344	0.9289305	12.14481	343.9022
8/7/2014 3:52:33 PM	15:52:33	224	A	3	59	84.28571	43086.86	55	78.57143	27500	1104.375	84.86683	87.19431	14.18362	55.42999	387.1529	40.36632	91.08078	1.202999	14.22229	1.309999	1	3	1	0.15	4658	117.6001	104.2974	54.29866	3.828264	197.3072	167.7406	0.9239202	12.07931	342.0474
8/7/2014 3:52:36 PM	15:52:36	227	A	3	58	82.85715	42356.57	55	78.57143	27500	1104.502	84.86683	87.19431	14.18362	55.42999	387.2879	39.69288	91.08078	1.145	14.22468	1.313	1	3	1	0.15	4656	117	103.7206	54.06748	3.811965	197.3822	167.2131	0.9250561	12.09416	342.4679
8/7/2014 3:52:43 PM	15:52:43	234	A	3	59	84.28571	43086.86	54	77.14286	27000	1104.629	85.3516	87.19431	14.18362	55.42999	387.7832	39.74314	91.03671	1.157	14.22504	1.323999	1	3	1	0.15	4658	117.2002	103.7652	54.44441	3.83854	197.6573	168.4651	0.9289582	12.14517	343.9125
8/7/2014 3:52:46 PM	15:52:46	237	A	3	59	84.28571	43086.86	54	78.57143	27500	1103.488	85.21939	87.21997	14.18362	55.035	387.9182	40.05974	91.16891	1.139	14.22529	1.316999	1	3	1	0.15	4657	117.2002	104.275	54.40419	3.835705	197.7324	168.2665	0.9264023	12.11176	342.9663
8/7/2014 3:52:53 PM	15:52:53	244	A	3	58	84.28571	43086.86	54	77.14286	27000	1105.263	85.48381	87.21997	14.18362	55.035	388.0533	40.12006	91.16891	1.142	14.22562	1.316999	1	3	1	0.15	4655	117.7998	104.5846	54.5801	3.848107	197.8074	168.8808	0.9243	12.08427	342.1879
8/7/2014 3:52:56 PM	15:52:56	247	A	3	59	82.85715	42356.57	55	78.57143	27500	1107.925	85.48381	87.21997	14.18362	55.035	388.3235	40.0497	91.16891	1.139	14.2258	1.322001	1	3	1	0.15	4650	118.2002	104.8264	54.0725	3.812319	197.9575	167.7236	0.9298913	12.15738	344.258
8/7/2014 3:53:03 PM	15:53:03	254	A	3	59	84.28571	43086.86	55	78.57143	27500	1108.22	85.6601	87.24561	14.18325	55.14	388.6386	39.93913	91.08078	1.094999	14.22488	1.313	1	3	1	0.15	4644	117	103.8069	53.92136	3.801763	198.1326	167.5231	0.9250422	12.09398	342.4627
8/7/2014 3:53:06 PM	15:53:06	257	A	3	59	84.28571	43086.86	54	77.14286	27000	1111.262	85.92452	87.24561	14.18325	55.14	389.0438	39.8939	91.08078	1.153999	14.22351	1.302999	1	3	1	0.15	4633	118.2002	104.267	54.03695	3.809913	198.3577	168.0018	0.921502	12.04769	341.1521
8/7/2014 3:53:13 PM	15:53:13	264	A	3	59	84.28571	43086.86	53	75.71429	26500	1111.812	86.76186	87.27979	14.18325	56.16499	389.7642	39.64262	91.12485	1.184999	14.22452	1.311001	1	3	1	0.15	4604	117	102.3867	53.64997	3.782629	198.7579	167.7888	0.9242954	12.08421	342.1863
8/7/2014 3:53:16 PM	15:53:16	267	A	3	59	84.28571	43086.86	54	77.14286	27000	1111.558	86.62965	87.27979	14.18325	56.16499	390.1694	39.56221	91.12485	1.118	14.22344	1.285	1	3	1	0.15	4596	117.2002	102.7339	53.48413	3.770936	198.983	167.2994	0.915099	11.96398	338.7816
8/7/2014 3:53:23 PM	15:53:23	274	A	3	59	84.28571	43086.86	54	77.14286	27000	1112.445	87.24664	87.27979	14.18325	56.16499	390.6647	39.87379	91.213	1.108	14.22337	1.306999	1	3	1	0.15	4592	117.7998	103.1692	54.05704	3.81133	199.2582	169.1169	0.9227896	12.06453	341.6288
8/7/2014 3:53:26 PM	15:53:26	277	A	3	59	84.28571	43086.86	54	77.14286	27000	1109.276	86.98222	87.27979	14.18325	56.16499	390.5296	39.94918	91.08078	1.171	14.22539	1.315001	1	3	1	0.15	4600	117.2002	102.6484	54.15757	3.818417	199.1831	169.1336	0.9215634	12.0485	341.1748
8/7/2014 3:53:33 PM	15:53:33	284	A	3	59	84.28571	43086.86	54	77.14286	27000	1108.812	86.80593	87.314	14.18325	56.06	390.7097	39.74815	91.12485	1.198999	14.22282	1.309999	1	3	1	0.15	4608	117.6001	103.0022	54.13243	3.816645	199.2832	168.9334	0.9238893	12.0789	342.0359
8/7/2014 3:53:36 PM	15:53:36	287	A	3	58	84.28571	43086.86	54	77.14286	27000	1108.474	87.02628	87.314	14.18325	56.06	390.5746	39.63257	91.12485	1.058001	14.22358	1.299999	1	3	1	0.15	4606	117.3999	102.4312	53.88115	3.798928	199.2081	168.5347	0.9203943	12.03321	340.742
8/7/2014 3:53:43 PM	15:53:43	294	A	3	59	84.28571	43086.86	53	75.71429	26500	1111.896	87.02628	87.314	14.18325	56.06	390.4395	39.86878	91.25706	1.108999	14.22449	1.316999	1	3	1	0.15	4600	118	103.3489	53.73541	3.788653	199.1331	168.1991	0.9262801	12.11016	342.921
8/7/2014 3:53:46 PM	15:53:46	297	A	3	59	84.28571	43086.86	54	77.14286	27000	1108.474	87.11443	87.36526	14.18325	55.97501	390.0794	39.90395	91.16891	1.128	14.22499	1.296	1	3	1	0.15	4596	117.3999	102.7339	53.81079	3.793967	198.933	168.444	0.918986	12.0148	340.2206
8/7/2014 3:53:53 PM	15:53:53	304	A	3	58	84.28571	43086.86	54	77.14286	27000	1111.051	87.11443	87.36526	14.18325	55.97501	390.3495	39.79338	91.16891	1.15	14.22712	1.308001	1	3	1	0.15	4597	118.3999	103.1063	54.18269	3.820189	199.0831	169.2982	0.9232987	12.07118	341.8173
8/7/2014 3:53:56 PM	15:53:56	307	A	3	59	84.28571	43086.86	54	77.14286	27000	1109.276	87.07035	87.36526	14.18325	55.97501	390.3045	39.84867	91.38927	1.163	14.22543	1.306	1	3	1	0.15	4597	116.7998	102.231	53.92136	3.801763	199.058	168.6628	0.9262	12.10912	342.8914
8/7/2014 3:54:03 PM	15:54:03	314	A	3	59	82.85715	42356.57	54	77.14286	27000	1110.544	87.20257	87.39096	14.184	54.855	390.3045	39.66273	91.25706	1.114	14.2243	1.315001	1	3	1	0.15	4596	116.3999	102.384	53.89195	3.799489	199.058	168.6954	0.9248931	12.09203	342.4076
8/7/2014 3:54:06 PM	15:54:06	317	A	3	58	82.85715	42356.57	54	75.71429	26500	1108.77	87.07035	87.39096	14.184	54.855	390.3045	39.51698	91.38927	1.145	14.22618	1.301001	1	3	1	0.15	4593	117.3999	102.6669	54.03268	3.80941	199.058	168.9119	0.9206144	12.03609	340.8235
8/7/2014 3:54:13 PM	15:54:13	324	A	3	59	84.28571	43086.86	53	77.14286	27000	1110.291	87.29071	87.39096	14.184	54.855	390.6647	39.74314	91.34521	1.118999	14.22415	1.301001	1	3	1	0.15	4582	117	102.2468	54.01759	3.808347	199.2582	169.0554	0.9205756	12.03558	340.8091
8/7/2014 3:54:16 PM	15:54:16	327	A	3	58	84.28571	43086.86	53	75.71429	26500	1111.938	87.29071	87.40805	14.18325	54.86	390.7997	39.44661	91.34521	1.096001	14.22506	1.299	1	3	1	0.15	4572	118.6001	103.068	53.81582	3.794322	199.3332	168.5979	0.9170817	11.9899	339.5157
8/7/2014 3:54:23 PM	15:54:23	334	A	3	59	84.28571	43086.86	53	75.71429	26500	1116.586	87.77548	87.40805	14.18325	54.86	391.5201	39.15512	91.25706	1.046	14.2238	1.285999	1	3	1	0.15	4537	118	101.9335	53.82084	3.794676	199.7334	169.0011	0.9153376	11.9671	338.87
8/7/2014 3:54:26 PM	15:54:26	337	A	3	58	82.85715	42356.57	53	75.71429	26500	1115.318	87.77548	87.40805	14.18325	54.86	391.8353	39.27574	91.43334	1.106001	14.2251	1.295	1	3	1	0.15	4537	117.6001	101.9335	53.81582	3.794322	199.9085	168.9895	0.9148695	11.96098	338.6967
8/7/2014 3:54:33 PM	15:54:33	344	A	3	59	84.28571	43086.86	53	75.71429	26500	1117.389	88.03991	87.45081	14.184	54.485	392.2855	39.4617	91.43334	1.094	14.22538	1.278	1	3	1	0.15	4526	118.7998	101.8589	53.63564	3.781419	200.1586	168.7804	0.9124134	11.92887	337.7874
8/7/2014 3:54:36 PM	15:54:36	347	A	3	59	84.28571	43086.86	53	75.71429	26500	1114.347	88.12805	87.45081	14.184	54.485	392.4206	39.47175	91.34521	1.069	14.22469	1.288	1	3	1	0.15	4521	117	100.8856	53.77135	3.790986	200.2337	169.165	0.9160196	11.97602	339.1224
8/7/2014 3:54:43 PM	15:54:43	354	A	3	59	84.28571	43086.86	53	75.71429	26500	1112.826	87.95177	87.46793	14.18362	54.53	392.6907	39.47175	91.47741	1.079	14.2258	1.299999	1	3	1	0.15	4547	116.3999	100.7729	53.81116	3.793894	200.3837	169.1178	0.9201714	12.0303	340.6595
8/7/2014 3:54:46 PM	15:54:46	357	A	3	59	84.28571	43086.86	53	75.71429	26500	1111.558	87.68735	87.46793	14.18362	54.53	392.5557	39.76826	91.47741	1.166	14.22652	1.329	1	3	1	0.15	4566	116.2002	101.5417	53.92173	3.801689	200.3087	169.159	0.9307242	12.16826	344.5663
8/7/2014 3:54:53 PM	15:54:53	364	A	3	59	84.28571	43086.86	54	77.14286	27000	1113.079	87.5992	87.46793	14.18362	54.53	392.6457	39.60242	91.56557	1.141001	14.22258	1.285999	1	3	1	0.15	4578	117.3999	102.3316	53.91169	3.800981	200.3587	169.0646	0.9150395	11.9632	338.7596
8/7/2014 3:54:56 PM	15:54:56	367	A	3	59	84.28571	43086.86	54	77.14286	27000	1112.614	87.99583	87.46793	14.18362	54.53	392.6457	39.67277	91.43334	1.101999	14.22374	1.295	1	3	1	0.15	4576	118	102.9842	53.70563	3.786453	200.3587	168.9098	0.9183775	12.00684	339.9954
8/7/2014 3:55:03 PM	15:55:03	374	A	3	59	84.28571	43086.86	54	77.14286	27000	1112.614	87.9077	87.46793	14.18325	54.25	392.7357	39.69288	91.52148	1.153	14.22438	1.312	1	3	1	0.15	4582	118.6001	103.4681	54.06711	3.812039	200.4088	169.6747	0.9208007	12.03852	340.8925
8/7/2014 3:55:06 PM	15:55:06	377	A	3	59	84.28571	43086.86	54	77.14286	27000	1110.755	87.77548	87.46793	14.18325	54.25	392.9158	39.52201	91.56557	1.143999	14.2255	1.289	1	3	1	0.15	4586	118	102.8596	53.98166	3.806015	200.5088	169.3713	0.9162452	11.97897	339.206
8/7/2014 3:55:13 PM	15:55:13	384	A	3	59	84.28571	43086.86	54	77.14286	27000	1111.516	87.55513	87.46793	14.18325	54.25	392.9158	39.97432	91.56557	1.087	14.22412	1.298	1	3	1	0.15	4591	118.2002	103.8459	53.97162	3.805307	200.5088	169.1701	0.9193312	12.01931	340.3484
8/7/2014 3:55:16 PM	15:55:16	387	A	3	59	84.28571	43086.86	54	77.14286	27000	1109.868	87.55513	87.49356	14.18362	54.295	392.9609	39.71299	91.74184	1.142	14.22598	1.313999	1	3	1	0.15	4590	117	102.4253	53.90665	3.800626	200.5338	169.0174	0.9248695	12.09172	342.3988
8/7/2014 3:55:23 PM	15:55:23	394	A	3	59	84.28571	43086.86	54	77.14286	27000	1109.615	87.33478	87.49356	14.18362	54.295	392.8258	39.94416	91.60963	1.114	14.22464	1.309	1	3	1	0.15	4599	117	102.1007	54.06245	3.81161	200.4588	169.1973	0.9231881	12.06974	341.7763
8/7/2014 3:55:26 PM	15:55:26	397	A	3	58	84.28571	43086.86	54	77.14286	27000	1107.713	87.07035	87.49356	14.18362	54.295	392.8258	40.01955	91.74184	1.112	14.22269	1.288	1	3	1	0.15	4600	117.2002	102.4731	53.8564	3.797083	200.4588	168.5101	0.9156006	11.97054	338.9673
8/7/2014 3:55:33 PM	15:55:33	404	A	3	59	84.28571	43086.86	54	77.14286	27000	1112.741	87.33478	87.5192	14.18325	54.215	393.141	39.30088	91.78591	1.104	14.22561	1.281	1	3	1	0.15	4578	116.6001	102.1575	53.97162	3.805307	200.6339	168.992	0.9177834	11.99908	339.7755
8/7/2014 3:55:36 PM	15:55:36	407	A	3	59	84.28571	43086.86	54	77.14286	27000	1113.882	87.46699	87.5192	14.18325	54.215	393.141	39.15512	91.78591	1.104	14.22694	1.283001	1	3	1	0.15	4571	116.7998	101.479	54.08218	3.813102	200.6339	169.3529	0.9146481	11.95809	338.6147
8/7/2014 3:55:43 PM	15:55:43	414	A	3	59	84.28571	43086.86	53	75.71429	26500	1109.826	87.68735	87.53632	14.18325	54.27	393.3661	39.78837	91.47741	1.160999	14.22373	1.306999	1	3	1	0.15	4572	118.2002	103.068	53.86105	3.797511	200.7589	169.0225	0.9253919	12.09855	342.5922
8/7/2014 3:55:46 PM	15:55:46	417	A	3	59	84.28571	43086.86	53	75.71429	26500	1108.939	87.68735	87.53632	14.18325	54.27	393.276	39.59236	91.60963	1.181	14.22521	1.295	1	3	1	0.15	4579	116.6001	101.8308	54.00679	3.807786	200.7089	169.3579	0.9182674	12.0054	339.9546
8/7/2014 3:55:53 PM	15:55:53	424	A	3	59	84.28571	43086.86	54	77.14286	27000	1109.361	87.42292	87.53632	14.18325	54.27	393.276	39.30088	91.78591	1.167999	14.22474	1.311001	1	3	1	0.15	4589	117.2002	102.5775	53.58966	3.778377	200.7089	168.183	0.9237494	12.07708	341.9841
8/7/2014 3:55:56 PM	15:55:56	427	A	3	59	84.28571	43086.86	53	77.14286	27000	1112.403	87.1585	87.53632	14.18325	54.27	393.0509	39.95924	91.82998	1.129	14.22434	1.312	1	3	1	0.15	4590	116.3999	101.7259	53.67007	3.784046	200.5838	168.1552	0.9212456	12.04434	341.0572
8/7/2014 3:56:03 PM	15:56:03	434	A	3	59	84.28571	43086.86	54	77.14286	27000	1109.995	87.1585	87.57047	14.18362	54.27499	393.321	39.82354	91.82998	1.145	14.22378	1.32	1	3	1	0.15	4594	116.7998	102.5145	53.8564	3.797083	200.7339	168.5813	0.9226367	12.06253	341.5722
8/7/2014 3:56:06 PM	15:56:06	437	A	3	59	84.28571	43086.86	54	77.14286	27000	1108.727	87.1585	87.57047	14.18362	54.27499	393.321	39.75319	91.82998	1.089001	14.22367	1.316	1	3	1	0.15	4599	118.2002	103.3265	53.91169	3.800981	200.7339	168.7085	0.9254462	12.09926	342.6123
8/7/2014 3:56:13 PM	15:56:13	444	A	3	59	84.28571	43086.86	54	77.14286	27000	1109.783	86.80593	87.56195	14.18325	53.57001	393.0959	40.08991	91.87405	1.215	14.22687	1.323999	1	3	1	0.15	4610	117.6001	103.3979	54.12741	3.816291	200.6089	168.9219	0.9289913	12.14561	343.9247
8/7/2014 3:56:16 PM	15:56:16	447	A	3	59	84.28571	43086.86	54	77.14286	27000	1107.375	86.93814	87.56195	14.18325	53.57001	392.9609	40.19042	91.74184	1.176001	14.22506	1.313999	1	3	1	0.15	4614	118.2002	103.4876	53.89624	3.799992	200.5338	168.4982	0.9248643	12.09165	342.3969
8/7/2014 3:56:23 PM	15:56:23	454	A	3	59	84.28571	43086.86	54	77.14286	27000	1107.122	86.5415	87.56195	14.18325	53.57001	392.6907	39.45667	91.87405	1.146999	14.22618	1.292	1	3	1	0.15	4614	116.6001	102.9608	53.69018	3.785464	200.3837	167.7037	0.9170437	11.98941	339.5016
8/7/2014 3:56:26 PM	15:56:26	457	A	3	58	82.85715	42356.57	54	77.14286	27000	1112.868	86.40929	87.56195	14.18325	53.57001	392.5557	39.66273	91.87405	1.104	14.22488	1.274	1	3	1	0.15	4608	117.6001	103.1778	53.92639	3.802118	200.3087	168.1401	0.9105998	11.90516	337.116
8/7/2014 3:56:33 PM	15:56:33	464	A	3	59	84.28571	43086.86	53	75.71429	26500	1112.53	86.45337	87.54483	14.18362	52.715	392.4656	39.5421	91.6537	1.184999	14.2254	1.302999	1	3	1	0.15	4594	117	102.5145	53.83629	3.795665	200.2587	167.9655	0.9210745	12.0421	340.9938
8/7/2014 3:56:36 PM	15:56:36	467	A	3	59	84.28571	43086.86	53	77.14286	27000	1116.586	87.29071	87.54483	14.18362	52.715	392.5557	39.16016	91.74184	1.091	14.22302	1.267	1	3	1	0.15	4574	117.2002	102.0683	53.24829	3.754209	200.3087	167.2826	0.9081613	11.87328	336.2132
8/7/2014 3:56:43 PM	15:56:43	474	A	3	58	82.85715	42356.57	53	75.71429	26500	1118.022	87.5992	87.53632	14.18362	52.41	392.9158	39.11493	91.69777	1.101	14.22417	1.268	1	3	1	0.15	4545	117.7998	101.5939	53.28347	3.75669	200.5088	167.6127	0.9085723	11.87865	336.3653
8/7/2014 3:56:46 PM	15:56:46	477	A	3	58	82.85715	42356.57	53	75.71429	26500	1118.022	87.5992	87.53632	14.18362	52.41	392.9158	39.11493	91.69777	1.101	14.22417	1.268	1	3	1	0.15	4545	117.7998	101.5939	53.28347	3.75669	200.5088	167.6127	0.9085723	11.87865	336.3653
8/7/2014 3:56:53 PM	15:56:53	484	A	3	59	84.28571	43086.86	53	75.71429	26500	1115.994	87.5992	87.53632	14.18362	52.41	393.321	39.27072	91.69777	1.125	14.22537	1.275	1	3	1	0.15	4530	117.6001	101.4313	53.54481	3.775115	200.7339	168.2182	0.9167891	11.98608	339.4073
8/7/2014 3:56:56 PM	15:56:56	487	A	3	59	84.28571	43086.86	53	75.71429	26500	1114.516	87.5992	87.53632	14.18362	52.41	393.186	39.79841	91.69777	1.128	14.2271	1.290001	1	3	1	0.15	4539	117.3999	101.4598	53.92173	3.801689	200.6589	169.0878	0.9143784	11.95456	338.5149
8/7/2014 3:57:03 PM	15:57:03	494	A	3	58	82.85715	42356.57	53	77.14286	27000	1113.502	87.77548	87.48499	14.18325	52.69501	392.9609	39.54713	91.60963	1.094999	14.22467	1.284	1	3	1	0.15	4541	117.3999	101.3319	53.74043	3.789006	200.5338	168.8156	0.916841	11.98675	339.4265
8/7/2014 3:57:06 PM	15:57:06	497	A	3	58	82.85715	42356.57	53	75.71429	26500	1117.811	87.86362	87.48499	14.18325	52.69501	393.186	39.55717	91.69777	1.132	14.22521	1.280001	1	3	1	0.15	4533	117	101.3257	53.42382	3.766684	200.6589	168.1545	0.9111831	11.91278	337.3319
8/7/2014 3:57:13 PM	15:57:13	504	A	3	59	84.28571	43086.86	53	75.71429	26500	1118.107	88.78911	87.45935	14.18288	52.935	393.5912	39.1702	91.56557	1.184999	14.22187	1.282	1	3	1	0.15	4515	117.6001	101.0955	53.58426	3.778095	200.884	169.2757	0.9160922	11.97696	339.1493
8/7/2014 3:57:16 PM	15:57:16	507	A	3	59	84.28571	43086.86	53	75.71429	26500	1114.431	88.87725	87.45935	14.18288	52.935	393.7713	39.18528	91.74184	1.075001	14.224	1.290001	1	3	1	0.15	4524	116.6001	100.4356	53.96621	3.805026	200.9841	170.2296	0.9170701	11.98975	339.5114
8/7/2014 3:57:23 PM	15:57:23	514	A	3	59	84.28571	43086.86	53	75.71429	26500	1110.755	87.9077	87.45935	14.18288	52.935	393.4561	39.27072	91.69777	1.159	14.22324	1.301001	1	3	1	0.15	4545	119	102.9786	53.7099	3.786954	200.809	168.9619	0.9209606	12.04062	340.9517
8/7/2014 3:57:26 PM	15:57:26	517	A	3	59	84.28571	43086.86	53	75.71429	26500	1112.276	87.51106	87.45935	14.18288	52.935	393.321	39.49687	91.82998	1.106001	14.22494	1.281	1	3	1	0.15	4546	117.6001	101.9624	53.45861	3.769236	200.7339	167.9542	0.9131212	11.93812	338.0494
8/7/2014 3:57:33 PM	15:57:33	524	A	3	58	82.85715	42356.57	53	75.71429	26500	1121.149	87.73141	87.45081	14.18288	53	393.8163	39.16016	91.6537	1.139999	14.22393	1.267	1	3	1	0.15	4516	117.3999	101.1179	53.45861	3.769236	201.0091	168.1318	0.9082646	11.87463	336.2515
8/7/2014 3:57:36 PM	15:57:36	527	A	3	58	82.85715	42356.57	53	75.71429	26500	1117.6	88.12805	87.45081	14.18288	53	393.9514	39.22046	91.6537	1.129	14.22317	1.283001	1	3	1	0.15	4514	116.7998	100.5573	54.36325	3.83302	201.0841	170.5356	0.9125044	11.93006	337.8211
8/7/2014 3:57:43 PM	15:57:43	534	A	3	59	84.28571	43086.86	53	75.71429	26500	1115.487	88.3484	87.45081	14.18288	53	393.8163	39.13502	91.6537	1.131001	14.22165	1.273001	1	3	1	0.15	4528	117.6001	100.8692	53.64458	3.782348	201.0091	169.0599	0.9103116	11.90139	337.0093
8/7/2014 3:57:46 PM	15:57:46	537	A	3	58	82.85715	42356.57	54	77.14286	27000	1114.6	88.48061	87.45081	14.18288	52.91499	393.8163	39.64765	91.52148	1.121	14.22437	1.284	1	3	1	0.15	4531	117.2002	101.281	53.77523	3.79156	201.0091	169.4686	0.9162043	11.97843	339.1909
8/7/2014 3:57:53 PM	15:57:53	544	A	3	59	84.28571	43086.86	53	75.71429	26500	1110.586	87.95177	87.45081	14.18288	52.91499	393.7713	39.36621	91.60963	1.174	14.22274	1.292	1	3	1	0.15	4572	117.2002	102.0236	53.6697	3.78412	200.9841	168.7978	0.9160811	11.97682	339.1452
8/7/2014 3:57:56 PM	15:57:56	547	A	3	59	84.28571	43086.86	53	75.71429	26500	1110.586	87.95177	87.45081	14.18288	52.91499	393.7713	39.36621	91.60963	1.174	14.22274	1.292	1	3	1	0.15	4572	117.2002	102.0236	53.6697	3.78412	200.9841	168.7978	0.9160811	11.97682	339.1452
8/7/2014 3:58:03 PM	15:58:03	554	A	3	58	82.85715	42356.57	53	75.71429	26500	1113.375	88.26026	87.44223	14.18288	52.845	394.1765	39.58735	91.60963	1.149	14.22473	1.290001	1	3	1	0.15	4540	117.2002	101.3095	53.47872	3.770654	201.2092	168.6048	0.9129567	11.93597	337.9885
8/7/2014 3:58:06 PM	15:58:06	557	A	3	59	84.28571	43086.86	53	75.71429	26500	1112.234	87.99583	87.44223	14.18288	52.845	394.0414	38.9541	91.47741	1.093	14.22386	1.291	1	3	1	0.15	4536	116.6001	101.0474	53.41338	3.766047	201.1341	168.2401	0.914819	11.96032	338.678
8/7/2014 3:58:13 PM	15:58:13	564	A	3	58	82.85715	42356.57	53	75.71429	26500	1113.333	87.73141	87.45935	14.18288	53.05	394.6718	39.17523	91.69777	1.146	14.22252	1.281	1	3	1	0.15	4519	118	101.3568	53.27267	3.756126	201.4843	167.7006	0.9131525	11.93853	338.061
8/7/2014 3:58:16 PM	15:58:16	567	A	3	58	82.85715	42356.57	53	75.71429	26500	1112.445	87.5992	87.45935	14.18288	53.05	394.6718	39.5019	91.69777	1.112	14.22382	1.254	1	3	1	0.15	4521	117.3999	100.7132	53.44857	3.768528	201.4843	168.002	0.9035668	11.81321	334.5123
8/7/2014 3:58:23 PM	15:58:23	574	A	3	59	84.28571	43086.86	54	77.14286	27000	1109.023	87.1585	87.45935	14.18288	53.05	394.2215	39.57728	91.52148	1.129	14.22509	1.304001	1	3	1	0.15	4547	117.6001	101.6387	53.8858	3.799356	201.2342	168.6555	0.9215342	12.04811	341.164
8/7/2014 3:58:26 PM	15:58:26	577	A	3	59	84.28571	43086.86	53	75.71429	26500	1108.389	86.98222	87.45935	14.18288	53.05	393.9514	39.63759	91.52148	1.136999	14.22628	1.285	1	3	1	0.15	4563	117	101.4749	54.0416	3.810341	201.0841	168.8709	0.91485	11.96072	338.6895
8/7/2014 3:58:33 PM	15:58:33	584	A	3	58	82.85715	42356.57	54	77.14286	27000	1104.375	86.18894	87.46793	14.1825	53.08	393.7713	39.8939	91.60963	1.174999	14.22406	1.319	1	3	1	0.15	4600	117.2002	102.8234	54.12666	3.81644	200.9841	168.4276	0.9266918	12.11554	343.0734
8/7/2014 3:58:36 PM	15:58:36	587	A	3	58	82.85715	42356.57	54	77.14286	27000	1104.502	86.14487	87.46793	14.1825	53.08	393.6362	40.11	91.74184	1.131001	14.22507	1.302999	1	3	1	0.15	4612	117.3999	103.2674	54.30758	3.829196	200.909	168.8056	0.9209849	12.04093	340.9607
8/7/2014 3:58:43 PM	15:58:43	594	A	3	59	84.28571	43086.86	54	77.14286	27000	1107.079	85.70416	87.46793	14.1825	53.08	393.6362	39.45667	91.60963	1.110001	14.22337	1.296	1	3	1	0.15	4614	117.3999	103.1363	54.14677	3.817858	200.909	168.0814	0.9178643	12.00013	339.8054
8/7/2014 3:58:46 PM	15:58:46	597	A	3	59	84.28571	43086.86	54	77.14286	27000	1106.572	85.83637	87.44223	14.18325	52.935	393.4111	39.82354	91.6537	1.167	14.22214	1.298	1	3	1	0.15	4613	117	102.4115	53.96156	3.804597	200.7839	167.7578	0.923775	12.07741	341.9936
8/7/2014 3:58:53 PM	15:58:53	604	A	3	58	82.85715	42356.57	54	77.14286	27000	1108.558	85.52789	87.44223	14.18325	52.935	393.4111	39.73811	91.6537	1.128	14.22571	1.308001	1	3	1	0.15	4616	117.3999	103.181	54.35356	3.832236	200.7839	168.4043	0.9228503	12.06532	341.6513
8/7/2014 3:58:56 PM	15:58:56	607	A	3	59	82.85715	42356.57	54	77.14286	27000	1106.277	85.7923	87.44223	14.18325	52.935	393.4111	39.93913	91.52148	1.176001	14.22593	1.296	1	3	1	0.15	4618	117.6001	103.5773	53.7706	3.791133	200.7839	167.2839	0.9204922	12.03449	340.7783
8/7/2014 3:59:03 PM	15:59:03	614	A	3	58	82.85715	42356.57	54	77.14286	27000	1106.446	85.70416	87.43369	14.1825	52.67999	392.9609	39.9341	91.74184	1.240999	14.22641	1.285	1	3	1	0.15	4616	117.7998	103.5325	54.03117	3.809707	200.5338	167.8169	0.9146783	11.95848	338.6259
8/7/2014 3:59:06 PM	15:59:06	617	A	3	58	82.85715	42356.57	54	77.14286	27000	1106.446	85.70416	87.43369	14.1825	52.67999	392.9609	39.9341	91.74184	1.240999	14.22641	1.285	1	3	1	0.15	4616	117.7998	103.5325	54.03117	3.809707	200.5338	167.8169	0.9146783	11.95848	338.6259
8/7/2014 3:59:13 PM	15:59:13	624	A	3	59	84.28571	43086.86	54	77.14286	27000	1106.277	85.57195	87.4166	14.1825	52.595	392.3756	40.0095	91.56557	1.16	14.22446	1.298	1	3	1	0.15	4617	117.2002	103.0278	54.47343	3.840891	200.2087	168.7195	0.9193503	12.01956	340.3555
8/7/2014 3:59:16 PM	15:59:16	627	A	3	59	82.85715	42356.57	55	78.57143	27500	1105.896	85.30753	87.4166	14.1825	52.595	392.4656	39.98939	91.78591	1.198	14.2259	1.316999	1	3	1	0.15	4619	117.7998	103.5998	54.18194	3.820337	200.2587	167.8409	0.9241413	12.0822	342.1292
8/7/2014 3:59:23 PM	15:59:23	634	A	3	59	84.28571	43086.86	54	77.14286	27000	1105.389	85.08717	87.4166	14.1825	52.595	392.4206	39.81349	91.60963	1.174	14.22312	1.296	1	3	1	0.15	4630	118	104.023	53.96584	3.8051	200.2337	167.1686	0.9185721	12.00939	340.0674
8/7/2014 3:59:26 PM	15:59:26	637	A	3	58	84.28571	43086.86	54	77.14286	27000	1105.305	84.95496	87.4166	14.1825	52.595	392.4206	39.79841	91.47741	1.194	14.22612	1.299999	1	3	1	0.15	4636	117.7998	103.8048	54.27743	3.82707	200.2337	167.7734	0.9180636	12.00274	339.8792
8/7/2014 3:59:33 PM	15:59:33	644	A	3	59	84.28571	43086.86	54	77.14286	27000	1105.812	84.69054	87.42517	14.1825	52.595	392.4656	39.90898	91.6537	1.152	14.22547	1.291	1	3	1	0.15	4633	117.6001	103.9138	54.02615	3.809353	200.2587	166.9858	0.923546	12.07442	341.9088
8/7/2014 3:59:36 PM	15:59:36	647	A	3	59	84.28571	43086.86	54	77.14286	27000	1105.939	84.69054	87.42517	14.1825	52.595	392.6007	40.23063	91.6537	1.231001	14.22525	1.306999	1	3	1	0.15	4632	116.3999	102.6567	54.18194	3.820337	200.3337	167.3416	0.9224762	12.06043	341.5128
8/7/2014 3:59:43 PM	15:59:43	654	A	3	59	84.28571	43086.86	54	77.14286	27000	1106.488	84.9109	87.43369	14.18213	52.72501	392.7357	39.74314	91.38927	1.143999	14.22412	1.306999	1	3	1	0.15	4627	117.6001	103.7792	54.45798	3.839903	200.4088	168.152	0.9226682	12.06294	341.5838
8/7/2014 3:59:46 PM	15:59:46	657	A	3	59	84.28571	43086.86	54	77.14286	27000	1106.488	84.82275	87.43369	14.18213	52.72501	392.6457	40.04467	91.52148	1.139999	14.22416	1.320999	1	3	1	0.15	4629	118	103.8241	53.79459	3.793126	200.3587	166.5658	0.9274464	12.12541	343.3528
8/7/2014 3:59:53 PM	15:59:53	664	A	3	58	82.85715	42356.57	54	77.14286	27000	1106.741	84.82275	87.43369	14.18213	52.72501	392.5107	39.87379	91.56557	1.139999	14.22437	1.298	1	3	1	0.15	4634	116.7998	103.2305	54.09613	3.814389	200.2837	167.2561	0.9221722	12.05646	341.4002
8/7/2014 3:59:56 PM	15:59:56	667	A	3	59	84.28571	43086.86	54	77.14286	27000	1105.896	84.86683	87.43369	14.18213	52.72501	392.3305	39.82857	91.52148	1.115	14.22358	1.291	1	3	1	0.15	4632	117.6001	103.7152	53.91019	3.801277	200.1836	166.8663	0.9197041	12.02419	340.4865
8/7/2014 4:00:03 PM	16:00:03	674	A	3	59	84.28571	43086.86	54	77.14286	27000	1118.952	85.3516	87.45081	14.1825	52.98	392.8708	39.14508	91.52148	1.083	14.22345	1.253	1	3	1	0.15	4568	118.2002	102.9778	52.85516	3.726787	200.4838	164.8194	0.9033274	11.81008	334.4236
8/7/2014 4:00:06 PM	16:00:06	677	A	3	59	82.85715	42356.57	53	75.71429	26500	1120.473	85.74824	87.45081	14.1825	52.98	393.7713	39.28077	91.60963	1.059999	14.22424	1.281	1	3	1	0.15	4538	117	100.7464	53.63917	3.782067	200.9841	166.9525	0.9132783	11.94018	338.1076
8/7/2014 4:00:17 PM	16:00:17	0	A	3	58	84.28571	43086.86	53	75.71429	26500	1109.657	85.39568	87.44223	14.18325	52.94	393.0509	39.73811	91.56557	1.136999	14.22492	1.308001	1	3	1	0.15	4593	117.7998	103.0166	53.8711	3.798219	200.5838	167.1942	0.9228992	12.06596	341.6693
8/7/2014 4:00:17 PM	16:00:17	0	A	3	58	84.28571	43086.86	53	75.71429	26500	1109.657	85.39568	87.44223	14.18325	52.94	393.0509	39.73811	91.56557	1.136999	14.22492	1.308001	1	3	1	0.15	4593	117.7998	103.0166	53.8711	3.798219	200.5838	167.1942	0.9228992	12.06596	341.6693
8/7/2014 4:00:27 PM	16:00:27	9	A	4	58	84.28571	43086.86	54	77.14286	27000	1109.91	85.48381	87.44223	14.18325	52.94	392.7808	39.63257	91.56557	1.197001	14.2255	1.304001	1	3	1	0.15	4605	117.6001	103.2858	53.8912	3.799637	200.4338	167.3116	0.9214997	12.04766	341.1512
8/7/2014 4:00:27 PM	16:00:27	9	A	4	58	84.28571	43086.86	54	77.14286	27000	1109.91	85.48381	87.44223	14.18325	52.94	392.7808	39.63257	91.56557	1.197001	14.2255	1.304001	1	3	1	0.15	4605	117.6001	103.2858	53.8912	3.799637	200.4338	167.3116	0.9214997	12.04766	341.1512
8/7/2014 4:00:37 PM	16:00:37	19	A	4	59	84.28571	43086.86	54	77.14286	27000	1108.516	85.43974	87.44223	14.18288	53.08501	393.0509	40.06981	91.56557	1.158001	14.22556	1.319	1	3	1	0.15	4614	116.7998	102.4337	53.80037	3.793333	200.5838	167.0708	0.92676	12.11644	343.0987
8/7/2014 4:00:37 PM	16:00:37	19	A	4	59	84.28571	43086.86	54	77.14286	27000	1108.516	85.43974	87.44223	14.18288	53.08501	393.0509	40.06981	91.56557	1.158001	14.22556	1.319	1	3	1	0.15	4614	116.7998	102.4337	53.80037	3.793333	200.5838	167.0708	0.92676	12.11644	343.0987
8/7/2014 4:00:47 PM	16:00:47	29	A	4	59	82.85715	42356.57	54	77.14286	27000	1109.572	86.05673	87.45081	14.18288	53.265	393.0059	40.15022	91.52148	1.186001	14.22444	1.306	1	3	1	0.15	4609	116.7998	102.6736	54.19238	3.820972	200.5588	168.4677	0.9222096	12.05694	341.4141
8/7/2014 4:00:47 PM	16:00:47	29	A	4	59	82.85715	42356.57	54	77.14286	27000	1109.572	86.05673	87.45081	14.18288	53.265	393.0059	40.15022	91.52148	1.186001	14.22444	1.306	1	3	1	0.15	4609	116.7998	102.6736	54.19238	3.820972	200.5588	168.4677	0.9222096	12.05694	341.4141
8/7/2014 4:00:57 PM	16:00:57	39	A	4	59	84.28571	43086.86	54	75.71429	26500	1111.347	86.32115	87.45081	14.18288	53.265	393.276	39.82857	91.6537	1.183001	14.22567	1.297001	1	3	1	0.15	4593	117	102.1421	53.81042	3.794041	200.7089	167.8057	0.9189594	12.01445	340.2108
8/7/2014 4:00:57 PM	16:00:57	39	A	4	59	84.28571	43086.86	54	75.71429	26500	1111.347	86.32115	87.45081	14.18288	53.265	393.276	39.82857	91.6537	1.183001	14.22567	1.297001	1	3	1	0.15	4593	117	102.1421	53.81042	3.794041	200.7089	167.8057	0.9189594	12.01445	340.2108
8/7/2014 4:01:07 PM	16:01:07	49	A	4	58	82.85715	42356.57	54	77.14286	27000	1106.699	85.92452	87.4166	14.1825	52.685	393.4111	39.86375	91.6537	1.17	14.2263	1.322001	1	3	1	0.15	4621	116.3999	102.2372	54.22215	3.823173	200.7839	168.432	0.9301981	12.16139	344.3715
8/7/2014 4:01:07 PM	16:01:07	49	A	4	58	82.85715	42356.57	54	77.14286	27000	1106.699	85.92452	87.4166	14.1825	52.685	393.4111	39.86375	91.6537	1.17	14.2263	1.322001	1	3	1	0.15	4621	116.3999	102.2372	54.22215	3.823173	200.7839	168.432	0.9301981	12.16139	344.3715
8/7/2014 4:01:17 PM	16:01:17	59	A	4	59	82.85715	42356.57	54	77.14286	27000	1104.713	85.70416	87.39951	14.1825	52.55499	393.321	40.20046	91.56557	1.111	14.22518	1.301001	1	3	1	0.15	4628	116.7998	103.0969	54.24728	3.824944	200.7339	168.3111	0.9204365	12.03376	340.7577
8/7/2014 4:01:17 PM	16:01:17	59	A	4	59	82.85715	42356.57	54	77.14286	27000	1104.713	85.70416	87.39951	14.1825	52.55499	393.321	40.20046	91.56557	1.111	14.22518	1.301001	1	3	1	0.15	4628	116.7998	103.0969	54.24728	3.824944	200.7339	168.3111	0.9204365	12.03376	340.7577
8/7/2014 4:01:27 PM	16:01:27	69	A	4	59	82.85715	42356.57	55	78.57143	27500	1106.741	85.6601	87.39951	14.1825	52.55499	393.321	40.13514	91.56557	1.235001	14.22616	1.319	1	3	1	0.15	4644	118	104.3375	53.95076	3.804037	200.7339	167.5971	0.9264475	12.11235	342.983
8/7/2014 4:01:27 PM	16:01:27	69	A	4	59	82.85715	42356.57	55	78.57143	27500	1106.741	85.6601	87.39951	14.1825	52.55499	393.321	40.13514	91.56557	1.235001	14.22616	1.319	1	3	1	0.15	4644	118	104.3375	53.95076	3.804037	200.7339	167.5971	0.9264475	12.11235	342.983
8/7/2014 4:01:37 PM	16:01:37	79	A	4	58	84.28571	43086.86	54	77.14286	27000	1106.657	85.74824	87.40805	14.18288	53.00999	392.7357	39.95924	91.52148	1.171	14.22751	1.319	1	3	1	0.15	4649	118.6001	104.8038	54.0416	3.810341	200.4088	167.8732	0.9268678	12.11785	343.1386
8/7/2014 4:01:37 PM	16:01:37	79	A	4	58	84.28571	43086.86	54	77.14286	27000	1106.657	85.74824	87.40805	14.18288	53.00999	392.7357	39.95924	91.52148	1.171	14.22751	1.319	1	3	1	0.15	4649	118.6001	104.8038	54.0416	3.810341	200.4088	167.8732	0.9268678	12.11785	343.1386
8/7/2014 4:01:47 PM	16:01:47	89	A	4	58	82.85715	42356.57	55	78.57143	27500	1106.446	85.92452	87.38239	14.1825	52.89999	392.2855	40.3412	91.47741	1.162001	14.22478	1.301001	1	3	1	0.15	4639	117.3999	103.6951	54.22215	3.823173	200.1586	168.432	0.9205066	12.03468	340.7836
8/7/2014 4:01:47 PM	16:01:47	89	A	4	58	82.85715	42356.57	55	78.57143	27500	1106.446	85.92452	87.38239	14.1825	52.89999	392.2855	40.3412	91.47741	1.162001	14.22478	1.301001	1	3	1	0.15	4639	117.3999	103.6951	54.22215	3.823173	200.1586	168.432	0.9205066	12.03468	340.7836
8/7/2014 4:01:57 PM	16:01:57	99	A	4	59	84.28571	43086.86	54	77.14286	27000	1110.375	86.14487	87.34821	14.1825	52.72501	392.1955	39.53708	91.52148	1.132	14.22511	1.304001	1	3	1	0.15	4631	117.6001	103.8689	54.0764	3.812896	200.1086	168.2769	0.9229203	12.06624	341.6772
8/7/2014 4:01:57 PM	16:01:57	99	A	4	59	84.28571	43086.86	54	77.14286	27000	1110.375	86.14487	87.34821	14.1825	52.72501	392.1955	39.53708	91.52148	1.132	14.22511	1.304001	1	3	1	0.15	4631	117.6001	103.8689	54.0764	3.812896	200.1086	168.2769	0.9229203	12.06624	341.6772
8/7/2014 4:02:07 PM	16:02:07	109	A	4	59	84.28571	43086.86	54	77.14286	27000	1109.699	86.49744	87.34821	14.1825	52.72501	392.6907	39.97935	91.47741	1.188999	14.22265	1.285	1	3	1	0.15	4620	117.3999	103.4465	54.30257	3.828843	200.3837	169.0796	0.9183029	12.00587	339.9677
8/7/2014 4:02:07 PM	16:02:07	109	A	4	59	84.28571	43086.86	54	77.14286	27000	1109.699	86.49744	87.34821	14.1825	52.72501	392.6907	39.97935	91.47741	1.188999	14.22265	1.285	1	3	1	0.15	4620	117.3999	103.4465	54.30257	3.828843	200.3837	169.0796	0.9183029	12.00587	339.9677
8/7/2014 4:02:17 PM	16:02:17	119	A	4	59	84.28571	43086.86	54	77.14286	27000	1114.431	87.37885	87.32257	14.1825	52.505	392.4206	39.48682	91.60963	1.128	14.22558	1.275999	1	3	1	0.15	4598	117.2002	102.6038	53.45824	3.76931	200.2337	167.85	0.9154593	11.96869	338.915
8/7/2014 4:02:17 PM	16:02:17	119	A	4	59	84.28571	43086.86	54	77.14286	27000	1114.431	87.37885	87.32257	14.1825	52.505	392.4206	39.48682	91.60963	1.128	14.22558	1.275999	1	3	1	0.15	4598	117.2002	102.6038	53.45824	3.76931	200.2337	167.85	0.9154593	11.96869	338.915
8/7/2014 4:02:27 PM	16:02:27	129	A	4	59	82.85715	42356.57	54	77.14286	27000	1112.15	88.12805	87.32257	14.1825	52.505	393.141	39.62251	91.52148	1.139999	14.22525	1.306	1	3	1	0.15	4570	117.7998	102.327	53.88542	3.79943	200.6339	169.4413	0.9222406	12.05735	341.4255
8/7/2014 4:02:27 PM	16:02:27	129	A	4	59	82.85715	42356.57	54	77.14286	27000	1112.15	88.12805	87.32257	14.1825	52.505	393.141	39.62251	91.52148	1.139999	14.22525	1.306	1	3	1	0.15	4570	117.7998	102.327	53.88542	3.79943	200.6339	169.4413	0.9222406	12.05735	341.4255
8/7/2014 4:02:37 PM	16:02:37	139	A	4	59	84.28571	43086.86	53	77.14286	27000	1110.502	87.51106	87.28836	14.1825	52.205	392.7357	39.41144	91.52148	1.146	14.2237	1.301001	1	3	1	0.15	4586	117.7998	102.8596	54.20205	3.821755	200.4088	169.6701	0.9204317	12.0337	340.7559
8/7/2014 4:02:37 PM	16:02:37	139	A	4	59	84.28571	43086.86	53	77.14286	27000	1110.502	87.51106	87.28836	14.1825	52.205	392.7357	39.41144	91.52148	1.146	14.2237	1.301001	1	3	1	0.15	4586	117.7998	102.8596	54.20205	3.821755	200.4088	169.6701	0.9204317	12.0337	340.7559
8/7/2014 4:02:47 PM	16:02:47	149	A	4	59	84.28571	43086.86	53	75.71429	26500	1109.15	87.5992	87.25415	14.1825	52.22501	392.5557	39.30589	91.47741	1.173	14.2237	1.299	1	3	1	0.15	4587	117.6001	102.7076	53.82512	3.795178	200.3087	168.875	0.9197519	12.02481	340.5042
8/7/2014 4:02:47 PM	16:02:47	149	A	4	59	84.28571	43086.86	53	75.71429	26500	1109.15	87.5992	87.25415	14.1825	52.22501	392.5557	39.30589	91.47741	1.173	14.2237	1.299	1	3	1	0.15	4587	117.6001	102.7076	53.82512	3.795178	200.3087	168.875	0.9197519	12.02481	340.5042
8/7/2014 4:02:57 PM	16:02:57	159	A	4	58	82.85715	42356.57	54	75.71429	26500	1116.797	87.37885	87.21997	14.1825	52.37	393.4561	39.18528	91.43334	1.166	14.22374	1.264	1	3	1	0.15	4565	117	101.3458	53.52357	3.773916	200.809	168.0012	0.9091357	11.88602	336.5739
8/7/2014 4:02:57 PM	16:02:57	159	A	4	58	82.85715	42356.57	54	75.71429	26500	1116.797	87.37885	87.21997	14.1825	52.37	393.4561	39.18528	91.43334	1.166	14.22374	1.264	1	3	1	0.15	4565	117	101.3458	53.52357	3.773916	200.809	168.0012	0.9091357	11.88602	336.5739
8/7/2014 4:03:07 PM	16:03:07	169	A	4	58	82.85715	42356.57	53	75.71429	26500	1118.572	88.52469	87.21997	14.1825	52.37	394.8068	39.74815	91.56557	1.162001	14.22269	1.289	1	3	1	0.15	4515	117.7998	101.2671	53.49845	3.772145	201.5594	168.867	0.9161146	11.97726	339.1576
8/7/2014 4:03:07 PM	16:03:07	169	A	4	58	82.85715	42356.57	53	75.71429	26500	1118.572	88.52469	87.21997	14.1825	52.37	394.8068	39.74815	91.56557	1.162001	14.22269	1.289	1	3	1	0.15	4515	117.7998	101.2671	53.49845	3.772145	201.5594	168.867	0.9161146	11.97726	339.1576
8/7/2014 4:03:17 PM	16:03:17	179	A	4	58	82.85715	42356.57	54	75.71429	26500	1108.094	87.46699	87.2114	14.18213	52.57001	394.2215	39.91401	91.78591	1.197001	14.22524	1.288	1	3	1	0.15	4565	117	101.8674	54.00064	3.807655	201.2342	169.1754	0.9156439	11.9711	338.9834
8/7/2014 4:03:17 PM	16:03:17	179	A	4	58	82.85715	42356.57	54	75.71429	26500	1108.094	87.46699	87.2114	14.18213	52.57001	394.2215	39.91401	91.78591	1.197001	14.22524	1.288	1	3	1	0.15	4565	117	101.8674	54.00064	3.807655	201.2342	169.1754	0.9156439	11.9711	338.9834
8/7/2014 4:03:27 PM	16:03:27	189	A	4	59	84.28571	43086.86	54	77.14286	27000	1107.249	86.85	87.2114	14.18213	52.57001	393.6362	40.2658	91.47741	1.218	14.22629	1.290001	1	3	1	0.15	4600	117.3999	103.1736	53.86494	3.798087	200.909	168.3648	0.9166468	11.98422	339.3546
8/7/2014 4:03:27 PM	16:03:27	189	A	4	59	84.28571	43086.86	54	77.14286	27000	1107.249	86.85	87.2114	14.18213	52.57001	393.6362	40.2658	91.47741	1.218	14.22629	1.290001	1	3	1	0.15	4600	117.3999	103.1736	53.86494	3.798087	200.909	168.3648	0.9166468	11.98422	339.3546
8/7/2014 4:03:37 PM	16:03:37	199	A	4	59	84.28571	43086.86	54	77.14286	27000	1107.544	86.62965	87.2114	14.18288	52.61501	393.4111	39.75319	91.60963	1.191999	14.22577	1.318001	1	3	1	0.15	4620	117.3999	103.0947	53.69985	3.786245	200.834	167.8004	0.9246201	12.08846	342.3065
8/7/2014 4:03:37 PM	16:03:37	199	A	4	59	84.28571	43086.86	54	77.14286	27000	1107.544	86.62965	87.2114	14.18288	52.61501	393.4111	39.75319	91.60963	1.191999	14.22577	1.318001	1	3	1	0.15	4620	117.3999	103.0947	53.69985	3.786245	200.834	167.8004	0.9246201	12.08846	342.3065
8/7/2014 4:03:47 PM	16:03:47	209	A	4	59	82.85715	42356.57	55	78.57143	27500	1107.46	86.23302	87.19431	14.1825	52.74001	393.6812	39.73308	91.6537	1.157	14.22609	1.323999	1	3	1	0.15	4633	117.2002	103.3848	54.29754	3.828488	200.934	168.854	0.9284683	12.13877	343.7311
8/7/2014 4:03:47 PM	16:03:47	209	A	4	59	82.85715	42356.57	55	78.57143	27500	1107.46	86.23302	87.19431	14.1825	52.74001	393.6812	39.73308	91.6537	1.157	14.22609	1.323999	1	3	1	0.15	4633	117.2002	103.3848	54.29754	3.828488	200.934	168.854	0.9284683	12.13877	343.7311
8/7/2014 4:03:57 PM	16:03:57	219	A	4	59	84.28571	43086.86	54	77.14286	27000	1107.079	85.7923	87.19431	14.1825	52.74001	393.3661	39.99442	91.87405	1.162001	14.22413	1.302999	1	3	1	0.15	4651	118	103.9633	54.26235	3.826007	200.7589	168.4169	0.9229423	12.06652	341.6853
8/7/2014 4:03:57 PM	16:03:57	219	A	4	59	84.28571	43086.86	54	77.14286	27000	1107.079	85.7923	87.19431	14.1825	52.74001	393.3661	39.99442	91.87405	1.162001	14.22413	1.302999	1	3	1	0.15	4651	118	103.9633	54.26235	3.826007	200.7589	168.4169	0.9229423	12.06652	341.6853
8/7/2014 4:04:07 PM	16:04:07	229	A	4	59	84.28571	43086.86	54	78.57143	27500	1105.432	85.48381	87.14301	14.1825	52.66499	393.4111	39.70795	91.78591	1.232	14.22583	1.320999	1	3	1	0.15	4654	118	104.7396	54.0362	3.810062	200.7839	167.6503	0.9272877	12.12333	343.294
8/7/2014 4:04:07 PM	16:04:07	229	A	4	59	84.28571	43086.86	54	78.57143	27500	1105.432	85.48381	87.14301	14.1825	52.66499	393.4111	39.70795	91.78591	1.232	14.22583	1.320999	1	3	1	0.15	4654	118	104.7396	54.0362	3.810062	200.7839	167.6503	0.9272877	12.12333	343.294
8/7/2014 4:04:17 PM	16:04:17	239	A	4	59	84.28571	43086.86	55	78.57143	27500	1104.206	85.30753	87.15155	14.1825	52.84	393.3661	39.88386	91.74184	1.174999	14.22637	1.309999	1	3	1	0.15	4659	116.6001	103.4327	54.27242	3.826717	200.7589	168.0474	0.9213826	12.04613	341.1079
8/7/2014 4:04:17 PM	16:04:17	239	A	4	59	84.28571	43086.86	55	78.57143	27500	1104.206	85.30753	87.15155	14.1825	52.84	393.3661	39.88386	91.74184	1.174999	14.22637	1.309999	1	3	1	0.15	4659	116.6001	103.4327	54.27242	3.826717	200.7589	168.0474	0.9213826	12.04613	341.1079
8/7/2014 4:04:27 PM	16:04:27	249	A	4	59	84.28571	43086.86	54	77.14286	27000	1103.953	85.17532	87.15155	14.1825	52.84	393.4561	39.97432	91.82998	1.191999	14.22634	1.311001	1	3	1	0.15	4660	117.2002	104.1645	54.1166	3.81573	200.809	167.5847	0.9237581	12.07719	341.9873
8/7/2014 4:04:27 PM	16:04:27	249	A	4	59	84.28571	43086.86	54	77.14286	27000	1103.953	85.17532	87.15155	14.1825	52.84	393.4561	39.97432	91.82998	1.191999	14.22634	1.311001	1	3	1	0.15	4660	117.2002	104.1645	54.1166	3.81573	200.809	167.5847	0.9237581	12.07719	341.9873
8/7/2014 4:04:37 PM	16:04:37	259	A	4	58	84.28571	43086.86	54	77.14286	27000	1105.22	85.04311	87.13443	14.18213	53.12	393.276	40.35124	91.6537	1.216	14.22611	1.309999	1	3	1	0.15	4653	117	104.0081	54.31224	3.829626	200.7089	167.9274	0.9235628	12.07464	341.915
8/7/2014 4:04:37 PM	16:04:37	259	A	4	58	84.28571	43086.86	54	77.14286	27000	1105.22	85.04311	87.13443	14.18213	53.12	393.276	40.35124	91.6537	1.216	14.22611	1.309999	1	3	1	0.15	4653	117	104.0081	54.31224	3.829626	200.7089	167.9274	0.9235628	12.07464	341.915
8/7/2014 4:04:47 PM	16:04:47	269	A	4	59	84.28571	43086.86	55	78.57143	27500	1104.375	85.08717	87.1088	14.18213	53.685	393.0959	40.43166	91.74184	1.242001	14.22372	1.315001	1	3	1	0.15	4657	117.7998	104.4521	54.30219	3.828918	200.6089	167.9401	0.9251496	12.09538	342.5025
8/7/2014 4:04:47 PM	16:04:47	269	A	4	59	84.28571	43086.86	55	78.57143	27500	1104.375	85.08717	87.1088	14.18213	53.685	393.0959	40.43166	91.74184	1.242001	14.22372	1.315001	1	3	1	0.15	4657	117.7998	104.4521	54.30219	3.828918	200.6089	167.9401	0.9251496	12.09538	342.5025
8/7/2014 4:04:57 PM	16:04:57	279	A	4	59	84.28571	43086.86	55	78.57143	27500	1104.375	84.64647	87.1088	14.18213	53.685	392.9158	40.17534	91.69777	1.201	14.22401	1.316999	1	3	1	0.15	4662	116.3999	103.1443	54.49315	3.842383	200.5088	168.0176	0.9300991	12.16009	344.3348
8/7/2014 4:04:57 PM	16:04:57	279	A	4	59	84.28571	43086.86	55	78.57143	27500	1104.375	84.64647	87.1088	14.18213	53.685	392.9158	40.17534	91.69777	1.201	14.22401	1.316999	1	3	1	0.15	4662	116.3999	103.1443	54.49315	3.842383	200.5088	168.0176	0.9300991	12.16009	344.3348
8/7/2014 4:05:07 PM	16:05:07	289	A	4	59	84.28571	43086.86	55	77.14286	27000	1104.925	84.55833	87.10025	14.1825	53.49001	392.9609	39.79338	91.78591	1.159	14.22739	1.308001	1	3	1	0.15	4662	118	105.0969	54.20205	3.821755	200.5338	167.2805	0.9227901	12.06453	341.629
8/7/2014 4:05:07 PM	16:05:07	289	A	4	59	84.28571	43086.86	55	77.14286	27000	1104.925	84.55833	87.10025	14.1825	53.49001	392.9609	39.79338	91.78591	1.159	14.22739	1.308001	1	3	1	0.15	4662	118	105.0969	54.20205	3.821755	200.5338	167.2805	0.9227901	12.06453	341.629
8/7/2014 4:05:17 PM	16:05:17	299	A	4	58	82.85715	42356.57	55	78.57143	27500	1107.375	84.69054	87.09167	14.18175	53.23	392.5107	40.47688	91.69777	1.101999	14.22588	1.309	1	3	1	0.15	4658	117.3999	104.4745	54.28674	3.827929	200.2837	167.587	0.9235116	12.07397	341.8961
8/7/2014 4:05:17 PM	16:05:17	299	A	4	58	82.85715	42356.57	55	78.57143	27500	1107.375	84.69054	87.09167	14.18175	53.23	392.5107	40.47688	91.69777	1.101999	14.22588	1.309	1	3	1	0.15	4658	117.3999	104.4745	54.28674	3.827929	200.2837	167.587	0.9235116	12.07397	341.8961
8/7/2014 4:05:27 PM	16:05:27	309	A	4	59	84.28571	43086.86	54	77.14286	27000	1105.347	84.29391	87.06604	14.18175	53.065	392.1955	40.25575	91.78591	1.201	14.22616	1.301001	1	3	1	0.15	4665	117	103.5659	54.39227	3.835371	200.1086	167.506	0.9202669	12.03154	340.6948
8/7/2014 4:05:27 PM	16:05:27	309	A	4	59	84.28571	43086.86	54	77.14286	27000	1105.347	84.29391	87.06604	14.18175	53.065	392.1955	40.25575	91.78591	1.201	14.22616	1.301001	1	3	1	0.15	4665	117	103.5659	54.39227	3.835371	200.1086	167.506	0.9202669	12.03154	340.6948
8/7/2014 4:05:37 PM	16:05:37	319	A	4	59	84.28571	43086.86	55	78.57143	27500	1103.361	83.89727	87.06604	14.18175	53.065	392.2405	40.41658	91.52148	1.193001	14.22497	1.313	1	3	1	0.15	4673	117.3999	104.2774	54.23648	3.824386	200.1086	166.8304	0.9218727	12.05254	341.2893
8/7/2014 4:05:37 PM	16:05:37	319	A	4	59	84.28571	43086.86	55	78.57143	27500	1103.361	83.89727	87.06604	14.18175	53.065	392.2405	40.41658	91.52148	1.193001	14.22497	1.313	1	3	1	0.15	4673	117.3999	104.2774	54.23648	3.824386	200.1086	166.8304	0.9218727	12.05254	341.2893
8/7/2014 4:05:47 PM	16:05:47	329	A	4	59	84.28571	43086.86	55	78.57143	27500	1104.502	83.8532	87.05753	14.18175	52.625	391.8353	40.09996	91.56557	1.245001	14.22215	1.304001	1	3	1	0.15	4668	117.2002	104.5213	54.52796	3.844939	199.9085	167.4569	0.9213989	12.04634	341.1139
8/7/2014 4:05:47 PM	16:05:47	329	A	4	59	84.28571	43086.86	55	78.57143	27500	1104.502	83.8532	87.05753	14.18175	52.625	391.8353	40.09996	91.56557	1.245001	14.22215	1.304001	1	3	1	0.15	4668	117.2002	104.5213	54.52796	3.844939	199.9085	167.4569	0.9213989	12.04634	341.1139
8/7/2014 4:05:57 PM	16:05:57	339	A	4	59	84.28571	43086.86	55	78.57143	27500	1100.319	83.8532	87.05753	14.18175	52.625	391.5651	39.99944	91.56557	1.136	14.2262	1.33	1	3	1	0.15	4673	117.6001	103.9212	54.07565	3.813045	199.7584	166.4283	0.9295708	12.15318	344.1393
8/7/2014 4:05:57 PM	16:05:57	339	A	4	59	84.28571	43086.86	55	78.57143	27500	1100.319	83.8532	87.05753	14.18175	52.625	391.5651	39.99944	91.56557	1.136	14.2262	1.33	1	3	1	0.15	4673	117.6001	103.9212	54.07565	3.813045	199.7584	166.4283	0.9295708	12.15318	344.1393
8/7/2014 4:06:07 PM	16:06:07	349	A	4	59	84.28571	43086.86	55	78.57143	27500	1104.544	83.63285	87.03183	14.18213	52.625	391.4751	40.23063	91.47741	1.236	14.22564	1.313999	1	3	1	0.15	4671	117.3999	104.5885	55.06106	3.882427	199.7084	168.4789	0.925084	12.09452	342.4782
8/7/2014 4:06:07 PM	16:06:07	349	A	4	59	84.28571	43086.86	55	78.57143	27500	1104.544	83.63285	87.03183	14.18213	52.625	391.4751	40.23063	91.47741	1.236	14.22564	1.313999	1	3	1	0.15	4671	117.3999	104.5885	55.06106	3.882427	199.7084	168.4789	0.925084	12.09452	342.4782
8/7/2014 4:06:17 PM	16:06:17	359	A	4	59	84.28571	43086.86	54	78.57143	27500	1102.559	83.50063	86.98056	14.18137	52.61501	390.9348	39.99944	91.47741	1.205	14.22456	1.313	1	3	1	0.15	4674	117.3999	104.6556	54.30645	3.829421	199.4082	166.6717	0.9247036	12.08955	342.3374
8/7/2014 4:06:17 PM	16:06:17	359	A	4	59	84.28571	43086.86	54	78.57143	27500	1102.559	83.50063	86.98056	14.18137	52.61501	390.9348	39.99944	91.47741	1.205	14.22456	1.313	1	3	1	0.15	4674	117.3999	104.6556	54.30645	3.829421	199.4082	166.6717	0.9247036	12.08955	342.3374
8/7/2014 4:06:27 PM	16:06:27	369	A	4	59	84.28571	43086.86	54	78.57143	27500	1105.854	83.63285	86.98056	14.18137	52.61501	390.7547	40.35124	91.43334	1.186001	14.22424	1.292999	1	3	1	0.15	4669	117	104.0102	54.30645	3.829421	199.3082	166.7788	0.9176766	11.99768	339.7359
8/7/2014 4:06:27 PM	16:06:27	369	A	4	59	84.28571	43086.86	54	78.57143	27500	1105.854	83.63285	86.98056	14.18137	52.61501	390.7547	40.35124	91.43334	1.186001	14.22424	1.292999	1	3	1	0.15	4669	117	104.0102	54.30645	3.829421	199.3082	166.7788	0.9176766	11.99768	339.7359
8/7/2014 4:06:37 PM	16:06:37	379	A	4	59	84.28571	43086.86	54	77.14286	27000	1109.446	84.11762	86.9549	14.18175	52.55499	390.5746	40.23063	91.25706	1.212	14.22566	1.316	1	3	1	0.15	4648	118.2002	104.2502	54.43247	3.838206	199.2081	167.4545	0.927021	12.11985	343.1953
8/7/2014 4:06:37 PM	16:06:37	379	A	4	59	84.28571	43086.86	54	77.14286	27000	1109.446	84.11762	86.9549	14.18175	52.55499	390.5746	40.23063	91.25706	1.212	14.22566	1.316	1	3	1	0.15	4648	118.2002	104.2502	54.43247	3.838206	199.2081	167.4545	0.927021	12.11985	343.1953
8/7/2014 4:06:47 PM	16:06:47	389	A	4	59	84.28571	43086.86	54	77.14286	27000	1105.643	84.24983	86.94635	14.18175	52.59	390.2595	40.54222	91.213	1.166	14.22725	1.315001	1	3	1	0.15	4668	117	103.9879	54.63853	3.852735	199.0331	168.0291	0.9260615	12.1073	342.8401
8/7/2014 4:06:47 PM	16:06:47	389	A	4	59	84.28571	43086.86	54	77.14286	27000	1105.643	84.24983	86.94635	14.18175	52.59	390.2595	40.54222	91.213	1.166	14.22725	1.315001	1	3	1	0.15	4668	117	103.9879	54.63853	3.852735	199.0331	168.0291	0.9260615	12.1073	342.8401
8/7/2014 4:06:57 PM	16:06:57	399	A	4	59	84.28571	43086.86	55	78.57143	27500	1106.065	84.24983	86.94635	14.18175	52.59	389.6742	40.29595	91.16891	1.205	14.22342	1.32	1	3	1	0.15	4670	118.2002	105.4552	54.02539	3.809501	198.7079	166.6344	0.9273713	12.12443	343.325
8/7/2014 4:06:57 PM	16:06:57	399	A	4	59	84.28571	43086.86	55	78.57143	27500	1106.065	84.24983	86.94635	14.18175	52.59	389.6742	40.29595	91.16891	1.205	14.22342	1.32	1	3	1	0.15	4670	118.2002	105.4552	54.02539	3.809501	198.7079	166.6344	0.9273713	12.12443	343.325
8/7/2014 4:07:07 PM	16:07:07	409	A	4	59	84.28571	43086.86	54	78.57143	27500	1105.432	84.6024	86.89505	14.18175	52.685	389.269	40.20549	91.16891	1.235001	14.22436	1.308001	1	3	1	0.15	4675	118.3999	105.034	54.86469	3.868682	198.4828	168.827	0.9232125	12.07006	341.7853
8/7/2014 4:07:07 PM	16:07:07	409	A	4	59	84.28571	43086.86	54	78.57143	27500	1105.432	84.6024	86.89505	14.18175	52.685	389.269	40.20549	91.16891	1.235001	14.22436	1.308001	1	3	1	0.15	4675	118.3999	105.034	54.86469	3.868682	198.4828	168.827	0.9232125	12.07006	341.7853
8/7/2014 4:07:17 PM	16:07:17	419	A	4	59	84.28571	43086.86	54	78.57143	27500	1104.925	84.73461	86.87796	14.18213	53.08501	389.0438	40.10499	91.08078	1.228001	14.2264	1.305	1	3	1	0.15	4676	117.6001	104.7004	54.25193	3.825374	198.3577	167.5401	0.9222943	12.05805	341.4454
8/7/2014 4:07:17 PM	16:07:17	419	A	4	59	84.28571	43086.86	54	78.57143	27500	1104.925	84.73461	86.87796	14.18213	53.08501	389.0438	40.10499	91.08078	1.228001	14.2264	1.305	1	3	1	0.15	4676	117.6001	104.7004	54.25193	3.825374	198.3577	167.5401	0.9222943	12.05805	341.4454
8/7/2014 4:07:27 PM	16:07:27	429	A	4	59	82.85715	42356.57	55	78.57143	27500	1105.22	84.9109	86.87796	14.18213	53.08501	389.1789	40.33617	91.213	1.204	14.22741	1.297001	1	3	1	0.15	4659	118.6001	105.0292	54.48311	3.841675	198.4327	168.2091	0.9200848	12.02916	340.6274
8/7/2014 4:07:27 PM	16:07:27	429	A	4	59	82.85715	42356.57	55	78.57143	27500	1105.22	84.9109	86.87796	14.18213	53.08501	389.1789	40.33617	91.213	1.204	14.22741	1.297001	1	3	1	0.15	4659	118.6001	105.0292	54.48311	3.841675	198.4327	168.2091	0.9200848	12.02916	340.6274
8/7/2014 4:07:37 PM	16:07:37	439	A	4	59	84.28571	43086.86	55	78.57143	27500	1105.981	85.13125	86.88647	14.18175	53.41499	389.5391	40.10499	91.30114	1.219	14.22403	1.292999	1	3	1	0.15	4656	117.6001	104.6071	54.42242	3.837497	198.6328	168.2529	0.9177965	11.99925	339.7803
8/7/2014 4:07:37 PM	16:07:37	439	A	4	59	84.28571	43086.86	55	78.57143	27500	1105.981	85.13125	86.88647	14.18175	53.41499	389.5391	40.10499	91.30114	1.219	14.22403	1.292999	1	3	1	0.15	4656	117.6001	104.6071	54.42242	3.837497	198.6328	168.2529	0.9177965	11.99925	339.7803
8/7/2014 4:07:47 PM	16:07:47	449	A	4	58	84.28571	43086.86	54	77.14286	27000	1106.108	84.99904	86.88647	14.18175	53.355	389.7642	40.2859	91.25706	1.202999	14.22385	1.316999	1	3	1	0.15	4668	117.7998	104.6988	54.27668	3.82722	198.7579	167.8139	0.9262635	12.10995	342.9149
8/7/2014 4:07:47 PM	16:07:47	449	A	4	58	84.28571	43086.86	54	77.14286	27000	1106.108	84.99904	86.88647	14.18175	53.355	389.7642	40.2859	91.25706	1.202999	14.22385	1.316999	1	3	1	0.15	4668	117.7998	104.6988	54.27668	3.82722	198.7579	167.8139	0.9262635	12.10995	342.9149
8/7/2014 4:07:57 PM	16:07:57	459	A	4	59	84.28571	43086.86	55	78.57143	27500	1102.854	84.47018	86.88647	14.18175	53.355	390.3495	40.26078	91.16891	1.197001	14.22606	1.322001	1	3	1	0.15	4677	119	105.6133	54.49277	3.842458	199.0831	167.8771	0.9281718	12.13489	343.6213
8/7/2014 4:07:57 PM	16:07:57	459	A	4	59	84.28571	43086.86	55	78.57143	27500	1102.854	84.47018	86.88647	14.18175	53.355	390.3495	40.26078	91.16891	1.197001	14.22606	1.322001	1	3	1	0.15	4677	119	105.6133	54.49277	3.842458	199.0831	167.8771	0.9281718	12.13489	343.6213
8/7/2014 4:08:07 PM	16:08:07	469	A	4	59	84.28571	43086.86	55	78.57143	27500	1104.629	84.1617	86.88647	14.18175	53.16	390.2144	40.45175	91.16891	1.184999	14.22447	1.309	1	3	1	0.15	4680	117.2002	104.4336	54.40232	3.83608	199.008	167.4217	0.9235577	12.07457	341.9131
8/7/2014 4:08:07 PM	16:08:07	469	A	4	59	84.28571	43086.86	55	78.57143	27500	1104.629	84.1617	86.88647	14.18175	53.16	390.2144	40.45175	91.16891	1.184999	14.22447	1.309	1	3	1	0.15	4680	117.2002	104.4336	54.40232	3.83608	199.008	167.4217	0.9235577	12.07457	341.9131
8/7/2014 4:08:17 PM	16:08:17	479	A	4	59	84.28571	43086.86	54	78.57143	27500	1105.305	84.02948	86.89505	14.18175	53.12	389.8542	40.37637	91.08078	1.200001	14.22602	1.325001	1	3	1	0.15	4682	117	104.2998	54.52295	3.844586	198.8079	167.5884	0.92893	12.14481	343.9021
8/7/2014 4:08:17 PM	16:08:17	479	A	4	59	84.28571	43086.86	54	78.57143	27500	1105.305	84.02948	86.89505	14.18175	53.12	389.8542	40.37637	91.08078	1.200001	14.22602	1.325001	1	3	1	0.15	4682	117	104.2998	54.52295	3.844586	198.8079	167.5884	0.92893	12.14481	343.9021
8/7/2014 4:08:27 PM	16:08:27	489	A	4	59	84.28571	43086.86	55	78.57143	27500	1102.516	83.94134	86.89505	14.18175	53.12	389.9893	40.35627	91.08078	1.207001	14.22569	1.322001	1	3	1	0.15	4682	116.6001	104.2998	54.60334	3.850254	198.883	167.6991	0.9282232	12.13556	343.6404
8/7/2014 4:08:27 PM	16:08:27	489	A	4	59	84.28571	43086.86	55	78.57143	27500	1102.516	83.94134	86.89505	14.18175	53.12	389.9893	40.35627	91.08078	1.207001	14.22569	1.322001	1	3	1	0.15	4682	116.6001	104.2998	54.60334	3.850254	198.883	167.6991	0.9282232	12.13556	343.6404
8/7/2014 4:08:37 PM	16:08:37	499	A	4	59	84.28571	43086.86	55	78.57143	27500	1101.502	83.94134	86.90359	14.18137	53.095	390.2595	40.3261	91.08078	1.157	14.22434	1.306	1	3	1	0.15	4686	117.6001	104.9243	54.61303	3.851039	199.0331	167.7244	0.9225612	12.06154	341.5442
8/7/2014 4:08:37 PM	16:08:37	499	A	4	59	84.28571	43086.86	55	78.57143	27500	1101.502	83.94134	86.90359	14.18137	53.095	390.2595	40.3261	91.08078	1.157	14.22434	1.306	1	3	1	0.15	4686	117.6001	104.9243	54.61303	3.851039	199.0331	167.7244	0.9225612	12.06154	341.5442
8/7/2014 4:08:47 PM	16:08:47	509	A	4	59	84.28571	43086.86	55	78.57143	27500	1104.333	83.76506	86.90359	14.18175	53.12	390.2144	40.02457	90.77229	1.208	14.22317	1.306	1	3	1	0.15	4687	117.6001	104.9467	54.66868	3.854861	199.008	167.7041	0.9227874	12.0645	341.628
8/7/2014 4:08:47 PM	16:08:47	509	A	4	59	84.28571	43086.86	55	78.57143	27500	1104.333	83.76506	86.90359	14.18175	53.12	390.2144	40.02457	90.77229	1.208	14.22317	1.306	1	3	1	0.15	4687	117.6001	104.9467	54.66868	3.854861	199.008	167.7041	0.9227874	12.0645	341.628
8/7/2014 4:08:57 PM	16:08:57	519	A	4	59	84.28571	43086.86	55	78.57143	27500	1105.474	84.1617	86.91217	14.18175	52.94	389.6292	40.49196	90.86044	1.159	14.22284	1.306	1	3	1	0.15	4683	117.2002	104.6786	54.72899	3.859114	198.6829	168.1624	0.9241033	12.0817	342.1151
8/7/2014 4:08:57 PM	16:08:57	519	A	4	59	84.28571	43086.86	55	78.57143	27500	1105.474	84.1617	86.91217	14.18175	52.94	389.6292	40.49196	90.86044	1.159	14.22284	1.306	1	3	1	0.15	4683	117.2002	104.6786	54.72899	3.859114	198.6829	168.1624	0.9241033	12.0817	342.1151
8/7/2014 4:09:07 PM	16:09:07	529	A	4	59	82.85715	42356.57	55	78.57143	27500	1104.206	84.1617	86.91217	14.18175	52.94	389.449	40.33617	90.94857	1.198999	14.22515	1.313	1	3	1	0.15	4680	117.2002	104.2552	54.64859	3.853445	198.5828	167.9804	0.9251659	12.09559	342.5085
8/7/2014 4:09:07 PM	16:09:07	529	A	4	59	82.85715	42356.57	55	78.57143	27500	1104.206	84.1617	86.91217	14.18175	52.94	389.449	40.33617	90.94857	1.198999	14.22515	1.313	1	3	1	0.15	4680	117.2002	104.2552	54.64859	3.853445	198.5828	167.9804	0.9251659	12.09559	342.5085
8/7/2014 4:09:17 PM	16:09:17	539	A	4	59	84.28571	43086.86	55	78.57143	27500	1106.488	84.33797	86.88647	14.18213	52.88499	389.314	40.09996	90.81635	1.181	14.22394	1.288	1	3	1	0.15	4673	118	104.989	54.15141	3.818286	198.5078	166.99	0.9146422	11.95801	338.6125
8/7/2014 4:09:17 PM	16:09:17	539	A	4	59	84.28571	43086.86	55	78.57143	27500	1106.488	84.33797	86.88647	14.18213	52.88499	389.314	40.09996	90.81635	1.181	14.22394	1.288	1	3	1	0.15	4673	118	104.989	54.15141	3.818286	198.5078	166.99	0.9146422	11.95801	338.6125
8/7/2014 4:09:27 PM	16:09:27	549	A	4	58	82.85715	42356.57	55	78.57143	27500	1109.319	84.42612	86.88647	14.18213	52.88499	389.7192	40.11	90.68414	1.177	14.22567	1.304001	1	3	1	0.15	4651	118.3999	104.6721	54.20167	3.82183	198.7329	167.1759	0.9222515	12.05749	341.4296
8/7/2014 4:09:27 PM	16:09:27	549	A	4	58	82.85715	42356.57	55	78.57143	27500	1109.319	84.42612	86.88647	14.18213	52.88499	389.7192	40.11	90.68414	1.177	14.22567	1.304001	1	3	1	0.15	4651	118.3999	104.6721	54.20167	3.82183	198.7329	167.1759	0.9222515	12.05749	341.4296
8/7/2014 4:09:37 PM	16:09:37	559	A	4	59	84.28571	43086.86	54	78.57143	27500	1105.389	84.9109	86.87796	14.18213	52.925	390.3495	40.50704	90.77229	1.188999	14.2243	1.306999	1	3	1	0.15	4656	117.7998	104.4296	54.43285	3.83813	199.0831	168.0948	0.9231791	12.06962	341.7729
8/7/2014 4:09:37 PM	16:09:37	559	A	4	59	84.28571	43086.86	54	78.57143	27500	1105.389	84.9109	86.87796	14.18213	52.925	390.3495	40.50704	90.77229	1.188999	14.2243	1.306999	1	3	1	0.15	4656	117.7998	104.4296	54.43285	3.83813	199.0831	168.0948	0.9231791	12.06962	341.7729
8/7/2014 4:09:47 PM	16:09:47	569	A	4	59	84.28571	43086.86	55	78.57143	27500	1103.995	84.82275	86.87796	14.18137	53.105	390.4846	40.52211	90.64008	1.167999	14.22557	1.32	1	3	1	0.15	4675	117.7998	105.034	54.58287	3.848913	199.1581	168.3708	0.9278867	12.13117	343.5158
8/7/2014 4:09:47 PM	16:09:47	569	A	4	59	84.28571	43086.86	55	78.57143	27500	1103.995	84.82275	86.87796	14.18137	53.105	390.4846	40.52211	90.64008	1.167999	14.22557	1.32	1	3	1	0.15	4675	117.7998	105.034	54.58287	3.848913	199.1581	168.3708	0.9278867	12.13117	343.5158
8/7/2014 4:09:57 PM	16:09:57	579	A	4	59	84.28571	43086.86	55	78.57143	27500	1105.263	84.73461	86.87796	14.18137	53.105	390.8448	40.25575	90.59601	1.153999	14.2263	1.306999	1	3	1	0.15	4678	117.3999	104.7452	54.31149	3.829776	199.3582	167.6824	0.9233947	12.07244	341.8528
8/7/2014 4:09:57 PM	16:09:57	579	A	4	59	84.28571	43086.86	55	78.57143	27500	1105.263	84.73461	86.87796	14.18137	53.105	390.8448	40.25575	90.59601	1.153999	14.2263	1.306999	1	3	1	0.15	4678	117.3999	104.7452	54.31149	3.829776	199.3582	167.6824	0.9233947	12.07244	341.8528
8/7/2014 4:10:07 PM	16:10:07	589	A	4	59	84.28571	43086.86	54	78.57143	27500	1103.615	85.21939	86.88647	14.18175	53.3	391.5201	40.10499	90.59601	1.152	14.22367	1.292999	1	3	1	0.15	4673	119	105.7007	54.36713	3.833599	199.7334	168.1985	0.9204874	12.03443	340.7765
8/7/2014 4:10:07 PM	16:10:07	589	A	4	59	84.28571	43086.86	54	78.57143	27500	1103.615	85.21939	86.88647	14.18175	53.3	391.5201	40.10499	90.59601	1.152	14.22367	1.292999	1	3	1	0.15	4673	119	105.7007	54.36713	3.833599	199.7334	168.1985	0.9204874	12.03443	340.7765
8/7/2014 4:10:17 PM	16:10:17	599	A	4	59	84.28571	43086.86	54	77.14286	27000	1106.911	85.61603	86.87796	14.18213	53.47	391.9253	40.50201	90.59601	1.250999	14.22379	1.315001	1	3	1	0.15	4676	117.7998	104.8782	54.11121	3.815451	199.9585	167.9321	0.923317	12.07142	341.824
8/7/2014 4:10:17 PM	16:10:17	599	A	4	59	84.28571	43086.86	54	77.14286	27000	1106.911	85.61603	86.87796	14.18213	53.47	391.9253	40.50201	90.59601	1.250999	14.22379	1.315001	1	3	1	0.15	4676	117.7998	104.8782	54.11121	3.815451	199.9585	167.9321	0.923317	12.07142	341.824
8/7/2014 4:10:27 PM	16:10:27	609	A	4	59	84.28571	43086.86	55	78.57143	27500	1105.178	85.43974	86.87796	14.18213	53.47	392.6457	40.18037	90.64008	1.257999	14.22611	1.318001	1	3	1	0.15	4678	117.2002	104.2107	54.4228	3.837422	200.3587	168.5004	0.9272229	12.12249	343.2701
8/7/2014 4:10:27 PM	16:10:27	609	A	4	59	84.28571	43086.86	55	78.57143	27500	1105.178	85.43974	86.87796	14.18213	53.47	392.6457	40.18037	90.64008	1.257999	14.22611	1.318001	1	3	1	0.15	4678	117.2002	104.2107	54.4228	3.837422	200.3587	168.5004	0.9272229	12.12249	343.2701
8/7/2014 4:10:37 PM	16:10:37	619	A	4	59	84.28571	43086.86	54	78.57143	27500	1104.671	85.39568	86.90359	14.18137	53.36501	392.9158	40.47688	90.64008	1.139999	14.22395	1.316999	1	3	1	0.15	4677	117.7998	104.9006	54.74369	3.860253	200.5088	169.2003	0.9267941	12.11688	343.1113
8/7/2014 4:10:37 PM	16:10:37	619	A	4	59	84.28571	43086.86	54	78.57143	27500	1104.671	85.39568	86.90359	14.18137	53.36501	392.9158	40.47688	90.64008	1.139999	14.22395	1.316999	1	3	1	0.15	4677	117.7998	104.9006	54.74369	3.860253	200.5088	169.2003	0.9267941	12.11688	343.1113
8/7/2014 4:10:48 PM	16:10:48	630	A	4	59	84.28571	43086.86	55	78.57143	27500	1106.953	85.70416	86.93781	14.18175	53.53	393.231	40.31103	90.68414	1.153999	14.22551	1.32	1	3	1	0.15	4682	117.7998	104.6563	54.53299	3.845294	200.6839	168.9688	0.9278491	12.13068	343.5019
8/7/2014 4:10:48 PM	16:10:48	630	A	4	59	84.28571	43086.86	55	78.57143	27500	1106.953	85.70416	86.93781	14.18175	53.53	393.231	40.31103	90.68414	1.153999	14.22551	1.32	1	3	1	0.15	4682	117.7998	104.6563	54.53299	3.845294	200.6839	168.9688	0.9278491	12.13068	343.5019
8/7/2014 4:10:58 PM	16:10:58	640	A	4	59	84.28571	43086.86	55	78.57143	27500	1105.305	85.6601	86.97198	14.18175	53.82001	393.8613	40.69802	90.50787	1.204	14.22392	1.323	1	3	1	0.15	4693	117.2002	104.5448	54.50284	3.843168	201.0341	168.8645	0.9283087	12.13668	343.672
8/7/2014 4:10:58 PM	16:10:58	640	A	4	59	84.28571	43086.86	55	78.57143	27500	1105.305	85.6601	86.97198	14.18175	53.82001	393.8613	40.69802	90.50787	1.204	14.22392	1.323	1	3	1	0.15	4693	117.2002	104.5448	54.50284	3.843168	201.0341	168.8645	0.9283087	12.13668	343.672
8/7/2014 4:11:08 PM	16:11:08	650	A	4	59	84.28571	43086.86	55	78.57143	27500	1105.094	85.04311	86.97198	14.18175	53.82001	393.9063	40.16529	90.68414	1.188	14.22418	1.304001	1	3	1	0.15	4700	117.2002	105.0586	54.79935	3.864076	201.0591	169.037	0.9221819	12.05658	341.4038
8/7/2014 4:11:08 PM	16:11:08	650	A	4	59	84.28571	43086.86	55	78.57143	27500	1105.094	85.04311	86.97198	14.18175	53.82001	393.9063	40.16529	90.68414	1.188	14.22418	1.304001	1	3	1	0.15	4700	117.2002	105.0586	54.79935	3.864076	201.0591	169.037	0.9221819	12.05658	341.4038
8/7/2014 4:11:18 PM	16:11:18	660	A	4	59	84.28571	43086.86	55	78.57143	27500	1105.854	84.73461	86.98056	14.18137	53.60001	393.9063	40.4417	90.55194	1.214001	14.22286	1.319	1	3	1	0.15	4705	116.7998	104.6328	54.66329	3.854584	201.0591	168.4817	0.9275244	12.12643	343.3817
8/7/2014 4:11:18 PM	16:11:18	660	A	4	59	84.28571	43086.86	55	78.57143	27500	1105.854	84.73461	86.98056	14.18137	53.60001	393.9063	40.4417	90.55194	1.214001	14.22286	1.319	1	3	1	0.15	4705	116.7998	104.6328	54.66329	3.854584	201.0591	168.4817	0.9275244	12.12643	343.3817
8/7/2014 4:11:28 PM	16:11:28	670	A	4	59	82.85715	42356.57	55	78.57143	27500	1104.967	84.64647	86.98056	14.18137	53.60001	394.3566	40.23565	90.46379	1.125	14.22597	1.302999	1	3	1	0.15	4714	117	105.7305	54.61804	3.851393	201.3092	168.3076	0.9248971	12.09208	342.409
8/7/2014 4:11:28 PM	16:11:28	670	A	4	59	82.85715	42356.57	55	78.57143	27500	1104.967	84.64647	86.98056	14.18137	53.60001	394.3566	40.23565	90.46379	1.125	14.22597	1.302999	1	3	1	0.15	4714	117	105.7305	54.61804	3.851393	201.3092	168.3076	0.9248971	12.09208	342.409
8/7/2014 4:11:38 PM	16:11:38	680	A	4	59	84.28571	43086.86	55	78.57143	27500	1102.981	84.33797	87.02328	14.181	53.045	394.4016	40.68294	90.55194	1.146999	14.22151	1.297001	1	3	1	0.15	4718	118.6001	106.3593	54.78856	3.863518	201.3342	168.4467	0.9222261	12.05716	341.4202
8/7/2014 4:11:38 PM	16:11:38	680	A	4	59	84.28571	43086.86	55	78.57143	27500	1102.981	84.33797	87.02328	14.181	53.045	394.4016	40.68294	90.55194	1.146999	14.22151	1.297001	1	3	1	0.15	4718	118.6001	106.3593	54.78856	3.863518	201.3342	168.4467	0.9222261	12.05716	341.4202
8/7/2014 4:11:48 PM	16:11:48	0	A	4	59	84.28571	43086.86	55	78.57143	27500	1107.755	84.42612	87.04041	14.18063	52.78999	394.7618	40.60253	90.46379	1.18	14.22226	1.297001	1	3	1	0.15	4696	117.7998	104.9692	54.35596	3.833115	201.5343	167.5403	0.9198402	12.02597	340.5369
8/7/2014 4:11:48 PM	16:11:48	0	A	4	59	84.28571	43086.86	55	78.57143	27500	1107.755	84.42612	87.04041	14.18063	52.78999	394.7618	40.60253	90.46379	1.18	14.22226	1.297001	1	3	1	0.15	4696	117.7998	104.9692	54.35596	3.833115	201.5343	167.5403	0.9198402	12.02597	340.5369
8/7/2014 4:11:58 PM	16:11:58	0	A	4	59	84.28571	43086.86	55	78.57143	27500	1104.375	84.33797	87.06604	14.181	52.86	394.8068	40.70806	90.37565	1.184999	14.22267	1.308001	1	3	1	0.15	4705	116.7998	104.6328	54.77348	3.862455	201.5594	168.4126	0.9209998	12.04113	340.9662
8/7/2014 4:11:58 PM	16:11:58	0	A	4	59	84.28571	43086.86	55	78.57143	27500	1104.375	84.33797	87.06604	14.181	52.86	394.8068	40.70806	90.37565	1.184999	14.22267	1.308001	1	3	1	0.15	4705	116.7998	104.6328	54.77348	3.862455	201.5594	168.4126	0.9209998	12.04113	340.9662
8/7/2014 4:12:08 PM	16:12:08	0	A	4	59	84.28571	43086.86	55	78.57143	27500	1103.995	84.38205	87.06604	14.181	52.86	394.3566	40.53719	90.46379	1.221001	14.22303	1.312	1	3	1	0.15	4708	117.7998	105.5959	54.59758	3.850052	201.3092	168.05	0.9240959	12.08161	342.1124
8/7/2014 4:12:08 PM	16:12:08	0	A	4	59	84.28571	43086.86	55	78.57143	27500	1103.995	84.38205	87.06604	14.181	52.86	394.3566	40.53719	90.46379	1.221001	14.22303	1.312	1	3	1	0.15	4708	117.7998	105.5959	54.59758	3.850052	201.3092	168.05	0.9240959	12.08161	342.1124
8/7/2014 4:12:18 PM	16:12:18	0	A	4	59	84.28571	43086.86	55	78.57143	27500	1103.361	84.07355	87.07458	14.181	52.73	394.2665	40.70806	90.50787	1.148001	14.22411	1.323	1	3	1	0.15	4719	117.7998	105.4833	54.90917	3.872024	201.2592	168.5045	0.9290125	12.14588	343.9326
8/7/2014 4:12:18 PM	16:12:18	0	A	4	59	84.28571	43086.86	55	78.57143	27500	1103.361	84.07355	87.07458	14.181	52.73	394.2665	40.70806	90.50787	1.148001	14.22411	1.323	1	3	1	0.15	4719	117.7998	105.4833	54.90917	3.872024	201.2592	168.5045	0.9290125	12.14588	343.9326
8/7/2014 4:12:28 PM	16:12:28	0	A	4	59	84.28571	43086.86	56	80	28000	1103.995	83.8532	87.09167	14.18063	53.08	394.1315	40.52715	90.50787	1.207001	14.22287	1.318001	1	3	1	0.15	4724	117.3999	105.4155	54.70777	3.857924	201.1842	167.8738	0.9272319	12.12261	343.2734
8/7/2014 4:12:28 PM	16:12:28	0	A	4	59	84.28571	43086.86	56	80	28000	1103.995	83.8532	87.09167	14.18063	53.08	394.1315	40.52715	90.50787	1.207001	14.22287	1.318001	1	3	1	0.15	4724	117.3999	105.4155	54.70777	3.857924	201.1842	167.8738	0.9272319	12.12261	343.2734
8/7/2014 4:12:38 PM	16:12:38	0	A	4	59	84.28571	43086.86	55	78.57143	27500	1105.305	83.89727	87.09167	14.18063	53.08	393.7263	40.7734	90.37565	1.190001	14.22215	1.323999	1	3	1	0.15	4721	118	106.4269	54.77311	3.862531	200.959	168.0573	0.9283577	12.13732	343.6902
8/7/2014 4:12:38 PM	16:12:38	0	A	4	59	84.28571	43086.86	55	78.57143	27500	1105.305	83.89727	87.09167	14.18063	53.08	393.7263	40.7734	90.37565	1.190001	14.22215	1.323999	1	3	1	0.15	4721	118	106.4269	54.77311	3.862531	200.959	168.0573	0.9283577	12.13732	343.6902
8/7/2014 4:12:48 PM	16:12:48	0	A	4	59	84.28571	43086.86	55	78.57143	27500	1104.291	83.94134	87.1088	14.18063	52.92999	393.7263	40.43667	90.37565	1.131001	14.22164	1.319	1	3	1	0.15	4721	117.6001	105.8875	54.71782	3.858632	200.959	167.9681	0.9269449	12.11885	343.1671
8/7/2014 4:12:48 PM	16:12:48	0	A	4	59	84.28571	43086.86	55	78.57143	27500	1104.291	83.94134	87.1088	14.18063	52.92999	393.7263	40.43667	90.37565	1.131001	14.22164	1.319	1	3	1	0.15	4721	117.6001	105.8875	54.71782	3.858632	200.959	167.9681	0.9269449	12.11885	343.1671
8/7/2014 4:12:58 PM	16:12:58	0	A	4	59	84.28571	43086.86	55	78.57143	27500	1109.615	83.98541	87.11737	14.181	52.84	393.4561	40.3261	90.24344	1.216	14.22415	1.302	1	3	1	0.15	4710	118	105.8203	54.38146	3.834812	200.809	167.2381	0.9218705	12.05251	341.2885
8/7/2014 4:12:58 PM	16:12:58	0	A	4	59	84.28571	43086.86	55	78.57143	27500	1109.615	83.98541	87.11737	14.181	52.84	393.4561	40.3261	90.24344	1.216	14.22415	1.302	1	3	1	0.15	4710	118	105.8203	54.38146	3.834812	200.809	167.2381	0.9218705	12.05251	341.2885
8/7/2014 4:13:08 PM	16:13:08	0	A	4	59	84.28571	43086.86	55	78.57143	27500	1109.234	84.1617	87.11737	14.181	52.84	393.8613	39.90898	90.24344	1.097	14.22484	1.27	1	3	1	0.15	4683	116.3999	103.9655	54.41665	3.837293	201.0341	167.4608	0.9105268	11.9042	337.0889
8/7/2014 4:13:08 PM	16:13:08	0	A	4	59	84.28571	43086.86	55	78.57143	27500	1109.234	84.1617	87.11737	14.181	52.84	393.8613	39.90898	90.24344	1.097	14.22484	1.27	1	3	1	0.15	4683	116.3999	103.9655	54.41665	3.837293	201.0341	167.4608	0.9105268	11.9042	337.0889
8/7/2014 4:13:18 PM	16:13:18	0	A	4	59	84.28571	43086.86	54	77.14286	27000	1110.544	83.89727	87.1088	14.18062	52.63	394.2665	40.10499	90.11123	1.117001	14.22323	1.285999	1	3	1	0.15	4655	117.7998	104.2302	54.4213	3.837723	201.2592	167.2604	0.9144947	11.95608	338.5579
8/7/2014 4:13:18 PM	16:13:18	0	A	4	59	84.28571	43086.86	54	77.14286	27000	1110.544	83.89727	87.1088	14.18062	52.63	394.2665	40.10499	90.11123	1.117001	14.22323	1.285999	1	3	1	0.15	4655	117.7998	104.2302	54.4213	3.837723	201.2592	167.2604	0.9144947	11.95608	338.5579
8/7/2014 4:13:28 PM	16:13:28	0	A	4	59	84.28571	43086.86	55	78.57143	27500	1114.178	83.8532	87.10025	14.181	52.925	393.7713	40.14016	90.24344	1.110001	14.22325	1.278	1	3	1	0.15	4659	116.3999	103.6098	54.22567	3.823825	200.959	166.7767	0.9086687	11.87991	336.401
8/7/2014 4:13:28 PM	16:13:28	0	A	4	59	84.28571	43086.86	55	78.57143	27500	1114.178	83.8532	87.10025	14.181	52.925	393.7713	40.14016	90.24344	1.110001	14.22325	1.278	1	3	1	0.15	4659	116.3999	103.6098	54.22567	3.823825	200.959	166.7767	0.9086687	11.87991	336.401
8/7/2014 4:13:38 PM	16:13:38	0	A	4	59	84.28571	43086.86	54	77.14286	27000	1111.431	84.51426	87.10025	14.181	52.925	394.3116	39.93913	90.28751	1.143	14.22354	1.302	1	3	1	0.15	4646	117.7998	104.5595	54.6227	3.851823	201.2842	168.2142	0.9193394	12.01942	340.3515
8/7/2014 4:13:38 PM	16:13:38	0	A	4	59	84.28571	43086.86	54	77.14286	27000	1111.431	84.51426	87.10025	14.181	52.925	394.3116	39.93913	90.28751	1.143	14.22354	1.302	1	3	1	0.15	4646	117.7998	104.5595	54.6227	3.851823	201.2842	168.2142	0.9193394	12.01942	340.3515
8/7/2014 4:13:48 PM	16:13:48	0	A	4	59	84.28571	43086.86	54	77.14286	27000	1115.741	84.6024	87.1088	14.181	53.36501	394.5817	40.09996	90.28751	1.065001	14.22028	1.271	1	3	1	0.15	4628	117.3999	103.6256	53.65778	3.783779	201.4343	166.0837	0.9106962	11.90642	337.1516
8/7/2014 4:13:48 PM	16:13:48	0	A	4	59	84.28571	43086.86	54	77.14286	27000	1115.741	84.6024	87.1088	14.181	53.36501	394.5817	40.09996	90.28751	1.065001	14.22028	1.271	1	3	1	0.15	4628	117.3999	103.6256	53.65778	3.783779	201.4343	166.0837	0.9106962	11.90642	337.1516
8/7/2014 4:13:58 PM	16:13:58	0	A	4	59	84.28571	43086.86	54	77.14286	27000	1119.924	84.73461	87.10025	14.18138	53.38499	395.3922	39.72806	90.1553	1.149	14.22409	1.278999	1	3	1	0.15	4591	117.7998	102.6222	53.67323	3.784769	201.8845	166.2226	0.9137906	11.94687	338.2972
8/7/2014 4:13:58 PM	16:13:58	0	A	4	59	84.28571	43086.86	54	77.14286	27000	1119.924	84.73461	87.10025	14.18138	53.38499	395.3922	39.72806	90.1553	1.149	14.22409	1.278999	1	3	1	0.15	4591	117.7998	102.6222	53.67323	3.784769	201.8845	166.2226	0.9137906	11.94687	338.2972
8/7/2014 4:14:08 PM	16:14:08	0	A	4	59	84.28571	43086.86	54	78.57143	27500	1110.164	84.6024	87.10025	14.18138	53.38499	395.122	40.28088	90.1553	1.188999	14.2233	1.313999	1	3	1	0.15	4629	118.3999	104.3529	54.3316	3.831194	201.7344	167.6211	0.9236687	12.07602	341.9543
8/7/2014 4:14:08 PM	16:14:08	0	A	4	59	84.28571	43086.86	54	78.57143	27500	1110.164	84.6024	87.10025	14.18138	53.38499	395.122	40.28088	90.1553	1.188999	14.2233	1.313999	1	3	1	0.15	4629	118.3999	104.3529	54.3316	3.831194	201.7344	167.6211	0.9236687	12.07602	341.9543
8/7/2014 4:14:18 PM	16:14:18	0	A	4	59	84.28571	43086.86	54	77.14286	27000	1111.6	84.77868	87.1088	14.18063	53.37	394.5367	40.08488	90.11123	1.086	14.21969	1.278	1	3	1	0.15	4644	118.3999	104.5145	54.15494	3.818939	201.4093	167.3677	0.9133124	11.94062	338.1202
8/7/2014 4:14:18 PM	16:14:18	0	A	4	59	84.28571	43086.86	54	77.14286	27000	1111.6	84.77868	87.1088	14.18063	53.37	394.5367	40.08488	90.11123	1.086	14.21969	1.278	1	3	1	0.15	4644	118.3999	104.5145	54.15494	3.818939	201.4093	167.3677	0.9133124	11.94062	338.1202
8/7/2014 4:14:28 PM	16:14:28	0	A	4	59	84.28571	43086.86	54	77.14286	27000	1115.361	84.55833	87.1088	14.18063	53.355	394.7618	39.80344	90.19937	1.091999	14.22114	1.281	1	3	1	0.15	4619	117.7998	104.1275	54.4012	3.836304	201.5343	167.7503	0.9154232	11.96822	338.9016
8/7/2014 4:14:28 PM	16:14:28	0	A	4	59	84.28571	43086.86	54	77.14286	27000	1115.361	84.55833	87.1088	14.18063	53.355	394.7618	39.80344	90.19937	1.091999	14.22114	1.281	1	3	1	0.15	4619	117.7998	104.1275	54.4012	3.836304	201.5343	167.7503	0.9154232	11.96822	338.9016
8/7/2014 4:14:38 PM	16:14:38	0	A	4	59	84.28571	43086.86	54	77.14286	27000	1116.248	84.9109	87.1088	14.18063	53.355	394.7618	40.0497	90.06715	1.129999	14.22197	1.278	1	3	1	0.15	4600	118	103.1736	54.56202	3.847645	201.5343	168.4015	0.911997	11.92342	337.6332
8/7/2014 4:14:38 PM	16:14:38	0	A	4	59	84.28571	43086.86	54	77.14286	27000	1116.248	84.9109	87.1088	14.18063	53.355	394.7618	40.0497	90.06715	1.129999	14.22197	1.278	1	3	1	0.15	4600	118	103.1736	54.56202	3.847645	201.5343	168.4015	0.911997	11.92342	337.6332
8/7/2014 4:14:48 PM	16:14:48	0	A	4	59	84.28571	43086.86	55	78.57143	27500	1109.572	84.6024	87.11737	14.18138	53.38	393.7713	39.89893	90.1553	1.146	14.22145	1.289	1	3	1	0.15	4628	117.6001	103.8016	54.46728	3.840761	201.1341	167.9296	0.9172484	11.99208	339.5774
8/7/2014 4:14:48 PM	16:14:48	0	A	4	59	84.28571	43086.86	55	78.57143	27500	1109.572	84.6024	87.11737	14.18138	53.38	393.7713	39.89893	90.1553	1.146	14.22145	1.289	1	3	1	0.15	4628	117.6001	103.8016	54.46728	3.840761	201.1341	167.9296	0.9172484	11.99208	339.5774
8/7/2014 4:14:58 PM	16:14:58	0	A	4	59	84.28571	43086.86	53	75.71429	26500	1121.614	87.51106	87.11737	14.18063	53.765	394.9419	39.25565	90.24344	1.122	14.2193	1.247999	1	3	1	0.15	4564	117.2002	102.0186	53.1498	3.748058	201.6344	167.2574	0.902447	11.79857	334.0977
8/7/2014 4:14:58 PM	16:14:58	0	A	4	59	84.28571	43086.86	53	75.71429	26500	1121.614	87.51106	87.11737	14.18063	53.765	394.9419	39.25565	90.24344	1.122	14.2193	1.247999	1	3	1	0.15	4564	117.2002	102.0186	53.1498	3.748058	201.6344	167.2574	0.902447	11.79857	334.0977
8/7/2014 4:15:08 PM	16:15:08	0	A	4	59	84.28571	43086.86	53	75.71429	26500	1124.149	89.45017	87.11737	14.18063	53.765	395.5272	39.01944	90.02309	1.098	14.21915	1.254	1	3	1	0.15	4513	117.3999	100.8786	53.17996	3.750184	201.9596	168.8884	0.9019066	11.7915	333.8976
8/7/2014 4:15:08 PM	16:15:08	0	A	4	59	84.28571	43086.86	53	75.71429	26500	1124.149	89.45017	87.11737	14.18063	53.765	395.5272	39.01944	90.02309	1.098	14.21915	1.254	1	3	1	0.15	4513	117.3999	100.8786	53.17996	3.750184	201.9596	168.8884	0.9019066	11.7915	333.8976
8/7/2014 4:15:18 PM	16:15:18	0	A	4	59	84.28571	43086.86	53	75.71429	26500	1122.501	89.53831	87.15155	14.181	53.595	395.6172	39.37123	90.11123	1.052	14.22339	1.256001	1	3	1	0.15	4496	117.2002	100.4986	53.47684	3.771021	202.0096	169.6472	0.9055548	11.8392	335.2483
8/7/2014 4:15:18 PM	16:15:18	0	A	4	59	84.28571	43086.86	53	75.71429	26500	1122.501	89.53831	87.15155	14.181	53.595	395.6172	39.37123	90.11123	1.052	14.22339	1.256001	1	3	1	0.15	4496	117.2002	100.4986	53.47684	3.771021	202.0096	169.6472	0.9055548	11.8392	335.2483
8/7/2014 4:15:28 PM	16:15:28	0	A	4	59	84.28571	43086.86	53	75.71429	26500	1123.262	89.18575	87.16864	14.18063	53.58501	395.122	38.92896	90.02309	1.18	14.21832	1.243	1	3	1	0.15	4498	117.2002	100.3723	52.83821	3.726085	201.7344	167.8771	0.9008015	11.77705	333.4885
8/7/2014 4:15:28 PM	16:15:28	0	A	4	59	84.28571	43086.86	53	75.71429	26500	1123.262	89.18575	87.16864	14.18063	53.58501	395.122	38.92896	90.02309	1.18	14.21832	1.243	1	3	1	0.15	4498	117.2002	100.3723	52.83821	3.726085	201.7344	167.8771	0.9008015	11.77705	333.4885
8/7/2014 4:15:38 PM	16:15:38	0	A	4	59	84.28571	43086.86	52	72.85714	25500	1138.276	90.68414	87.16864	14.18063	53.58501	395.4372	38.4264	90.06715	1.112	14.22023	1.224001	1	3	1	0.15	4425	116.6001	98.406	52.61205	3.710136	201.9095	168.5491	0.89394	11.68735	330.9483
8/7/2014 4:15:38 PM	16:15:38	0	A	4	59	84.28571	43086.86	52	72.85714	25500	1138.276	90.68414	87.16864	14.18063	53.58501	395.4372	38.4264	90.06715	1.112	14.22023	1.224001	1	3	1	0.15	4425	116.6001	98.406	52.61205	3.710136	201.9095	168.5491	0.89394	11.68735	330.9483
8/7/2014 4:15:48 PM	16:15:48	9	A	5	59	82.85715	42356.57	51	72.85714	25500	1142.23	92.84361	87.17719	14.18025	53.86501	396.1575	37.87358	90.37565	1.084999	14.21982	1.202	1	3	1	0.15	4375	117.2002	97.46083	52.08398	3.672995	202.3098	169.0323	0.8856353	11.57877	327.8738
8/7/2014 4:15:48 PM	16:15:48	9	A	5	59	82.85715	42356.57	51	72.85714	25500	1142.23	92.84361	87.17719	14.18025	53.86501	396.1575	37.87358	90.37565	1.084999	14.21982	1.202	1	3	1	0.15	4375	117.2002	97.46083	52.08398	3.672995	202.3098	169.0323	0.8856353	11.57877	327.8738
8/7/2014 4:15:58 PM	16:15:58	19	A	5	59	84.28571	43086.86	51	72.85714	25500	1146.183	94.91492	87.17719	14.181	53.80499	396.7878	38.13491	90.19937	1.091999	14.21811	1.204	1	3	1	0.15	4345	117.6001	97.28899	52.07467	3.672144	202.6599	170.6612	0.8901195	11.6374	329.5339
8/7/2014 4:15:58 PM	16:15:58	19	A	5	59	84.28571	43086.86	51	72.85714	25500	1146.183	94.91492	87.17719	14.181	53.80499	396.7878	38.13491	90.19937	1.091999	14.21811	1.204	1	3	1	0.15	4345	117.6001	97.28899	52.07467	3.672144	202.6599	170.6612	0.8901195	11.6374	329.5339
8/7/2014 4:16:08 PM	16:16:08	29	A	5	59	84.28571	43086.86	50	71.42857	25000	1152.305	97.51508	87.17719	14.181	53.80499	397.2381	38.07461	90.50787	1.025	14.21916	1.164	1	3	1	0.15	4310	118.6001	97.16164	52.18023	3.679587	202.9101	172.9954	0.8714287	11.39304	322.6143
8/7/2014 4:16:08 PM	16:16:08	29	A	5	59	84.28571	43086.86	50	71.42857	25000	1152.305	97.51508	87.17719	14.181	53.80499	397.2381	38.07461	90.50787	1.025	14.21916	1.164	1	3	1	0.15	4310	118.6001	97.16164	52.18023	3.679587	202.9101	172.9954	0.8714287	11.39304	322.6143
8/7/2014 4:16:18 PM	16:16:18	39	A	5	59	84.28571	43086.86	50	71.42857	25000	1153.963	100.4678	87.17719	14.18063	54.175	397.5082	37.74291	90.50787	1.049999	14.21872	1.202	1	3	1	0.15	4281	116.7998	95.36681	52.33062	3.690289	203.0601	175.7253	0.8854941	11.57693	327.8215
8/7/2014 4:16:18 PM	16:16:18	39	A	5	59	84.28571	43086.86	50	71.42857	25000	1153.963	100.4678	87.17719	14.18063	54.175	397.5082	37.74291	90.50787	1.049999	14.21872	1.202	1	3	1	0.15	4281	116.7998	95.36681	52.33062	3.690289	203.0601	175.7253	0.8854941	11.57693	327.8215
8/7/2014 4:16:28 PM	16:16:28	49	A	5	59	84.28571	43086.86	51	72.85714	25500	1141.762	101.3052	87.17719	14.18063	54.175	397.148	38.57214	90.81635	1.08	14.21807	1.233	1	3	1	0.15	4311	117.7998	96.52769	52.52662	3.704112	202.86	176.8681	0.8965114	11.72097	331.9003
8/7/2014 4:16:28 PM	16:16:28	49	A	5	59	84.28571	43086.86	51	72.85714	25500	1141.762	101.3052	87.17719	14.18063	54.175	397.148	38.57214	90.81635	1.08	14.21807	1.233	1	3	1	0.15	4311	117.7998	96.52769	52.52662	3.704112	202.86	176.8681	0.8965114	11.72097	331.9003
8/7/2014 4:16:38 PM	16:16:38	59	A	5	59	84.28571	43086.86	51	72.85714	25500	1138.063	96.94218	87.17719	14.18025	54.355	396.1575	38.35101	90.9045	1.096001	14.21971	1.240999	1	3	1	0.15	4365	117.6001	97.90278	52.57649	3.707727	202.3098	173.4903	0.9015768	11.78719	333.7755
8/7/2014 4:16:38 PM	16:16:38	59	A	5	59	84.28571	43086.86	51	72.85714	25500	1138.063	96.94218	87.17719	14.18025	54.355	396.1575	38.35101	90.9045	1.096001	14.21971	1.240999	1	3	1	0.15	4365	117.6001	97.90278	52.57649	3.707727	202.3098	173.4903	0.9015768	11.78719	333.7755
8/7/2014 4:16:48 PM	16:16:48	69	A	5	58	84.28571	43086.86	51	72.85714	25500	1144.1	95.31156	87.21997	14.18063	54.92	395.7523	37.76302	91.03671	1.070999	14.2202	1.191	1	3	1	0.15	4351	118.7998	98.4172	52.01902	3.668317	202.0846	170.8486	0.8873233	11.60084	328.4987
8/7/2014 4:16:48 PM	16:16:48	69	A	5	58	84.28571	43086.86	51	72.85714	25500	1144.1	95.31156	87.21997	14.18063	54.92	395.7523	37.76302	91.03671	1.070999	14.2202	1.191	1	3	1	0.15	4351	118.7998	98.4172	52.01902	3.668317	202.0846	170.8486	0.8873233	11.60084	328.4987
8/7/2014 4:16:58 PM	16:16:58	79	A	5	59	84.28571	43086.86	50	71.42857	25000	1153.921	97.25067	87.24561	14.17987	54.88	396.6528	37.91881	91.12485	1.016001	14.22046	1.205	1	3	1	0.15	4297	118	96.70518	51.85745	3.657116	202.5849	172.0179	0.8861424	11.5854	328.0615
8/7/2014 4:16:58 PM	16:16:58	79	A	5	59	84.28571	43086.86	50	71.42857	25000	1153.921	97.25067	87.24561	14.17987	54.88	396.6528	37.91881	91.12485	1.016001	14.22046	1.205	1	3	1	0.15	4297	118	96.70518	51.85745	3.657116	202.5849	172.0179	0.8861424	11.5854	328.0615
8/7/2014 4:17:08 PM	16:17:08	89	A	5	59	84.28571	43086.86	50	71.42857	25000	1150.477	99.32199	87.24561	14.17987	54.88	396.6078	37.77306	91.213	1.054001	14.22216	1.216999	1	3	1	0.15	4290	117.3999	95.89396	52.06853	3.672003	202.5599	174.1831	0.8905197	11.64263	329.682
8/7/2014 4:17:08 PM	16:17:08	89	A	5	59	84.28571	43086.86	50	71.42857	25000	1150.477	99.32199	87.24561	14.17987	54.88	396.6078	37.77306	91.213	1.054001	14.22216	1.216999	1	3	1	0.15	4290	117.3999	95.89396	52.06853	3.672003	202.5599	174.1831	0.8905197	11.64263	329.682
8/7/2014 4:17:18 PM	16:17:18	99	A	5	59	84.28571	43086.86	50	71.42857	25000	1147.544	99.41013	87.28836	14.18063	54.985	396.2926	38.07461	91.43334	1.049	14.22125	1.198999	1	3	1	0.15	4302	118	96.81771	52.15471	3.677885	202.3848	174.4546	0.8870233	11.59692	328.3877
8/7/2014 4:17:18 PM	16:17:18	99	A	5	59	84.28571	43086.86	50	71.42857	25000	1147.544	99.41013	87.28836	14.18063	54.985	396.2926	38.07461	91.43334	1.049	14.22125	1.198999	1	3	1	0.15	4302	118	96.81771	52.15471	3.677885	202.3848	174.4546	0.8870233	11.59692	328.3877
8/7/2014 4:17:28 PM	16:17:28	109	A	5	59	84.28571	43086.86	51	72.85714	25500	1138.021	96.19298	87.33963	14.17987	54.765	394.9419	38.26559	91.56557	1.070999	14.21865	1.229	1	3	1	0.15	4376	118.2002	98.64949	52.33489	3.690787	201.6344	172.3164	0.887937	11.60887	328.7259
8/7/2014 4:17:28 PM	16:17:28	109	A	5	59	84.28571	43086.86	51	72.85714	25500	1138.021	96.19298	87.33963	14.17987	54.765	394.9419	38.26559	91.56557	1.070999	14.21865	1.229	1	3	1	0.15	4376	118.2002	98.64949	52.33489	3.690787	201.6344	172.3164	0.887937	11.60887	328.7259
8/7/2014 4:17:38 PM	16:17:38	119	A	5	59	84.28571	43086.86	51	72.85714	25500	1145.035	96.32519	87.33963	14.17987	54.765	395.077	38.54199	91.56557	1.139	14.22035	1.247999	1	3	1	0.15	4330	117.7998	97.11776	52.69172	3.715951	201.7094	173.2726	0.8988841	11.75199	332.7787
8/7/2014 4:17:38 PM	16:17:38	119	A	5	59	84.28571	43086.86	51	72.85714	25500	1145.035	96.32519	87.33963	14.17987	54.765	395.077	38.54199	91.56557	1.139	14.22035	1.247999	1	3	1	0.15	4330	117.7998	97.11776	52.69172	3.715951	201.7094	173.2726	0.8988841	11.75199	332.7787
8/7/2014 4:17:48 PM	16:17:48	129	A	5	59	84.28571	43086.86	51	72.85714	25500	1138.148	92.7114	87.39096	14.18025	54.66499	394.4016	38.33092	91.56557	1.061001	14.22044	1.242001	1	3	1	0.15	4349	116.7998	96.71587	52.44584	3.698513	201.3342	169.7861	0.8992384	11.75662	332.9098
8/7/2014 4:17:48 PM	16:17:48	129	A	5	59	84.28571	43086.86	51	72.85714	25500	1138.148	92.7114	87.39096	14.18025	54.66499	394.4016	38.33092	91.56557	1.061001	14.22044	1.242001	1	3	1	0.15	4349	116.7998	96.71587	52.44584	3.698513	201.3342	169.7861	0.8992384	11.75662	332.9098
8/7/2014 4:17:58 PM	16:17:58	139	A	5	59	84.28571	43086.86	50	71.42857	25000	1144.44	92.66733	87.39096	14.18025	54.66499	394.7618	37.94896	91.78591	1.118	14.21809	1.214001	1	3	1	0.15	4328	117.6001	97.23788	51.89301	3.659527	201.5343	168.4359	0.8895752	11.63028	329.3324
8/7/2014 4:17:58 PM	16:17:58	139	A	5	59	84.28571	43086.86	50	71.42857	25000	1144.44	92.66733	87.39096	14.18025	54.66499	394.7618	37.94896	91.78591	1.118	14.21809	1.214001	1	3	1	0.15	4328	117.6001	97.23788	51.89301	3.659527	201.5343	168.4359	0.8895752	11.63028	329.3324
8/7/2014 4:18:08 PM	16:18:08	149	A	5	59	84.28571	43086.86	50	71.42857	25000	1149.414	95.35563	87.44223	14.18063	54.395	395.5722	38.07461	91.6537	1.021999	14.2198	1.223	1	3	1	0.15	4296	117	95.86472	52.42107	3.696669	201.9846	171.8441	0.8922585	11.66536	330.3257
8/7/2014 4:18:08 PM	16:18:08	149	A	5	59	84.28571	43086.86	50	71.42857	25000	1149.414	95.35563	87.44223	14.18063	54.395	395.5722	38.07461	91.6537	1.021999	14.2198	1.223	1	3	1	0.15	4296	117	95.86472	52.42107	3.696669	201.9846	171.8441	0.8922585	11.66536	330.3257
8/7/2014 4:18:18 PM	16:18:18	159	A	5	59	84.28571	43086.86	50	71.42857	25000	1152.646	96.89811	87.48499	14.18025	54.33501	395.257	37.64742	91.60963	1.023001	14.21802	1.208	1	3	1	0.15	4271	118.2002	95.95724	51.89804	3.659882	201.8095	171.8304	0.8871458	11.59852	328.433
8/7/2014 4:18:18 PM	16:18:18	159	A	5	59	84.28571	43086.86	50	71.42857	25000	1152.646	96.89811	87.48499	14.18025	54.33501	395.257	37.64742	91.60963	1.023001	14.21802	1.208	1	3	1	0.15	4271	118.2002	95.95724	51.89804	3.659882	201.8095	171.8304	0.8871458	11.59852	328.433
8/7/2014 4:18:28 PM	16:18:28	169	A	5	59	84.28571	43086.86	51	71.42857	25000	1151.243	97.29474	87.48499	14.18025	54.33501	394.8068	37.83337	91.82998	1.000999	14.2182	1.219999	1	3	1	0.15	4285	117.3999	95.78219	51.79752	3.652793	201.5594	171.9053	0.8909792	11.64864	329.8521
8/7/2014 4:18:28 PM	16:18:28	169	A	5	59	84.28571	43086.86	51	71.42857	25000	1151.243	97.29474	87.48499	14.18025	54.33501	394.8068	37.83337	91.82998	1.000999	14.2182	1.219999	1	3	1	0.15	4285	117.3999	95.78219	51.79752	3.652793	201.5594	171.9053	0.8909792	11.64864	329.8521
8/7/2014 4:18:38 PM	16:18:38	179	A	5	59	84.28571	43086.86	49	71.42857	25000	1157.109	99.58641	87.55341	14.17988	54.155	395.4372	37.59214	91.91813	1.000999	14.21688	1.190001	1	3	1	0.15	4243	117.3999	94.84337	51.82227	3.654634	201.8345	173.7998	0.8798929	11.5037	325.7479
8/7/2014 4:18:38 PM	16:18:38	179	A	5	59	84.28571	43086.86	49	71.42857	25000	1157.109	99.58641	87.55341	14.17988	54.155	395.4372	37.59214	91.91813	1.000999	14.21688	1.190001	1	3	1	0.15	4243	117.3999	94.84337	51.82227	3.654634	201.8345	173.7998	0.8798929	11.5037	325.7479
8/7/2014 4:18:48 PM	16:18:48	189	A	5	59	84.28571	43086.86	50	71.42857	25000	1147.586	98.39651	87.61325	14.18025	53.64999	395.257	38.54199	91.87405	1.107	14.21693	1.238001	1	3	1	0.15	4267	117.6001	95.54249	52.4408	3.698158	201.8095	174.3327	0.901051	11.78032	333.5808
8/7/2014 4:18:48 PM	16:18:48	189	A	5	59	84.28571	43086.86	50	71.42857	25000	1147.586	98.39651	87.61325	14.18025	53.64999	395.257	38.54199	91.87405	1.107	14.21693	1.238001	1	3	1	0.15	4267	117.6001	95.54249	52.4408	3.698158	201.8095	174.3327	0.901051	11.78032	333.5808
8/7/2014 4:18:58 PM	16:18:58	199	A	5	59	84.28571	43086.86	51	72.85714	25500	1138.148	94.38609	87.61325	14.18025	53.64999	393.7713	38.41635	91.87405	1.046	14.21896	1.233999	1	3	1	0.15	4347	116.6001	96.67139	52.37044	3.693196	200.9841	170.9497	0.8960484	11.71491	331.7289
8/7/2014 4:18:58 PM	16:18:58	199	A	5	59	84.28571	43086.86	51	72.85714	25500	1138.148	94.38609	87.61325	14.18025	53.64999	393.7713	38.41635	91.87405	1.046	14.21896	1.233999	1	3	1	0.15	4347	116.6001	96.67139	52.37044	3.693196	200.9841	170.9497	0.8960484	11.71491	331.7289
8/7/2014 4:19:08 PM	16:19:08	209	A	5	59	84.28571	43086.86	51	72.85714	25500	1137.255	91.78591	87.68164	14.18025	53.895	392.9609	38.07964	91.87405	1.087	14.21794	1.228001	1	3	1	0.15	4351	117.3999	97.42333	52.79261	3.722967	200.5338	169.8624	0.8920286	11.66236	330.2407
8/7/2014 4:19:08 PM	16:19:08	209	A	5	59	84.28571	43086.86	51	72.85714	25500	1137.255	91.78591	87.68164	14.18025	53.895	392.9609	38.07964	91.87405	1.087	14.21794	1.228001	1	3	1	0.15	4351	117.3999	97.42333	52.79261	3.722967	200.5338	169.8624	0.8920286	11.66236	330.2407
8/7/2014 4:19:18 PM	16:19:18	219	A	5	59	84.28571	43086.86	51	72.85714	25500	1138.828	94.95899	87.70728	14.18062	53.83501	393.0509	37.94896	91.9622	1.084	14.22038	1.233	1	3	1	0.15	4351	117	96.76034	52.22005	3.682493	200.5838	171.047	0.8960372	11.71477	331.7247
8/7/2014 4:19:18 PM	16:19:18	219	A	5	59	84.28571	43086.86	51	72.85714	25500	1138.828	94.95899	87.70728	14.18062	53.83501	393.0509	37.94896	91.9622	1.084	14.22038	1.233	1	3	1	0.15	4351	117	96.76034	52.22005	3.682493	200.5838	171.047	0.8960372	11.71477	331.7247
8/7/2014 4:19:28 PM	16:19:28	229	A	5	59	84.28571	43086.86	50	71.42857	25000	1151.115	97.60324	87.78424	14.18025	53.33501	393.6812	37.52681	91.78591	1.049999	14.21664	1.204	1	3	1	0.15	4289	117.3999	95.70851	51.77741	3.651375	200.934	172.1034	0.8814586	11.52417	326.3275
8/7/2014 4:19:28 PM	16:19:28	229	A	5	59	84.28571	43086.86	50	71.42857	25000	1151.115	97.60324	87.78424	14.18025	53.33501	393.6812	37.52681	91.78591	1.049999	14.21664	1.204	1	3	1	0.15	4289	117.3999	95.70851	51.77741	3.651375	200.934	172.1034	0.8814586	11.52417	326.3275
8/7/2014 4:19:38 PM	16:19:38	239	A	5	59	84.28571	43086.86	50	71.42857	25000	1147.671	99.93897	87.78424	14.18025	53.33501	393.7263	37.90374	91.69777	1.018	14.21816	1.191	1	3	1	0.15	4270	117.3999	95.4469	51.91813	3.661299	200.959	174.3102	0.8804731	11.51128	325.9626
8/7/2014 4:19:38 PM	16:19:38	239	A	5	59	84.28571	43086.86	50	71.42857	25000	1147.671	99.93897	87.78424	14.18025	53.33501	393.7263	37.90374	91.69777	1.018	14.21816	1.191	1	3	1	0.15	4270	117.3999	95.4469	51.91813	3.661299	200.959	174.3102	0.8804731	11.51128	325.9626
8/7/2014 4:19:48 PM	16:19:48	249	A	5	59	84.28571	43086.86	50	71.42857	25000	1149.117	100.2034	87.81845	14.181	53.265	394.0864	37.66753	91.91813	1.07	14.21808	1.225	1	3	1	0.15	4281	117.7998	96.01874	51.44646	3.627845	201.1591	173.3701	0.8927144	11.67132	330.4946
8/7/2014 4:19:48 PM	16:19:48	249	A	5	59	84.28571	43086.86	50	71.42857	25000	1149.117	100.2034	87.81845	14.181	53.265	394.0864	37.66753	91.91813	1.07	14.21808	1.225	1	3	1	0.15	4281	117.7998	96.01874	51.44646	3.627845	201.1591	173.3701	0.8927144	11.67132	330.4946
8/7/2014 4:19:58 PM	16:19:58	259	A	5	59	84.28571	43086.86	50	71.42857	25000	1137	99.4542	87.81845	14.181	53.265	394.0864	38.41132	92.05034	1.132999	14.22205	1.247999	1	3	1	0.15	4317	117.6001	96.66203	52.80843	3.723886	201.1591	176.0538	0.9010592	11.78042	333.5839
8/7/2014 4:19:58 PM	16:19:58	259	A	5	59	84.28571	43086.86	50	71.42857	25000	1137	99.4542	87.81845	14.181	53.265	394.0864	38.41132	92.05034	1.132999	14.22205	1.247999	1	3	1	0.15	4317	117.6001	96.66203	52.80843	3.723886	201.1591	176.0538	0.9010592	11.78042	333.5839
8/7/2014 4:20:08 PM	16:20:08	269	A	5	59	84.28571	43086.86	51	72.85714	25500	1139.849	96.28111	87.90396	14.17987	53.345	393.5462	38.11983	92.18254	1.118999	14.2197	1.229	1	3	1	0.15	4338	117.7998	97.13225	52.4957	3.702128	200.859	172.7707	0.8961795	11.71663	331.7774
8/7/2014 4:20:08 PM	16:20:08	269	A	5	59	84.28571	43086.86	51	72.85714	25500	1139.849	96.28111	87.90396	14.17987	53.345	393.5462	38.11983	92.18254	1.118999	14.2197	1.229	1	3	1	0.15	4338	117.7998	97.13225	52.4957	3.702128	200.859	172.7707	0.8961795	11.71663	331.7774
8/7/2014 4:20:18 PM	16:20:18	279	A	5	59	82.85715	42356.57	51	72.85714	25500	1133.148	94.47422	87.97235	14.18025	53.53999	392.9609	38.49676	92.13847	1.139	14.2191	1.254	1	3	1	0.15	4363	118	98.19053	52.7122	3.717297	200.5338	171.8316	0.9030354	11.80626	334.3155
8/7/2014 4:20:18 PM	16:20:18	279	A	5	59	82.85715	42356.57	51	72.85714	25500	1133.148	94.47422	87.97235	14.18025	53.53999	392.9609	38.49676	92.13847	1.139	14.2191	1.254	1	3	1	0.15	4363	118	98.19053	52.7122	3.717297	200.5338	171.8316	0.9030354	11.80626	334.3155
8/7/2014 4:20:28 PM	16:20:28	289	A	5	59	84.28571	43086.86	51	72.85714	25500	1127.318	92.53511	88.04929	14.1795	53.75	392.7357	38.76815	92.31477	1.135	14.21835	1.246	1	3	1	0.15	4393	118.3999	99.20017	52.81698	3.724883	200.4088	170.5283	0.8999957	11.76652	333.1902
8/7/2014 4:20:28 PM	16:20:28	289	A	5	59	84.28571	43086.86	51	72.85714	25500	1127.318	92.53511	88.04929	14.1795	53.75	392.7357	38.76815	92.31477	1.135	14.21835	1.246	1	3	1	0.15	4393	118.3999	99.20017	52.81698	3.724883	200.4088	170.5283	0.8999957	11.76652	333.1902
8/7/2014 4:20:38 PM	16:20:38	299	A	5	58	82.85715	42356.57	52	74.28571	26000	1129.895	90.77229	88.04929	14.1795	53.75	391.7452	38.26559	92.27069	1.135	14.22233	1.229	1	3	1	0.15	4405	117.2002	98.63245	52.53555	3.705035	199.8585	168.4495	0.8940207	11.6884	330.9781
8/7/2014 4:20:38 PM	16:20:38	299	A	5	58	82.85715	42356.57	52	74.28571	26000	1129.895	90.77229	88.04929	14.1795	53.75	391.7452	38.26559	92.27069	1.135	14.22233	1.229	1	3	1	0.15	4405	117.2002	98.63245	52.53555	3.705035	199.8585	168.4495	0.8940207	11.6884	330.9781
8/7/2014 4:20:48 PM	16:20:48	309	A	5	59	84.28571	43086.86	51	72.85714	25500	1139.466	91.91813	88.10916	14.18025	53.205	392.7808	38.22537	92.22661	1.042	14.22232	1.236	1	3	1	0.15	4355	117.3999	97.67849	52.14932	3.677603	200.4338	168.4469	0.8944368	11.69384	331.1322
8/7/2014 4:20:48 PM	16:20:48	309	A	5	59	84.28571	43086.86	51	72.85714	25500	1139.466	91.91813	88.10916	14.18025	53.205	392.7808	38.22537	92.22661	1.042	14.22232	1.236	1	3	1	0.15	4355	117.3999	97.67849	52.14932	3.677603	200.4338	168.4469	0.8944368	11.69384	331.1322
8/7/2014 4:20:58 PM	16:20:58	319	A	5	59	84.28571	43086.86	51	74.28571	26000	1129.937	91.60963	88.10916	14.18025	53.205	392.6907	38.54199	92.27069	1.183001	14.22044	1.257	1	3	1	0.15	4397	117.6001	98.45332	52.76246	3.720841	200.3837	169.6498	0.9062157	11.84784	335.4929
8/7/2014 4:20:58 PM	16:20:58	319	A	5	59	84.28571	43086.86	51	74.28571	26000	1129.937	91.60963	88.10916	14.18025	53.205	392.6907	38.54199	92.27069	1.183001	14.22044	1.257	1	3	1	0.15	4397	117.6001	98.45332	52.76246	3.720841	200.3837	169.6498	0.9062157	11.84784	335.4929
8/7/2014 4:21:08 PM	16:21:08	329	A	5	59	82.85715	42356.57	52	74.28571	26000	1130.867	90.50787	88.19464	14.1795	53.31	392.4656	38.71286	92.31477	1.096001	14.21766	1.254999	1	3	1	0.15	4411	117.2002	98.59866	52.96273	3.735162	200.2587	169.2414	0.9032164	11.80863	334.3825
8/7/2014 4:21:08 PM	16:21:08	329	A	5	59	82.85715	42356.57	52	74.28571	26000	1130.867	90.50787	88.19464	14.1795	53.31	392.4656	38.71286	92.31477	1.096001	14.21766	1.254999	1	3	1	0.15	4411	117.2002	98.59866	52.96273	3.735162	200.2587	169.2414	0.9032164	11.80863	334.3825
8/7/2014 4:21:18 PM	16:21:18	339	A	5	59	84.28571	43086.86	52	74.28571	26000	1128.501	89.36202	88.26303	14.17987	52.74001	391.7002	38.46158	92.35883	1.17	14.22216	1.243999	1	3	1	0.15	4424	117.7998	98.88924	52.38515	3.694331	199.8335	166.9606	0.8993815	11.75849	332.9628
8/7/2014 4:21:18 PM	16:21:18	339	A	5	59	84.28571	43086.86	52	74.28571	26000	1128.501	89.36202	88.26303	14.17987	52.74001	391.7002	38.46158	92.35883	1.17	14.22216	1.243999	1	3	1	0.15	4424	117.7998	98.88924	52.38515	3.694331	199.8335	166.9606	0.8993815	11.75849	332.9628
8/7/2014 4:21:28 PM	16:21:28	349	A	5	59	84.28571	43086.86	51	72.85714	25500	1145.418	91.78591	88.26303	14.17987	52.74001	392.4656	38.00927	92.31477	1.115	14.21692	1.216	1	3	1	0.15	4336	117.2002	96.75732	51.57601	3.637269	200.2587	166.9772	0.8879918	11.60958	328.7462
8/7/2014 4:21:28 PM	16:21:28	349	A	5	59	84.28571	43086.86	51	72.85714	25500	1145.418	91.78591	88.26303	14.17987	52.74001	392.4656	38.00927	92.31477	1.115	14.21692	1.216	1	3	1	0.15	4336	117.2002	96.75732	51.57601	3.637269	200.2587	166.9772	0.8879918	11.60958	328.7462
8/7/2014 4:21:38 PM	16:21:38	359	A	5	58	84.28571	43086.86	51	72.85714	25500	1132.768	94.73865	88.32288	14.18025	52.795	393.321	38.65256	92.09441	1.094999	14.21993	1.252001	1	3	1	0.15	4347	117.7998	97.16807	52.68204	3.71517	200.7339	171.9726	0.9023942	11.79788	334.0782
8/7/2014 4:21:38 PM	16:21:38	359	A	5	58	84.28571	43086.86	51	72.85714	25500	1132.768	94.73865	88.32288	14.18025	52.795	393.321	38.65256	92.09441	1.094999	14.21993	1.252001	1	3	1	0.15	4347	117.7998	97.16807	52.68204	3.71517	200.7339	171.9726	0.9023942	11.79788	334.0782
8/7/2014 4:21:48 PM	16:21:48	369	A	5	59	84.28571	43086.86	52	74.28571	26000	1118.952	92.66733	88.42551	14.17987	53.405	392.2855	39.00436	92.13847	1.132999	14.22125	1.271	1	3	1	0.15	4440	117.6001	99.58495	53.19931	3.751748	200.1586	171.5302	0.9092042	11.88691	336.5993
8/7/2014 4:21:48 PM	16:21:48	369	A	5	59	84.28571	43086.86	52	74.28571	26000	1118.952	92.66733	88.42551	14.17987	53.405	392.2855	39.00436	92.13847	1.132999	14.22125	1.271	1	3	1	0.15	4440	117.6001	99.58495	53.19931	3.751748	200.1586	171.5302	0.9092042	11.88691	336.5993
8/7/2014 4:21:58 PM	16:21:58	379	A	5	59	84.28571	43086.86	52	75.71429	26500	1113.164	90.50787	88.47681	14.17987	53.44	390.4395	38.82846	92.18254	1.118	14.22227	1.264	1	3	1	0.15	4490	117.7998	100.7064	53.15408	3.748558	199.1331	169.686	0.9063439	11.84952	335.5404
8/7/2014 4:21:58 PM	16:21:58	379	A	5	59	84.28571	43086.86	52	75.71429	26500	1113.164	90.50787	88.47681	14.17987	53.44	390.4395	38.82846	92.18254	1.118	14.22227	1.264	1	3	1	0.15	4490	117.7998	100.7064	53.15408	3.748558	199.1331	169.686	0.9063439	11.84952	335.5404
8/7/2014 4:22:08 PM	16:22:08	389	A	5	58	82.85715	42356.57	52	74.28571	26000	1121.445	90.46379	88.47681	14.17987	53.44	390.4846	38.80332	92.22661	1.114	14.22089	1.26	1	3	1	0.15	4445	117.3999	99.35865	52.84751	3.726938	199.1581	168.9324	0.9051703	11.83417	335.1059
8/7/2014 4:22:08 PM	16:22:08	389	A	5	58	82.85715	42356.57	52	74.28571	26000	1121.445	90.46379	88.47681	14.17987	53.44	390.4846	38.80332	92.22661	1.114	14.22089	1.26	1	3	1	0.15	4445	117.3999	99.35865	52.84751	3.726938	199.1581	168.9324	0.9051703	11.83417	335.1059
8/7/2014 4:22:18 PM	16:22:18	399	A	5	58	82.85715	42356.57	52	74.28571	26000	1120.98	89.75867	88.5452	14.18025	52.69501	390.2144	38.39123	92.22661	1.127001	14.2217	1.268999	1	3	1	0.15	4423	117.3999	99.03548	52.82777	3.725447	199.008	168.3163	0.9066513	11.85353	335.6542
8/7/2014 4:22:18 PM	16:22:18	399	A	5	58	82.85715	42356.57	52	74.28571	26000	1120.98	89.75867	88.5452	14.18025	52.69501	390.2144	38.39123	92.22661	1.127001	14.2217	1.268999	1	3	1	0.15	4423	117.3999	99.03548	52.82777	3.725447	199.008	168.3163	0.9066513	11.85353	335.6542
8/7/2014 4:22:28 PM	16:22:28	409	A	5	59	84.28571	43086.86	51	72.85714	25500	1129.641	88.3484	88.5452	14.18025	52.69501	391.0248	38.59728	92.22661	1.128	14.22055	1.257999	1	3	1	0.15	4393	117.2002	97.86182	53.03383	3.739978	199.4583	167.6644	0.9044664	11.82497	334.8453
8/7/2014 4:22:28 PM	16:22:28	409	A	5	59	84.28571	43086.86	51	72.85714	25500	1129.641	88.3484	88.5452	14.18025	52.69501	391.0248	38.59728	92.22661	1.128	14.22055	1.257999	1	3	1	0.15	4393	117.2002	97.86182	53.03383	3.739978	199.4583	167.6644	0.9044664	11.82497	334.8453
8/7/2014 4:22:38 PM	16:22:38	419	A	5	58	82.85715	42356.57	52	74.28571	26000	1117.727	88.56876	88.59647	14.18025	52.625	390.9348	38.95913	92.27069	1.139999	14.22055	1.264999	1	3	1	0.15	4436	117.3999	99.15748	53.00871	3.738207	199.4082	167.783	0.9069225	11.85708	335.7546
8/7/2014 4:22:38 PM	16:22:38	419	A	5	58	82.85715	42356.57	52	74.28571	26000	1117.727	88.56876	88.59647	14.18025	52.625	390.9348	38.95913	92.27069	1.139999	14.22055	1.264999	1	3	1	0.15	4436	117.3999	99.15748	53.00871	3.738207	199.4082	167.783	0.9069225	11.85708	335.7546
8/7/2014 4:22:48 PM	16:22:48	429	A	5	59	84.28571	43086.86	53	75.71429	26500	1112.488	88.43655	88.68201	14.18025	53.10001	389.6292	39.06467	92.18254	1.17	14.21845	1.268	1	3	1	0.15	4491	117.6001	100.7288	53.31026	3.759472	198.6829	168.3788	0.9076408	11.86647	336.0205
8/7/2014 4:22:48 PM	16:22:48	429	A	5	59	84.28571	43086.86	53	75.71429	26500	1112.488	88.43655	88.68201	14.18025	53.10001	389.6292	39.06467	92.18254	1.17	14.21845	1.268	1	3	1	0.15	4491	117.6001	100.7288	53.31026	3.759472	198.6829	168.3788	0.9076408	11.86647	336.0205
8/7/2014 4:22:58 PM	16:22:58	439	A	5	59	84.28571	43086.86	52	74.28571	26000	1124.276	89.31796	88.75897	14.18025	52.33	390.4846	38.62743	92.09441	1.094999	14.22192	1.236	1	3	1	0.15	4439	117.7998	99.39374	52.45588	3.699221	199.1581	167.0887	0.8966787	11.72315	331.9622
8/7/2014 4:22:58 PM	16:22:58	439	A	5	59	84.28571	43086.86	52	74.28571	26000	1124.276	89.31796	88.75897	14.18025	52.33	390.4846	38.62743	92.09441	1.094999	14.22192	1.236	1	3	1	0.15	4439	117.7998	99.39374	52.45588	3.699221	199.1581	167.0887	0.8966787	11.72315	331.9622
8/7/2014 4:23:08 PM	16:23:08	449	A	5	58	82.85715	42356.57	52	74.28571	26000	1117.854	88.92133	88.75897	14.18025	52.33	390.3045	38.97923	92.18254	1.138	14.22203	1.266001	1	3	1	0.15	4446	117	99.04248	53.12429	3.746358	199.058	168.7619	0.9074002	11.86333	335.9314
8/7/2014 4:23:08 PM	16:23:08	449	A	5	58	82.85715	42356.57	52	74.28571	26000	1117.854	88.92133	88.75897	14.18025	52.33	390.3045	38.97923	92.18254	1.138	14.22203	1.266001	1	3	1	0.15	4446	117	99.04248	53.12429	3.746358	199.058	168.7619	0.9074002	11.86333	335.9314
8/7/2014 4:23:18 PM	16:23:18	459	A	5	58	82.85715	42356.57	53	75.71429	26500	1115.741	88.70097	88.81024	14.18025	51.73	389.9443	38.69276	92.22661	1.129	14.22087	1.291	1	3	1	0.15	4480	117.2002	99.97066	53.00368	3.737852	198.858	167.8776	0.9162252	11.9787	339.1986
8/7/2014 4:23:18 PM	16:23:18	459	A	5	58	82.85715	42356.57	53	75.71429	26500	1115.741	88.70097	88.81024	14.18025	51.73	389.9443	38.69276	92.22661	1.129	14.22087	1.291	1	3	1	0.15	4480	117.2002	99.97066	53.00368	3.737852	198.858	167.8776	0.9162252	11.9787	339.1986
8/7/2014 4:23:28 PM	16:23:28	469	A	5	58	84.28571	43086.86	53	75.71429	26500	1110.967	88.74504	88.81024	14.18025	51.73	389.6742	39.10487	92.22661	1.208	14.22206	1.292999	1	3	1	0.15	4516	117.3999	101.1179	53.33537	3.761243	198.7079	168.6857	0.9116346	11.91869	337.499
8/7/2014 4:23:28 PM	16:23:28	469	A	5	58	84.28571	43086.86	53	75.71429	26500	1110.967	88.74504	88.81024	14.18025	51.73	389.6742	39.10487	92.22661	1.208	14.22206	1.292999	1	3	1	0.15	4516	117.3999	101.1179	53.33537	3.761243	198.7079	168.6857	0.9116346	11.91869	337.499
8/7/2014 4:23:38 PM	16:23:38	479	A	5	58	82.85715	42356.57	53	75.71429	26500	1112.488	88.3484	88.88721	14.17987	51.83501	389.2239	39.2858	92.35883	1.094999	14.22284	1.275999	1	3	1	0.15	4534	119	102.7294	53.65665	3.784	198.4577	169.1141	0.9108501	11.90843	337.2086
8/7/2014 4:23:38 PM	16:23:38	479	A	5	58	82.85715	42356.57	53	75.71429	26500	1112.488	88.3484	88.88721	14.17987	51.83501	389.2239	39.2858	92.35883	1.094999	14.22284	1.275999	1	3	1	0.15	4534	119	102.7294	53.65665	3.784	198.4577	169.1141	0.9108501	11.90843	337.2086
8/7/2014 4:23:48 PM	16:23:48	489	A	5	58	82.85715	42356.57	53	75.71429	26500	1108.6	87.86362	88.94705	14.18025	51.27499	389.0438	39.08979	92.4029	1.17	14.22026	1.274	1	3	1	0.15	4549	117.6001	101.8568	53.30522	3.759117	198.3577	167.9056	0.915696	11.97179	339.0027
8/7/2014 4:23:48 PM	16:23:48	489	A	5	58	82.85715	42356.57	53	75.71429	26500	1108.6	87.86362	88.94705	14.18025	51.27499	389.0438	39.08979	92.4029	1.17	14.22026	1.274	1	3	1	0.15	4549	117.6001	101.8568	53.30522	3.759117	198.3577	167.9056	0.915696	11.97179	339.0027
8/7/2014 4:23:58 PM	16:23:58	499	A	5	59	84.28571	43086.86	53	75.71429	26500	1108.643	87.9077	89.00687	14.18025	51.05	388.8637	39.33103	92.35883	1.1	14.22246	1.26	1	3	1	0.15	4556	117.2002	101.6666	53.47106	3.770812	198.2576	168.3257	0.9097745	11.89437	336.8104
8/7/2014 4:23:58 PM	16:23:58	499	A	5	59	84.28571	43086.86	53	75.71429	26500	1108.643	87.9077	89.00687	14.18025	51.05	388.8637	39.33103	92.35883	1.1	14.22246	1.26	1	3	1	0.15	4556	117.2002	101.6666	53.47106	3.770812	198.2576	168.3257	0.9097745	11.89437	336.8104
8/7/2014 4:24:08 PM	16:24:08	509	A	5	59	84.28571	43086.86	54	77.14286	27000	1109.192	87.9077	89.00687	14.18025	51.05	389.0438	39.35615	92.4029	1.184	14.22329	1.275999	1	3	1	0.15	4571	117.7998	102.3494	53.86307	3.798457	198.3577	169.0534	0.9147365	11.95924	338.6474
8/7/2014 4:24:08 PM	16:24:08	509	A	5	59	84.28571	43086.86	54	77.14286	27000	1109.192	87.9077	89.00687	14.18025	51.05	389.0438	39.35615	92.4029	1.184	14.22329	1.275999	1	3	1	0.15	4571	117.7998	102.3494	53.86307	3.798457	198.3577	169.0534	0.9147365	11.95924	338.6474
8/7/2014 4:24:18 PM	16:24:18	519	A	5	59	84.28571	43086.86	54	77.14286	27000	1108.305	87.95177	89.08383	14.1795	50.965	389.8542	39.52702	92.27069	1.211	14.22298	1.301001	1	3	1	0.15	4587	117	102.1835	53.55576	3.776985	198.8079	168.5639	0.9197831	12.02522	340.5157
8/7/2014 4:24:18 PM	16:24:18	519	A	5	59	84.28571	43086.86	54	77.14286	27000	1108.305	87.95177	89.08383	14.1795	50.965	389.8542	39.52702	92.27069	1.211	14.22298	1.301001	1	3	1	0.15	4587	117	102.1835	53.55576	3.776985	198.8079	168.5639	0.9197831	12.02522	340.5157
8/7/2014 4:24:28 PM	16:24:28	529	A	5	59	84.28571	43086.86	53	75.71429	26500	1107.967	87.99583	89.08383	14.1795	50.965	390.4395	39.44159	92.44697	1.17	14.22131	1.292	1	3	1	0.15	4587	116.7998	102.1835	53.87238	3.799314	199.1331	169.3306	0.9163868	11.98082	339.2584
8/7/2014 4:24:28 PM	16:24:28	529	A	5	59	84.28571	43086.86	53	75.71429	26500	1107.967	87.99583	89.08383	14.1795	50.965	390.4395	39.44159	92.44697	1.17	14.22131	1.292	1	3	1	0.15	4587	116.7998	102.1835	53.87238	3.799314	199.1331	169.3306	0.9163868	11.98082	339.2584
8/7/2014 4:24:38 PM	16:24:38	539	A	5	59	84.28571	43086.86	54	77.14286	27000	1108.474	88.12805	89.12659	14.18025	50.94	390.5746	39.45164	92.44697	1.201	14.22275	1.302999	1	3	1	0.15	4591	117.6001	102.9717	53.64195	3.782864	199.2081	168.899	0.9203275	12.03234	340.7173
8/7/2014 4:24:38 PM	16:24:38	539	A	5	59	84.28571	43086.86	54	77.14286	27000	1108.474	88.12805	89.12659	14.18025	50.94	390.5746	39.45164	92.44697	1.201	14.22275	1.302999	1	3	1	0.15	4591	117.6001	102.9717	53.64195	3.782864	199.2081	168.899	0.9203275	12.03234	340.7173
8/7/2014 4:24:48 PM	16:24:48	549	A	5	59	84.28571	43086.86	53	77.14286	27000	1106.53	88.03991	89.17792	14.17987	50.91	390.8898	39.47175	92.22661	1.207001	14.22122	1.309	1	3	1	0.15	4599	117.6001	102.9763	54.04866	3.811646	199.3832	169.7687	0.9225598	12.06152	341.5437
8/7/2014 4:24:48 PM	16:24:48	549	A	5	59	84.28571	43086.86	53	77.14286	27000	1106.53	88.03991	89.17792	14.17987	50.91	390.8898	39.47175	92.22661	1.207001	14.22122	1.309	1	3	1	0.15	4599	117.6001	102.9763	54.04866	3.811646	199.3832	169.7687	0.9225598	12.06152	341.5437
8/7/2014 4:24:58 PM	16:24:58	559	A	5	59	84.28571	43086.86	54	77.14286	27000	1104.122	87.5992	89.17792	14.17987	50.91	390.5296	39.70292	92.27069	1.171	14.2219	1.302999	1	3	1	0.15	4625	117.7998	103.5585	53.76722	3.791798	199.1831	168.7646	0.9204453	12.03388	340.7609
8/7/2014 4:24:58 PM	16:24:58	559	A	5	59	84.28571	43086.86	54	77.14286	27000	1104.122	87.5992	89.17792	14.17987	50.91	390.5296	39.70292	92.27069	1.171	14.2219	1.302999	1	3	1	0.15	4625	117.7998	103.5585	53.76722	3.791798	199.1831	168.7646	0.9204453	12.03388	340.7609
8/7/2014 4:25:08 PM	16:25:08	569	A	5	59	82.85715	42356.57	54	77.14286	27000	1102.643	87.37885	89.24631	14.17987	50.36501	390.9798	39.81349	92.31477	1.150999	14.22292	1.308001	1	3	1	0.15	4635	116.7998	103.2528	54.01347	3.809164	199.4332	169.1534	0.9221947	12.05675	341.4085
8/7/2014 4:25:08 PM	16:25:08	569	A	5	59	82.85715	42356.57	54	77.14286	27000	1102.643	87.37885	89.24631	14.17987	50.36501	390.9798	39.81349	92.31477	1.150999	14.22292	1.308001	1	3	1	0.15	4635	116.7998	103.2528	54.01347	3.809164	199.4332	169.1534	0.9221947	12.05675	341.4085
8/7/2014 4:25:18 PM	16:25:18	579	A	5	58	82.85715	42356.57	55	77.14286	27000	1102.897	86.89407	89.29761	14.17912	50.11501	391.295	39.73308	92.09441	1.174	14.22108	1.295	1	3	1	0.15	4648	115.7998	102.6574	54.18862	3.821718	199.6084	169.1695	0.9177293	11.99837	339.7554
8/7/2014 4:25:18 PM	16:25:18	579	A	5	58	82.85715	42356.57	55	77.14286	27000	1102.897	86.89407	89.29761	14.17912	50.11501	391.295	39.73308	92.09441	1.174	14.22108	1.295	1	3	1	0.15	4648	115.7998	102.6574	54.18862	3.821718	199.6084	169.1695	0.9177293	11.99837	339.7554
8/7/2014 4:25:28 PM	16:25:28	589	A	5	58	84.28571	43086.86	54	77.14286	27000	1108.009	87.20257	89.29761	14.17912	50.11501	391.385	39.55216	92.05034	1.169001	14.2213	1.285999	1	3	1	0.15	4627	118	103.7792	53.28399	3.757918	199.6584	167.3337	0.9145993	11.95745	338.5966
8/7/2014 4:25:28 PM	16:25:28	589	A	5	58	84.28571	43086.86	54	77.14286	27000	1108.009	87.20257	89.29761	14.17912	50.11501	391.385	39.55216	92.05034	1.169001	14.2213	1.285999	1	3	1	0.15	4627	118	103.7792	53.28399	3.757918	199.6584	167.3337	0.9145993	11.95745	338.5966
8/7/2014 4:25:38 PM	16:25:38	599	A	5	58	82.85715	42356.57	53	75.71429	26500	1125.797	88.78911	89.34888	14.1795	49.69	393.321	38.75809	91.9622	1.125999	14.22066	1.267	1	3	1	0.15	4523	117	100.5854	53.14868	3.748276	200.7339	168.2932	0.9046783	11.82774	334.9238
8/7/2014 4:25:38 PM	16:25:38	599	A	5	58	82.85715	42356.57	53	75.71429	26500	1125.797	88.78911	89.34888	14.1795	49.69	393.321	38.75809	91.9622	1.125999	14.22066	1.267	1	3	1	0.15	4523	117	100.5854	53.14868	3.748276	200.7339	168.2932	0.9046783	11.82774	334.9238
8/7/2014 4:25:48 PM	16:25:48	609	A	5	59	84.28571	43086.86	53	75.71429	26500	1113.797	90.33158	89.40875	14.17875	49.55499	394.2215	39.36621	92.05034	1.153999	14.21901	1.299	1	3	1	0.15	4522	117.6001	101.0798	53.40926	3.766852	201.2342	170.1492	0.9191278	12.01665	340.2731
8/7/2014 4:25:48 PM	16:25:48	609	A	5	59	84.28571	43086.86	53	75.71429	26500	1113.797	90.33158	89.40875	14.17875	49.55499	394.2215	39.36621	92.05034	1.153999	14.21901	1.299	1	3	1	0.15	4522	117.6001	101.0798	53.40926	3.766852	201.2342	170.1492	0.9191278	12.01665	340.2731
8/7/2014 4:25:58 PM	16:25:58	619	A	5	59	84.28571	43086.86	52	74.28571	26000	1116.839	89.36202	89.40875	14.17875	49.55499	393.9063	39.18528	92.13847	1.188999	14.21905	1.288	1	3	1	0.15	4523	117.2002	100.5854	53.50475	3.773587	201.0591	169.5896	0.9151664	11.96486	338.8066
8/7/2014 4:25:58 PM	16:25:58	619	A	5	59	84.28571	43086.86	52	74.28571	26000	1116.839	89.36202	89.40875	14.17875	49.55499	393.9063	39.18528	92.13847	1.188999	14.21905	1.288	1	3	1	0.15	4523	117.2002	100.5854	53.50475	3.773587	201.0591	169.5896	0.9151664	11.96486	338.8066
8/7/2014 4:26:08 PM	16:26:08	629	A	5	58	82.85715	42356.57	52	74.28571	26000	1124.233	90.33158	89.43439	14.1795	49.325	394.8518	38.75809	92.00626	1.163	14.22074	1.235001	1	3	1	0.15	4455	118.3999	100.4304	52.38478	3.694402	201.5844	167.7402	0.8963752	11.71919	331.8498
8/7/2014 4:26:08 PM	16:26:08	629	A	5	58	82.85715	42356.57	52	74.28571	26000	1124.233	90.33158	89.43439	14.1795	49.325	394.8518	38.75809	92.00626	1.163	14.22074	1.235001	1	3	1	0.15	4455	118.3999	100.4304	52.38478	3.694402	201.5844	167.7402	0.8963752	11.71919	331.8498
8/7/2014 4:26:18 PM	16:26:18	639	A	5	59	84.28571	43086.86	52	74.28571	26000	1133.36	91.82998	89.51993	14.1795	49.33501	394.8068	37.97912	92.09441	1.141001	14.21907	1.228001	1	3	1	0.15	4404	117.7998	98.77751	52.20385	3.681642	201.5594	168.5124	0.8937195	11.68447	330.8667
8/7/2014 4:26:18 PM	16:26:18	639	A	5	59	84.28571	43086.86	52	74.28571	26000	1133.36	91.82998	89.51993	14.1795	49.33501	394.8068	37.97912	92.09441	1.141001	14.21907	1.228001	1	3	1	0.15	4404	117.7998	98.77751	52.20385	3.681642	201.5594	168.5124	0.8937195	11.68447	330.8667
8/7/2014 4:26:28 PM	16:26:28	649	A	5	59	84.28571	43086.86	52	74.28571	26000	1130.74	96.23705	89.55408	14.17875	49.015	395.5272	38.5621	92.27069	1.160999	14.2185	1.261	1	3	1	0.15	4388	117.3999	98.25179	52.61521	3.71085	201.9596	173.0298	0.9054198	11.83743	335.1982
8/7/2014 4:26:28 PM	16:26:28	649	A	5	59	84.28571	43086.86	52	74.28571	26000	1130.74	96.23705	89.55408	14.17875	49.015	395.5272	38.5621	92.27069	1.160999	14.2185	1.261	1	3	1	0.15	4388	117.3999	98.25179	52.61521	3.71085	201.9596	173.0298	0.9054198	11.83743	335.1982
8/7/2014 4:26:38 PM	16:26:38	659	A	5	59	84.28571	43086.86	52	74.28571	26000	1120.008	94.6505	89.55408	14.17875	49.015	394.5817	38.7782	92.27069	1.209	14.22212	1.271	1	3	1	0.15	4465	116.7998	99.63593	53.20824	3.752674	201.4343	173.1578	0.9091232	11.88585	336.5693
8/7/2014 4:26:38 PM	16:26:38	659	A	5	59	84.28571	43086.86	52	74.28571	26000	1120.008	94.6505	89.55408	14.17875	49.015	394.5817	38.7782	92.27069	1.209	14.22212	1.271	1	3	1	0.15	4465	116.7998	99.63593	53.20824	3.752674	201.4343	173.1578	0.9091232	11.88585	336.5693
8/7/2014 4:26:48 PM	16:26:48	669	A	5	59	84.28571	43086.86	53	75.71429	26500	1114.304	92.75546	89.58832	14.17912	49.245	393.6362	38.88374	92.27069	1.171	14.21819	1.271999	1	3	1	0.15	4522	117.6001	101.0798	53.31414	3.760045	200.909	171.8769	0.9100657	11.89817	336.9182
8/7/2014 4:26:48 PM	16:26:48	669	A	5	59	84.28571	43086.86	53	75.71429	26500	1114.304	92.75546	89.58832	14.17912	49.245	393.6362	38.88374	92.27069	1.171	14.21819	1.271999	1	3	1	0.15	4522	117.6001	101.0798	53.31414	3.760045	200.909	171.8769	0.9100657	11.89817	336.9182
8/7/2014 4:26:58 PM	16:26:58	679	A	5	59	84.28571	43086.86	53	75.71429	26500	1114.98	91.78591	89.58832	14.17912	49.245	393.5462	38.8938	92.35883	1.099001	14.22112	1.281	1	3	1	0.15	4531	117.2002	101.1087	53.02769	3.739843	200.859	170.4249	0.9129142	11.93542	337.9727
8/7/2014 4:26:58 PM	16:26:58	679	A	5	59	84.28571	43086.86	53	75.71429	26500	1114.98	91.78591	89.58832	14.17912	49.245	393.5462	38.8938	92.35883	1.099001	14.22112	1.281	1	3	1	0.15	4531	117.2002	101.1087	53.02769	3.739843	200.859	170.4249	0.9129142	11.93542	337.9727
8/7/2014 4:27:08 PM	16:27:08	0	A	5	59	84.28571	43086.86	53	77.14286	27000	1109.91	90.28751	89.60541	14.17913	49.66499	393.0059	38.9943	92.44697	1.108999	14.21816	1.302999	1	3	1	0.15	4554	117.3999	101.622	53.31918	3.760399	200.6339	169.9005	0.9201737	12.03033	340.6603
8/7/2014 4:27:08 PM	16:27:08	0	A	5	59	84.28571	43086.86	53	77.14286	27000	1109.91	90.28751	89.60541	14.17913	49.66499	393.0059	38.9943	92.44697	1.108999	14.21816	1.302999	1	3	1	0.15	4554	117.3999	101.622	53.31918	3.760399	200.6339	169.9005	0.9201737	12.03033	340.6603
8/7/2014 4:27:18 PM	16:27:18	5	A	6	59	84.28571	43086.86	54	77.14286	27000	1111.22	89.84681	89.66525	14.17913	50.22	392.9158	39.39133	92.62326	1.134001	14.22015	1.288	1	3	1	0.15	4564	118.7998	103.4091	53.61066	3.780957	200.5088	170.2232	0.914791	11.95995	338.6676
8/7/2014 4:27:18 PM	16:27:18	5	A	6	59	84.28571	43086.86	54	77.14286	27000	1111.22	89.84681	89.66525	14.17913	50.22	392.9158	39.39133	92.62326	1.134001	14.22015	1.288	1	3	1	0.15	4564	118.7998	103.4091	53.61066	3.780957	200.5088	170.2232	0.914791	11.95995	338.6676
8/7/2014 4:27:28 PM	16:27:28	15	A	6	59	82.85715	42356.57	54	75.71429	26500	1109.234	89.49424	89.72513	14.17912	50.25	393.0959	39.49687	92.4029	1.205999	14.22029	1.298	1	3	1	0.15	4572	117.6001	102.3717	54.0278	3.810376	200.6089	170.9033	0.9185281	12.00881	340.0511
8/7/2014 4:27:28 PM	16:27:28	15	A	6	59	82.85715	42356.57	54	75.71429	26500	1109.234	89.49424	89.72513	14.17912	50.25	393.0959	39.49687	92.4029	1.205999	14.22029	1.298	1	3	1	0.15	4572	117.6001	102.3717	54.0278	3.810376	200.6089	170.9033	0.9185281	12.00881	340.0511
8/7/2014 4:27:38 PM	16:27:38	25	A	6	59	84.28571	43086.86	54	77.14286	27000	1108.727	88.87725	89.72513	14.17912	50.25	393.141	39.92908	92.44697	1.256001	14.22014	1.308001	1	3	1	0.15	4600	118	103.3489	53.72626	3.789109	200.6339	169.7085	0.921994	12.05413	341.3343
8/7/2014 4:27:38 PM	16:27:38	25	A	6	59	84.28571	43086.86	54	77.14286	27000	1108.727	88.87725	89.72513	14.17912	50.25	393.141	39.92908	92.44697	1.256001	14.22014	1.308001	1	3	1	0.15	4600	118	103.3489	53.72626	3.789109	200.6339	169.7085	0.921994	12.05413	341.3343
8/7/2014 4:27:48 PM	16:27:48	35	A	6	59	84.28571	43086.86	55	78.57143	27500	1108.727	88.17212	89.75076	14.17913	49.25	393.0059	39.79338	92.57918	1.243999	14.22145	1.311001	1	3	1	0.15	4621	117	102.9409	54.18863	3.821718	200.5588	170.2039	0.9212303	12.04414	341.0515
8/7/2014 4:27:48 PM	16:27:48	35	A	6	59	84.28571	43086.86	55	78.57143	27500	1108.727	88.17212	89.75076	14.17913	49.25	393.0059	39.79338	92.57918	1.243999	14.22145	1.311001	1	3	1	0.15	4621	117	102.9409	54.18863	3.821718	200.5588	170.2039	0.9212303	12.04414	341.0515
8/7/2014 4:27:58 PM	16:27:58	45	A	6	58	82.85715	42356.57	54	77.14286	27000	1107.375	88.03991	89.75076	14.17913	49.25	393.276	39.85872	92.31477	1.226999	14.2213	1.309	1	3	1	0.15	4618	117.2002	103.2257	53.72626	3.789109	200.7089	169.0324	0.9224917	12.06063	341.5185
8/7/2014 4:27:58 PM	16:27:58	45	A	6	58	82.85715	42356.57	54	77.14286	27000	1107.375	88.03991	89.75076	14.17913	49.25	393.276	39.85872	92.31477	1.226999	14.2213	1.309	1	3	1	0.15	4618	117.2002	103.2257	53.72626	3.789109	200.7089	169.0324	0.9224917	12.06063	341.5185
8/7/2014 4:28:08 PM	16:28:08	55	A	6	59	84.28571	43086.86	54	77.14286	27000	1108.77	88.08398	89.7764	14.17875	48.85001	393.4561	39.77329	92.49104	1.215	14.22017	1.311001	1	3	1	0.15	4613	118	103.8168	53.99727	3.808323	200.809	169.696	0.9230005	12.06728	341.7068
8/7/2014 4:28:08 PM	16:28:08	55	A	6	59	84.28571	43086.86	54	77.14286	27000	1108.77	88.08398	89.7764	14.17875	48.85001	393.4561	39.77329	92.49104	1.215	14.22017	1.311001	1	3	1	0.15	4613	118	103.8168	53.99727	3.808323	200.809	169.696	0.9230005	12.06728	341.7068
8/7/2014 4:28:18 PM	16:28:18	65	A	6	59	84.28571	43086.86	54	77.14286	27000	1109.572	87.86362	89.80203	14.17912	49.015	393.321	39.76826	92.35883	1.165001	14.22159	1.298	1	3	1	0.15	4621	118.2002	103.9969	54.03283	3.810731	200.7339	169.5964	0.9210696	12.04204	340.992
8/7/2014 4:28:18 PM	16:28:18	65	A	6	59	84.28571	43086.86	54	77.14286	27000	1109.572	87.86362	89.80203	14.17912	49.015	393.321	39.76826	92.35883	1.165001	14.22159	1.298	1	3	1	0.15	4621	118.2002	103.9969	54.03283	3.810731	200.7339	169.5964	0.9210696	12.04204	340.992
8/7/2014 4:28:28 PM	16:28:28	75	A	6	58	82.85715	42356.57	55	77.14286	27000	1107.798	87.95177	89.80203	14.17912	49.015	393.4111	39.73811	92.44697	1.136999	14.22336	1.313	1	3	1	0.15	4632	118.2002	104.0679	53.88205	3.800097	200.7839	169.3206	0.9238427	12.07829	342.0186
8/7/2014 4:28:28 PM	16:28:28	75	A	6	58	82.85715	42356.57	55	77.14286	27000	1107.798	87.95177	89.80203	14.17912	49.015	393.4111	39.73811	92.44697	1.136999	14.22336	1.313	1	3	1	0.15	4632	118.2002	104.0679	53.88205	3.800097	200.7839	169.3206	0.9238427	12.07829	342.0186
8/7/2014 4:28:38 PM	16:28:38	85	A	6	59	84.28571	43086.86	54	77.14286	27000	1107.079	87.64327	89.83624	14.17838	48.86	393.6812	39.62754	92.44697	1.162001	14.22196	1.309	1	3	1	0.15	4638	117.7998	103.6728	54.2331	3.825058	200.934	169.8844	0.9269594	12.11904	343.1725
8/7/2014 4:28:38 PM	16:28:38	85	A	6	59	84.28571	43086.86	54	77.14286	27000	1107.079	87.64327	89.83624	14.17838	48.86	393.6812	39.62754	92.44697	1.162001	14.22196	1.309	1	3	1	0.15	4638	117.7998	103.6728	54.2331	3.825058	200.934	169.8844	0.9269594	12.11904	343.1725
8/7/2014 4:28:48 PM	16:28:48	95	A	6	59	84.28571	43086.86	55	78.57143	27500	1109.91	87.68735	89.84479	14.17838	48.705	393.8163	39.84867	92.18254	1.132	14.22301	1.316	1	3	1	0.15	4637	116.6001	102.9443	54.14766	3.819031	201.0091	169.7242	0.9251158	12.09494	342.49
8/7/2014 4:28:48 PM	16:28:48	95	A	6	59	84.28571	43086.86	55	78.57143	27500	1109.91	87.68735	89.84479	14.17838	48.705	393.8163	39.84867	92.18254	1.132	14.22301	1.316	1	3	1	0.15	4637	116.6001	102.9443	54.14766	3.819031	201.0091	169.7242	0.9251158	12.09494	342.49
8/7/2014 4:28:58 PM	16:28:58	105	A	6	58	82.85715	42356.57	54	77.14286	27000	1106.995	87.86362	89.88757	14.17875	48.64	393.9514	39.97935	92.18254	1.184999	14.22208	1.285999	1	3	1	0.15	4634	117.7998	103.9362	54.20295	3.822931	201.0841	169.9936	0.918047	12.00252	339.873
8/7/2014 4:28:58 PM	16:28:58	105	A	6	58	82.85715	42356.57	54	77.14286	27000	1106.995	87.86362	89.88757	14.17875	48.64	393.9514	39.97935	92.18254	1.184999	14.22208	1.285999	1	3	1	0.15	4634	117.7998	103.9362	54.20295	3.822931	201.0841	169.9936	0.918047	12.00252	339.873
8/7/2014 4:29:08 PM	16:29:08	115	A	6	59	84.28571	43086.86	55	78.57143	27500	1107.122	87.68735	89.88757	14.17875	48.64	394.0864	40.01451	92.31477	1.207001	14.2215	1.323	1	3	1	0.15	4645	118.3999	104.537	54.47974	3.842351	201.1591	170.4812	0.9242578	12.08372	342.1723
8/7/2014 4:29:08 PM	16:29:08	115	A	6	59	84.28571	43086.86	55	78.57143	27500	1107.122	87.68735	89.88757	14.17875	48.64	394.0864	40.01451	92.31477	1.207001	14.2215	1.323	1	3	1	0.15	4645	118.3999	104.537	54.47974	3.842351	201.1591	170.4812	0.9242578	12.08372	342.1723
8/7/2014 4:29:18 PM	16:29:18	125	A	6	58	82.85715	42356.57	55	77.14286	27000	1107.249	87.73141	89.91321	14.17838	48.565	393.9964	39.75821	92.22661	1.169001	14.22225	1.313	1	3	1	0.15	4652	116.3999	102.5684	54.45424	3.840654	201.1091	170.4619	0.9250595	12.0942	342.4691
8/7/2014 4:29:18 PM	16:29:18	125	A	6	58	82.85715	42356.57	55	77.14286	27000	1107.249	87.73141	89.91321	14.17838	48.565	393.9964	39.75821	92.22661	1.169001	14.22225	1.313	1	3	1	0.15	4652	116.3999	102.5684	54.45424	3.840654	201.1091	170.4619	0.9250595	12.0942	342.4691
8/7/2014 4:29:28 PM	16:29:28	135	A	6	59	84.28571	43086.86	55	77.14286	27000	1108.009	87.5992	89.91321	14.17838	48.565	394.1315	39.98436	92.09441	1.118999	14.22059	1.334	1	3	1	0.15	4654	116.6001	102.9673	54.18284	3.821513	201.1842	169.7335	0.9314032	12.17714	344.8177
8/7/2014 4:29:28 PM	16:29:28	135	A	6	59	84.28571	43086.86	55	77.14286	27000	1108.009	87.5992	89.91321	14.17838	48.565	394.1315	39.98436	92.09441	1.118999	14.22059	1.334	1	3	1	0.15	4654	116.6001	102.9673	54.18284	3.821513	201.1842	169.7335	0.9314032	12.17714	344.8177
8/7/2014 4:29:38 PM	16:29:38	145	A	6	59	84.28571	43086.86	55	77.14286	27000	1106.15	87.46699	89.95596	14.17838	48.455	394.3116	40.30601	92.13847	1.167999	14.21773	1.316	1	3	1	0.15	4660	117.2002	103.9873	53.95167	3.805208	201.2842	169.0957	0.9249867	12.09325	342.4422
8/7/2014 4:29:38 PM	16:29:38	145	A	6	59	84.28571	43086.86	55	77.14286	27000	1106.15	87.46699	89.95596	14.17838	48.455	394.3116	40.30601	92.13847	1.167999	14.21773	1.316	1	3	1	0.15	4660	117.2002	103.9873	53.95167	3.805208	201.2842	169.0957	0.9249867	12.09325	342.4422
8/7/2014 4:29:48 PM	16:29:48	155	A	6	59	82.85715	42356.57	55	78.57143	27500	1106.446	87.64327	89.95596	14.17838	48.56	394.1315	39.83863	91.9622	1.205999	14.21856	1.327	1	3	1	0.15	4655	118.6001	104.9391	54.14766	3.819031	201.1842	169.6885	0.9293578	12.1504	344.0605
8/7/2014 4:29:48 PM	16:29:48	155	A	6	59	82.85715	42356.57	55	78.57143	27500	1106.446	87.64327	89.95596	14.17838	48.56	394.1315	39.83863	91.9622	1.205999	14.21856	1.327	1	3	1	0.15	4655	118.6001	104.9391	54.14766	3.819031	201.1842	169.6885	0.9293578	12.1504	344.0605
8/7/2014 4:29:58 PM	16:29:58	165	A	6	59	84.28571	43086.86	54	77.14286	27000	1108.727	87.9077	89.95596	14.17838	48.56	394.5367	39.88386	92.09441	1.179001	14.22051	1.325001	1	3	1	0.15	4643	117.3999	103.608	53.98684	3.807688	201.4093	169.5328	0.9282609	12.13606	343.6543
8/7/2014 4:29:58 PM	16:29:58	165	A	6	59	84.28571	43086.86	54	77.14286	27000	1108.727	87.9077	89.95596	14.17838	48.56	394.5367	39.88386	92.09441	1.179001	14.22051	1.325001	1	3	1	0.15	4643	117.3999	103.608	53.98684	3.807688	201.4093	169.5328	0.9282609	12.13606	343.6543
8/7/2014 4:30:08 PM	16:30:08	175	A	6	58	82.85715	42356.57	55	77.14286	27000	1107.206	87.81956	89.97305	14.17838	48.58	394.4016	39.98939	91.82998	1.101	14.22182	1.318001	1	3	1	0.15	4652	116.6001	103.6315	54.61003	3.851642	201.3342	170.8892	0.9295636	12.15309	344.1366
8/7/2014 4:30:08 PM	16:30:08	175	A	6	58	82.85715	42356.57	55	77.14286	27000	1107.206	87.81956	89.97305	14.17838	48.58	394.4016	39.98939	91.82998	1.101	14.22182	1.318001	1	3	1	0.15	4652	116.6001	103.6315	54.61003	3.851642	201.3342	170.8892	0.9295636	12.15309	344.1366
8/7/2014 4:30:18 PM	16:30:18	185	A	6	58	84.28571	43086.86	54	77.14286	27000	1106.615	87.99583	89.95596	14.178	48.57001	394.4916	40.05473	91.91813	1.162001	14.21891	1.320999	1	3	1	0.15	4652	117.7998	104.3399	54.10206	3.815916	201.3842	169.8723	0.9280105	12.13278	343.5616
8/7/2014 4:30:18 PM	16:30:18	185	A	6	58	84.28571	43086.86	54	77.14286	27000	1106.615	87.99583	89.95596	14.178	48.57001	394.4916	40.05473	91.91813	1.162001	14.21891	1.320999	1	3	1	0.15	4652	117.7998	104.3399	54.10206	3.815916	201.3842	169.8723	0.9280105	12.13278	343.5616
8/7/2014 4:30:28 PM	16:30:28	195	A	6	59	84.28571	43086.86	54	77.14286	27000	1109.91	88.03991	89.95596	14.178	48.57001	394.8518	40.02457	91.87405	1.212999	14.2235	1.313999	1	3	1	0.15	4643	117.6001	103.9615	53.97641	3.807054	201.5844	169.619	0.9246859	12.08932	342.3308
8/7/2014 4:30:28 PM	16:30:28	195	A	6	59	84.28571	43086.86	54	77.14286	27000	1109.91	88.03991	89.95596	14.178	48.57001	394.8518	40.02457	91.87405	1.212999	14.2235	1.313999	1	3	1	0.15	4643	117.6001	103.9615	53.97641	3.807054	201.5844	169.619	0.9246859	12.08932	342.3308
8/7/2014 4:30:38 PM	16:30:38	205	A	6	58	82.85715	42356.57	55	77.14286	27000	1106.361	87.9077	89.9816	14.178	48.58	395.077	40.29595	91.9622	1.153999	14.2196	1.319	1	3	1	0.15	4659	118.3999	104.6745	54.29807	3.829741	201.7094	170.2506	0.9251899	12.09591	342.5174
8/7/2014 4:30:38 PM	16:30:38	205	A	6	58	82.85715	42356.57	55	77.14286	27000	1106.361	87.9077	89.9816	14.178	48.58	395.077	40.29595	91.9622	1.153999	14.2196	1.319	1	3	1	0.15	4659	118.3999	104.6745	54.29807	3.829741	201.7094	170.2506	0.9251899	12.09591	342.5174
8/7/2014 4:30:48 PM	16:30:48	215	A	6	59	82.85715	42356.57	55	78.57143	27500	1105.643	87.68735	89.99017	14.17838	48.56	394.7618	39.66774	92.05034	1.112	14.22041	1.32	1	3	1	0.15	4666	117.6001	104.1212	54.21803	3.823994	201.6094	169.8855	0.9244305	12.08598	342.2363
8/7/2014 4:30:48 PM	16:30:48	215	A	6	59	82.85715	42356.57	55	78.57143	27500	1105.643	87.68735	89.99017	14.17838	48.56	394.7618	39.66774	92.05034	1.112	14.22041	1.32	1	3	1	0.15	4666	117.6001	104.1212	54.21803	3.823994	201.6094	169.8855	0.9244305	12.08598	342.2363
8/7/2014 4:30:58 PM	16:30:58	225	A	6	59	84.28571	43086.86	54	77.14286	27000	1104.249	87.64327	89.99017	14.17838	48.56	394.8969	40.07482	91.91813	1.129999	14.22142	1.294001	1	3	1	0.15	4667	117.2002	104.1435	54.40398	3.837109	201.6094	170.2756	0.9175541	11.99608	339.6906
8/7/2014 4:30:58 PM	16:30:58	225	A	6	59	84.28571	43086.86	54	77.14286	27000	1104.249	87.64327	89.99017	14.17838	48.56	394.8969	40.07482	91.91813	1.129999	14.22142	1.294001	1	3	1	0.15	4667	117.2002	104.1435	54.40398	3.837109	201.6094	170.2756	0.9175541	11.99608	339.6906
8/7/2014 4:31:08 PM	16:31:08	235	A	6	59	84.28571	43086.86	55	78.57143	27500	1105.643	87.24664	89.99017	14.178	48.465	394.6718	40.05974	91.82998	1.141001	14.22137	1.302	1	3	1	0.15	4664	117	104.0766	54.31815	3.831158	201.4843	169.7613	0.9250137	12.09361	342.4522
8/7/2014 4:31:08 PM	16:31:08	235	A	6	59	84.28571	43086.86	55	78.57143	27500	1105.643	87.24664	89.99017	14.178	48.465	394.6718	40.05974	91.82998	1.141001	14.22137	1.302	1	3	1	0.15	4664	117	104.0766	54.31815	3.831158	201.4843	169.7613	0.9250137	12.09361	342.4522
8/7/2014 4:31:18 PM	16:31:18	245	A	6	59	84.28571	43086.86	54	78.57143	27500	1107.291	87.46699	90.01581	14.178	48.58	394.5817	40.32109	91.87405	1.138	14.22086	1.327999	1	3	1	0.15	4655	117.7998	104.4072	54.8358	3.867668	201.4343	171.1205	0.9294926	12.15216	344.1103
8/7/2014 4:31:18 PM	16:31:18	245	A	6	59	84.28571	43086.86	54	78.57143	27500	1107.291	87.46699	90.01581	14.178	48.58	394.5817	40.32109	91.87405	1.138	14.22086	1.327999	1	3	1	0.15	4655	117.7998	104.4072	54.8358	3.867668	201.4343	171.1205	0.9294926	12.15216	344.1103
8/7/2014 4:31:28 PM	16:31:28	255	A	6	58	84.28571	43086.86	54	77.14286	27000	1105.643	87.24664	90.01581	14.178	48.58	394.2215	40.04467	91.6537	1.149	14.21862	1.304001	1	3	1	0.15	4669	117.6001	104.3657	54.32319	3.831513	201.2342	169.7728	0.9240012	12.08037	342.0774
8/7/2014 4:31:28 PM	16:31:28	255	A	6	58	84.28571	43086.86	54	77.14286	27000	1105.643	87.24664	90.01581	14.178	48.58	394.2215	40.04467	91.6537	1.149	14.21862	1.304001	1	3	1	0.15	4669	117.6001	104.3657	54.32319	3.831513	201.2342	169.7728	0.9240012	12.08037	342.0774
8/7/2014 4:31:38 PM	16:31:38	265	A	6	59	84.28571	43086.86	55	78.57143	27500	1108.854	87.42292	89.99017	14.17762	48.67999	393.5462	40.03965	91.6537	1.146	14.21608	1.315001	1	3	1	0.15	4667	117.7998	104.1435	54.5942	3.85073	200.859	170.538	0.9218263	12.05193	341.2722
8/7/2014 4:31:38 PM	16:31:38	265	A	6	59	84.28571	43086.86	55	78.57143	27500	1108.854	87.42292	89.99017	14.17762	48.67999	393.5462	40.03965	91.6537	1.146	14.21608	1.315001	1	3	1	0.15	4667	117.7998	104.1435	54.5942	3.85073	200.859	170.538	0.9218263	12.05193	341.2722
8/7/2014 4:31:48 PM	16:31:48	275	A	6	58	82.85715	42356.57	55	77.14286	27000	1107.967	87.86362	89.97305	14.178	49.03999	394.1765	39.72303	91.87405	1.143	14.22209	1.302999	1	3	1	0.15	4646	117	103.3207	54.2478	3.826196	201.2092	170.0998	0.920769	12.03811	340.8808
8/7/2014 4:31:48 PM	16:31:48	275	A	6	58	82.85715	42356.57	55	77.14286	27000	1107.967	87.86362	89.97305	14.178	49.03999	394.1765	39.72303	91.87405	1.143	14.22209	1.302999	1	3	1	0.15	4646	117	103.3207	54.2478	3.826196	201.2092	170.0998	0.920769	12.03811	340.8808
8/7/2014 4:31:58 PM	16:31:58	285	A	6	59	84.28571	43086.86	54	77.14286	27000	1109.234	87.95177	89.97305	14.178	49.03999	393.7713	40.11504	91.74184	1.141001	14.21786	1.306999	1	3	1	0.15	4631	117	103.5163	54.29304	3.829386	200.9841	170.2748	0.9221555	12.05624	341.394
8/7/2014 4:31:58 PM	16:31:58	285	A	6	59	84.28571	43086.86	54	77.14286	27000	1109.234	87.95177	89.97305	14.178	49.03999	393.7713	40.11504	91.74184	1.141001	14.21786	1.306999	1	3	1	0.15	4631	117	103.5163	54.29304	3.829386	200.9841	170.2748	0.9221555	12.05624	341.394
8/7/2014 4:32:08 PM	16:32:08	295	A	6	58	84.28571	43086.86	54	77.14286	27000	1109.741	88.08398	89.96448	14.17725	48.97501	393.321	40.18539	91.69777	1.195999	14.21921	1.302	1	3	1	0.15	4619	116.2002	102.5447	54.09628	3.81571	200.7339	169.9369	0.92047	12.0342	340.77
8/7/2014 4:32:08 PM	16:32:08	295	A	6	58	84.28571	43086.86	54	77.14286	27000	1109.741	88.08398	89.96448	14.17725	48.97501	393.321	40.18539	91.69777	1.195999	14.21921	1.302	1	3	1	0.15	4619	116.2002	102.5447	54.09628	3.81571	200.7339	169.9369	0.92047	12.0342	340.77
8/7/2014 4:32:18 PM	16:32:18	305	A	6	59	84.28571	43086.86	54	75.71429	26500	1109.615	89.00946	89.93884	14.17763	49.05499	393.7263	39.53205	91.82998	1.124001	14.21919	1.278	1	3	1	0.15	4589	117	102.403	53.5187	3.77487	200.959	169.3475	0.9140211	11.94989	338.3826
8/7/2014 4:32:18 PM	16:32:18	305	A	6	59	84.28571	43086.86	54	75.71429	26500	1109.615	89.00946	89.93884	14.17763	49.05499	393.7263	39.53205	91.82998	1.124001	14.21919	1.278	1	3	1	0.15	4589	117	102.403	53.5187	3.77487	200.959	169.3475	0.9140211	11.94989	338.3826
8/7/2014 4:32:28 PM	16:32:28	315	A	6	59	84.28571	43086.86	53	75.71429	26500	1110.798	89.31796	89.93884	14.17763	49.05499	393.9964	39.51698	91.9622	1.131001	14.2194	1.291	1	3	1	0.15	4582	117.2002	102.421	53.69963	3.787632	201.1091	170.0158	0.9167407	11.98544	339.3894
8/7/2014 4:32:28 PM	16:32:28	315	A	6	59	84.28571	43086.86	53	75.71429	26500	1110.798	89.31796	89.93884	14.17763	49.05499	393.9964	39.51698	91.9622	1.131001	14.2194	1.291	1	3	1	0.15	4582	117.2002	102.421	53.69963	3.787632	201.1091	170.0158	0.9167407	11.98544	339.3894
8/7/2014 4:32:38 PM	16:32:38	325	A	6	59	84.28571	43086.86	54	77.14286	27000	1113.164	89.58238	89.93884	14.17763	49.30499	393.9063	39.51195	92.00626	1.069	14.21987	1.294001	1	3	1	0.15	4575	118	102.4389	54.05142	3.812445	201.0591	171.0423	0.9174127	11.99423	339.6382
8/7/2014 4:32:38 PM	16:32:38	325	A	6	59	84.28571	43086.86	54	77.14286	27000	1113.164	89.58238	89.93884	14.17763	49.30499	393.9063	39.51195	92.00626	1.069	14.21987	1.294001	1	3	1	0.15	4575	118	102.4389	54.05142	3.812445	201.0591	171.0423	0.9174127	11.99423	339.6382
8/7/2014 4:32:48 PM	16:32:48	335	A	6	59	84.28571	43086.86	54	77.14286	27000	1112.361	90.28751	89.91321	14.17688	49.245	394.0414	39.36118	91.87405	1.158001	14.21974	1.288	1	3	1	0.15	4556	118.3999	102.3604	53.6637	3.785298	201.1341	170.7216	0.915416	11.96812	338.899
8/7/2014 4:32:48 PM	16:32:48	335	A	6	59	84.28571	43086.86	54	77.14286	27000	1112.361	90.28751	89.91321	14.17688	49.245	394.0414	39.36118	91.87405	1.158001	14.21974	1.288	1	3	1	0.15	4556	118.3999	102.3604	53.6637	3.785298	201.1341	170.7216	0.915416	11.96812	338.899
8/7/2014 4:32:58 PM	16:32:58	345	A	6	58	84.28571	43086.86	53	75.71429	26500	1111.431	90.37565	89.91321	14.17688	49.245	393.9514	39.64262	92.18254	1.063999	14.21829	1.295	1	3	1	0.15	4545	117.3999	101.94	54.0155	3.810113	201.0841	171.6074	0.9175722	11.99632	339.6972
8/7/2014 4:32:58 PM	16:32:58	345	A	6	58	84.28571	43086.86	53	75.71429	26500	1111.431	90.37565	89.91321	14.17688	49.245	393.9514	39.64262	92.18254	1.063999	14.21829	1.295	1	3	1	0.15	4545	117.3999	101.94	54.0155	3.810113	201.0841	171.6074	0.9175722	11.99632	339.6972
8/7/2014 4:33:08 PM	16:33:08	355	A	6	59	84.28571	43086.86	53	75.71429	26500	1112.445	90.55194	89.91321	14.17687	49.69501	393.7713	39.31595	92.13847	1.136999	14.21818	1.267	1	3	1	0.15	4540	117.3999	101.4822	53.60339	3.781045	200.9841	170.7949	0.9090927	11.88545	336.558
8/7/2014 4:33:08 PM	16:33:08	355	A	6	59	84.28571	43086.86	53	75.71429	26500	1112.445	90.55194	89.91321	14.17687	49.69501	393.7713	39.31595	92.13847	1.136999	14.21818	1.267	1	3	1	0.15	4540	117.3999	101.4822	53.60339	3.781045	200.9841	170.7949	0.9090927	11.88545	336.558
8/7/2014 4:33:18 PM	16:33:18	365	A	6	59	84.28571	43086.86	53	75.71429	26500	1112.952	90.68414	89.88757	14.17725	49.045	393.5912	39.56724	92.22661	1.115999	14.21986	1.283001	1	3	1	0.15	4531	117.3999	101.1087	53.62386	3.782388	200.884	170.9459	0.9133491	11.9411	338.1338
8/7/2014 4:33:18 PM	16:33:18	365	A	6	59	84.28571	43086.86	53	75.71429	26500	1112.952	90.68414	89.88757	14.17725	49.045	393.5912	39.56724	92.22661	1.115999	14.21986	1.283001	1	3	1	0.15	4531	117.3999	101.1087	53.62386	3.782388	200.884	170.9459	0.9133491	11.9411	338.1338
8/7/2014 4:33:28 PM	16:33:28	375	A	6	58	82.85715	42356.57	53	75.71429	26500	1111.643	90.72821	89.86191	14.17763	48.965	393.4111	39.27574	92.31477	1.101	14.21975	1.281	1	3	1	0.15	4520	118.2002	101.5516	53.17658	3.750839	200.934	169.9389	0.9089953	11.88418	336.522
8/7/2014 4:33:28 PM	16:33:28	375	A	6	58	82.85715	42356.57	53	75.71429	26500	1111.643	90.72821	89.86191	14.17763	48.965	393.4111	39.27574	92.31477	1.101	14.21975	1.281	1	3	1	0.15	4520	118.2002	101.5516	53.17658	3.750839	200.934	169.9389	0.9089953	11.88418	336.522
8/7/2014 4:33:38 PM	16:33:38	385	A	6	59	84.28571	43086.86	53	75.71429	26500	1112.192	90.72821	89.86191	14.17763	48.965	393.276	39.57728	92.44697	1.131001	14.21763	1.281	1	3	1	0.15	4522	117.7998	101.4241	53.55891	3.777707	200.7089	170.8271	0.9123948	11.92863	337.7805
8/7/2014 4:33:38 PM	16:33:38	385	A	6	59	84.28571	43086.86	53	75.71429	26500	1112.192	90.72821	89.86191	14.17763	48.965	393.276	39.57728	92.44697	1.131001	14.21763	1.281	1	3	1	0.15	4522	117.7998	101.4241	53.55891	3.777707	200.7089	170.8271	0.9123948	11.92863	337.7805
8/7/2014 4:33:48 PM	16:33:48	395	A	6	58	82.85715	42356.57	53	75.71429	26500	1112.572	90.33158	89.82767	14.17725	48.895	392.7808	39.42652	92.49104	1.136999	14.21917	1.281	1	3	1	0.15	4530	117.3999	101.0864	54.11638	3.817128	200.4338	171.8013	0.9123929	11.9286	337.7798
8/7/2014 4:33:48 PM	16:33:48	395	A	6	58	82.85715	42356.57	53	75.71429	26500	1112.572	90.33158	89.82767	14.17725	48.895	392.7808	39.42652	92.49104	1.136999	14.21917	1.281	1	3	1	0.15	4530	117.3999	101.0864	54.11638	3.817128	200.4338	171.8013	0.9123929	11.9286	337.7798
8/7/2014 4:33:58 PM	16:33:58	405	A	6	58	82.85715	42356.57	54	75.71429	26500	1109.783	89.67052	89.82767	14.17725	48.895	392.3305	39.88386	92.7114	1.163	14.22069	1.285	1	3	1	0.15	4543	118.2002	102.2415	54.0812	3.814647	200.1836	171.1855	0.9165117	11.98245	339.3047
8/7/2014 4:33:58 PM	16:33:58	405	A	6	58	82.85715	42356.57	54	75.71429	26500	1109.783	89.67052	89.82767	14.17725	48.895	392.3305	39.88386	92.7114	1.163	14.22069	1.285	1	3	1	0.15	4543	118.2002	102.2415	54.0812	3.814647	200.1836	171.1855	0.9165117	11.98245	339.3047
8/7/2014 4:34:08 PM	16:34:08	415	A	6	59	84.28571	43086.86	53	75.71429	26500	1110.291	89.53831	89.81061	14.17725	49.17	392.3756	39.42149	92.62326	1.153	14.21975	1.292	1	3	1	0.15	4541	118	102.0234	53.70427	3.78806	200.2087	170.2076	0.9162038	11.97842	339.1906
8/7/2014 4:34:08 PM	16:34:08	415	A	6	59	84.28571	43086.86	53	75.71429	26500	1110.291	89.53831	89.81061	14.17725	49.17	392.3756	39.42149	92.62326	1.153	14.21975	1.292	1	3	1	0.15	4541	118	102.0234	53.70427	3.78806	200.2087	170.2076	0.9162038	11.97842	339.1906
8/7/2014 4:34:18 PM	16:34:18	425	A	6	59	84.28571	43086.86	53	75.71429	26500	1109.403	89.27389	89.72513	14.1765	49.13499	392.1955	39.50693	92.7114	1.205	14.2156	1.299	1	3	1	0.15	4545	117.3999	101.5939	53.47738	3.772255	200.1086	169.4747	0.9184677	12.00802	340.0287
8/7/2014 4:34:18 PM	16:34:18	425	A	6	59	84.28571	43086.86	53	75.71429	26500	1109.403	89.27389	89.72513	14.1765	49.13499	392.1955	39.50693	92.7114	1.205	14.2156	1.299	1	3	1	0.15	4545	117.3999	101.5939	53.47738	3.772255	200.1086	169.4747	0.9184677	12.00802	340.0287
8/7/2014 4:34:28 PM	16:34:28	435	A	6	59	82.85715	42356.57	53	75.71429	26500	1111.347	89.67052	89.72513	14.1765	49.13499	392.3756	39.2858	92.62326	1.155001	14.2168	1.297001	1	3	1	0.15	4529	117.7998	101.5811	53.68343	3.78679	200.2087	170.2727	0.9139726	11.94925	338.3646
8/7/2014 4:34:28 PM	16:34:28	435	A	6	59	82.85715	42356.57	53	75.71429	26500	1111.347	89.67052	89.72513	14.1765	49.13499	392.3756	39.2858	92.62326	1.155001	14.2168	1.297001	1	3	1	0.15	4529	117.7998	101.5811	53.68343	3.78679	200.2087	170.2727	0.9139726	11.94925	338.3646
8/7/2014 4:34:38 PM	16:34:38	445	A	6	58	82.85715	42356.57	53	75.71429	26500	1113.502	90.24344	89.69943	14.1765	49.3	392.1054	39.2858	92.62326	1.155001	14.21716	1.285	1	3	1	0.15	4514	118	101.4168	53.2864	3.758784	200.0586	169.8116	0.9136483	11.94501	338.2446
8/7/2014 4:34:38 PM	16:34:38	445	A	6	58	82.85715	42356.57	53	75.71429	26500	1113.502	90.24344	89.69943	14.1765	49.3	392.1054	39.2858	92.62326	1.155001	14.21716	1.285	1	3	1	0.15	4514	118	101.4168	53.2864	3.758784	200.0586	169.8116	0.9136483	11.94501	338.2446
8/7/2014 4:34:48 PM	16:34:48	455	A	6	59	82.85715	42356.57	53	75.71429	26500	1117.854	90.50787	89.66525	14.17725	50.17999	392.2855	39.37626	92.79954	1.146999	14.21744	1.273001	1	3	1	0.15	4483	117.7998	100.7203	53.57362	3.778844	200.1586	170.6869	0.9092516	11.88753	336.6168
8/7/2014 4:34:48 PM	16:34:48	455	A	6	59	82.85715	42356.57	53	75.71429	26500	1117.854	90.50787	89.66525	14.17725	50.17999	392.2855	39.37626	92.79954	1.146999	14.21744	1.273001	1	3	1	0.15	4483	117.7998	100.7203	53.57362	3.778844	200.1586	170.6869	0.9092516	11.88753	336.6168
8/7/2014 4:34:58 PM	16:34:58	465	A	6	59	84.28571	43086.86	52	74.28571	26000	1117.473	90.9045	89.66525	14.17725	50.17999	393.0509	39.46672	92.75546	1.105	14.21924	1.271	1	3	1	0.15	4463	117.6001	100.2709	53.52335	3.775299	200.5838	170.89	0.9150047	11.96275	338.7467
8/7/2014 4:34:58 PM	16:34:58	465	A	6	59	84.28571	43086.86	52	74.28571	26000	1117.473	90.9045	89.66525	14.17725	50.17999	393.0509	39.46672	92.75546	1.105	14.21924	1.271	1	3	1	0.15	4463	117.6001	100.2709	53.52335	3.775299	200.5838	170.89	0.9150047	11.96275	338.7467
8/7/2014 4:35:08 PM	16:35:08	475	A	6	59	84.28571	43086.86	53	75.71429	26500	1115.699	90.68414	89.63959	14.17688	49.215	392.9609	38.98425	92.79954	1.115999	14.22039	1.267	1	3	1	0.15	4480	118	100.3118	53.33703	3.762256	200.5338	170.2814	0.9071867	11.86053	335.8524
8/7/2014 4:35:08 PM	16:35:08	475	A	6	59	84.28571	43086.86	53	75.71429	26500	1115.699	90.68414	89.63959	14.17688	49.215	392.9609	38.98425	92.79954	1.115999	14.22039	1.267	1	3	1	0.15	4480	118	100.3118	53.33703	3.762256	200.5338	170.2814	0.9071867	11.86053	335.8524
8/7/2014 4:35:18 PM	16:35:18	485	A	6	59	84.28571	43086.86	52	74.28571	26000	1117.6	90.81635	89.61395	14.1765	48.88	393.6812	38.73297	92.97582	1.089001	14.21727	1.278999	1	3	1	0.15	4468	117.7998	100.213	53.1105	3.746376	200.934	169.8619	0.911227	11.91336	337.3482
8/7/2014 4:35:18 PM	16:35:18	485	A	6	59	84.28571	43086.86	52	74.28571	26000	1117.6	90.81635	89.61395	14.1765	48.88	393.6812	38.73297	92.97582	1.089001	14.21727	1.278999	1	3	1	0.15	4468	117.7998	100.213	53.1105	3.746376	200.934	169.8619	0.911227	11.91336	337.3482
8/7/2014 4:35:28 PM	16:35:28	495	A	6	59	84.28571	43086.86	52	74.28571	26000	1118.487	91.34521	89.61395	14.1765	48.88	393.0959	38.43143	92.93174	1.141001	14.2155	1.257	1	3	1	0.15	4471	117.6001	99.93983	52.73357	3.719787	200.6089	169.4022	0.9065742	11.85253	335.6256
8/7/2014 4:35:28 PM	16:35:28	495	A	6	59	84.28571	43086.86	52	74.28571	26000	1118.487	91.34521	89.61395	14.1765	48.88	393.0959	38.43143	92.93174	1.141001	14.2155	1.257	1	3	1	0.15	4471	117.6001	99.93983	52.73357	3.719787	200.6089	169.4022	0.9065742	11.85253	335.6256
8/7/2014 4:35:38 PM	16:35:38	505	A	6	58	82.85715	42356.57	52	74.28571	26000	1126.135	93.01989	89.58832	14.17725	49.16499	392.6007	38.27563	92.97582	1.103001	14.21596	1.23	1	3	1	0.15	4443	118	99.65224	52.1614	3.679233	200.3337	169.384	0.8936063	11.68299	330.8247
8/7/2014 4:35:38 PM	16:35:38	505	A	6	58	82.85715	42356.57	52	74.28571	26000	1126.135	93.01989	89.58832	14.17725	49.16499	392.6007	38.27563	92.97582	1.103001	14.21596	1.23	1	3	1	0.15	4443	118	99.65224	52.1614	3.679233	200.3337	169.384	0.8936063	11.68299	330.8247
8/7/2014 4:35:48 PM	16:35:48	515	A	6	59	84.28571	43086.86	51	72.85714	25500	1140.401	95.70819	89.56265	14.17725	50.24001	393.6362	37.43132	93.32839	1.054001	14.21596	1.225	1	3	1	0.15	4349	117.6001	97.37855	51.91513	3.661862	200.909	170.9464	0.8915147	11.65564	330.0504
8/7/2014 4:35:48 PM	16:35:48	515	A	6	59	84.28571	43086.86	51	72.85714	25500	1140.401	95.70819	89.56265	14.17725	50.24001	393.6362	37.43132	93.32839	1.054001	14.21596	1.225	1	3	1	0.15	4349	117.6001	97.37855	51.91513	3.661862	200.909	170.9464	0.8915147	11.65564	330.0504
8/7/2014 4:35:58 PM	16:35:58	525	A	6	59	84.28571	43086.86	51	72.85714	25500	1137.723	96.85404	89.56265	14.17725	50.24001	394.0414	37.60219	93.19617	1.117001	14.21737	1.226	1	3	1	0.15	4338	116.7998	96.63659	51.79955	3.653709	201.1341	171.5845	0.8920441	11.66256	330.2464
8/7/2014 4:35:58 PM	16:35:58	525	A	6	59	84.28571	43086.86	51	72.85714	25500	1137.723	96.85404	89.56265	14.17725	50.24001	394.0414	37.60219	93.19617	1.117001	14.21737	1.226	1	3	1	0.15	4338	116.7998	96.63659	51.79955	3.653709	201.1341	171.5845	0.8920441	11.66256	330.2464
8/7/2014 4:36:08 PM	16:36:08	535	A	6	58	82.85715	42356.57	51	72.85714	25500	1138.871	95.53191	89.56265	14.1765	50.19	394.0414	37.99419	93.46059	1.079	14.21803	1.226	1	3	1	0.15	4348	117.2002	96.69363	52.26115	3.686464	201.1341	171.6404	0.8918474	11.65999	330.1736
8/7/2014 4:36:08 PM	16:36:08	535	A	6	58	82.85715	42356.57	51	72.85714	25500	1138.871	95.53191	89.56265	14.1765	50.19	394.0414	37.99419	93.46059	1.079	14.21803	1.226	1	3	1	0.15	4348	117.2002	96.69363	52.26115	3.686464	201.1341	171.6404	0.8918474	11.65999	330.1736
8/7/2014 4:36:18 PM	16:36:18	545	A	6	59	82.85715	42356.57	51	72.85714	25500	1122.417	94.60643	89.55408	14.17725	49.61	393.231	38.35101	93.46059	1.108	14.2165	1.231001	1	3	1	0.15	4397	117.6001	98.45332	52.5534	3.706883	200.6839	171.5876	0.8917864	11.65919	330.151
8/7/2014 4:36:18 PM	16:36:18	545	A	6	59	82.85715	42356.57	51	72.85714	25500	1122.417	94.60643	89.55408	14.17725	49.61	393.231	38.35101	93.46059	1.108	14.2165	1.231001	1	3	1	0.15	4397	117.6001	98.45332	52.5534	3.706883	200.6839	171.5876	0.8917864	11.65919	330.151
8/7/2014 4:36:28 PM	16:36:28	555	A	6	59	84.28571	43086.86	51	72.85714	25500	1127.529	94.25386	89.55408	14.17725	49.61	392.2405	37.96907	93.81316	1.069	14.21465	1.233999	1	3	1	0.15	4397	117.6001	98.28571	51.96539	3.665407	200.1336	169.9038	0.8943561	11.69279	331.1023
8/7/2014 4:36:28 PM	16:36:28	555	A	6	59	84.28571	43086.86	51	72.85714	25500	1127.529	94.25386	89.55408	14.17725	49.61	392.2405	37.96907	93.81316	1.069	14.21465	1.233999	1	3	1	0.15	4397	117.6001	98.28571	51.96539	3.665407	200.1336	169.9038	0.8943561	11.69279	331.1023
8/7/2014 4:36:38 PM	16:36:38	565	A	6	58	82.85715	42356.57	51	72.85714	25500	1128.585	94.07759	89.53699	14.1765	49.465	392.6007	38.22036	93.76909	1.034	14.2169	1.222	1	3	1	0.15	4380	117.6001	98.07267	52.40187	3.69639	200.3337	170.8101	0.8901106	11.63728	329.5306
8/7/2014 4:36:38 PM	16:36:38	565	A	6	58	82.85715	42356.57	51	72.85714	25500	1128.585	94.07759	89.53699	14.1765	49.465	392.6007	38.22036	93.76909	1.034	14.2169	1.222	1	3	1	0.15	4380	117.6001	98.07267	52.40187	3.69639	200.3337	170.8101	0.8901106	11.63728	329.5306
8/7/2014 4:36:48 PM	16:36:48	575	A	6	59	84.28571	43086.86	51	72.85714	25500	1138.318	94.69456	89.53699	14.17725	49.715	392.7357	37.85347	93.76909	1.061001	14.2161	1.229	1	3	1	0.15	4341	118.3999	97.86047	52.15637	3.678878	200.4088	170.7129	0.8926136	11.67001	330.4572
8/7/2014 4:36:48 PM	16:36:48	575	A	6	59	84.28571	43086.86	51	72.85714	25500	1138.318	94.69456	89.53699	14.17725	49.715	392.7357	37.85347	93.76909	1.061001	14.2161	1.229	1	3	1	0.15	4341	118.3999	97.86047	52.15637	3.678878	200.4088	170.7129	0.8926136	11.67001	330.4572
8/7/2014 4:36:58 PM	16:36:58	585	A	6	59	84.28571	43086.86	52	74.28571	26000	1123.769	93.37246	89.53699	14.17725	49.715	391.8353	38.34097	93.94537	1.122	14.21906	1.238001	1	3	1	0.15	4400	117	98.01775	52.78961	3.723544	199.9085	171.1562	0.8983314	11.74476	332.5741
8/7/2014 4:36:58 PM	16:36:58	585	A	6	59	84.28571	43086.86	52	74.28571	26000	1123.769	93.37246	89.53699	14.17725	49.715	391.8353	38.34097	93.94537	1.122	14.21906	1.238001	1	3	1	0.15	4400	117	98.01775	52.78961	3.723544	199.9085	171.1562	0.8983314	11.74476	332.5741
8/7/2014 4:37:08 PM	16:37:08	595	A	6	59	82.85715	42356.57	52	74.28571	26000	1120.008	92.35883	89.51135	14.17687	49.855	390.7997	38.76815	94.12166	1.142	14.21825	1.256001	1	3	1	0.15	4429	118	99.50706	52.61835	3.711562	199.3332	169.9411	0.901747	11.78942	333.8385
8/7/2014 4:37:08 PM	16:37:08	595	A	6	59	82.85715	42356.57	52	74.28571	26000	1120.008	92.35883	89.51135	14.17687	49.855	390.7997	38.76815	94.12166	1.142	14.21825	1.256001	1	3	1	0.15	4429	118	99.50706	52.61835	3.711562	199.3332	169.9411	0.901747	11.78942	333.8385
8/7/2014 4:37:18 PM	16:37:18	605	A	6	58	82.85715	42356.57	52	74.28571	26000	1121.529	92.27069	89.49423	14.1765	50.005	390.8448	38.55707	94.16573	1.177	14.21914	1.242001	1	3	1	0.15	4408	117.2002	98.69962	52.93962	3.734322	199.3582	170.6308	0.8970953	11.7286	332.1164
8/7/2014 4:37:18 PM	16:37:18	605	A	6	58	82.85715	42356.57	52	74.28571	26000	1121.529	92.27069	89.49423	14.1765	50.005	390.8448	38.55707	94.16573	1.177	14.21914	1.242001	1	3	1	0.15	4408	117.2002	98.69962	52.93962	3.734322	199.3582	170.6308	0.8970953	11.7286	332.1164
8/7/2014 4:37:28 PM	16:37:28	615	A	6	58	82.85715	42356.57	51	72.85714	25500	1125.374	91.60963	89.49423	14.1765	50.005	390.7097	38.346	94.16573	1.157	14.2169	1.207001	1	3	1	0.15	4400	118	98.68779	52.35664	3.693199	199.2832	168.7243	0.8843204	11.56158	327.387
8/7/2014 4:37:28 PM	16:37:28	615	A	6	58	82.85715	42356.57	51	72.85714	25500	1125.374	91.60963	89.49423	14.1765	50.005	390.7097	38.346	94.16573	1.157	14.2169	1.207001	1	3	1	0.15	4400	118	98.68779	52.35664	3.693199	199.2832	168.7243	0.8843204	11.56158	327.387
8/7/2014 4:37:38 PM	16:37:38	625	A	6	59	84.28571	43086.86	51	72.85714	25500	1127.064	91.47741	89.48569	14.17688	49.11	391.1149	39.12497	94.16573	1.169001	14.21742	1.250999	1	3	1	0.15	4395	117.3999	98.07389	53.14605	3.748785	199.5083	170.4739	0.906346	11.84954	335.5411
8/7/2014 4:37:38 PM	16:37:38	625	A	6	59	84.28571	43086.86	51	72.85714	25500	1127.064	91.47741	89.48569	14.17688	49.11	391.1149	39.12497	94.16573	1.169001	14.21742	1.250999	1	3	1	0.15	4395	117.3999	98.07389	53.14605	3.748785	199.5083	170.4739	0.906346	11.84954	335.5411
8/7/2014 4:37:48 PM	16:37:48	635	A	6	59	84.28571	43086.86	52	74.28571	26000	1118.952	90.50787	89.43439	14.17725	48.99001	390.3045	38.64251	94.29794	1.143	14.21802	1.24	1	3	1	0.15	4432	118.2002	99.74339	53.02582	3.740205	199.058	169.4089	0.9016225	11.78779	333.7924
8/7/2014 4:37:48 PM	16:37:48	635	A	6	59	84.28571	43086.86	52	74.28571	26000	1118.952	90.50787	89.43439	14.17725	48.99001	390.3045	38.64251	94.29794	1.143	14.21802	1.24	1	3	1	0.15	4432	118.2002	99.74339	53.02582	3.740205	199.058	169.4089	0.9016225	11.78779	333.7924
8/7/2014 4:37:58 PM	16:37:58	645	A	6	58	82.85715	42356.57	52	74.28571	26000	1120.389	89.97901	89.43439	14.17725	48.99001	389.8092	38.70785	94.342	1.083	14.21704	1.242001	1	3	1	0.15	4428	117	98.47272	52.63883	3.712908	198.7829	168.0758	0.8968827	11.72582	332.0377
8/7/2014 4:37:58 PM	16:37:58	645	A	6	58	82.85715	42356.57	52	74.28571	26000	1120.389	89.97901	89.43439	14.17725	48.99001	389.8092	38.70785	94.342	1.083	14.21704	1.242001	1	3	1	0.15	4428	117	98.47272	52.63883	3.712908	198.7829	168.0758	0.8968827	11.72582	332.0377
8/7/2014 4:38:08 PM	16:38:08	655	A	6	59	84.28571	43086.86	52	74.28571	26000	1121.065	89.53831	89.38312	14.17725	49.175	389.5391	39.12497	94.342	1.105	14.21982	1.247	1	3	1	0.15	4410	118.7998	99.91985	52.99063	3.737723	198.6328	168.5467	0.9012684	11.78316	333.6613
8/7/2014 4:38:08 PM	16:38:08	655	A	6	59	84.28571	43086.86	52	74.28571	26000	1121.065	89.53831	89.38312	14.17725	49.175	389.5391	39.12497	94.342	1.105	14.21982	1.247	1	3	1	0.15	4410	118.7998	99.91985	52.99063	3.737723	198.6328	168.5467	0.9012684	11.78316	333.6613
8/7/2014 4:38:18 PM	16:38:18	665	A	6	59	84.28571	43086.86	51	72.85714	25500	1127.064	89.97901	89.34888	14.17763	49.08	389.1339	38.41635	94.342	1.125999	14.21438	1.250999	1	3	1	0.15	4387	118.2002	98.56344	52.61408	3.711064	198.4077	168.0143	0.894982	11.70097	331.3341
8/7/2014 4:38:18 PM	16:38:18	665	A	6	59	84.28571	43086.86	51	72.85714	25500	1127.064	89.97901	89.34888	14.17763	49.08	389.1339	38.41635	94.342	1.125999	14.21438	1.250999	1	3	1	0.15	4387	118.2002	98.56344	52.61408	3.711064	198.4077	168.0143	0.894982	11.70097	331.3341
8/7/2014 4:38:28 PM	16:38:28	675	A	6	58	82.85715	42356.57	51	72.85714	25500	1126.726	91.34521	89.34888	14.17763	49.08	389.8993	39.1702	94.56236	1.089001	14.21807	1.242001	1	3	1	0.15	4393	118.2002	98.86569	52.6945	3.716736	198.8329	169.3003	0.8967187	11.72368	331.977
8/7/2014 4:38:28 PM	16:38:28	675	A	6	58	82.85715	42356.57	51	72.85714	25500	1126.726	91.34521	89.34888	14.17763	49.08	389.8993	39.1702	94.56236	1.089001	14.21807	1.242001	1	3	1	0.15	4393	118.2002	98.86569	52.6945	3.716736	198.8329	169.3003	0.8967187	11.72368	331.977
8/7/2014 4:38:38 PM	16:38:38	0	A	6	59	84.28571	43086.86	52	74.28571	26000	1117.854	90.28751	89.31473	14.17763	48.85001	388.5936	39.08477	94.60643	1.163	14.22067	1.249001	1	3	1	0.15	4450	118.2002	99.97887	52.67942	3.715673	198.1076	168.4156	0.8992946	11.75735	332.9306
8/7/2014 4:38:38 PM	16:38:38	0	A	6	59	84.28571	43086.86	52	74.28571	26000	1117.854	90.28751	89.31473	14.17763	48.85001	388.5936	39.08477	94.60643	1.163	14.22067	1.249001	1	3	1	0.15	4450	118.2002	99.97887	52.67942	3.715673	198.1076	168.4156	0.8992946	11.75735	332.9306
8/7/2014 4:38:54 PM	16:38:54	0	A	6	59	84.28571	43086.86	51	72.85714	25500	1132.726	91.78591	89.24631	14.17725	48.92999	388.5936	38.10979	94.73865	1.18	14.21921	1.224001	1	3	1	0.15	4372	117.7998	98.39307	52.39761	3.695894	198.1076	168.9561	0.8901281	11.63751	329.537
8/7/2014 4:38:54 PM	16:38:54	0	A	6	59	84.28571	43086.86	51	72.85714	25500	1132.726	91.78591	89.24631	14.17725	48.92999	388.5936	38.10979	94.73865	1.18	14.21921	1.224001	1	3	1	0.15	4372	117.7998	98.39307	52.39761	3.695894	198.1076	168.9561	0.8901281	11.63751	329.537
8/7/2014 4:39:04 PM	16:39:04	0	A	6	58	82.85715	42356.57	52	75.71429	26500	1114.811	91.38927	89.22919	14.178	49.17999	388.8187	37.76302	94.95899	1.194	14.22061	1.219	1	3	1	0.15	4483	112.2002	96.11114	52.11691	3.6759	198.2326	167.9662	0.8860031	11.58358	328.0099
8/7/2014 4:39:04 PM	16:39:04	0	A	6	58	82.85715	42356.57	52	75.71429	26500	1114.811	91.38927	89.22919	14.178	49.17999	388.8187	37.76302	94.95899	1.194	14.22061	1.219	1	3	1	0.15	4483	112.2002	96.11114	52.11691	3.6759	198.2326	167.9662	0.8860031	11.58358	328.0099
8/7/2014 4:39:14 PM	16:39:14	0	A	6	57	81.42857	41626.28	52	74.28571	26000	1102.939	90.55194	89.19501	14.17725	49.155	384.7666	36.53675	94.91492	1.007999	14.21516	1.16	1	3	1	0.15	4440	108	91.13121	50.94014	3.593091	195.9815	164.4892	0.866372	11.32693	320.7423
8/7/2014 4:39:14 PM	16:39:14	0	A	6	57	81.42857	41626.28	52	74.28571	26000	1102.939	90.55194	89.19501	14.17725	49.155	384.7666	36.53675	94.91492	1.007999	14.21516	1.16	1	3	1	0.15	4440	108	91.13121	50.94014	3.593091	195.9815	164.4892	0.866372	11.32693	320.7423
8/7/2014 4:39:24 PM	16:39:24	0	A	6	58	81.42857	41626.28	51	72.85714	25500	1102.432	90.86044	89.19501	14.17725	49.155	380.9396	36.77296	95.17935	1.040001	14.21556	1.166	1	3	1	0.15	4383	107.2002	89.12676	50.92507	3.592027	193.8554	164.6982	0.8684046	11.3535	321.4947
8/7/2014 4:39:24 PM	16:39:24	0	A	6	58	81.42857	41626.28	51	72.85714	25500	1102.432	90.86044	89.19501	14.17725	49.155	380.9396	36.77296	95.17935	1.040001	14.21556	1.166	1	3	1	0.15	4383	107.2002	89.12676	50.92507	3.592027	193.8554	164.6982	0.8684046	11.3535	321.4947
8/7/2014 4:39:34 PM	16:39:34	0	A	6	56	80	40896	50	71.42857	25000	1098.503	90.86044	89.1608	14.17725	49.485	376.7075	34.95868	95.00306	0.9979992	14.21299	1.094	1	3	1	0.15	4292	103.7998	84.82472	49.21634	3.471501	191.5042	160.5254	0.8412886	10.99898	311.456
8/7/2014 4:39:34 PM	16:39:34	0	A	6	56	80	40896	50	71.42857	25000	1098.503	90.86044	89.1608	14.17725	49.485	376.7075	34.95868	95.00306	0.9979992	14.21299	1.094	1	3	1	0.15	4292	103.7998	84.82472	49.21634	3.471501	191.5042	160.5254	0.8412886	10.99898	311.456
8/7/2014 4:39:44 PM	16:39:44	0	A	6	56	80	40896	48	68.57143	24000	1102.136	93.10803	89.12659	14.17725	49.425	372.2051	33.61683	95.09122	0.9020004	14.21144	1.024	1	3	1	0.15	4081	100	77.70211	47.67345	3.362672	189.0029	158.4219	0.813909	10.64102	301.3198
8/7/2014 4:39:44 PM	16:39:44	0	A	6	56	80	40896	48	68.57143	24000	1102.136	93.10803	89.12659	14.17725	49.425	372.2051	33.61683	95.09122	0.9020004	14.21144	1.024	1	3	1	0.15	4081	100	77.70211	47.67345	3.362672	189.0029	158.4219	0.813909	10.64102	301.3198
8/7/2014 4:39:54 PM	16:39:54	0	A	6	54	77.14286	39435.43	45	65.71429	23000	1084.517	93.32839	89.12659	14.17725	49.425	367.2525	30.31998	95.13528	0.8349991	14.20732	0.8889999	1	3	1	0.15	3852	93.2002	68.35484	44.56255	3.143243	186.2514	150.4963	0.7621707	9.964599	282.1655
8/7/2014 4:39:54 PM	16:39:54	0	A	6	54	77.14286	39435.43	45	65.71429	23000	1084.517	93.32839	89.12659	14.17725	49.425	367.2525	30.31998	95.13528	0.8349991	14.20732	0.8889999	1	3	1	0.15	3852	93.2002	68.35484	44.56255	3.143243	186.2514	150.4963	0.7621707	9.964599	282.1655
8/7/2014 4:40:04 PM	16:40:04	0	A	6	54	75.71429	38705.14	42	60	21000	1075.687	92.57918	89.12659	14.17725	50	356.492	29.86264	95.31156	0.7770004	14.20652	0.8619995	1	3	1	0.15	3636	87.7998	60.78321	44.28111	3.123392	180.2733	149.171	0.7466544	9.76174	276.4212
8/7/2014 4:40:04 PM	16:40:04	0	A	6	54	75.71429	38705.14	42	60	21000	1075.687	92.57918	89.12659	14.17725	50	356.492	29.86264	95.31156	0.7770004	14.20652	0.8619995	1	3	1	0.15	3636	87.7998	60.78321	44.28111	3.123392	180.2733	149.171	0.7466544	9.76174	276.4212
8/7/2014 4:40:14 PM	16:40:14	0	A	6	52	74.28571	37974.86	41	58.57143	20500	1055.956	91.82998	89.08383	14.17762	49.755	349.5583	27.51563	95.26749	0.7320004	14.20505	0.7810001	1	3	1	0.15	3526	84.7998	57.06469	41.68321	2.94007	176.4213	141.501	0.7107719	9.292612	263.137
8/7/2014 4:40:14 PM	16:40:14	0	A	6	52	74.28571	37974.86	41	58.57143	20500	1055.956	91.82998	89.08383	14.17762	49.755	349.5583	27.51563	95.26749	0.7320004	14.20505	0.7810001	1	3	1	0.15	3526	84.7998	57.06469	41.68321	2.94007	176.4213	141.501	0.7107719	9.292612	263.137
8/7/2014 4:40:24 PM	16:40:24	0	A	6	51	72.85714	37244.57	38	54.28572	19000	1048.139	91.52148	89.08383	14.17762	49.755	342.4447	26.71152	95.44378	0.6429996	14.20289	0.7579994	1	3	1	0.15	3271	79	49.20099	40.71827	2.87201	172.4693	138.5546	0.7000722	9.152724	259.1758
8/7/2014 4:40:24 PM	16:40:24	0	A	6	51	72.85714	37244.57	38	54.28572	19000	1048.139	91.52148	89.08383	14.17762	49.755	342.4447	26.71152	95.44378	0.6429996	14.20289	0.7579994	1	3	1	0.15	3271	79	49.20099	40.71827	2.87201	172.4693	138.5546	0.7000722	9.152724	259.1758
8/7/2014 4:40:34 PM	16:40:34	0	A	6	51	72.85714	37244.57	39	55.71429	19500	1033.225	90.72821	89.06677	14.17725	49.565	334.8048	26.17378	95.48785	0.7099991	14.20338	0.7420006	1	3	1	0.15	3214	77.6001	47.73167	40.19021	2.834838	168.2249	136.4622	0.6921759	9.04949	256.2526
8/7/2014 4:40:34 PM	16:40:34	0	A	6	51	72.85714	37244.57	39	55.71429	19500	1033.225	90.72821	89.06677	14.17725	49.565	334.8048	26.17378	95.48785	0.7099991	14.20338	0.7420006	1	3	1	0.15	3214	77.6001	47.73167	40.19021	2.834838	168.2249	136.4622	0.6921759	9.04949	256.2526
8/7/2014 4:40:44 PM	16:40:44	0	A	6	49	70	35784	36	51.42857	18000	1022.197	90.24344	89.03256	14.17725	49.435	329.2528	24.27408	95.44378	0.6110001	14.20121	0.6599998	1	3	1	0.15	3068	74	43.34376	38.40608	2.708994	165.1405	130.9205	0.6532908	8.541106	241.8568
8/7/2014 4:40:44 PM	16:40:44	0	A	6	49	70	35784	36	51.42857	18000	1022.197	90.24344	89.03256	14.17725	49.435	329.2528	24.27408	95.44378	0.6110001	14.20121	0.6599998	1	3	1	0.15	3068	74	43.34376	38.40608	2.708994	165.1405	130.9205	0.6532908	8.541106	241.8568
8/7/2014 4:40:54 PM	16:40:54	0	A	6	48	68.57143	35053.72	33	47.14286	16500	1013.113	90.37565	89.03256	14.17725	49.435	323.5217	22.86687	95.48785	0.5709991	14.19958	0.6200008	1	3	1	0.15	2845	68.3999	36.94316	37.22506	2.62569	161.9565	127.4913	0.6306124	8.244611	233.461
8/7/2014 4:40:54 PM	16:40:54	0	A	6	48	68.57143	35053.72	33	47.14286	16500	1013.113	90.37565	89.03256	14.17725	49.435	323.5217	22.86687	95.48785	0.5709991	14.19958	0.6200008	1	3	1	0.15	2845	68.3999	36.94316	37.22506	2.62569	161.9565	127.4913	0.6306124	8.244611	233.461
8/7/2014 4:41:04 PM	16:41:04	0	A	6	45	64.28571	32862.86	30	42.85714	15000	978.5519	90.46379	89.01544	14.17688	49.47501	314.9698	18.91166	95.3997	0.4629993	14.1944	0.4890003	1	3	1	0.15	2541	61.3999	29.70562	33.23429	2.34426	157.2054	115.0097	0.5623835	7.352587	208.2017
8/7/2014 4:41:04 PM	16:41:04	0	A	6	45	64.28571	32862.86	30	42.85714	15000	978.5519	90.46379	89.01544	14.17688	49.47501	314.9698	18.91166	95.3997	0.4629993	14.1944	0.4890003	1	3	1	0.15	2541	61.3999	29.70562	33.23429	2.34426	157.2054	115.0097	0.5623835	7.352587	208.2017
8/7/2014 4:41:14 PM	16:41:14	0	A	6	42	60	30672	27	38.57143	13500	962.7078	89.97901	88.97272	14.17687	49.655	305.0746	8.910548	95.44378	0.2210007	14.18374	0.191	1	3	1	0.15	2310	50.6001	22.2551	23.58496	1.663622	151.7081	79.08741	0.3514958	4.595448	130.1284
8/7/2014 4:41:14 PM	16:41:14	0	A	6	42	60	30672	27	38.57143	13500	962.7078	89.97901	88.97272	14.17687	49.655	305.0746	8.910548	95.44378	0.2210007	14.18374	0.191	1	3	1	0.15	2310	50.6001	22.2551	23.58496	1.663622	151.7081	79.08741	0.3514958	4.595448	130.1284
8/7/2014 4:41:24 PM	16:41:24	0	A	6	8	11.42857	5842.286	9	12.85714	4500	419.3896	89.4061	88.97272	14.17687	49.655	293.7467	-0.1256422	95.3997	-1.000023E-02	14.17438	-0.0529995	1	3	1	0.15	523	42	4.182319	14.05626	0.9914924	145.4148	31.16189	-999	-999	-28288.48
8/7/2014 4:41:24 PM	16:41:24	0	A	6	8	11.42857	5842.286	9	12.85714	4500	419.3896	89.4061	88.97272	14.17687	49.655	293.7467	-0.1256422	95.3997	-1.000023E-02	14.17438	-0.0529995	1	3	1	0.15	523	42	4.182319	14.05626	0.9914924	145.4148	31.16189	-999	-999	-28288.48
8/7/2014 4:41:34 PM	16:41:34	0	A	6	-1	0	0	0	0	0	451.0604	88.83318	88.94705	14.17687	49.935	287.2096	-0.3517888	95.31156	-3.800011E-02	14.17659	-0.0529995	0	3	1	0.15	-2	1.399902	-5.330819E-04	13.82509	0.9751858	141.7831	29.4332	-999	-999	-28288.48
8/7/2014 4:41:34 PM	16:41:34	0	A	6	-1	0	0	0	0	0	451.0604	88.83318	88.94705	14.17687	49.935	287.2096	-0.3517888	95.31156	-3.800011E-02	14.17659	-0.0529995	0	3	1	0.15	-2	1.399902	-5.330819E-04	13.82509	0.9751858	141.7831	29.4332	-999	-999	-28288.48
8/7/2014 4:41:44 PM	16:41:44	0	A	6	-1	0	0	0	0	0	567.8875	89.05354	88.94705	14.17725	50.22501	285.6425	-0.3819571	95.48785	2.199936E-02	14.17736	-5.599976E-02	0	3	1	0.15	-3	1.399902	-7.996229E-04	13.80032	0.9734133	140.9125	29.40031	-999	-999	-28288.48
8/7/2014 4:41:44 PM	16:41:44	0	A	6	-1	0	0	0	0	0	567.8875	89.05354	88.94705	14.17725	50.22501	285.6425	-0.3819571	95.48785	2.199936E-02	14.17736	-5.599976E-02	0	3	1	0.15	-3	1.399902	-7.996229E-04	13.80032	0.9734133	140.9125	29.40031	-999	-999	-28288.48
8/7/2014 4:41:54 PM	16:41:54	0	A	6	-1	0	0	0	0	0	631.6427	89.71458	88.94705	14.17725	50.22501	284.2545	-0.4020488	95.57599	-1.399994E-02	14.17689	-4.999924E-02	0	3	1	0.15	-3	1.600098	-7.996229E-04	13.7752	0.9716412	140.1414	29.60994	-999	-999	-28288.48
8/7/2014 4:41:54 PM	16:41:54	0	A	6	-1	0	0	0	0	0	631.6427	89.71458	88.94705	14.17725	50.22501	284.2545	-0.4020488	95.57599	-1.399994E-02	14.17689	-4.999924E-02	0	3	1	0.15	-3	1.600098	-7.996229E-04	13.7752	0.9716412	140.1414	29.60994	-999	-999	-28288.48
8/7/2014 4:42:04 PM	16:42:04	0	A	6	-1	0	0	0	0	0	659.6739	90.1553	88.92139	14.1765	50.355	282.6429	-0.4221558	95.57599	4.999161E-03	14.17668	-0.0529995	0	3	1	0.15	-3	1.399902	-9.139742E-04	13.74931	0.9698666	139.246	29.69745	-999	-999	-28288.48
8/7/2014 4:42:04 PM	16:42:04	0	A	6	-1	0	0	0	0	0	659.6739	90.1553	88.92139	14.1765	50.355	282.6429	-0.4221558	95.57599	4.999161E-03	14.17668	-0.0529995	0	3	1	0.15	-3	1.399902	-9.139742E-04	13.74931	0.9698666	139.246	29.69745	-999	-999	-28288.48
8/7/2014 4:42:14 PM	16:42:14	0	A	6	-1	0	0	0	0	0	676.312	90.50787	88.92139	14.17725	50.175	280.5701	-0.4372323	95.62006	1.000023E-02	14.1771	-5.500031E-02	0	3	1	0.15	-3	1.399902	-7.996229E-04	13.74002	0.9691596	138.0945	29.82963	-999	-999	-28288.48
8/7/2014 4:42:14 PM	16:42:14	0	A	6	-1	0	0	0	0	0	676.312	90.50787	88.92139	14.17725	50.175	280.5701	-0.4372323	95.62006	1.000023E-02	14.1771	-5.500031E-02	0	3	1	0.15	-3	1.399902	-7.996229E-04	13.74002	0.9691596	138.0945	29.82963	-999	-999	-28288.48
8/7/2014 4:42:24 PM	16:42:24	0	A	6	-1	0	0	1	0	0	682.6749	90.94857	88.92139	14.17725	50.175	278.7619	-0.4472781	95.53191	2.000809E-03	14.17721	-0.0529995	0	3	1	0.15	-3	1.399902	-7.996229E-04	13.72997	0.968451	137.09	30.01012	-999	-999	-28288.48
8/7/2014 4:42:24 PM	16:42:24	0	A	6	-1	0	0	1	0	0	682.6749	90.94857	88.92139	14.17725	50.175	278.7619	-0.4472781	95.53191	2.000809E-03	14.17721	-0.0529995	0	3	1	0.15	-3	1.399902	-7.996229E-04	13.72997	0.968451	137.09	30.01012	-999	-999	-28288.48
8/7/2014 4:42:34 PM	16:42:34	0	A	6	-1	0	0	1	0	0	685.9423	91.03671	88.87863	14.17725	49.89999	276.9096	-0.4472781	95.66412	6.000519E-03	14.17725	-5.500031E-02	0	3	1	0.15	-3	1.200195	-9.139742E-04	13.73499	0.9688048	136.0609	30.08974	-999	-999	-28288.48
8/7/2014 4:42:34 PM	16:42:34	0	A	6	-1	0	0	1	0	0	685.9423	91.03671	88.87863	14.17725	49.89999	276.9096	-0.4472781	95.66412	6.000519E-03	14.17725	-5.500031E-02	0	3	1	0.15	-3	1.200195	-9.139742E-04	13.73499	0.9688048	136.0609	30.08974	-999	-999	-28288.48
8/7/2014 4:42:44 PM	16:42:44	0	A	6	-1	0	0	1	0	0	686.2003	91.213	88.853	14.17725	49.83	274.7046	-0.4372323	95.84042	6.999969E-03	14.17747	-0.0529995	0	3	1	0.15	-3	1.399902	-9.139742E-04	13.74002	0.9691596	134.8359	30.21795	-999	-999	-28288.48
8/7/2014 4:42:44 PM	16:42:44	0	A	6	-1	0	0	1	0	0	686.2003	91.213	88.853	14.17725	49.83	274.7046	-0.4372323	95.84042	6.999969E-03	14.17747	-0.0529995	0	3	1	0.15	-3	1.399902	-9.139742E-04	13.74002	0.9691596	134.8359	30.21795	-999	-999	-28288.48
8/7/2014 4:42:54 PM	16:42:54	0	A	6	-1	0	0	1	0	0	685.0825	90.94857	88.853	14.17725	49.83	272.8523	-0.4322017	95.70819	-4.999161E-03	14.17729	-5.400085E-02	0	3	1	0.15	-3	1.399902	-6.855504E-04	13.74505	0.9695144	133.8068	30.10351	-999	-999	-28288.48
8/7/2014 4:42:54 PM	16:42:54	0	A	6	-1	0	0	1	0	0	685.0825	90.94857	88.853	14.17725	49.83	272.8523	-0.4322017	95.70819	-4.999161E-03	14.17729	-5.400085E-02	0	3	1	0.15	-3	1.399902	-6.855504E-04	13.74505	0.9695144	133.8068	30.10351	-999	-999	-28288.48
8/7/2014 4:43:04 PM	16:43:04	0	A	6	-1	0	0	0	0	0	683.0618	90.72821	88.84445	14.17725	49.85001	270.9119	-0.4372323	95.88448	3.000259E-03	14.17692	-0.0510006	0	3	1	0.15	-3	1.399902	-7.996229E-04	13.74002	0.9691596	132.7288	29.95099	-999	-999	-28288.48
8/7/2014 4:43:04 PM	16:43:04	0	A	6	-1	0	0	0	0	0	683.0618	90.72821	88.84445	14.17725	49.85001	270.9119	-0.4372323	95.88448	3.000259E-03	14.17692	-0.0510006	0	3	1	0.15	-3	1.399902	-7.996229E-04	13.74002	0.9691596	132.7288	29.95099	-999	-999	-28288.48
8/7/2014 4:43:14 PM	16:43:14	0	A	6	-1	0	0	1	0	0	680.2244	90.94857	88.81879	14.17725	50.28	268.6627	-0.4472781	95.88448	2.000809E-03	14.17747	-0.0529995	0	3	1	0.15	-3	1	-5.71199E-04	13.73499	0.9688048	131.4793	30.04122	-999	-999	-28288.48
8/7/2014 4:43:14 PM	16:43:14	0	A	6	-1	0	0	1	0	0	680.2244	90.94857	88.81879	14.17725	50.28	268.6627	-0.4472781	95.88448	2.000809E-03	14.17747	-0.0529995	0	3	1	0.15	-3	1	-5.71199E-04	13.73499	0.9688048	131.4793	30.04122	-999	-999	-28288.48
8/7/2014 4:43:24 PM	16:43:24	0	A	6	-1	0	0	0	0	0	676.9999	90.86044	88.81879	14.17725	50.28	266.6781	-0.4472781	95.88448	-2.000809E-03	14.17736	-5.500031E-02	0	3	1	0.15	-3	1.399902	-6.855504E-04	13.72997	0.968451	130.3767	29.9616	-999	-999	-28288.48
8/7/2014 4:43:24 PM	16:43:24	0	A	6	-1	0	0	0	0	0	676.9999	90.86044	88.81879	14.17725	50.28	266.6781	-0.4472781	95.88448	-2.000809E-03	14.17736	-5.500031E-02	0	3	1	0.15	-3	1.399902	-6.855504E-04	13.72997	0.968451	130.3767	29.9616	-999	-999	-28288.48
8/7/2014 4:43:34 PM	16:43:34	0	A	6	-1	0	0	0	0	0	673.0015	91.03671	88.79315	14.17725	50.62	264.473	-0.4523087	95.92855	6.000519E-03	14.17736	-0.0510006	0	3	1	0.15	-3	-0.7998047	3.427752E-04	13.72494	0.9680961	129.1517	30.02748	-999	-999	-28288.48
8/7/2014 4:43:34 PM	16:43:34	0	A	6	-1	0	0	0	0	0	673.0015	91.03671	88.79315	14.17725	50.62	264.473	-0.4523087	95.92855	6.000519E-03	14.17736	-0.0510006	0	3	1	0.15	-3	-0.7998047	3.427752E-04	13.72494	0.9680961	129.1517	30.02748	-999	-999	-28288.48
8/7/2014 4:43:44 PM	16:43:44	0	A	6	-1	0	0	1	0	0	669.2183	91.30114	88.7504	14.17763	50.315	262.6208	-0.4472781	95.92855	4.999161E-03	14.17759	-4.999924E-02	0	3	1	0.15	-3	-1.200195	6.855504E-04	13.73035	0.9684519	128.1227	30.20432	-999	-999	-28288.48
8/7/2014 4:43:44 PM	16:43:44	0	A	6	-1	0	0	1	0	0	669.2183	91.30114	88.7504	14.17763	50.315	262.6208	-0.4472781	95.92855	4.999161E-03	14.17759	-4.999924E-02	0	3	1	0.15	-3	-1.200195	6.855504E-04	13.73035	0.9684519	128.1227	30.20432	-999	-999	-28288.48
8/7/2014 4:43:54 PM	16:43:54	0	A	6	-1	0	0	0	0	0	664.446	90.99264	88.7504	14.17763	50.315	260.8126	-0.4422629	95.97262	-9.994507E-04	14.17734	-4.800034E-02	0	3	1	0.15	-3	-1	6.855504E-04	13.73536	0.9688056	127.1181	30.06553	-999	-999	-28288.48
8/7/2014 4:43:54 PM	16:43:54	0	A	6	-1	0	0	0	0	0	664.446	90.99264	88.7504	14.17763	50.315	260.8126	-0.4422629	95.97262	-9.994507E-04	14.17734	-4.800034E-02	0	3	1	0.15	-3	-1	6.855504E-04	13.73536	0.9688056	127.1181	30.06553	-999	-999	-28288.48
8/7/2014 4:44:04 PM	16:44:04	0	A	6	-1	0	0	1	0	0	660.4478	90.9045	88.72476	14.17725	50	258.6957	-0.4372323	96.10483	-2.000809E-03	14.17721	-4.800034E-02	0	3	1	0.15	-3	-1.399902	6.855504E-04	13.74505	0.9695144	125.9421	30.07923	-999	-999	-28288.48
8/7/2014 4:44:04 PM	16:44:04	0	A	6	-1	0	0	1	0	0	660.4478	90.9045	88.72476	14.17725	50	258.6957	-0.4372323	96.10483	-2.000809E-03	14.17721	-4.800034E-02	0	3	1	0.15	-3	-1.399902	6.855504E-04	13.74505	0.9695144	125.9421	30.07923	-999	-999	-28288.48
8/7/2014 4:44:14 PM	16:44:14	0	A	6	-1	0	0	0	0	0	656.7504	90.59601	88.67343	14.17687	49.92	256.6671	-0.4422629	95.92855	0	14.17687	-4.899979E-02	0	3	1	0.15	-3	-0.7998047	3.427752E-04	13.73964	0.9691588	124.815	29.87812	-999	-999	-28288.48
8/7/2014 4:44:14 PM	16:44:14	0	A	6	-1	0	0	0	0	0	656.7504	90.59601	88.67343	14.17687	49.92	256.6671	-0.4422629	95.92855	0	14.17687	-4.899979E-02	0	3	1	0.15	-3	-0.7998047	3.427752E-04	13.73964	0.9691588	124.815	29.87812	-999	-999	-28288.48
8/7/2014 4:44:24 PM	16:44:24	0	A	6	-1	0	0	1	0	0	652.1072	90.55194	88.67343	14.17687	49.92	254.9912	-0.4372323	96.10483	-3.000259E-03	14.17698	-0.0510006	0	3	1	0.15	-3	-0.6000977	2.284238E-04	13.73964	0.9691588	123.884	29.85384	-999	-999	-28288.48
8/7/2014 4:44:24 PM	16:44:24	0	A	6	-1	0	0	1	0	0	652.1072	90.55194	88.67343	14.17687	49.92	254.9912	-0.4372323	96.10483	-3.000259E-03	14.17698	-0.0510006	0	3	1	0.15	-3	-0.6000977	2.284238E-04	13.73964	0.9691588	123.884	29.85384	-999	-999	-28288.48
8/11/2014 10:37:36 AM	10:37:36	0	B	27	-1	0	0	0	0	0	77.06632	78.34438	77.35324	14.29463	-0.4100037	77.81553	-0.3065595	77.28667	-0.441	14.27833	0.0340004	0	3	1	0.15	-2	-0.3999023	1.522825E-04	13.98807	0.9785542	25.45307	23.93431	0.1512602	1.977572	55.99852
8/11/2014 10:37:46 AM	10:37:46	0	B	27	-1	0	0	0	0	0	77.06632	78.38844	77.35324	14.29463	-0.4100037	77.8596	-0.3015443	77.19853	-0.4559994	14.27869	3.300095E-02	0	3	1	0.15	-2	-0.6000977	1.522825E-04	13.99308	0.9789051	25.47755	23.98856	0.1490382	1.948522	55.17591
8/11/2014 1:54:36 PM	13:54:36	0	A	1	-1	0	0	1	0	0	83.05993	82.97179	81.98737	14.28787	36.64999	82.66329	-0.3065595	82.66329	-0.3120003	14.27523	2.099991E-02	0	3	1	0.15	-2	0.2001953	-1.522825E-04	13.98131	0.9785441	28.14627	26.48863	0.1182279	1.545708	43.76951
8/11/2014 1:54:46 PM	13:54:46	0	A	1	-1	0	0	0	0	0	83.05993	82.92772	81.98737	14.28787	36.64999	82.70737	-0.3015443	82.57515	-0.3250008	14.27501	2.099991E-02	0	3	1	0.15	-2	0.7998047	-1.522825E-04	13.98131	0.9785441	28.17076	26.46432	0.1182362	1.545817	43.77259
8/11/2014 1:54:56 PM	13:54:56	0	A	1	-1	0	0	0	0	0	83.01585	83.05993	81.97025	14.28675	35.94501	82.75143	-0.3015443	82.61922	-0.3439999	14.27367	2.700043E-02	0	3	1	0.15	-2	0.3999023	-7.623425E-05	13.99024	0.9792455	28.19524	26.59755	0.1340765	1.752912	49.63686
8/11/2014 1:55:06 PM	13:55:06	0	A	1	-1	0	0	0	0	0	83.14807	83.19214	81.94461	14.28638	36.73	82.57515	-0.3065595	82.61922	-0.2819996	14.27539	2.300072E-02	0	3	1	0.15	-2	0.3999023	-1.522825E-04	13.97982	0.9785419	28.09731	26.61013	0.1237341	1.617696	45.80798
8/11/2014 1:55:16 PM	13:55:16	0	A	1	-1	0	0	0	0	0	83.05993	83.14807	81.94461	14.28638	36.73	82.66329	-0.3065595	82.66329	-0.3120003	14.2742	2.799988E-02	0	3	1	0.15	-2	0.3999023	-1.522825E-04	13.98483	0.9788929	28.14627	26.61596	0.131626	1.720875	48.72968
8/11/2014 1:55:26 PM	13:55:26	0	A	1	-1	0	0	0	0	0	83.05993	83.28028	81.95316	14.28675	37.11501	82.61922	-0.3065595	82.48701	-0.3500004	14.27652	2.400017E-02	0	3	1	0.15	-2	0.3999023	-2.285168E-04	13.98019	0.9785424	28.12179	26.65885	0.1265669	1.654732	46.85673
8/11/2014 1:55:36 PM	13:55:36	0	A	1	-1	0	0	0	0	0	83.05993	82.97179	81.94461	14.28638	36.61	82.48701	-0.3065595	82.48701	-0.3600006	14.27463	3.000069E-02	0	3	1	0.15	-2	0.3999023	-1.522825E-04	13.97982	0.9785419	28.04834	26.48843	0.1265585	1.654623	46.85362
8/11/2014 1:55:46 PM	13:55:46	0	A	1	-1	0	0	0	0	0	82.92772	83.23621	81.94461	14.28638	36.61	82.66329	-0.3065595	82.53108	-0.3129997	14.27488	2.300072E-02	0	3	1	0.15	-2	0.3999023	-7.623425E-05	13.97982	0.9785419	28.14627	26.63447	0.1237415	1.617794	45.81073
8/11/2014 1:55:56 PM	13:55:56	0	A	1	-1	0	0	0	0	0	82.97179	83.50063	81.93604	14.28675	36.77	82.75143	-0.3115901	82.48701	-0.3369999	14.27493	3.000069E-02	0	3	1	0.15	-2	0.6000977	-1.522825E-04	13.98019	0.9785424	28.19524	26.78052	0.1413455	1.847947	52.32795
8/11/2014 1:56:06 PM	13:56:06	0	A	1	-1	0	0	0	0	0	82.97179	83.72099	81.93604	14.28675	36.77	82.70737	-0.3115901	82.70737	-0.3390007	14.27475	2.199936E-02	0	3	1	0.15	-2	0.3999023	-2.285168E-04	13.97516	0.9781902	28.17076	26.8719	0.1095996	1.432903	40.57522
8/11/2014 1:56:16 PM	13:56:16	0	A	1	-1	0	0	0	0	0	82.92772	83.94134	81.93604	14.28638	37.36	82.66329	-0.3166207	82.53108	-0.3050003	14.27355	2.000046E-02	0	3	1	0.15	-2	0.3999023	-1.522825E-04	13.96975	0.9778376	28.14627	26.96318	0.1237357	1.617718	45.80859
8/11/2014 1:56:26 PM	13:56:26	0	A	1	-1	0	0	0	0	0	83.05993	83.98541	81.93604	14.28638	37.80499	82.75143	-0.3166207	82.53108	-0.3419991	14.2743	3.100014E-02	0	3	1	0.15	-2	0.3999023	-1.522825E-04	13.97478	0.9781897	28.19524	27.01781	0.143806	1.880116	53.23886
8/11/2014 1:56:36 PM	13:56:36	0	A	1	-1	0	0	0	0	0	82.92772	83.98541	81.95316	14.28712	37.905	82.57515	-0.3166207	82.44294	-0.3260002	14.27563	2.400017E-02	0	3	1	0.15	-2	0.3999023	-1.522825E-04	13.9705	0.9778388	28.09731	26.98763	0.1265679	1.654746	46.8571
8/11/2014 1:56:46 PM	13:56:46	0	A	1	-1	0	0	0	0	0	82.97179	83.98541	81.95316	14.28712	37.905	82.61922	-0.3166207	82.61922	-0.3740005	14.27448	2.199936E-02	0	3	1	0.15	-2	0.3999023	-1.522825E-04	13.9705	0.9778388	28.12179	26.98763	0.1210084	1.582061	44.79889
8/11/2014 1:56:56 PM	13:56:56	0	A	1	-1	0	0	0	0	0	82.97179	83.58878	81.97879	14.28638	37.36501	82.66329	-0.3166207	82.66329	-0.3360004	14.27405	1.799965E-02	0	3	1	0.15	-2	0.3999023	-1.522825E-04	13.97478	0.9781897	28.14627	26.79886	0.1096012	1.432924	40.57581
8/11/2014 1:57:06 PM	13:57:06	0	A	1	-1	0	0	0	0	0	82.97179	83.63285	81.97025	14.28675	36.515	82.61922	-0.3115901	82.48701	-0.3490009	14.27302	2.599907E-02	0	3	1	0.15	-2	0.3999023	-1.522825E-04	13.97516	0.9781902	28.12179	26.82324	0.1316412	1.721073	48.73529
8/11/2014 1:57:16 PM	13:57:16	0	A	1	-1	0	0	0	0	0	82.97179	83.72099	81.97025	14.28675	36.515	82.7955	-0.3065595	82.53108	-0.3479996	14.27432	2.499962E-02	0	3	1	0.15	-2	0.6000977	-1.522825E-04	13.98019	0.9785424	28.21972	26.90218	0.1291526	1.688538	47.814
8/11/2014 1:57:26 PM	13:57:26	0	A	1	-1	0	0	0	0	0	82.97179	83.58878	81.97025	14.28675	36.50999	82.61922	-0.3015443	82.48701	-0.3670006	14.27378	2.799988E-02	0	3	1	0.15	-2	0.3999023	-1.522825E-04	13.98019	0.9785424	28.12179	26.82921	0.1365496	1.785246	50.55245
8/11/2014 1:57:36 PM	13:57:36	0	A	1	-1	0	0	0	0	0	83.14807	83.67692	81.97025	14.28675	36.50999	82.61922	-0.3065595	82.48701	-0.316	14.27591	2.700043E-02	0	3	1	0.15	-2	-1	3.807993E-04	13.9852	0.9788935	28.12179	26.90804	0.1365598	1.785379	50.55623
8/11/2014 1:57:46 PM	13:57:46	0	A	1	-1	0	0	0	0	0	83.14807	83.58878	81.98737	14.28712	36.765	82.70737	-0.3065595	82.57515	-0.2929993	14.27726	2.099991E-02	0	3	1	0.15	-2	-13.2002	4.950392E-03	13.97553	0.9781908	28.17076	26.79896	0.1096221	1.433197	40.58355
8/11/2014 1:57:56 PM	13:57:56	0	A	1	-1	0	0	0	0	0	83.14807	83.94134	82.00443	14.286	37.78999	82.66329	-0.3115901	82.53108	-0.3390007	14.27447	2.400017E-02	0	3	1	0.15	-2	-12.6001	4.874157E-03	13.97441	0.9781891	28.14627	26.99343	0.1265529	1.654549	46.85152
8/11/2014 1:58:06 PM	13:58:06	0	A	1	-1	0	0	0	0	0	83.01585	83.98541	82.02155	14.28563	36.91	82.70737	-0.3115901	82.57515	-0.3479996	14.27323	2.700043E-02	0	3	1	0.15	-2	-13.6001	5.254956E-03	13.97404	0.9781886	28.17076	27.01774	0.1340797	1.752954	49.63804
8/11/2014 1:58:16 PM	13:58:16	0	A	1	-1	0	0	0	0	0	83.01585	83.58878	82.02155	14.28563	36.91	82.75143	-0.3115901	82.48701	-0.2609997	14.27435	0.0189991	0	3	1	0.15	-2	0	0	13.969	0.9778364	28.19524	26.76844	0.1237441	1.617827	45.81167
8/11/2014 1:58:26 PM	13:58:26	0	A	1	-1	0	0	0	0	0	83.05993	83.28028	82.013	14.28563	36.72501	82.70737	-0.3065595	82.44294	-0.3439999	14.27381	2.599907E-02	0	3	1	0.15	-2	0.3999023	-1.522825E-04	13.97404	0.9781886	28.17076	26.62844	0.13165	1.721188	48.73854
8/11/2014 1:58:36 PM	13:58:36	0	A	1	-1	0	0	0	0	0	83.05993	83.32435	82.013	14.28563	36.72501	82.75143	-0.3065595	82.48701	-0.3169994	14.27283	2.099991E-02	0	3	1	0.15	-2	0.3999023	-1.522825E-04	13.97404	0.9781886	28.19524	26.65278	0.1210156	1.582155	44.80156
8/11/2014 1:58:46 PM	13:58:46	0	A	1	-1	0	0	0	0	0	83.104	83.23621	82.02155	14.28675	35.905	82.75143	-0.3015443	82.48701	-0.3220005	14.27728	2.599907E-02	0	3	1	0.15	-2	0.2001953	-1.522825E-04	13.98019	0.9785424	28.19524	26.63454	0.1182548	1.546061	43.77949
8/11/2014 1:58:56 PM	13:58:56	0	A	1	-1	0	0	0	0	0	83.05993	82.92772	82.03009	14.286	35.965	82.75143	-0.3015443	82.61922	-0.3449993	14.27393	2.199936E-02	0	3	1	0.15	-2	0.6000977	-1.522825E-04	13.97944	0.9785413	28.19524	26.46405	0.1210061	1.58203	44.79803
8/11/2014 1:59:06 PM	13:59:06	0	A	1	-1	0	0	0	0	0	83.104	83.01585	82.013	14.28638	35.765	82.7955	-0.3015443	82.48701	-0.3509998	14.27463	2.499962E-02	0	3	1	0.15	-2	0.3999023	-1.522825E-04	13.97982	0.9785419	28.21972	26.51278	0.1210232	1.582254	44.80438
8/11/2014 1:59:16 PM	13:59:16	0	A	1	-1	0	0	0	0	0	83.104	83.05993	82.013	14.28638	35.765	82.7955	-0.3065595	82.53108	-0.316	14.27347	2.300072E-02	0	3	1	0.15	-2	0.6000977	-1.522825E-04	13.97982	0.9785419	28.21972	26.53712	0.1237354	1.617714	45.80848
8/11/2014 1:59:26 PM	13:59:26	0	A	1	-1	0	0	0	0	0	83.104	83.23621	82.03009	14.2875	36.17999	82.61922	-0.3065595	82.48701	-0.3430004	14.27608	3.000069E-02	0	3	1	0.15	-2	0.6000977	-1.522825E-04	13.98094	0.9785435	28.12179	26.63461	0.1237516	1.617924	45.81444
8/11/2014 1:59:36 PM	13:59:36	0	A	1	-1	0	0	0	0	0	83.104	83.32435	82.03009	14.2875	36.17999	82.75143	-0.3065595	82.48701	-0.2989998	14.27499	0.0189991	0	3	1	0.15	-2	0.3999023	-1.522825E-04	13.97591	0.9781914	28.19524	26.65302	0.1182454	1.545937	43.77599
8/11/2014 1:59:46 PM	13:59:46	0	A	1	-1	0	0	0	0	0	83.14807	83.36842	82.03864	14.28638	36.97501	82.7955	-0.3015443	82.53108	-0.3649998	14.27347	2.300072E-02	0	3	1	0.15	-2	0.6000977	-2.285168E-04	13.97982	0.9785419	28.21972	26.70748	0.1125343	1.471271	41.66168
8/11/2014 1:59:56 PM	13:59:56	0	A	1	-1	0	0	0	0	0	83.104	83.45657	82.03864	14.28712	36.50999	82.88364	-0.3065595	82.61922	-0.2999992	14.27289	2.400017E-02	0	3	1	0.15	-2	0.3999023	-7.623425E-05	13.98057	0.9785429	28.26869	26.75624	0.126536	1.654328	46.84527
8/11/2014 2:00:06 PM	14:00:06	0	A	1	-1	0	0	0	0	0	83.104	83.41249	82.04721	14.28938	36.48	82.88364	-0.3015443	82.61922	-0.3360004	14.27879	0.0170002	0	3	1	0.15	-2	0.3999023	-1.522825E-04	13.98783	0.9788973	28.26869	26.76237	0.106547	1.392993	39.44511
8/11/2014 2:00:16 PM	14:00:16	0	A	1	-1	0	0	0	0	0	83.23621	83.32435	82.04721	14.28938	36.48	82.88364	-0.3015443	82.61922	-0.323	14.27792	2.099991E-02	0	3	1	0.15	-2	0.6000977	-2.285168E-04	13.98783	0.9788973	28.26869	26.71372	0.1182436	1.545914	43.77534
8/11/2014 2:00:26 PM	14:00:26	0	A	1	-1	0	0	0	0	0	83.23621	83.23621	82.04721	14.28712	35.92	82.92772	-0.3065595	82.75143	-0.3290005	14.27372	2.199936E-02	0	3	1	0.15	-2	0.3999023	-1.522825E-04	13.98558	0.978894	28.29318	26.59175	0.1290639	1.687377	47.78113
8/11/2014 2:00:36 PM	14:00:36	0	A	1	-1	0	0	0	0	0	83.19214	83.104	82.04721	14.28712	35.92	82.83958	-0.2965137	82.70737	-0.3360004	14.27563	2.000046E-02	0	3	1	0.15	-2	0.3999023	-1.522825E-04	13.98558	0.978894	28.24421	26.59175	0.1153791	1.508464	42.71486
8/11/2014 2:00:46 PM	14:00:46	0	A	1	-1	0	0	0	0	0	83.19214	82.88364	82.06433	14.28712	35.355	82.83958	-0.3015443	82.70737	-0.3360004	14.27552	1.799965E-02	0	3	1	0.15	-2	0.6000977	-1.522825E-04	13.99061	0.9792461	28.24421	26.50026	0.1065265	1.392725	39.43752
8/11/2014 2:00:56 PM	14:00:56	0	A	1	-1	0	0	0	0	0	83.19214	82.92772	82.07285	14.286	34.795	82.83958	-0.2965137	82.57515	-0.3500004	14.27321	2.099991E-02	0	3	1	0.15	-2	0.6000977	-1.522825E-04	13.98949	0.9792445	28.24421	26.52447	0.1153828	1.508512	42.71624
8/11/2014 2:01:06 PM	14:01:06	0	A	1	-1	0	0	0	0	0	83.19214	82.88364	82.04721	14.28638	35.815	82.7955	-0.3015443	82.53108	-0.302	14.27459	1.600075E-02	0	3	1	0.15	-2	0.3999023	-2.285168E-04	13.98986	0.979245	28.21972	26.50016	0.1031822	1.349002	38.19941
8/11/2014 2:01:16 PM	14:01:16	0	A	1	-1	0	0	0	0	0	83.05993	83.36842	82.04721	14.28638	35.815	82.88364	-0.3015443	82.61922	-0.3239994	14.27448	2.400017E-02	0	3	1	0.15	-2	0.3999023	-2.285168E-04	13.98483	0.9788929	28.26869	26.73766	0.1210084	1.582061	44.7989
8/11/2014 2:01:26 PM	14:01:26	0	A	1	-1	0	0	0	0	0	83.05993	83.45657	82.05576	14.28563	35.965	82.88364	-0.3065595	82.61922	-0.3209991	14.27366	3.000069E-02	0	3	1	0.15	-2	0.3999023	-1.522825E-04	13.98408	0.9788918	28.26869	26.78621	0.1413226	1.847649	52.31949
8/11/2014 2:01:36 PM	14:01:36	0	A	1	-1	0	0	0	0	0	83.05993	83.50063	82.05576	14.28563	35.965	82.88364	-0.3065595	82.61922	-0.3239994	14.27359	2.300072E-02	0	3	1	0.15	-2	0.3999023	-2.285168E-04	13.97907	0.9785407	28.26869	26.78038	0.1237263	1.617594	45.80509
8/11/2014 2:01:46 PM	14:01:46	0	A	1	-1	0	0	0	0	0	83.23621	83.23621	82.06433	14.28563	36.14	82.88364	-0.3065595	82.57515	-0.2999992	14.27525	2.400017E-02	0	3	1	0.15	-2	0.3999023	-1.522825E-04	13.97404	0.9781886	28.26869	26.60412	0.1265514	1.65453	46.85099
8/11/2014 2:01:56 PM	14:01:56	0	A	1	-1	0	0	0	0	0	83.104	83.14807	82.07285	14.286	36.05499	82.75143	-0.3065595	82.61922	-0.2800007	14.27631	2.099991E-02	0	3	1	0.15	-2	0.7998047	-2.285168E-04	13.97944	0.9785413	28.19524	26.58574	0.118237	1.545827	43.77288
8/11/2014 2:02:06 PM	14:02:06	0	A	1	-1	0	0	0	0	0	83.104	83.05993	82.07285	14.286	36.05499	82.75143	-0.3015443	82.61922	-0.2999992	14.27429	2.199936E-02	0	3	1	0.15	-2	0.3999023	-1.522825E-04	13.97944	0.9785413	28.19524	26.53705	0.1153827	1.50851	42.71619
8/11/2014 2:02:16 PM	14:02:16	0	A	1	-1	0	0	0	0	0	83.104	82.75143	82.05576	14.28525	34.465	82.75143	-0.3015443	82.61922	-0.2900009	14.27394	2.199936E-02	0	1	0	0	-2	0.3999023	-2.285168E-04	13.98371	0.9788912	28.19524	26.39677	0	0	0
8/11/2014 2:02:26 PM	14:02:26	0	A	1	-1	0	0	0	0	0	83.104	83.01585	82.04721	14.28638	34.23	82.75143	-0.3015443	82.61922	-0.3349991	14.27474	2.799988E-02	0	1	0	0	-2	0.6000977	-2.285168E-04	13.98986	0.979245	28.19524	26.57317	0	0	0
8/11/2014 2:02:36 PM	14:02:36	0	A	1	-1	0	0	0	0	0	83.104	83.28028	82.04721	14.28638	34.23	82.88364	-0.3065595	82.61922	-0.3509998	14.27452	2.599907E-02	0	1	0	0	-2	0.3999023	-1.522825E-04	13.98483	0.9788929	28.26869	26.68896	0	0	0
8/11/2014 2:02:46 PM	14:02:46	0	A	1	-1	0	0	0	0	0	83.104	83.45657	82.04721	14.28712	35.16499	82.88364	-0.3065595	82.61922	-0.3150005	14.27401	0.0189991	0	1	0	0	-2	0.6000977	-1.522825E-04	13.98057	0.9785429	28.26869	26.75624	0	0	0
8/11/2014 2:02:56 PM	14:02:56	0	A	1	-1	0	0	0	0	0	83.23621	83.23621	82.04721	14.28712	35.16499	82.70737	-0.3065595	82.70737	-0.3670006	14.27487	2.700043E-02	0	3	1	0.15	-2	0.3999023	-1.522825E-04	13.98057	0.9785429	28.17076	26.63457	0.139082	1.818354	51.48997
8/11/2014 2:03:06 PM	14:03:06	0	A	1	-1	0	0	0	0	0	83.23621	83.58878	82.05576	14.28675	35.69	82.83958	-0.3015443	82.75143	-0.3330002	14.27399	2.400017E-02	0	3	1	0.15	-2	0.6000977	-1.522825E-04	13.98019	0.9785424	28.24421	26.82921	0.126526	1.654198	46.84159
8/11/2014 2:03:16 PM	14:03:16	0	A	1	-1	0	0	0	0	0	83.23621	83.63285	82.06433	14.28638	36.205	82.75143	-0.3115901	82.61922	-0.2679996	14.27705	2.099991E-02	0	3	1	0.15	-2	0.6000977	-1.522825E-04	13.97982	0.9785419	28.19524	26.85349	0.1182401	1.545867	43.77401
8/11/2014 2:03:26 PM	14:03:26	0	A	1	-1	0	0	0	0	0	83.19214	83.8532	82.06433	14.28638	36.205	82.70737	-0.3065595	82.57515	-0.3549995	14.27427	2.199936E-02	0	3	1	0.15	-2	0.3999023	-1.522825E-04	13.97478	0.9781897	28.17076	26.94484	0.1210122	1.582111	44.80032
8/11/2014 2:03:36 PM	14:03:36	0	A	1	-1	0	0	0	0	0	83.104	83.58878	82.05576	14.28563	36.84	82.70737	-0.3115901	82.70737	-0.3400002	14.27399	2.000046E-02	0	3	1	0.15	-2	0.3999023	-1.522825E-04	13.97907	0.9785407	28.17076	26.82904	0.1153725	1.508377	42.7124
8/11/2014 2:03:46 PM	14:03:46	0	A	1	-1	0	0	0	0	0	83.104	83.80913	82.08139	14.28563	36.44501	82.70737	-0.3115901	82.57515	-0.3719997	14.27417	2.599907E-02	0	3	1	0.15	-2	0.6000977	-2.285168E-04	13.97404	0.9781886	28.17076	26.92042	0.1182327	1.545772	43.77131
8/11/2014 2:03:56 PM	14:03:56	0	A	1	-1	0	0	0	0	0	83.104	83.76506	82.08139	14.28563	36.44501	82.75143	-0.3065595	82.61922	-0.3069992	14.27395	2.400017E-02	0	3	1	0.15	-2	0.3999023	-1.522825E-04	13.97907	0.9785407	28.19524	26.92639	0.1265407	1.65439	46.84702
8/11/2014 2:04:06 PM	14:04:06	0	A	1	-1	0	0	0	0	0	83.104	83.63285	82.07285	14.28638	35.77	82.88364	-0.3065595	82.61922	-0.3610001	14.27456	2.099991E-02	0	3	1	0.15	-2	0.3999023	-1.522825E-04	13.97478	0.9781897	28.26869	26.82317	0.1125298	1.471212	41.66
8/11/2014 2:04:16 PM	14:04:16	0	A	1	-1	0	0	0	0	0	83.28028	83.76506	82.1156	14.28563	36.25999	82.75143	-0.3015443	82.61922	-0.3239994	14.27316	2.099991E-02	0	3	1	0.15	-2	0.3999023	-1.522825E-04	13.97907	0.9785407	28.19524	26.92639	0.1182239	1.545657	43.76805
8/11/2014 2:04:26 PM	14:04:26	0	A	1	-1	0	0	0	0	0	83.28028	83.67692	82.1156	14.28563	36.25999	82.75143	-0.3065595	82.61922	-0.2730007	14.27352	2.300072E-02	0	3	1	0.15	-2	0.3999023	-1.522825E-04	13.97907	0.9785407	28.19524	26.87773	0.1210043	1.582008	44.79739
8/11/2014 2:04:36 PM	14:04:36	0	A	1	-1	0	0	0	0	0	83.28028	84.07355	82.13272	14.28638	36.74001	82.7955	-0.3065595	82.66329	-0.3519993	14.27524	2.099991E-02	0	3	1	0.15	-2	0.3999023	-2.285168E-04	13.97478	0.9781897	28.21972	27.0665	0.1065296	1.392766	39.43866
8/11/2014 2:04:46 PM	14:04:46	0	A	1	-1	0	0	0	0	0	83.28028	84.20576	82.14981	14.28675	37.63499	82.75143	-0.3065595	82.75143	-0.3549995	14.27323	0.0189991	0	3	1	0.15	-2	0.6000977	-1.522825E-04	13.97516	0.9781902	28.19524	27.13957	0.1125114	1.470971	41.65319
8/11/2014 2:04:56 PM	14:04:56	0	A	1	-1	0	0	0	0	0	83.23621	83.8532	82.14981	14.28675	37.63499	82.88364	-0.3115901	82.75143	-0.3600006	14.27399	2.599907E-02	0	3	1	0.15	-2	0.3999023	-2.285168E-04	13.98019	0.9785424	28.26869	26.97518	0.1316148	1.720729	48.72552
8/11/2014 2:05:06 PM	14:05:06	0	A	1	-1	0	0	0	0	0	83.23621	83.41249	82.14981	14.28863	37.005	82.70737	-0.3015443	82.70737	-0.3740005	14.27518	2.199936E-02	0	3	1	0.15	-2	0.3999023	-2.285168E-04	13.98207	0.9785452	28.17076	26.73209	0.1210019	1.581976	44.7965
8/11/2014 2:05:16 PM	14:05:16	0	A	1	-1	0	0	0	0	0	83.19214	83.41249	82.15836	14.28712	35.595	82.7955	-0.2965137	82.66329	-0.3029995	14.27509	2.000046E-02	0	3	1	0.15	-2	0.3999023	-2.285168E-04	13.98558	0.978894	28.21972	26.7621	0.1065291	1.392758	39.43845
8/11/2014 2:05:26 PM	14:05:26	0	A	1	-1	0	0	0	0	0	83.23621	83.5447	82.15836	14.28712	35.595	82.7955	-0.3015443	82.7955	-0.3150005	14.27379	2.000046E-02	0	3	1	0.15	-2	0.6000977	-2.285168E-04	13.98558	0.978894	28.21972	26.83511	0.1153627	1.508248	42.70876
8/11/2014 2:05:36 PM	14:05:36	0	A	1	-1	0	0	0	0	0	83.32435	83.5447	82.18399	14.28675	36.425	82.88364	-0.3015443	82.75143	-0.3719997	14.2749	2.599907E-02	0	3	1	0.15	-2	0.6000977	-2.285168E-04	13.99024	0.9792455	28.26869	26.86532	0.131619	1.720783	48.72707
8/11/2014 2:05:46 PM	14:05:46	0	A	1	-1	0	0	0	0	0	83.28028	83.32435	82.19257	14.28675	36.83	82.7955	-0.2965137	82.7955	-0.3570004	14.2737	2.300072E-02	0	3	1	0.15	-2	0.6000977	-2.285168E-04	13.98019	0.9785424	28.21972	26.6832	0.1209862	1.581771	44.79068
8/11/2014 2:05:56 PM	14:05:56	0	A	1	-1	0	0	0	0	0	83.28028	83.19214	82.19257	14.28675	36.83	82.75143	-0.2965137	82.75143	-0.3799992	14.27378	1.799965E-02	0	3	1	0.15	-2	0.6000977	-1.522825E-04	13.98521	0.9788935	28.19524	26.64037	0.1095916	1.432798	40.57225
8/11/2014 2:06:06 PM	14:06:06	0	A	1	-1	0	0	0	0	0	83.28028	83.01585	82.15836	14.286	35.86	82.75143	-0.2965137	82.75143	-0.3190002	14.27476	2.799988E-02	0	3	1	0.15	-2	0.3999023	-2.285168E-04	13.99452	0.9795966	28.19524	26.60334	0.1365223	1.784889	50.54234
8/11/2014 2:06:16 PM	14:06:16	0	A	1	-1	0	0	0	0	0	83.14807	82.92772	82.17545	14.28675	35.96001	82.70737	-0.2965137	82.83958	-0.2670002	14.27696	0.0189991	0	3	1	0.15	-2	0.6000977	-1.522825E-04	13.99024	0.9792455	28.17076	26.52454	9.657881E-02	1.262669	35.75474
8/11/2014 2:06:26 PM	14:06:26	0	A	1	-1	0	0	0	0	0	83.28028	83.01585	82.17545	14.28675	35.96001	82.83958	-0.2914831	82.70737	-0.309	14.27327	0.0189991	0	3	1	0.15	-2	0.3999023	-2.285168E-04	13.99527	0.9795977	28.24421	26.60345	0.1125159	1.471031	41.65488
8/11/2014 2:06:36 PM	14:06:36	0	A	1	-1	0	0	0	0	0	83.28028	83.01585	82.14981	14.28563	35.98	82.83958	-0.2914831	82.70737	-0.5279999	14.27211	2.300072E-02	0	3	1	0.15	-2	0.6000977	-2.285168E-04	13.99414	0.9795961	28.24421	26.60331	0.1237102	1.617384	45.79913
8/11/2014 2:06:46 PM	14:06:46	0	A	1	-1	0	0	0	0	0	83.23621	83.41249	82.15836	14.28825	36.27499	82.7955	-0.2914831	82.66329	-0.3409996	14.27755	2.000046E-02	0	3	1	0.15	-2	0.3999023	-2.285168E-04	13.99677	0.9795998	28.21972	26.82273	0.1065383	1.392878	39.44186
8/11/2014 2:06:56 PM	14:06:56	0	A	1	-2	0	0	0	0	0	83.19214	83.28028	82.15836	14.28825	36.27499	82.83958	-0.3015443	82.83958	-0.3150005	14.27535	2.099991E-02	0	3	1	0.15	-2	0.6000977	-1.522825E-04	13.99174	0.9792477	28.24421	26.71948	0.1153644	1.508271	42.70942
8/11/2014 2:07:06 PM	14:07:06	0	A	1	-1	0	0	0	0	0	83.19214	82.83958	82.14124	14.28712	35.84	82.7955	-0.3015443	82.7955	-0.309	14.27542	0.0189991	0	3	1	0.15	-2	0.6000977	-2.285168E-04	13.98558	0.978894	28.21972	26.4457	0.1125156	1.471026	41.65475
8/11/2014 2:07:16 PM	14:07:16	0	A	1	-1	0	0	0	0	0	83.19214	83.28028	82.14981	14.28488	36.03	82.75143	-0.3015443	82.75143	-0.3379993	14.27277	1.799965E-02	0	3	1	0.15	-2	0.6000977	-1.522825E-04	13.98333	0.9788907	28.19524	26.68879	0.1095161	1.431811	40.54429
8/11/2014 2:07:26 PM	14:07:26	0	A	1	-1	0	0	1	0	0	83.32435	83.36842	82.14981	14.28488	36.03	82.70737	-0.3015443	82.70737	-0.3239994	14.27374	2.000046E-02	0	3	1	0.15	-2	0.6000977	-2.285168E-04	13.97832	0.9785396	28.17076	26.70727	0.1153715	1.508364	42.71203
8/11/2014 2:07:36 PM	14:07:36	0	A	1	-1	0	0	0	0	0	83.14807	83.80913	82.14981	14.28525	36.74001	82.7955	-0.3065595	82.66329	-0.3120003	14.27322	0.0170002	0	3	1	0.15	-2	0.3999023	-2.285168E-04	13.97366	0.978188	28.21972	26.92035	0.1153738	1.508395	42.71291
8/11/2014 2:07:46 PM	14:07:46	0	A	1	-1	0	0	0	0	0	83.19214	84.11762	82.15836	14.286	37.97501	82.7955	-0.3115901	82.66329	-0.2700005	14.27563	2.000046E-02	0	3	1	0.15	-2	0.6000977	-2.285168E-04	13.96938	0.977837	28.21972	27.06046	0.1153836	1.508522	42.71651
8/11/2014 2:07:56 PM	14:07:56	0	A	1	-1	0	0	0	0	0	83.14807	84.07355	82.15836	14.286	37.97501	82.75143	-0.3115901	82.61922	-0.3419991	14.27375	2.199936E-02	0	3	1	0.15	-2	0.3999023	-2.285168E-04	13.97441	0.9781891	28.26869	27.06643	0.1210053	1.58202	44.79775
8/11/2014 2:08:06 PM	14:08:06	0	A	1	-1	0	0	0	0	0	83.19214	84.11762	82.14124	14.28563	38.625	82.75143	-0.3115901	82.48701	-0.3299999	14.27388	2.199936E-02	0	3	1	0.15	-2	0.6000977	-2.285168E-04	13.969	0.9778364	28.19524	27.06043	0.123742	1.6178	45.81092
8/11/2014 2:08:16 PM	14:08:16	0	A	1	-1	0	0	0	0	0	83.19214	84.29391	82.15836	14.28563	38.575	82.83958	-0.3115901	82.70737	-0.3010006	14.27442	2.000046E-02	0	3	1	0.15	-2	0.3999023	-2.285168E-04	13.969	0.9778364	28.24421	27.15775	0.1153742	1.508399	42.71305
8/11/2014 2:08:26 PM	14:08:26	0	A	1	-1	0	0	0	0	0	83.104	84.24983	82.15836	14.28563	38.575	82.75143	-0.3115901	82.57515	-0.3470001	14.27355	2.000046E-02	0	3	1	0.15	-2	0.6000977	-1.522825E-04	13.97404	0.9781886	28.19524	27.01774	0.1153842	1.50853	42.71675
8/11/2014 2:08:36 PM	14:08:36	0	A	1	-1	0	0	0	0	0	83.23621	83.5447	82.16687	14.286	38.52	82.7955	-0.3065595	82.7955	-0.3430004	14.27418	2.300072E-02	0	3	1	0.15	-2	0.6000977	-2.285168E-04	13.97944	0.9785413	28.21972	26.80476	0.1237095	1.617375	45.79888
8/11/2014 2:08:46 PM	14:08:46	0	A	1	-1	0	0	0	0	0	83.23621	83.58878	82.15836	14.28563	37.625	82.75143	-0.3065595	82.61922	-0.3190002	14.27359	2.300072E-02	0	3	1	0.15	-2	0.6000977	-2.285168E-04	13.97907	0.9785407	28.19524	26.82904	0.1237263	1.617594	45.80509
8/11/2014 2:08:56 PM	14:08:56	0	A	1	-1	0	0	0	0	0	83.104	83.28028	82.15836	14.28563	37.625	82.75143	-0.3065595	82.61922	-0.3129997	14.27381	2.300072E-02	0	3	1	0.15	-2	0.6000977	-3.045651E-04	13.97907	0.9785407	28.19524	26.65872	0.12654	1.654381	46.84678
8/11/2014 2:09:06 PM	14:09:06	0	A	1	-1	0	0	1	0	0	83.23621	83.58878	82.16687	14.28563	38.00999	82.7955	-0.3065595	82.7955	-0.3010006	14.27471	2.000046E-02	0	3	1	0.15	-2	0.7998047	-2.285168E-04	13.97907	0.9785407	28.21972	26.82904	0.1237118	1.617405	45.79973
8/11/2014 2:09:16 PM	14:09:16	0	A	1	-1	0	0	0	0	0	83.23621	83.76506	82.15836	14.28712	37.755	82.7955	-0.3115901	82.66329	-0.3419991	14.27357	2.300072E-02	0	3	1	0.15	-2	0.3999023	-2.285168E-04	13.97553	0.9781908	28.21972	26.89628	0.1237213	1.61753	45.80326
8/11/2014 2:09:26 PM	14:09:26	0	A	1	-1	0	0	0	0	0	83.28028	83.76506	82.15836	14.28712	37.755	82.88364	-0.3065595	82.75143	-0.3239994	14.27523	2.300072E-02	0	3	1	0.15	-2	0.6000977	-1.522825E-04	13.97553	0.9781908	28.26869	26.89628	0.1237189	1.617498	45.80236
8/11/2014 2:09:36 PM	14:09:36	0	A	1	-1	0	0	0	0	0	83.28028	83.80913	82.14981	14.286	38.375	82.92772	-0.3065595	82.66329	-0.3579998	14.27274	2.199936E-02	0	3	1	0.15	-2	0.7998047	-2.285168E-04	13.97441	0.9781891	28.29318	26.92046	0.1209963	1.581902	44.79441
8/11/2014 2:09:46 PM	14:09:46	0	A	1	-1	0	0	0	0	0	83.23621	83.36842	82.14981	14.286	38.035	82.7955	-0.3065595	82.92772	-0.3509998	14.27288	2.300072E-02	0	3	1	0.15	-2	0.3999023	-3.045651E-04	13.97944	0.9785413	28.21972	26.70741	0.1236894	1.617112	45.79143
8/11/2014 2:09:56 PM	14:09:56	0	A	1	-1	0	0	0	0	0	83.41249	83.72099	82.14981	14.286	38.035	82.88364	-0.3065595	82.75143	-0.4080009	14.2719	2.199936E-02	0	3	1	0.15	-2	0.6000977	-2.285168E-04	13.97441	0.9781891	28.26869	26.8718	0.1182049	1.545408	43.761
8/11/2014 2:10:06 PM	14:10:06	0	A	1	-1	0	0	0	0	0	83.36842	83.67692	82.15836	14.28712	37.80499	82.83958	-0.3115901	82.83958	-0.3409996	14.27477	2.000046E-02	0	3	1	0.15	-2	0.3999023	-1.522825E-04	13.97553	0.9781908	28.24421	26.84762	0.120986	1.581768	44.7906
8/11/2014 2:10:16 PM	14:10:16	0	A	1	-1	0	0	0	0	0	83.19214	83.94134	82.14124	14.28712	38	82.92772	-0.3115901	82.7955	-0.3500004	14.27773	2.099991E-02	0	3	1	0.15	-2	0.6000977	-2.285168E-04	13.9705	0.9778388	28.29318	26.96328	0.1182244	1.545663	43.76822
8/11/2014 2:10:26 PM	14:10:26	0	A	1	-1	0	0	0	0	0	83.32435	83.63285	82.14124	14.28712	38	82.97179	-0.3115901	82.83958	-0.2709999	14.2756	2.400017E-02	0	3	1	0.15	-2	0.7998047	-3.045651E-04	13.97553	0.9781908	28.31766	26.82327	0.1265233	1.654162	46.84057
8/11/2014 2:10:36 PM	14:10:36	0	A	1	-1	0	0	0	0	0	83.28028	83.72099	82.14981	14.28675	38.015	82.83958	-0.3115901	82.70737	-0.3320007	14.27555	2.300072E-02	0	3	1	0.15	-2	0.6000977	-1.522825E-04	13.97516	0.9781902	28.24421	26.8719	0.1237251	1.617579	45.80466
8/11/2014 2:10:46 PM	14:10:46	0	A	1	-1	0	0	0	0	0	83.28028	83.89727	82.15836	14.28525	38.08	82.97179	-0.3115901	82.70737	-0.3560009	14.27405	2.300072E-02	0	3	1	0.15	-2	0.6000977	-2.285168E-04	13.97366	0.978188	28.31766	26.96901	0.1265312	1.654266	46.84351
8/11/2014 2:10:56 PM	14:10:56	0	A	1	-1	0	0	0	0	0	83.41249	83.72099	82.15836	14.28525	38.08	82.97179	-0.3115901	82.70737	-0.2639999	14.27235	2.300072E-02	0	3	1	0.15	-2	0.6000977	-2.285168E-04	13.97366	0.978188	28.31766	26.87169	0.1237112	1.617397	45.79952
8/11/2014 2:11:06 PM	14:11:06	0	A	1	-1	0	0	0	0	0	83.28028	83.32435	82.15836	14.28638	38.435	82.97179	-0.3015443	82.83958	-0.2740002	14.27622	2.000046E-02	0	3	1	0.15	-2	0.6000977	-2.285168E-04	13.98986	0.979245	28.31766	26.74356	0.115368	1.508318	42.71073
8/11/2014 2:11:16 PM	14:11:16	0	A	1	-1	0	0	0	0	0	83.41249	83.05993	82.12415	14.2875	37.175	82.88364	-0.2965137	82.75143	-0.3209991	14.27601	0.0189991	0	3	1	0.15	-2	0.6000977	-2.285168E-04	13.99099	0.9792466	28.26869	26.59765	0.1153761	1.508424	42.71375
8/11/2014 2:11:26 PM	14:11:26	0	A	1	-1	0	0	0	0	0	83.36842	83.104	82.12415	14.2875	37.175	83.01585	-0.3015443	82.88364	-0.2819996	14.27695	2.099991E-02	0	3	1	0.15	-2	0.6000977	-2.285168E-04	13.98596	0.9788945	28.34214	26.59178	0.1182119	1.5455	43.76361
8/11/2014 2:11:36 PM	14:11:36	0	A	1	-1	0	0	0	0	0	83.23621	83.19214	82.13272	14.28675	36.535	82.92772	-0.3015443	82.66329	-0.3530006	14.27504	2.000046E-02	0	3	1	0.15	-2	0.6000977	-2.285168E-04	13.98019	0.9785424	28.29318	26.61019	0.1153812	1.508491	42.71564
8/11/2014 2:11:46 PM	14:11:46	0	A	1	-1	0	0	0	0	0	83.23621	83.32435	82.14124	14.28563	37.58	82.83958	-0.3015443	82.70737	-0.3029995	14.27413	2.099991E-02	0	3	1	0.15	-2	0.6000977	-2.285168E-04	13.98408	0.9788918	28.24421	26.71321	0.1182187	1.545589	43.76612
8/11/2014 2:11:56 PM	14:11:56	0	A	1	-1	0	0	1	0	0	83.23621	83.28028	82.14124	14.28563	37.58	82.92772	-0.2965137	82.66329	-0.3150005	14.27366	2.099991E-02	0	3	1	0.15	-2	0.6000977	-2.285168E-04	13.98408	0.9788918	28.29318	26.68889	0.1182214	1.545624	43.76712
8/11/2014 2:12:06 PM	14:12:06	0	A	1	-1	0	0	0	0	0	83.23621	83.19214	82.12415	14.28638	37.12	82.97179	-0.2965137	82.70737	-0.3150005	14.27503	2.099991E-02	0	3	1	0.15	-2	0.3999023	-2.285168E-04	13.98986	0.979245	28.31766	26.67055	0.1182224	1.545637	43.7675
8/11/2014 2:12:16 PM	14:12:16	0	A	1	-1	0	0	0	0	0	83.23621	83.19214	82.10703	14.286	36.97501	83.104	-0.3015443	82.70737	-0.3330002	14.27447	2.199936E-02	0	3	1	0.15	-2	0.6000977	-2.285168E-04	13.98446	0.9788923	28.39112	26.64027	0.1209989	1.581937	44.79538
8/11/2014 2:12:26 PM	14:12:26	0	A	1	-1	0	0	0	0	0	83.28028	83.05993	82.10703	14.286	36.97501	82.83958	-0.3015443	82.83958	-0.3110008	14.2749	2.300072E-02	0	3	1	0.15	-2	0.6000977	-2.285168E-04	13.97944	0.9785413	28.24421	26.53705	0.1209866	1.581775	44.79082
8/11/2014 2:12:36 PM	14:12:36	0	A	1	-1	0	0	0	0	0	83.23621	83.23621	82.14124	14.28563	37.175	83.01585	-0.3065595	82.75143	-0.3199997	14.27453	2.000046E-02	0	3	1	0.15	-2	0.6000977	-2.285168E-04	13.97907	0.9785407	28.34214	26.63437	0.1182158	1.54555	43.76502
8/11/2014 2:12:46 PM	14:12:46	0	A	1	-1	0	0	0	0	0	83.41249	83.41249	82.1156	14.28525	37.74001	82.97179	-0.3065595	82.70737	-0.3209991	14.27354	2.099991E-02	0	3	1	0.15	-2	0.6000977	-2.285168E-04	13.97869	0.9785401	28.31766	26.73165	0.112517	1.471045	41.65528
8/11/2014 2:12:56 PM	14:12:56	0	A	1	-1	0	0	0	0	0	83.28028	83.23621	82.1156	14.28525	37.74001	82.92772	-0.3065595	82.66329	-0.3649998	14.27539	2.000046E-02	0	3	1	0.15	-2	0.6000977	-1.522825E-04	13.97869	0.9785401	28.29318	26.78031	0.1153826	1.508509	42.71616
8/11/2014 2:13:06 PM	14:13:06	0	A	1	-1	0	0	0	0	0	83.28028	83.01585	82.12415	14.28638	38.16499	82.92772	-0.3015443	82.66329	-0.3339996	14.27514	2.099991E-02	0	3	1	0.15	-2	0.6000977	-1.522825E-04	13.98483	0.9788929	28.29318	26.54292	0.1182275	1.545703	43.76937
8/11/2014 2:13:16 PM	14:13:16	0	A	1	-1	0	0	1	0	0	83.32435	83.104	82.10703	14.28638	37.77499	82.97179	-0.3015443	82.70737	-0.3220005	14.27467	2.000046E-02	0	3	1	0.15	-2	0.3999023	-2.285168E-04	13.98483	0.9788929	28.31766	26.59165	0.1153752	1.508412	42.71341
8/11/2014 2:13:26 PM	14:13:26	0	A	1	-1	0	0	0	0	0	83.28028	83.28028	82.10703	14.28638	37.77499	82.97179	-0.3015443	82.70737	-0.2859993	14.27611	0.0189991	0	3	1	0.15	-2	0.6000977	-2.285168E-04	13.98483	0.9788929	28.31766	26.68896	0.1210059	1.582028	44.79796
8/11/2014 2:13:36 PM	14:13:36	0	A	1	-1	0	0	0	0	0	83.32435	83.23621	82.08997	14.28563	37.78	83.05993	-0.3015443	82.92772	-0.3320007	14.27334	0.0189991	0	3	1	0.15	-2	0.6000977	-2.285168E-04	13.98408	0.9788918	28.36663	26.66455	0.1124943	1.470747	41.64685
8/11/2014 2:13:46 PM	14:13:46	0	A	1	-2	0	0	0	0	0	83.32435	83.32435	82.08997	14.28638	37.98	83.05993	-0.3015443	82.88364	-0.2830009	14.27499	2.000046E-02	0	3	1	0.15	-2	0.6000977	-3.045651E-04	13.98986	0.979245	28.36663	26.74356	0.1153585	1.508194	42.70722
8/11/2014 2:13:56 PM	14:13:56	0	A	1	-1	0	0	0	0	0	83.36842	83.05993	82.08997	14.28638	37.98	82.88364	-0.2965137	82.75143	-0.3500004	14.27532	0.0189991	0	3	1	0.15	-2	0.6000977	-2.285168E-04	13.98986	0.979245	28.26869	26.59751	0.1125196	1.471079	41.65623
8/11/2014 2:14:06 PM	14:14:06	0	A	1	-1	0	0	0	0	0	83.36842	82.97179	82.10703	14.286	37.66499	83.104	-0.2965137	82.83958	-0.3269997	14.27592	2.099991E-02	0	3	1	0.15	-2	0.6000977	-2.285168E-04	13.99452	0.9795966	28.39112	26.57903	0.1209909	1.581832	44.79241
8/11/2014 2:14:16 PM	14:14:16	0	A	1	-1	0	0	0	0	0	83.36842	82.88364	82.06433	14.286	37.37	83.01585	-0.2965137	82.75143	-0.3479996	14.27346	2.099991E-02	0	3	1	0.15	-2	0.6000977	-2.285168E-04	13.98949	0.9792445	28.34214	26.50013	0.1153658	1.50829	42.70994
8/11/2014 2:14:26 PM	14:14:26	0	A	1	-1	0	0	0	0	0	83.36842	83.05993	82.06433	14.286	37.37	83.05993	-0.2965137	82.7955	-0.3390007	14.2748	2.199936E-02	0	3	1	0.15	-2	0.3999023	-2.285168E-04	13.98446	0.9788923	28.36663	26.56723	0.1153667	1.508301	42.71027
8/11/2014 2:14:36 PM	14:14:36	0	A	1	-1	0	0	0	0	0	83.36842	83.32435	82.06433	14.28488	37.75	83.01585	-0.3015443	82.75143	-0.3540001	14.27187	2.000046E-02	0	3	1	0.15	-2	0.6000977	-2.285168E-04	13.97832	0.9785396	28.34214	26.68293	0.1153594	1.508205	42.70755
8/11/2014 2:14:46 PM	14:14:46	0	A	1	-1	0	0	0	0	0	83.36842	83.36842	82.04721	14.2875	38.145	83.19214	-0.3015443	82.7955	-0.3220005	14.27709	2.199936E-02	0	3	1	0.15	-2	0.6000977	-3.045651E-04	13.98596	0.9788945	28.44008	26.73779	0.1182218	1.545628	43.76724
8/11/2014 2:14:56 PM	14:14:56	0	A	1	-1	0	0	1	0	0	83.36842	83.01585	82.04721	14.2875	38.145	83.01585	-0.3015443	82.88364	-0.3290005	14.27601	2.199936E-02	0	3	1	0.15	-2	0.6000977	-2.285168E-04	13.98596	0.9788945	28.34214	26.54305	0.1209865	1.581775	44.7908
8/11/2014 2:15:06 PM	14:15:06	0	A	1	-1	0	0	0	0	0	83.32435	82.88364	82.03009	14.286	37.535	82.97179	-0.3015443	82.83958	-0.3379993	14.27389	2.199936E-02	0	3	1	0.15	-2	0.6000977	-2.285168E-04	13.98446	0.9788923	28.31766	26.46988	0.1209776	1.581657	44.78748
8/11/2014 2:15:16 PM	14:15:16	0	A	1	-1	0	0	0	0	0	83.32435	82.88364	82.00443	14.286	37.785	82.97179	-0.2965137	82.83958	-0.4069996	14.27577	2.199936E-02	0	3	1	0.15	-2	0.6000977	-1.522825E-04	13.98949	0.9792445	28.31766	26.50013	0.1237116	1.617402	45.79964
8/11/2014 2:15:26 PM	14:15:26	0	A	1	-1	0	0	0	0	0	83.32435	82.75143	82.00443	14.286	37.785	83.01585	-0.2965137	82.88364	-0.3549995	14.27418	2.400017E-02	0	3	1	0.15	-2	0.7998047	-2.285168E-04	13.98949	0.9792445	28.34214	26.42712	0.1236998	1.617249	45.7953
8/11/2014 2:15:36 PM	14:15:36	0	A	1	-2	0	0	0	0	0	83.45657	82.44294	82.013	14.286	37.67999	83.05993	-0.3015443	82.92772	-0.3339996	14.27444	2.300072E-02	0	3	1	0.15	-2	0.7998047	-2.285168E-04	13.98446	0.9788923	28.36663	26.22652	0.1265083	1.653965	46.83501
8/11/2014 2:15:46 PM	14:15:46	0	A	1	-1	0	0	0	0	0	83.28028	82.66329	81.99591	14.28675	37.36	82.92772	-0.2965137	82.7955	-0.323	14.27417	0.0189991	0	3	1	0.15	-2	0.6000977	-2.285168E-04	13.99024	0.9792455	28.29318	26.37853	0.1125107	1.470962	41.65294
8/11/2014 2:15:56 PM	14:15:56	0	A	1	-1	0	0	0	0	0	83.41249	82.88364	81.99591	14.28675	37.36	83.01585	-0.2965137	82.75143	-0.3360004	14.27771	2.000046E-02	0	3	1	0.15	-2	0.6000977	-2.285168E-04	13.99024	0.9792455	28.34214	26.50019	0.1154509	1.509403	42.74146
8/11/2014 2:16:06 PM	14:16:06	0	A	1	-1	0	0	0	0	0	83.41249	82.88364	81.97025	14.28675	37.645	82.92772	-0.3015443	82.7955	-0.3309994	14.27425	2.199936E-02	0	3	1	0.15	-2	0.3999023	-2.285168E-04	13.98521	0.9788935	28.29318	26.46998	0.1209885	1.581801	44.79153
8/11/2014 2:16:16 PM	14:16:16	0	A	1	-1	0	0	0	0	0	83.28028	82.88364	81.96167	14.28638	37.465	82.97179	-0.2965137	82.83958	-0.3419991	14.27586	2.099991E-02	0	3	1	0.15	-2	0.3999023	-1.522825E-04	13.98986	0.979245	28.31766	26.50016	0.118212	1.545501	43.76363
8/11/2014 2:16:26 PM	14:16:26	0	A	1	-1	0	0	1	0	0	83.41249	82.75143	81.96167	14.28638	37.465	83.05993	-0.2965137	82.88364	-0.3840008	14.2743	2.099991E-02	0	3	1	0.15	-2	0.3999023	-2.285168E-04	13.98986	0.979245	28.36663	26.42716	0.118201	1.545356	43.75955
8/11/2014 2:16:36 PM	14:16:36	0	A	1	-1	0	0	0	0	0	83.41249	82.92772	81.93604	14.286	37.905	82.88364	-0.2965137	82.75143	-0.2940006	14.27342	2.199936E-02	0	3	1	0.15	-2	0.6000977	-1.522825E-04	13.98949	0.9792445	28.26869	26.52447	0.1209898	1.581817	44.79199
8/11/2014 2:16:46 PM	14:16:46	0	A	1	-1	0	0	0	0	0	83.28028	83.01585	81.93604	14.28563	37.895	82.88364	-0.3015443	82.88364	-0.3330002	14.27323	2.300072E-02	0	3	1	0.15	-2	0.6000977	-2.285168E-04	13.98911	0.9792439	28.26869	26.57306	0.1209748	1.581621	44.78644
8/11/2014 2:16:56 PM	14:16:56	0	A	1	-1	0	0	0	0	0	83.28028	82.88364	81.93604	14.28563	37.895	82.88364	-0.3015443	82.75143	-0.3209991	14.27431	2.300072E-02	0	3	1	0.15	-2	0.6000977	-2.285168E-04	13.98408	0.9788918	28.26869	26.46981	0.1237149	1.617445	45.80088
8/11/2014 2:17:06 PM	14:17:06	0	A	1	-1	0	0	0	0	0	83.32435	83.28028	81.89328	14.28525	37.42999	82.88364	-0.3015443	82.61922	-0.3290005	14.27285	2.300072E-02	0	3	1	0.15	-2	0.3999023	-1.522825E-04	13.98371	0.9788912	28.26869	26.68883	0.1237231	1.617552	45.8039
8/11/2014 2:17:16 PM	14:17:16	0	A	1	-1	0	0	0	0	0	83.32435	83.23621	81.87619	14.28488	38.235	82.7955	-0.3065595	82.66329	-0.3379993	14.27324	2.000046E-02	0	3	1	0.15	-2	0.6000977	-1.522825E-04	13.98333	0.9788907	28.21972	26.66445	0.1153739	1.508396	42.71294
8/11/2014 2:17:26 PM	14:17:26	0	A	1	-1	0	0	0	0	0	83.19214	83.58878	81.87619	14.28488	38.235	83.01585	-0.3065595	82.75143	-0.3379993	14.27346	0.0189991	0	3	1	0.15	-2	0.6000977	-2.285168E-04	13.97832	0.9785396	28.34214	26.82894	0.1182113	1.545491	43.76337
8/11/2014 2:17:36 PM	14:17:36	0	A	1	-1	0	0	0	0	0	83.23621	83.5447	81.88477	14.28563	38.745	83.01585	-0.3065595	82.75143	-0.3080006	14.27511	2.000046E-02	0	3	1	0.15	-2	0.3999023	-2.285168E-04	13.97907	0.9785407	28.34214	26.80473	0.1182182	1.545581	43.76591
8/11/2014 2:17:46 PM	14:17:46	0	A	1	-1	0	0	0	0	0	83.23621	83.36842	81.90182	14.28488	38.44501	82.97179	-0.3065595	82.70737	-0.3309994	14.27299	0.0189991	0	3	1	0.15	-2	0.6000977	-2.285168E-04	13.97329	0.9781874	28.31766	26.67699	0.1125148	1.471016	41.65446
8/11/2014 2:17:56 PM	14:17:56	0	A	1	-1	0	0	0	0	0	83.23621	83.50063	81.90182	14.28488	38.44501	82.88364	-0.3115901	82.75143	-0.3369999	14.27273	2.099991E-02	0	3	1	0.15	-2	0.6000977	-2.285168E-04	13.97329	0.9781874	28.26869	26.75	0.1182083	1.545452	43.76226
8/11/2014 2:18:06 PM	14:18:06	0	A	1	-1	0	0	0	0	0	83.23621	83.45657	81.88477	14.28675	38.845	82.88364	-0.3115901	82.75143	-0.3250008	14.27287	2.099991E-02	0	3	1	0.15	-2	0.3999023	-1.522825E-04	13.98019	0.9785424	28.26869	26.7562	0.1209874	1.581786	44.79113
8/11/2014 2:18:16 PM	14:18:16	0	A	1	-1	0	0	1	0	0	83.28028	83.28028	81.90182	14.28525	38.575	82.97179	-0.3115901	82.70737	-0.3099995	14.27351	2.199936E-02	0	3	1	0.15	-2	0.7998047	-3.045651E-04	13.97366	0.978188	28.31766	26.62837	0.1209948	1.581883	44.79388
8/11/2014 2:18:26 PM	14:18:26	0	A	1	-1	0	0	0	0	0	83.19214	83.36842	81.90182	14.28525	38.575	82.7955	-0.3166207	82.66329	-0.3150005	14.27333	2.000046E-02	0	3	1	0.15	-2	0.6000977	-2.285168E-04	13.97366	0.978188	28.21972	26.67706	0.1153743	1.5084	42.71307
8/11/2014 2:18:36 PM	14:18:36	0	A	1	-1	0	0	0	0	0	83.45657	83.58878	81.9104	14.28525	37.78999	83.14807	-0.3115901	82.88364	-0.3239994	14.27318	0.0189991	0	3	1	0.15	-2	0.3999023	-2.285168E-04	13.96863	0.9778358	28.4156	26.76841	0.1181963	1.545296	43.75782
8/11/2014 2:18:46 PM	14:18:46	0	A	1	-1	0	0	0	0	0	83.94134	84.20576	81.91895	14.28563	38.03999	83.58878	-0.3115901	83.32435	-0.309	14.27471	0.0189991	0	3	1	0.15	-2	0.3999023	-1.522825E-04	13.97404	0.9781886	28.66043	27.13944	0.1124602	1.470301	41.63422
8/11/2014 2:18:56 PM	14:18:56	0	A	1	-1	0	0	0	0	0	84.02948	84.51426	81.91895	14.28563	38.03999	83.8532	-0.3166207	83.58878	-0.3659992	14.27739	1.799965E-02	0	3	1	0.15	-2	0.3999023	-1.522825E-04	13.97404	0.9781886	28.80734	27.30972	0.1124444	1.470095	41.62838
8/11/2014 2:19:06 PM	14:19:06	0	A	1	-1	0	0	0	0	0	84.07355	84.38205	81.9104	14.28675	38.235	83.50063	-0.3115901	83.63285	-0.3309994	14.27489	0.0189991	0	3	1	0.15	-2	0.6000977	-1.522825E-04	13.97516	0.9781902	28.61146	27.09091	0.1152816	1.507189	42.67876
8/11/2014 2:19:16 PM	14:19:16	0	A	1	-1	0	0	1	0	0	83.94134	84.24983	81.9104	14.28525	36.63	83.41249	-0.3115901	83.41249	-0.3409996	14.27271	2.300072E-02	0	3	1	0.15	-2	0.7998047	-2.285168E-04	13.97366	0.978188	28.5625	27.16372	0.118139	1.544547	43.73662
8/11/2014 2:19:26 PM	14:19:26	0	A	1	-1	0	0	0	0	0	83.80913	83.94134	81.9104	14.28525	36.63	83.23621	-0.3115901	83.23621	-0.2999992	14.27419	2.199936E-02	0	3	1	0.15	-2	0.6000977	-1.522825E-04	13.97366	0.978188	28.46457	26.99336	0.1181636	1.544868	43.74571
8/11/2014 2:19:36 PM	14:19:36	0	A	1	-1	0	0	0	0	0	83.98541	83.98541	81.9104	14.28563	36.8	83.36842	-0.3115901	83.23621	-0.3150005	14.27377	2.300072E-02	0	3	1	0.15	-2	0.3999023	-2.285168E-04	13.97404	0.9781886	28.53801	27.01774	0.1236594	1.61672	45.78035
8/11/2014 2:19:46 PM	14:19:46	0	A	1	-1	0	0	0	0	0	83.76506	84.38205	81.90182	14.28525	37.94501	83.28028	-0.3065595	83.28028	-0.3150005	14.27372	2.199936E-02	0	3	1	0.15	-2	0.6000977	-2.285168E-04	13.97869	0.9785401	28.48905	27.26703	0.118157	1.544782	43.74328
8/11/2014 2:19:56 PM	14:19:56	0	A	1	-1	0	0	0	0	0	83.76506	84.29391	81.90182	14.28525	37.94501	83.32435	-0.3065595	83.19214	-0.3279991	14.27318	2.199936E-02	0	3	1	0.15	-2	0.6000977	-1.522825E-04	13.97366	0.978188	28.51353	27.18803	0.1236617	1.61675	45.78119
8/11/2014 2:20:06 PM	14:20:06	0	A	1	-1	0	0	0	0	0	83.98541	84.33797	81.92752	14.28563	38.11	83.58878	-0.3115901	83.32435	-0.3479996	14.27153	2.300072E-02	0	3	1	0.15	-2	0.6000977	-1.522825E-04	13.97404	0.9781886	28.66043	27.21241	0.1236401	1.616467	45.77318
8/11/2014 2:20:16 PM	14:20:16	0	A	1	-1	0	0	0	0	0	83.94134	84.1617	81.90182	14.28563	37.07001	83.58878	-0.3115901	83.32435	-0.3619995	14.27399	2.000046E-02	0	3	1	0.15	-2	0.6000977	-2.285168E-04	13.97907	0.9785407	28.66043	27.1454	0.1153094	1.507552	42.68906
8/11/2014 2:20:26 PM	14:20:26	0	A	1	-1	0	0	0	0	0	83.89727	84.1617	81.90182	14.28563	37.07001	83.36842	-0.3065595	83.32435	-0.3869991	14.27627	2.199936E-02	0	3	1	0.15	-2	0.7998047	-2.285168E-04	13.97404	0.9781886	28.53801	27.11509	0.1264719	1.65349	46.82156
8/11/2014 2:20:36 PM	14:20:36	0	A	1	-1	0	0	0	0	0	84.02948	84.24983	81.9104	14.28525	37	83.41249	-0.3115901	83.14807	-0.3150005	14.27322	2.400017E-02	0	3	1	0.15	-2	0.6000977	-2.285168E-04	13.97366	0.978188	28.5625	27.16372	0.1264782	1.653572	46.82387
8/11/2014 2:20:46 PM	14:20:46	0	A	1	-1	0	0	0	0	0	84.11762	84.24983	81.9104	14.28525	37.265	83.45657	-0.3115901	83.32435	-0.3010006	14.27333	2.199936E-02	0	3	1	0.15	-2	0.6000977	-2.285168E-04	13.97366	0.978188	28.58698	27.16372	0.120928	1.581009	44.76912
8/11/2014 2:20:56 PM	14:20:56	0	A	1	-1	0	0	0	0	0	83.89727	84.33797	81.9104	14.28525	37.265	83.50063	-0.3115901	83.23621	-0.2980003	14.27343	2.199936E-02	0	3	1	0.15	-2	0.7998047	-2.285168E-04	13.97366	0.978188	28.61146	27.21237	0.123658	1.616701	45.7798
8/11/2014 2:21:06 PM	14:21:06	0	A	1	-1	0	0	0	0	0	84.02948	84.9109	81.91895	14.28563	38.125	83.58878	-0.3166207	83.32435	-0.3409996	14.27424	2.000046E-02	0	3	1	0.15	-2	0.6000977	-2.285168E-04	13.97404	0.9781886	28.66043	27.52874	0.1153105	1.507566	42.68944
8/11/2014 2:21:16 PM	14:21:16	0	A	1	-1	0	0	0	0	0	83.94134	84.95496	81.93604	14.28675	38.92999	83.63285	-0.3115901	83.104	-0.3320007	14.27501	2.000046E-02	0	3	1	0.15	-2	0.6000977	-2.285168E-04	13.97516	0.9781902	28.68492	27.55322	0.115336	1.5079	42.69891
8/11/2014 2:21:26 PM	14:21:26	0	A	1	-1	0	0	0	0	0	83.89727	84.02948	81.93604	14.28675	38.92999	83.45657	-0.3015443	83.19214	-0.3320007	14.27526	2.099991E-02	0	3	1	0.15	-2	0.6000977	-2.285168E-04	13.98521	0.9788935	28.58698	27.10275	0.1181726	1.544986	43.74906
8/11/2014 2:21:36 PM	14:21:36	0	A	1	-1	0	0	0	0	0	83.8532	83.94134	81.92752	14.28638	36.965	83.58878	-0.3065595	83.32435	-0.2749996	14.27394	2.000046E-02	0	3	1	0.15	-2	0.3999023	-2.285168E-04	13.97982	0.9785419	28.66043	27.02381	0.1124571	1.470262	41.6331
8/11/2014 2:21:46 PM	14:21:46	0	A	1	-1	0	0	0	0	0	83.94134	83.5447	81.93604	14.28563	36.44	83.45657	-0.3015443	83.19214	-0.2970009	14.27446	2.099991E-02	0	3	1	0.15	-2	0.6000977	-2.285168E-04	13.98408	0.9788918	28.58698	26.8349	0.1153248	1.507754	42.69476
8/11/2014 2:21:56 PM	14:21:56	0	A	1	-1	0	0	0	0	0	83.98541	84.02948	81.93604	14.28563	36.44	83.45657	-0.3065595	83.05993	-0.3169994	14.27424	1.799965E-02	0	3	1	0.15	-2	0.6000977	-2.285168E-04	13.97907	0.9785407	28.58698	27.0724	0.1095634	1.43243	40.56182
8/11/2014 2:22:06 PM	14:22:06	0	A	1	-1	0	0	0	0	0	83.98541	84.11762	81.93604	14.28638	37.27499	83.50063	-0.3115901	83.104	-0.3080006	14.2755	2.700043E-02	0	3	1	0.15	-2	0.6000977	-2.285168E-04	13.97478	0.9781897	28.61146	27.09085	0.1340275	1.752272	49.61872
8/11/2014 2:22:16 PM	14:22:16	0	A	1	-2	0	0	0	0	0	83.8532	83.76506	81.93604	14.28563	36.925	83.58878	-0.3115901	83.19214	-0.3220005	14.27337	2.499962E-02	0	3	1	0.15	-2	0.6000977	-2.285168E-04	13.97907	0.9785407	28.66043	26.92639	0.1290119	1.686699	47.76191
8/11/2014 2:22:26 PM	14:22:26	0	A	1	-1	0	0	0	0	0	83.80913	83.98541	81.93604	14.28563	36.925	83.50063	-0.3065595	83.23621	-0.2970009	14.2763	2.499962E-02	0	3	1	0.15	-2	0.6000977	-3.045651E-04	13.97907	0.9785407	28.61146	27.04805	0.1315689	1.720129	48.70854
8/11/2014 2:22:36 PM	14:22:36	0	A	1	-1	0	0	0	0	0	83.80913	83.58878	81.94461	14.286	36.72	83.41249	-0.3065595	83.14807	-0.3339996	14.27404	2.400017E-02	0	3	1	0.15	-2	0.6000977	-3.045651E-04	13.98446	0.9788923	28.5625	26.85929	0.1209499	1.581295	44.77723
8/11/2014 2:22:46 PM	14:22:46	0	A	1	-1	0	0	0	0	0	83.58878	83.32435	81.94461	14.28563	36.155	83.41249	-0.3065595	83.01585	-0.3040009	14.27471	2.400017E-02	0	3	1	0.15	-2	0.7998047	-3.045651E-04	13.98408	0.9788918	28.5625	26.71321	0.1264996	1.653852	46.8318
8/11/2014 2:22:56 PM	14:22:56	0	A	1	-1	0	0	0	0	0	83.63285	83.67692	81.94461	14.28563	36.155	83.41249	-0.3065595	83.01585	-0.3330002	14.27431	2.199936E-02	0	3	1	0.15	-2	0.6000977	-2.285168E-04	13.98408	0.9788918	28.5625	26.90791	0.1209652	1.581496	44.78289
8/11/2014 2:23:06 PM	14:23:06	0	A	1	-1	0	0	0	0	0	83.80913	83.67692	81.91895	14.28675	36.14	83.50063	-0.3065595	83.104	-0.3360004	14.27388	2.499962E-02	0	3	1	0.15	-2	0.6000977	-2.285168E-04	13.9852	0.9788935	28.61146	26.90804	0.1290243	1.68686	47.76648
8/11/2014 2:23:16 PM	14:23:16	0	A	1	-1	0	0	0	0	0	83.76506	83.50063	81.91895	14.286	35.69501	83.36842	-0.3015443	83.104	-0.2970009	14.274	2.499962E-02	0	3	1	0.15	-2	0.6000977	-2.285168E-04	13.98949	0.9792445	28.53801	26.84087	0.1290248	1.686867	47.76668
8/11/2014 2:23:26 PM	14:23:26	0	A	1	-1	0	0	0	0	0	83.94134	83.32435	81.91895	14.286	35.69501	83.45657	-0.3015443	83.32435	-0.3519993	14.27566	2.300072E-02	0	3	1	0.15	-2	0.7998047	-2.285168E-04	13.98446	0.9788923	28.58698	26.71328	0.123658	1.616701	45.7798
8/11/2014 2:23:36 PM	14:23:36	0	A	1	-1	0	0	0	0	0	84.02948	83.23621	81.91895	14.28675	35.52	83.63285	-0.3015443	83.36842	-0.3290005	14.27486	2.300072E-02	0	3	1	0.15	-2	0.7998047	-2.285168E-04	13.99024	0.9792455	28.68492	26.69497	0.1209298	1.581033	44.76978
8/11/2014 2:23:46 PM	14:23:46	0	A	1	-1	0	0	0	0	0	83.89727	83.67692	81.90182	14.286	34.82001	83.67692	-0.3015443	83.28028	-0.3120003	14.27418	2.199936E-02	0	3	1	0.15	-2	0.6000977	-1.522825E-04	13.98949	0.9792445	28.7094	26.93826	0.1209363	1.581118	44.77221
8/11/2014 2:23:56 PM	14:23:56	0	A	1	-1	0	0	0	0	0	83.89727	83.67692	81.90182	14.286	34.82001	83.36842	-0.2965137	83.104	-0.3349991	14.27371	2.400017E-02	0	3	1	0.15	-2	0.7998047	-2.285168E-04	13.98446	0.9788923	28.61146	26.90798	0.1236737	1.616906	45.78561
8/11/2014 2:24:06 PM	14:24:06	0	A	1	-1	0	0	0	0	0	83.80913	83.72099	81.90182	14.28525	35.39	83.5447	-0.3015443	83.01585	-0.3150005	14.27394	2.400017E-02	0	3	1	0.15	-2	0.6000977	-1.522825E-04	13.98371	0.9788912	28.63595	26.93219	0.1236843	1.617045	45.78955
8/11/2014 2:24:16 PM	14:24:16	0	A	1	-1	0	0	0	0	0	83.72099	83.94134	81.89328	14.28525	35.58501	83.5447	-0.3065595	83.01585	-0.3449993	14.27455	2.400017E-02	0	3	1	0.15	-2	0.6000977	-2.285168E-04	13.97869	0.9785401	28.63595	27.02367	0.123687	1.61708	45.79053
8/11/2014 2:24:26 PM	14:24:26	0	A	1	-1	0	0	0	0	0	83.63285	83.8532	81.89328	14.28525	35.58501	83.41249	-0.3065595	83.01585	-0.3339996	14.27296	2.300072E-02	0	3	1	0.15	-2	0.3999023	-2.285168E-04	13.97869	0.9785401	28.5625	26.97498	0.1236801	1.61699	45.78798
8/11/2014 2:24:36 PM	14:24:36	0	A	1	-2	0	0	0	0	0	83.72099	84.24983	81.87619	14.28488	36.03	83.41249	-0.3065595	83.01585	-0.3050003	14.27324	2.700043E-02	0	3	1	0.15	-2	0.3999023	-2.285168E-04	13.97832	0.9785396	28.5625	27.19396	0.1340273	1.75227	49.61868
8/11/2014 2:24:46 PM	14:24:46	0	A	1	-1	0	0	0	0	0	83.67692	84.11762	81.89328	14.28563	36.425	83.32435	-0.3115901	82.92772	-0.3320007	14.27355	2.499962E-02	0	3	1	0.15	-2	0.3999023	-1.522825E-04	13.97907	0.9785407	28.51353	27.12109	0.1265043	1.653915	46.83357
8/11/2014 2:24:56 PM	14:24:56	0	A	1	-1	0	0	1	0	0	83.50063	84.02948	81.89328	14.28563	36.425	83.28028	-0.3115901	82.88364	-0.2959995	14.27395	2.499962E-02	0	3	1	0.15	-2	0.6000977	-2.285168E-04	13.97404	0.9781886	28.48905	27.04205	0.126511	1.654002	46.83604
8/11/2014 2:25:06 PM	14:25:06	0	A	1	-1	0	0	0	0	0	83.45657	84.42612	81.9104	14.28525	36.17999	83.19214	-0.3166207	82.7955	-0.3139992	14.27365	2.300072E-02	0	3	1	0.15	-2	0.3999023	-2.285168E-04	13.97366	0.978188	28.44008	27.26103	0.1265196	1.654114	46.83921
8/11/2014 2:25:16 PM	14:25:16	0	A	1	-1	0	0	0	0	0	83.50063	84.29391	81.92752	14.28563	36.37	83.36842	-0.3166207	82.83958	-0.3719997	14.27395	2.300072E-02	0	3	1	0.15	-2	0.6000977	-1.522825E-04	13.969	0.9778364	28.53801	27.15775	0.1237037	1.617299	45.79673
8/11/2014 2:25:26 PM	14:25:26	0	A	1	-1	0	0	0	0	0	83.50063	84.47018	81.92752	14.28563	36.37	83.32435	-0.3166207	82.92772	-0.2749996	14.27421	2.300072E-02	0	3	1	0.15	-2	0.3999023	-2.285168E-04	13.97404	0.9781886	28.51353	27.28541	0.1209742	1.581613	44.78622
8/11/2014 2:25:36 PM	14:25:36	0	A	1	-1	0	0	0	0	0	83.58878	84.38205	81.92752	14.286	36.02	83.36842	-0.3065595	82.97179	-0.2940006	14.27552	2.400017E-02	0	3	1	0.15	-2	0.3999023	-2.285168E-04	13.97944	0.9785413	28.53801	27.26714	0.120975	1.581624	44.78653
8/11/2014 2:25:46 PM	14:25:46	0	A	1	-1	0	0	0	0	0	83.58878	83.67692	81.91895	14.28488	34.88	83.28028	-0.3065595	82.88364	-0.3080006	14.27328	2.400017E-02	0	3	1	0.15	-2	0.6000977	-2.285168E-04	13.97832	0.9785396	28.48905	26.8776	0.126508	1.653963	46.83493
8/11/2014 2:25:56 PM	14:25:56	0	A	1	-1	0	0	0	0	0	83.72099	83.50063	81.91895	14.28488	34.88	83.28028	-0.3065595	83.01585	-0.323	14.27371	2.300072E-02	0	3	1	0.15	-2	0.6000977	-1.522825E-04	13.97832	0.9785396	28.48905	26.78028	0.1236833	1.617032	45.78918
8/11/2014 2:26:06 PM	14:26:06	0	A	1	-1	0	0	0	0	0	83.80913	83.45657	81.94461	14.28488	34.44	83.36842	-0.3015443	83.104	-0.3010006	14.27317	2.199936E-02	0	3	1	0.15	-2	0.6000977	-2.285168E-04	13.98333	0.9788907	28.53801	26.78614	0.1209509	1.581309	44.77761
8/11/2014 2:26:16 PM	14:26:16	0	A	1	-1	0	0	0	0	0	83.76506	83.28028	81.94461	14.28525	33.80499	83.45657	-0.3065595	83.05993	-0.2929993	14.27351	2.300072E-02	0	3	1	0.15	-2	0.3999023	-2.285168E-04	13.97869	0.9785401	28.58698	26.65865	0.1236776	1.616958	45.78706
8/11/2014 2:26:26 PM	14:26:26	0	A	1	-1	0	0	0	0	0	83.89727	83.58878	81.94461	14.28525	33.80499	83.58878	-0.3015443	83.05993	-0.4060001	14.27361	2.099991E-02	0	3	1	0.15	-2	0.3999023	-2.285168E-04	13.97869	0.9785401	28.66043	26.829	0.1181797	1.545078	43.75166
8/11/2014 2:26:36 PM	14:26:36	0	A	1	-1	0	0	0	0	0	83.80913	83.89727	81.96167	14.28563	34.38	83.5447	-0.3065595	83.01585	-0.3519993	14.27287	2.300072E-02	0	3	1	0.15	-2	0.3999023	-2.285168E-04	13.97907	0.9785407	28.63595	26.99939	0.1236797	1.616985	45.78783
8/11/2014 2:26:46 PM	14:26:46	0	A	1	-1	0	0	0	0	0	83.98541	83.72099	81.97025	14.28488	34.42	83.72099	-0.2965137	83.05993	-0.2779999	14.27389	2.499962E-02	0	3	1	0.15	-2	0.7998047	-1.522825E-04	13.98836	0.9792429	28.73388	26.96243	0.1290294	1.686927	47.76836
8/11/2014 2:26:56 PM	14:26:56	0	A	1	-1	0	0	0	0	0	83.72099	83.50063	81.97025	14.28488	34.42	83.63285	-0.3015443	83.104	-0.3190002	14.27324	2.099991E-02	0	3	1	0.15	-2	0.7998047	-2.285168E-04	13.98836	0.9792429	28.68492	26.84074	0.1181735	1.544997	43.74937
8/11/2014 2:27:06 PM	14:27:06	0	A	1	-1	0	0	0	0	0	83.67692	83.28028	81.96167	14.28563	34.235	83.41249	-0.3065595	83.05993	-0.3059998	14.27507	2.199936E-02	0	3	1	0.15	-2	0.6000977	-2.285168E-04	13.97907	0.9785407	28.5625	26.65872	0.1209637	1.581476	44.78234
8/11/2014 2:27:16 PM	14:27:16	0	A	1	-1	0	0	0	0	0	83.67692	83.8532	81.95316	14.28525	34.58	83.32435	-0.3065595	82.92772	-0.3220005	14.2738	2.199936E-02	0	3	1	0.15	-2	0.3999023	-1.522825E-04	13.97869	0.9785401	28.51353	26.97498	0.1209724	1.58159	44.78558
8/11/2014 2:27:26 PM	14:27:26	0	A	1	-1	0	0	0	0	0	83.76506	84.20576	81.95316	14.28525	34.58	83.41249	-0.3115901	82.88364	-0.3369999	14.27314	2.199936E-02	0	3	1	0.15	-2	0.6000977	-2.285168E-04	13.97869	0.9785401	28.5625	27.16968	0.1209744	1.581616	44.7863
8/11/2014 2:27:36 PM	14:27:36	0	A	1	-1	0	0	0	0	0	83.5447	83.89727	81.98737	14.28675	34.75	83.36842	-0.3065595	82.83958	-0.3190002	14.27548	1.799965E-02	0	3	1	0.15	-2	0.6000977	-2.285168E-04	13.97516	0.9781902	28.53801	26.96922	0.1095896	1.432771	40.57149
8/11/2014 2:27:46 PM	14:27:46	0	A	1	-1	0	0	0	0	0	83.63285	84.1617	81.98737	14.28488	34.425	83.36842	-0.3065595	82.83958	-0.3460007	14.27313	2.000046E-02	0	3	1	0.15	-2	0.6000977	-1.522825E-04	13.97329	0.9781874	28.53801	27.11499	0.1125022	1.470851	41.6498
8/11/2014 2:27:56 PM	14:27:56	0	A	1	-1	0	0	0	0	0	83.72099	84.29391	81.98737	14.28488	34.425	83.50063	-0.3115901	82.97179	-0.3400002	14.27342	2.099991E-02	0	3	1	0.15	-2	0.6000977	-2.285168E-04	13.97832	0.9785396	28.61146	27.24265	0.1124902	1.470694	41.64534
8/11/2014 2:28:06 PM	14:28:06	0	A	1	-1	0	0	0	0	0	83.67692	84.38205	82.00443	14.28563	34.83501	83.58878	-0.3115901	83.05993	-0.3150005	14.27431	0.0170002	0	3	1	0.15	-2	0.3999023	-2.285168E-04	13.97404	0.9781886	28.66043	27.23675	0.1064888	1.392231	39.42353
8/11/2014 2:28:16 PM	14:28:16	0	A	1	-1	0	0	0	0	0	83.67692	84.33797	82.00443	14.28563	34.30499	83.58878	-0.3065595	82.92772	-0.3430004	14.2728	0.0189991	0	3	1	0.15	-2	0.3999023	-2.285168E-04	13.97907	0.9785407	28.66043	27.24276	0.1094991	1.431588	40.53799
8/11/2014 2:28:26 PM	14:28:26	0	A	1	-1	0	0	0	0	0	83.72099	84.6024	82.00443	14.28563	34.30499	83.63285	-0.3065595	82.97179	-0.3589993	14.2728	2.000046E-02	0	3	1	0.15	-2	0.6000977	-1.522825E-04	13.97404	0.9781886	28.68492	27.35838	0.1153406	1.50796	42.70061
8/11/2014 2:28:36 PM	14:28:36	0	A	1	-1	0	0	0	0	0	83.76506	84.24983	82.02155	14.28525	34.44501	83.5447	-0.3015443	83.01585	-0.2929993	14.27408	2.099991E-02	0	3	1	0.15	-2	0.6000977	-2.285168E-04	13.98371	0.9788912	28.63595	27.22424	0.1181862	1.545164	43.75409
8/11/2014 2:28:46 PM	14:28:46	0	A	1	-1	0	0	0	0	0	83.5447	83.89727	82.04721	14.28488	34.02499	83.41249	-0.3065595	83.01585	-0.3299999	14.27302	2.099991E-02	0	3	1	0.15	-2	0.6000977	-2.285168E-04	13.97832	0.9785396	28.5625	26.99926	0.1181818	1.545106	43.75246
8/11/2014 2:28:56 PM	14:28:56	0	A	1	-1	0	0	0	0	0	83.41249	83.67692	82.04721	14.28488	34.02499	83.41249	-0.3115901	82.88364	-0.3069992	14.27429	2.000046E-02	0	3	1	0.15	-2	0.3999023	-2.285168E-04	13.97832	0.9785396	28.5625	26.8776	0.1182009	1.545356	43.75952
8/11/2014 2:29:06 PM	14:29:06	0	A	1	-2	0	0	0	0	0	83.58878	84.02948	82.06433	14.28488	34.63	83.41249	-0.3115901	82.75143	-0.2999992	14.27378	0.0189991	0	3	1	0.15	-2	0.6000977	-2.285168E-04	13.97329	0.9781874	28.5625	27.04195	0.1125136	1.470999	41.65399
8/11/2014 2:29:16 PM	14:29:16	0	A	1	-1	0	0	0	0	0	83.50063	84.11762	82.04721	14.2845	34.94501	83.41249	-0.3115901	82.75143	-0.3050003	14.27243	2.099991E-02	0	3	1	0.15	-2	0.3999023	-2.285168E-04	13.96788	0.9778346	28.5625	27.06026	0.1182071	1.545436	43.7618
8/11/2014 2:29:26 PM	14:29:26	0	A	1	-2	0	0	0	0	0	83.80913	84.64647	82.04721	14.2845	34.94501	83.5447	-0.3115901	83.01585	-0.2830009	14.27398	2.000046E-02	0	3	1	0.15	-2	0.3999023	-1.522825E-04	13.97291	0.9781868	28.63595	27.38259	0.1153409	1.507964	42.70071
8/11/2014 2:29:36 PM	14:29:36	0	A	1	-1	0	0	0	0	0	83.72099	84.42612	82.07285	14.28525	35.07001	83.67692	-0.3065595	83.01585	-0.3120003	14.27437	0.0189991	0	3	1	0.15	-2	0.6000977	-1.522825E-04	13.97869	0.9785401	28.7094	27.29135	0.1124895	1.470685	41.6451
8/11/2014 2:29:46 PM	14:29:46	0	A	1	-1	0	0	0	0	0	83.80913	84.02948	82.08997	14.28525	34.045	83.63285	-0.3065595	82.88364	-0.3279991	14.27358	2.000046E-02	0	3	1	0.15	-2	0.6000977	-2.285168E-04	13.97869	0.9785401	28.68492	27.07233	0.1153528	1.508119	42.7051
8/11/2014 2:29:56 PM	14:29:56	0	A	1	-1	0	0	0	0	0	83.76506	84.29391	82.08997	14.28525	34.045	83.5447	-0.3065595	83.01585	-0.3239994	14.27398	0.0189991	0	3	1	0.15	-2	0.6000977	-2.285168E-04	13.97869	0.9785401	28.63595	27.21837	0.112488	1.470665	41.64452
8/11/2014 2:30:06 PM	14:30:06	0	A	1	-1	0	0	0	0	0	83.76506	84.11762	82.12415	14.28563	34.64999	83.45657	-0.3065595	82.92772	-0.3579998	14.27352	1.799965E-02	0	3	1	0.15	-2	0.3999023	-2.285168E-04	13.97907	0.9785407	28.58698	27.12109	0.1095735	1.432561	40.56555
8/11/2014 2:30:16 PM	14:30:16	0	A	1	-2	0	0	0	0	0	83.8532	83.89727	82.1156	14.286	34.685	83.5447	-0.3015443	83.01585	-0.2929993	14.27574	0.0189991	0	3	1	0.15	-2	0.3999023	-2.285168E-04	13.98446	0.9788923	28.63595	27.02964	0.1064982	1.392355	39.42703
8/11/2014 2:30:26 PM	14:30:26	0	A	1	-1	0	0	0	0	0	83.80913	84.1617	82.1156	14.286	34.685	83.63285	-0.3015443	82.97179	-0.2779999	14.27433	1.600075E-02	0	3	1	0.15	-2	0.6000977	-2.285168E-04	13.98949	0.9792445	28.68492	27.206	0.103141	1.348462	38.18414
8/11/2014 2:30:36 PM	14:30:36	0	A	1	-1	0	0	0	0	0	83.67692	84.11762	82.1156	14.286	34.62	83.63285	-0.3015443	82.97179	-0.2999992	14.27722	1.799965E-02	0	3	1	0.15	-2	0.6000977	-1.522825E-04	13.98446	0.9788923	28.68492	27.15134	0.1095834	1.432691	40.56922
8/11/2014 2:30:46 PM	14:30:46	0	A	1	-1	0	0	0	0	0	83.89727	83.94134	82.1156	14.28563	34.38	83.67692	-0.2965137	83.01585	-0.316	14.27435	0.0170002	0	3	1	0.15	-2	0.6000977	-2.285168E-04	13.98911	0.9792439	28.7094	27.08423	0.1095681	1.432491	40.56356
8/11/2014 2:30:56 PM	14:30:56	0	A	1	-1	0	0	0	0	0	83.76506	83.63285	82.1156	14.28563	34.38	83.72099	-0.2965137	83.05993	-0.3190002	14.27377	1.799965E-02	0	3	1	0.15	-2	0.6000977	-2.285168E-04	13.98911	0.9792439	28.73388	26.91384	0.1095616	1.432406	40.56115
8/11/2014 2:31:06 PM	14:31:06	0	A	1	-1	0	0	0	0	0	83.67692	83.58878	82.12415	14.28412	33.98	83.63285	-0.3015443	83.14807	-0.3299999	14.27158	1.799965E-02	0	3	1	0.15	-2	0.6000977	-1.522825E-04	13.98761	0.9792417	28.68492	26.88933	0.1094731	1.431248	40.52836
8/11/2014 2:31:16 PM	14:31:16	0	A	1	-1	0	0	0	0	0	83.76506	83.5447	82.13272	14.28412	34.27499	83.5447	-0.3015443	83.01585	-0.2800007	14.27325	0.0170002	0	3	1	0.15	-2	0.6000977	-2.285168E-04	13.98258	0.9788896	28.63595	26.83474	0.1094923	1.431499	40.53548
8/11/2014 2:31:26 PM	14:31:26	0	A	1	-1	0	0	0	0	0	83.67692	83.5447	82.13272	14.28412	34.27499	83.45657	-0.3015443	82.92772	-0.3419991	14.27289	1.799965E-02	0	3	1	0.15	-2	0.6000977	-2.285168E-04	13.98258	0.9788896	28.58698	26.83474	0.1094994	1.431592	40.53812
8/11/2014 2:31:36 PM	14:31:36	0	A	1	-1	0	0	0	0	0	83.67692	83.41249	82.10703	14.28525	34.56	83.45657	-0.3015443	82.92772	-0.3330002	14.27358	0.0189991	0	3	1	0.15	-2	0.7998047	-2.285168E-04	13.98371	0.9788912	28.58698	26.76183	0.1124952	1.47076	41.64721
8/11/2014 2:31:46 PM	14:31:46	0	A	1	-1	0	0	0	0	0	83.63285	83.5447	82.12415	14.28712	34.245	83.50063	-0.3015443	82.83958	-0.3500004	14.27675	0.0170002	0	3	1	0.15	-2	0.6000977	-3.045651E-04	13.99061	0.9792461	28.61146	26.86535	0.1065186	1.392622	39.43459
8/11/2014 2:31:56 PM	14:31:56	0	A	1	-1	0	0	0	0	0	83.58878	83.50063	82.12415	14.28712	34.245	83.41249	-0.3015443	82.88364	-0.3040009	14.27556	1.799965E-02	0	3	1	0.15	-2	0.6000977	-2.285168E-04	13.99061	0.9792461	28.5625	26.84101	0.1095856	1.43272	40.57004
8/11/2014 2:32:06 PM	14:32:06	0	A	1	-2	0	0	0	0	0	83.58878	83.72099	82.10703	14.28563	34.08	83.45657	-0.3015443	82.7955	-0.3129997	14.27533	1.799965E-02	0	3	1	0.15	-2	0.6000977	-1.522825E-04	13.98408	0.9788918	28.58698	26.93225	0.1095933	1.43282	40.57287
8/11/2014 2:32:16 PM	14:32:16	0	A	1	-1	0	0	0	0	0	83.76506	83.72099	82.10703	14.28488	34.47501	83.63285	-0.3015443	83.104	-0.3390007	14.27154	2.000046E-02	0	3	1	0.15	-2	0.6000977	-2.285168E-04	13.98836	0.9792429	28.68492	26.96243	0.115322	1.507717	42.69373
8/11/2014 2:32:26 PM	14:32:26	0	A	1	-1	0	0	0	0	0	83.72099	83.89727	82.10703	14.28488	34.47501	83.5447	-0.2965137	83.01585	-0.3169994	14.27421	1.799965E-02	0	3	1	0.15	-2	0.6000977	-2.285168E-04	13.98333	0.9788907	28.63595	27.0295	0.1095676	1.432484	40.56336
8/11/2014 2:32:36 PM	14:32:36	0	A	1	-1	0	0	0	0	0	83.63285	83.58878	82.08997	14.28488	33.97501	83.32435	-0.2965137	82.92772	-0.3069992	14.2732	2.000046E-02	0	3	1	0.15	-2	0.6000977	-1.522825E-04	13.98333	0.9788907	28.51353	26.85915	0.1153468	1.508041	42.70288
8/11/2014 2:32:46 PM	14:32:46	0	A	1	-1	0	0	0	0	0	83.63285	83.76506	82.10703	14.28563	34.60001	83.41249	-0.3015443	82.88364	-0.3209991	14.27312	0.0189991	0	3	1	0.15	-2	0.3999023	-1.522825E-04	13.98408	0.9788918	28.5625	26.95657	0.1124978	1.470793	41.64816
8/11/2014 2:32:56 PM	14:32:56	0	A	1	-1	0	0	0	0	0	83.58878	83.67692	82.10703	14.28563	34.60001	83.41249	-0.3015443	82.88364	-0.3050003	14.2746	2.000046E-02	0	3	1	0.15	-2	0.7998047	-3.045651E-04	13.97907	0.9785407	28.5625	26.87773	0.1153569	1.508173	42.70663
8/11/2014 2:33:06 PM	14:33:06	0	A	1	-1	0	0	0	0	0	83.45657	83.89727	82.10703	14.28525	34.88499	83.45657	-0.3065595	82.92772	-0.3299999	14.2738	2.099991E-02	0	3	1	0.15	-2	0.3999023	-2.285168E-04	13.97869	0.9785401	28.58698	26.99933	0.1181943	1.545269	43.75706
8/11/2014 2:33:16 PM	14:33:16	0	A	1	-1	0	0	0	0	0	83.45657	83.89727	82.1156	14.28488	34.815	83.45657	-0.3065595	82.7955	-0.3180008	14.27324	0.0189991	0	3	1	0.15	-2	0.3999023	-2.285168E-04	13.97329	0.9781874	28.58698	26.96898	0.112507	1.470914	41.65158
8/11/2014 2:33:26 PM	14:33:26	0	A	1	-1	0	0	0	0	0	83.32435	84.20576	82.1156	14.28488	34.815	83.36842	-0.3115901	82.70737	-0.2919998	14.27382	1.799965E-02	0	3	1	0.15	-2	0.6000977	-1.522825E-04	13.97329	0.9781874	28.53801	27.1393	0.109596	1.432856	40.57389
8/11/2014 2:33:36 PM	14:33:36	0	A	1	-1	0	0	0	0	0	83.45657	84.24983	82.1156	14.28563	35.855	83.41249	-0.3166207	82.75143	-0.3369999	14.27525	2.000046E-02	0	3	1	0.15	-2	0.6000977	-2.285168E-04	13.97404	0.9781886	28.5625	27.16375	0.1153731	1.508384	42.71262
8/11/2014 2:33:46 PM	14:33:46	0	A	1	-1	0	0	0	0	0	83.58878	84.02948	82.14981	14.2845	35.91499	83.41249	-0.3115901	82.92772	-0.3099995	14.2729	2.199936E-02	0	3	1	0.15	-2	0.3999023	-2.285168E-04	13.97291	0.9781868	28.5625	27.04192	0.1209686	1.581541	44.78417
8/11/2014 2:33:56 PM	14:33:56	0	A	1	-2	0	0	0	0	0	83.45657	83.98541	82.14981	14.2845	35.91499	83.32435	-0.3115901	82.92772	-0.2940006	14.27322	0.0189991	0	3	1	0.15	-2	0.3999023	-2.285168E-04	13.97794	0.978539	28.51353	27.04788	0.1153469	1.508042	42.70292
8/11/2014 2:34:06 PM	14:34:06	0	A	1	-1	0	0	0	0	0	83.45657	84.07355	82.14124	14.28488	35.05499	83.28028	-0.3115901	82.75143	-0.2929993	14.27324	2.099991E-02	0	3	1	0.15	-2	0.6000977	-3.045651E-04	13.97329	0.9781874	28.48905	27.0663	0.1153649	1.508278	42.70961
8/11/2014 2:34:16 PM	14:34:16	0	A	1	-1	0	0	0	0	0	83.50063	83.80913	82.15836	14.28563	34.905	83.19214	-0.3166207	82.7955	-0.3239994	14.27384	0.0189991	0	3	1	0.15	-2	0.6000977	-2.285168E-04	13.969	0.9778364	28.44008	26.89007	0.1153629	1.508251	42.70885
8/11/2014 2:34:26 PM	14:34:26	0	A	1	-1	0	0	0	0	0	83.41249	83.98541	82.15836	14.28563	34.905	83.23621	-0.3115901	82.70737	-0.3180008	14.27428	0.0189991	0	3	1	0.15	-2	0.3999023	-2.285168E-04	13.97404	0.9781886	28.46457	27.01774	0.1125199	1.471083	41.65635
8/11/2014 2:34:36 PM	14:34:36	0	A	1	-2	0	0	0	0	0	83.45657	83.72099	82.18399	14.28412	35.85001	83.23621	-0.3115901	82.70737	-0.2989998	14.27238	0.0189991	0	3	1	0.15	-2	0.3999023	-1.522825E-04	13.97253	0.9781862	28.46457	26.96888	0.1125125	1.470985	41.65358
8/11/2014 2:34:46 PM	14:34:46	0	A	1	-2	0	0	0	0	0	83.50063	83.94134	82.19257	14.28375	35.45	83.41249	-0.3065595	82.75143	-0.3250008	14.2733	0.0189991	0	3	1	0.15	-2	0.6000977	-1.522825E-04	13.97719	0.9785379	28.5625	27.02347	0.1125117	1.470975	41.6533
8/11/2014 2:34:56 PM	14:34:56	0	A	1	-1	0	0	0	0	0	83.45657	84.11762	82.19257	14.28375	35.45	83.36842	-0.3166207	82.83958	-0.3260002	14.27233	2.000046E-02	0	3	1	0.15	-2	0.6000977	-1.522825E-04	13.97216	0.9781857	28.53801	27.09051	0.1153522	1.508112	42.7049
8/11/2014 2:35:06 PM	14:35:06	0	A	1	-1	0	0	0	0	0	83.50063	84.47018	82.19257	14.28412	35.33	83.32435	-0.3115901	82.70737	-0.2770004	14.27216	2.199936E-02	0	3	1	0.15	-2	0.3999023	-2.285168E-04	13.9675	0.977834	28.51353	27.25486	0.1209891	1.581809	44.79176
8/11/2014 2:35:16 PM	14:35:16	0	A	1	-2	0	0	0	0	0	83.5447	84.20576	82.2182	14.28525	36.25	83.28028	-0.3115901	82.75143	-0.323	14.27463	2.199936E-02	0	3	1	0.15	-2	0.3999023	-1.522825E-04	13.97366	0.978188	28.48905	27.13937	0.1209949	1.581884	44.79388
8/11/2014 2:35:26 PM	14:35:26	0	A	1	-1	0	0	0	0	0	83.72099	83.89727	82.2182	14.28525	36.25	83.36842	-0.3115901	82.83958	-0.3059998	14.27448	2.199936E-02	0	3	1	0.15	-2	0.6000977	-2.285168E-04	13.97366	0.978188	28.53801	26.96901	0.1209848	1.581752	44.79016
8/11/2014 2:35:36 PM	14:35:36	0	A	1	-1	0	0	0	0	0	83.58878	83.5447	82.22675	14.28525	34.94	83.32435	-0.3065595	82.7955	-0.3209991	14.27398	2.099991E-02	0	3	1	0.15	-2	0.6000977	-2.285168E-04	13.97366	0.978188	28.51353	26.77438	0.1182089	1.54546	43.76247
8/11/2014 2:35:46 PM	14:35:46	0	A	1	-1	0	0	0	0	0	83.67692	84.02948	82.2182	14.2845	34.17	83.32435	-0.3115901	82.7955	-0.2959995	14.27315	2.400017E-02	0	3	1	0.15	-2	0.7998047	-2.285168E-04	13.97291	0.9781868	28.51353	27.04192	0.1265174	1.654085	46.83839
8/11/2014 2:35:56 PM	14:35:56	0	A	1	-1	0	0	0	0	0	83.50063	83.8532	82.2182	14.2845	34.17	83.32435	-0.3115901	82.7955	-0.3299999	14.2738	2.400017E-02	0	3	1	0.15	-2	0.6000977	-1.522825E-04	13.97794	0.978539	28.51353	26.97488	0.1237079	1.617353	45.79827
8/11/2014 2:36:06 PM	14:36:06	0	A	1	-1	0	0	0	0	0	83.50063	83.8532	82.25241	14.28525	35.12	83.41249	-0.3065595	82.75143	-0.3150005	14.27412	2.199936E-02	0	3	1	0.15	-2	0.6000977	-2.285168E-04	13.97869	0.9785401	28.5625	26.97498	0.1209927	1.581856	44.79309
8/11/2014 2:36:16 PM	14:36:16	0	A	1	-1	0	0	0	0	0	83.50063	83.98541	82.22675	14.28488	34.785	83.32435	-0.3115901	82.7955	-0.3010006	14.27302	2.199936E-02	0	3	1	0.15	-2	0.6000977	-1.522825E-04	13.97832	0.9785396	28.51353	27.04795	0.1209833	1.581733	44.78961
8/11/2014 2:36:26 PM	14:36:26	0	A	1	-1	0	0	0	0	0	83.50063	84.20576	82.22675	14.28488	34.785	83.36842	-0.3115901	82.70737	-0.3349991	14.27136	2.199936E-02	0	3	1	0.15	-2	0.6000977	-2.285168E-04	13.97329	0.9781874	28.53801	27.1393	0.1209857	1.581764	44.79051
8/11/2014 2:36:36 PM	14:36:36	0	A	1	-1	0	0	0	0	0	83.5447	84.07355	82.26096	14.286	35.78999	83.32435	-0.3166207	82.7955	-0.3250008	14.27534	0.0189991	0	3	1	0.15	-2	0.6000977	-1.522825E-04	13.96938	0.977837	28.51353	27.03612	0.1125153	1.471022	41.65464
8/11/2014 2:36:46 PM	14:36:46	0	A	1	-1	0	0	0	0	0	83.67692	84.02948	82.27805	14.28525	35.095	83.32435	-0.3115901	82.7955	-0.3470001	14.27221	1.799965E-02	0	3	1	0.15	-2	0.3999023	-1.522825E-04	13.96863	0.9778358	28.51353	27.0117	0.112503	1.470861	41.65007
8/11/2014 2:36:56 PM	14:36:56	0	A	1	-1	0	0	0	0	0	83.80913	83.58878	82.27805	14.28525	35.095	83.50063	-0.3065595	83.104	-0.3010006	14.27322	1.799965E-02	0	3	1	0.15	-2	0.6000977	-3.045651E-04	13.98371	0.9788912	28.61146	26.85918	0.1031249	1.348252	38.17818
8/11/2014 2:37:06 PM	14:37:06	0	A	1	-1	0	0	0	0	0	83.67692	83.72099	82.29517	14.28563	34.88499	83.45657	-0.3015443	82.92772	-0.3349991	14.27377	0.0189991	0	3	1	0.15	-2	0.6000977	-2.285168E-04	13.98408	0.9788918	28.58698	26.93225	0.1064992	1.392368	39.4274
8/11/2014 2:37:16 PM	14:37:16	0	A	1	-1	0	0	0	0	0	83.50063	83.76506	82.26953	14.286	34.755	83.45657	-0.3015443	82.7955	-0.3220005	14.27425	1.600075E-02	0	3	1	0.15	-2	0.6000977	-2.285168E-04	13.97944	0.9785413	28.58698	26.92642	0.1031568	1.34867	38.19
8/11/2014 2:37:26 PM	14:37:26	0	A	1	-1	0	0	0	0	0	83.50063	83.98541	82.26953	14.286	34.755	83.45657	-0.3115901	82.7955	-0.3220005	14.27396	1.600075E-02	0	3	1	0.15	-2	0.6000977	-3.045651E-04	13.97944	0.9785413	28.58698	27.04809	0.1031558	1.348656	38.18962
8/11/2014 2:37:36 PM	14:37:36	0	A	1	-2	0	0	0	0	0	83.5447	84.02948	82.28659	14.28525	35.7	83.36842	-0.3115901	82.70737	-0.2880001	14.27336	1.799965E-02	0	3	1	0.15	-2	0.6000977	-2.285168E-04	13.96863	0.9778358	28.53801	27.0117	0.1095227	1.431896	40.54672
8/11/2014 2:37:46 PM	14:37:46	0	A	1	-1	0	0	0	0	0	83.5447	83.5447	82.29517	14.28563	35.28999	83.36842	-0.3115901	82.66329	-0.309	14.27384	2.099991E-02	0	3	1	0.15	-2	0.6000977	-1.522825E-04	13.97404	0.9781886	28.53801	26.55543	0.1182222	1.545633	43.76739
8/11/2014 2:37:56 PM	14:37:56	0	A	1	-2	0	0	0	0	0	83.58878	83.45657	82.29517	14.28563	35.28999	83.45657	-0.3115901	82.92772	-0.3269997	14.27449	0.0189991	0	3	1	0.15	-2	0.6000977	-1.522825E-04	13.97404	0.9781886	28.58698	26.72575	0.1181972	1.545307	43.75814
8/11/2014 2:38:06 PM	14:38:06	0	A	1	-1	0	0	0	0	0	83.76506	83.67692	82.31223	14.28488	34.30499	83.58878	-0.3065595	82.92772	-0.316	14.27277	1.799965E-02	0	3	1	0.15	-2	0.6000977	-2.285168E-04	13.97832	0.9785396	28.66043	26.8776	0.109499	1.431587	40.53796
8/11/2014 2:38:16 PM	14:38:16	0	A	1	-1	0	0	0	0	0	83.63285	83.5447	82.29517	14.2845	34.145	83.36842	-0.3065595	82.97179	-0.2770004	14.27388	2.000046E-02	0	3	1	0.15	-2	0.6000977	-2.285168E-04	13.97794	0.978539	28.53801	26.80456	0.115345	1.508017	42.70222
8/11/2014 2:38:26 PM	14:38:26	0	A	1	-1	0	0	0	0	0	83.67692	83.41249	82.29517	14.2845	34.145	83.5447	-0.3015443	83.01585	-0.3670006	14.27315	1.799965E-02	0	3	1	0.15	-2	0.7998047	-3.045651E-04	13.98296	0.9788901	28.63595	26.76176	0.1153376	1.50792	42.69947
8/11/2014 2:38:36 PM	14:38:36	0	A	1	-1	0	0	0	0	0	83.63285	83.5447	82.27805	14.28563	34.2	83.45657	-0.3015443	82.7955	-0.3379993	14.27388	0.0189991	0	3	1	0.15	-2	0.6000977	-2.285168E-04	13.98408	0.9788918	28.58698	26.88356	0.1125096	1.470947	41.65252
8/11/2014 2:38:46 PM	14:38:46	0	A	1	-1	0	0	0	0	0	83.58878	83.5447	82.27805	14.286	34.23	83.45657	-0.3015443	82.7955	-0.3610001	14.27339	0.0189991	0	3	1	0.15	-2	0.6000977	-2.285168E-04	13.98446	0.9788923	28.58698	26.83494	0.1125076	1.470922	41.6518
8/11/2014 2:38:56 PM	14:38:56	0	A	1	-1	0	0	0	0	0	83.72099	83.94134	82.27805	14.286	34.23	83.58878	-0.3065595	82.92772	-0.2919998	14.27592	1.600075E-02	0	3	1	0.15	-2	0.7998047	-3.045651E-04	13.97944	0.9785413	28.66043	27.02374	0.1125044	1.47088	41.65061
8/11/2014 2:39:06 PM	14:39:06	0	A	1	-1	0	0	0	0	0	83.58878	84.24983	82.29517	14.286	34.62	83.45657	-0.3115901	82.92772	-0.2989998	14.27498	1.799965E-02	0	3	1	0.15	-2	0.6000977	-2.285168E-04	13.97944	0.9785413	28.58698	27.19413	0.1095791	1.432634	40.56762
8/11/2014 2:39:16 PM	14:39:16	0	A	1	-1	0	0	0	0	0	83.63285	84.1617	82.30368	14.286	35.495	83.45657	-0.3115901	82.7955	-0.3169994	14.27422	0.0189991	0	3	1	0.15	-2	0.6000977	-3.045651E-04	13.97441	0.9781891	28.58698	27.11512	0.109589	1.432764	40.57129
8/11/2014 2:39:26 PM	14:39:26	0	A	1	-1	0	0	0	0	0	83.63285	84.07355	82.30368	14.286	35.495	83.45657	-0.3115901	82.7955	-0.2970009	14.2753	1.600075E-02	0	3	1	0.15	-2	0.3999023	-2.285168E-04	13.97441	0.9781891	28.58698	27.06643	0.1031606	1.348719	38.19141
8/11/2014 2:39:36 PM	14:39:36	0	A	1	-2	0	0	0	0	0	83.58878	83.98541	82.30368	14.28525	35.355	83.45657	-0.3166207	82.7955	-0.3269997	14.27365	2.199936E-02	0	3	1	0.15	-2	0.3999023	-2.285168E-04	13.97366	0.978188	28.58698	27.01767	0.120986	1.581768	44.7906
8/11/2014 2:39:46 PM	14:39:46	0	A	1	-1	0	0	0	0	0	83.72099	84.20576	82.29517	14.28488	35.14	83.45657	-0.3115901	82.92772	-0.3169994	14.27508	2.300072E-02	0	3	1	0.15	-2	0.7998047	-2.285168E-04	13.97329	0.9781874	28.58698	27.1393	0.1236989	1.617236	45.79496
8/11/2014 2:39:56 PM	14:39:56	0	A	1	-1	0	0	0	0	0	83.67692	84.07355	82.29517	14.28488	35.14	83.58878	-0.3065595	83.05993	-0.3589993	14.27122	2.199936E-02	0	3	1	0.15	-2	0.7998047	-2.285168E-04	13.97832	0.9785396	28.66043	27.09661	0.1181836	1.545129	43.75311
8/11/2014 2:40:06 PM	14:40:06	0	A	1	-1	0	0	0	0	0	83.67692	84.07355	82.30368	14.28525	33.89	83.58878	-0.3065595	82.92772	-0.2859993	14.27387	2.199936E-02	0	3	1	0.15	-2	0.6000977	-2.285168E-04	13.97869	0.9785401	28.66043	27.09668	0.1209727	1.581594	44.78569
8/11/2014 2:40:16 PM	14:40:16	0	A	1	-1	0	0	0	0	0	83.58878	83.94134	82.29517	14.28488	33.36501	83.72099	-0.3065595	83.05993	-0.3349991	14.27252	2.000046E-02	0	3	1	0.15	-2	0.6000977	-2.285168E-04	13.97832	0.9785396	28.73388	27.02361	0.1153305	1.507828	42.69686
8/11/2014 2:40:26 PM	14:40:26	0	A	1	-1	0	0	0	0	0	83.8532	83.89727	82.29517	14.28488	33.36501	83.72099	-0.3065595	82.92772	-0.4120007	14.2706	2.000046E-02	0	3	1	0.15	-2	0.6000977	-3.045651E-04	13.97832	0.9785396	28.73388	26.99926	0.1153363	1.507903	42.69899
8/11/2014 2:40:36 PM	14:40:36	0	A	1	-1	0	0	0	0	0	83.89727	83.89727	82.29517	14.28563	33.2	83.63285	-0.2965137	82.97179	-0.3279991	14.27355	2.099991E-02	0	3	1	0.15	-2	0.7998047	-3.045651E-04	13.98408	0.9788918	28.68492	27.02957	0.1181886	1.545195	43.75498
8/11/2014 2:40:46 PM	14:40:46	0	A	1	-2	0	0	0	0	0	83.80913	83.8532	82.30368	14.28412	32.315	83.63285	-0.2965137	83.104	-0.309	14.27314	2.000046E-02	0	3	1	0.15	-2	0.7998047	-3.045651E-04	13.98761	0.9792417	28.68492	27.03537	0.1181731	1.544992	43.74922
8/11/2014 2:40:56 PM	14:40:56	0	A	1	-1	0	0	0	0	0	83.76506	83.63285	82.30368	14.28412	32.315	83.58878	-0.3015443	83.05993	-0.2999992	14.27289	2.000046E-02	0	3	1	0.15	-2	0.6000977	-3.045651E-04	13.98258	0.9788896	28.66043	26.88339	0.115332	1.507847	42.69741
8/11/2014 2:41:06 PM	14:41:06	0	A	1	-1	0	0	0	0	0	83.58878	83.80913	82.29517	14.28525	32.69501	83.5447	-0.3015443	82.88364	-0.2859993	14.27455	2.000046E-02	0	3	1	0.15	-2	0.6000977	-2.285168E-04	13.98874	0.9792434	28.63595	27.01116	0.1153567	1.508171	42.70657
8/11/2014 2:41:16 PM	14:41:16	0	A	1	-1	0	0	0	0	0	83.63285	83.94134	82.29517	14.28488	32.88499	83.50063	-0.3065595	82.83958	-0.3279991	14.27306	2.099991E-02	0	3	1	0.15	-2	0.7998047	-2.285168E-04	13.98333	0.9788907	28.61146	27.05382	0.1182004	1.545349	43.75934
8/11/2014 2:41:26 PM	14:41:26	0	A	1	-1	0	0	0	0	0	83.5447	83.8532	82.29517	14.28488	32.88499	83.45657	-0.3015443	82.92772	-0.2940006	14.27396	2.099991E-02	0	3	1	0.15	-2	0.6000977	-2.285168E-04	13.97832	0.9785396	28.58698	26.97495	0.118195	1.545278	43.75732
8/11/2014 2:41:36 PM	14:41:36	0	A	1	-1	0	0	0	0	0	83.45657	83.67692	82.26953	14.28488	33.17999	83.36842	-0.3065595	82.70737	-0.2980003	14.27346	2.099991E-02	0	3	1	0.15	-2	0.7998047	-2.285168E-04	13.97832	0.9785396	28.53801	26.8776	0.1182159	1.545552	43.76509
8/11/2014 2:41:46 PM	14:41:46	0	A	1	-1	0	0	0	0	0	83.5447	83.94134	82.3208	14.28412	34.155	83.32435	-0.3115901	82.75143	-0.2919998	14.27361	2.300072E-02	0	3	1	0.15	-2	0.6000977	-3.045651E-04	13.97253	0.9781862	28.51353	26.99319	0.1237118	1.617405	45.79974
8/11/2014 2:41:56 PM	14:41:56	0	A	1	-1	0	0	0	0	0	83.58878	83.8532	82.3208	14.28412	34.155	83.32435	-0.3115901	82.92772	-0.3129997	14.27314	2.199936E-02	0	3	1	0.15	-2	0.6000977	-2.285168E-04	13.97253	0.9781862	28.51353	26.94453	0.1209697	1.581554	44.78455
8/11/2014 2:42:06 PM	14:42:06	0	A	1	-1	0	0	0	0	0	83.50063	84.11762	82.3208	14.28412	33.41499	83.41249	-0.3065595	82.88364	-0.316	14.27346	2.300072E-02	0	3	1	0.15	-2	0.6000977	-2.285168E-04	13.97253	0.9781862	28.5625	27.01754	0.1209757	1.581634	44.7868
8/11/2014 2:42:16 PM	14:42:16	0	A	1	-1	0	0	0	0	0	83.36842	84.02948	82.29517	14.28412	33.69501	83.32435	-0.3115901	82.7955	-0.2950001	14.27263	2.300072E-02	0	3	1	0.15	-2	0.6000977	-2.285168E-04	13.97253	0.9781862	28.51353	27.04188	0.1237028	1.617287	45.7964
8/11/2014 2:42:26 PM	14:42:26	0	A	1	-1	0	0	0	0	0	83.50063	84.42612	82.29517	14.28412	33.69501	83.36842	-0.3166207	82.70737	-0.3180008	14.27289	2.099991E-02	0	3	1	0.15	-2	0.6000977	-2.285168E-04	13.9675	0.977834	28.53801	27.23051	0.1182136	1.545521	43.76421
8/11/2014 2:42:36 PM	14:42:36	0	A	1	-1	0	0	0	0	0	83.41249	84.38205	82.3208	14.2845	34.22	83.32435	-0.3166207	82.7955	-0.3029995	14.2733	2.300072E-02	0	3	1	0.15	-2	0.6000977	-1.522825E-04	13.96788	0.9778346	28.51353	27.20624	0.1237057	1.617325	45.79746
8/11/2014 2:42:46 PM	14:42:46	0	A	1	-1	0	0	0	0	0	83.50063	84.47018	82.33792	14.2845	34.185	83.32435	-0.3166207	82.66329	-0.3069992	14.27322	2.000046E-02	0	3	1	0.15	-2	0.6000977	-1.522825E-04	13.96788	0.9778346	28.51353	27.25489	0.1153739	1.508395	42.71292
8/11/2014 2:42:56 PM	14:42:56	0	A	1	-1	0	0	0	0	0	83.63285	84.82275	82.33792	14.2845	34.185	83.36842	-0.3166207	82.83958	-0.3439999	14.27265	0.0189991	0	3	1	0.15	-2	0.6000977	-1.522825E-04	13.96286	0.9774836	28.53801	27.41928	0.1125003	1.470826	41.64909
8/11/2014 2:43:06 PM	14:43:06	0	A	1	-1	0	0	0	0	0	83.67692	84.20576	82.38065	14.28525	35.375	83.36842	-0.3115901	82.97179	-0.3209991	14.27253	0.0189991	0	3	1	0.15	-2	0.6000977	-1.522825E-04	13.96863	0.9778358	28.53801	27.10905	0.1124867	1.470648	41.64404
8/11/2014 2:43:16 PM	14:43:16	0	A	1	-1	0	0	0	0	0	83.5447	83.89727	82.38919	14.28563	32.94501	83.36842	-0.3115901	82.97179	-0.2740002	14.27525	0.0189991	0	3	1	0.15	-2	0.6000977	-2.285168E-04	13.97404	0.9781886	28.53801	26.96908	0.1124974	1.470788	41.64801
8/11/2014 2:43:26 PM	14:43:26	0	A	1	-1	0	0	0	0	0	83.5447	83.89727	82.38919	14.28563	32.94501	83.32435	-0.3065595	82.7955	-0.3309994	14.2746	1.799965E-02	0	3	1	0.15	-2	0.6000977	-2.285168E-04	13.97404	0.9781886	28.51353	26.96908	0.1095905	1.432783	40.57184
8/11/2014 2:43:36 PM	14:43:36	0	A	1	-1	0	0	0	0	0	83.45657	83.19214	82.39777	14.28488	32.86501	83.32435	-0.3015443	82.92772	-0.2940006	14.27335	2.300072E-02	0	3	1	0.15	-2	0.7998047	-2.285168E-04	13.97832	0.9785396	28.51353	26.60996	0.1236914	1.617138	45.79217
8/11/2014 2:43:46 PM	14:43:46	0	A	1	-1	0	0	0	0	0	83.5447	83.32435	82.4234	14.2845	31.85001	83.28028	-0.3015443	82.75143	-0.2859993	14.27413	2.000046E-02	0	3	1	0.15	-2	0.3999023	-2.285168E-04	13.98296	0.9788901	28.48905	26.71307	0.1153685	1.508325	42.71094
8/11/2014 2:43:56 PM	14:43:56	0	A	1	-1	0	0	0	0	0	83.45657	83.36842	82.4234	14.2845	31.85001	83.32435	-0.3015443	82.7955	-0.3110008	14.27359	2.000046E-02	0	3	1	0.15	-2	0.6000977	-2.285168E-04	13.98296	0.9788901	28.51353	26.73742	0.1153618	1.508237	42.70846
8/11/2014 2:44:06 PM	14:44:06	0	A	1	-1	0	0	0	0	0	83.5447	83.58878	82.39777	14.2845	32.47	83.36842	-0.3015443	82.83958	-0.2999992	14.27326	2.000046E-02	0	3	1	0.15	-2	0.6000977	-2.285168E-04	13.97794	0.978539	28.53801	26.8289	0.115356	1.508161	42.7063
8/11/2014 2:44:16 PM	14:44:16	0	A	1	-1	0	0	0	0	0	83.50063	83.45657	82.41483	14.28375	33.495	83.32435	-0.3015443	82.7955	-0.2989998	14.27334	0.0189991	0	3	1	0.15	-2	0.7998047	-3.045651E-04	13.98221	0.978889	28.51353	26.78601	0.1125074	1.470919	41.65173
8/11/2014 2:44:26 PM	14:44:26	0	A	1	-1	0	0	0	0	0	83.63285	83.36842	82.41483	14.28375	33.495	83.5447	-0.3015443	82.92772	-0.3059998	14.27244	0.0189991	0	3	1	0.15	-2	0.7998047	-3.045651E-04	13.98221	0.978889	28.63595	26.73732	0.1153437	1.508	42.70174
8/11/2014 2:44:36 PM	14:44:36	0	A	1	-1	0	0	0	0	0	83.63285	83.28028	82.41483	14.2845	32.825	83.45657	-0.3015443	83.19214	-0.3199997	14.27391	0.0189991	0	3	1	0.15	-2	0.6000977	-2.285168E-04	13.97794	0.978539	28.58698	26.65855	0.1124702	1.470432	41.63794
8/11/2014 2:44:46 PM	14:44:46	0	A	1	-2	0	0	0	0	0	83.80913	83.36842	82.40631	14.2845	32.295	83.45657	-0.3015443	83.05993	-0.3029995	14.27322	0.0189991	0	3	1	0.15	-2	0.6000977	-3.045651E-04	13.98296	0.9788901	28.58698	26.73742	0.1124806	1.470569	41.6418
8/11/2014 2:44:56 PM	14:44:56	0	A	1	-1	0	0	0	0	0	83.63285	83.01585	82.40631	14.2845	32.295	83.28028	-0.3065595	83.01585	-0.3120003	14.27351	0.0189991	0	3	1	0.15	-2	0.6000977	-2.285168E-04	13.97794	0.978539	28.48905	26.51254	0.1124862	1.470641	41.64384
8/11/2014 2:45:06 PM	14:45:06	0	A	1	-1	0	0	0	0	0	83.63285	83.32435	82.4234	14.28375	31.465	83.28028	-0.3065595	82.88364	-0.2919998	14.27287	2.000046E-02	0	3	1	0.15	-2	0.6000977	-2.285168E-04	13.9822	0.978889	28.48905	26.71297	0.1153499	1.508082	42.70405
8/11/2014 2:45:16 PM	14:45:16	0	A	1	-2	0	0	0	0	0	83.63285	83.45657	82.40631	14.28337	31.53999	83.32435	-0.3115901	82.92772	-0.3059998	14.27221	2.000046E-02	0	3	1	0.15	-2	0.3999023	-3.045651E-04	13.97682	0.9785373	28.51353	26.75576	0.1153428	1.507988	42.7014
8/11/2014 2:45:26 PM	14:45:26	0	A	1	-2	0	0	0	0	0	83.50063	83.45657	82.40631	14.28337	31.53999	83.32435	-0.3065595	82.7955	-0.3029995	14.27224	2.000046E-02	0	3	1	0.15	-2	0.3999023	-2.285168E-04	13.97178	0.9781851	28.51353	26.72545	0.1153564	1.508167	42.70645
8/11/2014 2:45:36 PM	14:45:36	0	A	1	-1	0	0	0	0	0	83.50063	83.67692	82.40631	14.28412	32.955	83.36842	-0.3115901	82.83958	-0.3710003	14.27303	2.099991E-02	0	3	1	0.15	-2	0.3999023	-2.285168E-04	13.97253	0.9781862	28.53801	26.84721	0.1125018	1.470846	41.64965
8/11/2014 2:45:46 PM	14:45:46	0	A	1	-2	0	0	0	0	0	83.5447	83.50063	82.4234	14.2845	32.36501	83.41249	-0.3065595	82.88364	-0.316	14.27312	2.000046E-02	0	3	1	0.15	-2	0.3999023	-1.522825E-04	13.97794	0.978539	28.5625	26.78021	0.1182053	1.545413	43.76114
8/11/2014 2:45:56 PM	14:45:56	0	A	1	-1	0	0	0	0	0	83.50063	83.63285	82.4234	14.2845	32.36501	83.32435	-0.3115901	82.92772	-0.3010006	14.27453	2.099991E-02	0	3	1	0.15	-2	0.3999023	-2.285168E-04	13.97291	0.9781868	28.51353	26.82294	0.1209755	1.581631	44.78672
8/11/2014 2:46:06 PM	14:46:06	0	A	1	-1	0	0	0	0	0	83.58878	83.80913	82.45761	14.28412	32.92999	83.28028	-0.3115901	82.88364	-0.3360004	14.2726	2.300072E-02	0	3	1	0.15	-2	0.6000977	-2.285168E-04	13.97253	0.9781862	28.48905	26.92022	0.123693	1.617159	45.79276
8/11/2014 2:46:16 PM	14:46:16	0	A	1	-2	0	0	0	0	0	83.50063	83.63285	82.4234	14.28412	32.97	83.36842	-0.3065595	82.83958	-0.3180008	14.27364	2.300072E-02	0	3	1	0.15	-2	0.3999023	-2.285168E-04	13.97253	0.9781862	28.53801	26.8229	0.1237023	1.617281	45.79623
8/11/2014 2:46:26 PM	14:46:26	0	A	1	-1	0	0	0	0	0	83.63285	83.76506	82.4234	14.28412	32.97	83.28028	-0.3115901	82.75143	-0.309	14.27299	2.099991E-02	0	3	1	0.15	-2	0.6000977	-2.285168E-04	13.97253	0.9781862	28.48905	26.89587	0.1182094	1.545466	43.76266
8/11/2014 2:46:36 PM	14:46:36	0	A	1	-1	0	0	0	0	0	83.41249	83.80913	82.44049	14.283	32.905	83.28028	-0.3115901	82.88364	-0.3279991	14.27212	2.099991E-02	0	3	1	0.15	-2	0.6000977	-2.285168E-04	13.97141	0.9781845	28.48905	26.92005	0.1181919	1.545238	43.75621
8/11/2014 2:46:46 PM	14:46:46	0	A	1	-1	0	0	0	0	0	83.5447	83.98541	82.43195	14.28412	32.645	83.36842	-0.3115901	82.83958	-0.309	14.27274	1.799965E-02	0	3	1	0.15	-2	0.6000977	-2.285168E-04	13.97253	0.9781862	28.53801	27.01754	0.1095074	1.431697	40.54108
8/11/2014 2:46:56 PM	14:46:56	0	A	1	-1	0	0	0	0	0	83.50063	83.98541	82.43195	14.28412	32.645	83.41249	-0.3115901	82.88364	-0.302	14.27289	2.000046E-02	0	3	1	0.15	-2	0.6000977	-2.285168E-04	13.9675	0.977834	28.5625	26.98719	0.11535	1.508083	42.70407
8/11/2014 2:47:06 PM	14:47:06	0	A	1	-1	0	0	0	0	0	83.5447	83.98541	82.44049	14.28263	32.95	83.41249	-0.3166207	82.75143	-0.3080006	14.27095	2.099991E-02	0	3	1	0.15	-2	0.6000977	-2.285168E-04	13.966	0.9778317	28.5625	26.98702	0.1182009	1.545356	43.75953
8/11/2014 2:47:16 PM	14:47:16	0	A	1	-1	0	0	0	0	0	83.63285	83.72099	82.44049	14.28375	32.59	83.32435	-0.3166207	82.7955	-0.3239994	14.27186	2.099991E-02	0	3	1	0.15	-2	0.3999023	-2.285168E-04	13.97216	0.9781857	28.51353	26.87149	0.1182001	1.545345	43.75921
8/11/2014 2:47:26 PM	14:47:26	0	A	1	-1	0	0	0	0	0	83.41249	83.80913	82.44049	14.28375	32.59	83.45657	-0.3115901	82.92772	-0.2910004	14.27323	0.0189991	0	3	1	0.15	-2	0.3999023	-1.522825E-04	13.97216	0.9781857	28.58698	26.92015	0.1153469	1.508042	42.70293
8/11/2014 2:47:36 PM	14:47:36	0	A	1	-1	0	0	0	0	0	83.50063	83.63285	82.44049	14.283	32.675	83.36842	-0.3115901	82.97179	-0.323	14.27144	0.0189991	0	3	1	0.15	-2	0.6000977	-2.285168E-04	13.97644	0.9785367	28.53801	26.85305	0.1124824	1.470592	41.64245
8/11/2014 2:47:46 PM	14:47:46	0	A	1	-1	0	0	0	0	0	83.63285	83.94134	82.44904	14.283	32.315	83.45657	-0.3065595	82.7955	-0.2849998	14.27219	2.400017E-02	0	3	1	0.15	-2	0.6000977	-2.285168E-04	13.97141	0.9781845	28.58698	26.99305	0.1265131	1.654029	46.83682
8/11/2014 2:47:56 PM	14:47:56	0	A	1	-2	0	0	0	0	0	83.45657	84.02948	82.44904	14.283	32.315	83.41249	-0.3065595	82.88364	-0.2989998	14.27198	2.300072E-02	0	3	1	0.15	-2	0.3999023	-2.285168E-04	13.97644	0.9785367	28.5625	27.07203	0.1209694	1.581551	44.78447
8/11/2014 2:48:06 PM	14:48:06	0	A	1	-1	0	0	0	0	0	83.5447	83.80913	82.43195	14.28412	32.80499	83.50063	-0.3065595	82.83958	-0.2679996	14.27484	2.099991E-02	0	3	1	0.15	-2	0.6000977	-2.285168E-04	13.97253	0.9781862	28.61146	26.92022	0.1182078	1.545445	43.76207
8/11/2014 2:48:16 PM	14:48:16	0	A	1	-1	0	0	0	0	0	83.63285	83.58878	82.44904	14.28225	31.955	83.50063	-0.3065595	82.83958	-0.2159996	14.27126	2.000046E-02	0	3	1	0.15	-2	0.6000977	-1.522825E-04	13.97569	0.9785357	28.61146	26.82863	0.1153479	1.508056	42.70331
8/11/2014 2:48:26 PM	14:48:26	0	A	1	-1	0	0	0	0	0	83.67692	83.76506	82.44904	14.28225	31.955	83.5447	-0.3115901	82.7955	-0.3290005	14.27	2.199936E-02	0	3	1	0.15	-2	0.6000977	-3.045651E-04	13.97569	0.9785357	28.63595	26.92595	0.1209705	1.581565	44.78487
8/11/2014 2:48:36 PM	14:48:36	0	A	1	-1	0	0	0	0	0	83.63285	83.5447	82.44904	14.28375	32.71001	83.5447	-0.3065595	83.01585	-0.3120003	14.27179	0.0189991	0	3	1	0.15	-2	0.3999023	-2.285168E-04	13.97719	0.9785379	28.63595	26.80445	0.115332	1.507848	42.69743
8/11/2014 2:48:46 PM	14:48:46	0	A	1	-1	0	0	0	0	0	83.72099	83.36842	82.44904	14.28375	32.52	83.41249	-0.3015443	82.88364	-0.3069992	14.27298	2.099991E-02	0	3	1	0.15	-2	0.7998047	-2.285168E-04	13.9822	0.978889	28.5625	26.73732	0.1181955	1.545285	43.75752
8/11/2014 2:48:56 PM	14:48:56	0	A	1	-1	0	0	0	0	0	83.63285	83.01585	82.44904	14.28375	32.52	83.50063	-0.2965137	82.97179	-0.2900009	14.27309	0.0170002	0	3	1	0.15	-2	0.6000977	-2.285168E-04	13.98724	0.9792412	28.61146	26.57286	0.109496	1.431547	40.53683
8/11/2014 2:49:06 PM	14:49:06	0	A	1	-2	0	0	0	0	0	83.67692	83.45657	82.46616	14.28337	32.045	83.50063	-0.2965137	82.97179	-0.2889996	14.27235	0.0189991	0	3	1	0.15	-2	0.7998047	-2.285168E-04	13.98183	0.9788885	28.61146	26.78594	0.112486	1.470639	41.64379
8/11/2014 2:49:16 PM	14:49:16	0	A	1	-1	0	0	0	0	0	83.58878	83.41249	82.4234	14.28337	32.47	83.41249	-0.3015443	82.88364	-0.2999992	14.27235	2.099991E-02	0	3	1	0.15	-2	0.6000977	-2.285168E-04	13.98183	0.9788885	28.5625	26.76159	0.1181929	1.545251	43.75656
8/11/2014 2:49:26 PM	14:49:26	0	A	1	-1	0	0	0	0	0	83.76506	83.89727	82.4234	14.28337	32.47	83.63285	-0.3065595	83.104	-0.2950001	14.27214	2.099991E-02	0	3	1	0.15	-2	0.3999023	-2.285168E-04	13.97682	0.9785373	28.68492	26.99909	0.1181689	1.544937	43.74768
8/11/2014 2:49:36 PM	14:49:36	0	A	1	-1	0	0	0	0	0	83.80913	83.80913	82.40631	14.2845	33.05	83.76506	-0.3015443	83.23621	-0.3180008	14.27348	1.799965E-02	0	3	1	0.15	-2	0.3999023	-1.522825E-04	13.97794	0.978539	28.75837	26.95057	0.1095434	1.432168	40.55441
8/11/2014 2:49:46 PM	14:49:46	0	A	1	-1	0	0	0	0	0	84.02948	84.29391	82.4234	14.28337	32.795	83.76506	-0.3015443	83.23621	-0.3050003	14.27083	2.000046E-02	0	3	1	0.15	-2	0.6000977	-2.285168E-04	13.98183	0.9788885	28.75837	27.24835	0.1153057	1.507503	42.68767
8/11/2014 2:49:56 PM	14:49:56	0	A	1	-1	0	0	0	0	0	84.20576	84.29391	82.4234	14.28337	32.795	83.89727	-0.3015443	83.36842	-0.4090004	14.27145	0.0170002	0	3	1	0.15	-2	0.3999023	-1.522825E-04	13.98183	0.9788885	28.83182	27.24835	0.1094512	1.430962	40.52027
8/11/2014 2:50:06 PM	14:50:06	0	A	1	-2	0	0	0	0	0	84.29391	84.20576	82.41483	14.28412	32.605	84.02948	-0.3015443	83.36842	-0.2950001	14.27404	1.799965E-02	0	3	1	0.15	-2	0.6000977	-1.522825E-04	13.98258	0.9788896	28.90527	27.19979	0.1095328	1.432029	40.55047
8/11/2014 2:50:16 PM	14:50:16	0	A	1	-1	0	0	0	0	0	84.24983	83.94134	82.41483	14.28337	32.3	83.94134	-0.2965137	83.41249	-0.2849998	14.27275	1.799965E-02	0	3	1	0.15	-2	0.6000977	-3.045651E-04	13.98183	0.9788885	28.8563	27.05365	0.1094519	1.430972	40.52053
8/11/2014 2:50:26 PM	14:50:26	0	A	1	-1	0	0	0	0	0	84.1617	84.11762	82.41483	14.28337	32.3	83.8532	-0.3015443	83.32435	-0.3220005	14.27206	1.799965E-02	0	3	1	0.15	-2	0.6000977	-2.285168E-04	13.98183	0.9788885	28.80734	27.151	0.1064554	1.391796	39.41119
8/11/2014 2:50:36 PM	14:50:36	0	A	1	-1	0	0	0	0	0	83.94134	84.02948	82.39777	14.2845	32.30499	83.76506	-0.3015443	83.23621	-0.3069992	14.27355	0.0189991	0	3	1	0.15	-2	0.7998047	-3.045651E-04	13.98296	0.9788901	28.75837	27.10244	0.1124643	1.470356	41.63577
8/11/2014 2:50:46 PM	14:50:46	0	A	1	-1	0	0	0	0	0	84.02948	84.11762	82.38919	14.283	32.795	83.67692	-0.3015443	83.28028	-0.3010006	14.27057	2.000046E-02	0	3	1	0.15	-2	0.6000977	-2.285168E-04	13.98146	0.9788879	28.7094	27.15096	0.1153001	1.507431	42.68562
8/11/2014 2:50:56 PM	14:50:56	0	A	1	-1	0	0	0	0	0	83.76506	84.02948	82.38919	14.283	32.795	83.72099	-0.3015443	83.19214	-0.3239994	14.27169	2.199936E-02	0	3	1	0.15	-2	0.3999023	-1.522825E-04	13.98146	0.9788879	28.73388	27.10227	0.1209352	1.581103	44.77179
8/11/2014 2:51:06 PM	14:51:06	0	A	1	-1	0	0	0	0	0	83.98541	84.1617	82.38919	14.283	32.97	83.67692	-0.3065595	83.14807	-0.2970009	14.27259	2.000046E-02	0	3	1	0.15	-2	0.7998047	-3.045651E-04	13.98146	0.9788879	28.7094	27.17531	0.1181662	1.544902	43.74668
8/11/2014 2:51:16 PM	14:51:16	0	A	1	-1	0	0	0	0	0	83.94134	84.38205	82.38919	14.28263	32.955	83.72099	-0.3065595	83.32435	-0.3330002	14.27399	2.000046E-02	0	3	1	0.15	-2	0.6000977	-2.285168E-04	13.97607	0.9785362	28.73388	27.2667	0.1153094	1.507552	42.68906
8/11/2014 2:51:26 PM	14:51:26	0	A	1	-1	0	0	0	0	0	84.1617	84.33797	82.38919	14.28263	32.955	83.76506	-0.3015443	83.23621	-0.2870007	14.27211	0.0170002	0	3	1	0.15	-2	0.6000977	-2.285168E-04	13.97607	0.9785362	28.75837	27.24235	0.1064639	1.391906	39.41434
8/11/2014 2:51:36 PM	14:51:36	0	A	1	-1	0	0	0	0	0	83.98541	84.38205	82.37207	14.283	33.175	83.63285	-0.3065595	83.23621	-0.2900009	14.27209	2.000046E-02	0	3	1	0.15	-2	0.6000977	-2.285168E-04	13.97644	0.9785367	28.68492	27.26673	0.1153108	1.50757	42.68955
8/11/2014 2:51:46 PM	14:51:46	0	A	1	-1	0	0	0	0	0	83.89727	84.47018	82.41483	14.2845	33.02499	83.67692	-0.3065595	83.14807	-0.2679996	14.27467	0.0189991	0	3	1	0.15	-2	0.7998047	-2.285168E-04	13.97794	0.978539	28.7094	27.31559	0.1124775	1.470528	41.64066
8/11/2014 2:51:56 PM	14:51:56	0	A	1	-1	0	0	0	0	0	83.98541	84.24983	82.41483	14.2845	33.02499	83.67692	-0.3065595	83.14807	-0.2770004	14.27359	0.0189991	0	3	1	0.15	-2	0.7998047	-2.285168E-04	13.97794	0.978539	28.7094	27.19393	0.1124733	1.470473	41.63908
8/11/2014 2:52:06 PM	14:52:06	0	A	1	-1	0	0	0	0	0	83.98541	84.20576	82.40631	14.28337	32.82001	83.67692	-0.3065595	83.28028	-0.3069992	14.27253	2.000046E-02	0	3	1	0.15	-2	0.6000977	-2.285168E-04	13.98183	0.9788885	28.7094	27.19969	0.115308	1.507534	42.68855
8/11/2014 2:52:16 PM	14:52:16	0	A	1	-1	0	0	0	0	0	83.89727	83.98541	82.39777	14.28337	32.425	83.80913	-0.3065595	83.28028	-0.2509995	14.27398	0.0189991	0	3	1	0.15	-2	0.6000977	-2.285168E-04	13.97682	0.9785373	28.78285	27.04775	0.1124617	1.470321	41.63478
8/11/2014 2:52:26 PM	14:52:26	0	A	1	-1	0	0	0	0	0	83.76506	83.80913	82.39777	14.28337	32.425	83.58878	-0.3015443	83.19214	-0.3199997	14.27156	0.0189991	0	3	1	0.15	-2	0.6000977	-2.285168E-04	13.98183	0.9788885	28.66043	26.98064	0.1181573	1.544786	43.74339
8/11/2014 2:52:36 PM	14:52:36	0	A	1	-1	0	0	0	0	0	83.8532	83.8532	82.38919	14.28375	32.855	83.63285	-0.3065595	83.23621	-0.3050003	14.27262	2.000046E-02	0	3	1	0.15	-2	0.6000977	-1.522825E-04	13.97719	0.9785379	28.68492	26.97481	0.1181571	1.544783	43.7433
8/11/2014 2:52:46 PM	14:52:46	0	A	1	-1	0	0	0	0	0	83.8532	83.8532	82.39777	14.28375	32.07001	83.63285	-0.3065595	83.23621	-0.2950001	14.27392	0.0189991	0	3	1	0.15	-2	0.6000977	-2.285168E-04	13.97719	0.9785379	28.68492	26.97481	0.1124658	1.470375	41.63631
8/11/2014 2:52:56 PM	14:52:56	0	A	1	-1	0	0	0	0	0	83.76506	83.5447	82.39777	14.28375	32.07001	83.58878	-0.3115901	83.05993	-0.2870007	14.2732	2.099991E-02	0	3	1	0.15	-2	0.3999023	-1.522825E-04	13.97719	0.9785379	28.66043	26.80445	0.118178	1.545055	43.75102
8/11/2014 2:53:06 PM	14:53:06	0	A	1	-1	0	0	0	0	0	83.80913	83.8532	82.39777	14.28375	32.10001	83.41249	-0.3065595	83.01585	-0.3069992	14.27305	2.099991E-02	0	3	1	0.15	-2	0.6000977	-2.285168E-04	13.97216	0.9781857	28.5625	26.9445	0.1153371	1.507915	42.69932
8/11/2014 2:53:16 PM	14:53:16	0	A	1	-2	0	0	0	0	0	83.8532	83.98541	82.40631	14.283	32.66499	83.5447	-0.3115901	83.14807	-0.2919998	14.27162	2.099991E-02	0	3	1	0.15	-2	0.6000977	-2.285168E-04	13.97141	0.9781845	28.63595	27.01737	0.1181622	1.544849	43.74518
8/11/2014 2:53:26 PM	14:53:26	0	A	1	-1	0	0	0	0	0	83.72099	83.89727	82.40631	14.283	32.66499	83.5447	-0.3065595	83.14807	-0.3199997	14.27219	0.0189991	0	3	1	0.15	-2	0.6000977	-3.045651E-04	13.97141	0.9781845	28.63595	26.96871	0.1124678	1.470401	41.63705
8/11/2014 2:53:36 PM	14:53:36	0	A	1	-2	0	0	0	0	0	83.89727	83.72099	82.39777	14.28263	32.255	83.5447	-0.3115901	83.14807	-0.3729992	14.27348	2.000046E-02	0	3	1	0.15	-2	0.6000977	-2.285168E-04	13.97607	0.9785362	28.63595	26.90164	0.1124729	1.470467	41.63893
8/11/2014 2:53:46 PM	14:53:46	0	A	1	-1	0	0	0	0	0	84.02948	83.76506	82.39777	14.28375	32.97	83.58878	-0.3015443	83.19214	-0.3040009	14.27609	0.0189991	0	3	1	0.15	-2	0.3999023	-2.285168E-04	13.97719	0.9785379	28.66043	26.92612	0.1124788	1.470544	41.64111
8/11/2014 2:53:56 PM	14:53:56	0	A	1	-1	0	0	0	0	0	84.02948	83.5447	82.39777	14.28375	32.97	83.50063	-0.3065595	83.23621	-0.3549995	14.26987	2.000046E-02	0	3	1	0.15	-2	0.6000977	-2.285168E-04	13.97719	0.9785379	28.61146	26.80445	0.1153018	1.507452	42.68623
8/11/2014 2:54:06 PM	14:54:06	0	A	1	-1	0	0	0	0	0	83.98541	83.67692	82.39777	14.28488	33.005	83.45657	-0.3015443	83.19214	-0.3439999	14.27273	2.099991E-02	0	3	1	0.15	-2	0.6000977	-2.285168E-04	13.97832	0.9785396	28.58698	26.8776	0.1181622	1.544849	43.74518
8/11/2014 2:54:16 PM	14:54:16	0	A	1	-1	0	0	0	0	0	83.94134	83.32435	82.4234	14.28525	33.005	83.41249	-0.3065595	83.28028	-0.3069992	14.27394	2.099991E-02	0	3	1	0.15	-2	0.3999023	-2.285168E-04	13.97869	0.9785401	28.5625	26.68299	0.1181579	1.544794	43.74361
8/11/2014 2:54:26 PM	14:54:26	0	A	1	-1	0	0	0	0	0	83.80913	83.58878	82.4234	14.28525	33.005	83.41249	-0.3065595	83.14807	-0.3150005	14.27369	2.000046E-02	0	3	1	0.15	-2	0.6000977	-1.522825E-04	13.97869	0.9785401	28.5625	26.829	0.1153262	1.507772	42.69527
8/11/2014 2:54:36 PM	14:54:36	0	A	1	-1	0	0	0	0	0	83.80913	83.58878	82.4234	14.2845	32.78999	83.41249	-0.3115901	83.14807	-0.3040009	14.27337	2.000046E-02	0	3	1	0.15	-2	0.6000977	-2.285168E-04	13.97291	0.9781868	28.5625	26.79862	0.1153249	1.507755	42.6948
8/11/2014 2:54:46 PM	14:54:46	0	A	1	-2	0	0	0	0	0	83.8532	83.63285	82.38919	14.283	33.36501	83.41249	-0.3115901	83.14807	-0.3290005	14.27129	2.099991E-02	0	3	1	0.15	-2	0.6000977	-1.522825E-04	13.97141	0.9781845	28.5625	26.82273	0.1181608	1.544832	43.74468
8/11/2014 2:54:56 PM	14:54:56	0	A	1	-2	0	0	0	0	0	83.72099	83.72099	82.38919	14.283	33.36501	83.36842	-0.3115901	83.104	-0.3040009	14.27158	2.000046E-02	0	3	1	0.15	-2	0.3999023	-2.285168E-04	13.97141	0.9781845	28.53801	26.87139	0.1153222	1.507719	42.69379
8/11/2014 2:55:06 PM	14:55:06	0	A	1	-1	0	0	0	0	0	83.72099	84.07355	82.38919	14.28375	33.72501	83.41249	-0.3166207	83.01585	-0.2919998	14.27294	2.000046E-02	0	3	1	0.15	-2	0.6000977	-2.285168E-04	13.96713	0.9778335	28.5625	27.03581	0.1153367	1.507909	42.69916
8/11/2014 2:55:16 PM	14:55:16	0	A	1	-1	0	0	0	0	0	83.80913	84.11762	82.39777	14.28525	34.455	83.32435	-0.3166207	83.05993	-0.2989998	14.27397	0.0189991	0	3	1	0.15	-2	0.7998047	-2.285168E-04	13.96863	0.9778358	28.51353	27.0604	0.1124836	1.470608	41.6429
8/11/2014 2:55:26 PM	14:55:26	0	A	1	-2	0	0	0	0	0	83.94134	84.1617	82.39777	14.28525	34.455	83.50063	-0.321636	83.104	-0.3110008	14.27343	2.000046E-02	0	3	1	0.15	-2	0.6000977	-2.285168E-04	13.96863	0.9778358	28.53801	27.08471	0.1124771	1.470522	41.64048
8/11/2014 2:55:36 PM	14:55:36	0	A	1	-1	0	0	0	0	0	83.76506	84.07355	82.38919	14.283	34.03999	83.41249	-0.3166207	83.14807	-0.3260002	14.27187	1.799965E-02	0	3	1	0.15	-2	0.3999023	-1.522825E-04	13.96638	0.9778323	28.5625	27.03571	0.1094742	1.431262	40.52877
8/11/2014 2:55:46 PM	14:55:46	0	A	1	-2	0	0	0	0	0	83.94134	84.42612	82.39777	14.28375	34.27	83.32435	-0.3166207	83.05993	-0.3729992	14.27077	1.600075E-02	0	3	1	0.15	-2	0.7998047	-2.285168E-04	13.96713	0.9778335	28.51353	27.23048	0.1031201	1.348189	38.17641
8/11/2014 2:55:56 PM	14:55:56	0	A	1	-1	0	0	0	0	0	83.94134	84.29391	82.39777	14.28375	34.27	83.50063	-0.3166207	83.104	-0.3509998	14.27222	2.000046E-02	0	3	1	0.15	-2	0.6000977	-3.045651E-04	13.96713	0.9778335	28.61146	27.2791	0.1181693	1.544942	43.74781
8/11/2014 2:56:06 PM	14:56:06	0	A	1	-2	0	0	0	0	0	83.80913	83.98541	82.39777	14.28375	33.75999	83.5447	-0.3115901	83.14807	-0.3220005	14.27233	0.0189991	0	3	1	0.15	-2	0.7998047	-2.285168E-04	13.97216	0.9781857	28.63595	27.01747	0.1124683	1.470408	41.63725
8/11/2014 2:56:16 PM	14:56:16	0	A	1	-2	0	0	0	0	0	83.89727	83.67692	82.39777	14.286	32.405	83.45657	-0.3065595	83.05993	-0.3260002	14.27548	2.000046E-02	0	3	1	0.15	-2	0.7998047	-2.285168E-04	13.97441	0.9781891	28.58698	26.84745	0.1095682	1.432492	40.56359
8/11/2014 2:56:26 PM	14:56:26	0	A	1	-1	0	0	0	0	0	83.98541	83.8532	82.39777	14.286	32.405	83.63285	-0.3065595	83.19214	-0.2999992	14.27436	0.0189991	0	3	1	0.15	-2	0.6000977	-2.285168E-04	13.97944	0.9785413	28.68492	26.97508	0.112472	1.470455	41.63859
8/11/2014 2:56:36 PM	14:56:36	0	A	1	-1	0	0	0	0	0	84.11762	83.80913	82.38919	14.283	32.08	83.5447	-0.3065595	83.28028	-0.323	14.2718	2.000046E-02	0	3	1	0.15	-2	0.7998047	-2.285168E-04	13.97644	0.9785367	28.63595	26.95036	0.1181491	1.544678	43.74034
8/11/2014 2:56:46 PM	14:56:46	0	A	1	-2	0	0	0	0	0	84.02948	83.89727	82.38919	14.283	32.09	83.63285	-0.3065595	83.23621	-0.3169994	14.27194	0.0189991	0	3	1	0.15	-2	0.7998047	-1.522825E-04	13.97644	0.9785367	28.68492	26.92605	0.112458	1.470273	41.63343
8/11/2014 2:56:56 PM	14:56:56	0	A	1	-1	0	0	0	0	0	83.8532	83.76506	82.38919	14.283	32.09	83.5447	-0.3115901	83.14807	-0.3099995	14.2705	0.0189991	0	3	1	0.15	-2	0.6000977	-3.045651E-04	13.97141	0.9781845	28.63595	26.8957	0.1124611	1.470314	41.63457
8/11/2014 2:57:06 PM	14:57:06	0	A	1	-1	0	0	0	0	0	83.98541	84.24983	82.38065	14.28375	32.245	83.58878	-0.3065595	83.05993	-0.3649998	14.27099	1.799965E-02	0	3	1	0.15	-2	0.6000977	-2.285168E-04	13.97719	0.9785379	28.66043	27.19382	0.1064764	1.392069	39.41894
8/11/2014 2:57:16 PM	14:57:16	0	A	1	-1	0	0	0	0	0	83.80913	84.20576	82.38065	14.28337	33.065	83.41249	-0.3065595	83.01585	-0.316	14.2726	0.0170002	0	3	1	0.15	-2	0.6000977	-2.285168E-04	13.97178	0.9781851	28.5625	27.13913	0.1031307	1.348328	38.18034
8/11/2014 2:57:26 PM	14:57:26	0	A	1	-1	0	0	0	0	0	83.72099	84.55833	82.38065	14.28337	33.065	83.63285	-0.3166207	82.97179	-0.2950001	14.27268	0.0170002	0	3	1	0.15	-2	0.6000977	-2.285168E-04	13.97178	0.9781851	28.68492	27.33377	0.106491	1.39226	39.42435
8/11/2014 2:57:36 PM	14:57:36	0	A	1	-1	0	0	0	0	0	83.76506	84.38205	82.37207	14.2845	32.75999	83.5447	-0.3166207	83.14807	-0.302	14.27308	1.600075E-02	0	3	1	0.15	-2	0.6000977	-2.285168E-04	13.96788	0.9778346	28.63595	27.20624	0.1031204	1.348193	38.17651
8/11/2014 2:57:46 PM	14:57:46	0	A	1	-1	0	0	0	0	0	83.8532	84.77868	82.39777	14.283	33.75	83.58878	-0.3166207	83.05993	-0.3190002	14.27165	0.0170002	0	3	1	0.15	-2	0.7998047	-2.285168E-04	13.96638	0.9778323	28.66043	27.42501	0.1064788	1.392101	39.41986
8/11/2014 2:57:56 PM	14:57:56	0	A	1	-1	0	0	0	0	0	83.8532	84.77868	82.39777	14.283	33.75	83.58878	-0.3166207	83.19214	-0.3059998	14.27136	0.0189991	0	3	1	0.15	-2	0.7998047	-3.045651E-04	13.96136	0.9774812	28.66043	27.3947	0.1124602	1.470301	41.63422
8/11/2014 2:58:06 PM	14:58:06	0	A	1	-1	0	0	0	0	0	83.89727	84.64647	82.41483	14.28412	34.30499	83.5447	-0.3166207	83.14807	-0.2910004	14.27361	2.000046E-02	0	3	1	0.15	-2	0.7998047	-3.045651E-04	13.9675	0.977834	28.63595	27.35214	0.1124734	1.470474	41.63911
8/11/2014 2:58:16 PM	14:58:16	0	A	1	-2	0	0	0	0	0	83.94134	84.1617	82.4234	14.28375	32.455	83.58878	-0.3166207	83.32435	-0.3050003	14.27218	2.099991E-02	0	3	1	0.15	-2	0.6000977	-3.045651E-04	13.96211	0.9774824	28.66043	27.05426	0.1181461	1.544639	43.73922
8/11/2014 2:58:26 PM	14:58:26	0	A	1	-1	0	0	0	0	0	84.02948	84.42612	82.4234	14.28375	32.455	83.67692	-0.3166207	83.14807	-0.3029995	14.2733	1.799965E-02	0	3	1	0.15	-2	0.6000977	-3.045651E-04	13.97216	0.9781857	28.7094	27.26083	0.1094797	1.431334	40.5308
8/11/2014 2:58:36 PM	14:58:36	0	A	1	-1	0	0	0	0	0	83.98541	84.42612	82.41483	14.28412	32.745	83.67692	-0.3115901	83.14807	-0.3150005	14.27346	0.0170002	0	3	1	0.15	-2	0.7998047	-2.285168E-04	13.97253	0.9781862	28.7094	27.28521	0.1064773	1.392081	39.41928
8/11/2014 2:58:46 PM	14:58:46	0	A	1	-2	0	0	0	0	0	83.98541	84.47018	82.44904	14.28375	33.12	83.72099	-0.3115901	83.05993	-0.316	14.27236	2.199936E-02	0	3	1	0.15	-2	0.6000977	-2.285168E-04	13.97719	0.9785379	28.73388	27.31549	0.1209522	1.581326	44.7781
8/11/2014 2:58:56 PM	14:58:56	0	A	1	-1	0	0	0	0	0	83.8532	84.51426	82.44904	14.28375	33.12	83.67692	-0.3166207	83.14807	-0.2870007	14.27359	2.099991E-02	0	3	1	0.15	-2	0.6000977	-2.285168E-04	13.97216	0.9781857	28.78285	27.30949	0.1181704	1.544956	43.74821
8/11/2014 2:59:06 PM	14:59:06	0	A	1	-2	0	0	0	0	0	84.11762	84.73461	82.47473	14.2845	33.105	83.80913	-0.3115901	83.14807	-0.2730007	14.27409	2.000046E-02	0	3	1	0.15	-2	0.7998047	-3.045651E-04	13.97291	0.9781868	28.78285	27.43125	0.1153278	1.507793	42.69588
8/11/2014 2:59:16 PM	14:59:16	0	A	1	-2	0	0	0	0	0	84.07355	84.42612	82.48325	14.28412	33.10001	83.80913	-0.3115901	83.28028	-0.2789993	14.27393	2.099991E-02	0	3	1	0.15	-2	0.6000977	-2.285168E-04	13.9675	0.977834	28.78285	27.23051	0.1181579	1.544793	43.7436
8/11/2014 2:59:26 PM	14:59:26	0	A	1	-1	0	0	0	0	0	84.33797	84.29391	82.48325	14.28412	33.10001	83.8532	-0.3065595	83.32435	-0.309	14.27198	2.000046E-02	0	3	1	0.15	-2	0.7998047	-2.285168E-04	13.97253	0.9781862	28.80734	27.18789	0.1124494	1.470161	41.63025
8/11/2014 2:59:36 PM	14:59:36	0	A	1	-1	0	0	0	0	0	84.29391	83.89727	82.47473	14.283	31.88499	83.98541	-0.3065595	83.45657	-0.3460007	14.27198	2.000046E-02	0	3	1	0.15	-2	0.7998047	-2.285168E-04	13.98146	0.9788879	28.88079	27.02927	0.1181314	1.544447	43.73379
8/11/2014 2:59:46 PM	14:59:46	0	A	1	-1	0	0	0	0	0	84.11762	84.07355	82.47473	14.28337	31.825	83.80913	-0.3015443	83.28028	-0.2840004	14.27102	0.0170002	0	3	1	0.15	-2	0.6000977	-3.045651E-04	13.98686	0.9792407	28.78285	27.15697	0.1064557	1.391798	39.41128
8/11/2014 2:59:56 PM	14:59:56	0	A	1	-1	0	0	0	0	0	84.07355	83.89727	82.47473	14.28337	31.825	83.72099	-0.3015443	83.19214	-0.2959995	14.27286	1.799965E-02	0	3	1	0.15	-2	0.7998047	-3.045651E-04	13.98183	0.9788885	28.73388	27.0293	0.1094737	1.431256	40.5286
8/11/2014 3:00:06 PM	15:00:06	0	A	1	-2	0	0	0	0	0	84.02948	83.98541	82.47473	14.28263	31.5	83.72099	-0.3015443	83.19214	-0.3040009	14.27178	1.799965E-02	0	3	1	0.15	-2	0.6000977	-2.285168E-04	13.98108	0.9788873	28.73388	27.07789	0.1094696	1.431202	40.52707
8/11/2014 3:00:16 PM	15:00:16	0	A	1	-2	0	0	0	0	0	83.94134	84.02948	82.47473	14.2845	31.74001	83.76506	-0.3015443	83.23621	-0.2779999	14.27453	1.799965E-02	0	3	1	0.15	-2	0.6000977	-2.285168E-04	13.98296	0.9788901	28.75837	27.10244	0.1095475	1.43222	40.5559
8/11/2014 3:00:26 PM	15:00:26	0	A	1	-1	0	0	0	0	0	83.98541	83.80913	82.47473	14.2845	31.74001	83.67692	-0.3015443	83.28028	-0.3530006	14.27138	1.799965E-02	0	3	1	0.15	-2	0.6000977	-2.285168E-04	13.98296	0.9788901	28.7094	26.98078	0.1094595	1.43107	40.52333
8/11/2014 3:00:36 PM	15:00:36	0	A	1	-2	0	0	0	0	0	84.1617	83.89727	82.45761	14.28412	32.02	83.67692	-0.3015443	83.14807	-0.2590008	14.27585	0.0189991	0	3	1	0.15	-2	0.6000977	-3.045651E-04	13.98258	0.9788896	28.7094	27.0294	0.1095611	1.432398	40.56094
8/11/2014 3:00:46 PM	15:00:46	0	A	1	-1	0	0	0	0	0	84.24983	83.63285	82.44049	14.2845	31.67999	83.80913	-0.2965137	83.41249	-0.2959995	14.27604	2.000046E-02	0	3	1	0.15	-2	0.6000977	-2.285168E-04	13.98799	0.9792423	28.78285	26.91371	0.1181528	1.544727	43.74172
8/11/2014 3:00:56 PM	15:00:56	0	A	1	-1	0	0	0	0	0	84.47018	83.28028	82.44049	14.2845	31.67999	84.1617	-0.2914831	83.63285	-0.2919998	14.27218	2.000046E-02	0	3	1	0.15	-2	1	-3.807993E-04	13.99302	0.9795945	28.97872	26.74925	0.1152706	1.507045	42.6747
8/11/2014 3:01:06 PM	15:01:06	0	A	1	-2	0	0	0	0	0	84.1617	83.5447	82.45761	14.28375	31.77	83.98541	-0.2864678	83.45657	-0.2910004	14.27298	2.000046E-02	0	3	1	0.15	-2	0.7998047	-3.045651E-04	13.99728	0.9799445	28.88079	26.92537	0.1152918	1.507323	42.68255
8/11/2014 3:01:16 PM	15:01:16	0	A	1	-2	0	0	0	0	0	84.07355	83.32435	82.43195	14.28488	32.24001	83.76506	-0.2914831	83.23621	-0.3169994	14.27364	2.199936E-02	0	3	1	0.15	-2	0.6000977	-2.285168E-04	13.99339	0.979595	28.75837	26.77367	0.115317	1.507651	42.69186
8/11/2014 3:01:26 PM	15:01:26	0	A	1	-1	0	0	0	0	0	83.94134	83.5447	82.43195	14.28488	32.24001	83.67692	-0.2965137	83.14807	-0.309	14.27371	2.000046E-02	0	3	1	0.15	-2	0.6000977	-2.285168E-04	13.98836	0.9792429	28.7094	26.86508	0.1124738	1.470479	41.63926
8/11/2014 3:01:36 PM	15:01:36	0	A	1	-1	0	0	0	0	0	83.98541	83.45657	82.41483	14.28337	32.35001	83.72099	-0.3015443	83.19214	-0.3150005	14.27181	2.000046E-02	0	3	1	0.15	-2	0.6000977	-2.285168E-04	13.98183	0.9788885	28.73388	26.78594	0.1153141	1.507614	42.6908
8/11/2014 3:01:46 PM	15:01:46	0	A	1	-1	0	0	0	0	0	83.8532	83.50063	82.38919	14.28337	32.80499	83.72099	-0.3015443	83.05993	-0.2530003	14.27145	2.099991E-02	0	3	1	0.15	-2	0.6000977	-2.285168E-04	13.98183	0.9788885	28.73388	26.81029	0.1094811	1.431353	40.53133
8/11/2014 3:01:56 PM	15:01:56	0	A	1	-1	0	0	0	0	0	84.02948	83.58878	82.38919	14.28337	32.80499	83.63285	-0.3015443	83.23621	-0.3069992	14.27286	2.000046E-02	0	3	1	0.15	-2	0.7998047	-2.285168E-04	13.98183	0.9788885	28.68492	26.85895	0.1153139	1.50761	42.6907
8/11/2014 3:02:06 PM	15:02:06	0	A	1	-2	0	0	0	0	0	84.02948	83.63285	82.40631	14.2845	33.05	83.8532	-0.2965137	83.32435	-0.3150005	14.27243	0.0170002	0	3	1	0.15	-2	0.6000977	-3.045651E-04	13.98296	0.9788901	28.73388	26.88343	0.1094592	1.431067	40.52324
8/11/2014 3:02:16 PM	15:02:16	0	A	1	-1	0	0	0	0	0	84.11762	83.5447	82.36356	14.28375	32.94	83.8532	-0.3015443	83.32435	-0.309	14.27442	1.799965E-02	0	3	1	0.15	-2	0.6000977	-3.045651E-04	13.9822	0.978889	28.80734	26.83467	0.1095385	1.432104	40.55259
8/11/2014 3:02:26 PM	15:02:26	0	A	1	-1	0	0	0	0	0	84.1617	83.72099	82.36356	14.28375	32.94	83.94134	-0.2965137	83.41249	-0.3190002	14.27258	1.799965E-02	0	3	1	0.15	-2	0.6000977	-3.045651E-04	13.98724	0.9792412	28.8563	26.9623	0.1094513	1.430963	40.5203
8/11/2014 3:02:36 PM	15:02:36	0	A	1	-2	0	0	0	0	0	84.07355	83.76506	82.38065	14.2845	33.24001	83.80913	-0.3015443	83.28028	-0.2849998	14.27308	0.0170002	0	3	1	0.15	-2	0.6000977	-3.045651E-04	13.98296	0.9788901	28.78285	27.05378	0.109466	1.431155	40.52574
8/11/2014 3:02:46 PM	15:02:46	0	A	1	-1	0	0	0	0	0	84.07355	83.72099	82.38065	14.28488	33.515	83.72099	-0.3015443	83.19214	-0.2919998	14.274	1.799965E-02	0	3	1	0.15	-2	0.7998047	-2.285168E-04	13.98333	0.9788907	28.73388	26.93215	0.1124705	1.470437	41.63806
8/11/2014 3:02:56 PM	15:02:56	0	A	1	-1	0	0	0	0	0	84.02948	84.02948	82.38065	14.28488	33.515	83.72099	-0.3115901	83.32435	-0.3299999	14.27414	2.000046E-02	0	3	1	0.15	-2	0.3999023	-1.522825E-04	13.97832	0.9785396	28.73388	27.07226	0.1153101	1.507561	42.68929
8/11/2014 3:03:06 PM	15:03:06	0	A	1	-2	0	0	0	0	0	84.02948	84.38205	82.38065	14.28563	34.595	83.72099	-0.3115901	83.32435	-0.3139992	14.27395	0.0170002	0	3	1	0.15	-2	0.6000977	-1.522825E-04	13.97404	0.9781886	28.73388	27.23675	0.1064625	1.391888	39.4138
8/11/2014 3:03:16 PM	15:03:16	0	A	1	-1	0	0	0	0	0	83.89727	84.07355	82.38065	14.28525	34.64	83.50063	-0.3115901	83.104	-0.3670006	14.27427	1.799965E-02	0	3	1	0.15	-2	0.3999023	-2.285168E-04	13.97366	0.978188	28.61146	27.06633	0.1095593	1.432375	40.56027
8/11/2014 3:03:26 PM	15:03:26	0	A	1	-1	0	0	0	0	0	84.07355	83.76506	82.38065	14.28525	34.64	83.72099	-0.3065595	83.32435	-0.2719994	14.27546	1.799965E-02	0	3	1	0.15	-2	0.6000977	-2.285168E-04	13.97366	0.978188	28.73388	26.89604	0.1124631	1.47034	41.63531
8/11/2014 3:03:36 PM	15:03:36	0	A	1	-2	0	0	0	0	0	84.07355	83.45657	82.38065	14.28525	33.255	83.67692	-0.3015443	83.28028	-0.3810005	14.27181	0.0189991	0	3	1	0.15	-2	0.7998047	-3.045651E-04	13.97869	0.9785401	28.7094	26.756	0.1094611	1.431092	40.52394
8/11/2014 3:03:46 PM	15:03:46	0	A	1	-2	0	0	0	0	0	84.02948	83.67692	82.34644	14.28675	33.235	83.50063	-0.3015443	83.104	-0.2999992	14.27547	1.799965E-02	0	3	1	0.15	-2	0.6000977	-2.285168E-04	13.9852	0.9788935	28.61146	26.90804	0.1124851	1.470627	41.64346
8/11/2014 3:03:56 PM	15:03:56	0	A	1	-1	0	0	0	0	0	83.89727	83.63285	82.34644	14.28675	33.235	83.5447	-0.3065595	83.14807	-0.3980007	14.27378	0.0189991	0	3	1	0.15	-2	0.7998047	-2.285168E-04	13.98019	0.9785424	28.63595	26.85352	0.112474	1.470482	41.63936
8/11/2014 3:04:06 PM	15:04:06	0	A	1	-1	0	0	0	0	0	83.89727	83.80913	82.33792	14.286	33.39	83.5447	-0.3065595	83.14807	-0.3169994	14.27447	1.799965E-02	0	3	1	0.15	-2	0.7998047	-2.285168E-04	13.97944	0.9785413	28.63595	26.95074	0.1124768	1.470518	41.64037
8/11/2014 3:04:16 PM	15:04:16	0	A	1	-1	0	0	0	0	0	83.94134	83.67692	82.33792	14.28525	33.285	83.5447	-0.3065595	83.14807	-0.3309994	14.27296	2.099991E-02	0	3	1	0.15	-2	0.6000977	-2.285168E-04	13.97869	0.9785401	28.63595	26.87766	0.1181678	1.544922	43.74725
8/11/2014 3:04:26 PM	15:04:26	0	A	1	-1	0	0	0	0	0	83.94134	83.45657	82.33792	14.28525	33.285	83.5447	-0.3065595	83.14807	-0.2970009	14.27455	2.000046E-02	0	3	1	0.15	-2	0.7998047	-2.285168E-04	13.98371	0.9788912	28.63595	26.78618	0.1153297	1.507818	42.69658
8/11/2014 3:04:36 PM	15:04:36	0	A	1	-1	0	0	0	0	0	83.80913	83.28028	82.31223	14.286	33.11	83.45657	-0.3065595	83.19214	-0.3610001	14.27378	2.000046E-02	0	3	1	0.15	-2	0.6000977	-2.285168E-04	13.98446	0.9788923	28.58698	26.68893	0.1124697	1.470425	41.63774
8/11/2014 3:04:46 PM	15:04:46	0	A	1	-2	0	0	0	0	0	83.94134	83.23621	82.29517	14.28337	32.905	83.5447	-0.2965137	83.28028	-0.3290005	14.273	0.0189991	0	3	1	0.15	-2	0.7998047	-3.045651E-04	13.98183	0.9788885	28.63595	26.66428	0.1094657	1.431152	40.52563
8/11/2014 3:04:56 PM	15:04:56	0	A	1	-2	0	0	0	0	0	83.94134	83.28028	82.29517	14.28337	32.905	83.45657	-0.3015443	83.19214	-0.3290005	14.27127	1.799965E-02	0	3	1	0.15	-2	0.7998047	-2.285168E-04	13.98183	0.9788885	28.58698	26.68859	0.1094676	1.431176	40.52634
8/11/2014 3:05:06 PM	15:05:06	0	A	1	-2	0	0	0	0	0	83.80913	83.80913	82.28659	14.28488	33.905	83.45657	-0.3115901	83.19214	-0.3379993	14.27313	2.000046E-02	0	3	1	0.15	-2	0.6000977	-3.045651E-04	13.97329	0.9781874	28.58698	26.92029	0.1153195	1.507684	42.69278
8/11/2014 3:05:16 PM	15:05:16	0	A	1	-2	0	0	0	0	0	83.67692	83.98541	82.28659	14.28525	33.84	83.45657	-0.3166207	83.19214	-0.3330002	14.27264	0.0189991	0	3	1	0.15	-2	0.3999023	-2.285168E-04	13.97366	0.978188	28.58698	27.01767	0.1124652	1.470367	41.63607
8/11/2014 3:05:26 PM	15:05:26	0	A	1	-2	0	0	0	0	0	83.8532	84.1617	82.28659	14.28525	33.84	83.5447	-0.321636	83.01585	-0.3150005	14.27311	2.199936E-02	0	3	1	0.15	-2	0.7998047	-2.285168E-04	13.96863	0.9778358	28.63595	27.08471	0.1209601	1.581429	44.78101
8/11/2014 3:05:36 PM	15:05:36	0	A	1	-2	0	0	0	0	0	83.72099	83.8532	82.26953	14.2845	33.48	83.36842	-0.321636	83.104	-0.3069992	14.27272	0.0189991	0	3	1	0.15	-2	0.6000977	-2.285168E-04	13.96788	0.9778346	28.53801	26.91428	0.1124743	1.470485	41.63944
8/11/2014 3:05:46 PM	15:05:46	0	A	1	-2	0	0	0	0	0	83.80913	83.98541	82.26096	14.2845	33.47	83.50063	-0.3166207	83.104	-0.3129997	14.27467	2.000046E-02	0	3	1	0.15	-2	0.6000977	-3.045651E-04	13.96788	0.9778346	28.61146	26.98726	0.1153347	1.507883	42.69841
8/11/2014 3:05:56 PM	15:05:56	0	A	1	-1	0	0	0	0	0	83.80913	83.80913	82.26096	14.2845	33.47	83.45657	-0.3115901	83.19214	-0.2840004	14.27348	1.799965E-02	0	3	1	0.15	-2	0.7998047	-3.045651E-04	13.97291	0.9781868	28.58698	26.92025	0.1124685	1.47041	41.6373
8/11/2014 3:06:06 PM	15:06:06	0	A	1	-1	0	0	0	0	0	83.94134	83.8532	82.25241	14.286	33.11501	83.63285	-0.3115901	83.23621	-0.2889996	14.27444	1.799965E-02	0	3	1	0.15	-2	0.7998047	-3.045651E-04	13.97441	0.9781891	28.68492	26.94477	0.1064726	1.39202	39.41754
8/11/2014 3:06:16 PM	15:06:16	0	A	1	-1	0	0	0	0	0	84.07355	83.32435	82.24384	14.28488	31.94501	83.67692	-0.3015443	83.28028	-0.2759991	14.27425	1.799965E-02	0	3	1	0.15	-2	0.7998047	-3.807993E-04	13.98333	0.9788907	28.7094	26.71314	0.1095421	1.432151	40.55392
8/11/2014 3:06:26 PM	15:06:26	0	A	1	-1	0	0	0	0	0	83.80913	83.50063	82.24384	14.28488	31.94501	83.58878	-0.3015443	83.19214	-0.2849998	14.27421	2.000046E-02	0	3	1	0.15	-2	0.6000977	-2.285168E-04	13.98333	0.9788907	28.66043	26.81049	0.1153238	1.507741	42.6944
8/11/2014 3:06:36 PM	15:06:36	0	A	1	-2	0	0	0	0	0	83.94134	83.50063	82.20963	14.28375	31.685	83.58878	-0.3015443	83.19214	-0.2999992	14.27251	0.0189991	0	3	1	0.15	-2	0.7998047	-2.285168E-04	13.9822	0.978889	28.66043	26.81032	0.1124647	1.47036	41.63589
8/11/2014 3:06:46 PM	15:06:46	0	A	1	-1	0	0	0	0	0	83.94134	83.76506	82.23529	14.28488	32.56	83.50063	-0.3065595	82.97179	-0.3250008	14.27295	0.0189991	0	3	1	0.15	-2	0.6000977	-2.285168E-04	13.97832	0.9785396	28.61146	26.92629	0.1124883	1.47067	41.64466
8/11/2014 3:06:56 PM	15:06:56	0	A	1	-1	0	0	0	0	0	83.80913	83.8532	82.23529	14.28488	32.56	83.45657	-0.3115901	83.19214	-0.2989998	14.27411	2.099991E-02	0	3	1	0.15	-2	0.6000977	-3.045651E-04	13.97329	0.9781874	28.58698	26.94463	0.1181679	1.544924	43.74729
8/11/2014 3:07:06 PM	15:07:06	0	A	1	-1	0	0	0	0	0	83.94134	83.98541	82.2182	14.28337	33.095	83.58878	-0.3115901	83.19214	-0.2840004	14.2712	0.0189991	0	3	1	0.15	-2	0.6000977	-3.045651E-04	13.97682	0.9785373	28.66043	27.04775	0.1153116	1.507581	42.68988
8/11/2014 3:07:16 PM	15:07:16	0	A	1	-1	0	0	0	0	0	84.07355	83.72099	82.24384	14.28375	32.48	83.63285	-0.3065595	83.23621	-0.3250008	14.27229	2.199936E-02	0	3	1	0.15	-2	0.7998047	-3.807993E-04	13.97719	0.9785379	28.68492	26.90181	0.120933	1.581075	44.77098
8/11/2014 3:07:26 PM	15:07:26	0	A	1	-1	0	0	0	0	0	84.02948	83.63285	82.24384	14.28375	32.48	83.80913	-0.3065595	83.28028	-0.3080006	14.27273	2.199936E-02	0	3	1	0.15	-2	0.6000977	-3.045651E-04	13.97719	0.9785379	28.78285	26.85315	0.1209301	1.581038	44.76992
8/11/2014 3:07:36 PM	15:07:36	0	A	1	-2	0	0	0	0	0	83.8532	83.58878	82.2182	14.28525	32.08501	83.5447	-0.3115901	83.14807	-0.3320007	14.27329	2.199936E-02	0	3	1	0.15	-2	0.6000977	-2.285168E-04	13.97869	0.9785401	28.63595	26.829	0.1209467	1.581254	44.77605
8/11/2014 3:07:46 PM	15:07:46	0	A	1	-2	0	0	0	0	0	84.11762	83.94134	82.22675	14.28412	32.25999	83.5447	-0.3115901	83.14807	-0.2900009	14.2739	2.099991E-02	0	3	1	0.15	-2	0.6000977	-3.045651E-04	13.97253	0.9781862	28.63595	26.99319	0.1181716	1.544973	43.74868
8/11/2014 3:07:56 PM	15:07:56	0	A	1	-1	0	0	0	0	0	83.94134	83.94134	82.22675	14.28412	32.25999	83.5447	-0.3065595	83.14807	-0.3010006	14.27267	2.000046E-02	0	3	1	0.15	-2	0.7998047	-3.045651E-04	13.97756	0.9785385	28.63595	27.0235	0.1153221	1.507718	42.69375
8/11/2014 3:08:06 PM	15:08:06	0	A	1	-2	0	0	0	0	0	83.94134	83.8532	82.20963	14.28375	32.72	83.5447	-0.3115901	83.14807	-0.3579998	14.27269	1.799965E-02	0	3	1	0.15	-2	0.6000977	-3.045651E-04	13.97216	0.9781857	28.63595	26.9445	0.1181666	1.544907	43.74682
8/11/2014 3:08:16 PM	15:08:16	0	A	1	-2	0	0	0	0	0	83.94134	83.8532	82.22675	14.2845	33.03	83.63285	-0.3065595	83.23621	-0.2950001	14.27257	2.099991E-02	0	3	1	0.15	-2	0.6000977	-3.045651E-04	13.97794	0.978539	28.68492	26.97488	0.1181569	1.54478	43.74323
8/11/2014 3:08:26 PM	15:08:26	0	A	1	-2	0	0	0	0	0	84.02948	83.5447	82.22675	14.2845	33.03	83.67692	-0.3065595	83.14807	-0.316	14.27301	0.0189991	0	3	1	0.15	-2	0.7998047	-3.045651E-04	13.97794	0.978539	28.7094	26.80456	0.112471	1.470443	41.63823
8/11/2014 3:08:36 PM	15:08:36	0	A	1	-1	0	0	0	0	0	83.89727	83.36842	82.2182	14.28375	32.965	83.50063	-0.3065595	83.23621	-0.3120003	14.27247	3.99971E-03	0	3	1	0.15	-2	0.7998047	-3.045651E-04	13.97719	0.9785379	28.61146	26.70714	5.178005E-02	0.6769711	19.16965
8/11/2014 3:08:46 PM	15:08:46	0	A	1	-1	0	0	0	0	0	84.07355	83.28028	82.20963	14.28375	32.89	83.67692	-0.2965137	83.28028	-0.3250008	14.27258	1.600075E-02	0	3	1	0.15	-2	0.6000977	-2.285168E-04	13.9822	0.978889	28.63595	26.68866	0.1031065	1.348012	38.17138
8/11/2014 3:08:56 PM	15:08:56	0	A	1	-1	0	0	0	0	0	83.89727	83.19214	82.20963	14.28375	32.89	83.50063	-0.3015443	83.23621	-0.2900009	14.27251	2.400017E-02	0	3	1	0.15	-2	0.6000977	-3.045651E-04	13.9822	0.978889	28.61146	26.63997	0.1315515	1.7199	48.70208
8/11/2014 3:09:06 PM	15:09:06	0	A	1	-1	0	0	0	0	0	83.98541	83.67692	82.19257	14.28337	33.295	83.63285	-0.3015443	83.104	-0.2859993	14.27279	2.300072E-02	0	3	1	0.15	-2	0.7998047	-3.045651E-04	13.97682	0.9785373	28.68492	26.87743	0.1236696	1.616854	45.78412
8/11/2014 3:09:16 PM	15:09:16	0	A	1	-2	0	0	0	0	0	83.8532	83.72099	82.17545	14.28412	34.005	83.50063	-0.3015443	83.23621	-0.3330002	14.27245	0.0170002	0	3	1	0.15	-2	0.6000977	-3.045651E-04	13.97756	0.9785385	28.61146	26.90184	0.1064652	1.391923	39.4148
8/11/2014 3:09:26 PM	15:09:26	0	A	1	-1	0	0	0	0	0	83.8532	83.89727	82.17545	14.28412	34.005	83.45657	-0.3065595	83.05993	-0.2980003	14.27339	1.600075E-02	0	3	1	0.15	-2	0.7998047	-2.285168E-04	13.97253	0.9781862	28.58698	26.96888	0.1031295	1.348313	38.1799
8/11/2014 3:09:36 PM	15:09:36	0	A	1	-1	0	0	0	0	0	83.89727	83.98541	82.19257	14.28412	34.205	83.50063	-0.3065595	83.23621	-0.3549995	14.27169	0.0189991	0	3	1	0.15	-2	0.6000977	-3.045651E-04	13.97253	0.9781862	28.68492	27.01754	0.112457	1.47026	41.63306
8/11/2014 3:09:46 PM	15:09:46	0	A	1	-1	0	0	0	0	0	83.98541	84.02948	82.19257	14.2845	34.36501	83.58878	-0.3166207	83.05993	-0.3910007	14.2712	2.099991E-02	0	3	1	0.15	-2	0.6000977	-2.285168E-04	13.97291	0.9781868	28.66043	27.04192	0.1181697	1.544947	43.74796
8/11/2014 3:09:56 PM	15:09:56	0	A	1	-2	0	0	0	0	0	84.1617	83.76506	82.19257	14.2845	34.36501	83.58878	-0.3065595	83.32435	-0.3470001	14.2712	-3.000259E-03	0	3	1	0.15	-2	0.7998047	-2.285168E-04	13.97291	0.9781868	28.66043	26.89594	-999	-999	-28288.48
8/11/2014 3:10:06 PM	15:10:06	0	A	1	-1	0	0	0	0	0	84.20576	83.50063	82.19257	14.2845	33.42	83.67692	-0.3015443	83.28028	-0.2989998	14.27294	2.400017E-02	0	3	1	0.15	-2	0.7998047	-2.285168E-04	13.98296	0.9788901	28.7094	26.81042	0.1264621	1.653362	46.81793
8/11/2014 3:10:16 PM	15:10:16	0	A	1	-1	0	0	0	0	0	83.98541	83.14807	82.17545	14.28375	33.41	83.58878	-0.3015443	83.32435	-0.3150005	14.27464	2.099991E-02	0	3	1	0.15	-2	0.6000977	-2.285168E-04	13.98221	0.978889	28.66043	26.61565	0.1181562	1.544772	43.74298
8/11/2014 3:10:26 PM	15:10:26	0	A	1	-1	0	0	0	0	0	83.98541	83.41249	82.17545	14.28375	33.41	83.5447	-0.3015443	83.28028	-0.2849998	14.27294	2.400017E-02	0	3	1	0.15	-2	0.6000977	-3.045651E-04	13.98221	0.978889	28.63595	26.76166	0.1264621	1.653363	46.81794
8/11/2014 3:10:36 PM	15:10:36	0	A	1	-1	0	0	0	0	0	83.80913	83.36842	82.16687	14.28525	33.53999	83.45657	-0.3065595	83.05993	-0.2129993	14.27925	0.0189991	0	3	1	0.15	-2	0.6000977	-2.285168E-04	13.97869	0.9785401	28.58698	26.70734	0.1125044	1.47088	41.6506
8/11/2014 3:10:46 PM	15:10:46	0	A	1	-1	0	0	0	0	0	83.94134	83.41249	82.14981	14.286	33.125	83.50063	-0.3065595	83.104	-0.3490009	14.27411	2.099991E-02	0	3	1	0.15	-2	0.6000977	-2.285168E-04	13.97944	0.9785413	28.61146	26.73175	0.1181771	1.545044	43.75071
8/11/2014 3:10:56 PM	15:10:56	0	A	1	-2	0	0	0	0	0	83.80913	83.67692	82.14981	14.286	33.125	83.67692	-0.3065595	83.28028	-0.3260002	14.27426	0.0189991	0	3	1	0.15	-2	0.7998047	-3.045651E-04	13.97441	0.9781891	28.7094	26.84745	0.115315	1.507626	42.69113
8/11/2014 3:11:06 PM	15:11:06	0	A	1	-1	0	0	0	0	0	83.72099	83.8532	82.13272	14.28488	33.965	83.36842	-0.3115901	82.97179	-0.3029995	14.27414	2.099991E-02	0	3	1	0.15	-2	0.7998047	-2.285168E-04	13.97329	0.9781874	28.53801	26.94463	0.1209692	1.581548	44.78437
8/11/2014 3:11:16 PM	15:11:16	0	A	1	-2	0	0	0	0	0	83.63285	83.45657	82.14124	14.28412	34.755	83.28028	-0.3115901	83.01585	-0.3169994	14.2727	1.799965E-02	0	3	1	0.15	-2	0.6000977	-3.045651E-04	13.97253	0.9781862	28.48905	26.72555	0.1153357	1.507896	42.6988
8/11/2014 3:11:26 PM	15:11:26	0	A	1	-1	0	0	0	0	0	83.67692	83.45657	82.14124	14.28412	34.755	83.32435	-0.3115901	82.92772	-0.2940006	14.27245	0.0189991	0	3	1	0.15	-2	0.6000977	-2.285168E-04	13.97756	0.9785385	28.51353	26.75586	0.1153437	1.508001	42.70176
8/11/2014 3:11:36 PM	15:11:36	0	A	1	-1	0	0	0	0	0	83.63285	83.01585	82.12415	14.283	34.11	83.28028	-0.3065595	83.01585	-0.2999992	14.27263	1.799965E-02	0	3	1	0.15	-2	0.7998047	-2.285168E-04	13.97644	0.9785367	28.48905	26.51233	0.1094899	1.431468	40.5346
8/11/2014 3:11:46 PM	15:11:46	0	A	1	-2	0	0	0	0	0	83.67692	83.19214	82.12415	14.283	33.74001	83.14807	-0.3015443	82.88364	-0.2970009	14.27216	0.0189991	0	3	1	0.15	-2	0.7998047	-3.045651E-04	13.97644	0.9785367	28.4156	26.60972	0.112494	1.470744	41.64675
8/11/2014 3:11:56 PM	15:11:56	0	A	1	-2	0	0	0	0	0	83.5447	83.19214	82.12415	14.283	33.74001	83.19214	-0.3065595	82.92772	-0.3120003	14.27183	2.199936E-02	0	3	1	0.15	-2	0.7998047	-3.045651E-04	13.98146	0.9788879	28.44008	26.6399	0.1209641	1.581482	44.7825
8/11/2014 3:12:06 PM	15:12:06	0	A	1	-1	0	0	0	0	0	83.63285	83.32435	82.12415	14.28337	34.13	83.32435	-0.3065595	82.92772	-0.2980003	14.27177	2.000046E-02	0	3	1	0.15	-2	0.6000977	-3.045651E-04	13.97682	0.9785373	28.51353	26.68276	0.115341	1.507965	42.70075
8/11/2014 3:12:16 PM	15:12:16	0	A	1	-2	0	0	0	0	0	83.67692	83.41249	82.13272	14.28375	34.81	83.23621	-0.3065595	82.83958	-0.3190002	14.2724	1.799965E-02	0	3	1	0.15	-2	0.6000977	-2.285168E-04	13.97719	0.9785379	28.46457	26.73145	0.1095061	1.43168	40.5406
8/11/2014 3:12:26 PM	15:12:26	0	A	1	-2	0	0	0	0	0	83.76506	83.23621	82.13272	14.28375	34.81	83.32435	-0.3065595	83.05993	-0.3220005	14.2728	0.0189991	0	3	1	0.15	-2	0.7998047	-3.045651E-04	13.97719	0.9785379	28.51353	26.63413	0.1153316	1.507843	42.69728
8/11/2014 3:12:36 PM	15:12:36	0	A	1	-1	0	0	0	0	0	83.58878	83.28028	82.10703	14.28337	34.925	83.19214	-0.3065595	82.92772	-0.2900009	14.27163	0.0189991	0	3	1	0.15	-2	0.6000977	-2.285168E-04	13.97682	0.9785373	28.44008	26.65841	0.1124875	1.470659	41.64436
8/11/2014 3:12:46 PM	15:12:46	0	A	1	-2	0	0	0	0	0	83.67692	83.36842	82.12415	14.28337	34.77	83.28028	-0.3065595	82.88364	-0.323	14.27185	2.000046E-02	0	3	1	0.15	-2	0.7998047	-3.045651E-04	13.98183	0.9788885	28.48905	26.73728	0.1153458	1.508028	42.70252
8/11/2014 3:12:56 PM	15:12:56	0	A	1	-1	0	0	0	0	0	83.63285	83.01585	82.12415	14.28337	34.77	83.14807	-0.3065595	82.88364	-0.2849998	14.27322	2.000046E-02	0	3	1	0.15	-2	0.7998047	-3.045651E-04	13.97682	0.9785373	28.4156	26.5124	0.1181965	1.545298	43.75788
8/11/2014 3:13:06 PM	15:13:06	0	A	1	-1	0	0	0	0	0	83.76506	83.05993	82.14124	14.283	34.125	83.23621	-0.3065595	82.97179	-0.2889996	14.27079	2.000046E-02	0	3	1	0.15	-2	0.6000977	-2.285168E-04	13.97644	0.9785367	28.46457	26.53668	0.1153325	1.507854	42.6976
8/11/2014 3:13:16 PM	15:13:16	0	A	1	-1	0	0	0	0	0	83.67692	83.23621	82.13272	14.283	33.96001	83.14807	-0.3015443	82.88364	-0.3010006	14.27053	2.099991E-02	0	3	1	0.15	-2	0.7998047	-3.045651E-04	13.97644	0.9785367	28.4156	26.63403	0.1209633	1.581471	44.78221
8/11/2014 3:13:26 PM	15:13:26	0	A	1	-2	0	0	0	0	0	83.67692	83.19214	82.13272	14.283	33.96001	83.23621	-0.3015443	82.97179	-0.3150005	14.27259	2.000046E-02	0	3	1	0.15	-2	0.7998047	-2.285168E-04	13.97644	0.9785367	28.46457	26.60972	0.1181847	1.545143	43.75351
8/11/2014 3:13:36 PM	15:13:36	0	A	1	-1	0	0	0	0	0	83.63285	82.92772	82.12415	14.283	33.75999	83.19214	-0.3015443	82.92772	-0.3220005	14.27209	2.000046E-02	0	3	1	0.15	-2	0.6000977	-2.285168E-04	13.98146	0.9788879	28.44008	26.49385	0.1153423	1.507982	42.70122
8/11/2014 3:13:46 PM	15:13:46	0	A	1	-1	0	0	0	0	0	83.67692	83.104	82.12415	14.28412	33.63	83.14807	-0.3015443	83.01585	-0.3059998	14.2731	0.0170002	0	3	1	0.15	-2	0.7998047	-3.045651E-04	13.98761	0.9792417	28.4156	26.62162	0.1094917	1.431492	40.53527
8/11/2014 3:13:56 PM	15:13:56	0	A	1	-2	0	0	0	0	0	83.63285	83.32435	82.12415	14.28412	33.63	83.19214	-0.2965137	82.92772	-0.2929993	14.27354	1.799965E-02	0	3	1	0.15	-2	0.7998047	-2.285168E-04	13.98258	0.9788896	28.44008	26.71304	0.1095736	1.432562	40.56557
8/11/2014 3:14:06 PM	15:14:06	0	A	1	-1	0	0	0	0	0	83.67692	83.50063	82.1156	14.283	34.325	83.32435	-0.3065595	82.92772	-0.3269997	14.27126	0.0170002	0	3	1	0.15	-2	1	-3.045651E-04	13.97644	0.9785367	28.51353	26.78004	0.1064898	1.392245	39.42393
8/11/2014 3:14:16 PM	15:14:16	0	A	1	-1	0	0	0	0	0	83.50063	83.45657	82.1156	14.28263	34.325	83.19214	-0.3115901	82.92772	-0.3080006	14.27182	0.0189991	0	3	1	0.15	-2	0.7998047	-2.285168E-04	13.97104	0.978184	28.44008	26.72538	0.1124883	1.470669	41.64463
8/11/2014 3:14:26 PM	15:14:26	0	A	1	-1	0	0	0	0	0	83.67692	83.72099	82.1156	14.28263	34.325	83.19214	-0.3166207	82.92772	-0.2989998	14.27196	2.099991E-02	0	3	1	0.15	-2	1	-2.285168E-04	13.97104	0.978184	28.44008	26.87136	0.1181867	1.54517	43.75426
8/11/2014 3:14:40 PM	15:14:40	0	A	1	-1	0	0	0	0	0	83.67692	83.50063	82.09848	14.28188	33.845	83.14807	-0.3166207	82.88364	-0.316	14.27031	0.0189991	0	3	1	0.15	-2	0.7998047	-2.285168E-04	13.97029	0.9781829	28.4156	26.74959	0.1124867	1.470648	41.64405
8/11/2014 3:14:50 PM	15:14:50	0	A	1	-2	0	0	0	0	0	83.58878	83.50063	82.10703	14.28263	33.95	83.28028	-0.3115901	82.88364	-0.3069992	14.27153	0.0189991	0	3	1	0.15	-2	0.7998047	-3.045651E-04	13.97104	0.978184	28.48905	26.74969	0.1124915	1.470711	41.64584
8/11/2014 3:15:00 PM	15:15:00	0	A	1	-2	0	0	0	0	0	83.5447	83.41249	82.10703	14.28263	33.95	83.104	-0.3166207	82.97179	-0.3139992	14.27135	2.099991E-02	0	3	1	0.15	-2	0.7998047	-3.045651E-04	13.966	0.9778317	28.39112	26.67072	0.1181795	1.545076	43.75161
8/11/2014 3:15:10 PM	15:15:10	0	A	1	-2	0	0	0	0	0	83.58878	83.8532	82.12415	14.28263	34.27	83.23621	-0.321636	82.97179	-0.3279991	14.2712	0.0189991	0	3	1	0.15	-2	0.6000977	-3.045651E-04	13.966	0.9778317	28.46457	26.91401	0.1124815	1.47058	41.64211
8/11/2014 3:15:20 PM	15:15:20	0	A	1	-1	0	0	0	0	0	83.5447	83.67692	82.13272	14.28225	34.94501	83.14807	-0.321636	83.01585	-0.3010006	14.27173	1.799965E-02	0	3	1	0.15	-2	0.6000977	-3.045651E-04	13.96061	0.97748	28.4156	26.78642	0.1094865	1.431423	40.53332
8/11/2014 3:15:30 PM	15:15:30	0	A	1	-2	0	0	0	0	0	83.67692	83.67692	82.14124	14.283	34.74001	83.104	-0.3166207	82.88364	-0.3419991	14.2723	2.300072E-02	0	3	1	0.15	-2	0.7998047	-3.045651E-04	13.96638	0.9778323	28.39112	26.88973	0.1265037	1.653906	46.83333
8/11/2014 3:15:40 PM	15:15:40	0	A	1	-2	0	0	0	0	0	83.76506	83.72099	82.14124	14.283	34.74001	83.19214	-0.3166207	83.05993	-0.3360004	14.27013	2.199936E-02	0	3	1	0.15	-2	0.7998047	-3.045651E-04	13.96638	0.9778323	28.44008	26.84108	0.123821	1.618832	45.84015
8/11/2014 3:15:50 PM	15:15:50	0	A	1	-2	0	0	0	0	0	83.63285	83.58878	82.15836	14.28263	33.94	83.14807	-0.3065595	83.01585	-0.2900009	14.27178	2.099991E-02	0	3	1	0.15	-2	0.7998047	-3.045651E-04	13.97607	0.9785362	28.4156	26.82866	0.1181767	1.545039	43.75056
8/11/2014 3:16:00 PM	15:16:00	0	A	1	-2	0	0	0	0	0	83.76506	83.45657	82.15836	14.283	33.455	83.14807	-0.3065595	82.88364	-0.2959995	14.27124	2.000046E-02	0	3	1	0.15	-2	0.6000977	-3.045651E-04	13.97607	0.9785362	28.4156	26.75566	0.1153433	1.507996	42.70161
8/11/2014 3:16:10 PM	15:16:10	0	A	1	-1	0	0	0	0	0	83.67692	83.36842	82.15836	14.283	33.455	83.23621	-0.3065595	82.83958	-0.3180008	14.27201	0.0189991	0	3	1	0.15	-2	0.7998047	-3.807993E-04	13.97644	0.9785367	28.46457	26.70704	0.1124978	1.470794	41.64817
8/11/2014 3:16:20 PM	15:16:20	0	A	1	-2	0	0	0	0	0	83.67692	83.36842	82.17545	14.283	33.23	83.28028	-0.3065595	83.01585	-0.3010006	14.27201	0.0189991	0	3	1	0.15	-2	0.6000977	-2.285168E-04	13.97644	0.9785367	28.48905	26.70704	0.1124802	1.470564	41.64166
8/11/2014 3:16:30 PM	15:16:30	0	A	1	-1	0	0	0	0	0	83.67692	83.50063	82.17545	14.283	33.23	83.32435	-0.3065595	82.92772	-0.3290005	14.27173	2.000046E-02	0	3	1	0.15	-2	0.6000977	-2.285168E-04	13.97644	0.9785367	28.51353	26.78004	0.1153408	1.507963	42.70067
8/11/2014 3:16:40 PM	15:16:40	0	A	1	-2	0	0	0	0	0	83.63285	83.104	82.17545	14.28225	34.39	83.23621	-0.3065595	82.97179	-0.1369991	14.27658	2.000046E-02	0	3	1	0.15	-2	0.7998047	-3.045651E-04	13.97569	0.9785357	28.46457	26.56096	0.1153559	1.50816	42.70626
8/11/2014 3:16:50 PM	15:16:50	0	A	1	-1	0	0	0	0	0	83.76506	83.23621	82.17545	14.283	33.83501	83.104	-0.3015443	82.83958	-0.2369995	14.2701	1.799965E-02	0	3	1	0.15	-2	0.7998047	-2.285168E-04	13.98146	0.9788879	28.39112	26.66421	0.1153432	1.507994	42.70157
8/11/2014 3:17:00 PM	15:17:00	0	A	1	-1	0	0	0	0	0	83.72099	83.45657	82.17545	14.283	33.83501	83.14807	-0.3065595	83.01585	-0.3080006	14.27169	2.099991E-02	0	3	1	0.15	-2	0.7998047	-3.045651E-04	13.98146	0.9788879	28.4156	26.78591	0.1181763	1.545034	43.75042
8/11/2014 3:17:10 PM	15:17:10	0	A	1	-2	0	0	0	0	0	83.63285	83.5447	82.18399	14.28525	34.39999	83.19214	-0.3115901	82.92772	-0.3339996	14.273	0.0189991	0	3	1	0.15	-2	0.7998047	-3.045651E-04	13.97869	0.9785401	28.44008	26.80466	0.1124929	1.47073	41.64635
8/11/2014 3:17:20 PM	15:17:20	0	A	1	-2	0	0	0	0	0	83.72099	83.41249	82.16687	14.28412	33.85001	83.23621	-0.3115901	83.104	-0.3360004	14.27346	0.0170002	0	3	1	0.15	-2	0.7998047	-3.045651E-04	13.97756	0.9785385	28.46457	26.73152	0.1064814	1.392135	39.42082
8/11/2014 3:17:30 PM	15:17:30	0	A	1	-1	0	0	0	0	0	83.80913	83.41249	82.16687	14.28412	33.85001	83.28028	-0.3065595	83.01585	-0.2980003	14.27292	0.0170002	0	3	1	0.15	-2	0.6000977	-3.045651E-04	13.97756	0.9785385	28.48905	26.73152	0.109491	1.431483	40.53502
8/11/2014 3:17:40 PM	15:17:40	0	A	1	-2	0	0	0	0	0	83.72099	83.23621	82.18399	14.28375	34.03999	83.19214	-0.3115901	83.05993	-0.3899994	14.27424	0.0170002	0	3	1	0.15	-2	0.7998047	-3.045651E-04	13.97216	0.9781857	28.44008	26.60385	0.1064885	1.392228	39.42344
8/11/2014 3:17:50 PM	15:17:50	0	A	1	-1	0	0	0	0	0	83.76506	83.36842	82.16687	14.28225	34.565	83.104	-0.3065595	82.97179	-0.2910004	14.27155	0.0170002	0	3	1	0.15	-2	0.7998047	-3.045651E-04	13.97066	0.9781834	28.39112	26.67665	0.1064868	1.392205	39.42279
8/11/2014 3:18:00 PM	15:18:00	0	A	1	-1	0	0	0	0	0	83.67692	83.104	82.16687	14.28225	34.565	83.104	-0.3065595	82.97179	-0.2929993	14.2713	0.0170002	0	3	1	0.15	-2	0.7998047	-2.285168E-04	13.97569	0.9785357	28.39112	26.56096	0.1064858	1.392193	39.42244
8/11/2014 3:18:10 PM	15:18:10	0	A	1	-2	0	0	0	0	0	83.76506	83.23621	82.18399	14.28263	34.53	83.104	-0.3065595	82.88364	-0.2859993	14.27229	1.799965E-02	0	3	1	0.15	-2	0.7998047	-3.807993E-04	13.97607	0.9785362	28.39112	26.634	0.1153476	1.508051	42.70318
8/11/2014 3:18:20 PM	15:18:20	0	A	1	-2	0	0	0	0	0	83.63285	83.23621	82.19257	14.28263	34.465	83.14807	-0.3065595	82.88364	-0.2590008	14.27157	2.099991E-02	0	3	1	0.15	-2	0.7998047	-3.807993E-04	13.98108	0.9788873	28.4156	26.66418	0.1124917	1.470713	41.64589
8/11/2014 3:18:30 PM	15:18:30	0	A	1	-1	0	0	0	0	0	83.72099	83.23621	82.19257	14.28263	34.465	83.14807	-0.3015443	82.88364	-0.2590008	14.27312	1.799965E-02	0	3	1	0.15	-2	0.6000977	-3.045651E-04	13.98108	0.9788873	28.4156	26.66418	0.1124978	1.470793	41.64816
8/11/2014 3:18:40 PM	15:18:40	0	A	1	-2	0	0	0	0	0	83.67692	83.05993	82.18399	14.28263	34.48	83.05993	-0.3015443	82.92772	-0.2970009	14.27092	0.0189991	0	3	1	0.15	-2	0.7998047	-3.045651E-04	13.98108	0.9788873	28.36663	26.56679	0.1153375	1.50792	42.69946
8/11/2014 3:18:50 PM	15:18:50	0	A	1	-1	0	0	0	0	0	83.8532	83.19214	82.14124	14.28225	34.87	83.23621	-0.3065595	82.97179	-0.3059998	14.27087	0.0189991	0	3	1	0.15	-2	0.7998047	-2.285168E-04	13.97569	0.9785357	28.46457	26.60962	0.1124801	1.470562	41.64162
8/11/2014 3:19:00 PM	15:19:00	0	A	1	-2	0	0	0	0	0	83.63285	83.23621	82.14124	14.28225	34.87	83.14807	-0.3065595	83.01585	-0.3120003	14.27119	2.000046E-02	0	3	1	0.15	-2	0.6000977	-3.045651E-04	13.98071	0.9788868	28.4156	26.66411	0.1153296	1.507817	42.69654
8/11/2014 3:19:10 PM	15:19:10	0	A	1	-2	0	0	0	0	0	83.80913	83.23621	82.17545	14.28412	34.715	83.104	-0.3065595	82.97179	-0.3169994	14.27325	2.000046E-02	0	3	1	0.15	-2	0.6000977	-3.045651E-04	13.97756	0.9785385	28.39112	26.6342	0.1181874	1.545179	43.75451
8/12/2014 9:08:17 AM	09:08:17	0	A	1	-1	0	0	0	0	0	65.10468	69.23625	71.55637	14.27588	54.145	67.03574	-0.341743	66.22739	-0.559	14.25593	0.0510006	0	3	1	0.15	-2	-0.2001953	0	13.93413	0.9760615	19.4643	18.696	0.1870418	2.445379	69.24532
8/12/2014 9:18:07 AM	09:18:07	0	A	1	51	72.85714	37244.57	40	57.14286	20000	1039.14	68.24826	71.55637	14.27588	54.145	84.55833	30.40037	67.08065	-0.5359993	14.25647	4.899979E-02	0	3	1	0.15	3446	89	58.39444	44.63605	3.126677	29.19907	130.6835	0.1832506	2.395814	67.84177
8/12/2014 9:18:17 AM	09:18:17	0	A	1	51	72.85714	37244.57	40	57.14286	20000	1031.83	68.92189	71.55637	14.27588	54.145	86.62965	30.63658	67.03574	-0.5119991	14.25741	4.400063E-02	0	3	1	0.15	3425	94	60.64706	44.63605	3.126677	30.34981	131.1988	0.1851177	2.420224	68.533
8/12/2014 9:18:27 AM	09:18:27	0	A	1	52	74.28571	37974.86	36	51.42857	18000	1039.774	69.05662	71.55637	14.27588	54.145	88.52469	31.66183	67.08065	-0.5400009	14.25658	5.200005E-02	0	3	1	0.15	3187	101.3999	61.40866	46.07842	3.227712	31.40261	134.927	0.1905809	2.49165	70.55556
8/12/2014 9:18:37 AM	09:18:37	0	A	1	53	75.71429	38705.14	39	55.71429	19500	1051.731	69.23625	71.55637	14.27588	54.145	90.28751	33.9636	67.12556	-0.5289993	14.25629	4.899979E-02	0	3	1	0.15	3415	99.7998	64.89132	48.1088	3.369937	32.38195	140.0344	0.1814141	2.371803	67.16187
8/12/2014 9:18:47 AM	09:18:47	0	A	1	54	77.14286	39435.43	44	61.42857	21500	1047.083	69.0117	71.55637	14.27588	54.145	92.53511	34.53149	67.12556	-0.5240002	14.25647	4.100037E-02	0	3	1	0.15	3743	101.3999	72.26426	49.30492	3.453723	33.63062	142.7147	0.1776086	2.32205	65.75304
8/12/2014 9:18:57 AM	09:18:57	0	A	1	56	80	40896	48	67.14285	23500	1063.688	69.37097	71.55637	14.27588	54.145	94.91492	39.52201	67.12556	-0.5189991	14.25661	4.700089E-02	0	3	1	0.15	4074	108	83.92962	53.65213	3.758238	34.95274	152.9812	0.1655283	2.164113	61.28074
8/12/2014 9:19:07 AM	09:19:07	0	A	1	57	81.42857	41626.28	52	74.28571	26000	1080.166	69.5057	71.55637	14.27588	54.145	198.6445	40.56231	67.12556	0.9389992	14.31158	1.712999	1	3	1	0.15	4450	118.3999	100.4873	54.89348	3.845192	92.58028	155.7612	1.084943	14.18452	401.6602
8/12/2014 9:19:17 AM	09:19:17	0	A	1	58	81.42857	41626.28	53	75.71429	26500	1087.644	69.41589	71.55637	14.27588	54.145	257.6814	41.52222	67.43992	1.027	14.31306	1.737	1	3	1	0.15	4587	121.2002	105.677	56.09461	3.929329	125.3786	158.3739	1.090324	14.25487	403.6524
8/12/2014 9:19:27 AM	09:19:27	0	A	1	58	82.85715	42356.57	56	78.57143	27500	1100.362	69.10152	71.55637	14.27588	54.145	286.3141	43.5526	67.57464	0.9939995	14.31556	1.802	1	3	1	0.15	4819	126.3999	116.1601	56.89371	3.985304	141.2856	159.8326	1.11038	14.51708	411.0772
8/12/2014 9:19:37 AM	09:19:37	0	A	1	58	84.28571	43086.86	57	81.42857	28500	1102.897	68.87698	71.55637	14.27588	54.145	300.6867	43.92953	67.97882	1.108	14.31411	1.801001	1	3	1	0.15	4900	126.2002	117.5528	58.1652	4.07437	149.2704	162.341	1.109305	14.50302	410.679
8/12/2014 9:19:47 AM	09:19:47	0	A	1	59	84.28571	43086.86	58	82.85715	29000	1104.671	68.92189	71.55637	14.27588	54.145	311.2535	43.90942	68.20335	1.021999	14.3153	1.771	1	3	1	0.15	5013	127.2002	121.4092	58.321	4.085284	155.1408	162.705	1.100173	14.38363	407.2985
8/12/2014 9:19:57 AM	09:19:57	0	A	1	59	84.28571	43086.86	58	84.28571	29500	1106.446	68.87698	71.55637	14.27588	54.145	322.3575	44.06522	68.29317	1.058001	14.31346	1.771999	1	3	1	0.15	5034	129.7998	124.6014	58.36623	4.088452	161.3098	162.7628	1.100314	14.38548	407.3508
8/12/2014 9:20:07 AM	09:20:07	0	A	1	59	84.28571	43086.86	58	82.85715	29000	1104.037	68.83208	71.55637	14.27588	54.145	328.8946	44.62811	68.38299	1.021	14.31447	1.746	1	3	1	0.15	5029	129	123.3284	58.35617	4.087747	164.9415	162.7046	1.090338	14.25505	403.6574
8/12/2014 9:20:17 AM	09:20:17	0	A	1	59	82.85715	42356.57	59	84.28571	29500	1108.009	69.95478	71.55637	14.27588	54.145	336.1929	43.85918	68.69735	0.9510002	14.3105	1.723	1	3	1	0.15	4991	128.7998	122.5867	57.97423	4.060993	168.2498	162.8266	1.08456	14.17951	401.5183
8/12/2014 9:20:27 AM	09:20:27	0	A	1	58	82.85715	42356.57	58	81.42857	28500	1101.038	69.68533	71.55637	14.27588	54.145	340.3286	43.90942	68.65244	0.9290009	14.31108	1.705999	1	3	1	0.15	4960	134.7998	127.114	58.19536	4.076483	171.2937	163.0705	1.078639	14.10209	399.3262
8/12/2014 9:20:37 AM	09:20:37	0	A	1	59	84.28571	43086.86	58	82.85715	29000	1108.051	69.59552	71.55637	14.27588	54.145	344.5608	43.19075	68.83208	0.927	14.31151	1.639	1	3	1	0.15	4990	125.6001	119.9021	57.6978	4.04163	173.6449	161.9469	1.057799	13.82964	391.611
8/12/2014 9:20:47 AM	09:20:47	0	A	1	59	84.28571	43086.86	58	82.85715	29000	1100.826	70.35896	71.55637	14.27588	54.145	349.9636	43.93958	68.9668	0.9780006	14.31064	1.660999	1	3	1	0.15	4997	127.7998	121.4022	58.30089	4.083875	176.6464	163.8477	1.063391	13.90274	393.6811
8/12/2014 9:20:57 AM	09:20:57	0	A	1	59	84.28571	43086.86	59	82.85715	29000	1095.545	69.68533	71.55637	14.27588	54.145	352.665	43.81896	69.10152	0.9090004	14.31118	1.653999	1	3	1	0.15	4998	128.3999	121.9976	58.28078	4.082467	178.1472	163.25	1.062332	13.8889	393.2891
8/12/2014 9:21:07 AM	09:21:07	0	A	1	59	84.28571	43086.86	58	82.85715	29000	1093.897	69.37097	71.55637	14.27588	54.145	355.5014	44.18584	69.37097	0.9710007	14.30916	1.653999	1	3	1	0.15	4996	128.7998	122.5191	57.97423	4.060993	179.723	162.346	1.061345	13.87599	392.9238
8/12/2014 9:21:17 AM	09:21:17	0	A	1	58	82.85715	42356.57	58	82.85715	29000	1092.883	69.05662	71.55637	14.27588	54.145	358.4279	43.9999	69.32607	0.9570007	14.31053	1.636	1	3	1	0.15	4983	129.2002	122.9596	58.26069	4.081059	181.3489	162.6895	1.052435	13.7595	389.6251
8/12/2014 9:21:27 AM	09:21:27	0	A	1	59	84.28571	43086.86	58	82.85715	29000	1092.165	68.87698	71.55637	14.27588	54.145	360.364	43.81896	69.5057	0.9850006	14.30967	1.618999	1	3	1	0.15	4922	127.3999	119.5801	58.19536	4.076483	182.4244	162.4043	1.050958	13.7402	389.0786
8/12/2014 9:21:37 AM	09:21:37	0	A	1	59	84.28571	43086.86	58	82.85715	29000	1092.292	68.92189	71.55637	14.27588	54.145	362.9303	44.01497	69.5057	0.9130001	14.31003	1.620001	1	3	1	0.15	5006	126.3999	120.6677	58.17022	4.074722	183.55	162.3885	1.051274	13.74432	389.1953
8/12/2014 9:21:47 AM	09:21:47	0	A	1	59	84.28571	43086.86	58	82.85715	29000	1090.052	68.69735	71.55637	14.27588	54.145	364.281	43.94461	69.5057	0.9220009	14.308	1.627001	1	3	1	0.15	5010	128	121.9085	58.51699	4.099013	184.6006	162.9302	1.052184	13.75622	389.5323
8/12/2014 9:21:57 AM	09:21:57	0	A	1	59	84.28571	43086.86	58	82.85715	29000	1088.827	68.47281	71.55637	14.27588	54.145	365.9469	43.79384	69.68533	0.9529991	14.3075	1.598	1	3	1	0.15	4995	127.7998	121.3536	58.27074	4.081763	185.526	162.2294	1.043571	13.64361	386.3435
8/12/2014 9:22:07 AM	09:22:07	0	A	1	60	85.71429	43817.14	59	84.28571	29500	1109.488	68.42789	71.55637	14.27588	54.145	368.3331	46.2715	69.77515	1.035	14.31205	1.684999	1	3	1	0.15	5117	130.3999	127.2404	60.41169	4.231732	186.8517	166.6221	1.070917	14.00115	396.4676
8/12/2014 9:22:17 AM	09:22:17	0	A	1	60	85.71429	43817.14	61	87.14285	30500	1117.769	68.65244	71.55637	14.27588	54.145	373.3757	45.91468	69.68533	1.025999	14.31136	1.704	1	3	1	0.15	5260	133.2002	133.4003	60.36644	4.228563	189.6532	166.7166	1.07793	14.09283	399.0639
8/12/2014 9:22:27 AM	09:22:27	0	A	1	60	85.71429	43817.14	62	88.57143	31000	1117.304	68.78716	71.55637	14.27588	54.145	377.9681	45.80412	69.82005	1.070999	14.3122	1.694	1	3	1	0.15	5301	131.6001	132.4215	60.23075	4.219059	191.7543	166.551	1.07434	14.04589	397.7347
8/12/2014 9:22:37 AM	09:22:37	0	A	1	60	85.71429	43817.14	61	88.57143	31000	1114.135	68.87698	71.55637	14.27588	54.145	378.4633	45.83928	69.90987	0.9529991	14.31248	1.676001	1	3	1	0.15	5291	130.7998	131.5672	59.96943	4.200753	192.4796	166.0896	1.066984	13.94973	395.0116
8/12/2014 9:22:47 AM	09:22:47	0	A	1	60	85.71429	43817.14	61	87.14285	30500	1127.233	69.64043	71.55637	14.27588	54.145	380.5344	45.85436	69.95478	0.9549999	14.31281	1.68	1	3	1	0.15	5282	131.6001	132.349	60.4167	4.232084	193.6302	167.6421	1.069811	13.98669	396.0582
8/12/2014 9:22:57 AM	09:22:57	0	A	1	60	85.71429	43817.14	62	88.57143	31000	1122.078	69.99969	71.55637	14.27588	54.145	383.1458	45.42719	70.04459	0.9599991	14.31154	1.669001	1	3	1	0.15	5291	132.2002	132.7757	60.06491	4.207442	194.8809	167.2191	1.065215	13.9266	394.3567
8/12/2014 9:23:07 AM	09:23:07	0	A	1	60	85.71429	43817.14	61	87.14285	30500	1114.727	69.64043	71.55637	14.27588	54.145	383.9112	46.29161	70.22423	0.9939995	14.31144	1.674	1	3	1	0.15	5283	133.7998	134.3859	60.42677	4.232789	195.5062	167.6626	1.067569	13.95736	395.2279
8/12/2014 9:23:17 AM	09:23:17	0	A	1	60	85.71429	43817.14	61	87.14285	30500	1122.755	69.19134	71.55637	14.27588	54.145	384.9917	46.8193	70.22423	1.028999	14.31357	1.712	1	3	1	0.15	5259	140.2002	139.7832	61.1203	4.28137	196.1065	168.7012	1.079661	14.11546	399.7048
8/12/2014 9:23:27 AM	09:23:27	0	A	1	59	84.28571	43086.86	62	88.57143	31000	1109.868	68.69735	71.55637	14.27588	54.145	386.5225	46.19612	70.26914	0.9780006	14.311	1.646	1	3	1	0.15	5296	129.7998	130.8845	60.33629	4.226451	196.957	166.6923	1.058591	13.83999	391.9042
8/12/2014 9:23:37 AM	09:23:37	0	A	1	60	85.71429	43817.14	62	88.57143	31000	1111.558	68.69735	71.55637	14.27588	54.145	386.6576	45.63826	70.26914	0.8829994	14.30988	1.639	1	3	1	0.15	5296	130	130.8845	60.48204	4.236661	197.032	166.9902	1.055665	13.80174	390.8211
8/12/2014 9:23:47 AM	09:23:47	0	A	1	60	85.71429	43817.14	62	88.57143	31000	1109.699	68.74226	71.55637	14.27588	54.145	387.423	46.52782	70.35896	0.9680004	14.31274	1.642	1	3	1	0.15	5290	131.6001	132.3479	60.2408	4.219762	197.4572	166.5343	1.057292	13.82301	391.4234
8/12/2014 9:23:57 AM	09:23:57	0	A	1	60	85.71429	43817.14	62	87.14285	30500	1112.023	68.65244	71.55637	14.27588	54.145	388.5035	46.08555	70.35896	0.9610004	14.31176	1.635	1	3	1	0.15	5291	131.7998	132.1717	60.10511	4.210258	198.0575	166.1815	1.055007	13.79314	390.5776
8/12/2014 9:24:07 AM	09:24:07	0	A	1	60	85.71429	43817.14	62	88.57143	31000	1115.952	68.78716	71.55637	14.27588	54.145	389.6742	46.17601	70.44878	0.9790001	14.3114	1.629999	1	3	1	0.15	5294	132.6001	133.4559	60.65794	4.248982	198.7079	167.4238	1.053302	13.77085	389.9463
8/12/2014 9:24:17 AM	09:24:17	0	A	1	60	87.14285	44547.43	61	87.14285	30500	1124.867	68.69735	71.55637	14.27588	54.145	390.7547	47.16104	70.40386	1.048	14.31223	1.698999	1	3	1	0.15	5261	142	141.8398	61.40175	4.301085	199.3082	168.8578	1.073753	14.03822	397.5174
8/12/2014 9:24:27 AM	09:24:27	0	A	1	60	85.71429	43817.14	61	87.14285	30500	1112.868	68.83208	71.55637	14.27588	54.145	390.5296	45.61817	70.49368	1.011	14.30974	1.625999	1	3	1	0.15	5302	129.7998	130.8312	59.84378	4.191952	199.1831	165.7939	1.051899	13.7525	389.4267
8/12/2014 9:24:37 AM	09:24:37	0	A	1	60	85.71429	43817.14	61	87.14285	30500	1111.262	68.78716	71.55637	14.27588	54.145	390.1244	46.01519	70.49368	0.9090004	14.31216	1.617001	1	3	1	0.15	5295	129.7998	130.6584	59.98952	4.20216	198.958	166.0562	1.049084	13.7157	388.3847
8/12/2014 9:24:47 AM	09:24:47	0	A	1	60	85.71429	43817.14	62	88.57143	31000	1108.474	68.65244	71.55637	14.27588	54.145	390.4395	45.38196	70.53859	0.9309998	14.31061	1.628	1	3	1	0.15	5298	129.7998	130.7325	60.30614	4.224339	199.1331	166.5932	1.050912	13.7396	389.0614
8/12/2014 9:24:57 AM	09:24:57	0	A	1	60	85.71429	43817.14	62	88.57143	31000	1114.093	68.83208	71.55637	14.27588	54.145	391.34	45.76893	70.62841	1.004	14.31256	1.636999	1	3	1	0.15	5295	130	130.8598	60.13527	4.21237	199.6334	166.3927	1.055413	13.79845	390.7278
8/12/2014 9:25:07 AM	09:25:07	0	A	1	60	85.71429	43817.14	62	88.57143	31000	1114.135	69.05662	71.55637	14.27588	54.145	391.9703	46.03026	70.71822	1.045	14.3131	1.621	1	3	1	0.15	5294	131.6001	132.4479	60.32624	4.225748	199.9085	166.9708	1.050185	13.73009	388.7922
8/12/2014 9:25:17 AM	09:25:17	0	A	1	60	85.71429	43817.14	61	87.14285	30500	1115.825	69.0117	71.55637	14.27588	54.145	392.5107	47.18115	70.71822	0.9969997	14.31346	1.667999	1	3	1	0.15	5267	138	138.3912	60.97958	4.271513	200.2837	168.2655	1.066197	13.93943	394.72
8/12/2014 9:25:27 AM	09:25:27	4	A	1	59	84.28571	43086.86	62	88.57143	31000	1108.009	69.10152	71.55637	14.27588	54.145	392.9158	45.35179	70.85295	0.9790001	14.30981	1.607	1	3	1	0.15	5295	129.7998	130.6584	60.02973	4.204978	200.5088	166.4001	1.045406	13.66761	387.0231
8/12/2014 9:25:47 AM	09:25:47	0	A	1	60	85.71429	43817.14	61	87.14285	30500	1110.375	69.14643	71.55637	14.27588	54.145	392.6907	45.25632	70.89786	0.9500008	14.31061	1.603001	1	3	1	0.15	5290	130.6001	131.9451	59.82368	4.190544	200.3837	166.0136	1.044116	13.65074	386.5453
8/12/2014 9:25:57 AM	09:25:57	0	A	1	60	85.71429	43817.14	61	87.14285	30500	1119.375	69.55061	71.55637	14.27588	54.145	393.231	46.04032	70.89786	0.9869995	14.31061	1.622	1	3	1	0.15	5282	131.7998	132.5499	60.34635	4.227156	200.6839	167.4232	1.049936	13.72684	388.7002
8/12/2014 9:26:07 AM	09:26:07	0	A	1	60	85.71429	43817.14	61	87.14285	30500	1113.375	69.28116	71.55637	14.27588	54.145	393.6812	46.00514	70.94276	0.9689999	14.31436	1.620001	1	3	1	0.15	5285	132.6001	133.4305	60.3564	4.227859	200.934	167.2195	1.04969	13.72361	388.6088
8/12/2014 9:26:17 AM	09:26:17	0	A	1	60	85.71429	43817.14	61	87.14285	30500	1129.641	70.08951	71.55637	14.27588	54.145	394.6267	46.34185	70.94276	1.018999	14.31003	1.658001	1	3	1	0.15	5246	133	133.2447	61.28615	4.292987	201.4593	169.7882	1.061721	13.88091	393.063
8/12/2014 9:26:27 AM	09:26:27	0	A	1	60	85.71429	43817.14	62	88.57143	31000	1118.91	71.30203	71.55637	14.27588	54.145	396.6528	45.3317	71.07749	0.9710007	14.31436	1.59	1	3	1	0.15	5289	128.6001	129.1006	59.83875	4.1916	202.5849	167.8349	1.039838	13.59482	384.9617
8/12/2014 9:26:37 AM	09:26:37	0	A	1	60	85.71429	43817.14	61	87.14285	30500	1111.431	70.89786	71.55637	14.27588	54.145	395.6623	45.41211	71.1673	1.018999	14.31017	1.587999	1	3	1	0.15	5275	129.3999	130.1649	59.57742	4.173294	202.0346	166.9584	1.037316	13.56185	384.0281
8/12/2014 9:26:47 AM	09:26:47	0	A	1	59	84.28571	43086.86	60	87.14285	30500	1100.446	70.04459	71.55637	14.27588	54.145	393.7263	44.83918	71.25713	0.9389992	14.31216	1.552	1	3	1	0.15	5180	130.3999	129.004	58.88387	4.124712	200.959	164.8094	1.027136	13.42875	380.2593
8/12/2014 9:26:57 AM	09:26:57	0	A	1	59	84.28571	43086.86	60	85.71429	30000	1101.376	69.68533	71.55637	14.27588	54.145	392.3305	44.89447	71.30203	0.948	14.3092	1.555	1	3	1	0.15	5166	128.7998	127.0819	59.11505	4.140905	200.3087	164.9938	1.027981	13.4398	380.5721
8/12/2014 9:27:07 AM	09:27:07	0	A	1	59	84.28571	43086.86	60	85.71429	30000	1103.488	69.37097	71.55637	14.27588	54.145	392.0154	45.25129	71.43676	0.9720001	14.30995	1.561001	1	3	1	0.15	5146	131.6001	128.9413	59.46183	4.165196	200.0086	165.4528	1.030832	13.47707	381.6274
8/12/2014 9:27:17 AM	09:27:17	0	A	1	59	84.28571	43086.86	60	85.71429	30000	1101.883	69.28116	71.55637	14.27588	54.145	391.9703	45.15077	71.39185	0.9230003	14.30876	1.549999	1	3	1	0.15	5131	126.2002	123.0945	59.09494	4.139497	199.9835	164.6175	1.026224	13.41683	379.9217
8/12/2014 9:27:27 AM	09:27:27	0	A	1	59	84.28571	43086.86	61	87.14285	30500	1096.348	68.78716	71.55637	14.27588	54.145	391.0699	44.92462	71.30203	0.9769993	14.30923	1.545	1	3	1	0.15	5195	128.3999	126.8062	59.03464	4.135273	199.4833	164.0833	1.025009	13.40094	379.4717
8/12/2014 9:27:37 AM	09:27:37	0	A	1	59	84.28571	43086.86	60	85.71429	30000	1099.094	68.78716	71.55637	14.27588	54.145	390.7997	44.67835	71.57149	0.8869991	14.30941	1.549	1	3	1	0.15	5194	129	127.1773	58.98941	4.132105	199.3332	163.9893	1.025749	13.41062	379.7458
8/12/2014 9:27:47 AM	09:27:47	0	A	1	59	84.28571	43086.86	60	85.71429	30000	1098.249	68.87698	71.55637	14.27588	54.145	390.5746	44.58789	71.61639	0.9640007	14.31057	1.542	1	3	1	0.15	5176	127.3999	125.1596	59.15023	4.14337	199.2081	164.3978	1.023432	13.38033	378.8881
8/12/2014 9:27:57 AM	09:27:57	0	A	1	59	84.28571	43086.86	60	85.71429	30000	1100.235	69.10152	71.55637	14.27588	54.145	390.3945	44.8241	71.43676	0.9689999	14.31024	1.545	1	3	1	0.15	5164	130.3999	127.8191	59.35629	4.157804	199.1081	165.011	1.024577	13.39529	379.3117
8/12/2014 9:28:07 AM	09:28:07	0	A	1	59	84.28571	43086.86	60	85.71429	30000	1101.756	69.14643	71.55637	14.27588	54.145	390.9798	44.88943	71.48167	0.8990002	14.30818	1.551001	1	3	1	0.15	5175	131.2002	129.0767	59.21557	4.147947	199.4332	164.7565	1.026452	13.41981	380.006
8/12/2014 9:28:17 AM	09:28:17	0	A	1	60	85.71429	43817.14	60	85.71429	30000	1109.065	69.46079	71.55637	14.27588	54.145	392.3305	44.72861	71.43676	0.9430008	14.30912	1.542999	1	3	1	0.15	5147	126.2002	123.6746	59.40655	4.161325	200.1836	165.4128	1.025201	13.40345	379.5427
8/12/2014 9:28:27 AM	09:28:27	0	A	1	59	84.28571	43086.86	61	87.14285	30500	1109.488	69.5057	71.55637	14.27588	54.145	392.9158	44.64318	71.52657	0.9629993	14.31053	1.549	1	3	1	0.15	5194	127	125.7928	58.67782	4.110278	200.5088	163.9337	1.025843	13.41185	379.7806
8/12/2014 9:28:37 AM	09:28:37	0	A	1	59	84.28571	43086.86	60	85.71429	30000	1111.136	70.04459	71.55637	14.27588	54.145	394.2215	44.46225	71.75111	0.9449997	14.30667	1.533001	1	3	1	0.15	5185	128	126.5621	58.64767	4.108166	201.0841	164.3158	1.018859	13.32053	377.1949
8/12/2014 9:28:47 AM	09:28:47	0	A	1	59	84.28571	43086.86	61	87.14285	30500	1106.361	69.86496	71.55637	14.27588	54.145	394.4016	45.17088	71.6613	0.9249992	14.31017	1.561001	1	3	1	0.15	5197	129	127.6464	59.00952	4.133513	201.3342	164.9228	1.02964	13.46148	381.186
8/12/2014 9:28:57 AM	09:28:57	0	A	1	59	84.28571	43086.86	60	85.71429	30000	1104.925	69.55061	71.55637	14.27588	54.145	393.7263	44.43713	71.6613	0.9139996	14.31035	1.559999	1	3	1	0.15	5194	129	127.5727	59.05474	4.136681	200.959	164.7569	1.031277	13.48289	381.7924
8/12/2014 9:29:07 AM	09:29:07	0	A	1	60	85.71429	43817.14	60	85.71429	30000	1103.235	69.59552	71.55637	14.27588	54.145	393.8613	45.29148	71.93075	0.9850006	14.30988	1.565001	1	3	1	0.15	5177	131.2002	129.3239	59.19043	4.146186	201.0341	165.0761	1.030668	13.47492	381.5667
8/12/2014 9:29:17 AM	09:29:17	0	A	1	60	85.71429	43817.14	60	85.71429	30000	1105.558	69.5057	71.55637	14.27588	54.145	393.6362	44.79395	71.84093	0.9529991	14.31064	1.563	1	3	1	0.15	5188	125.7998	124.067	59.18039	4.145483	200.909	164.9809	1.030149	13.46815	381.3748
8/12/2014 9:29:27 AM	09:29:27	0	A	1	60	84.28571	43086.86	61	87.14285	30500	1102.39	69.46079	71.55637	14.27588	54.145	392.4656	44.38184	71.88584	0.8829994	14.30902	1.530001	1	3	1	0.15	5201	127.2002	126.1601	59.10501	4.140202	200.2587	164.787	1.019483	13.3287	377.426
8/12/2014 9:29:37 AM	09:29:37	0	A	1	59	84.28571	43086.86	61	87.14285	30500	1102.601	69.46079	71.55637	14.27588	54.145	391.9253	44.9799	71.88584	0.9029999	14.31064	1.549	1	3	1	0.15	5200	128.6001	127.5219	59.17034	4.144779	199.9585	164.9229	1.026816	13.42457	380.1408
8/12/2014 9:29:47 AM	09:29:47	0	A	1	59	85.71429	43817.14	61	87.14285	30500	1105.305	69.86496	71.55637	14.27588	54.145	392.7808	44.59292	71.93075	0.8649998	14.31209	1.539	1	3	1	0.15	5185	127.6001	125.9697	58.63762	4.107462	200.4338	164.1464	1.026153	13.41589	379.8951
8/12/2014 9:29:57 AM	09:29:57	0	A	1	59	84.28571	43086.86	60	85.71429	30000	1102.939	69.95478	71.55637	14.27588	54.145	393.0059	44.91959	72.02056	0.9810009	14.30858	1.559	1	3	1	0.15	5172	130.3999	128.8047	59.10501	4.140202	200.5588	165.1959	1.028574	13.44755	380.7917
8/12/2014 9:30:07 AM	09:30:07	1	A	1	60	85.71429	43817.14	60	85.71429	30000	1106.784	69.77515	71.55637	14.27588	54.145	393.276	45.06534	72.02056	0.9920006	14.31191	1.549999	1	3	1	0.15	5148	133.7998	130.9518	59.57742	4.173294	200.7089	166.0271	1.022422	13.36712	378.514
8/12/2014 9:30:17 AM	09:30:17	11	A	1	60	85.71429	43817.14	60	85.71429	30000	1104.502	69.59552	71.55637	14.27588	54.145	393.321	44.84922	71.93075	0.9500008	14.31245	1.556	1	3	1	0.15	5193	127	125.5707	59.25577	4.150763	200.7339	165.2117	1.027822	13.43771	380.513
8/12/2014 9:30:27 AM	09:30:27	21	A	1	59	84.28571	43086.86	61	87.14285	30500	1100.108	69.41589	71.55637	14.27588	54.145	392.9158	44.9397	72.06548	0.9139996	14.31158	1.535999	1	3	1	0.15	5203	128.7998	127.5955	59.35629	4.157804	200.5838	165.2714	1.021045	13.34911	378.0041
8/12/2014 9:30:37 AM	09:30:37	31	A	1	59	84.28571	43086.86	60	87.14285	30500	1101.671	69.28116	71.55637	14.27588	54.145	392.5107	44.77887	72.2002	0.9230003	14.30992	1.562	1	3	1	0.15	5186	128.2002	126.3888	59.07987	4.138441	200.2837	164.5861	1.0255	13.40736	379.6536
8/12/2014 9:30:47 AM	09:30:47	41	A	1	59	84.28571	43086.86	61	87.14285	30500	1101.714	69.55061	71.55637	14.27588	54.145	392.2855	44.88441	72.11038	0.9899998	14.30974	1.541	1	3	1	0.15	5187	129.7998	128.1907	59.19547	4.146538	200.1586	165.0494	1.022593	13.36936	378.5773
8/12/2014 9:30:57 AM	09:30:57	51	A	1	59	84.28571	43086.86	61	87.14285	30500	1102.728	69.55061	71.55637	14.27588	54.145	392.1505	45.2161	72.11038	0.882	14.3118	1.552999	1	3	1	0.15	5174	129.3999	127.4755	59.11505	4.140905	200.0836	164.8823	1.026634	13.42218	380.0732
8/12/2014 9:31:07 AM	09:31:07	61	A	1	60	85.71429	43817.14	59	84.28571	29500	1107.46	69.86496	71.55637	14.27588	54.145	392.8708	45.23621	72.15529	0.9510002	14.3097	1.546	1	3	1	0.15	5096	131	127.3005	59.20551	4.147242	200.4838	165.3305	1.025206	13.40352	379.5447
8/12/2014 9:31:17 AM	09:31:17	71	A	1	59	84.28571	43086.86	60	85.71429	30000	1101.587	69.90987	71.55637	14.27588	54.145	392.0154	44.74872	72.24511	0.9290009	14.30963	1.559	1	3	1	0.15	5187	127.6001	126.2155	59.37137	4.15886	200.0086	165.7121	1.028388	13.44512	380.7227
8/12/2014 9:31:27 AM	09:31:27	81	A	1	60	84.28571	43086.86	60	85.71429	30000	1100.108	70.17932	71.55637	14.27588	54.145	391.9703	44.7085	72.2002	0.9489994	14.31042	1.541	1	3	1	0.15	5197	128	126.2612	59.02459	4.134569	199.9835	165.2143	1.022531	13.36854	378.5544
8/12/2014 9:31:37 AM	09:31:37	91	A	1	59	84.28571	43086.86	60	85.71429	30000	1102.474	69.77515	71.55637	14.27588	54.145	391.9253	44.90954	72.29002	0.9909992	14.31014	1.547001	1	3	1	0.15	5186	127.3999	125.7963	59.27588	4.152171	199.9585	165.4023	1.026407	13.41922	379.9892
8/12/2014 9:31:47 AM	09:31:47	101	A	1	59	84.28571	43086.86	61	87.14285	30500	1104.502	69.68533	71.55637	14.27588	54.145	392.0604	44.8241	72.29002	0.9729996	14.31108	1.546	1	3	1	0.15	5192	128.3999	126.9304	58.93915	4.128584	200.0336	164.6276	1.02414	13.38957	379.1499
8/12/2014 9:31:57 AM	09:31:57	111	A	1	60	85.71429	43817.14	60	85.71429	30000	1104.333	69.77515	71.55637	14.27588	54.145	392.3305	45.14072	72.42474	0.9969997	14.31266	1.559999	1	3	1	0.15	5179	131.2002	129.5708	59.39649	4.16062	200.1836	165.6525	1.02865	13.44854	380.8196
8/12/2014 9:32:07 AM	09:32:07	121	A	1	60	85.71429	43817.14	60	85.71429	30000	1107.122	69.73024	71.55637	14.27588	54.145	392.6457	45.34174	72.33492	0.948	14.3092	1.559	1	3	1	0.15	5165	128.6001	126.2703	59.34121	4.156748	200.3587	165.5007	1.028946	13.45241	380.9292
8/12/2014 9:32:17 AM	09:32:17	131	A	1	60	85.71429	43817.14	60	87.14285	30500	1101.545	69.5057	71.55637	14.27588	54.145	392.5107	45.1759	72.33492	1.025999	14.31241	1.556999	1	3	1	0.15	5210	128.7998	127.7671	59.14521	4.143018	200.2837	164.9078	1.02709	13.42815	380.2423
8/12/2014 9:32:27 AM	09:32:27	141	A	1	59	84.28571	43086.86	61	87.14285	30500	1100.953	69.5057	71.55637	14.27588	54.145	392.6007	44.94974	72.42474	0.9680004	14.31227	1.548	1	3	1	0.15	5202	129.2002	128.3636	58.86377	4.123303	200.3337	164.3219	1.023722	13.38412	378.9955
8/12/2014 9:32:37 AM	09:32:37	151	A	1	59	84.28571	43086.86	60	85.71429	30000	1102.136	69.5057	71.55637	14.27588	54.145	392.6457	45.38196	72.33492	1.01	14.3118	1.549	1	3	1	0.15	5193	128.3999	126.7574	59.56736	4.172589	200.3587	165.7828	1.023124	13.3763	378.774
8/12/2014 9:32:47 AM	09:32:47	161	A	1	60	85.71429	43817.14	60	85.71429	30000	1098.925	69.23625	71.55637	14.27588	54.145	392.7808	44.90954	72.33492	0.9820004	14.31003	1.549999	1	3	1	0.15	5173	129.3999	127.0569	59.37638	4.159211	200.4338	165.1642	1.02536	13.40552	379.6015
8/12/2014 9:32:57 AM	09:32:57	171	A	1	60	85.71429	43817.14	60	85.71429	30000	1103.699	69.37097	71.55637	14.27588	54.145	393.0959	44.97486	72.37983	0.9810009	14.31194	1.563999	1	3	1	0.15	5166	127	124.7209	59.36634	4.158508	200.6089	165.2551	1.027043	13.42753	380.2248
8/12/2014 9:33:07 AM	09:33:07	181	A	1	59	84.28571	43086.86	61	87.14285	30500	1098.333	69.32607	71.55637	14.27588	54.145	392.8708	45.06534	72.29002	0.9510002	14.31183	1.52	1	3	1	0.15	5207	129.2002	128.0905	59.70306	4.182095	200.4838	165.9141	1.01554	13.27714	375.9661
8/12/2014 9:33:17 AM	09:33:17	191	A	1	59	85.71429	43817.14	61	87.14285	30500	1099.897	69.28116	71.55637	14.27588	54.145	392.8708	44.92963	72.42474	0.9330006	14.31147	1.554001	1	3	1	0.15	5192	130.2002	128.7101	59.10501	4.140202	200.4838	164.6384	1.026642	13.42229	380.0764
8/12/2014 9:33:27 AM	09:33:27	201	A	1	59	84.28571	43086.86	60	85.71429	30000	1100.446	69.46079	71.55637	14.27588	54.145	392.9158	45.08543	72.33492	0.9740009	14.31216	1.554001	1	3	1	0.15	5186	128.3999	126.3888	59.0447	4.135978	200.5088	164.6616	1.02445	13.39363	379.2648
8/12/2014 9:33:37 AM	09:33:37	211	A	1	59	84.28571	43086.86	60	85.71429	30000	1100.15	69.46079	71.55637	14.27588	54.145	393.186	44.31149	72.33492	0.9659996	14.31429	1.556	1	3	1	0.15	5180	129.3999	127.6233	59.33115	4.156043	200.6589	165.2565	1.027827	13.43779	380.5151
8/12/2014 9:33:47 AM	09:33:47	221	A	1	59	84.28571	43086.86	60	84.28571	29500	1105.474	69.90987	71.55637	14.27588	54.145	393.4561	45.25632	72.46965	1.033001	14.31003	1.549999	1	3	1	0.15	5107	128	124.6582	59.37638	4.159211	200.809	165.7225	1.025234	13.40389	379.5552
8/12/2014 9:33:57 AM	09:33:57	231	A	1	60	84.28571	43086.86	60	85.71429	30000	1100.7	70.04459	71.55637	14.27588	54.145	392.8258	44.59794	72.51456	0.9489994	14.31086	1.535999	1	3	1	0.15	5202	126.2002	124.7978	58.95926	4.129992	200.5338	164.9666	1.023241	13.37782	378.8172
8/12/2014 9:34:07 AM	09:34:07	241	A	1	59	84.28571	43086.86	61	87.14285	30500	1100.488	69.68533	71.55637	14.27588	54.145	392.3305	44.83918	72.55946	0.9540005	14.31346	1.530001	1	3	1	0.15	5192	128.3999	126.9304	59.24069	4.149706	200.1836	165.2549	1.019665	13.33107	377.4934
8/12/2014 9:34:17 AM	09:34:17	251	A	1	59	84.28571	43086.86	61	85.71429	30000	1101.587	69.82005	71.55637	14.27588	54.145	392.2855	44.63815	72.64928	0.9519997	14.30959	1.535999	1	3	1	0.15	5186	127.2002	125.7963	58.98941	4.132105	200.1586	164.8438	1.020419	13.34092	377.7723
8/12/2014 9:34:27 AM	09:34:27	261	A	1	59	84.28571	43086.86	60	85.71429	30000	1105.051	70.08951	71.55637	14.27588	54.145	392.4656	44.42205	72.55946	0.9230003	14.31151	1.538	1	3	1	0.15	5163	129	127.0081	58.98438	4.131752	200.2587	165.0561	1.019579	13.32995	377.4616
8/12/2014 9:34:37 AM	09:34:37	271	A	1	60	85.71429	43817.14	59	84.28571	29500	1110.206	70.5835	71.55637	14.27588	54.145	393.8613	44.88441	72.60437	0.9360008	14.31028	1.538	1	3	1	0.15	5083	127.2002	123.4916	58.83361	4.121192	201.0341	165.15	1.021158	13.3506	378.0461
8/12/2014 9:34:47 AM	09:34:47	281	A	1	60	85.71429	43817.14	61	87.14285	30500	1100.319	70.17932	71.55637	14.27588	54.145	393.9964	45.01508	72.7391	0.9820004	14.31288	1.535999	1	3	1	0.15	5218	127.7998	127.1687	59.21557	4.147947	201.1091	165.6118	1.019463	13.32844	377.4186
8/12/2014 9:34:57 AM	09:34:57	291	A	1	59	84.28571	43086.86	61	87.14285	30500	1099.601	69.77515	71.55637	14.27588	54.145	393.5012	44.41199	72.64928	0.9610004	14.31165	1.514999	1	3	1	0.15	5205	127.7998	126.6535	58.69793	4.111687	200.834	164.1984	1.013536	13.25095	375.2244
8/12/2014 9:35:07 AM	09:35:07	301	A	1	59	84.28571	43086.86	60	85.71429	30000	1101.629	69.90987	71.55637	14.27588	54.145	393.5462	44.86432	72.55946	0.934	14.31111	1.523001	1	3	1	0.15	5185	129.2002	127.154	59.22562	4.148651	200.859	165.4095	1.016585	13.2908	376.3529
8/12/2014 9:35:17 AM	09:35:17	311	A	1	59	84.28571	43086.86	61	87.14285	30500	1103.319	70.04459	71.55637	14.27588	54.145	393.321	44.62308	72.7391	0.9899998	14.3131	1.530001	1	3	1	0.15	5180	130.3999	128.2151	59.39147	4.160268	200.7339	165.8654	1.01849	13.31572	377.0585
8/12/2014 9:35:27 AM	09:35:27	321	A	1	60	85.71429	43817.14	59	84.28571	29500	1106.657	69.95478	71.55637	14.27588	54.145	393.7713	44.98996	72.51456	0.9419994	14.31292	1.545	1	3	1	0.15	5114	126.7998	123.6604	59.05474	4.136681	200.9841	165.0913	1.021677	13.35737	378.238
8/12/2014 9:35:37 AM	09:35:37	331	A	1	59	84.28571	43086.86	60	85.71429	30000	1097.911	70.17932	71.55637	14.27588	54.145	393.9063	44.3919	72.784	0.9540005	14.31201	1.52	1	3	1	0.15	5201	126	124.7739	59.02459	4.134569	201.0591	165.2143	1.015754	13.27993	376.0453
8/12/2014 9:35:47 AM	09:35:47	341	A	1	59	84.28571	43086.86	60	85.71429	30000	1102.516	70.22423	71.55637	14.27588	54.145	393.276	44.98492	72.69419	0.9430008	14.31068	1.535	1	3	1	0.15	5196	125.6001	124.2583	58.94418	4.128936	200.7089	165.0837	1.018778	13.31948	377.165
8/12/2014 9:35:57 AM	09:35:57	351	A	1	59	84.28571	43086.86	60	87.14285	30500	1099.77	69.95478	71.55637	14.27588	54.145	392.8258	44.56277	72.784	0.9769993	14.31361	1.528999	1	3	1	0.15	5192	128.2002	126.535	59.25577	4.150763	200.4588	165.5094	1.018133	13.31105	376.9262
8/12/2014 9:36:07 AM	09:36:07	361	A	1	59	85.71429	43817.14	60	85.71429	30000	1103.15	70.13441	71.55637	14.27588	54.145	392.7357	44.79898	72.82892	0.9699993	14.31108	1.535999	1	3	1	0.15	5165	128.3999	126.0739	59.09494	4.139497	200.4088	165.3237	1.020956	13.34796	377.9714
8/12/2014 9:36:17 AM	09:36:17	371	A	1	59	84.28571	43086.86	60	85.71429	30000	1105.263	70.13441	71.55637	14.27588	54.145	392.7808	44.77887	72.87383	1.038	14.3123	1.525	1	3	1	0.15	5113	134.6001	130.8401	59.39649	4.16062	200.4338	165.9502	1.018334	13.31367	377.0005
8/12/2014 9:36:27 AM	09:36:27	381	A	1	60	84.28571	43086.86	61	87.14285	30500	1100.15	70.13441	71.55637	14.27588	54.145	392.7808	45.03016	72.87383	0.948	14.30898	1.518	1	3	1	0.15	5206	127.2002	126.0835	59.06982	4.137738	200.4338	165.2714	1.014228	13.25999	375.4805
8/12/2014 9:36:37 AM	09:36:37	391	A	1	59	84.28571	43086.86	60	85.71429	30000	1098.883	69.68533	71.55637	14.27588	54.145	392.0604	45.05026	73.09837	1.006001	14.3118	1.521	1	3	1	0.15	5191	127.6001	126.1154	58.50695	4.098309	200.1836	163.7245	1.015092	13.27128	375.8002
8/12/2014 9:36:47 AM	09:36:47	401	A	1	60	84.28571	43086.86	60	85.71429	30000	1101.629	69.82005	71.55637	14.27588	54.145	391.7903	44.60297	72.96364	0.9230003	14.31071	1.507	1	3	1	0.15	5179	128.2002	126.4156	58.86377	4.123303	199.8835	164.5818	1.009197	13.19422	373.618
8/12/2014 9:36:57 AM	09:36:57	411	A	1	59	84.28571	43086.86	60	85.71429	30000	1103.108	70.08951	71.55637	14.27588	54.145	392.1505	44.98996	72.91873	0.9489994	14.30941	1.527	1	3	1	0.15	5163	129.7998	127.5976	59.17536	4.14513	200.0836	165.4538	1.019835	13.33329	377.5562
8/12/2014 9:37:07 AM	09:37:07	421	A	1	60	84.28571	43086.86	60	85.71429	30000	1105.094	70.22423	71.55637	14.27588	54.145	392.4656	45.08041	72.96364	1.01	14.30891	1.535	1	3	1	0.15	5110	127.3999	124.1475	58.93915	4.128584	200.2587	165.0733	1.01976	13.33231	377.5285
8/12/2014 9:37:17 AM	09:37:17	431	A	1	60	85.71429	43817.14	61	87.14285	30500	1102.178	70.04459	71.55637	14.27588	54.145	392.7357	45.08041	72.96364	0.9500008	14.30974	1.552999	1	3	1	0.15	5210	127.6001	125.9818	59.37638	4.159211	200.4088	165.8341	1.025725	13.4103	379.7368
8/12/2014 9:37:27 AM	09:37:27	441	A	1	59	84.28571	43086.86	60	85.71429	30000	1100.573	70.08951	71.55637	14.27588	54.145	392.3305	45.07035	73.09837	0.9020004	14.31133	1.534	1	3	1	0.15	5204	127.3999	126.2329	59.27085	4.151819	200.1836	165.6522	1.020377	13.34038	377.7569
8/12/2014 9:37:37 AM	09:37:37	451	A	1	59	84.28571	43086.86	60	87.14285	30500	1100.193	69.99969	71.55637	14.27588	54.145	392.4206	44.89447	73.05346	0.9710007	14.30876	1.535	1	3	1	0.15	5190	127.3999	125.8933	59.07485	4.13809	200.2337	165.1703	1.019664	13.33106	377.493
8/12/2014 9:37:47 AM	09:37:47	461	A	1	60	85.71429	43817.14	60	85.71429	30000	1100.7	69.82005	71.55637	14.27588	54.145	392.4656	45.24124	72.96364	0.9780006	14.31118	1.532	1	3	1	0.15	5141	134	130.7738	59.57742	4.173294	200.2587	166.0644	1.01752	13.30303	376.6993
8/12/2014 9:37:57 AM	09:37:57	471	A	1	59	84.28571	43086.86	60	87.14285	30500	1101.291	69.55061	71.55637	14.27588	54.145	392.5557	44.38184	73.18819	0.9869995	14.31295	1.514999	1	3	1	0.15	5189	126.2002	125.0789	59.58747	4.173997	200.3087	165.8616	1.013074	13.2449	375.0531
8/12/2014 9:38:07 AM	09:38:07	481	A	1	59	84.28571	43086.86	60	85.71429	30000	1098.672	69.55061	71.55637	14.27588	54.145	392.0604	44.61805	73.09837	0.9890003	14.31274	1.535999	1	3	1	0.15	5199	128	126.3098	59.27085	4.151819	200.0336	165.2059	1.020098	13.33674	377.6537
8/12/2014 9:38:17 AM	09:38:17	491	A	1	59	84.28571	43086.86	61	87.14285	30500	1102.516	69.77515	71.55637	14.27588	54.145	392.1054	45.38196	73.14327	0.9680004	14.30985	1.541	1	3	1	0.15	5185	128	126.5621	59.27085	4.151819	200.0586	165.3919	1.022264	13.36505	378.4554
8/12/2014 9:38:27 AM	09:38:27	501	A	1	59	84.28571	43086.86	60	85.71429	30000	1102.981	69.86496	71.55637	14.27588	54.145	392.1505	44.93467	72.96364	0.948	14.31259	1.521999	1	3	1	0.15	5164	129.2002	127.2291	59.2005	4.146891	200.0336	165.3201	1.016919	13.29517	376.4766
8/12/2014 9:38:37 AM	09:38:37	511	A	1	59	84.28571	43086.86	60	84.28571	29500	1108.981	70.22423	71.55637	14.27588	54.145	392.9158	44.67835	73.18819	1.013	14.30869	1.534	1	3	1	0.15	5106	125.7998	122.3001	58.93414	4.128233	200.5088	165.0628	1.017899	13.30799	376.8397
8/12/2014 9:38:47 AM	09:38:47	521	A	1	59	85.71429	43817.14	61	87.14285	30500	1103.53	70.40386	71.55637	14.27588	54.145	393.321	44.6683	73.14327	0.9640007	14.31104	1.528	1	3	1	0.15	5200	128	126.9282	58.72808	4.113799	200.7339	164.7808	1.01735	13.30081	376.6363
8/12/2014 9:38:57 AM	09:38:57	531	A	1	59	84.28571	43086.86	61	87.14285	30500	1100.319	70.08951	71.55637	14.27588	54.145	392.5557	45.30155	73.18819	0.9839993	14.31209	1.537001	1	3	1	0.15	5195	128	126.8062	59.23566	4.149354	200.3087	165.5791	1.020317	13.3396	377.7349
8/12/2014 9:39:07 AM	09:39:07	541	A	1	59	84.28571	43086.86	60	85.71429	30000	1101.376	70.08951	71.55637	14.27588	54.145	392.6007	45.04523	73.09837	0.9580002	14.3122	1.530001	1	3	1	0.15	5173	129	126.8598	59.40655	4.161325	200.3337	165.9339	1.016683	13.29208	376.3892
8/12/2014 9:39:17 AM	09:39:17	551	A	1	60	85.71429	43817.14	59	84.28571	29500	1103.953	69.90987	71.55637	14.27588	54.145	392.9158	45.03519	73.278	1.035999	14.31071	1.546	1	3	1	0.15	5111	128.3999	124.9501	59.46685	4.165549	200.5088	165.91	1.020193	13.33798	377.6888
8/12/2014 9:39:27 AM	09:39:27	561	A	1	60	85.71429	43817.14	60	85.71429	30000	1102.474	69.99969	71.55637	14.27588	54.145	392.8258	44.92963	73.18819	0.9839993	14.31342	1.528	1	3	1	0.15	5198	125.7998	124.9	58.74316	4.114855	200.4588	164.4784	1.018736	13.31893	377.1494
8/12/2014 9:39:37 AM	09:39:37	571	A	1	59	84.28571	43086.86	61	85.71429	30000	1102.221	69.86496	71.55637	14.27588	54.145	392.7357	44.76883	73.09837	0.9969997	14.31158	1.528999	1	3	1	0.15	5194	128.2002	126.1883	59.39147	4.160268	200.4088	165.7165	1.017756	13.30611	376.7866
8/12/2014 9:39:47 AM	09:39:47	581	A	1	60	85.71429	43817.14	60	85.71429	30000	1101.629	69.95478	71.55637	14.27588	54.145	392.6007	45.09549	73.23309	0.9810009	14.31173	1.524	1	3	1	0.15	5187	128.7998	127.2031	59.29095	4.153227	200.3337	165.5824	1.015957	13.28259	376.1206
8/12/2014 9:39:57 AM	09:39:57	591	A	1	60	85.71429	43817.14	60	85.71429	30000	1103.446	69.95478	71.55637	14.27588	54.145	392.5107	45.22615	73.278	0.9720001	14.31227	1.538	1	3	1	0.15	5156	126.7998	124.2834	59.38644	4.159916	200.2837	165.7806	1.020578	13.343	377.8311
8/12/2014 9:40:07 AM	09:40:07	601	A	1	59	84.28571	43086.86	61	87.14285	30500	1099.094	69.90987	71.55637	14.27588	54.145	392.2855	44.89447	73.18819	0.9500008	14.31173	1.521	1	3	1	0.15	5203	127.3999	126.0108	59.12008	4.141258	200.1586	165.1901	1.015007	13.27017	375.7689
8/12/2014 9:40:17 AM	09:40:17	611	A	1	59	84.28571	43086.86	60	85.71429	30000	1100.784	70.04459	71.55637	14.27588	54.145	392.2405	45.01005	73.278	1.007999	14.31118	1.514	1	3	1	0.15	5181	128	126.4644	59.38644	4.159916	200.1336	165.855	1.01257	13.23831	374.8666
8/12/2014 9:40:27 AM	09:40:27	621	A	1	60	85.71429	43817.14	59	84.28571	29500	1100.657	70.17932	71.55637	14.27588	54.145	392.2405	45.32667	73.278	1.051001	14.31194	1.546	1	3	1	0.15	5147	135	131.7102	59.43167	4.163085	200.1336	166.0604	1.022887	13.37319	378.686
8/12/2014 9:40:37 AM	09:40:37	631	A	1	59	84.28571	43086.86	60	87.14285	30500	1101.756	70.04459	71.55637	14.27588	54.145	392.4656	44.9397	73.36781	1.006001	14.31216	1.5	1	3	1	0.15	5182	127	125.5022	58.97936	4.131401	200.2587	165.0086	1.007863	13.17677	373.1239
8/12/2014 9:40:47 AM	09:40:47	641	A	1	60	85.71429	43817.14	60	85.71429	30000	1100.657	70.13441	71.55637	14.27588	54.145	392.2405	44.87436	73.41272	0.8719997	14.31115	1.527	1	3	1	0.15	5180	127	126.0452	58.85874	4.122952	200.1336	164.8312	1.018095	13.31055	376.9121
8/12/2014 9:40:57 AM	09:40:57	651	A	1	59	84.28571	43086.86	61	87.14285	30500	1100.446	70.13441	71.55637	14.27588	54.145	391.8353	44.69846	73.278	0.9689999	14.31292	1.525999	1	3	1	0.15	5165	128.6001	126.6636	59.18542	4.145834	199.9085	165.5119	1.016622	13.29129	376.3667
8/12/2014 9:41:07 AM	09:41:07	661	A	1	59	84.28571	43086.86	60	85.71429	30000	1110.713	71.39185	71.55637	14.27588	54.145	393.4561	44.29138	73.54745	0.9850006	14.31021	1.504999	1	3	1	0.15	5113	125.2002	121.4943	58.81854	4.120135	200.809	165.7866	1.005957	13.15186	372.4185
8/12/2014 9:41:17 AM	09:41:17	671	A	1	60	85.71429	43817.14	60	85.71429	30000	1101.545	70.89786	71.55637	14.27588	54.145	392.8708	44.80399	73.36781	1.017	14.31111	1.514999	1	3	1	0.15	5186	126	124.6117	58.62253	4.106405	200.4838	164.9677	1.013821	13.25466	375.3297
8/12/2014 9:41:31 AM	09:41:31	0	A	1	60	85.71429	43817.14	60	85.71429	30000	1110.206	71.21222	71.55637	14.27588	54.145	393.0509	44.71354	73.41272	1.01	14.31216	1.507	1	3	1	0.15	5145	127.7998	125.1935	59.05474	4.136681	200.5838	166.1317	1.011168	13.21998	374.3475
8/12/2014 9:41:41 AM	09:41:41	0	A	1	59	85.71429	43817.14	60	85.71429	30000	1105.643	71.30203	71.55637	14.27588	54.145	394.0864	44.89948	73.50254	0.9300003	14.31256	1.552	1	3	1	0.15	5160	125.7998	123.3974	59.49701	4.167661	201.1591	167.1268	1.024993	13.40073	379.4659
8/12/2014 9:41:51 AM	09:41:51	0	A	1	60	85.71429	43817.14	60	85.71429	30000	1102.136	70.76313	71.55637	14.27588	54.145	393.4561	44.72358	73.41272	0.9790001	14.30757	1.499001	1	3	1	0.15	5186	128.2002	126.5865	59.03464	4.135273	200.809	165.7183	1.007306	13.1695	372.918
8/12/2014 9:42:01 AM	09:42:01	0	A	1	60	84.28571	43086.86	60	85.71429	30000	1099.305	70.62841	71.55637	14.27588	54.145	393.186	44.85928	73.54745	0.9740009	14.31263	1.527	1	3	1	0.15	5181	129	127.4509	59.09494	4.139497	200.6589	165.7325	1.016356	13.28782	376.2685
8/12/2014 9:42:11 AM	09:42:11	0	A	1	60	85.71429	43817.14	60	85.71429	30000	1103.657	70.44878	71.55637	14.27588	54.145	393.276	44.75375	73.50254	0.9839993	14.31292	1.531	1	3	1	0.15	5105	127.6001	124.2202	59.27588	4.152171	200.7089	165.9603	1.018405	13.3146	377.0268
8/12/2014 9:42:21 AM	09:42:21	2	A	2	59	84.28571	43086.86	60	85.71429	30000	1099.559	70.22423	71.55637	14.27588	54.145	393.3661	44.93467	73.59235	1.018	14.31028	1.535999	1	3	1	0.15	5189	127.2002	125.6717	58.9291	4.12788	200.7589	165.0523	1.019872	13.33378	377.5701
8/12/2014 9:42:31 AM	09:42:31	12	A	2	59	84.28571	43086.86	60	85.71429	30000	1098.418	69.90987	71.55637	14.27588	54.145	392.8708	44.85928	73.63726	1.007999	14.31209	1.534	1	3	1	0.15	5184	128	126.5377	58.87885	4.12436	200.4838	164.6875	1.020553	13.34268	377.822
8/12/2014 9:42:41 AM	09:42:41	22	A	2	59	84.28571	43086.86	60	84.28571	29500	1100.404	69.64043	71.55637	14.27588	54.145	392.7357	45.0402	73.45763	1.065001	14.31082	1.51	1	3	1	0.15	5115	136.7998	133.2285	59.38141	4.159564	200.4088	165.5096	1.011059	13.21856	374.3074
8/12/2014 9:42:51 AM	09:42:51	32	A	2	60	84.28571	43086.86	61	87.14285	30500	1102.009	69.64043	71.55637	14.27588	54.145	392.9609	44.79395	73.45763	0.9909992	14.31389	1.527	1	3	1	0.15	5186	126.7998	125.4014	59.27085	4.151819	200.5338	165.2802	1.019465	13.32846	377.4192
8/12/2014 9:43:01 AM	09:43:01	42	A	2	59	84.28571	43086.86	60	85.71429	30000	1097.235	69.64043	71.55637	14.27588	54.145	392.7808	44.94471	73.68217	0.9839993	14.31104	1.514	1	3	1	0.15	5182	129.2002	127.278	59.4367	4.163437	200.4338	165.7358	1.016176	13.28546	376.2017
8/12/2014 9:43:11 AM	09:43:11	52	A	2	59	84.28571	43086.86	60	85.71429	30000	1100.024	69.59552	71.55637	14.27588	54.145	392.6007	44.76883	73.50254	1.077999	14.31346	1.537001	1	3	1	0.15	5169	130.6001	128.3364	59.52716	4.169773	200.3337	165.7741	1.02007	13.33636	377.6431
8/12/2014 9:43:21 AM	09:43:21	62	A	2	59	84.28571	43086.86	60	85.71429	30000	1102.305	69.68533	71.55637	14.27588	54.145	392.7808	45.08543	73.41272	0.9839993	14.31154	1.537001	1	3	1	0.15	5163	126	124.059	59.41156	4.161676	200.4338	165.6093	1.020103	13.33679	377.6553
8/12/2014 9:43:31 AM	09:43:31	72	A	2	60	84.28571	43086.86	60	85.71429	30000	1097.911	69.68533	71.55637	14.27588	54.145	392.4656	44.88943	73.45763	1.037001	14.31118	1.537001	1	3	1	0.15	5185	127.3999	126.1668	58.9693	4.130696	200.2587	164.6904	1.017718	13.30562	376.7725
8/12/2014 9:43:41 AM	09:43:41	82	A	2	59	85.71429	43817.14	60	85.71429	30000	1099.601	69.73024	71.55637	14.27588	54.145	392.6457	44.7839	73.41272	0.9519997	14.31357	1.504999	1	3	1	0.15	5164	130.2002	127.8191	58.66777	4.109575	200.3587	164.0982	1.009538	13.19868	373.7442
8/12/2014 9:43:51 AM	09:43:51	92	A	2	60	84.28571	43086.86	61	87.14285	30500	1103.192	70.08951	71.55637	14.27588	54.145	393.186	44.91959	73.54745	1	14.31154	1.518999	1	3	1	0.15	5166	126.6001	124.7209	59.32614	4.155692	200.6589	165.7671	1.01401	13.25714	375.3998
8/12/2014 9:44:01 AM	09:44:01	102	A	2	59	84.28571	43086.86	60	85.71429	30000	1101.46	70.44878	71.55637	14.27588	54.145	393.186	44.5477	73.59235	0.9549999	14.31259	1.531	1	3	1	0.15	5181	127	125.2805	59.33115	4.156043	200.6589	166.0751	1.017974	13.30896	376.8672
8/12/2014 9:44:11 AM	09:44:11	112	A	2	59	85.71429	43817.14	60	85.71429	30000	1101.376	70.5835	71.55637	14.27588	54.145	392.9609	44.65826	73.54745	0.9379997	14.31462	1.533001	1	3	1	0.15	5164	127.6001	125.8527	59.14019	4.142666	200.5338	165.7896	1.018433	13.31496	377.0371
8/12/2014 9:44:21 AM	09:44:21	122	A	2	60	85.71429	43817.14	59	84.28571	29500	1103.319	70.62841	71.55637	14.27588	54.145	393.0509	45.11057	73.68217	0.9729996	14.31382	1.52	1	3	1	0.15	5102	128	124.7301	59.40152	4.160972	200.5838	166.3701	1.014295	13.26087	375.5054
8/12/2014 9:44:31 AM	09:44:31	132	A	2	59	84.28571	43086.86	61	87.14285	30500	1100.953	70.62841	71.55637	14.27588	54.145	392.9158	45.10051	73.54745	1.047001	14.31361	1.521999	1	3	1	0.15	5196	128.2002	126.8306	59.4367	4.163437	200.5088	166.4431	1.014403	13.26228	375.5453
8/12/2014 9:44:41 AM	09:44:41	142	A	2	59	84.28571	43086.86	61	87.14285	30500	1099.643	70.53859	71.55637	14.27588	54.145	392.7808	44.98996	73.54745	1.073	14.31129	1.507999	1	3	1	0.15	5177	127.7998	125.9721	59.07987	4.138441	200.4338	165.6267	1.011341	13.22225	374.4118
8/12/2014 9:44:51 AM	09:44:51	152	A	2	60	85.71429	43817.14	60	85.71429	30000	1103.488	70.44878	71.55637	14.27588	54.145	392.8708	44.89447	73.68217	1.027	14.31234	1.524	1	3	1	0.15	5152	132.2002	129.484	59.01455	4.133865	200.4838	165.4162	1.015555	13.27734	375.9719
8/12/2014 9:45:01 AM	09:45:01	162	A	2	59	84.28571	43086.86	61	85.71429	30000	1100.869	70.31405	71.55637	14.27588	54.145	393.186	44.9397	73.68217	1.007	14.31281	1.513	1	3	1	0.15	5196	124.7998	123.4665	59.89404	4.195473	200.6589	167.1284	1.011928	13.22991	374.6288
8/12/2014 9:45:11 AM	09:45:11	172	A	2	59	84.28571	43086.86	61	87.14285	30500	1097.531	70.04459	71.55637	14.27588	54.145	392.9158	44.99497	73.68217	1.069	14.31097	1.511	1	3	1	0.15	5184	127.6001	126.3401	58.93915	4.128584	200.5088	164.9247	1.011191	13.22028	374.3561
8/12/2014 9:45:21 AM	09:45:21	182	A	2	59	84.28571	43086.86	61	87.14285	30500	1099.854	70.22423	71.55637	14.27588	54.145	392.6907	45.11057	73.72708	0.9990005	14.31021	1.524	1	3	1	0.15	5175	129.2002	126.9088	59.28091	4.152524	200.3837	165.7847	1.01545	13.27596	375.9328
8/12/2014 9:45:31 AM	09:45:31	192	A	2	60	85.71429	43817.14	60	85.71429	30000	1100.15	70.17932	71.55637	14.27588	54.145	392.9609	44.9799	73.54745	1.013	14.31115	1.532	1	3	1	0.15	5163	125.3999	123.2723	59.39147	4.160268	200.5338	165.9771	1.02027	13.33898	377.7171
8/12/2014 9:45:41 AM	09:45:41	202	A	2	59	84.28571	43086.86	61	87.14285	30500	1099.686	69.95478	71.55637	14.27588	54.145	392.9158	44.75876	73.68217	0.9839993	14.31032	1.523001	1	3	1	0.15	5202	127.3999	125.7883	59.37638	4.159211	200.5088	165.7597	1.013831	13.2548	375.3336
8/12/2014 9:45:51 AM	09:45:51	212	A	2	60	84.28571	43086.86	61	87.14285	30500	1101.122	69.90987	71.55637	14.27588	54.145	392.7808	44.9799	73.68217	0.9540005	14.31223	1.527	1	3	1	0.15	5188	129	127.8204	59.00952	4.133513	200.4338	164.9599	1.016561	13.29049	376.3441
8/12/2014 9:46:01 AM	09:46:01	222	A	2	59	84.28571	43086.86	60	85.71429	30000	1103.995	70.13441	71.55637	14.27588	54.145	393.0059	44.92462	73.63726	0.9519997	14.31476	1.532	1	3	1	0.15	5118	125.7998	122.7827	59.44675	4.164141	200.5588	166.0545	1.018336	13.3137	377.0013
8/12/2014 9:46:11 AM	09:46:11	232	A	2	59	84.28571	43086.86	61	87.14285	30500	1099.221	70.35896	71.55637	14.27588	54.145	393.0959	44.64318	73.86181	0.9979992	14.31252	1.516001	1	3	1	0.15	5207	126.3999	125.1163	59.00449	4.133161	200.6089	165.321	1.012731	13.24042	374.9262
8/12/2014 9:46:21 AM	09:46:21	242	A	2	59	84.28571	43086.86	60	85.71429	30000	1098.629	70.26914	71.55637	14.27588	54.145	393.186	44.9799	73.81689	1.068001	14.3101	1.530001	1	3	1	0.15	5179	128	126.0208	59.13516	4.142314	200.6589	165.5188	1.016007	13.28325	376.1391
8/12/2014 9:46:31 AM	09:46:31	252	A	2	60	85.71429	43817.14	60	85.71429	30000	1105.136	70.26914	71.55637	14.27588	54.145	393.276	45.1156	73.63726	0.9729996	14.3122	1.511	1	3	1	0.15	5099	129.3999	126.0159	59.38644	4.159916	200.7089	166.0411	1.011268	13.22129	374.3846
8/12/2014 9:46:41 AM	09:46:41	262	A	2	59	84.28571	43086.86	61	87.14285	30500	1100.446	70.26914	71.55637	14.27588	54.145	393.5012	44.72861	73.72708	1.002001	14.31389	1.511999	1	3	1	0.15	5192	126.7998	125.1512	58.81351	4.119783	200.834	164.8481	1.011578	13.22534	374.4993
8/12/2014 9:46:51 AM	09:46:51	272	A	2	60	85.71429	43817.14	60	85.71429	30000	1099.939	70.40386	71.55637	14.27588	54.145	393.4111	44.74872	73.68217	1.011999	14.30927	1.528	1	3	1	0.15	5175	129	127.3033	59.15527	4.143723	200.7839	165.6722	1.016784	13.29341	376.4268
8/12/2014 9:47:01 AM	09:47:01	282	A	2	60	85.71429	43817.14	60	85.71429	30000	1102.263	70.35896	71.55637	14.27588	54.145	393.5462	44.9799	73.77199	0.9589996	14.31209	1.531	1	3	1	0.15	5153	129.2002	127.1545	59.2005	4.146891	200.859	165.7292	1.017775	13.30637	376.7937
8/12/2014 9:47:11 AM	09:47:11	292	A	2	60	85.71429	43817.14	60	85.71429	30000	1102.897	70.26914	71.55637	14.27588	54.145	393.8163	45.0402	73.90672	0.9969997	14.31545	1.533001	1	3	1	0.15	5168	125.7998	123.9822	59.73322	4.184207	201.0091	166.7591	1.015461	13.27611	375.937
8/12/2014 9:47:21 AM	09:47:21	302	A	2	59	84.28571	43086.86	60	85.71429	30000	1098.925	70.31405	71.55637	14.27588	54.145	393.6362	44.90954	73.86181	0.9799995	14.3118	1.531	1	3	1	0.15	5182	127.6001	125.8968	59.04972	4.136329	200.909	165.3781	1.017702	13.30541	376.7667
8/12/2014 9:47:31 AM	09:47:31	312	A	2	60	85.71429	43817.14	60	85.71429	30000	1104.671	70.49368	71.55637	14.27588	54.145	394.1765	45.1558	73.86181	1.011	14.31021	1.537001	1	3	1	0.15	5167	128.3999	126.3192	59.34623	4.157099	201.2092	166.1437	1.019293	13.32621	377.3556
8/12/2014 9:47:41 AM	09:47:41	322	A	2	60	85.71429	43817.14	59	84.28571	29500	1104.291	70.5835	71.55637	14.27588	54.145	394.1765	44.7839	73.86181	0.9740009	14.30981	1.527	1	3	1	0.15	5103	127	123.5889	58.97433	4.131049	201.2092	165.4438	1.016306	13.28715	376.2496
8/12/2014 9:47:51 AM	09:47:51	332	A	2	59	84.28571	43086.86	60	85.71429	30000	1102.178	70.89786	71.55637	14.27588	54.145	394.0864	44.33158	73.90672	0.948	14.3135	1.518999	1	3	1	0.15	5178	126.6001	124.8137	59.00449	4.133161	201.1591	165.7668	1.01374	13.2536	375.2997
8/12/2014 9:48:01 AM	09:48:01	342	A	2	60	85.71429	43817.14	60	85.71429	30000	1104.671	70.94276	71.55637	14.27588	54.145	393.9514	44.80902	73.77199	1.056999	14.3123	1.525	1	3	1	0.15	5163	128.2002	125.8283	59.301	4.153931	201.0841	166.4217	1.016481	13.28945	376.3146
8/12/2014 9:48:11 AM	09:48:11	352	A	2	60	85.71429	43817.14	59	84.28571	29500	1102.432	70.71822	71.55637	14.27588	54.145	393.8163	44.96985	73.90672	1.07	14.31538	1.531	1	3	1	0.15	5145	131.2002	128.1323	59.42163	4.162381	201.0091	166.4863	1.017778	13.3064	376.7946
8/12/2014 9:48:21 AM	09:48:21	362	A	2	59	84.28571	43086.86	61	87.14285	30500	1100.953	70.49368	71.55637	14.27588	54.145	393.6812	45.25632	73.90672	0.9780006	14.3118	1.528	1	3	1	0.15	5186	127	125.2037	59.37137	4.15886	200.934	166.1958	1.016645	13.2916	376.3754
8/12/2014 9:48:31 AM	09:48:31	372	A	2	59	84.28571	43086.86	60	85.71429	30000	1096.813	69.82005	71.55637	14.27588	54.145	393.141	45.02011	73.77199	1.028	14.31035	1.518999	1	3	1	0.15	5183	127.3999	125.5264	59.0447	4.135978	200.6339	164.9589	1.01375	13.25375	375.3036
8/12/2014 9:48:41 AM	09:48:41	382	A	2	60	85.71429	43817.14	60	85.71429	30000	1102.178	70.17932	71.55637	14.27588	54.145	393.141	44.67334	73.77199	0.9699993	14.31082	1.507	1	3	1	0.15	5131	129	125.8298	58.713	4.112743	200.6339	164.5638	1.009766	13.20165	373.8285
8/12/2014 9:48:51 AM	09:48:51	392	A	2	59	84.28571	43086.86	60	85.71429	30000	1106.572	70.31405	71.55637	14.27588	54.145	394.4466	44.90451	73.86181	0.9979992	14.31046	1.489	1	3	1	0.15	5137	125.2002	122.4562	59.33115	4.156043	201.3593	165.9635	1.003636	13.12152	371.5593
8/12/2014 9:49:01 AM	09:49:01	402	A	2	59	84.28571	43086.86	61	87.14285	30500	1107.755	69.95478	71.55637	14.27588	54.145	394.7168	44.84922	73.86181	0.9799995	14.31151	1.504999	1	3	1	0.15	5167	126.2002	124.1551	59.34121	4.156748	201.5093	165.6867	1.010711	13.21401	374.1786
8/12/2014 9:49:11 AM	09:49:11	412	A	2	60	85.71429	43817.14	60	85.71429	30000	1102.812	69.95478	71.55637	14.27588	54.145	394.4016	44.59292	73.81689	0.9500008	14.31006	1.507	1	3	1	0.15	5158	129.3999	127.0813	59.08993	4.139146	201.3342	165.1646	1.009694	13.20071	373.8018
8/12/2014 9:49:21 AM	09:49:21	422	A	2	59	84.28571	43086.86	60	84.28571	29500	1103.235	70.08951	71.55637	14.27588	54.145	394.3566	44.54266	73.90672	1.028	14.31364	1.530001	1	3	1	0.15	5078	128.2002	124.3369	59.31607	4.154987	201.3092	165.7461	1.017371	13.30108	376.6439
8/12/2014 9:49:31 AM	09:49:31	432	A	2	60	85.71429	43817.14	60	85.71429	30000	1100.404	70.40386	71.55637	14.27588	54.145	393.9514	44.96985	73.90672	0.9659996	14.31252	1.497999	1	3	1	0.15	5173	127.7998	125.6781	59.20551	4.147242	201.0841	165.7768	1.008688	13.18756	373.4294
8/12/2014 9:49:41 AM	09:49:41	442	A	2	60	85.71429	43817.14	60	85.71429	30000	1103.995	70.40386	71.55637	14.27588	54.145	394.0414	45.02512	73.86181	1.062	14.31183	1.533001	1	3	1	0.15	5156	128.7998	126.6394	59.24069	4.149706	201.1341	165.8499	1.018354	13.31393	377.008
8/12/2014 9:49:51 AM	09:49:51	452	A	2	59	84.28571	43086.86	60	85.71429	30000	1104.375	70.26914	71.55637	14.27588	54.145	394.1315	45.27139	73.95162	0.9300003	14.31335	1.544001	1	3	1	0.15	5123	124.7998	121.7319	59.23566	4.149354	201.1842	165.7279	1.023264	13.37812	378.8256
8/12/2014 9:50:01 AM	09:50:01	462	A	2	59	84.28571	43086.86	60	85.71429	30000	1100.404	70.31405	71.55637	14.27588	54.145	393.5912	44.97486	73.95162	0.9599991	14.31111	1.502001	1	3	1	0.15	5170	127.7998	125.6052	59.01455	4.133865	200.884	165.3048	1.00794	13.17778	373.1527
8/12/2014 9:50:11 AM	09:50:11	472	A	2	59	84.28571	43086.86	60	85.71429	30000	1101.333	70.17932	71.55637	14.27588	54.145	393.4111	44.93467	74.04144	1.014999	14.3118	1.541	1	3	1	0.15	5150	129	126.492	59.42163	4.162381	200.7839	166.0396	1.020819	13.34616	377.9207
8/12/2014 9:50:21 AM	09:50:21	482	A	2	60	85.71429	43817.14	59	84.28571	29500	1103.404	70.22423	71.55637	14.27588	54.145	393.5912	45.196	73.95162	0.9939995	14.31321	1.540001	1	3	1	0.15	5080	127.6001	123.8055	59.68799	4.181039	200.884	166.6283	1.020625	13.34362	377.8486
8/12/2014 9:50:31 AM	09:50:31	492	A	2	60	85.71429	43817.14	60	85.71429	30000	1099.136	70.13441	71.55637	14.27588	54.145	393.5462	44.54266	74.04144	0.993	14.31509	1.527	1	3	1	0.15	5186	125.7998	124.6117	59.31607	4.154987	200.859	165.7834	1.017299	13.30014	376.6173
8/12/2014 9:50:41 AM	09:50:41	502	A	2	60	85.71429	43817.14	60	85.71429	30000	1099.77	69.95478	71.55637	14.27588	54.145	393.0509	45.53775	73.95162	1.02	14.31339	1.547001	1	3	1	0.15	5174	128.3999	126.0964	59.2608	4.151115	200.5838	165.5198	1.02293	13.37376	378.702
8/12/2014 9:50:51 AM	09:50:51	512	A	2	59	84.28571	43086.86	59	84.28571	29500	1101.714	69.90987	71.55637	14.27588	54.145	392.6457	45.12564	73.95162	1.039	14.31238	1.539	1	3	1	0.15	5134	130.7998	128.0541	59.47187	4.1659	200.3587	165.9204	1.020262	13.33888	377.7144
8/12/2014 9:51:01 AM	09:51:01	522	A	2	59	84.28571	43086.86	60	85.71429	30000	1101.502	70.08951	71.55637	14.27588	54.145	392.6457	44.91959	74.08635	1.070999	14.31277	1.483	1	3	1	0.15	5180	126.6001	125.0589	59.09998	4.13985	200.3587	165.297	1.001486	13.0934	370.7632
8/12/2014 9:51:11 AM	09:51:11	532	A	2	59	84.28571	43086.86	60	85.71429	30000	1107.84	71.03259	71.55637	14.27588	54.145	392.9158	44.97486	73.95162	0.9710007	14.31328	1.521	1	3	1	0.15	5118	128.3999	125.1213	59.301	4.153931	200.5088	166.4961	1.014997	13.27004	375.7651
8/12/2014 9:51:21 AM	09:51:21	542	A	2	60	85.71429	43817.14	59	85.71429	30000	1106.657	71.07749	71.55637	14.27588	54.145	392.6457	44.58286	73.95162	1.004999	14.31317	1.525	1	3	1	0.15	5077	134.3999	129.5323	59.59752	4.174701	200.3587	167.1491	1.015672	13.27887	376.0151
8/12/2014 9:51:31 AM	09:51:31	552	A	2	60	85.71429	43817.14	60	85.71429	30000	1101.756	71.03259	71.55637	14.27588	54.145	392.3756	45.10554	74.08635	1.023001	14.31104	1.511	1	3	1	0.15	5176	127.3999	124.9623	59.44675	4.164141	200.2087	166.799	1.010805	13.21524	374.2134
8/12/2014 9:51:41 AM	09:51:41	562	A	2	60	85.71429	43817.14	60	85.71429	30000	1101.883	70.89786	71.55637	14.27588	54.145	392.2855	44.83414	74.13126	1	14.31093	1.514	1	3	1	0.15	5167	128	126.3192	59.0447	4.135978	200.1586	165.8507	1.011774	13.2279	374.5719
8/12/2014 9:51:51 AM	09:51:51	572	A	2	59	84.28571	43086.86	60	85.71429	30000	1103.573	70.80804	71.55637	14.27588	54.145	392.2405	45.30155	74.08635	0.9689999	14.31534	1.528999	1	3	1	0.15	5145	128.3999	125.7814	59.73322	4.184207	200.1336	167.2065	1.016953	13.29561	376.4892
8/12/2014 9:52:01 AM	09:52:01	582	A	2	60	84.28571	43086.86	60	85.71429	30000	1103.235	70.49368	71.55637	14.27588	54.145	391.8803	44.8241	74.13126	0.9759998	14.31089	1.528999	1	3	1	0.15	5111	127.2002	123.7827	59.0447	4.135978	199.9335	165.5163	1.016733	13.29273	376.4077
8/12/2014 9:52:11 AM	09:52:11	592	A	2	60	85.71429	43817.14	60	85.71429	30000	1100.362	70.67332	71.55637	14.27588	54.145	391.6552	44.96985	74.04144	0.9890003	14.31053	1.521	1	3	1	0.15	5159	127.2002	125.338	59.30603	4.154284	199.8084	166.209	1.014832	13.26789	375.7041
8/12/2014 9:52:21 AM	09:52:21	602	A	2	60	85.71429	43817.14	60	85.71429	30000	1103.573	70.76313	71.55637	14.27588	54.145	392.0604	45.00503	74.04144	1.031	14.31075	1.530001	1	3	1	0.15	5136	129.3999	126.5392	59.79352	4.188431	200.0336	167.2939	1.017151	13.29821	376.5626
8/12/2014 9:52:31 AM	09:52:31	612	A	2	59	84.28571	43086.86	60	85.71429	30000	1105.136	70.5835	71.55637	14.27588	54.145	392.0154	44.63312	74.13126	1.051001	14.31248	1.531	1	3	1	0.15	5097	125.3999	121.8908	59.36634	4.158508	200.0086	166.2599	1.016789	13.29348	376.4287
8/12/2014 9:52:41 AM	09:52:41	622	A	2	59	84.28571	43086.86	61	87.14285	30500	1102.136	70.5835	71.55637	14.27588	54.145	392.2405	44.77887	74.08635	1.032	14.31266	1.525999	1	3	1	0.15	5177	127.3999	125.3811	59.52213	4.169421	200.1336	166.5831	1.015185	13.27251	375.8349
8/12/2014 9:52:51 AM	09:52:51	632	A	2	60	85.71429	43817.14	60	85.71429	30000	1102.052	70.71822	71.55637	14.27588	54.145	392.4206	45.03016	74.13126	1.004	14.31339	1.52	1	3	1	0.15	5145	129	126.761	59.34121	4.156748	200.2337	166.3193	1.015166	13.27226	375.8278
8/12/2014 9:53:01 AM	09:53:01	642	A	2	60	84.28571	43086.86	60	85.71429	30000	1102.347	70.62841	71.55637	14.27588	54.145	392.6007	45.31662	74.17616	0.9529991	14.31256	1.535	1	3	1	0.15	5125	129.7998	126.2682	59.32111	4.155339	200.3337	166.2031	1.01643	13.28877	376.2955
8/12/2014 9:53:11 AM	09:53:11	652	A	2	60	85.71429	43817.14	60	85.71429	30000	1103.361	70.62841	71.55637	14.27588	54.145	392.6907	45.01005	74.26598	0.9650002	14.31342	1.52	1	3	1	0.15	5155	126	124.2593	59.46685	4.165549	200.3837	166.5057	1.014062	13.25782	375.419
8/12/2014 9:53:21 AM	09:53:21	662	A	2	59	85.71429	43817.14	60	85.71429	30000	1101.291	70.53859	71.55637	14.27588	54.145	392.6907	45.10554	74.26598	1.025999	14.31241	1.527	1	3	1	0.15	5156	128.2002	126.2468	59.37137	4.15886	200.3837	166.2331	1.016005	13.28323	376.1385
8/12/2014 9:53:31 AM	09:53:31	672	A	2	59	85.71429	43817.14	60	85.71429	30000	1102.685	70.80804	71.55637	14.27588	54.145	393.0509	45.09046	74.22108	0.9689999	14.31238	1.531	1	3	1	0.15	5121	130.2002	126.7548	59.10501	4.140202	200.5838	165.9021	1.018032	13.30972	376.8887
8/12/2014 9:53:43 AM	09:53:43	0	A	2	59	84.28571	43086.86	61	87.14285	30500	1103.911	70.98767	71.55637	14.27588	54.145	393.4111	44.73867	74.17616	0.993	14.3114	1.514	1	3	1	0.15	5181	125.7998	123.7021	59.2005	4.146891	200.7839	166.2498	1.011399	13.223	374.4331
8/12/2014 9:53:53 AM	09:53:53	0	A	2	60	85.71429	43817.14	60	85.71429	30000	1101.883	70.98767	71.55637	14.27588	54.145	393.4111	44.86432	74.44562	1.025	14.31252	1.52	1	3	1	0.15	5160	128.2002	125.9519	59.09998	4.13985	200.7839	166.0403	1.013504	13.25053	375.2125
8/12/2014 9:54:03 AM	09:54:03	0	A	2	60	85.71429	43817.14	59	84.28571	29500	1102.559	71.03259	71.55637	14.27588	54.145	393.5012	45.47242	74.13126	0.9880009	14.31238	1.535999	1	3	1	0.15	5132	129.2002	126.4407	59.15023	4.14337	200.834	166.1822	1.017793	13.30659	376.8001
8/12/2014 9:54:13 AM	09:54:13	0	A	2	60	85.71429	43817.14	60	85.71429	30000	1103.361	70.71822	71.55637	14.27588	54.145	393.4111	45.40708	74.31089	0.9939995	14.3127	1.534	1	3	1	0.15	5162	125.3999	123.6415	59.13516	4.142314	200.7839	165.8906	1.019596	13.33017	377.4678
8/12/2014 9:54:23 AM	09:54:23	0	A	2	60	85.71429	43817.14	60	85.71429	30000	1100.319	70.40386	71.55637	14.27588	54.145	393.5012	45.08041	74.26598	1.018999	14.31205	1.534	1	3	1	0.15	5170	128.6001	126.3925	59.33618	4.156395	200.834	166.0483	1.018319	13.31348	376.9952
8/12/2014 9:54:33 AM	09:54:33	5	A	3	59	84.28571	43086.86	60	85.71429	30000	1103.192	70.40386	71.55637	14.27588	54.145	393.4561	45.16584	74.22108	1.027	14.31165	1.518999	1	3	1	0.15	5129	130.6001	127.7338	59.30603	4.154284	200.809	165.9857	1.011714	13.22712	374.5497
8/12/2014 9:54:43 AM	09:54:43	15	A	3	60	85.71429	43817.14	59	84.28571	29500	1102.221	70.49368	71.55637	14.27588	54.145	393.231	45.13068	74.26598	1.072001	14.31292	1.528	1	3	1	0.15	5109	126.6001	123.1505	59.16028	4.144074	200.6839	165.757	1.013045	13.24452	375.0425
8/12/2014 9:54:53 AM	09:54:53	25	A	3	60	85.71429	43817.14	60	85.71429	30000	1101.587	70.35896	71.55637	14.27588	54.145	393.321	45.17088	74.3558	0.9810009	14.3123	1.524	1	3	1	0.15	5173	128	126.072	59.05474	4.136681	200.7339	165.4258	1.01491	13.26891	375.733
8/12/2014 9:55:03 AM	09:55:03	35	A	3	59	84.28571	43086.86	60	85.71429	30000	1103.404	70.49368	71.55637	14.27588	54.145	393.3661	44.83414	74.26598	0.9610004	14.31068	1.517	1	3	1	0.15	5126	128.2002	125.3168	58.90398	4.126121	200.7589	165.2227	1.011957	13.2303	374.6398
8/12/2014 9:55:13 AM	09:55:13	45	A	3	59	84.28571	43086.86	59	84.28571	29500	1101.798	70.5835	71.55637	14.27588	54.145	393.276	45.13569	74.31089	1.048	14.3118	1.524	1	3	1	0.15	5065	127.2002	122.6686	59.25074	4.15041	200.7089	166.0196	1.014945	13.26937	375.7459
8/12/2014 9:55:23 AM	09:55:23	55	A	3	60	85.71429	43817.14	61	87.14285	30500	1100.573	70.76313	71.55637	14.27588	54.145	393.5912	44.4924	74.3558	0.9109993	14.30836	1.497	1	3	1	0.15	5175	126.3999	124.7414	59.25074	4.15041	200.884	166.1684	1.005789	13.14966	372.3563
8/12/2014 9:55:33 AM	09:55:33	65	A	3	60	85.71429	43817.14	60	85.71429	30000	1103.488	70.85295	71.55637	14.27588	54.145	393.4111	44.77384	74.31089	1.042	14.31198	1.521	1	3	1	0.15	5130	128.7998	126.1963	59.61259	4.175757	200.7839	166.994	1.012966	13.24349	375.0134
8/12/2014 9:55:43 AM	09:55:43	75	A	3	59	84.28571	43086.86	60	84.28571	29500	1103.361	70.89786	71.55637	14.27588	54.145	393.5012	45.0402	74.4007	0.8880005	14.31176	1.514	1	3	1	0.15	5105	131.3999	127.5253	59.4367	4.163437	200.834	166.6665	1.011534	13.22477	374.4833
8/12/2014 9:55:53 AM	09:55:53	85	A	3	59	85.71429	43817.14	60	85.71429	30000	1102.812	70.76313	71.55637	14.27588	54.145	393.231	44.91456	74.4007	0.9710007	14.31097	1.514	1	3	1	0.15	5158	125	122.5636	58.83361	4.121192	200.6839	165.2984	1.014169	13.25922	375.4587
8/12/2014 9:56:03 AM	09:56:03	95	A	3	60	85.71429	43817.14	60	85.71429	30000	1101.671	70.80804	71.55637	14.27588	54.145	393.321	44.94974	74.3558	0.9570007	14.31238	1.514999	1	3	1	0.15	5144	129.6001	126.5407	59.13516	4.142314	200.7339	165.9649	1.008931	13.19073	373.5193
8/12/2014 9:56:13 AM	09:56:13	105	A	3	59	85.71429	43817.14	59	84.28571	29500	1101.207	70.85295	71.55637	14.27588	54.145	393.5012	44.90954	74.53543	1.003	14.31277	1.514	1	3	1	0.15	5129	130.3999	127.3433	58.99945	4.132808	200.834	165.7191	1.012106	13.23224	374.6948
8/12/2014 9:56:23 AM	09:56:23	115	A	3	59	84.28571	43086.86	60	85.71429	30000	1102.263	70.71822	71.55637	14.27588	54.145	393.276	44.81405	74.44562	0.9759998	14.31122	1.507999	1	3	1	0.15	5156	125.6001	123.1052	58.90398	4.126121	200.7089	165.4084	1.009479	13.1979	373.7223
8/12/2014 9:56:33 AM	09:56:33	125	A	3	59	84.28571	43086.86	60	85.71429	30000	1099.39	70.67332	71.55637	14.27588	54.145	393.186	44.92963	74.3558	1.025999	14.31068	1.513	1	3	1	0.15	5163	129	126.8113	59.25577	4.150763	200.6589	166.1045	1.011214	13.22058	374.3645
8/12/2014 9:56:43 AM	09:56:43	135	A	3	59	84.28571	43086.86	60	85.71429	30000	1100.066	70.49368	71.55637	14.27588	54.145	393.276	45.29652	74.44562	1.055	14.31176	1.527	1	3	1	0.15	5126	130.2002	127.4642	59.05474	4.136681	200.7089	165.5372	1.012828	13.24169	374.9622
8/12/2014 9:56:53 AM	09:56:53	145	A	3	60	85.71429	43817.14	59	84.28571	29500	1101.249	70.31405	71.55637	14.27588	54.145	393.231	45.25129	74.53543	0.9729996	14.31064	1.533001	1	3	1	0.15	5094	125.7998	122.4011	59.23566	4.149354	200.6839	165.7651	1.017325	13.30048	376.627
8/12/2014 9:57:03 AM	09:57:03	155	A	3	60	85.71429	43817.14	60	85.71429	30000	1099.094	70.13441	71.55637	14.27588	54.145	393.0959	44.79395	74.53543	0.9839993	14.31064	1.513	1	3	1	0.15	5162	128	125.6072	59.09494	4.139497	200.6089	165.3237	1.011049	13.21843	374.3035
8/12/2014 9:57:13 AM	09:57:13	165	A	3	59	85.71429	43817.14	60	85.71429	30000	1099.981	69.95478	71.55637	14.27588	54.145	393.231	45.06031	74.4007	1.018999	14.31458	1.521	1	3	1	0.15	5127	128.3999	125.3413	59.23065	4.149003	200.6839	165.4572	1.012631	13.23911	374.8893
8/12/2014 9:57:23 AM	09:57:23	175	A	3	60	85.71429	43817.14	59	84.28571	29500	1101.207	70.22423	71.55637	14.27588	54.145	393.186	44.68338	74.49052	1.023001	14.31205	1.513	1	3	1	0.15	5088	125.7998	121.6755	58.9291	4.12788	200.6589	165.0523	1.012778	13.24103	374.9435
8/12/2014 9:57:33 AM	09:57:33	185	A	3	59	84.28571	43086.86	60	85.71429	30000	1099.052	70.40386	71.55637	14.27588	54.145	392.9609	44.61303	74.4007	1.033001	14.31093	1.514	1	3	1	0.15	5165	126.6001	125.0905	59.22562	4.148651	200.5338	165.8186	1.011501	13.22433	374.4708
8/12/2014 9:57:43 AM	09:57:43	195	A	3	59	84.28571	43086.86	60	85.71429	30000	1098.967	70.53859	71.55637	14.27588	54.145	393.3661	44.98996	74.4007	0.9519997	14.31082	1.514999	1	3	1	0.15	5137	129	125.9769	59.2005	4.146891	200.7589	165.8779	1.011847	13.22886	374.5991
8/12/2014 9:57:53 AM	09:57:53	205	A	3	59	84.28571	43086.86	59	84.28571	29500	1100.657	70.62841	71.55637	14.27588	54.145	393.276	44.73867	74.31089	0.9659996	14.31227	1.485001	1	3	1	0.15	5060	134.3999	129.4839	59.02962	4.134922	200.7089	165.5963	1.001938	13.09932	370.9307
8/12/2014 9:58:03 AM	09:58:03	215	A	3	59	85.71429	43817.14	60	85.71429	30000	1100.446	70.76313	71.55637	14.27588	54.145	393.276	44.65323	74.58034	0.9799995	14.3105	1.52	1	3	1	0.15	5150	126.2002	123.7467	59.01455	4.133865	200.7089	165.6763	1.013321	13.24813	375.1446
8/12/2014 9:58:13 AM	09:58:13	225	A	3	60	85.71429	43817.14	60	85.71429	30000	1098.672	70.76313	71.55637	14.27588	54.145	393.4111	44.8241	74.44562	0.9470005	14.311	1.511	1	3	1	0.15	5139	129	126.4177	59.27085	4.151819	200.7839	166.2102	1.010469	13.21085	374.0889
8/12/2014 9:58:23 AM	09:58:23	235	A	3	60	85.71429	43817.14	60	85.71429	30000	1102.516	70.71822	71.55637	14.27588	54.145	393.5012	45.07539	74.53543	0.9880009	14.30977	1.525	1	3	1	0.15	5128	130.6001	127.514	59.05978	4.137033	200.834	165.7335	1.012329	13.23516	374.7774
8/12/2014 9:58:33 AM	09:58:33	245	A	3	60	85.71429	43817.14	60	85.71429	30000	1102.094	70.71822	71.55637	14.27588	54.145	393.5462	45.2161	74.44562	1.004	14.31216	1.525	1	3	1	0.15	5139	126.7998	124.069	59.14521	4.143018	200.859	165.9115	1.015172	13.27234	375.8301
8/12/2014 9:58:43 AM	09:58:43	255	A	3	60	85.71429	43817.14	60	85.71429	30000	1100.573	70.49368	71.55637	14.27588	54.145	393.321	45.05528	74.49052	0.9890003	14.31415	1.521	1	3	1	0.15	5161	128.7998	126.3692	59.0849	4.138793	200.7339	165.6	1.014539	13.26406	375.5956
8/12/2014 9:58:53 AM	09:58:53	265	A	3	59	84.28571	43086.86	60	85.71429	30000	1100.488	70.26914	71.55637	14.27588	54.145	393.186	44.81907	74.49052	0.9880009	14.31075	1.509001	1	3	1	0.15	5125	129.2002	126.2682	59.21557	4.147947	200.6589	165.6861	1.011093	13.21901	374.32
8/12/2014 9:59:03 AM	09:59:03	275	A	3	59	84.28571	43086.86	60	84.28571	29500	1102.77	70.49368	71.55637	14.27588	54.145	393.231	45.24124	74.53543	0.9810009	14.31122	1.517	1	3	1	0.15	5088	126.3999	122.4503	59.42664	4.162732	200.6839	166.3106	1.012381	13.23584	374.7965
8/12/2014 9:59:13 AM	09:59:13	285	A	3	59	84.28571	43086.86	61	85.71429	30000	1102.559	70.35896	71.55637	14.27588	54.145	393.4111	44.78892	74.44562	1.011	14.31173	1.516001	1	3	1	0.15	5167	126.7998	124.5486	59.18542	4.145834	200.7839	165.6978	1.012166	13.23303	374.717
8/12/2014 9:59:23 AM	09:59:23	295	A	3	60	85.71429	43817.14	60	85.71429	30000	1102.474	70.76313	71.55637	14.27588	54.145	392.9609	44.97486	74.4007	0.9829998	14.31266	1.509001	1	3	1	0.15	5125	129.2002	126.2682	59.17536	4.14513	200.5338	166.0115	1.00924	13.19477	373.6337
8/12/2014 9:59:33 AM	09:59:33	305	A	3	60	84.28571	43086.86	59	84.28571	29500	1104.798	70.76313	71.55637	14.27588	54.145	393.0509	44.87939	74.49052	0.9790001	14.31039	1.525999	1	3	1	0.15	5061	134.3999	129.317	59.30603	4.154284	200.5838	166.2834	1.015389	13.27518	375.9105
8/12/2014 9:59:43 AM	09:59:43	315	A	3	60	84.28571	43086.86	61	87.14285	30500	1102.516	70.76313	71.55637	14.27588	54.145	393.0959	44.94974	74.53543	1.030001	14.3105	1.518999	1	3	1	0.15	5168	127	125.1632	58.68787	4.110982	200.6089	164.9934	1.013031	13.24434	375.0374
8/12/2014 9:59:53 AM	09:59:53	325	A	3	59	84.28571	43086.86	60	85.71429	30000	1104.375	70.80804	71.55637	14.27588	54.145	393.0059	45.07539	74.58034	1.049999	14.31154	1.513	1	3	1	0.15	5146	128.3999	125.6101	59.06982	4.137738	200.5588	165.8288	1.011016	13.218	374.2915
8/12/2014 10:00:03 AM	10:00:03	335	A	3	60	85.71429	43817.14	59	84.28571	29500	1102.094	71.07749	71.55637	14.27588	54.145	393.0509	44.96985	74.62525	1.021999	14.31136	1.5	1	3	1	0.15	5110	129.7998	126.0934	59.35126	4.157452	200.5838	166.6378	1.006634	13.1607	372.6689
8/12/2014 10:00:13 AM	10:00:13	345	A	3	60	85.71429	43817.14	60	85.71429	30000	1099.939	70.98767	71.55637	14.27588	54.145	392.9158	45.23118	74.62525	0.9960003	14.31266	1.523001	1	3	1	0.15	5131	125.7998	122.7039	58.97433	4.131049	200.5088	165.7782	1.015344	13.27458	375.8935
8/12/2014 10:00:23 AM	10:00:23	355	A	3	60	84.28571	43086.86	60	85.71429	30000	1100.995	70.85295	71.55637	14.27588	54.145	392.8258	45.1156	74.67016	1.049999	14.31173	1.521	1	3	1	0.15	5154	128.2002	125.8054	59.29095	4.153227	200.4588	166.3264	1.013597	13.25174	375.2468
8/12/2014 10:00:33 AM	10:00:33	365	A	3	60	85.71429	43817.14	59	85.71429	30000	1101.418	70.49368	71.55637	14.27588	54.145	392.9158	44.71354	74.49052	1.007	14.31321	1.497	1	3	1	0.15	5117	129	125.4865	58.85874	4.122952	200.5088	165.1282	1.005819	13.15005	372.3674
8/12/2014 10:00:43 AM	10:00:43	375	A	3	59	84.28571	43086.86	58	84.28571	29500	1104.587	71.03259	71.55637	14.27588	54.145	392.9609	44.9397	74.53543	1.038	14.3105	1.516001	1	3	1	0.15	5060	126.7998	122.3546	59.25074	4.15041	200.5338	166.3915	1.012028	13.23123	374.6661
8/12/2014 10:00:53 AM	10:00:53	385	A	3	59	84.28571	43086.86	60	85.71429	30000	1101.587	71.1224	71.55637	14.27588	54.145	393.141	44.88943	74.71507	0.9720001	14.31039	1.525	1	3	1	0.15	5160	127.3999	125.1656	58.97936	4.131401	200.6339	165.9001	1.014855	13.26818	375.7125
8/12/2014 10:01:03 AM	10:01:03	395	A	3	59	85.71429	43817.14	59	84.28571	29500	1102.136	71.03259	71.55637	14.27588	54.145	393.276	44.9799	74.58034	1.037001	14.31357	1.525	1	3	1	0.15	5129	128.2002	125.1952	59.27588	4.152171	200.7089	166.4438	1.015072	13.27102	375.7929
8/12/2014 10:01:13 AM	10:01:13	405	A	3	60	85.71429	43817.14	60	84.28571	29500	1103.066	70.98767	71.55637	14.27588	54.145	393.231	44.70349	74.80489	1.007999	14.31223	1.530001	1	3	1	0.15	5073	133.3999	129.044	59.5925	4.17435	200.6839	167.0642	1.014497	13.26351	375.5802
8/12/2014 10:01:23 AM	10:01:23	415	A	3	60	85.71429	43817.14	60	85.71429	30000	1101.545	71.03259	71.55637	14.27588	54.145	393.231	44.45221	74.67016	1.077	14.31151	1.511	1	3	1	0.15	5143	127.2002	124.1656	58.85874	4.122952	200.6839	165.5737	1.010602	13.21258	374.1381
8/12/2014 10:01:33 AM	10:01:33	425	A	3	59	84.28571	43086.86	60	85.71429	30000	1101.291	70.98767	71.55637	14.27588	54.145	392.6907	44.6683	74.67016	0.9950008	14.3123	1.525	1	3	1	0.15	5140	129.2002	126.2464	59.11505	4.140905	200.3837	166.0718	1.014953	13.26946	375.7487
8/12/2014 10:01:43 AM	10:01:43	435	A	3	59	85.71429	43817.14	60	84.28571	29500	1100.911	71.07749	71.55637	14.27588	54.145	392.6907	45.24124	74.80489	1.016001	14.31407	1.509001	1	3	1	0.15	5105	129.2002	125.3867	59.4769	4.166253	200.3837	166.8989	1.010906	13.21656	374.2507
8/12/2014 10:01:53 AM	10:01:53	445	A	3	60	84.28571	43086.86	60	85.71429	30000	1102.854	70.85295	71.55637	14.27588	54.145	392.7808	44.71857	74.75997	1.045	14.31274	1.517	1	3	1	0.15	5073	125.7998	121.5097	59.02962	4.134922	200.4338	165.7821	1.012222	13.23377	374.7379
8/12/2014 10:02:03 AM	10:02:03	455	A	3	60	85.71429	43817.14	60	85.71429	30000	1100.995	70.98767	71.55637	14.27588	54.145	392.8708	44.7839	74.71507	1.016001	14.31183	1.523001	1	3	1	0.15	5152	129.3999	126.7375	59.21054	4.147594	200.4838	166.2707	1.014228	13.25999	375.4804
8/12/2014 10:02:13 AM	10:02:13	465	A	3	59	84.28571	43086.86	60	85.71429	30000	1100.615	70.85295	71.55637	14.27588	54.145	392.3305	45.10554	74.71507	0.9130001	14.3123	1.500999	1	3	1	0.15	5118	128.3999	125.511	59.13516	4.142314	200.1836	166.0021	1.006922	13.16446	372.7755
8/12/2014 10:02:23 AM	10:02:23	475	A	3	60	85.71429	43817.14	59	84.28571	29500	1103.023	70.89786	71.55637	14.27588	54.145	391.7903	44.97486	74.58034	1.007	14.31339	1.527	1	3	1	0.15	5062	127.6001	122.5959	59.36131	4.158155	199.8835	166.5099	1.015737	13.27971	376.039
8/12/2014 10:02:33 AM	10:02:33	485	A	3	59	85.71429	43817.14	60	85.71429	30000	1101.798	71.30203	71.55637	14.27588	54.145	391.8353	44.67835	74.62525	0.9489994	14.30974	1.52	1	3	1	0.15	5149	126.3999	123.7226	59.0447	4.135978	199.9085	166.1851	1.014239	13.26013	375.4845
8/12/2014 10:02:43 AM	10:02:43	495	A	3	60	85.71429	43817.14	59	84.28571	29500	1102.854	71.48167	71.55637	14.27588	54.145	392.3305	44.89447	74.84979	1.039	14.31252	1.509001	1	3	1	0.15	5110	128	124.3418	58.95926	4.129992	200.1836	166.1552	1.009474	13.19783	373.7204
8/12/2014 10:02:53 AM	10:02:53	505	A	3	59	84.28571	43086.86	59	84.28571	29500	1102.854	71.52657	71.55637	14.27588	54.145	392.6457	44.69846	74.75997	1.039	14.31089	1.503	1	3	1	0.15	5095	129.3999	125.1411	59.0849	4.138793	200.3587	166.4548	1.007495	13.17197	372.988
8/12/2014 10:03:03 AM	10:03:03	515	A	3	59	84.28571	43086.86	60	85.71429	30000	1104.122	71.61639	71.55637	14.27588	54.145	392.8708	44.9799	74.84979	0.9519997	14.31021	1.507	1	3	1	0.15	5091	127.7998	123.8795	59.35126	4.157452	200.4838	167.0844	1.008381	13.18355	373.3159
8/12/2014 10:03:13 AM	10:03:13	525	A	3	59	85.71429	43817.14	60	85.71429	30000	1103.319	71.70621	71.55637	14.27588	54.145	392.7808	44.97486	74.8947	0.9729996	14.31183	1.521	1	3	1	0.15	5136	128.7998	125.9524	59.24572	4.150059	200.4338	166.939	1.013396	13.24911	375.1724
8/12/2014 10:03:23 AM	10:03:23	535	A	3	59	85.71429	43817.14	59	84.28571	29500	1104.08	71.79602	71.55637	14.27588	54.145	392.5107	44.88441	74.75997	0.9740009	14.31158	1.518999	1	3	1	0.15	5102	129.6001	125.5075	59.16531	4.144426	200.2837	166.8457	1.012849	13.24196	374.97
8/12/2014 10:03:33 AM	10:03:33	545	A	3	60	85.71429	43817.14	59	84.28571	29500	1105.263	71.43676	71.55637	14.27588	54.145	392.5557	44.66327	74.93961	1.059	14.31126	1.514	1	3	1	0.15	5083	125.2002	121.1689	59.0849	4.138793	200.3087	166.3805	1.012336	13.23525	374.78
8/12/2014 10:03:43 AM	10:03:43	555	A	3	60	85.71429	43817.14	60	87.14285	30500	1102.601	71.1224	71.55637	14.27588	54.145	392.6907	44.93467	74.93961	1.028999	14.3157	1.52	1	3	1	0.15	5152	127.3999	124.9715	59.44675	4.164141	200.3837	166.8735	1.013167	13.24612	375.0877
8/12/2014 10:03:53 AM	10:03:53	565	A	3	60	85.71429	43817.14	60	85.71429	30000	1100.995	71.30203	71.55637	14.27588	54.145	392.6907	44.84421	74.93961	1.016001	14.31364	1.527	1	3	1	0.15	5121	127.6001	124.6095	59.54224	4.170829	200.3837	167.2207	1.015398	13.27528	375.9135
8/12/2014 10:04:03 AM	10:04:03	575	A	3	59	84.28571	43086.86	60	85.71429	30000	1103.446	71.34694	71.55637	14.27588	54.145	392.7357	44.63312	74.98452	1.011999	14.31404	1.513	1	3	1	0.15	5098	129.3999	125.603	59.06982	4.137738	200.4088	166.2747	1.009737	13.20127	373.8177
8/12/2014 10:04:13 AM	10:04:13	585	A	3	59	84.28571	43086.86	60	85.71429	30000	1101.925	71.07749	71.55637	14.27588	54.145	392.8258	45.02011	74.93961	0.9899998	14.31111	1.521	1	3	1	0.15	5119	125.7998	122.4169	59.03967	4.135625	200.4588	165.9888	1.013333	13.24829	375.1491
8/12/2014 10:04:23 AM	10:04:23	595	A	3	59	84.28571	43086.86	60	85.71429	30000	1104.249	71.07749	71.55637	14.27588	54.145	392.1054	44.87939	74.8947	1.025	14.31068	1.504	1	3	1	0.15	5119	128.7998	125.1457	58.83361	4.121192	200.0586	165.5583	1.007709	13.17476	373.0671
8/12/2014 10:04:33 AM	10:04:33	605	A	3	60	85.71429	43817.14	60	85.71429	30000	1101.46	71.1224	71.55637	14.27588	54.145	391.9703	45.01508	74.8947	0.9360008	14.31079	1.504999	1	3	1	0.15	5089	128.7998	124.7998	59.09494	4.139497	199.9835	166.1413	1.008357	13.18323	373.307
8/12/2014 10:04:43 AM	10:04:43	615	A	3	59	84.28571	43086.86	59	84.28571	29500	1102.009	71.43676	71.55637	14.27588	54.145	392.2855	44.71354	74.80489	0.9899998	14.31339	1.516001	1	3	1	0.15	5106	126.2002	122.6894	58.81351	4.119783	200.1586	165.8131	1.011878	13.22927	374.6105
8/12/2014 10:04:53 AM	10:04:53	625	A	3	59	84.28571	43086.86	60	85.71429	30000	1100.488	71.57149	71.55637	14.27588	54.145	392.6457	44.77887	75.16415	1.004999	14.31039	1.511	1	3	1	0.15	5134	129.2002	126.2947	59.23065	4.149003	200.3587	166.796	1.009097	13.19291	373.5809
8/12/2014 10:05:03 AM	10:05:03	635	A	3	59	85.71429	43817.14	59	84.28571	29500	1103.319	71.48167	71.55637	14.27588	54.145	392.6007	44.6683	74.98452	1.004	14.30945	1.472	1	3	1	0.15	5095	128	124.1711	58.6929	4.111334	200.3337	165.5975	0.996852	13.03282	369.0477
8/12/2014 10:05:13 AM	10:05:13	645	A	3	60	85.71429	43817.14	59	84.28571	29500	1105.516	71.84093	71.55637	14.27588	54.145	392.6907	44.68841	75.07433	0.9179993	14.30862	1.499001	1	3	1	0.15	5041	128	123.0472	59.13516	4.142314	200.3837	166.8199	1.006117	13.15395	372.4779
8/12/2014 10:05:23 AM	10:05:23	655	A	3	59	85.71429	43817.14	60	85.71429	30000	1101.376	71.93075	71.55637	14.27588	54.145	392.6907	44.68841	75.07433	1.075001	14.31292	1.492001	1	3	1	0.15	5132	126	122.9229	58.96429	4.130345	200.3837	166.5372	1.003588	13.12089	371.5415
8/12/2014 10:05:33 AM	10:05:33	665	A	3	59	84.28571	43086.86	59	84.28571	29500	1101.122	71.88584	71.55637	14.27588	54.145	392.6907	44.55271	75.07433	0.9750004	14.30909	1.518	1	3	1	0.15	5106	127.6001	124.0504	59.29095	4.153227	200.3837	167.1821	1.011137	13.21957	374.3361
8/12/2014 10:05:43 AM	10:05:43	675	A	3	59	84.28571	43086.86	59	84.28571	29500	1102.559	71.39185	71.55637	14.27588	54.145	392.4206	45.1759	75.07433	0.9669991	14.31379	1.506001	1	3	1	0.15	5080	131.3999	126.9008	58.9693	4.130696	200.2337	166.1019	1.006649	13.1609	372.6745
8/12/2014 10:05:53 AM	10:05:53	0	A	3	59	84.28571	43086.86	59	84.28571	29500	1103.488	71.61639	71.55637	14.27588	54.145	392.7808	44.76379	75.16415	1.072001	14.31209	1.518	1	3	1	0.15	5113	125.2002	121.6892	59.32614	4.155692	200.4338	167.0321	1.012165	13.23302	374.7167
8/12/2014 10:06:03 AM	10:06:03	0	A	3	59	84.28571	43086.86	60	84.28571	29500	1101.714	71.70621	71.55637	14.27588	54.145	392.6907	44.84421	75.20906	0.9729996	14.31227	1.469999	1	3	1	0.15	5130	128.6001	125.8053	58.713	4.112743	200.3837	165.8251	1.002455	13.10608	371.1222
8/12/2014 10:06:13 AM	10:06:13	0	A	3	59	85.71429	43817.14	59	84.28571	29500	1105.516	72.02056	71.55637	14.27588	54.145	393.0509	44.48236	75.16415	0.9869995	14.31144	1.493	1	3	1	0.15	5076	128.2002	123.5145	59.06982	4.137738	200.5838	166.8322	1.003788	13.1235	371.6154
8/12/2014 10:06:23 AM	10:06:23	0	A	3	60	85.71429	43817.14	59	84.28571	29500	1104.925	71.70621	71.55637	14.27588	54.145	393.141	44.35168	75.25397	0.9080009	14.3114	1.518	1	3	1	0.15	5076	126.6001	122.355	58.74316	4.114855	200.6339	165.8884	1.012035	13.23132	374.6687
8/12/2014 10:06:33 AM	10:06:33	0	A	3	59	84.28571	43086.86	59	85.71429	30000	1099.01	71.70621	71.55637	14.27588	54.145	392.8258	44.67835	75.20906	0.9570007	14.30981	1.504999	1	3	1	0.15	5121	128	124.8047	58.94921	4.129289	200.4588	166.3199	1.007038	13.16599	372.8187
8/12/2014 10:06:43 AM	10:06:43	4	A	4	60	85.71429	43817.14	59	84.28571	29500	1101.038	71.61639	71.55637	14.27588	54.145	392.6007	44.50246	75.25397	1.049999	14.31324	1.507	1	3	1	0.15	5086	128.6001	124.5328	59.00952	4.133513	200.3337	166.3717	1.008446	13.1844	373.3399
8/12/2014 10:06:53 AM	10:06:53	14	A	4	60	84.28571	43086.86	59	84.28571	29500	1100.953	71.43676	71.55637	14.27588	54.145	392.6457	44.80399	75.16415	1.052	14.31216	1.502001	1	3	1	0.15	5045	132.7998	127.3712	58.83865	4.121544	200.3587	165.8657	1.006834	13.16333	372.7433
8/12/2014 10:07:03 AM	10:07:03	24	A	4	59	85.71429	43817.14	59	84.28571	29500	1101.883	71.57149	71.55637	14.27588	54.145	392.4206	44.52759	75.34378	0.9699993	14.31303	1.497	1	3	1	0.15	5105	126	122.8595	58.909	4.126472	200.2337	166.1244	1.005033	13.13977	372.0763
8/12/2014 10:07:13 AM	10:07:13	34	A	4	60	85.71429	43817.14	59	84.28571	29500	1099.601	71.48167	71.55637	14.27588	54.145	392.5557	44.84922	75.20906	0.9939995	14.31187	1.5	1	3	1	0.15	5098	130	125.7973	59.12008	4.141258	200.3087	166.4911	1.006119	13.15397	372.4784
8/12/2014 10:07:23 AM	10:07:23	44	A	4	59	85.71429	43817.14	59	84.28571	29500	1101.798	71.70621	71.55637	14.27588	54.145	392.6907	44.88943	75.20906	1.025	14.31274	1.502001	1	3	1	0.15	5056	133.3999	128.4188	59.27588	4.152171	200.3837	167.0018	1.006802	13.16291	372.7314
8/12/2014 10:07:33 AM	10:07:33	54	A	4	60	85.71429	43817.14	60	85.71429	30000	1104.206	71.79602	71.55637	14.27588	54.145	392.8708	44.68841	75.25397	0.934	14.31223	1.513	1	3	1	0.15	5131	125.3999	122.3132	59.13013	4.141962	200.4838	166.7723	1.010425	13.21026	374.0724
8/12/2014 10:07:43 AM	10:07:43	64	A	4	60	85.71429	43817.14	60	85.71429	30000	1100.911	71.43676	71.55637	14.27588	54.145	392.7808	45.02011	75.43359	1.038	14.31151	1.511	1	3	1	0.15	5130	128.7998	125.6102	59.17536	4.14513	200.4338	166.5692	1.009558	13.19893	373.7515
8/12/2014 10:07:53 AM	10:07:53	74	A	4	59	84.28571	43086.86	60	85.71429	30000	1102.094	71.70621	71.55637	14.27588	54.145	392.6907	44.68338	75.47851	0.9540005	14.31108	1.503	1	3	1	0.15	5104	128.7998	125.1676	58.77331	4.116967	200.3837	165.9516	1.006831	13.16329	372.7421
8/12/2014 10:08:03 AM	10:08:03	84	A	4	60	85.71429	43817.14	59	85.71429	30000	1102.601	71.79602	71.55637	14.27588	54.145	392.9609	44.62308	75.34378	0.9599991	14.31183	1.516001	1	3	1	0.15	5068	126.3999	122.1622	59.28091	4.152524	200.5338	167.0867	1.011305	13.22177	374.3983
8/12/2014 10:08:13 AM	10:08:13	94	A	4	59	84.28571	43086.86	60	85.71429	30000	1102.263	71.79602	71.55637	14.27588	54.145	393.141	44.79898	75.25397	1.025999	14.31118	1.514	1	3	1	0.15	5145	127.2002	124.6061	59.11002	4.140553	200.6339	166.7303	1.011367	13.22259	374.4214
8/12/2014 10:08:23 AM	10:08:23	104	A	4	60	85.71429	43817.14	60	85.71429	30000	1103.319	71.88584	71.55637	14.27588	54.145	393.276	44.89447	75.38869	0.9880009	14.31212	1.518	1	3	1	0.15	5105	129.3999	125.97	58.78838	4.118023	200.7089	166.1316	1.011282	13.22148	374.3899
8/12/2014 10:08:33 AM	10:08:33	114	A	4	60	85.71429	43817.14	59	84.28571	29500	1099.77	71.57149	71.55637	14.27588	54.145	393.0959	44.83414	75.47851	0.9729996	14.31151	1.514999	1	3	1	0.15	5048	133.3999	128.2157	58.87885	4.12436	200.6089	166.0613	1.010171	13.20695	373.9786
8/12/2014 10:08:43 AM	10:08:43	124	A	4	60	84.28571	43086.86	60	85.71429	30000	1100.953	71.61639	71.55637	14.27588	54.145	393.276	44.87436	75.38869	1.014999	14.31194	1.479	1	3	1	0.15	5116	126.3999	122.9297	59.19547	4.146538	200.7089	166.7598	0.9979058	13.04659	369.4378
8/12/2014 10:08:53 AM	10:08:53	134	A	4	60	85.71429	43817.14	60	84.28571	29500	1102.39	71.70621	71.55637	14.27588	54.145	393.231	44.42707	75.34378	0.9330006	14.31122	1.504999	1	3	1	0.15	5116	126.7998	123.5138	58.89392	4.125416	200.6839	166.2042	1.007641	13.17387	373.0419
8/12/2014 10:09:03 AM	10:09:03	144	A	4	59	84.28571	43086.86	60	85.71429	30000	1103.911	71.79602	71.55637	14.27588	54.145	393.5912	44.62811	75.43359	0.9950008	14.31024	1.496	1	3	1	0.15	5089	128.7998	124.7998	58.80849	4.119431	200.809	166.0995	1.004501	13.13282	371.8794
8/12/2014 10:09:13 AM	10:09:13	154	A	4	59	84.28571	43086.86	59	84.28571	29500	1102.812	72.24511	71.55637	14.27588	54.145	393.4111	44.32656	75.52385	0.993	14.31147	1.49	1	3	1	0.15	5053	126	121.2233	58.55218	4.101477	200.7839	165.9322	1.002453	13.10605	371.1214
8/12/2014 10:09:23 AM	10:09:23	164	A	4	59	85.71429	43817.14	60	85.71429	30000	1103.15	72.37983	71.55637	14.27588	54.145	393.7263	44.216	75.43359	0.9799995	14.31057	1.49	1	3	1	0.15	5123	125.7998	122.5125	58.56222	4.102181	200.959	166.0647	1.002499	13.10664	371.1381
8/12/2014 10:09:33 AM	10:09:33	174	A	4	60	85.71429	43817.14	59	84.28571	29500	1105.601	72.64928	71.55637	14.27588	54.145	393.8613	43.96471	75.43359	0.9869995	14.31285	1.476999	1	3	1	0.15	5095	129.6001	125.5291	58.68787	4.110982	201.0341	166.5513	0.9982359	13.05091	369.56
8/12/2014 10:09:43 AM	10:09:43	184	A	4	60	85.71429	43817.14	59	84.28571	29500	1107.882	73.95162	71.55637	14.27588	54.145	394.5367	44.33158	75.43359	0.9279995	14.31165	1.490999	1	3	1	0.15	5028	132	125.9847	58.52705	4.099718	201.4093	167.2879	1.002874	13.11155	371.277
8/12/2014 10:09:53 AM	10:09:53	194	A	4	59	84.28571	43086.86	59	84.28571	29500	1106.953	73.90672	71.55637	14.27588	54.145	394.7168	43.84912	75.7442	0.9850006	14.31429	1.478001	1	3	1	0.15	5093	125.7998	121.9888	58.39638	4.090564	201.5093	166.9747	0.9983275	13.05211	369.5939
8/12/2014 10:10:03 AM	10:10:03	204	A	4	60	85.71429	43817.14	59	84.28571	29500	1104.671	73.59235	71.55637	14.27588	54.145	394.8969	44.30143	75.65607	1.040001	14.31097	1.499001	1	3	1	0.15	5088	128.3999	124.3879	58.62253	4.106405	201.6094	167.1927	1.007654	13.17404	373.0466
8/12/2014 10:10:13 AM	10:10:13	214	A	4	59	84.28571	43086.86	59	84.28571	29500	1103.911	73.32291	71.55637	14.27588	54.145	394.5367	44.50246	75.83234	1.006001	14.31151	1.504999	1	3	1	0.15	5076	128.2002	124.0945	58.60244	4.104998	201.4093	166.9279	1.00717	13.16771	372.8674
8/12/2014 10:10:23 AM	10:10:23	224	A	4	59	84.28571	43086.86	59	84.28571	29500	1102.897	72.37983	71.55637	14.27588	54.145	394.3116	44.54266	75.7442	0.9810009	14.31104	1.509001	1	3	1	0.15	5067	127.2002	122.717	58.76326	4.116263	201.2842	166.4872	1.00859	13.18628	373.3932
8/12/2014 10:10:33 AM	10:10:33	234	A	4	59	84.28571	43086.86	60	85.71429	30000	1101.164	72.15529	71.55637	14.27588	54.145	394.0864	44.66327	75.78828	1.021999	14.31006	1.500999	1	3	1	0.15	5141	125.3999	122.5515	58.60244	4.104998	201.1591	165.9638	1.004166	13.12845	371.7556
8/12/2014 10:10:43 AM	10:10:43	244	A	4	60	85.71429	43817.14	59	84.28571	29500	1104.333	72.37983	71.55637	14.27588	54.145	394.2665	44.67835	75.83234	0.9689999	14.31093	1.5	1	3	1	0.15	5088	128.7998	124.9692	58.72305	4.113447	201.2592	166.4028	1.005482	13.14565	372.2427
8/12/2014 10:10:53 AM	10:10:53	254	A	4	60	85.71429	43817.14	58	84.28571	29500	1104.46	72.55946	71.55637	14.27588	54.145	393.3661	44.51251	75.87642	0.934	14.30873	1.495001	1	3	1	0.15	5019	130.2002	124.9944	58.46172	4.095141	200.7589	166.0012	1.002705	13.10934	371.2145
8/12/2014 10:11:03 AM	10:11:03	264	A	4	59	84.28571	43086.86	60	85.71429	30000	1104.713	72.69419	71.55637	14.27588	54.145	393.231	44.23107	75.87642	0.9099998	14.31097	1.483999	1	3	1	0.15	5102	124.6001	120.8444	58.55721	4.10183	200.6839	166.3136	1.000109	13.07539	370.2533
8/12/2014 10:11:13 AM	10:11:13	274	A	4	59	84.28571	43086.86	60	85.71429	30000	1103.826	73.00855	71.55637	14.27588	54.145	393.0959	44.0602	75.87642	1.014999	14.31126	1.486	1	3	1	0.15	5100	128	124.6812	58.47176	4.095844	200.6089	166.3929	0.9997732	13.07101	370.1291
8/12/2014 10:11:23 AM	10:11:23	284	A	4	59	84.28571	43086.86	59	84.28571	29500	1102.559	72.784	71.55637	14.27588	54.145	393.0509	43.94963	75.96455	0.9459991	14.31285	1.48	1	3	1	0.15	5068	128.3999	124.0921	58.48684	4.0969	200.5838	166.2395	0.9997501	13.07071	370.1206
8/12/2014 10:11:33 AM	10:11:33	294	A	4	59	84.28571	43086.86	59	84.28571	29500	1108.094	73.50254	71.55637	14.27588	54.145	393.4561	44.13055	76.09677	0.9389992	14.31183	1.471001	1	3	1	0.15	5047	125.3999	120.3108	58.17525	4.075074	200.809	165.9514	0.9992581	13.06427	369.9384
8/12/2014 10:11:43 AM	10:11:43	304	A	4	59	84.28571	43086.86	59	84.28571	29500	1105.305	73.41272	71.55637	14.27588	54.145	393.8613	44.05014	76.09677	0.9160004	14.30833	1.481001	1	3	1	0.15	5108	126.3999	122.5428	58.321	4.085284	201.0341	166.4079	0.9987927	13.05819	369.7661
8/12/2014 10:11:53 AM	10:11:53	314	A	4	60	85.71429	43817.14	59	84.28571	29500	1107.291	73.36781	71.55637	14.27588	54.145	393.9964	44.13558	76.09677	0.941	14.31303	1.478001	1	3	1	0.15	5078	127.2002	122.7899	58.44161	4.093732	201.1091	166.6257	1.000631	13.08222	370.4467
8/12/2014 10:12:03 AM	10:12:03	324	A	4	60	85.71429	43817.14	59	84.28571	29500	1104.629	73.32291	71.55637	14.27588	54.145	394.1765	44.65323	76.27305	0.9619999	14.31097	1.483999	1	3	1	0.15	5063	129.3999	124.7407	58.38634	4.08986	201.2092	166.472	0.9997248	13.07038	370.1112
8/12/2014 10:12:13 AM	10:12:13	334	A	4	60	84.28571	43086.86	60	85.71429	30000	1103.023	72.91873	71.55637	14.27588	54.145	393.7263	44.45221	76.22898	1.028	14.31281	1.482	1	3	1	0.15	5096	125	121.6726	58.37125	4.088803	200.959	166.1067	0.9991502	13.06286	369.8984
8/12/2014 10:12:23 AM	10:12:23	344	A	4	59	85.71429	43817.14	59	84.28571	29500	1101.756	72.82892	71.55637	14.27588	54.145	393.9964	44.33661	76.22898	0.934	14.31371	1.488001	1	3	1	0.15	5091	128.3999	124.2676	58.50695	4.098309	201.1091	166.3189	1.001192	13.08956	370.6544
8/12/2014 10:12:33 AM	10:12:33	354	A	4	60	85.71429	43817.14	59	84.28571	29500	1103.53	72.60437	71.55637	14.27588	54.145	393.9063	44.73364	76.27305	0.9990005	14.31285	1.478001	1	3	1	0.15	5076	127.7998	123.5145	58.33607	4.086339	201.0591	165.7732	0.996767	13.03171	369.0162
8/12/2014 10:12:43 AM	10:12:43	364	A	4	60	85.71429	43817.14	59	84.28571	29500	1104.925	72.69419	71.55637	14.27588	54.145	393.4561	43.89938	76.22898	1.004	14.3114	1.475	1	3	1	0.15	5064	125.6001	120.9086	58.4768	4.096197	200.809	166.1441	0.9967556	13.03156	369.012
8/12/2014 10:12:53 AM	10:12:53	374	A	4	59	84.28571	43086.86	60	85.71429	30000	1104.671	73.00855	71.55637	14.27588	54.145	393.9964	43.80389	76.36119	0.9540005	14.31097	1.459999	1	3	1	0.15	5111	123.7998	120.2793	58.26069	4.081059	201.1091	165.9472	0.9915551	12.96357	367.0867
8/12/2014 10:13:03 AM	10:13:03	384	A	4	59	84.28571	43086.86	60	85.71429	30000	1101.714	73.05346	71.55637	14.27588	54.145	394.1315	44.3165	76.36119	0.9729996	14.31234	1.481001	1	3	1	0.15	5086	127.6001	123.9517	58.57228	4.102886	201.1842	166.6419	0.9986733	13.05663	369.7219
8/12/2014 10:13:13 AM	10:13:13	394	A	4	59	84.28571	43086.86	59	84.28571	29500	1103.235	72.91873	71.55637	14.27588	54.145	393.6812	44.15066	76.31712	0.9389992	14.31187	1.487	1	3	1	0.15	5064	131.2002	126.3081	58.56725	4.102533	200.934	166.5201	1.000714	13.08331	370.4774
8/12/2014 10:13:23 AM	10:13:23	404	A	4	60	85.71429	43817.14	59	84.28571	29500	1099.601	72.46965	71.55637	14.27588	54.145	393.231	43.92953	76.53748	1.011	14.31317	1.496	1	3	1	0.15	5118	126.3999	122.7827	58.64767	4.108166	200.6839	166.3185	1.003574	13.1207	371.5361
8/12/2014 10:13:33 AM	10:13:33	414	A	4	59	84.28571	43086.86	59	84.28571	29500	1102.643	72.55946	71.55637	14.27588	54.145	393.231	44.24112	76.40527	0.9179993	14.31151	1.486	1	3	1	0.15	5080	128	124.1923	58.55721	4.10183	200.6839	166.2023	0.9986282	13.05604	369.7052
8/12/2014 10:13:43 AM	10:13:43	424	A	4	59	84.28571	43086.86	59	84.28571	29500	1103.826	72.784	71.55637	14.27588	54.145	393.5912	43.54757	76.36119	0.9430008	14.31266	1.469999	1	3	1	0.15	5071	128.2002	123.5861	58.52705	4.099718	200.884	166.3242	0.9953418	13.01307	368.4886
8/12/2014 10:13:53 AM	10:13:53	434	A	4	60	85.71429	43817.14	59	84.28571	29500	1105.136	72.69419	71.55637	14.27588	54.145	394.0864	44.1004	76.31712	1.035999	14.31209	1.476	1	3	1	0.15	5064	127.2002	123.03	58.34109	4.086691	201.1591	165.8579	0.9970315	13.03516	369.1141
8/12/2014 10:14:03 AM	10:14:03	444	A	4	59	84.28571	43086.86	60	85.71429	30000	1102.897	72.42474	71.55637	14.27588	54.145	393.8613	44.51251	76.4934	1.034	14.31126	1.485001	1	3	1	0.15	5120	126	122.6355	58.55721	4.10183	201.0341	166.0911	0.9998796	13.0724	370.1685
8/12/2014 10:14:13 AM	10:14:13	454	A	4	59	84.28571	43086.86	59	84.28571	29500	1101.038	72.24511	71.55637	14.27588	54.145	393.4111	44.46225	76.44933	1.037001	14.31375	1.49	1	3	1	0.15	5084	128.7998	124.6772	58.61248	4.105701	200.7839	166.0591	1.001669	13.0958	370.8311
8/12/2014 10:14:23 AM	10:14:23	464	A	4	60	85.71429	43817.14	59	84.28571	29500	1100.15	72.02056	71.55637	14.27588	54.145	393.0509	44.83918	76.36119	0.9349995	14.31223	1.479	1	3	1	0.15	5071	128.7998	124.1656	58.85372	4.1226	200.5838	166.3799	0.9980206	13.04809	369.4803
8/12/2014 10:14:33 AM	10:14:33	474	A	4	60	85.71429	43817.14	60	84.28571	29500	1100.319	71.61639	71.55637	14.27588	54.145	392.7808	44.20092	76.22898	0.9839993	14.31129	1.476999	1	3	1	0.15	5120	125.6001	122.8306	58.6527	4.108519	200.4338	165.6244	1.001444	13.09285	370.7475
8/12/2014 10:14:43 AM	10:14:43	484	A	4	60	85.71429	43817.14	59	84.28571	29500	1100.869	71.6613	71.55637	14.27588	54.145	392.8258	44.2361	76.27305	1.021999	14.31129	1.497999	1	3	1	0.15	5098	127.3999	124.4385	58.67279	4.109926	200.4588	165.7036	1.003433	13.11885	371.484
8/12/2014 10:14:53 AM	10:14:53	494	A	4	59	84.28571	43086.86	59	84.28571	29500	1101.671	71.88584	71.55637	14.27588	54.145	393.0059	44.17578	76.18491	0.9169998	14.31454	1.483	1	3	1	0.15	5064	128.6001	123.8011	58.73309	4.11415	200.5588	166.0157	0.9996122	13.0689	370.0695
8/12/2014 10:15:03 AM	10:15:03	504	A	4	59	84.28571	43086.86	60	85.71429	30000	1100.193	71.84093	71.55637	14.27588	54.145	393.0509	44.14563	76.22898	1.054001	14.31068	1.476999	1	3	1	0.15	5092	124.7998	121.1894	58.7532	4.115559	200.5838	166.0207	0.9950383	13.0091	368.3762
8/12/2014 10:15:13 AM	10:15:13	514	A	4	60	85.71429	43817.14	60	85.71429	30000	1099.348	71.84093	71.55637	14.27588	54.145	393.0959	44.49743	76.14084	0.9969997	14.31035	1.482	1	3	1	0.15	5113	128	124.4148	58.49187	4.097253	200.6089	165.4718	0.9991663	13.06307	369.9044
8/12/2014 10:15:23 AM	10:15:23	524	A	4	60	85.71429	43817.14	59	84.28571	29500	1100.911	72.02056	71.55637	14.27588	54.145	393.0509	44.43713	76.36119	0.9759998	14.31361	1.483999	1	3	1	0.15	5085	128	123.9273	58.909	4.126472	200.5838	166.4957	0.9993893	13.06599	369.987
8/12/2014 10:15:33 AM	10:15:33	534	A	4	59	85.71429	43817.14	59	84.28571	29500	1099.939	71.79602	71.55637	14.27588	54.145	393.186	44.52256	76.36119	1.032	14.31418	1.499001	1	3	1	0.15	5074	129.6001	125.0117	58.77331	4.116967	200.6589	166.0258	1.004769	13.13633	371.9787
8/12/2014 10:15:43 AM	10:15:43	544	A	4	59	84.28571	43086.86	60	85.71429	30000	1099.178	71.30203	71.55637	14.27588	54.145	392.7808	44.63312	76.09677	0.9960003	14.31332	1.497	1	3	1	0.15	5135	125.6001	122.7995	58.35115	4.087396	200.4338	164.731	1.002994	13.11311	371.3214
8/12/2014 10:15:53 AM	10:15:53	554	A	4	60	85.71429	43817.14	60	85.71429	30000	1098.122	71.48167	71.55637	14.27588	54.145	392.6907	44.09035	76.14084	1.039	14.31129	1.479	1	3	1	0.15	5105	128.3999	124.8035	58.66274	4.109222	200.3837	165.5342	0.9981809	13.05019	369.5396
8/12/2014 10:16:03 AM	10:16:03	564	A	4	59	85.71429	43817.14	59	84.28571	29500	1100.446	71.75111	71.55637	14.27588	54.145	392.6007	44.43713	76.0527	0.9829998	14.31295	1.496	1	3	1	0.15	5079	129	124.7482	58.28078	4.082467	200.3337	164.9531	1.004023	13.12656	371.7023
8/12/2014 10:16:13 AM	10:16:13	574	A	4	60	85.71429	43817.14	60	85.71429	30000	1100.995	71.48167	71.55637	14.27588	54.145	392.7357	44.14061	76.18491	1.094999	14.31039	1.489	1	3	1	0.15	5095	126	122.2309	58.58736	4.103942	200.4088	165.376	1.000781	13.08418	370.5021
8/12/2014 10:16:23 AM	10:16:23	584	A	4	59	84.28571	43086.86	60	85.71429	30000	1098.714	71.61639	71.55637	14.27588	54.145	392.7808	44.39692	76.22898	1.096001	14.3135	1.479	1	3	1	0.15	5121	128	124.9999	58.4768	4.096197	200.4338	165.2547	0.9981675	13.05002	369.5347
8/12/2014 10:16:33 AM	10:16:33	594	A	4	60	85.71429	43817.14	59	84.28571	29500	1099.643	71.25713	71.55637	14.27588	54.145	392.8708	44.39692	76.0527	1.046	14.31389	1.489	1	3	1	0.15	5077	129.3999	125.2791	58.6527	4.108519	200.4838	165.3277	1.001706	13.09628	370.8447
8/12/2014 10:16:43 AM	10:16:43	604	A	4	60	85.71429	43817.14	59	84.28571	29500	1100.488	71.75111	71.55637	14.27588	54.145	393.0959	44.59794	76.14084	1.09	14.31227	1.48	1	3	1	0.15	5024	131.7998	126.0755	58.46172	4.095141	200.6089	165.3343	0.9972036	13.03741	369.1779
8/12/2014 10:16:53 AM	10:16:53	614	A	4	59	84.28571	43086.86	60	84.28571	29500	1100.995	72.2002	71.55637	14.27588	54.145	393.6362	44.216	76.14084	0.9829998	14.31245	1.488001	1	3	1	0.15	5111	126.7998	123.1987	58.76326	4.116263	200.909	166.3387	1.001243	13.09022	370.6731
8/12/2014 10:17:03 AM	10:17:03	624	A	4	60	85.71429	43817.14	59	84.28571	29500	1098.46	72.06548	71.55637	14.27588	54.145	393.5012	44.18081	76.14084	1.02	14.31227	1.479	1	3	1	0.15	5089	128.2002	124.2188	58.76326	4.116263	200.834	166.2274	0.9982192	13.05069	369.5538
8/12/2014 10:17:13 AM	10:17:13	634	A	4	59	84.28571	43086.86	59	85.71429	30000	1100.531	72.2002	71.55637	14.27588	54.145	393.8163	44.55774	76.0527	1.002001	14.31285	1.488001	1	3	1	0.15	5074	128	123.2729	58.62756	4.106758	201.0091	166.0537	1.001343	13.09154	370.7104
8/12/2014 10:17:23 AM	10:17:23	644	A	4	60	85.71429	43817.14	59	84.28571	29500	1102.347	72.69419	71.55637	14.27588	54.145	393.7263	44.31149	76.09677	1.004	14.31397	1.487	1	3	1	0.15	5075	125.2002	121.1712	58.89392	4.125416	200.959	167.0211	0.9996551	13.06946	370.0854
8/12/2014 10:17:33 AM	10:17:33	654	A	4	59	85.71429	43817.14	60	85.71429	30000	1102.39	72.784	71.55637	14.27588	54.145	394.0864	44.88441	76.18491	0.9829998	14.31151	1.490999	1	3	1	0.15	5111	126.2002	122.8095	58.59741	4.104646	201.1591	166.4724	1.002185	13.10253	371.0218
8/12/2014 10:17:43 AM	10:17:43	664	A	4	59	84.28571	43086.86	59	84.28571	29500	1101.756	72.82892	71.55637	14.27588	54.145	394.1315	44.16071	76.22898	1.066999	14.31234	1.490999	1	3	1	0.15	5082	127.3999	123.2736	58.8688	4.123656	201.1842	167.0798	1.002151	13.10209	371.0093
8/12/2014 10:17:53 AM	10:17:53	674	A	4	60	85.71429	43817.14	59	84.28571	29500	1100.404	72.46965	71.55637	14.27588	54.145	394.4466	44.8241	76.14084	0.9619999	14.31534	1.518	1	3	1	0.15	5054	131	126.0587	58.47176	4.095844	201.3593	165.9482	1.011346	13.22231	374.4136
8/12/2014 10:19:57 AM	10:19:57	0	A	4	60	85.71429	43817.14	59	84.28571	29500	1103.023	73.18819	71.55637	14.27588	54.145	394.1765	44.05014	76.27305	1.003	14.31194	1.475	1	3	1	0.15	5053	127.6001	122.5701	58.62253	4.106405	201.2092	166.859	0.9967312	13.03124	369.0029
8/12/2014 10:20:07 AM	10:20:07	2	A	5	59	85.71429	43817.14	58	82.85715	29000	1099.854	73.18819	71.55637	14.27588	54.145	393.9964	44.13055	76.22898	0.9780006	14.31295	1.471001	1	3	1	0.15	5025	131.2002	125.1438	58.2456	4.080002	201.1091	166.0634	0.9988291	13.05867	369.7796
8/12/2014 10:20:17 AM	10:20:17	12	A	5	59	85.71429	43817.14	59	84.28571	29500	1098.249	72.69419	71.55637	14.27588	54.145	393.6362	43.9999	76.27305	0.9659996	14.31183	1.48	1	3	1	0.15	5093	124	120.2435	58.52705	4.099718	200.909	166.2501	0.9984118	13.05321	369.6251
8/12/2014 10:20:27 AM	10:20:27	22	A	5	60	85.71429	43817.14	59	84.28571	29500	1097.531	72.33492	71.55637	14.27588	54.145	393.7263	44.04512	76.36119	0.9799995	14.31454	1.473	1	3	1	0.15	5064	127.6001	123.2225	58.37627	4.089156	200.959	165.6358	0.9940614	12.99633	368.0145
8/12/2014 10:20:37 AM	10:20:37	32	A	5	60	85.71429	43817.14	59	84.28571	29500	1097.404	72.37983	71.55637	14.27588	54.145	393.5012	44.26626	76.40527	1.006001	14.30956	1.466999	1	3	1	0.15	5034	126.2002	120.9594	58.42654	4.092676	200.834	165.7788	0.9951934	13.01113	368.4337
8/12/2014 10:20:47 AM	10:20:47	42	A	5	60	85.71429	43817.14	58	82.85715	29000	1100.615	72.11038	71.55637	14.27588	54.145	393.4111	44.03005	76.44933	0.9610004	14.31039	1.471001	1	3	1	0.15	5003	124.2002	118.3093	58.71802	4.113094	200.7839	166.1696	0.9951594	13.01069	368.4211
8/12/2014 10:20:57 AM	10:20:57	52	A	5	59	85.71429	43817.14	59	84.28571	29500	1099.01	72.42474	71.55637	14.27588	54.145	393.4111	43.72347	76.31712	0.9780006	14.31014	1.451	1	3	1	0.15	5067	126	120.9802	58.28078	4.082467	200.7839	165.5083	0.9885324	12.92405	365.9676
8/12/2014 10:21:07 AM	10:21:07	62	A	5	59	84.28571	43086.86	59	84.28571	29500	1098.798	72.60437	71.55637	14.27588	54.145	393.276	43.95968	76.36119	0.9440002	14.31292	1.474001	1	3	1	0.15	5049	127.3999	122.2811	58.25566	4.080707	200.7089	165.6034	0.9963561	13.02633	368.864
8/12/2014 10:21:17 AM	10:21:17	72	A	5	60	85.71429	43817.14	58	82.85715	29000	1099.601	72.784	71.55637	14.27588	54.145	393.186	44.26123	76.36119	0.9680004	14.31151	1.465	1	3	1	0.15	4968	129.3999	122.7784	58.4215	4.092324	200.6589	166.1017	0.9932637	12.9859	367.7192
8/12/2014 10:21:27 AM	10:21:27	82	A	5	59	84.28571	43086.86	60	84.28571	29500	1101.291	72.91873	71.55637	14.27588	54.145	393.141	43.82399	76.44933	0.9769993	14.31129	1.461	1	3	1	0.15	5075	126.2002	121.7511	58.42654	4.092676	200.6339	166.2234	0.9918332	12.9672	367.1896
8/12/2014 10:21:37 AM	10:21:37	92	A	5	59	84.28571	43086.86	59	84.28571	29500	1096.643	73.00855	71.55637	14.27588	54.145	392.8708	43.98983	76.44933	0.9950008	14.31292	1.476	1	3	1	0.15	5035	126.7998	121.3668	58.41146	4.09162	200.4838	166.2657	0.9969385	13.03395	369.0797
8/12/2014 10:21:47 AM	10:21:47	102	A	5	59	84.28571	43086.86	59	84.28571	29500	1098.291	73.14327	71.55637	14.27588	54.145	393.0059	43.67321	76.44933	1.009001	14.30999	1.464001	1	3	1	0.15	5018	126.7998	120.957	58.00941	4.063457	200.5588	165.5259	0.9897512	12.93998	366.4189
8/12/2014 10:21:57 AM	10:21:57	112	A	5	59	85.71429	43817.14	58	82.85715	29000	1098.925	73.32291	71.55637	14.27588	54.145	393.231	43.58276	76.66969	1.025	14.3118	1.458	1	3	1	0.15	5029	122.7998	117.5833	58.23053	4.078946	200.6839	166.1425	0.9916427	12.96471	367.1191
8/12/2014 10:22:07 AM	10:22:07	122	A	5	59	84.28571	43086.86	59	84.28571	29500	1097.32	73.278	71.55637	14.27588	54.145	392.5557	43.79384	76.53748	0.9589996	14.31418	1.466999	1	3	1	0.15	5068	126	121.969	58.42654	4.092676	200.3087	166.5198	0.9952297	13.01161	368.4471
8/12/2014 10:22:17 AM	10:22:17	132	A	5	59	85.71429	43817.14	58	82.85715	29000	1108.094	74.44562	71.55637	14.27588	54.145	393.5462	43.16563	76.71376	0.9360008	14.31118	1.450001	1	3	1	0.15	4996	125.6001	119.6654	57.75309	4.045503	200.859	166.0521	0.9885305	12.92402	365.9669
8/12/2014 10:22:27 AM	10:22:27	142	A	5	60	84.28571	43086.86	58	82.85715	29000	1102.052	74.3558	71.55637	14.27588	54.145	393.7263	44.07528	76.62562	1.044001	14.30985	1.445	1	3	1	0.15	4953	131	123.5395	57.78828	4.047967	200.959	166.0533	0.9862016	12.89357	365.1048
8/12/2014 10:22:37 AM	10:22:37	152	A	5	59	84.28571	43086.86	59	84.28571	29500	1108.516	74.62525	71.55637	14.27588	54.145	394.3566	43.13045	76.71376	0.9379997	14.3097	1.429001	1	3	1	0.15	5027	124.7998	119.2596	57.3812	4.019452	201.3092	165.4042	0.9806489	12.82098	363.0491
8/12/2014 10:22:47 AM	10:22:47	162	A	5	59	84.28571	43086.86	58	82.85715	29000	1112.276	75.78828	71.55637	14.27588	54.145	395.8874	43.19578	76.75783	0.9780006	14.31187	1.437	1	3	1	0.15	4971	124	117.1736	57.56211	4.032125	202.1597	166.7472	0.9834217	12.85723	364.0756
8/12/2014 10:22:57 AM	10:22:57	172	A	5	59	84.28571	43086.86	58	84.28571	29500	1105.939	75.25397	71.55637	14.27588	54.145	395.4822	43.71343	76.75783	0.9449997	14.31042	1.454	1	3	1	0.15	4985	127	120.5411	57.88377	4.054656	202.0096	166.9958	0.9891356	12.93193	366.1909
8/12/2014 10:23:07 AM	10:23:07	182	A	5	59	84.28571	43086.86	59	82.85715	29000	1103.066	74.67016	71.55637	14.27588	54.145	395.3471	43.58276	76.89004	0.9549999	14.31205	1.459	1	3	1	0.15	4997	122.7998	116.8351	57.7732	4.046911	201.8595	166.2797	0.9890751	12.93114	366.1685
8/12/2014 10:23:17 AM	10:23:17	192	A	5	59	84.28571	43086.86	59	84.28571	29500	1097.235	73.99653	71.55637	14.27588	54.145	394.4466	43.02993	76.93411	0.9799995	14.30905	1.42	1	3	1	0.15	5042	124.7998	119.9994	57.82848	4.050783	201.3593	165.8435	0.977339	12.7777	361.8237
8/12/2014 10:23:27 AM	10:23:27	202	A	5	59	84.28571	43086.86	58	82.85715	29000	1105.009	74.80489	71.55637	14.27588	54.145	394.6718	42.88419	76.89004	0.9319992	14.30829	1.410999	1	3	1	0.15	4937	125.6001	117.8763	57.04447	3.995865	201.4843	164.8278	0.9742761	12.73766	360.6898
8/12/2014 10:23:37 AM	10:23:37	212	A	5	59	84.28571	43086.86	58	81.42857	28500	1104.375	74.62525	71.55637	14.27588	54.145	395.7073	42.76357	76.84597	0.9459991	14.30941	1.417999	1	3	1	0.15	4918	126.2002	118.172	56.96406	3.990232	202.0596	164.5073	0.976742	12.7699	361.6027
8/12/2014 10:23:47 AM	10:23:47	222	A	5	59	84.28571	43086.86	58	82.85715	29000	1096.728	73.54745	71.55637	14.27588	54.145	393.9964	43.14049	76.89004	0.8789997	14.31086	1.408001	1	3	1	0.15	4964	123	116.0635	57.43647	4.023324	201.1091	164.6378	0.9729863	12.7208	360.2123
8/12/2014 10:23:57 AM	10:23:57	232	A	5	59	84.28571	43086.86	58	82.85715	29000	1099.897	73.36781	71.55637	14.27588	54.145	394.1315	42.52736	76.89004	0.9689999	14.30981	1.413	1	3	1	0.15	4933	124.6001	117.2172	57.26057	4.011003	201.1842	164.1138	0.9750129	12.74729	360.9626
8/12/2014 10:24:07 AM	10:24:07	242	A	5	59	84.28571	43086.86	58	82.85715	29000	1098.798	73.14327	71.55637	14.27588	54.145	394.0864	42.84398	76.84597	1.002001	14.31032	1.389	1	3	1	0.15	4919	125.7998	117.4465	56.95401	3.989529	201.1591	163.2718	0.9667924	12.63982	357.9192
8/12/2014 10:24:17 AM	10:24:17	252	A	5	59	84.28571	43086.86	57	81.42857	28500	1095.334	73.05346	71.55637	14.27588	54.145	393.321	43.29127	76.8019	0.9619999	14.30891	1.424999	1	3	1	0.15	4889	123	114.8685	57.62242	4.036349	200.7589	164.629	0.9815587	12.83287	363.3859
8/12/2014 10:24:27 AM	10:24:27	262	A	5	59	84.28571	43086.86	58	82.85715	29000	1091.278	72.87383	71.55637	14.27588	54.145	392.3756	43.10532	77.02225	0.9419994	14.31042	1.42	1	3	1	0.15	4968	123	116.5358	57.32591	4.015579	200.2087	163.8484	0.9773294	12.77758	361.8201
8/12/2014 10:24:37 AM	10:24:37	272	A	5	58	84.28571	43086.86	58	82.85715	29000	1091.7	72.96364	71.55637	14.27588	54.145	391.6552	43.48727	76.84597	0.9580002	14.3135	1.409	1	3	1	0.15	4948	124	116.6315	57.26057	4.011003	199.8084	163.7823	0.973797	12.7314	360.5124
8/12/2014 10:24:47 AM	10:24:47	282	A	5	59	84.28571	43086.86	58	82.85715	29000	1092.63	73.18819	71.55637	14.27588	54.145	391.5651	43.61291	76.75783	1.033001	14.31147	1.427	1	3	1	0.15	4916	127	118.8726	57.76817	4.046559	199.7584	165.0502	0.9799986	12.81248	362.8083
8/12/2014 10:24:57 AM	10:24:57	292	A	5	59	84.28571	43086.86	58	82.85715	29000	1091.911	73.63726	71.55637	14.27588	54.145	391.0699	43.15557	76.8019	1.021	14.31183	1.43	1	3	1	0.15	4965	122.6001	116.0869	57.32591	4.015579	199.4833	164.4748	0.9813407	12.83002	363.3051
8/12/2014 10:25:07 AM	10:25:07	302	A	5	59	84.28571	43086.86	58	81.42857	28500	1091.827	73.41272	71.55637	14.27588	54.145	390.1694	43.28121	76.84597	0.9669991	14.31274	1.433001	1	3	1	0.15	4954	124.7998	117.7162	57.60735	4.035294	198.983	164.8921	0.9820089	12.83876	363.5526
8/12/2014 10:25:17 AM	10:25:17	312	A	5	59	84.28571	43086.86	58	81.42857	28500	1091.066	73.05346	71.55637	14.27588	54.145	390.0344	43.36162	76.84597	0.9759998	14.31122	1.434	1	3	1	0.15	4941	124.7998	117.2194	57.68776	4.040926	198.908	164.7682	0.9822957	12.84251	363.6587
8/12/2014 10:25:27 AM	10:25:27	322	A	5	59	84.28571	43086.86	57	81.42857	28500	1092.503	72.82892	71.55637	14.27588	54.145	390.0344	43.29629	76.84597	1.030001	14.31158	1.437	1	3	1	0.15	4912	123.3999	115.0349	57.87371	4.053952	198.908	164.9791	0.9843349	12.86917	364.4137
8/12/2014 10:25:37 AM	10:25:37	332	A	5	59	84.28571	43086.86	59	82.85715	29000	1090.602	72.55946	71.55637	14.27588	54.145	389.404	43.7285	76.75783	0.9580002	14.3097	1.441	1	3	1	0.15	4978	122.3999	116.3908	57.82848	4.050783	198.5578	164.6613	0.9840364	12.86527	364.3032
8/12/2014 10:25:47 AM	10:25:47	342	A	5	59	84.28571	43086.86	58	82.85715	29000	1090.771	72.55946	71.55637	14.27588	54.145	389.1339	43.5526	76.89004	1.021999	14.30912	1.459999	1	3	1	0.15	4964	125.3999	119.0881	57.55207	4.031422	198.4077	164.0732	0.9910126	12.95647	366.8859
8/12/2014 10:25:57 AM	10:25:57	352	A	5	59	84.28571	43086.86	58	81.42857	28500	1092.292	72.64928	71.55637	14.27588	54.145	389.6292	43.43199	76.84597	1.007	14.31256	1.448999	1	3	1	0.15	4938	125.2002	117.5242	57.45658	4.024733	198.6829	163.9432	0.9874485	12.90987	365.5663
8/12/2014 10:26:07 AM	10:26:07	362	A	5	59	84.28571	43086.86	58	82.85715	29000	1092.714	72.69419	71.55637	14.27588	54.145	389.7642	43.39681	76.84597	0.9890003	14.3127	1.441	1	3	1	0.15	4948	123.2002	115.6894	57.79832	4.048671	198.7579	164.7081	0.9847242	12.87426	364.5578
8/12/2014 10:26:17 AM	10:26:17	372	A	5	59	84.28571	43086.86	58	82.85715	29000	1091.996	72.82892	71.55637	14.27588	54.145	389.0438	42.91434	76.93411	1.030001	14.31263	1.434	1	3	1	0.15	4967	125.2002	118.2144	57.4817	4.026493	198.3577	164.1444	0.9822589	12.84203	363.6451
8/12/2014 10:26:27 AM	10:26:27	382	A	5	59	84.28571	43086.86	58	81.42857	28500	1095.334	72.784	71.55637	14.27588	54.145	388.6386	43.21587	76.8019	0.9920006	14.31068	1.424	1	3	1	0.15	4924	125.7998	118.1285	57.11985	4.001145	198.0575	163.3335	0.9788945	12.79804	362.3996
8/12/2014 10:26:37 AM	10:26:37	392	A	5	59	84.28571	43086.86	58	82.85715	29000	1094.446	72.91873	71.55637	14.27588	54.145	388.5486	42.96459	76.84597	0.993	14.30977	1.451	1	3	1	0.15	4928	123.6001	115.7849	57.36109	4.018044	198.0826	163.9605	0.988035	12.91754	365.7834
8/12/2014 10:26:47 AM	10:26:47	402	A	5	59	84.28571	43086.86	58	82.85715	29000	1091.066	72.784	71.55637	14.27588	54.145	388.5035	43.3767	76.8019	1.039	14.30956	1.431999	1	3	1	0.15	4985	124.6001	118.4528	57.72796	4.043742	198.0575	164.6323	0.9836257	12.8599	364.1511
8/12/2014 10:26:57 AM	10:26:57	412	A	5	60	84.28571	43086.86	58	82.85715	29000	1091.573	72.55946	71.55637	14.27588	54.145	388.5936	44.08029	76.89004	1	14.3114	1.445999	1	3	1	0.15	4975	125.7998	119.352	57.97924	4.061344	198.1076	164.9813	0.9842898	12.86858	364.397
8/12/2014 10:27:07 AM	10:27:07	422	A	5	59	84.28571	43086.86	58	82.85715	29000	1092.376	72.96364	71.55637	14.27588	54.145	389.1339	43.77876	76.89004	1.017	14.31285	1.465	1	3	1	0.15	4959	129	121.6117	57.97924	4.061344	198.4077	165.3141	0.9928316	12.98025	367.5593
8/12/2014 10:27:17 AM	10:27:17	432	A	5	59	84.28571	43086.86	58	82.85715	29000	1095.418	72.82892	71.55637	14.27588	54.145	389.5391	44.09537	76.75783	1.049999	14.31198	1.458	1	3	1	0.15	5009	124	118.4512	58.2456	4.080002	198.6328	165.7672	0.9912218	12.95921	366.9633
8/12/2014 10:27:27 AM	10:27:27	442	A	5	59	84.28571	43086.86	59	82.85715	29000	1096.136	72.64928	71.55637	14.27588	54.145	389.9443	43.64809	76.75783	1.033001	14.3127	1.471001	1	3	1	0.15	5012	126.3999	120.6213	58.08981	4.069089	198.858	165.2895	0.9922801	12.97304	367.3551
8/12/2014 10:27:37 AM	10:27:37	452	A	5	59	84.28571	43086.86	58	82.85715	29000	1095.249	72.82892	71.55637	14.27588	54.145	389.8542	43.51742	76.8019	0.9869995	14.3114	1.457001	1	3	1	0.15	4994	127.3999	120.9491	58.1652	4.07437	198.8079	165.5971	0.9938582	12.99368	367.9393
8/12/2014 10:27:47 AM	10:27:47	462	A	5	59	84.28571	43086.86	58	82.85715	29000	1096.052	72.69419	71.55637	14.27588	54.145	390.3495	43.71844	76.89004	1.049	14.31429	1.469	1	3	1	0.15	4979	124.7998	118.6898	58.26571	4.081411	198.933	165.6987	0.9942364	12.99862	368.0793
8/12/2014 10:27:57 AM	10:27:57	472	A	5	59	84.28571	43086.86	59	84.28571	29500	1094.531	72.784	71.55637	14.27588	54.145	390.1694	44.05014	76.71376	0.9920006	14.31216	1.465	1	3	1	0.15	5045	125.6001	120.4549	58.10991	4.070498	198.983	165.4431	0.9929684	12.98204	367.6099
8/12/2014 10:28:07 AM	10:28:07	482	A	5	59	84.28571	43086.86	59	82.85715	29000	1094.827	72.91873	71.55637	14.27588	54.145	390.4846	44.08029	76.89004	1.034	14.31183	1.466999	1	3	1	0.15	4996	126.3999	120.2362	57.97924	4.061344	199.1581	165.2771	0.993455	12.98841	367.7901
8/12/2014 10:28:17 AM	10:28:17	492	A	5	59	84.28571	43086.86	58	82.85715	29000	1093.179	72.82892	71.55637	14.27588	54.145	390.3945	43.73354	76.8019	1	14.31032	1.461	1	3	1	0.15	4987	125.7998	119.2602	58.08479	4.068738	199.1081	165.4269	0.9934804	12.98874	367.7995
8/12/2014 10:28:27 AM	10:28:27	502	A	5	59	84.28571	43086.86	58	82.85715	29000	1097.784	73.18819	71.55637	14.27588	54.145	390.4846	43.75866	76.89004	0.9659996	14.31534	1.448	1	3	1	0.15	5007	124.6001	118.9755	58.19033	4.07613	199.1581	165.9464	0.9885229	12.92392	365.9641
8/12/2014 10:28:37 AM	10:28:37	512	A	5	59	84.28571	43086.86	59	84.28571	29500	1097.024	73.32291	71.55637	14.27588	54.145	390.9798	43.46214	76.84597	0.9899998	14.3118	1.458	1	3	1	0.15	5017	126.2002	120.3596	58.03956	4.065569	199.4332	165.7378	0.9877641	12.914	365.6832
8/12/2014 10:28:47 AM	10:28:47	522	A	5	59	84.28571	43086.86	58	84.28571	29500	1097.827	73.18819	71.55637	14.27588	54.145	391.0699	43.89434	76.93411	1.025	14.31386	1.466	1	3	1	0.15	4987	126.7998	120.5894	57.79329	4.048319	199.4833	165.1037	0.9914678	12.96242	367.0544
8/12/2014 10:28:57 AM	10:28:57	532	A	5	59	84.28571	43086.86	58	82.85715	29000	1097.573	73.36781	71.55637	14.27588	54.145	391.295	44.02502	76.89004	1.021	14.3144	1.459	1	3	1	0.15	4952	123.7998	116.3487	58.11996	4.071201	199.6084	165.9453	0.9908568	12.95444	366.8282
8/12/2014 10:29:07 AM	10:29:07	542	A	5	59	84.28571	43086.86	58	84.28571	29500	1094.573	73.41272	71.55637	14.27588	54.145	391.1149	44.16574	76.97818	0.9699993	14.31198	1.475	1	3	1	0.15	5031	124.6001	119.1628	57.68273	4.040574	199.5083	165.0529	0.9960746	13.02265	368.7599
8/12/2014 10:29:17 AM	10:29:17	552	A	5	59	84.28571	43086.86	58	82.85715	29000	1096.981	73.36781	71.55637	14.27588	54.145	391.25	44.2361	76.84597	1.062	14.31187	1.483	1	3	1	0.15	5005	126.2002	120.2625	58.28582	4.082819	199.5833	166.2965	0.9988937	13.05951	369.8035
8/12/2014 10:29:27 AM	10:29:27	562	A	5	59	84.28571	43086.86	58	82.85715	29000	1095.08	73.278	71.55637	14.27588	54.145	391.0699	43.55763	76.8019	0.9769993	14.3123	1.468	1	3	1	0.15	4989	126.3999	119.8781	58.35115	4.087396	199.4833	166.3606	0.9918668	12.96764	367.2021
8/12/2014 10:29:37 AM	10:29:37	572	A	5	59	84.28571	43086.86	59	84.28571	29500	1096.77	73.23309	71.55637	14.27588	54.145	391.0248	43.80892	76.89004	1.025999	14.31314	1.476999	1	3	1	0.15	5010	125.2002	119.4288	58.21043	4.077539	199.4583	166.0259	0.9992164	13.06373	369.923
8/12/2014 10:29:47 AM	10:29:47	582	A	5	59	84.28571	43086.86	59	84.28571	29500	1099.178	73.68217	71.55637	14.27588	54.145	391.295	43.71844	76.89004	1.042999	14.31314	1.444	1	3	1	0.15	5035	125.7998	120.5995	58.2054	4.077186	199.6084	166.3854	0.9857159	12.88722	364.9249
8/12/2014 10:29:57 AM	10:29:57	592	A	5	59	84.28571	43086.86	58	84.28571	29500	1096.939	73.54745	71.55637	14.27588	54.145	391.4751	43.82399	76.93411	1.051001	14.31064	1.474001	1	3	1	0.15	4998	126	120.0943	58.15514	4.073666	199.7834	166.1679	0.9957405	13.01828	368.6362
8/12/2014 10:30:07 AM	10:30:07	602	A	5	60	85.71429	43817.14	57	82.85715	29000	1096.094	73.32291	71.55637	14.27588	54.145	391.295	44.16071	76.89004	1.063	14.31324	1.474001	1	3	1	0.15	4953	129.7998	122.5964	58.41649	4.091972	199.6084	166.5356	0.997559	13.04206	369.3094
8/12/2014 10:30:17 AM	10:30:17	612	A	5	59	84.28571	43086.86	59	84.28571	29500	1096.094	73.00855	71.55637	14.27588	54.145	391.0248	43.64306	76.89004	0.9920006	14.31299	1.466	1	3	1	0.15	5034	124.7998	119.0424	58.00941	4.063457	199.4583	165.415	0.9978842	13.04631	369.4298
8/12/2014 10:30:27 AM	10:30:27	622	A	5	59	84.28571	43086.86	59	84.28571	29500	1097.531	72.96364	71.55637	14.27588	54.145	390.7997	43.96471	76.93411	0.941	14.31299	1.471001	1	3	1	0.15	5021	125.3999	119.8819	58.14007	4.07261	199.3332	165.6549	0.9975027	13.04132	369.2885
8/12/2014 10:30:37 AM	10:30:37	632	A	5	59	84.28571	43086.86	59	84.28571	29500	1099.052	73.14327	71.55637	14.27588	54.145	390.0344	43.83907	76.84597	0.9869995	14.30898	1.451	1	3	1	0.15	4996	125.3999	119.095	58.30592	4.084228	198.908	166.1539	0.9879833	12.91687	365.7644
8/12/2014 10:30:47 AM	10:30:47	642	A	5	60	84.28571	43086.86	58	82.85715	29000	1097.446	73.23309	71.55637	14.27588	54.145	389.6742	43.54757	77.02225	1.031	14.31509	1.476999	1	3	1	0.15	4970	124	116.9611	57.89885	4.055713	198.7079	165.3651	0.9968247	13.03246	369.0376
8/12/2014 10:30:57 AM	10:30:57	652	A	5	59	84.28571	43086.86	59	82.85715	29000	1097.066	73.63726	71.55637	14.27588	54.145	389.9443	43.73354	77.02225	0.9769993	14.31299	1.455999	1	3	1	0.15	5031	124	118.7797	57.9692	4.06064	198.858	165.8472	0.9910263	12.95665	366.8909
8/12/2014 10:31:07 AM	10:31:07	662	A	5	59	84.28571	43086.86	58	82.85715	29000	1096.601	73.81689	71.55637	14.27588	54.145	389.9893	43.5526	76.93411	0.9680004	14.31071	1.458	1	3	1	0.15	4990	125.7998	119.5217	57.63248	4.037055	198.958	165.2779	0.9900082	12.94334	366.514
8/12/2014 10:31:17 AM	10:31:17	672	A	5	59	84.28571	43086.86	58	82.85715	29000	1102.516	74.17616	71.55637	14.27588	54.145	389.9893	43.52748	77.06632	1.007999	14.31162	1.459999	1	3	1	0.15	4955	128.7998	121.1364	57.53699	4.030365	198.883	165.369	0.9909194	12.95525	366.8513
8/12/2014 10:31:30 AM	10:31:30	0	A	5	59	84.28571	43086.86	59	82.85715	29000	1097.362	74.17616	71.55637	14.27588	54.145	389.7642	44.11046	77.1104	0.9950008	14.31295	1.476	1	3	1	0.15	5033	123	117.6768	58.45166	4.094436	198.7579	167.3139	0.9963291	13.02598	368.8541
8/12/2014 10:31:40 AM	10:31:40	3	A	6	60	85.71429	43817.14	59	84.28571	29500	1097.531	73.95162	71.55637	14.27588	54.145	389.7642	43.97476	77.1104	1.016001	14.31306	1.464001	1	3	1	0.15	5029	127.3999	121.7967	58.28582	4.082819	198.7579	166.7778	0.9922956	12.97325	367.3608
8/12/2014 10:31:50 AM	10:31:50	13	A	6	59	84.28571	43086.86	59	84.28571	29500	1097.911	73.23309	71.55637	14.27588	54.145	389.8993	43.50234	77.1104	0.9740009	14.31227	1.473	1	3	1	0.15	5007	127.7998	122.0264	58.10489	4.070145	198.8329	165.8023	0.9952852	13.01233	368.4676
8/12/2014 10:32:00 AM	10:32:00	23	A	6	59	84.28571	43086.86	58	82.85715	29000	1098.291	73.00855	71.55637	14.27588	54.145	389.449	43.87425	77.06632	1.044001	14.30974	1.455999	1	3	1	0.15	4985	124.2002	118.0732	58.15013	4.073314	198.5828	165.7132	0.9895157	12.9369	366.3316
8/12/2014 10:32:10 AM	10:32:10	33	A	6	59	85.71429	43817.14	59	84.28571	29500	1098.291	73.36781	71.55637	14.27588	54.145	389.1789	43.69835	77.06632	1.073999	14.31407	1.448	1	3	1	0.15	5056	124.6001	119.9476	57.93904	4.058528	198.4327	165.5614	0.9869408	12.90324	365.3784
8/12/2014 10:32:20 AM	10:32:20	43	A	6	59	84.28571	43086.86	59	82.85715	29000	1100.573	73.50254	71.55637	14.27588	54.145	389.2239	43.69835	77.1104	0.9769993	14.31158	1.459999	1	3	1	0.15	5015	126.6001	121.0753	58.34109	4.086691	198.4577	166.5244	0.9908789	12.95472	366.8363
8/12/2014 10:32:30 AM	10:32:30	53	A	6	59	85.71429	43817.14	58	82.85715	29000	1099.432	73.278	71.55637	14.27588	54.145	389.404	44.15569	77.02225	0.9880009	14.31335	1.493	1	3	1	0.15	5008	129	123.1952	58.4215	4.092324	198.5578	166.5092	1.002135	13.10188	371.0034
8/12/2014 10:32:40 AM	10:32:40	63	A	6	60	85.71429	43817.14	59	85.71429	30000	1100.953	73.14327	71.55637	14.27588	54.145	389.404	44.14061	77.15446	1.02	14.31491	1.490999	1	3	1	0.15	5071	123.6001	119.338	58.70797	4.112391	198.5578	167.0017	1.001386	13.0921	370.7262
8/12/2014 10:32:50 AM	10:32:50	73	A	6	59	84.28571	43086.86	59	84.28571	29500	1098.925	73.00855	71.55637	14.27588	54.145	389.6292	44.04512	77.1104	1.02	14.31675	1.497	1	3	1	0.15	5079	125.6001	121.6534	58.84869	4.122248	198.6829	167.1861	1.003485	13.11954	371.5035
8/12/2014 10:33:00 AM	10:33:00	83	A	6	60	85.71429	43817.14	59	84.28571	29500	1099.728	73.18819	71.55637	14.27588	54.145	390.5296	44.52256	77.06632	0.9349995	14.31541	1.469999	1	3	1	0.15	5045	127.3999	122.5684	58.09987	4.069794	199.1831	165.7548	0.9944296	13.00115	368.1509
8/12/2014 10:33:10 AM	10:33:10	93	A	6	59	84.28571	43086.86	58	82.85715	29000	1101.671	73.32291	71.55637	14.27588	54.145	390.7097	44.49743	77.1104	0.9850006	14.31299	1.489	1	3	1	0.15	4989	127	120.828	58.35617	4.087747	199.2832	166.4082	1.000693	13.08303	370.4695
8/12/2014 10:33:20 AM	10:33:20	103	A	6	60	85.71429	43817.14	60	85.71429	30000	1099.136	73.09837	71.55637	14.27588	54.145	390.8898	43.95465	77.02225	0.9750004	14.3122	1.48	1	3	1	0.15	5078	124.6001	120.276	57.98427	4.061697	199.3832	165.4356	1.000073	13.07493	370.2401
8/12/2014 10:33:30 AM	10:33:30	113	A	6	60	85.71429	43817.14	59	84.28571	29500	1101.164	73.63726	71.55637	14.27588	54.145	391.0699	44.28635	77.06632	0.9309998	14.31115	1.473	1	3	1	0.15	5056	126.7998	121.8729	58.06972	4.067682	199.4833	166.0607	0.9953011	13.01254	368.4735
8/12/2014 10:33:40 AM	10:33:40	123	A	6	59	84.28571	43086.86	59	82.85715	29000	1105.727	74.08635	71.55637	14.27588	54.145	391.4751	44.14061	77.19853	0.9619999	14.31274	1.465	1	3	1	0.15	5027	127.6001	122.1311	58.22551	4.078595	199.7084	166.7611	0.9945695	13.00298	368.2026
8/12/2014 10:33:50 AM	10:33:50	133	A	6	59	84.28571	43086.86	59	84.28571	29500	1103.826	74.22108	71.55637	14.27588	54.145	391.4751	44.12554	77.06632	1.045	14.31212	1.490999	1	3	1	0.15	4979	125.3999	119.0689	58.713	4.112743	199.7084	167.9027	1.001383	13.09205	370.725
8/12/2014 10:34:00 AM	10:34:00	143	A	6	60	84.28571	43086.86	59	84.28571	29500	1100.953	73.90672	71.55637	14.27588	54.145	391.385	43.78881	77.1104	1.080999	14.31154	1.476	1	3	1	0.15	5090	126	122.1109	58.34612	4.087043	199.6584	166.8684	0.991914	12.96826	367.2195
8/12/2014 10:34:10 AM	10:34:10	153	A	6	59	84.28571	43086.86	59	84.28571	29500	1100.7	73.86181	71.55637	14.27588	54.145	391.1149	43.52748	77.24261	1.003	14.31379	1.472	1	3	1	0.15	5046	127.3999	122.4003	58.90398	4.126121	199.5083	168.0077	0.994886	13.00711	368.3198
8/12/2014 10:34:20 AM	10:34:20	163	A	6	59	84.28571	43086.86	59	82.85715	29000	1099.305	73.63726	71.55637	14.27588	54.145	391.385	44.40194	77.1104	0.9589996	14.31205	1.473	1	3	1	0.15	5028	127.3999	121.7725	58.43156	4.093029	199.6584	166.8268	0.9952974	13.01249	368.4721
8/12/2014 10:34:30 AM	10:34:30	173	A	6	60	85.71429	43817.14	59	84.28571	29500	1103.023	73.54745	71.55637	14.27588	54.145	391.5201	44.35168	77.24261	1.073	14.31321	1.488001	1	3	1	0.15	5034	124.6001	119.4257	58.17525	4.075074	199.7334	166.2104	1.000249	13.07723	370.3053
8/12/2014 10:34:40 AM	10:34:40	183	A	6	59	84.28571	43086.86	59	84.28571	29500	1098.967	73.41272	71.55637	14.27588	54.145	391.7903	44.05517	77.24261	0.9459991	14.31328	1.486	1	3	1	0.15	5092	126.3999	122.1589	58.54715	4.101125	199.8835	166.8855	1.001583	13.09466	370.799
8/12/2014 10:34:50 AM	10:34:50	193	A	6	60	85.71429	43817.14	59	84.28571	29500	1102.559	73.32291	71.55637	14.27588	54.145	392.2405	44.22101	77.28667	0.9960003	14.31321	1.499001	1	3	1	0.15	5047	129	123.7698	58.05464	4.066626	200.1336	165.7698	1.002217	13.10296	371.0338
8/12/2014 10:35:00 AM	10:35:00	203	A	6	59	84.28571	43086.86	59	82.85715	29000	1099.897	73.41272	71.55637	14.27588	54.145	392.0604	44.52759	77.1104	1.073	14.31379	1.487	1	3	1	0.15	5006	131.2002	124.8614	58.95926	4.129992	200.0336	167.7524	1.00005	13.07463	370.2316
8/12/2014 10:35:10 AM	10:35:10	213	A	6	60	85.71429	43817.14	59	84.28571	29500	1100.911	72.96364	71.55637	14.27588	54.145	392.4206	44.16071	77.19853	1.038	14.31339	1.475	1	3	1	0.15	5083	125.2002	121.1689	58.09484	4.069441	200.2337	165.5591	0.9959195	13.02063	368.7024
8/12/2014 10:35:20 AM	10:35:20	223	A	6	59	84.28571	43086.86	59	84.28571	29500	1099.305	73.00855	71.55637	14.27588	54.145	392.1505	44.23107	77.19853	0.9659996	14.3105	1.472	1	3	1	0.15	5056	126	121.488	58.55218	4.101477	200.0836	166.5625	0.9951644	13.01075	368.4229
8/12/2014 10:35:30 AM	10:35:30	233	A	6	59	84.28571	43086.86	59	84.28571	29500	1102.094	73.09837	71.55637	14.27588	54.145	391.8353	43.84409	77.15446	0.9979992	14.31061	1.48	1	3	1	0.15	5030	126.7998	121.4375	57.64253	4.037758	199.9085	164.7088	0.9975598	13.04207	369.3097
8/12/2014 10:35:40 AM	10:35:40	243	A	6	59	84.28571	43086.86	59	82.85715	29000	1100.7	73.18819	71.55637	14.27588	54.145	392.1054	43.75363	77.15446	0.9519997	14.31404	1.474001	1	3	1	0.15	5032	125.7998	120.3363	57.64756	4.03811	200.0586	164.7934	0.9956433	13.01701	368.6002
8/12/2014 10:35:50 AM	10:35:50	253	A	6	59	85.71429	43817.14	60	85.71429	30000	1103.108	73.23309	71.55637	14.27588	54.145	392.2855	43.93456	77.33075	1.055	14.31512	1.469	1	3	1	0.15	5081	126.3999	121.895	58.39135	4.090211	200.1586	166.4084	0.9928228	12.98014	367.556
8/12/2014 10:36:00 AM	10:36:00	263	A	6	59	84.28571	43086.86	59	84.28571	29500	1100.531	73.278	71.55637	14.27588	54.145	392.2855	43.91445	77.19853	0.9379997	14.31183	1.488001	1	3	1	0.15	5050	127.6001	122.8819	58.25566	4.080707	200.1586	166.1586	1.000248	13.07722	370.3049
8/12/2014 10:36:10 AM	10:36:10	273	A	6	60	85.71429	43817.14	59	84.28571	29500	1101.164	73.36781	71.55637	14.27588	54.145	392.0604	44.57785	77.24261	0.9629993	14.31266	1.469999	1	3	1	0.15	5030	128	122.3952	57.73802	4.044447	200.0336	165.1338	0.9941923	12.99804	368.063
8/12/2014 10:36:20 AM	10:36:20	283	A	6	59	84.28571	43086.86	59	84.28571	29500	1099.77	73.14327	71.55637	14.27588	54.145	392.1505	43.95465	77.33075	1.000999	14.31176	1.493	1	3	1	0.15	5078	123.3999	119.6958	58.49187	4.097253	200.0836	166.5465	1.001774	13.09717	370.87
8/12/2014 10:36:30 AM	10:36:30	293	A	6	59	84.28571	43086.86	59	84.28571	29500	1100.15	73.05346	71.55637	14.27588	54.145	392.1505	43.97476	77.19853	0.9869995	14.31306	1.481001	1	3	1	0.15	5065	126.2002	121.8968	58.34612	4.087043	200.0836	166.1648	0.9979452	13.04711	369.4524
8/12/2014 10:36:40 AM	10:36:40	303	A	6	60	84.28571	43086.86	59	84.28571	29500	1102.052	73.32291	71.55637	14.27588	54.145	391.7903	43.90441	77.1104	0.9619999	14.31053	1.462999	1	3	1	0.15	5040	127	122.0631	58.29586	4.083523	199.8835	166.2807	0.9918668	12.96764	367.2021
8/12/2014 10:36:50 AM	10:36:50	313	A	6	59	84.28571	43086.86	59	84.28571	29500	1101.925	73.68217	71.55637	14.27588	54.145	391.9703	44.1004	77.15446	1.007	14.31187	1.443001	1	3	1	0.15	4998	124.3999	118.3811	58.1451	4.072962	199.9835	166.2576	0.9827052	12.84786	363.8103
8/12/2014 10:37:00 AM	10:37:00	323	A	6	60	85.71429	43817.14	59	84.28571	29500	1104.587	74.22108	71.55637	14.27588	54.145	391.9253	43.74358	77.1104	0.9710007	14.31129	1.459999	1	3	1	0.15	5056	123.2002	118.4073	57.85863	4.052896	199.9585	166.0925	0.9901962	12.9458	366.5836
8/12/2014 10:37:10 AM	10:37:10	333	A	6	59	84.28571	43086.86	58	82.85715	29000	1110.629	75.56792	71.55637	14.27588	54.145	392.7357	43.14049	77.24261	0.9729996	14.3123	1.431999	1	3	1	0.15	5015	126.7998	121.2665	57.17514	4.005019	200.4088	165.7347	0.9819599	12.83812	363.5344
8/12/2014 10:37:20 AM	10:37:20	343	A	6	59	84.28571	43086.86	58	82.85715	29000	1111.262	76.75783	71.55637	14.27588	54.145	394.9419	43.22594	77.28667	0.9850006	14.31238	1.447001	1	3	1	0.15	4979	127.6001	120.9649	57.22539	4.008538	201.6344	166.8188	0.9877195	12.91342	365.6667
8/12/2014 10:37:30 AM	10:37:30	353	A	6	60	84.28571	43086.86	59	84.28571	29500	1117.177	77.24261	71.55637	14.27588	54.145	395.5272	42.82387	77.33075	0.9160004	14.30967	1.433001	1	3	1	0.15	4982	124	117.6228	57.24046	4.009594	201.9596	167.249	0.9845296	12.87171	364.4857
8/12/2014 10:37:40 AM	10:37:40	363	A	6	59	84.28571	43086.86	59	84.28571	29500	1108.136	76.97818	71.55637	14.27588	54.145	395.5722	43.52748	77.50703	0.9459991	14.30977	1.429001	1	3	1	0.15	5053	125	120.4538	57.86868	4.053599	201.9846	168.3822	0.9799262	12.81153	362.7815
8/12/2014 10:37:50 AM	10:37:50	373	A	6	60	85.71429	43817.14	59	84.28571	29500	1112.572	76.89004	71.55637	14.27588	54.145	395.9774	43.53249	77.63924	0.9540005	14.30898	1.457001	1	3	1	0.15	5018	126.7998	121.1478	57.58724	4.033885	202.2097	167.7063	0.9892865	12.93391	366.2468
8/12/2014 10:38:00 AM	10:38:00	383	A	6	60	85.71429	43817.14	58	84.28571	29500	1105.178	75.87642	71.55637	14.27588	54.145	394.9419	43.8843	77.68331	1	14.31379	1.469999	1	3	1	0.15	5019	127.7998	122.3188	58.17525	4.075074	201.6344	168.1295	0.9921352	12.97115	367.3014
8/12/2014 10:38:10 AM	10:38:10	393	A	6	60	85.71429	43817.14	59	84.28571	29500	1103.235	75.34378	71.55637	14.27588	54.145	394.7168	43.67321	77.72738	0.9960003	14.31082	1.457001	1	3	1	0.15	5034	125.6001	120.1923	57.95915	4.059937	201.5093	167.2305	0.9892808	12.93383	366.2447
8/12/2014 10:38:20 AM	10:38:20	403	A	6	59	84.28571	43086.86	59	84.28571	29500	1109.572	75.65607	71.55637	14.27588	54.145	395.167	42.81382	77.63924	1.011	14.31104	1.445999	1	3	1	0.15	5045	125.7998	120.8391	57.91894	4.05712	201.7594	167.4018	0.9856413	12.88625	364.8973
8/12/2014 10:38:30 AM	10:38:30	413	A	6	60	84.28571	43086.86	59	84.28571	29500	1105.474	75.29887	71.55637	14.27588	54.145	395.3021	43.26614	77.77145	0.9850006	14.31003	1.448999	1	3	1	0.15	5035	127	121.5582	58.07473	4.068033	201.8345	167.4397	0.9854855	12.88421	364.8396
8/12/2014 10:38:40 AM	10:38:40	423	A	6	59	84.28571	43086.86	58	82.85715	29000	1105.601	74.93961	71.55637	14.27588	54.145	395.077	43.49733	77.90366	0.9799995	14.3122	1.462	1	3	1	0.15	4969	127.2002	121.1003	57.8134	4.049727	201.7094	166.5871	0.9905214	12.95005	366.704
8/12/2014 10:38:50 AM	10:38:50	433	A	6	60	85.71429	43817.14	59	84.28571	29500	1105.22	74.8947	71.55637	14.27588	54.145	395.167	43.37169	77.77145	1.059	14.31346	1.441999	1	3	1	0.15	5055	124.2002	119.539	57.6978	4.04163	201.7594	166.3033	0.9842327	12.86783	364.3758
8/12/2014 10:39:00 AM	10:39:00	443	A	6	59	84.28571	43086.86	59	84.28571	29500	1103.404	74.84979	71.55637	14.27588	54.145	395.5722	43.68327	77.90366	0.9740009	14.31324	1.445	1	3	1	0.15	5035	127.3999	122.1335	57.89885	4.055713	201.9846	166.6954	0.985135	12.87963	364.7099
8/12/2014 10:39:10 AM	10:39:10	453	A	6	59	84.28571	43086.86	59	84.28571	29500	1103.911	74.22108	71.55637	14.27588	54.145	394.7168	43.36665	77.99181	0.9939995	14.31487	1.464001	1	3	1	0.15	5019	127.3999	121.9367	57.68273	4.040574	201.5093	165.7174	0.9908763	12.95469	366.8354
8/12/2014 10:39:20 AM	10:39:20	463	A	6	59	84.28571	43086.86	58	82.85715	29000	1105.685	74.49052	71.55637	14.27588	54.145	394.8518	43.81393	77.8596	0.9699993	14.31061	1.448999	1	3	1	0.15	4994	123.2002	117.3355	58.11996	4.071201	201.5844	166.8701	0.9884829	12.9234	365.9493
8/12/2014 10:39:30 AM	10:39:30	473	A	6	60	85.71429	43817.14	59	84.28571	29500	1102.77	74.58034	71.55637	14.27588	54.145	394.7618	43.10532	78.03587	0.9389992	14.31064	1.454	1	3	1	0.15	5057	124	119.3935	57.71791	4.043038	201.5343	166.0878	0.9879639	12.91661	365.7571
8/12/2014 10:39:40 AM	10:39:40	483	A	6	60	85.71429	43817.14	58	84.28571	29500	1104.418	74.62525	71.55637	14.27588	54.145	394.5817	43.15557	77.99181	1.014999	14.31014	1.436001	1	3	1	0.15	5026	125.7998	120.384	57.41637	4.021916	201.4343	165.4796	0.981881	12.83709	363.5052
8/12/2014 10:39:50 AM	10:39:50	493	A	6	60	84.28571	43086.86	58	82.85715	29000	1104.882	74.98452	71.55637	14.27588	54.145	394.5817	43.37169	78.12402	1.021999	14.30905	1.450001	1	3	1	0.15	4957	126.7998	119.864	57.5973	4.03459	201.4343	166.1622	0.9874933	12.91046	365.5829
8/12/2014 10:40:00 AM	10:40:00	503	A	6	60	85.71429	43817.14	58	84.28571	29500	1105.136	74.62525	71.55637	14.27588	54.145	393.9514	43.48225	78.03587	1.038	14.308	1.43	1	3	1	0.15	5045	122.6001	117.3814	57.57216	4.032829	201.0841	165.8132	0.9814208	12.83107	363.3348
8/12/2014 10:40:10 AM	10:40:10	513	A	6	60	85.71429	43817.14	58	84.28571	29500	1107.713	74.93961	71.55637	14.27588	54.145	394.6718	42.88921	78.16809	0.9960003	14.31126	1.450001	1	3	1	0.15	5006	125.6001	119.5238	58.08479	4.068738	201.4843	167.1653	0.9868617	12.9022	365.3491
8/12/2014 10:40:20 AM	10:40:20	523	A	6	59	85.71429	43817.14	58	82.85715	29000	1108.643	74.71507	71.55637	14.27588	54.145	394.2215	43.47219	78.16809	0.9729996	14.30985	1.423	1	3	1	0.15	4988	126.6001	120.0437	57.88377	4.054656	201.2342	166.5524	0.9772767	12.77689	361.8007
8/12/2014 10:40:30 AM	10:40:30	533	A	6	59	84.28571	43086.86	58	82.85715	29000	1103.319	74.3558	71.55637	14.27588	54.145	394.2215	43.47722	78.16809	0.9780006	14.31541	1.459	1	3	1	0.15	4995	124.7998	118.5005	58.14007	4.07261	201.2342	166.8018	0.9897071	12.9394	366.4025
8/12/2014 10:40:40 AM	10:40:40	543	A	6	59	84.28571	43086.86	59	84.28571	29500	1099.897	74.22108	71.55637	14.27588	54.145	393.8163	43.86419	78.16809	1.039	14.31111	1.462999	1	3	1	0.15	5062	124.2002	120.09	57.90386	4.056064	201.0091	166.1888	0.9909166	12.95522	366.8503
8/12/2014 10:40:50 AM	10:40:50	553	A	6	59	85.71429	43817.14	59	84.28571	29500	1104.037	74.04144	71.55637	14.27588	54.145	393.5462	43.66317	78.03587	1.040001	14.31274	1.459	1	3	1	0.15	5032	126.7998	121.4858	57.88878	4.055007	200.859	166.0088	0.9897467	12.93992	366.4172
8/12/2014 10:41:00 AM	10:41:00	563	A	6	59	84.28571	43086.86	59	84.28571	29500	1101.164	73.68217	71.55637	14.27588	54.145	393.6812	43.93958	78.16809	1.072001	14.31223	1.457001	1	3	1	0.15	4991	131.6001	124.8673	58.08479	4.068738	200.934	166.1297	0.988932	12.92927	366.1156
8/12/2014 10:41:10 AM	10:41:10	573	A	6	60	85.71429	43817.14	59	84.28571	29500	1101.545	73.63726	71.55637	14.27588	54.145	393.6362	43.64306	77.99181	1.014	14.31292	1.468	1	3	1	0.15	5049	124.2002	119.3971	58.34109	4.086691	200.909	166.6355	0.9928253	12.98017	367.5569
8/12/2014 10:41:20 AM	10:41:20	583	A	6	60	85.71429	43817.14	59	84.28571	29500	1102.094	73.63726	71.55637	14.27588	54.145	393.8163	43.69332	78.03587	1.004	14.31183	1.468	1	3	1	0.15	5047	125	120.3108	58.19033	4.07613	201.0091	166.3164	0.9927361	12.97901	367.5239
8/12/2014 10:41:30 AM	10:41:30	593	A	6	60	85.71429	43817.14	59	84.28571	29500	1101.249	73.63726	71.55637	14.27588	54.145	393.276	43.87425	78.03587	1.014	14.31194	1.447001	1	3	1	0.15	5030	125.7998	120.6715	58.06469	4.067329	200.7089	166.0499	0.9856371	12.88619	364.8958
8/12/2014 10:41:40 AM	10:41:40	603	A	6	60	84.28571	43086.86	58	82.85715	29000	1101.545	73.54745	71.55637	14.27588	54.145	393.141	43.71844	78.03587	1.028	14.31057	1.459	1	3	1	0.15	4965	126.6001	119.6794	58.13505	4.072258	200.6339	166.1253	0.9879812	12.91684	365.7635
8/12/2014 10:41:50 AM	10:41:50	613	A	6	59	84.28571	43086.86	59	84.28571	29500	1099.432	73.63726	71.55637	14.27588	54.145	392.9158	43.97476	77.94774	1.084	14.31328	1.448999	1	3	1	0.15	5050	125.2002	120.5743	58.03956	4.065569	200.5088	165.9966	0.986468	12.89706	365.2033
8/12/2014 10:42:00 AM	10:42:00	623	A	6	59	84.28571	43086.86	59	84.28571	29500	1097.277	73.41272	71.55637	14.27588	54.145	392.8258	43.4923	77.99181	1.059999	14.31371	1.476	1	3	1	0.15	5049	127.2002	122.4731	58.33105	4.085988	200.4588	166.4292	0.9955382	13.01564	368.5613
8/12/2014 10:42:10 AM	10:42:10	633	A	6	60	85.71429	43817.14	58	84.28571	29500	1103.657	73.50254	71.55637	14.27588	54.145	392.9158	43.90942	78.07995	0.9780006	14.31252	1.479	1	3	1	0.15	5018	127.3999	121.7211	58.77834	4.11732	200.5088	167.4465	0.99642	13.02717	368.8877
8/12/2014 10:42:20 AM	10:42:20	643	A	6	59	85.71429	43817.14	58	82.85715	29000	1101.164	73.36781	71.55637	14.27588	54.145	392.7808	44.00994	77.94774	1.013	14.31158	1.458	1	3	1	0.15	5041	124.7998	119.9756	58.21043	4.077539	200.4338	166.137	0.9887794	12.92728	366.0591
8/12/2014 10:42:30 AM	10:42:30	653	A	6	59	85.71429	43817.14	59	84.28571	29500	1099.305	73.45763	71.55637	14.27588	54.145	393.0509	44.03506	77.94774	1.013	14.31397	1.438	1	3	1	0.15	5051	124.2002	119.6365	58.14007	4.07261	200.5838	166.0619	0.9827536	12.84849	363.8282
8/12/2014 10:42:40 AM	10:42:40	663	A	6	59	84.28571	43086.86	58	82.85715	29000	1102.854	73.59235	71.55637	14.27588	54.145	393.7713	43.51742	77.8596	0.9829998	14.3118	1.438999	1	3	1	0.15	5003	127.3999	121.548	57.45658	4.024733	200.9841	164.7176	0.9861449	12.89283	365.0838
8/12/2014 10:42:50 AM	10:42:50	673	A	6	59	84.28571	43086.86	59	82.85715	29000	1101.925	73.72708	71.55637	14.27588	54.145	394.4466	43.02491	77.99181	1.049	14.31021	1.458	1	3	1	0.15	4976	125.2002	118.9971	57.94909	4.059232	201.3593	165.8784	0.9893655	12.93494	366.2761
8/12/2014 10:43:00 AM	10:43:00	0	A	6	60	85.71429	43817.14	59	84.28571	29500	1099.643	73.95162	71.55637	14.27588	54.145	394.1765	43.90441	77.99181	1.018999	14.31136	1.447001	1	3	1	0.15	5083	123.7998	120.0074	58.32602	4.085635	201.2092	166.8629	0.98329	12.85551	364.0268
8/12/2014 10:43:10 AM	10:43:10	7	A	7	59	85.71429	43817.14	59	84.28571	29500	1097.911	73.54745	71.55637	14.27588	54.145	393.9063	43.59783	77.99181	1.040001	14.3131	1.455999	1	3	1	0.15	5057	126.3999	121.897	58.23556	4.079298	201.0591	166.3382	0.9877552	12.91389	365.6799
8/12/2014 10:43:20 AM	10:43:20	17	A	7	59	84.28571	43086.86	59	84.28571	29500	1101.883	73.32291	71.55637	14.27588	54.145	393.9063	44.14061	77.99181	1.009001	14.31613	1.459	1	3	1	0.15	5034	127	121.7259	58.55218	4.101477	201.0591	166.8219	0.9919118	12.96823	367.2187
8/12/2014 10:43:30 AM	10:43:30	27	A	7	59	85.71429	43817.14	58	82.85715	29000	1100.024	73.09837	71.55637	14.27588	54.145	393.9964	44.23107	77.94774	0.9750004	14.31198	1.459	1	3	1	0.15	4999	124.3999	118.4048	58.46172	4.095141	201.1091	166.4459	0.9898023	12.94065	366.4378
8/12/2014 10:43:40 AM	10:43:40	37	A	7	60	85.71429	43817.14	59	84.28571	29500	1100.657	73.18819	71.55637	14.27588	54.145	394.1315	43.94963	77.94774	0.9960003	14.31277	1.454	1	3	1	0.15	5057	125	120.1636	58.04961	4.066273	201.1842	165.6481	0.9881321	12.91881	365.8194
8/12/2014 10:43:50 AM	10:43:50	47	A	7	59	85.71429	43817.14	59	84.28571	29500	1099.939	73.41272	71.55637	14.27588	54.145	394.1315	44.12051	77.94774	1.000999	14.3153	1.461	1	3	1	0.15	5042	127.3999	122.6872	57.84356	4.051839	201.1842	165.3953	0.9905908	12.95096	366.7296
8/12/2014 10:44:00 AM	10:44:00	57	A	7	60	85.71429	43817.14	58	82.85715	29000	1102.221	73.68217	71.55637	14.27588	54.145	393.8613	44.18584	77.94774	1.028	14.3153	1.457001	1	3	1	0.15	4997	124.3999	118.3574	57.98427	4.061697	201.0341	165.9162	0.9892262	12.93312	366.2245
8/12/2014 10:44:10 AM	10:44:10	67	A	7	60	85.71429	43817.14	59	84.28571	29500	1101.376	73.50254	71.55637	14.27588	54.145	393.231	43.44204	77.8596	0.9839993	14.31357	1.452999	1	3	1	0.15	5068	123.2002	119.0742	58.23556	4.079298	200.6839	166.3012	0.9879042	12.91583	365.7351
8/12/2014 10:44:20 AM	10:44:20	77	A	7	59	84.28571	43086.86	59	84.28571	29500	1102.516	73.41272	71.55637	14.27588	54.145	392.1054	43.48225	77.94774	0.9790001	14.31436	1.452999	1	3	1	0.15	5042	127.6001	122.6872	58.16018	4.074018	200.0586	166.0675	0.9888604	12.92834	366.0891
8/12/2014 10:44:30 AM	10:44:30	87	A	7	59	84.28571	43086.86	58	82.85715	29000	1105.22	73.81689	71.55637	14.27588	54.145	392.4656	43.69332	78.03587	1.003	14.31245	1.447001	1	3	1	0.15	4998	127.7998	121.4265	58.22551	4.078595	200.2587	166.539	0.9856706	12.88663	364.9081
8/12/2014 10:44:40 AM	10:44:40	97	A	7	59	85.71429	43817.14	58	82.85715	29000	1107.798	74.71507	71.55637	14.27588	54.145	392.6457	43.3365	77.94774	0.9899998	14.31256	1.433001	1	3	1	0.15	4997	124.2002	118.3574	58.01442	4.063808	200.3587	166.8306	0.9823662	12.84343	363.6848
8/12/2014 10:44:50 AM	10:44:50	107	A	7	60	84.28571	43086.86	59	84.28571	29500	1118.994	78.25623	71.55637	14.27588	54.145	394.1765	43.01485	77.77145	0.9820004	14.31147	1.381001	1	3	1	0.15	4983	125	119.354	56.84345	3.981784	201.2092	167.2196	0.9632198	12.59311	356.5966
8/12/2014 10:45:00 AM	10:45:00	117	A	7	60	85.71429	43817.14	58	82.85715	29000	1119.881	80.28348	71.55637	14.27588	54.145	395.7973	42.36655	77.8596	0.9360008	14.31154	1.413	1	3	1	0.15	4951	125.2002	118.2106	57.10981	4.000442	202.1096	169.4594	0.9741979	12.73664	360.6608
8/12/2014 10:45:10 AM	10:45:10	127	A	7	59	84.28571	43086.86	57	81.42857	28500	1120.431	81.07675	71.55637	14.27588	54.145	397.3281	43.045	78.03587	1.072001	14.31173	1.422001	1	3	1	0.15	4877	127	118.1155	57.07462	3.997977	202.9601	170.033	0.9771247	12.7749	361.7444
8/12/2014 10:45:20 AM	10:45:20	137	A	7	59	84.28571	43086.86	58	82.85715	29000	1123.642	80.41569	71.55637	14.27588	54.145	396.5177	42.39167	78.03587	1.018	14.30985	1.378	1	3	1	0.15	4985	122.2002	115.7954	56.82334	3.980375	202.5098	168.9435	0.9618703	12.57547	356.097
8/12/2014 10:45:30 AM	10:45:30	147	A	7	59	84.28571	43086.86	58	82.85715	29000	1111.981	80.15127	71.55637	14.27588	54.145	396.9229	43.89434	78.03587	1.021999	14.31371	1.444	1	3	1	0.15	4983	125	118.5952	57.55709	4.031773	202.735	170.3207	0.9840248	12.86511	364.2989
8/12/2014 10:45:40 AM	10:45:40	157	A	7	60	85.71429	43817.14	58	82.85715	29000	1115.699	78.16809	71.55637	14.27588	54.145	395.3021	43.14049	78.16809	1.035999	14.31133	1.422001	1	3	1	0.15	4951	129.3999	121.6043	57.33595	4.016283	201.8345	168.2145	0.9769876	12.77311	361.6936
8/12/2014 10:45:50 AM	10:45:50	167	A	7	59	84.28571	43086.86	59	84.28571	29500	1106.699	76.97818	71.55637	14.27588	54.145	393.9964	43.63301	78.07995	1.017	14.31082	1.455999	1	3	1	0.15	5017	123.7998	118.4492	57.9692	4.06064	201.1091	168.5973	0.9886121	12.92509	365.9971
8/12/2014 10:46:00 AM	10:46:00	177	A	7	60	85.71429	43817.14	58	84.28571	29500	1104.925	76.18491	71.55637	14.27588	54.145	392.8258	43.50737	78.12402	1.023001	14.314	1.454	1	3	1	0.15	5028	128.3999	123.1127	58.57228	4.102886	200.4588	169.2271	0.9880029	12.91712	365.7716
8/12/2014 10:46:10 AM	10:46:10	187	A	7	60	84.28571	43086.86	59	84.28571	29500	1105.347	75.70013	71.55637	14.27588	54.145	392.7357	43.56768	78.12402	0.9839993	14.31162	1.433001	1	3	1	0.15	4999	126.3999	120.499	58.27577	4.082116	200.4088	168.198	0.9808068	12.82304	363.1075
8/12/2014 10:46:20 AM	10:46:20	197	A	7	60	85.71429	43817.14	58	84.28571	29500	1102.601	75.34378	71.55637	14.27588	54.145	392.6007	43.68829	78.16809	1.099001	14.31342	1.445	1	3	1	0.15	4989	124.6001	118.5478	58.21545	4.07789	200.3337	167.776	0.9848883	12.8764	364.6185
8/12/2014 10:46:30 AM	10:46:30	207	A	7	60	85.71429	43817.14	59	84.28571	29500	1101.207	75.25397	71.55637	14.27588	54.145	392.6457	43.83404	78.21216	0.9960003	14.31274	1.440001	1	3	1	0.15	5064	126.3999	121.8728	58.15013	4.073314	200.3587	167.5631	0.9831276	12.85338	363.9667
8/12/2014 10:46:40 AM	10:46:40	217	A	7	59	85.71429	43817.14	58	82.85715	29000	1101.883	74.62525	71.55637	14.27588	54.145	392.5557	43.78378	78.25623	1.033001	14.31093	1.450001	1	3	1	0.15	5032	127.6001	121.8694	58.35617	4.087747	200.3087	167.4823	0.9864277	12.89653	365.1884
8/12/2014 10:46:50 AM	10:46:50	227	A	7	59	84.28571	43086.86	59	84.28571	29500	1101.418	74.31089	71.55637	14.27588	54.145	392.5107	43.93456	78.21216	0.9650002	14.31212	1.462	1	3	1	0.15	5021	125.7998	120.4556	58.41146	4.09162	200.2837	167.34	0.99158	12.96389	367.0959
8/12/2014 10:47:00 AM	10:47:00	237	A	7	60	85.71429	43817.14	59	84.28571	29500	1100.826	73.81689	71.55637	14.27588	54.145	392.2855	44.03005	78.25623	1.021999	14.31245	1.452999	1	3	1	0.15	5016	123.7998	118.6167	58.1451	4.072962	200.1586	166.3686	0.9844352	12.87048	364.4508
8/12/2014 10:47:10 AM	10:47:10	247	A	7	59	84.28571	43086.86	59	84.28571	29500	1100.446	73.68217	71.55637	14.27588	54.145	392.0604	43.94461	78.3003	1.059	14.31411	1.466	1	3	1	0.15	5072	125.3999	121.4858	58.15514	4.073666	200.0336	166.2789	0.9919145	12.96826	367.2198
8/12/2014 10:47:20 AM	10:47:20	257	A	7	59	84.28571	43086.86	59	84.28571	29500	1100.446	73.41272	71.55637	14.27588	54.145	391.9253	43.86922	78.16809	0.9829998	14.31332	1.457001	1	3	1	0.15	5039	126.6001	121.6548	58.27577	4.082116	199.9585	166.3123	0.9882886	12.92086	365.8774
8/12/2014 10:47:30 AM	10:47:30	267	A	7	59	84.28571	43086.86	58	82.85715	29000	1100.108	73.41272	71.55637	14.27588	54.145	391.7903	43.74358	78.16809	0.9869995	14.31509	1.462	1	3	1	0.15	4976	128.2002	121.4606	58.28078	4.082467	199.8835	166.3229	0.9907076	12.95249	366.7729
8/12/2014 10:47:40 AM	10:47:40	277	A	7	59	84.28571	43086.86	59	84.28571	29500	1099.643	73.45763	71.55637	14.27588	54.145	392.1505	43.51742	78.12402	1.054001	14.31021	1.471001	1	3	1	0.15	5056	124	119.3699	58.06972	4.067682	200.0836	165.9127	0.9936256	12.99063	367.8532
8/12/2014 10:47:50 AM	10:47:50	287	A	7	60	85.71429	43817.14	59	84.28571	29500	1100.066	73.45763	71.55637	14.27588	54.145	391.9703	43.93456	78.07995	1.049	14.314	1.459	1	3	1	0.15	5037	126.7998	121.6065	58.33607	4.086339	199.9835	166.4768	0.9883865	12.92214	365.9136
8/12/2014 10:48:00 AM	10:48:00	297	A	7	59	84.28571	43086.86	58	82.85715	29000	1100.193	73.95162	71.55637	14.27588	54.145	392.1955	43.26112	78.03587	1	14.31227	1.421	1	3	1	0.15	5001	126	119.7852	57.71288	4.042686	200.1086	165.1171	0.9767983	12.77063	361.6235
8/12/2014 10:48:10 AM	10:48:10	307	A	7	60	85.71429	43817.14	58	84.28571	29500	1103.784	74.4007	71.55637	14.27588	54.145	392.4656	43.41188	78.12402	1.056999	14.31332	1.472	1	3	1	0.15	4991	124.7998	118.7856	58.43658	4.09338	200.2587	167.4673	0.990685	12.95219	366.7645
8/12/2014 10:48:20 AM	10:48:20	317	A	7	60	85.71429	43817.14	59	84.28571	29500	1102.643	74.3558	71.55637	14.27588	54.145	392.1955	43.93456	78.16809	1.02	14.31415	1.462	1	3	1	0.15	5057	125	119.9713	57.78828	4.047967	200.1086	166.0533	0.9893149	12.93428	366.2573
8/12/2014 10:48:30 AM	10:48:30	327	A	7	60	85.71429	43817.14	59	84.28571	29500	1102.263	74.44562	71.55637	14.27588	54.145	392.0604	43.87425	78.03587	1.042999	14.31523	1.458	1	3	1	0.15	5026	127.7998	122.2979	58.1652	4.07437	200.0336	166.9291	0.9894817	12.93646	366.3191
8/12/2014 10:48:40 AM	10:48:40	337	A	7	60	85.71429	43817.14	59	84.28571	29500	1104.122	74.67016	71.55637	14.27588	54.145	391.8353	43.31136	78.07995	1.034	14.31353	1.455	1	3	1	0.15	4990	130.2002	123.3221	58.35115	4.087396	199.9085	167.5086	0.988382	12.92208	365.912
8/12/2014 10:48:50 AM	10:48:50	347	A	7	59	84.28571	43086.86	59	84.28571	29500	1103.488	74.62525	71.55637	14.27588	54.145	391.8353	43.9245	78.07995	1.08	14.31386	1.452	1	3	1	0.15	5040	124.6001	119.568	58.08479	4.068738	199.9085	166.9064	0.986697	12.90005	365.2881
8/12/2014 10:49:00 AM	10:49:00	357	A	7	59	84.28571	43086.86	59	84.28571	29500	1103.868	74.53543	71.55637	14.27588	54.145	391.6552	43.75363	78.03587	1.059999	14.31375	1.466	1	3	1	0.15	5035	127.3999	122.3254	58.47176	4.095844	199.8084	167.6528	0.9921286	12.97106	367.299
8/12/2014 10:49:10 AM	10:49:10	367	A	7	59	84.28571	43086.86	58	84.28571	29500	1102.516	74.3558	71.55637	14.27588	54.145	391.4751	43.96973	77.99181	1.082001	14.31263	1.437	1	3	1	0.15	5013	127.2002	120.8364	57.82848	4.050783	199.7084	166.139	0.9846824	12.87371	364.5423
8/12/2014 10:49:20 AM	10:49:20	377	A	7	59	85.71429	43817.14	58	82.85715	29000	1107.206	74.71507	71.55637	14.27588	54.145	392.0604	44.13055	78.03587	1.02	14.31306	1.438	1	3	1	0.15	4957	125.2002	118.3538	58.09987	4.069794	200.0336	167.0124	0.9826406	12.84702	363.7864
8/12/2014 10:49:30 AM	10:49:30	387	A	7	59	84.28571	43086.86	59	84.28571	29500	1106.741	74.4007	71.55637	14.27588	54.145	391.9253	43.30635	78.03587	1.003	14.31458	1.438	1	3	1	0.15	5034	124.3999	119.2338	58.19033	4.07613	199.9585	166.9455	0.9826851	12.8476	363.8029
8/12/2014 10:49:40 AM	10:49:40	397	A	7	59	84.28571	43086.86	59	84.28571	29500	1101.08	74.3558	71.55637	14.27588	54.145	392.1054	44.05517	78.21216	1.011	14.31407	1.464001	1	3	1	0.15	5038	126.3999	121.4391	58.29586	4.083523	200.0586	167.1323	0.9913011	12.96024	366.9926
8/12/2014 10:49:50 AM	10:49:50	407	A	7	59	84.28571	43086.86	59	84.28571	29500	1103.953	74.4007	71.55637	14.27588	54.145	391.7903	43.60789	78.16809	1.056999	14.31599	1.462	1	3	1	0.15	5030	127	121.4375	58.64264	4.107814	200.0336	167.9026	0.9887221	12.92653	366.0379
8/12/2014 10:50:00 AM	10:50:00	417	A	7	60	85.71429	43817.14	59	84.28571	29500	1104.037	74.08635	71.55637	14.27588	54.145	391.6101	43.45208	78.25623	0.9939995	14.31162	1.451	1	3	1	0.15	5028	125.2002	119.6662	58.20037	4.076834	199.7834	166.8188	0.9868045	12.90146	365.3279
8/12/2014 10:50:10 AM	10:50:10	427	A	7	59	85.71429	43817.14	59	84.28571	29500	1103.235	74.44562	71.55637	14.27588	54.145	391.4751	44.07025	78.25623	0.9979992	14.31375	1.464001	1	3	1	0.15	5076	126.2002	121.5816	58.2456	4.080002	199.7084	167.0998	0.9912706	12.95985	366.9814
8/12/2014 10:50:20 AM	10:50:20	437	A	7	59	84.28571	43086.86	59	82.85715	29000	1102.39	74.49052	71.55637	14.27588	54.145	391.5201	43.85918	78.16809	0.9899998	14.31361	1.476	1	3	1	0.15	5035	127.3999	121.942	58.59238	4.104293	199.7334	167.8707	0.9980507	13.04849	369.4914
8/12/2014 10:50:30 AM	10:50:30	447	A	7	59	84.28571	43086.86	59	84.28571	29500	1102.685	74.44562	71.55637	14.27588	54.145	391.385	44.216	78.16809	1.038	14.31436	1.471001	1	3	1	0.15	5011	128.3999	122.6964	58.57228	4.102886	199.6584	167.7912	0.9947397	13.0052	368.2657
8/12/2014 10:50:40 AM	10:50:40	457	A	7	60	85.71429	43817.14	59	84.28571	29500	1102.305	74.13126	71.55637	14.27588	54.145	391.7452	43.81896	78.12402	1.024	14.31071	1.486	1	3	1	0.15	5032	124	118.8033	58.31094	4.084579	199.8585	166.9791	0.9963091	13.02572	368.8466
8/12/2014 10:50:50 AM	10:50:50	467	A	7	59	85.71429	43817.14	59	84.28571	29500	1102.854	74.13126	71.55637	14.27588	54.145	391.8803	43.73354	78.25623	1	14.30999	1.472	1	3	1	0.15	5074	125.7998	121.1473	58.33105	4.085988	199.9335	167.0217	0.9911152	12.95781	366.9238
8/12/2014 10:51:00 AM	10:51:00	477	A	7	59	84.28571	43086.86	59	84.28571	29500	1099.939	74.22108	71.55637	14.27588	54.145	391.9253	43.95968	78.3003	1.049999	14.31375	1.472	1	3	1	0.15	5036	127.6001	122.3497	57.96416	4.060288	199.9585	166.3171	0.9939156	12.99443	367.9606
8/12/2014 10:51:10 AM	10:51:10	487	A	7	60	85.71429	43817.14	58	82.85715	29000	1104.375	74.49052	71.55637	14.27588	54.145	392.7357	44.03506	78.16809	1.024	14.31332	1.478001	1	3	1	0.15	4970	126	119.6105	58.00438	4.063105	200.4088	166.6244	0.9960395	13.02219	368.7469
8/12/2014 10:51:20 AM	10:51:20	497	A	7	59	84.28571	43086.86	59	84.28571	29500	1102.474	74.75997	71.55637	14.27588	54.145	392.7808	43.71844	78.34438	1.044001	14.3127	1.489	1	3	1	0.15	5059	124.3999	119.6336	58.02449	4.064514	200.4338	166.8891	0.9995346	13.06789	370.0408
8/12/2014 10:51:30 AM	10:51:30	507	A	7	60	85.71429	43817.14	59	84.28571	29500	1102.094	74.49052	71.55637	14.27588	54.145	392.6457	43.81896	78.34438	1	14.31393	1.461	1	3	1	0.15	5048	127.3999	122.4488	58.27577	4.082116	200.3587	167.2008	0.9901719	12.94548	366.5746
8/12/2014 10:51:40 AM	10:51:40	517	A	7	60	85.71429	43817.14	58	84.28571	29500	1102.094	74.75997	71.55637	14.27588	54.145	393.186	44.24615	78.34438	1.021999	14.31505	1.474001	1	3	1	0.15	5023	126.6001	121.0775	58.17525	4.075074	200.6589	167.2095	0.9945754	13.00305	368.2048
8/12/2014 10:51:50 AM	10:51:50	527	A	7	60	85.71429	43817.14	58	82.85715	29000	1105.051	74.84979	71.55637	14.27588	54.145	393.0059	43.85918	78.3003	1.011999	14.31324	1.462999	1	3	1	0.15	4993	123.2002	117.312	58.38131	4.089508	200.5588	167.7207	0.9908617	12.9545	366.83
8/12/2014 10:52:00 AM	10:52:00	537	A	7	59	84.28571	43086.86	60	85.71429	30000	1102.474	74.49052	71.55637	14.27588	54.145	393.186	43.99487	78.34438	1.063	14.31361	1.445	1	3	1	0.15	5065	125	120.5468	58.08479	4.068738	200.6589	166.7954	0.9847474	12.87456	364.5663
8/12/2014 10:52:10 AM	10:52:10	547	A	7	59	84.28571	43086.86	59	84.28571	29500	1104.249	74.80489	71.55637	14.27588	54.145	393.321	43.78378	78.34438	1.025999	14.31151	1.459	1	3	1	0.15	5025	125.7998	120.36	58.15514	4.073666	200.7339	167.2039	0.9897548	12.94003	366.4202
8/12/2014 10:52:20 AM	10:52:20	557	A	7	60	85.71429	43817.14	58	82.85715	29000	1104.798	75.34378	71.55637	14.27588	54.145	393.6812	43.48727	78.43251	1.016001	14.31097	1.443001	1	3	1	0.15	4971	130	122.8525	57.2656	4.011355	200.934	165.7456	0.9838991	12.86347	364.2523
8/12/2014 10:52:30 AM	10:52:30	567	A	7	60	85.71429	43817.14	58	82.85715	29000	1106.403	75.43359	71.55637	14.27588	54.145	394.0864	43.42193	78.43251	0.9720001	14.31364	1.451	1	3	1	0.15	5035	123.3999	118.2988	57.60735	4.035294	201.1591	166.5527	0.9880466	12.9177	365.7878
8/12/2014 10:52:40 AM	10:52:40	577	A	7	59	84.28571	43086.86	59	84.28571	29500	1106.023	75.34378	71.55637	14.27588	54.145	393.9063	43.28624	78.38844	0.9890003	14.31133	1.452999	1	3	1	0.15	5040	127.2002	122.2548	57.64253	4.037758	201.0591	166.5542	0.9876724	12.9128	365.6493
8/12/2014 10:52:50 AM	10:52:50	587	A	7	59	84.28571	43086.86	59	84.28571	29500	1105.178	75.56792	71.55637	14.27588	54.145	394.1315	43.84409	78.47659	0.9799995	14.31324	1.475	1	3	1	0.15	5012	126.7998	120.8123	58.07473	4.068033	201.1842	167.6613	0.9940794	12.99657	368.0212
8/12/2014 10:53:00 AM	10:53:00	597	A	7	59	84.28571	43086.86	58	82.85715	29000	1103.15	75.34378	71.55637	14.27588	54.145	393.9514	44.40194	78.43251	1.021	14.31498	1.478001	1	3	1	0.15	4954	130.6001	123.5644	57.98427	4.061697	201.0841	167.2841	0.9958347	13.01952	368.6711
8/12/2014 10:53:10 AM	10:53:10	607	A	7	60	84.28571	43086.86	60	85.71429	30000	1103.277	75.43359	71.55637	14.27588	54.145	393.7263	43.35661	78.47659	1.111	14.31523	1.483	1	3	1	0.15	5057	125.3999	120.3564	57.92397	4.057472	200.959	167.2295	0.9974998	13.04129	369.2875
8/12/2014 10:53:20 AM	10:53:20	617	A	7	59	84.28571	43086.86	59	82.85715	29000	1103.53	74.93961	71.55637	14.27588	54.145	393.276	43.69332	78.56473	1.004	14.3127	1.473	1	3	1	0.15	5041	125.7998	120.7432	58.07976	4.068386	200.7089	167.1546	0.9939664	12.99509	367.9794
8/12/2014 10:53:30 AM	10:53:30	627	A	7	59	84.28571	43086.86	59	84.28571	29500	1101.122	74.8947	71.55637	14.27588	54.145	393.0509	43.97476	78.6088	0.9890003	14.3153	1.483	1	3	1	0.15	5011	129.6001	123.4595	58.10489	4.070145	200.5838	167.171	0.9973648	13.03952	369.2375
8/12/2014 10:53:40 AM	10:53:40	637	A	7	59	84.28571	43086.86	59	84.28571	29500	1102.136	74.53543	71.55637	14.27588	54.145	392.7357	43.90942	78.56473	1.016001	14.31252	1.468	1	3	1	0.15	5066	124.6001	119.9918	58.09484	4.069441	200.4088	166.8537	0.9932835	12.98616	367.7265
8/12/2014 10:53:50 AM	10:53:50	647	A	7	60	85.71429	43817.14	60	85.71429	30000	1099.854	74.17616	71.55637	14.27588	54.145	392.8258	44.01999	78.52065	1.056999	14.31205	1.482	1	3	1	0.15	5078	126.2002	122.2097	58.03453	4.065217	200.4588	166.4297	0.9969959	13.0347	369.101
8/12/2014 10:54:00 AM	10:54:00	657	A	7	60	85.71429	43817.14	58	84.28571	29500	1103.15	74.13126	71.55637	14.27588	54.145	392.7357	43.85918	78.43251	1.063999	14.31144	1.48	1	3	1	0.15	5032	127	121.2944	57.94909	4.059232	200.4088	166.2111	0.9950424	13.00916	368.3777
8/12/2014 10:54:10 AM	10:54:10	667	A	7	59	85.71429	43817.14	58	82.85715	29000	1101.502	74.44562	71.55637	14.27588	54.145	392.9609	43.56265	78.25623	0.9869995	14.31386	1.479	1	3	1	0.15	4981	130.7998	124.048	58.23053	4.078946	200.5338	167.0678	0.9942929	12.99936	368.1003
8/12/2014 10:54:20 AM	10:54:20	677	A	7	59	84.28571	43086.86	59	84.28571	29500	1101.164	74.49052	71.55637	14.27588	54.145	393.186	44.17578	78.34438	1.054001	14.31321	1.462999	1	3	1	0.15	5052	123.3999	119.0829	57.70284	4.041982	200.6589	165.9818	0.9891223	12.93176	366.186
8/12/2014 10:54:30 AM	10:54:30	0	A	8	59	84.28571	43086.86	59	84.28571	29500	1102.178	74.67016	71.55637	14.27588	54.145	393.321	43.53753	78.47659	1.068001	14.31317	1.445	1	3	1	0.15	5033	127.7998	122.085	57.99432	4.0624	200.7339	166.7509	0.9846001	12.87264	364.5118
8/12/2014 10:54:40 AM	10:54:40	10	A	8	60	85.71429	43817.14	59	84.28571	29500	1102.812	74.44562	71.55637	14.27588	54.145	393.0509	43.73855	78.34438	1.034	14.31144	1.443001	1	3	1	0.15	4984	130.3999	123.7432	57.90386	4.056064	200.5838	166.3735	0.9839808	12.86454	364.2826
8/12/2014 10:54:50 AM	10:54:50	20	A	8	60	85.71429	43817.14	59	84.28571	29500	1099.897	74.44562	71.55637	14.27588	54.145	393.276	43.43199	78.3003	1.011	14.31364	1.472	1	3	1	0.15	5049	124.3999	119.9735	57.9692	4.06064	200.7089	166.5126	0.9939038	12.99427	367.9562
8/12/2014 10:55:00 AM	10:55:00	30	A	8	59	84.28571	43086.86	59	84.28571	29500	1100.15	74.26598	71.55637	14.27588	54.145	393.231	43.82901	78.52065	1.044001	14.31111	1.476999	1	3	1	0.15	5054	126	121.0546	57.78325	4.047615	200.6839	165.9687	0.992946	12.98175	367.6016
8/12/2014 10:55:10 AM	10:55:10	40	A	8	59	84.28571	43086.86	59	82.85715	29000	1103.361	73.95162	71.55637	14.27588	54.145	393.3661	43.80892	78.38844	1.041	14.31404	1.465	1	3	1	0.15	5018	127	121.1478	57.76314	4.046207	200.7589	165.6673	0.9914706	12.96246	367.0554
8/12/2014 10:55:20 AM	10:55:20	50	A	8	60	84.28571	43086.86	58	82.85715	29000	1108.981	75.02943	71.55637	14.27588	54.145	394.2215	43.31639	78.3003	0.9610004	14.31032	1.419001	1	3	1	0.15	4970	124.6001	117.7179	57.79329	4.048319	201.2342	166.6181	0.9758111	12.75773	361.258
8/12/2014 10:55:30 AM	10:55:30	60	A	8	59	84.28571	43086.86	59	84.28571	29500	1102.39	75.16415	71.55637	14.27588	54.145	394.8969	43.71844	78.43251	1.035	14.31415	1.452999	1	3	1	0.15	5043	125.3999	120.2154	58.15013	4.073314	201.6094	167.4892	0.9856895	12.88688	364.9151
8/12/2014 10:55:40 AM	10:55:40	70	A	8	60	85.71429	43817.14	58	82.85715	29000	1100.995	74.67016	71.55637	14.27588	54.145	394.6267	43.70337	78.3003	1.101999	14.31303	1.445	1	3	1	0.15	5020	126.6001	120.623	57.79832	4.048671	201.4593	166.3333	0.9857829	12.8881	364.9497
8/12/2014 10:55:50 AM	10:55:50	80	A	8	60	85.71429	43817.14	58	82.85715	29000	1100.784	74.71507	71.55637	14.27588	54.145	393.9514	43.53249	78.43251	1.017	14.3093	1.452	1	3	1	0.15	4999	128.6001	122.2121	57.83852	4.051487	201.0841	166.4559	0.9851841	12.88027	364.7281
8/12/2014 10:56:00 AM	10:56:00	90	A	8	59	84.28571	43086.86	59	84.28571	29500	1099.643	74.44562	71.55637	14.27588	54.145	393.9063	44.11046	78.38844	0.9950008	14.31151	1.469	1	3	1	0.15	5028	124.2002	118.9005	57.71288	4.042686	201.0591	165.9663	0.9927308	12.97894	367.5219
8/12/2014 10:56:10 AM	10:56:10	100	A	8	59	84.28571	43086.86	59	84.28571	29500	1104.375	74.49052	71.55637	14.27588	54.145	394.1765	43.54757	78.38844	1.017	14.31505	1.452999	1	3	1	0.15	5046	126.2002	121.4396	58.2456	4.080002	201.2092	167.1368	0.9874527	12.90993	365.5679
8/12/2014 10:56:20 AM	10:56:20	110	A	8	59	84.28571	43086.86	59	84.28571	29500	1102.347	74.62525	71.55637	14.27588	54.145	394.1315	43.58778	78.34438	1.032	14.31317	1.455	1	3	1	0.15	5010	128	121.9085	58.01442	4.063808	201.1842	166.7567	0.9881198	12.91865	365.8149
8/12/2014 10:56:30 AM	10:56:30	120	A	8	59	84.28571	43086.86	58	82.85715	29000	1104.291	74.80489	71.55637	14.27588	54.145	394.3566	43.97979	78.43251	1.007999	14.31274	1.451	1	3	1	0.15	4956	124.3999	117.7637	57.82848	4.050783	201.3092	166.5084	0.986672	12.89972	365.2789
8/12/2014 10:56:40 AM	10:56:40	130	A	8	59	84.28571	43086.86	59	84.28571	29500	1102.136	74.93961	71.55637	14.27588	54.145	394.0864	43.98482	78.43251	1.006001	14.31165	1.469999	1	3	1	0.15	5056	125	120.3326	58.10991	4.070498	201.1591	167.2187	0.9930393	12.98297	367.6361
8/12/2014 10:56:50 AM	10:56:50	140	A	8	59	84.28571	43086.86	59	84.28571	29500	1102.897	74.8947	71.55637	14.27588	54.145	394.2215	43.44204	78.43251	0.9619999	14.31115	1.464001	1	3	1	0.15	5019	126	120.7898	58.44664	4.094085	201.2342	167.8961	0.9910115	12.95646	366.8854
8/12/2014 10:57:00 AM	10:57:00	150	A	8	60	85.71429	43817.14	58	82.85715	29000	1104.46	75.02943	71.55637	14.27588	54.145	394.4916	43.86922	78.3003	1.017	14.31216	1.437	1	3	1	0.15	4991	127.2002	121.2564	57.89381	4.05536	201.3842	166.8325	0.9820265	12.83899	363.5591
8/12/2014 10:57:10 AM	10:57:10	160	A	8	60	85.71429	43817.14	58	82.85715	29000	1102.939	74.98452	71.55637	14.27588	54.145	394.2665	42.81382	78.47659	1.047001	14.31198	1.444	1	3	1	0.15	4992	122.7998	116.7182	57.60231	4.034941	201.2592	166.1729	0.9814988	12.83209	363.3637
8/12/2014 10:57:20 AM	10:57:20	170	A	8	59	84.28571	43086.86	59	84.28571	29500	1103.108	75.11924	71.55637	14.27588	54.145	394.9869	43.42193	78.52065	1.055	14.31393	1.451	1	3	1	0.15	5031	126.3999	121.0786	57.91392	4.056768	201.6594	166.9493	0.9889877	12.93	366.1362
8/12/2014 10:57:30 AM	10:57:30	180	A	8	59	84.28571	43086.86	59	84.28571	29500	1099.812	74.98452	71.55637	14.27588	54.145	394.5367	43.6682	78.34438	1.034	14.31093	1.450001	1	3	1	0.15	5006	126.6001	120.8581	58.28582	4.082819	201.4093	167.6293	0.9863501	12.89551	365.1597
8/12/2014 10:57:40 AM	10:57:40	190	A	8	59	84.28571	43086.86	58	82.85715	29000	1100.869	74.58034	71.55637	14.27588	54.145	394.1765	43.78881	78.38844	0.9440002	14.31111	1.457001	1	3	1	0.15	4963	123.6001	117.1742	57.86366	4.053248	201.2092	166.3987	0.986991	12.90389	365.397
8/12/2014 10:57:50 AM	10:57:50	200	A	8	60	85.71429	43817.14	59	84.28571	29500	1102.39	74.44562	71.55637	14.27588	54.145	394.2665	43.69835	78.47659	1.049	14.31382	1.448999	1	3	1	0.15	5040	124.2002	119.3759	58.21043	4.077539	201.2592	167.0252	0.9859882	12.89078	365.0258
8/12/2014 10:58:00 AM	10:58:00	210	A	8	59	84.28571	43086.86	59	84.28571	29500	1098.629	74.3558	71.55637	14.27588	54.145	393.186	43.68327	78.47659	1.077	14.30873	1.445	1	3	1	0.15	5018	126	120.1924	58.40141	4.090917	200.6589	167.3559	0.9861608	12.89304	365.0896
8/12/2014 10:58:10 AM	10:58:10	220	A	8	60	85.71429	43817.14	58	84.28571	29500	1103.066	74.22108	71.55637	14.27588	54.145	392.4656	43.23096	78.56473	0.9740009	14.31277	1.424	1	3	1	0.15	4977	127	120.1579	57.60231	4.034941	200.2587	165.5456	0.9773551	12.77791	361.8296
8/12/2014 10:58:20 AM	10:58:20	230	A	8	60	84.28571	43086.86	58	82.85715	29000	1105.009	74.84979	71.55637	14.27588	54.145	392.6907	43.437	78.52065	1.025999	14.31191	1.450001	1	3	1	0.15	4951	123	116.3252	57.4817	4.026493	200.3837	165.804	0.9862326	12.89398	365.1162
8/12/2014 10:58:30 AM	10:58:30	240	A	8	59	84.28571	43086.86	59	84.28571	29500	1102.939	75.29887	71.55637	14.27588	54.145	392.4206	43.41692	78.52065	1.065001	14.31418	1.429001	1	3	1	0.15	5018	124	118.4728	57.49678	4.027549	200.2337	166.2051	0.9791462	12.80133	362.4927
8/12/2014 10:58:40 AM	10:58:40	250	A	8	60	84.28571	43086.86	59	84.28571	29500	1102.981	75.38869	71.55637	14.27588	54.145	392.2405	43.49733	78.47659	1.018	14.3118	1.441999	1	3	1	0.15	4987	126.6001	120.0196	57.53699	4.030365	200.1336	166.3651	0.9835547	12.85897	364.1248
8/12/2014 10:58:50 AM	10:58:50	260	A	8	60	85.71429	43817.14	58	82.85715	29000	1103.615	75.25397	71.55637	14.27588	54.145	392.5107	43.43199	78.47659	0.9820004	14.31299	1.452	1	3	1	0.15	4955	123.2002	116.0419	57.8536	4.052543	200.2837	166.9314	0.9869865	12.90384	365.3953
8/12/2014 10:59:00 AM	10:59:00	270	A	8	60	84.28571	43086.86	59	84.28571	29500	1105.305	75.29887	71.55637	14.27588	54.145	392.8258	43.44707	78.65286	1.013	14.31003	1.440001	1	3	1	0.15	5023	124.6001	119.1647	57.49175	4.027196	200.4588	166.1943	0.9812689	12.82908	363.2786
8/12/2014 10:59:10 AM	10:59:10	280	A	8	60	85.71429	43817.14	58	82.85715	29000	1102.136	74.93961	71.55637	14.27588	54.145	392.5557	43.33147	78.52065	1.082001	14.31281	1.447001	1	3	1	0.15	4992	125.7998	119.9501	58.05965	4.066977	200.3087	167.1118	0.9852362	12.88095	364.7473
8/12/2014 10:59:20 AM	10:59:20	290	A	8	59	85.71429	43817.14	58	82.85715	29000	1099.39	74.67016	71.55637	14.27588	54.145	391.6552	43.58276	78.56473	1.013	14.31259	1.455	1	3	1	0.15	4984	126.7998	120.5169	57.92397	4.057472	199.8084	166.6011	0.9878893	12.91564	365.7296
8/12/2014 10:59:30 AM	10:59:30	300	A	8	60	85.71429	43817.14	58	84.28571	29500	1100.911	74.44562	71.55637	14.27588	54.145	390.4395	43.53249	78.52065	1.091	14.31281	1.454	1	3	1	0.15	4993	125.2002	119.4037	58.11996	4.071201	199.2582	166.8331	0.9875992	12.91185	365.6222
8/12/2014 10:59:40 AM	10:59:40	310	A	8	59	84.28571	43086.86	59	84.28571	29500	1102.178	74.71507	71.55637	14.27588	54.145	390.7997	43.5526	78.38844	1.066	14.3153	1.465	1	3	1	0.15	5027	126	120.5995	57.77822	4.047263	199.3332	166.3273	0.9915352	12.96331	367.0793
8/12/2014 10:59:50 AM	10:59:50	320	A	8	60	85.71429	43817.14	59	84.28571	29500	1101.671	74.75997	71.55637	14.27588	54.145	391.295	43.53249	78.6088	1.024	14.31285	1.465	1	3	1	0.15	5007	126.6001	120.6918	57.99935	4.062753	199.6084	166.8356	0.99125	12.95958	366.9737
8/12/2014 11:00:00 AM	11:00:00	330	A	8	59	85.71429	43817.14	57	81.42857	28500	1102.559	75.02943	71.55637	14.27588	54.145	391.7002	44.06522	78.6088	1.066	14.31299	1.450001	1	3	1	0.15	4938	131.7998	123.7296	58.01442	4.063808	199.8335	167.0895	0.9861766	12.89325	365.0955
8/12/2014 11:00:10 AM	11:00:10	340	A	8	59	84.28571	43086.86	59	82.85715	29000	1103.319	75.07433	71.55637	14.27588	54.145	391.8353	43.73354	78.6088	1.066	14.31368	1.448999	1	3	1	0.15	5021	123	117.5876	57.929	4.057825	199.9085	166.9444	0.9858588	12.88909	364.9778
8/12/2014 11:00:20 AM	11:00:20	350	A	8	59	84.28571	43086.86	59	84.28571	29500	1103.826	75.34378	71.55637	14.27588	54.145	391.8803	43.53249	78.65286	1.028	14.31422	1.462999	1	3	1	0.15	5006	126.3999	120.0957	57.63248	4.037055	199.9335	166.5327	0.989889	12.94178	366.4699
8/12/2014 11:00:30 AM	11:00:30	360	A	8	59	84.28571	43086.86	58	82.85715	29000	1102.77	75.25397	71.55637	14.27588	54.145	391.9253	43.88933	78.82915	1.118999	14.31444	1.459999	1	3	1	0.15	4986	126.6001	120.1856	57.93904	4.058528	199.9585	167.1137	0.9894125	12.93555	366.2935
8/12/2014 11:00:40 AM	11:00:40	370	A	8	59	84.28571	43086.86	58	82.85715	29000	1103.277	75.29887	71.55637	14.27588	54.145	392.0154	43.60789	78.65286	0.993	14.30967	1.461	1	3	1	0.15	4928	126.3999	118.5997	57.67268	4.03987	200.0086	166.5818	0.989738	12.93981	366.414
8/12/2014 11:00:50 AM	11:00:50	380	A	8	59	85.71429	43817.14	59	84.28571	29500	1102.009	75.11924	71.55637	14.27588	54.145	391.7452	43.29127	78.82915	1.038	14.31357	1.462999	1	3	1	0.15	5034	123.6001	118.2753	57.80336	4.049024	199.8585	166.7134	0.9934043	12.98774	367.7713
8/12/2014 11:01:00 AM	11:01:00	390	A	8	59	85.71429	43817.14	58	82.85715	29000	1101.249	75.20906	71.55637	14.27588	54.145	391.7452	43.56265	78.65286	1.038	14.31245	1.452	1	3	1	0.15	5003	126	120.0238	57.58724	4.033885	199.8585	166.3251	0.9867885	12.90125	365.322
8/12/2014 11:01:10 AM	11:01:10	400	A	8	59	85.71429	43817.14	57	81.42857	28500	1118.741	76.0527	71.55637	14.27588	54.145	392.7357	42.77363	78.82915	1.055	14.30981	1.410999	1	3	1	0.15	4913	128.7998	120.4837	56.80826	3.979319	200.4088	165.3396	0.9725544	12.71515	360.0524
8/12/2014 11:01:20 AM	11:01:20	410	A	8	60	85.71429	43817.14	58	82.85715	29000	1109.488	76.36119	71.55637	14.27588	54.145	393.9063	43.34655	78.78507	0.9750004	14.31469	1.445	1	3	1	0.15	4980	122.7998	116.6274	57.93904	4.058528	201.0591	168.025	0.9843734	12.86967	364.4279
8/12/2014 11:01:30 AM	11:01:30	420	A	8	59	84.28571	43086.86	58	82.85715	29000	1104.291	76.00863	71.55637	14.27588	54.145	393.6362	43.13548	78.78507	0.9890003	14.31234	1.440001	1	3	1	0.15	5000	126.3999	120.5231	58.25566	4.080707	200.9841	168.4095	0.9839665	12.86435	364.2773
8/12/2014 11:01:40 AM	11:01:40	430	A	8	59	85.71429	43817.14	58	84.28571	29500	1102.897	75.96455	71.55637	14.27588	54.145	393.7713	43.5526	78.91729	1.017	14.31086	1.434999	1	3	1	0.15	4980	126.6001	120.041	57.97924	4.061344	200.9841	167.7844	0.9820766	12.83964	363.5776
8/12/2014 11:01:50 AM	11:01:50	440	A	8	59	85.71429	43817.14	58	82.85715	29000	1101.122	75.34378	71.55637	14.27588	54.145	393.5462	43.49733	78.82915	1.087	14.31332	1.445999	1	3	1	0.15	4959	129	121.8008	57.70787	4.042335	200.859	166.694	0.9846405	12.87316	364.5268
8/12/2014 11:02:00 AM	11:02:00	450	A	8	60	85.71429	43817.14	59	84.28571	29500	1100.446	74.84979	71.55637	14.27588	54.145	393.5462	43.39681	78.82915	0.9440002	14.31476	1.443001	1	3	1	0.15	5029	123.6001	118.5408	57.89381	4.05536	200.859	166.6847	0.98365	12.86021	364.1601
8/12/2014 11:02:10 AM	11:02:10	460	A	8	60	85.71429	43817.14	59	84.28571	29500	1100.15	74.80489	71.55637	14.27588	54.145	393.4561	43.3767	78.65286	1.045	14.31332	1.445999	1	3	1	0.15	5016	125.7998	119.9537	58.07473	4.068033	200.809	167.0329	0.9847954	12.87519	364.5841
8/12/2014 11:02:20 AM	11:02:20	470	A	8	59	84.28571	43086.86	59	82.85715	29000	1101.84	74.53543	71.55637	14.27588	54.145	393.0059	43.40685	78.56473	0.9510002	14.31541	1.454	1	3	1	0.15	4985	127	120.3511	57.96416	4.060288	200.5588	166.5758	0.986989	12.90387	365.3962
8/12/2014 11:02:30 AM	11:02:30	480	A	8	59	84.28571	43086.86	58	82.85715	29000	1103.15	74.84979	71.55637	14.27588	54.145	392.9609	43.26614	78.78507	0.9820004	14.31136	1.437	1	3	1	0.15	4975	123.2002	116.5103	57.85863	4.052896	200.5338	166.6097	0.9815497	12.83275	363.3825
8/12/2014 11:02:40 AM	11:02:40	490	A	8	60	85.71429	43817.14	58	84.28571	29500	1102.516	74.98452	71.55637	14.27588	54.145	393.0959	43.5526	78.78507	1.044001	14.31371	1.437	1	3	1	0.15	5022	124.3999	118.9496	57.78325	4.047615	200.6089	166.3381	0.9816269	12.83377	363.4111
8/12/2014 11:02:50 AM	11:02:50	500	A	8	59	84.28571	43086.86	59	84.28571	29500	1105.347	75.07433	71.55637	14.27588	54.145	392.8708	42.87413	78.82915	1.028	14.3123	1.416	1	3	1	0.15	4979	125.7998	119.0689	57.43144	4.022972	200.4838	165.8806	0.9743636	12.7388	360.7221
8/12/2014 11:03:00 AM	11:03:00	510	A	8	59	84.28571	43086.86	57	81.42857	28500	1107.502	75.20906	71.55637	14.27588	54.145	393.3661	43.02993	78.78507	0.9920006	14.31209	1.431	1	3	1	0.15	4927	130	121.7651	57.55709	4.031773	200.7589	166.2606	0.9795331	12.80639	362.636
8/12/2014 11:03:10 AM	11:03:10	520	A	8	59	84.28571	43086.86	58	82.85715	29000	1105.474	75.56792	71.55637	14.27588	54.145	393.8163	43.10532	78.82915	0.993	14.31263	1.427	1	3	1	0.15	4986	122.6001	116.0087	57.42643	4.022621	201.0091	166.2751	0.9781513	12.78832	362.1244
8/12/2014 11:03:20 AM	11:03:20	530	A	8	60	85.71429	43817.14	58	82.85715	29000	1109.953	75.83234	71.55637	14.27588	54.145	393.8613	42.71834	78.87322	0.9519997	14.31201	1.422001	1	3	1	0.15	4983	124.7998	118.4053	57.06458	3.997274	201.0341	165.7132	0.9729419	12.72022	360.1958
8/12/2014 11:03:30 AM	11:03:30	540	A	8	59	85.71429	43817.14	57	81.42857	28500	1109.783	76.97818	71.55637	14.27588	54.145	394.8518	42.32633	78.91729	1.009001	14.31256	1.402	1	3	1	0.15	4934	126.3999	118.3684	56.96406	3.990232	201.5844	166.4347	0.9694924	12.67512	358.9188
8/12/2014 11:03:40 AM	11:03:40	550	A	8	60	84.28571	43086.86	58	82.85715	29000	1108.389	76.97818	71.55637	14.27588	54.145	395.167	42.90931	78.82915	1.054001	14.31165	1.42	1	3	1	0.15	4935	123.3999	115.9493	57.62745	4.036702	201.7594	167.8651	0.9757206	12.75655	361.2245
8/12/2014 11:03:50 AM	11:03:50	560	A	8	59	84.28571	43086.86	59	84.28571	29500	1107.375	77.15446	71.55637	14.27588	54.145	394.9869	43.10029	78.91729	1.046	14.31021	1.412001	1	3	1	0.15	4997	123.2002	117.406	57.07462	3.997977	201.6594	166.8184	0.9728417	12.71891	360.1587
8/12/2014 11:04:00 AM	11:04:00	570	A	8	60	85.71429	43817.14	58	82.85715	29000	1106.023	76.71376	71.55637	14.27588	54.145	394.8969	43.18572	78.96136	0.9610004	14.31538	1.445	1	3	1	0.15	4987	124.3999	118.1206	57.67771	4.040223	201.6094	167.7556	0.984238	12.8679	364.3778
8/12/2014 11:04:10 AM	11:04:10	580	A	8	59	84.28571	43086.86	58	82.85715	29000	1101.883	76.27305	71.55637	14.27588	54.145	394.3116	43.16563	79.09357	0.9750004	14.31263	1.417	1	3	1	0.15	4959	126.3999	119.3458	57.37114	4.018748	201.2842	166.7351	0.9772203	12.77615	361.7797
8/12/2014 11:04:20 AM	11:04:20	590	A	8	59	84.28571	43086.86	58	81.42857	28500	1103.784	76.36119	71.55637	14.27588	54.145	393.9964	42.88921	79.13764	0.9510002	14.31346	1.43	1	3	1	0.15	4953	124	116.9381	57.50684	4.028253	201.1091	167.0991	0.9789249	12.79844	362.4108
8/12/2014 11:04:30 AM	11:04:30	600	A	8	59	84.28571	43086.86	58	82.85715	29000	1103.995	76.22898	71.55637	14.27588	54.145	393.9063	42.73844	79.18172	1.049999	14.31201	1.424999	1	3	1	0.15	4983	124.2002	118.0258	57.40129	4.02086	201.0591	166.7638	0.9754137	12.75253	361.1109
8/12/2014 11:04:40 AM	11:04:40	610	A	8	59	84.28571	43086.86	58	82.85715	29000	1107.417	76.89004	71.55637	14.27588	54.145	394.6267	42.84901	79.22578	0.9920006	14.31371	1.406	1	3	1	0.15	4936	124.3999	116.9126	57.16508	4.004313	201.4593	166.7971	0.9706387	12.6901	359.3431
8/12/2014 11:04:50 AM	11:04:50	620	A	8	59	84.28571	43086.86	57	81.42857	28500	1110.206	78.25623	71.55637	14.27588	54.145	395.3021	43.02993	79.22578	1.07	14.3127	1.414	1	3	1	0.15	4870	128.7998	119.4292	57.15001	4.003258	201.8345	167.8847	0.9733375	12.72539	360.3423
8/12/2014 11:05:00 AM	11:05:00	630	A	8	59	85.71429	43817.14	58	82.85715	29000	1103.235	76.97818	71.55637	14.27588	54.145	394.7618	42.61783	79.09357	1.007	14.31256	1.415001	1	3	1	0.15	4979	121.6001	115.4662	56.78815	3.977911	201.5343	166.0534	0.9738092	12.73156	360.5169
8/12/2014 11:05:10 AM	11:05:10	640	A	8	59	84.28571	43086.86	58	82.85715	29000	1098.291	76.14084	71.55637	14.27588	54.145	394.4016	42.74347	79.13764	1.034	14.31201	1.419001	1	3	1	0.15	4973	124.7998	118.1676	57.4817	4.026493	201.3342	166.8642	0.9778365	12.78421	362.0079
8/12/2014 11:05:20 AM	11:05:20	650	A	8	59	84.28571	43086.86	58	82.85715	29000	1098.08	75.43359	71.55637	14.27588	54.145	394.1315	43.03999	79.13764	1.108	14.31111	1.417999	1	3	1	0.15	4950	125.3999	117.9985	57.74303	4.044798	201.1842	166.8431	0.9747436	12.74377	360.8629
8/12/2014 11:05:30 AM	11:05:30	660	A	8	59	84.28571	43086.86	58	81.42857	28500	1098.629	75.34378	71.55637	14.27588	54.145	393.8163	43.15557	79.35799	1.009001	14.31136	1.417	1	3	1	0.15	4918	123.6001	115.9244	57.35606	4.017691	201.0091	165.94	0.9741999	12.73666	360.6616
8/12/2014 11:05:40 AM	11:05:40	670	A	8	59	85.71429	43817.14	58	82.85715	29000	1097.995	75.29887	71.55637	14.27588	54.145	393.8613	42.93947	79.26985	1.037001	14.31014	1.42	1	3	1	0.15	4981	124.7998	118.1683	57.2656	4.011355	201.0341	165.7087	0.9763054	12.76419	361.441
8/12/2014 11:05:50 AM	11:05:50	680	A	8	59	84.28571	43086.86	58	82.85715	29000	1098.038	74.98452	71.55637	14.27588	54.145	393.7263	42.66808	79.26985	0.941	14.31111	1.424999	1	3	1	0.15	4942	125.3999	118.1841	57.11985	4.001145	200.959	165.1374	0.9753019	12.75107	361.0695
8/12/2014 11:06:00 AM	11:06:00	0	A	8	59	84.28571	43086.86	57	82.85715	29000	1103.15	75.38869	71.55637	14.27588	54.145	393.4111	42.34141	79.09357	0.9950008	14.31097	1.413	1	3	1	0.15	4899	128.3999	120.1403	57.33595	4.016283	200.7839	165.9337	0.9730598	12.72176	360.2395
8/12/2014 11:06:10 AM	11:06:10	9	A	9	59	84.28571	43086.86	58	82.85715	29000	1100.869	75.56792	71.55637	14.27588	54.145	393.5012	43.15557	79.31393	1.004999	14.31129	1.415001	1	3	1	0.15	4950	122	114.9824	57.43647	4.023324	200.834	166.2966	0.974568	12.74148	360.7978
8/12/2014 11:06:20 AM	11:06:20	19	A	9	59	84.28571	43086.86	58	82.85715	29000	1098.629	75.34378	71.55637	14.27588	54.145	393.3661	42.79875	79.0495	1.052	14.31321	1.422001	1	3	1	0.15	4962	126	118.851	57.52693	4.029661	200.7589	166.3066	0.9793246	12.80366	362.5588
8/12/2014 11:06:30 AM	11:06:30	29	A	9	59	84.28571	43086.86	58	82.85715	29000	1098.122	75.38869	71.55637	14.27588	54.145	393.0059	43.23598	79.22578	1.016001	14.31465	1.43	1	3	1	0.15	4946	126.6001	119.4095	57.19022	4.006074	200.5588	165.6202	0.9788731	12.79776	362.3916
8/12/2014 11:06:40 AM	11:06:40	39	A	9	59	85.71429	43817.14	57	81.42857	28500	1099.517	74.75997	71.55637	14.27588	54.145	392.7357	43.3365	79.22578	1.042	14.31147	1.424999	1	3	1	0.15	4900	130.6001	121.6577	57.51689	4.028957	200.4088	165.8056	0.9794413	12.80519	362.602
8/12/2014 11:06:50 AM	11:06:50	49	A	9	59	84.28571	43086.86	58	82.85715	29000	1099.939	74.93961	71.55637	14.27588	54.145	392.7357	42.91936	79.09357	1.014	14.31404	1.438	1	3	1	0.15	4984	123.7998	117.67	57.25053	4.010299	200.4088	165.3816	0.981694	12.83464	363.436
8/12/2014 11:07:00 AM	11:07:00	59	A	9	59	85.71429	43817.14	57	81.42857	28500	1099.812	75.07433	71.55637	14.27588	54.145	392.8258	42.64296	79.18172	0.9699993	14.31328	1.443001	1	3	1	0.15	4961	125.2002	118.0716	57.67771	4.040223	200.4588	166.408	0.9839559	12.86421	364.2733
8/12/2014 11:07:10 AM	11:07:10	69	A	9	59	84.28571	43086.86	58	82.85715	29000	1098.418	75.16415	71.55637	14.27588	54.145	393.321	43.47219	79.13764	0.9769993	14.3123	1.422001	1	3	1	0.15	4943	126.3999	118.9607	57.68273	4.040574	200.7339	166.4926	0.9771547	12.77529	361.7554
8/12/2014 11:07:20 AM	11:07:20	79	A	9	59	84.28571	43086.86	58	82.85715	29000	1097.827	75.11924	71.55637	14.27588	54.145	392.9609	43.3767	79.18172	1.076	14.31422	1.441999	1	3	1	0.15	4964	122.6001	115.6855	57.63248	4.037055	200.5338	166.3482	0.9795786	12.80698	362.6528
8/12/2014 11:07:30 AM	11:07:30	89	A	9	60	85.71429	43817.14	59	82.85715	29000	1097.953	75.07433	71.55637	14.27588	54.145	392.5107	43.10532	79.26985	0.9799995	14.31415	1.410999	1	3	1	0.15	4985	125.3999	119.0224	57.22038	4.008187	200.2837	165.4273	0.9723246	12.71215	359.9673
8/12/2014 11:07:40 AM	11:07:40	99	A	9	59	84.28571	43086.86	58	82.85715	29000	1098.883	75.38869	71.55637	14.27588	54.145	392.4206	43.63805	79.18172	1.084	14.31397	1.438999	1	3	1	0.15	4946	124.2002	117.1495	57.18519	4.005722	200.2337	165.6094	0.9829788	12.85144	363.9116
8/12/2014 11:07:50 AM	11:07:50	109	A	9	59	84.28571	43086.86	57	81.42857	28500	1100.319	75.47851	71.55637	14.27588	54.145	391.7002	43.38676	79.13764	1.104	14.31678	1.452999	1	3	1	0.15	4895	126.3999	118.1782	57.56715	4.032477	199.8335	166.5035	0.9868326	12.90182	365.3383
8/12/2014 11:08:00 AM	11:08:00	119	A	9	59	84.28571	43086.86	58	82.85715	29000	1100.066	75.34378	71.55637	14.27588	54.145	391.6101	43.68829	79.18172	1.033001	14.31454	1.444	1	3	1	0.15	4980	124.2002	117.7654	57.74807	4.045151	199.7834	166.78	0.9853608	12.88258	364.7935
8/12/2014 11:08:10 AM	11:08:10	129	A	9	59	84.28571	43086.86	58	82.85715	29000	1098.587	75.25397	71.55637	14.27588	54.145	391.9253	43.63805	79.22578	1.076	14.31382	1.434	1	3	1	0.15	4972	125	118.5229	57.61238	4.035646	199.9585	166.4158	0.9802166	12.81533	362.889
8/12/2014 11:08:20 AM	11:08:20	139	A	9	60	85.71429	43817.14	57	82.85715	29000	1100.235	75.43359	71.55637	14.27588	54.145	392.1054	43.47722	79.26985	1.09	14.3131	1.465	1	3	1	0.15	4940	127	119.4529	57.99432	4.0624	200.0586	167.3794	0.9892929	12.93399	366.2492
8/12/2014 11:08:30 AM	11:08:30	149	A	9	59	84.28571	43086.86	58	82.85715	29000	1099.348	75.25397	71.55637	14.27588	54.145	392.2405	43.30132	79.26985	1.086	14.31201	1.466	1	3	1	0.15	4937	124.3999	116.9363	58.08479	4.068738	200.1336	167.4242	0.9919357	12.96854	367.2275
8/12/2014 11:08:40 AM	11:08:40	159	A	9	59	84.28571	43086.86	58	82.85715	29000	1100.277	75.38869	71.55637	14.27588	54.145	391.6101	43.32644	79.18172	1.062	14.31133	1.451	1	3	1	0.15	4988	125.2002	118.5241	57.52192	4.029309	199.7834	166.3328	0.9818773	12.83704	363.5038
8/12/2014 11:08:50 AM	11:08:50	169	A	9	59	84.28571	43086.86	58	82.85715	29000	1099.812	75.34378	71.55637	14.27588	54.145	391.295	43.32644	79.26985	1.09	14.31476	1.452999	1	3	1	0.15	4941	126	118.348	57.76817	4.046559	199.6084	166.8229	0.9866577	12.89954	365.2736
8/12/2014 11:09:00 AM	11:09:00	179	A	9	59	84.28571	43086.86	57	81.42857	28500	1097.911	75.52385	71.55637	14.27588	54.145	391.295	43.09526	79.13764	0.9759998	14.31201	1.448999	1	3	1	0.15	4892	128.7998	120.5276	57.56715	4.032477	199.6084	166.5407	0.9853078	12.88189	364.7738
8/12/2014 11:09:10 AM	11:09:10	189	A	9	59	84.28571	43086.86	59	84.28571	29500	1100.193	75.7442	71.55637	14.27588	54.145	391.5201	43.36162	79.22578	1.084999	14.3118	1.457001	1	3	1	0.15	4993	122	115.9812	57.47166	4.025789	199.7334	166.5169	0.9879392	12.91629	365.748
8/12/2014 11:09:20 AM	11:09:20	199	A	9	59	84.28571	43086.86	58	82.85715	29000	1100.319	75.38869	71.55637	14.27588	54.145	391.385	43.62798	79.22578	1.027	14.31744	1.444	1	3	1	0.15	4980	125.6001	118.903	57.64253	4.037758	199.6584	166.5911	0.9837279	12.86123	364.1889
8/12/2014 11:09:30 AM	11:09:30	209	A	9	60	84.28571	43086.86	58	82.85715	29000	1100.826	75.65607	71.55637	14.27588	54.145	391.7002	43.07516	79.26985	1.069	14.31317	1.448	1	3	1	0.15	4945	126.2002	118.6323	57.86868	4.053599	199.8335	167.2944	0.9849066	12.87664	364.6253
8/12/2014 11:09:40 AM	11:09:40	219	A	9	59	84.28571	43086.86	58	82.85715	29000	1098.587	75.47851	71.55637	14.27588	54.145	391.8803	43.71844	79.31393	1.068001	14.31314	1.452999	1	3	1	0.15	4968	123.7998	117.1029	57.92397	4.057472	199.9335	167.2664	0.9882359	12.92017	365.8578
8/12/2014 11:09:50 AM	11:09:50	229	A	9	59	84.28571	43086.86	58	82.85715	29000	1098.714	75.29887	71.55637	14.27588	54.145	391.295	43.13045	79.26985	1.070999	14.3166	1.455	1	3	1	0.15	5000	124.3999	118.4285	57.79832	4.048671	199.6084	166.8504	0.9873751	12.90892	365.5392
8/12/2014 11:10:00 AM	11:10:00	239	A	9	59	84.28571	43086.86	58	82.85715	29000	1101.249	74.93961	71.55637	14.27588	54.145	390.3945	43.18572	79.18172	1.018	14.31198	1.457001	1	3	1	0.15	4966	126.6001	119.3254	57.75813	4.045856	199.1081	166.4691	0.9879922	12.91698	365.7676
8/12/2014 11:10:10 AM	11:10:10	249	A	9	59	84.28571	43086.86	58	82.85715	29000	1098.714	74.8947	71.55637	14.27588	54.145	390.2144	43.92953	79.26985	1.084999	14.31407	1.462	1	3	1	0.15	4927	131	122.7032	58.13505	4.072258	199.008	167.2351	0.9896662	12.93887	366.3874
8/12/2014 11:10:20 AM	11:10:20	259	A	9	59	84.28571	43086.86	58	84.28571	29500	1099.77	74.8947	71.55637	14.27588	54.145	390.0344	43.5124	79.09357	1.07	14.3148	1.454	1	3	1	0.15	4988	124.2002	117.9546	57.55709	4.031773	198.908	166.0023	0.9847893	12.87511	364.5819
8/12/2014 11:10:30 AM	11:10:30	269	A	9	59	84.28571	43086.86	58	82.85715	29000	1099.263	74.58034	71.55637	14.27588	54.145	389.8993	43.27116	79.22578	0.9920006	14.31115	1.448	1	3	1	0.15	4986	125.6001	119.0462	57.51689	4.028957	198.8329	165.658	0.9848673	12.87613	364.6107
8/12/2014 11:10:40 AM	11:10:40	279	A	9	59	85.71429	43817.14	58	82.85715	29000	1096.728	74.71507	71.55637	14.27588	54.145	389.9443	43.89938	79.13764	1.076	14.314	1.458	1	3	1	0.15	4964	125.3999	118.8989	57.56715	4.032477	198.858	165.8763	0.9860588	12.89171	365.0518
8/12/2014 11:10:50 AM	11:10:50	289	A	9	59	84.28571	43086.86	57	81.42857	28500	1099.39	74.62525	71.55637	14.27588	54.145	389.7642	43.80892	79.09357	1.01	14.31538	1.462999	1	3	1	0.15	4945	123.3999	116.3728	57.74807	4.045151	198.7579	166.1891	0.9901946	12.94578	366.583
8/12/2014 11:11:00 AM	11:11:00	299	A	9	59	84.28571	43086.86	59	84.28571	29500	1097.108	74.67016	71.55637	14.27588	54.145	389.1339	43.24604	79.26985	1.063999	14.3157	1.469999	1	3	1	0.15	5009	123.3999	117.4975	58.25063	4.080355	198.4077	167.2955	0.9924068	12.9747	367.402
8/12/2014 11:11:10 AM	11:11:10	309	A	9	59	85.71429	43817.14	58	82.85715	29000	1097.15	74.31089	71.55637	14.27588	54.145	389.2239	43.71844	79.09357	1.076	14.31483	1.447001	1	3	1	0.15	4991	126.3999	120.1159	57.929	4.057825	198.4577	166.3161	0.9847904	12.87512	364.5823
8/12/2014 11:11:20 AM	11:11:20	319	A	9	59	84.28571	43086.86	58	82.85715	29000	1095.841	73.99653	71.55637	14.27588	54.145	389.5841	43.79885	79.0495	1.069	14.31418	1.459999	1	3	1	0.15	4958	126.6001	119.5107	57.99432	4.0624	198.6579	166.1964	0.9895374	12.93719	366.3397
8/12/2014 11:11:30 AM	11:11:30	329	A	9	59	84.28571	43086.86	58	82.85715	29000	1096.643	74.08635	71.55637	14.27588	54.145	389.9893	43.73354	79.0495	1.035	14.31324	1.444	1	3	1	0.15	4992	123.6001	117.4788	57.9893	4.062049	198.883	166.2596	0.9878085	12.91458	365.6996
8/12/2014 11:11:40 AM	11:11:40	339	A	9	59	84.28571	43086.86	59	82.85715	29000	1098.418	74.31089	71.55637	14.27588	54.145	389.8542	43.62297	78.91729	1.061001	14.31295	1.450001	1	3	1	0.15	5004	125.7998	119.6667	57.73299	4.044095	198.8079	165.8984	0.9859037	12.88968	364.9944
8/12/2014 11:11:50 AM	11:11:50	349	A	9	59	84.28571	43086.86	58	82.85715	29000	1098.798	74.58034	71.55637	14.27588	54.145	389.269	43.045	79.00543	1.040001	14.31397	1.43	1	3	1	0.15	4959	124.7998	117.835	57.35606	4.017691	198.4828	165.3134	0.9790461	12.80002	362.4557
8/12/2014 11:12:00 AM	11:12:00	359	A	9	59	85.71429	43817.14	57	81.42857	28500	1103.657	75.02943	71.55637	14.27588	54.145	389.9443	43.58778	78.87322	1.052999	14.31364	1.454	1	3	1	0.15	4925	125.3999	117.7775	58.63259	4.10711	198.858	168.4007	0.9873213	12.90821	365.5193
8/12/2014 11:12:10 AM	11:12:10	369	A	9	60	85.71429	43817.14	59	84.28571	29500	1103.53	75.34378	71.55637	14.27588	54.145	390.4846	43.84409	78.87322	1.065001	14.31621	1.478001	1	3	1	0.15	5034	123.6001	118.4672	58.02449	4.064514	199.1581	167.3698	0.9937955	12.99286	367.9161
8/12/2014 11:12:20 AM	11:12:20	379	A	9	60	84.28571	43086.86	59	84.28571	29500	1106.065	75.43359	71.55637	14.27588	54.145	390.9348	43.56768	79.0495	1.046	14.3114	1.472	1	3	1	0.15	5029	127.3999	121.7967	57.97423	4.060993	199.4082	167.3366	0.9921411	12.97123	367.3036
8/12/2014 11:12:30 AM	11:12:30	389	A	9	59	84.28571	43086.86	59	84.28571	29500	1106.699	75.65607	71.55637	14.27588	54.145	391.5651	44.08029	79.00543	1.017	14.31346	1.461	1	3	1	0.15	5011	128	122.5054	57.99935	4.062753	199.7584	167.5733	0.9922401	12.97252	367.3403
8/12/2014 11:12:40 AM	11:12:40	399	A	9	59	85.71429	43817.14	58	82.85715	29000	1107.46	75.87642	71.55637	14.27588	54.145	392.2855	43.94461	78.91729	1.075001	14.31364	1.478001	1	3	1	0.15	4990	123.3999	117.0518	58.24059	4.079651	200.1586	168.2685	0.992994	12.98238	367.6194
8/12/2014 11:12:50 AM	11:12:50	409	A	9	60	84.28571	43086.86	59	84.28571	29500	1107.079	76.0527	71.55637	14.27588	54.145	392.9609	43.40685	78.91729	1.009001	14.31505	1.459999	1	3	1	0.15	5058	124.6001	119.6099	58.17022	4.074722	200.5338	168.2641	0.9893519	12.93476	366.271
8/12/2014 11:13:00 AM	11:13:00	419	A	9	59	84.28571	43086.86	59	82.85715	29000	1108.643	75.96455	71.55637	14.27588	54.145	393.6812	43.77374	78.96136	0.993	14.31285	1.458	1	3	1	0.15	5016	128.3999	122.6277	58.03453	4.065217	200.934	167.9023	0.9885487	12.92426	365.9737
8/12/2014 11:13:10 AM	11:13:10	429	A	9	59	85.71429	43817.14	58	82.85715	29000	1108.643	76.31712	71.55637	14.27588	54.145	393.7263	43.94963	79.13764	1.122999	14.31574	1.471001	1	3	1	0.15	4965	130.3999	123.0827	58.22551	4.078595	200.959	168.5996	0.9921986	12.97198	367.3249
8/12/2014 11:13:20 AM	11:13:20	439	A	9	60	84.28571	43086.86	59	84.28571	29500	1106.868	75.7442	71.55637	14.27588	54.145	393.9964	43.50737	79.13764	1.028	14.31653	1.464001	1	3	1	0.15	5035	123.7998	118.6822	58.31094	4.084579	201.1091	168.309	0.9905437	12.95034	366.7122
8/12/2014 11:13:30 AM	11:13:30	449	A	9	59	84.28571	43086.86	59	84.28571	29500	1103.826	75.47851	71.55637	14.27588	54.145	393.4561	43.86419	79.13764	1.038	14.31277	1.473	1	3	1	0.15	5041	127.3999	122.0873	57.93904	4.058528	200.809	167.2985	0.9934328	12.98811	367.7818
8/12/2014 11:13:40 AM	11:13:40	459	A	9	59	84.28571	43086.86	59	84.28571	29500	1103.488	75.07433	71.55637	14.27588	54.145	392.8708	44.23107	79.22578	0.9589996	14.31747	1.459999	1	3	1	0.15	5007	126.3999	120.501	57.84858	4.052192	200.4838	166.773	0.9891599	12.93225	366.1999
8/12/2014 11:13:50 AM	11:13:50	469	A	9	60	84.28571	43086.86	58	82.85715	29000	1104.122	74.71507	71.55637	14.27588	54.145	392.6907	43.62297	79.18172	1.003	14.31209	1.468	1	3	1	0.15	4972	126.2002	119.4696	57.80336	4.049024	200.3837	166.381	0.9917094	12.96558	367.1438
8/12/2014 11:14:00 AM	11:14:00	479	A	9	59	84.28571	43086.86	59	84.28571	29500	1106.53	74.84979	71.55637	14.27588	54.145	392.6007	44.09537	79.09357	1.044001	14.31248	1.444	1	3	1	0.15	5056	126	121.1025	57.67771	4.040223	200.3337	166.2234	0.9836722	12.86051	364.1683
8/12/2014 11:14:10 AM	11:14:10	489	A	9	60	85.71429	43817.14	59	84.28571	29500	1105.389	74.93961	71.55637	14.27588	54.145	392.9158	44.13558	79.13764	1.086	14.31534	1.469	1	3	1	0.15	5031	128.2002	122.9944	58.59238	4.104293	200.5088	168.2415	0.9921967	12.97195	367.3242
8/12/2014 11:14:20 AM	11:14:20	499	A	9	59	84.28571	43086.86	59	82.85715	29000	1104.629	75.02943	71.55637	14.27588	54.145	392.9609	43.62297	79.0495	1.056999	14.31454	1.474001	1	3	1	0.15	5013	127.3999	121.5998	57.9893	4.062049	200.5338	167.036	0.9939077	12.99432	367.9576
8/12/2014 11:14:30 AM	11:14:30	509	A	9	59	85.71429	43817.14	58	84.28571	29500	1105.263	74.98452	71.55637	14.27588	54.145	393.0509	44.00491	79.00543	1.073999	14.31361	1.455999	1	3	1	0.15	5021	124.3999	118.735	58.55721	4.10183	200.5838	168.2042	0.9878759	12.91546	365.7246
8/12/2014 11:14:40 AM	11:14:40	519	A	9	59	84.28571	43086.86	59	85.71429	30000	1103.023	74.62525	71.55637	14.27588	54.145	392.8258	44.12051	79.0495	1.082001	14.31559	1.475	1	3	1	0.15	5070	126.7998	122.4032	58.53207	4.100069	200.4588	167.8545	0.9953039	13.01258	368.4745
8/12/2014 11:14:50 AM	11:14:50	529	A	9	59	84.28571	43086.86	58	82.85715	29000	1103.023	74.58034	71.55637	14.27588	54.145	392.8258	44.04512	79.0495	1.066	14.31234	1.469999	1	3	1	0.15	5024	126.6001	121.2926	57.96416	4.060288	200.4588	166.6128	0.9904914	12.94966	366.6929
8/12/2014 11:15:00 AM	11:15:00	539	A	9	59	84.28571	43086.86	58	82.85715	29000	1104.037	74.67016	71.55637	14.27588	54.145	392.9609	44.00491	79.0495	1.089001	14.31368	1.481001	1	3	1	0.15	4969	128.2002	121.668	58.17022	4.074722	200.5338	167.1249	0.9955542	13.01585	368.5672
8/12/2014 11:15:10 AM	11:15:10	549	A	9	59	84.28571	43086.86	60	85.71429	30000	1104.291	74.58034	71.55637	14.27588	54.145	393.3661	44.52759	78.91729	1.091	14.3161	1.478001	1	3	1	0.15	5059	124.3999	119.826	58.01442	4.063808	200.7589	166.7198	0.995427	13.01419	368.5201
8/12/2014 11:15:20 AM	11:15:20	559	A	9	60	85.71429	43817.14	58	82.85715	29000	1102.685	74.58034	71.55637	14.27588	54.145	393.5012	44.34164	79.0495	1.077	14.31328	1.473	1	3	1	0.15	5020	127	121.7696	58.59238	4.104293	200.834	167.9449	0.9895018	12.93672	366.3265
8/12/2014 11:15:30 AM	11:15:30	569	A	9	59	84.28571	43086.86	58	82.85715	29000	1116.121	77.02225	71.55637	14.27588	54.145	394.4466	43.2008	78.91729	1.002001	14.31263	1.424999	1	3	1	0.15	4959	126.7998	119.5348	57.31083	4.014524	201.3593	167.22	0.9773741	12.77816	361.8367
8/12/2014 11:15:40 AM	11:15:40	579	A	9	59	84.28571	43086.86	58	82.85715	29000	1110.502	76.66969	71.55637	14.27588	54.145	394.8518	43.14049	78.78507	1.045	14.31426	1.417	1	3	1	0.15	4963	125.3999	118.6863	57.27565	4.012059	201.5844	166.8549	0.9748096	12.74464	360.8873
8/12/2014 11:15:50 AM	11:15:50	589	A	9	60	85.71429	43817.14	58	82.85715	29000	1109.023	77.1104	71.55637	14.27588	54.145	394.5817	43.32143	78.91729	1.031	14.3148	1.437	1	3	1	0.15	5013	126	120.2637	57.73802	4.044447	201.4343	168.211	0.9815524	12.83279	363.3835
8/12/2014 11:16:00 AM	11:16:00	599	A	9	59	84.28571	43086.86	58	82.85715	29000	1108.389	76.62562	71.55637	14.27588	54.145	394.0864	43.52748	78.96136	1.056999	14.31339	1.462	1	3	1	0.15	4972	128	120.9839	57.61238	4.035646	201.1591	167.543	0.9895833	12.93779	366.3567
8/12/2014 11:16:10 AM	11:16:10	609	A	9	60	85.71429	43817.14	58	84.28571	29500	1108.009	76.62562	71.55637	14.27588	54.145	393.4111	43.37169	79.09357	1.025	14.31371	1.436001	1	3	1	0.15	4991	124.3999	118.0256	58.11996	4.071201	200.7839	168.629	0.9810182	12.82581	363.1858
8/12/2014 11:16:20 AM	11:16:20	619	A	9	60	85.71429	43817.14	59	84.28571	29500	1106.403	76.27305	71.55637	14.27588	54.145	392.8258	43.47219	79.0495	1.077999	14.31097	1.454	1	3	1	0.15	5042	127.7998	122.3033	57.68776	4.040926	200.4588	167.4149	0.9870608	12.90481	365.4229
8/12/2014 11:16:30 AM	11:16:30	629	A	9	60	84.28571	43086.86	59	84.28571	29500	1106.023	75.92049	71.55637	14.27588	54.145	393.0059	43.65814	78.96136	1.1	14.3148	1.466	1	3	1	0.15	5000	127.2002	121.0944	57.94909	4.059232	200.5588	167.6838	0.991321	12.9605	367
8/12/2014 11:16:40 AM	11:16:40	639	A	9	60	85.71429	43817.14	58	82.85715	29000	1106.192	76.00863	71.55637	14.27588	54.145	393.141	43.80389	79.09357	1.094999	14.31646	1.461	1	3	1	0.15	4942	129.6001	122.7005	57.99432	4.0624	200.6339	167.8528	0.9895737	12.93766	366.3531
8/12/2014 11:16:50 AM	11:16:50	649	A	9	59	84.28571	43086.86	59	84.28571	29500	1108.051	76.18491	71.55637	14.27588	54.145	393.4111	43.72347	79.09357	0.9729996	14.31165	1.427999	1	3	1	0.15	5040	124.6001	119.1843	58.09987	4.069794	200.7839	168.2231	0.9778828	12.78481	362.025
8/12/2014 11:17:00 AM	11:17:00	659	A	9	59	84.28571	43086.86	59	84.28571	29500	1107.84	75.96455	71.55637	14.27588	54.145	393.4111	43.61291	78.96136	1.094	14.31321	1.445	1	3	1	0.15	5017	127.6001	121.6969	58.28078	4.082467	200.7839	168.4266	0.9875488	12.91119	365.6035
8/12/2014 11:17:10 AM	11:17:10	669	A	9	59	84.28571	43086.86	58	82.85715	29000	1106.572	76.0527	71.55637	14.27588	54.145	392.9609	43.75363	79.18172	1.065001	14.31451	1.474001	1	3	1	0.15	4993	127.7998	121.1147	57.84858	4.052192	200.5338	167.5779	0.9921246	12.97101	367.2975
8/12/2014 11:17:20 AM	11:17:20	679	A	9	60	85.71429	43817.14	58	84.28571	29500	1107.206	75.7442	71.55637	14.27588	54.145	393.0059	43.8843	79.22578	1.068001	14.31039	1.468	1	3	1	0.15	5010	124.7998	119.2378	57.93401	4.058176	200.5588	167.5064	0.9909212	12.95528	366.852
8/12/2014 11:17:40 AM	11:17:40	0	A	9	59	84.28571	43086.86	59	84.28571	29500	1104.587	75.47851	71.55637	14.27588	54.145	392.1054	43.75866	79.26985	1.122	14.31328	1.482	1	3	1	0.15	5018	126.6001	121.1478	57.95915	4.059937	200.0586	167.3414	0.9929954	12.9824	367.6199
8/12/2014 11:17:50 AM	11:17:50	3	A	10	60	85.71429	43817.14	58	82.85715	29000	1104.46	74.71507	71.55637	14.27588	54.145	391.7452	43.81393	79.18172	0.9839993	14.3153	1.485001	1	3	1	0.15	5003	131	124.5959	58.46172	4.095141	199.8585	167.7798	1.000859	13.08521	370.5313
8/12/2014 11:18:00 AM	11:18:00	13	A	10	60	84.28571	43086.86	60	85.71429	30000	1104.671	74.62525	71.55637	14.27588	54.145	391.8803	44.03506	79.18172	1.080999	14.31603	1.471001	1	3	1	0.15	5064	125	120.523	58.48684	4.0969	199.9335	167.7589	0.9928391	12.98035	367.562
8/12/2014 11:18:10 AM	11:18:10	23	A	10	60	85.71429	43817.14	59	85.71429	30000	1105.094	74.58034	71.55637	14.27588	54.145	392.0154	43.87425	79.18172	0.9960003	14.31588	1.468	1	3	1	0.15	5066	127.2002	122.8854	58.49187	4.097253	200.0086	167.7324	0.9945167	13.00229	368.1831
8/12/2014 11:18:20 AM	11:18:20	33	A	10	60	84.28571	43086.86	59	84.28571	29500	1103.108	74.84979	71.55637	14.27588	54.145	392.1955	43.83907	79.09357	1.108	14.31498	1.458	1	3	1	0.15	5017	128.3999	122.6521	57.93401	4.058176	200.1086	166.7703	0.9885024	12.92365	365.9565
8/12/2014 11:18:30 AM	11:18:30	43	A	10	59	84.28571	43086.86	58	82.85715	29000	1106.403	74.84979	71.55637	14.27588	54.145	392.2855	43.78881	79.0495	1.055	14.31444	1.478001	1	3	1	0.15	4966	130.6001	123.4856	58.00941	4.063457	200.1586	166.9309	0.9952514	13.01189	368.4551
8/12/2014 11:18:40 AM	11:18:40	53	A	10	60	85.71429	43817.14	59	84.28571	29500	1103.826	74.8947	71.55637	14.27588	54.145	393.0509	44.01497	79.13764	1.052999	14.31483	1.479	1	3	1	0.15	5056	124.7998	120.1399	58.04458	4.065921	200.5838	167.0427	0.9968614	13.03294	369.0511
8/12/2014 11:18:50 AM	11:18:50	63	A	10	60	85.71429	43817.14	59	84.28571	29500	1104.333	75.11924	71.55637	14.27588	54.145	393.321	43.74358	79.26985	1.113001	14.31147	1.474001	1	3	1	0.15	5043	126.3999	121.3674	58.05464	4.066626	200.7339	167.2491	0.9936127	12.99047	367.8484
8/12/2014 11:19:00 AM	11:19:00	73	A	10	59	85.71429	43817.14	58	82.85715	29000	1106.911	75.7442	71.55637	14.27588	54.145	393.4561	43.92953	79.13764	1.068001	14.31364	1.461	1	3	1	0.15	5000	126.7998	120.9038	57.80837	4.049375	200.809	167.2381	0.9918028	12.9668	367.1784
8/12/2014 11:19:10 AM	11:19:10	83	A	10	59	84.28571	43086.86	58	84.28571	29500	1105.389	75.56792	71.55637	14.27588	54.145	393.141	43.63805	79.09357	1.076	14.31585	1.481001	1	3	1	0.15	5002	125.3999	119.2381	58.27074	4.081763	200.6339	168.0783	0.996282	13.02536	368.8366
8/12/2014 11:19:20 AM	11:19:20	93	A	10	59	84.28571	43086.86	59	84.28571	29500	1105.77	75.61199	71.55637	14.27588	54.145	393.0509	43.74358	79.13764	1.072001	14.31321	1.472	1	3	1	0.15	5065	125.7998	121.5112	58.51198	4.098661	200.5838	168.6264	0.990092	12.94444	366.545
8/12/2014 11:19:30 AM	11:19:30	103	A	10	59	84.28571	43086.86	59	84.28571	29500	1107.291	76.00863	71.55637	14.27588	54.145	392.9158	43.97979	79.26985	1.046	14.3148	1.474001	1	3	1	0.15	5023	127.6001	121.8424	58.40643	4.091268	200.5088	168.5117	0.9950563	13.00934	368.3828
8/12/2014 11:19:40 AM	11:19:40	113	A	10	60	85.71429	43817.14	58	82.85715	29000	1103.911	75.47851	71.55637	14.27588	54.145	392.7357	43.46214	79.09357	1.084999	14.31299	1.481001	1	3	1	0.15	5011	130	124.0321	58.321	4.085284	200.4088	168.1113	0.9964949	13.02815	368.9155
8/12/2014 11:19:50 AM	11:19:50	123	A	10	60	85.71429	43817.14	59	82.85715	29000	1107.037	75.70013	71.55637	14.27588	54.145	393.0059	44.0602	79.22578	0.9710007	14.31288	1.459999	1	3	1	0.15	5023	122.6001	117.252	58.28582	4.082819	200.5588	168.2193	0.9906776	12.95209	366.7618
8/12/2014 11:20:00 AM	11:20:00	133	A	10	60	85.71429	43817.14	59	84.28571	29500	1107.079	75.47851	71.55637	14.27588	54.145	392.8708	44.03506	79.09357	1.086	14.31624	1.462	1	3	1	0.15	5051	125.7998	121.1753	57.67771	4.040223	200.4838	166.8499	0.9899134	12.9421	366.4789
8/12/2014 11:20:10 AM	11:20:10	143	A	10	59	85.71429	43817.14	57	81.42857	28500	1119.205	76.75783	71.55637	14.27588	54.145	394.7618	42.70326	79.09357	0.9759998	14.31295	1.436001	1	3	1	0.15	4942	125.7998	118.1841	57.42643	4.022621	201.5343	167.252	0.9809678	12.82515	363.1671
8/12/2014 11:20:20 AM	11:20:20	153	A	10	59	84.28571	43086.86	58	82.85715	29000	1109.234	76.89004	71.55637	14.27588	54.145	394.7168	43.40184	79.31393	1.003	14.31277	1.459999	1	3	1	0.15	4927	126.2002	118.3883	57.71791	4.043038	201.5093	167.9867	0.9888983	12.92883	366.1031
8/12/2014 11:20:30 AM	11:20:30	163	A	10	60	85.71429	43817.14	59	82.85715	29000	1116.459	76.97818	71.55637	14.27588	54.145	395.257	42.74347	79.31393	1.066999	14.31266	1.434	1	3	1	0.15	4982	124.3999	118.1921	57.22038	4.008187	201.8095	166.9888	0.9800876	12.81364	362.8412
8/12/2014 11:20:40 AM	11:20:40	173	A	10	60	85.71429	43817.14	58	84.28571	29500	1109.488	77.41888	71.55637	14.27588	54.145	394.7168	43.25609	79.31393	1.070999	14.31418	1.458	1	3	1	0.15	4997	126.2002	120.0703	57.87874	4.054304	201.5093	168.7664	0.9899743	12.9429	366.5014
8/12/2014 11:20:50 AM	11:20:50	183	A	10	59	85.71429	43817.14	58	82.85715	29000	1107.967	76.97818	71.55637	14.27588	54.145	394.0414	43.86419	79.26985	1.124001	14.31332	1.462999	1	3	1	0.15	4989	126.7998	120.4476	58.08479	4.068738	201.1341	168.8443	0.9899788	12.94296	366.5031
8/12/2014 11:21:00 AM	11:21:00	193	A	10	60	85.71429	43817.14	59	82.85715	29000	1107.46	76.8019	71.55637	14.27588	54.145	393.3661	43.78378	79.31393	1.047001	14.3122	1.443001	1	3	1	0.15	4979	123.7998	117.552	57.98427	4.061697	200.7589	168.4844	0.9831315	12.85344	363.9682
8/12/2014 11:21:10 AM	11:21:10	203	A	10	59	84.28571	43086.86	59	84.28571	29500	1106.953	76.71376	71.55637	14.27588	54.145	393.7263	43.78881	79.53428	0.9820004	14.31317	1.447001	1	3	1	0.15	5044	124.6001	119.2789	58.1853	4.075778	200.959	168.8409	0.9839798	12.86452	364.2822
8/12/2014 11:21:20 AM	11:21:20	213	A	10	60	85.71429	43817.14	58	82.85715	29000	1106.911	76.66969	71.55637	14.27588	54.145	393.7263	43.63805	79.35799	1.070999	14.31454	1.448	1	3	1	0.15	4993	126.6001	120.3544	58.43658	4.09338	200.959	169.3392	0.9882381	12.9202	365.8587
8/12/2014 11:21:30 AM	11:21:30	223	A	10	59	84.28571	43086.86	59	82.85715	29000	1106.023	76.22898	71.55637	14.27588	54.145	393.3661	44.02502	79.31393	0.9610004	14.31592	1.462	1	3	1	0.15	4996	127.7998	121.5679	58.2054	4.077186	200.7589	168.4842	0.9910323	12.95673	366.8932
8/12/2014 11:21:40 AM	11:21:40	233	A	10	59	84.28571	43086.86	59	84.28571	29500	1106.995	76.14084	71.55637	14.27588	54.145	393.6812	43.75363	79.62242	1.044001	14.3118	1.443001	1	3	1	0.15	5006	125	118.9518	57.74303	4.044798	200.934	167.4246	0.9885885	12.92478	365.9884
8/12/2014 11:21:50 AM	11:21:50	243	A	10	59	84.28571	43086.86	59	84.28571	29500	1106.234	76.00863	71.55637	14.27588	54.145	393.9063	43.76369	79.44614	1.018999	14.31082	1.472	1	3	1	0.15	5042	127.2002	122.1116	58.07976	4.068386	201.0591	168.035	0.9927494	12.97918	367.5288
8/12/2014 11:22:00 AM	11:22:00	253	A	10	60	85.71429	43817.14	58	84.28571	29500	1104.418	75.87642	71.55637	14.27588	54.145	393.7713	43.73855	79.57835	1.083	14.31314	1.462	1	3	1	0.15	5020	127.7998	121.7696	58.04961	4.066273	200.9841	167.8619	0.9893572	12.93483	366.273
8/12/2014 11:22:10 AM	11:22:10	263	A	10	60	85.71429	43817.14	58	82.85715	29000	1106.911	75.92049	71.55637	14.27588	54.145	393.7263	44.04009	79.57835	1.054001	14.31563	1.481001	1	3	1	0.15	4957	133	125.7158	57.8536	4.052543	200.959	167.4798	0.9958081	13.01917	368.6612
8/12/2014 11:22:20 AM	11:22:20	273	A	10	60	85.71429	43817.14	59	84.28571	29500	1107.079	75.83234	71.55637	14.27588	54.145	393.9063	43.74358	79.66649	1.052999	14.31306	1.474001	1	3	1	0.15	5038	123	118.1778	57.89381	4.05536	201.0591	167.4932	0.9912711	12.95985	366.9816
8/12/2014 11:22:30 AM	11:22:30	283	A	10	59	84.28571	43086.86	59	84.28571	29500	1105.516	75.52385	71.55637	14.27588	54.145	393.8613	43.85415	79.66649	0.9790001	14.31252	1.464001	1	3	1	0.15	5036	127	121.9663	58.26069	4.081059	201.0341	168.0206	0.988907	12.92894	366.1063
8/12/2014 11:22:40 AM	11:22:40	293	A	10	60	85.71429	43817.14	58	82.85715	29000	1103.108	75.52385	71.55637	14.27588	54.145	394.1765	43.3767	79.71056	1.018	14.31621	1.450001	1	3	1	0.15	5002	128	121.7139	58.01442	4.063808	201.2092	167.4965	0.9852911	12.88167	364.7677
8/12/2014 11:22:50 AM	11:22:50	303	A	10	59	84.28571	43086.86	59	82.85715	29000	1103.235	75.61199	71.55637	14.27588	54.145	393.9514	43.85415	79.71056	1.023001	14.31361	1.461	1	3	1	0.15	4999	123.7998	118.0242	57.98427	4.061697	201.0841	167.5048	0.9875551	12.91127	365.6058
8/12/2014 11:23:00 AM	11:23:00	313	A	10	60	85.71429	43817.14	59	84.28571	29500	1102.685	75.70013	71.55637	14.27588	54.145	393.9063	43.66317	79.57835	1.042	14.31133	1.455	1	3	1	0.15	5046	126.3999	121.2477	58.08981	4.069089	201.0591	167.8023	0.9869319	12.90312	365.3751
8/12/2014 11:23:10 AM	11:23:10	323	A	10	59	85.71429	43817.14	59	82.85715	29000	1105.601	75.70013	71.55637	14.27588	54.145	393.8163	43.62297	79.62242	1.004999	14.31342	1.475	1	3	1	0.15	5016	127.2002	121.4819	58.30089	4.083875	201.0091	168.2513	0.9933566	12.98712	367.7537
8/12/2014 11:23:20 AM	11:23:20	333	A	10	60	85.71429	43817.14	59	84.28571	29500	1106.53	75.83234	71.55637	14.27588	54.145	394.1765	43.70337	79.44614	1	14.31317	1.468	1	3	1	0.15	4978	131.6001	124.5421	58.34109	4.086691	201.2092	168.4457	0.9914976	12.96281	367.0654
8/12/2014 11:23:30 AM	11:23:30	343	A	10	59	84.28571	43086.86	59	84.28571	29500	1105.136	75.87642	71.55637	14.27588	54.145	394.4916	43.90942	79.44614	1.040001	14.31328	1.465	1	3	1	0.15	5033	124.2002	119.0188	57.75813	4.045856	201.3842	167.2394	0.9911461	12.95822	366.9352
8/12/2014 11:23:40 AM	11:23:40	353	A	10	60	85.71429	43817.14	59	84.28571	29500	1105.347	75.96455	71.55637	14.27588	54.145	394.7618	43.69332	79.62242	1.044001	14.31256	1.461	1	3	1	0.15	5018	126.2002	120.3836	57.4214	4.022268	201.5343	166.5899	0.9889469	12.92947	366.1211
8/12/2014 11:23:50 AM	11:23:50	363	A	10	59	84.28571	43086.86	59	82.85715	29000	1100.657	76.00863	71.55637	14.27588	54.145	394.8518	43.51742	79.44614	0.927	14.31089	1.444	1	3	1	0.15	4999	127	120.8796	58.10991	4.070498	201.5844	168.0993	0.9839904	12.86467	364.2861
8/12/2014 11:24:00 AM	11:24:00	373	A	10	59	84.28571	43086.86	59	82.85715	29000	1104.122	75.87642	71.55637	14.27588	54.145	394.7618	44.00994	79.4902	1.046	14.31162	1.452999	1	3	1	0.15	4964	124.7998	117.9538	57.3058	4.014171	201.5343	166.269	0.9863266	12.89521	365.151
8/12/2014 11:24:10 AM	11:24:10	383	A	10	60	85.71429	43817.14	59	84.28571	29500	1102.981	76.00863	71.55637	14.27588	54.145	394.2665	43.51742	79.44614	1.016001	14.31371	1.454	1	3	1	0.15	5045	124.7998	119.8785	57.83351	4.051136	201.2592	167.5094	0.9864542	12.89688	365.1982
8/12/2014 11:24:20 AM	11:24:20	393	A	10	60	85.71429	43817.14	58	84.28571	29500	1103.657	75.87642	71.55637	14.27588	54.145	394.0864	43.69835	79.62242	1.041	14.31498	1.447001	1	3	1	0.15	5017	125.6001	119.9776	57.83351	4.051136	201.1591	167.4006	0.9856703	12.88663	364.9081
8/12/2014 11:24:30 AM	11:24:30	403	A	10	59	84.28571	43086.86	59	82.85715	29000	1103.108	75.65607	71.55637	14.27588	54.145	393.6812	43.6682	79.4902	1.024	14.31342	1.455	1	3	1	0.15	4987	127.6001	120.9692	58.31597	4.084931	200.934	168.247	0.9870703	12.90493	365.4263
8/12/2014 11:24:40 AM	11:24:40	413	A	10	60	85.71429	43817.14	58	84.28571	29500	1105.558	75.56792	71.55637	14.27588	54.145	393.5462	43.88933	79.4902	1.055	14.31563	1.462999	1	3	1	0.15	4996	123.7998	117.7629	57.73299	4.044095	200.859	166.932	0.9891905	12.93265	366.2113
8/12/2014 11:24:50 AM	11:24:50	423	A	10	60	85.71429	43817.14	59	84.28571	29500	1101.756	75.52385	71.55637	14.27588	54.145	392.8708	43.97979	79.62242	1.073999	14.31379	1.458	1	3	1	0.15	5040	126.7998	121.6789	57.74303	4.044798	200.4838	166.9172	0.9869546	12.90342	365.3835
8/12/2014 11:25:00 AM	11:25:00	433	A	10	60	85.71429	43817.14	58	84.28571	29500	1104.418	75.56792	71.55637	14.27588	54.145	392.4206	43.98482	79.57835	1.069	14.3123	1.458	1	3	1	0.15	5005	126	120.0717	57.76314	4.046207	200.2337	166.9965	0.9879699	12.91669	365.7594
8/12/2014 11:25:10 AM	11:25:10	443	A	10	60	84.28571	43086.86	58	82.85715	29000	1106.234	75.87642	71.55637	14.27588	54.145	392.2855	43.54256	79.57835	1.08	14.31248	1.474001	1	3	1	0.15	4947	131.7998	123.9551	57.79832	4.048671	200.1586	167.3254	0.9933509	12.98704	367.7515
8/12/2014 11:25:20 AM	11:25:20	453	A	10	59	85.71429	43817.14	59	84.28571	29500	1104.418	75.65607	71.55637	14.27588	54.145	392.4206	44.09537	79.57835	1.096001	14.31299	1.448999	1	3	1	0.15	5044	125.3999	120.4311	57.58222	4.033534	200.2337	166.6816	0.9849581	12.87732	364.6444
8/12/2014 11:25:30 AM	11:25:30	463	A	10	59	84.28571	43086.86	59	82.85715	29000	1101.756	75.61199	71.55637	14.27588	54.145	392.0154	43.73855	79.44614	1.062	14.31299	1.466	1	3	1	0.15	5011	127	121.1698	57.82848	4.050783	200.0086	167.1723	0.989804	12.94067	366.4384
8/12/2014 11:25:40 AM	11:25:40	473	A	10	60	84.28571	43086.86	59	84.28571	29500	1103.277	75.52385	71.55637	14.27588	54.145	391.8803	44.18081	79.57835	1.021	14.30985	1.476	1	3	1	0.15	4999	128.3999	122.022	57.88878	4.055007	200.0086	167.2286	0.9939416	12.99477	367.9702
8/12/2014 11:25:50 AM	11:25:50	483	A	10	59	85.71429	43817.14	58	82.85715	29000	1102.559	75.16415	71.55637	14.27588	54.145	391.9703	44.01999	79.53428	1.087	14.31407	1.482	1	3	1	0.15	4979	125.3999	118.6898	58.34612	4.087043	199.9835	167.9054	0.9961255	13.02332	368.7787
8/12/2014 11:26:00 AM	11:26:00	493	A	10	59	84.28571	43086.86	59	84.28571	29500	1104.08	75.56792	71.55637	14.27588	54.145	392.2405	43.96471	79.53428	1.072001	14.31617	1.459	1	3	1	0.15	5041	126.7998	121.5114	58.2456	4.080002	200.1336	168.0248	0.9871391	12.90583	365.4518
8/12/2014 11:26:10 AM	11:26:10	503	A	10	60	85.71429	43817.14	59	84.28571	29500	1102.305	75.34378	71.55637	14.27588	54.145	392.3756	44.02502	79.53428	1.082001	14.31592	1.468	1	3	1	0.15	5013	128.2002	122.3637	58.44664	4.094085	200.2087	168.2667	0.9914995	12.96284	367.0661
8/12/2014 11:26:20 AM	11:26:20	513	A	10	59	84.28571	43086.86	58	82.85715	29000	1104.84	74.93961	71.55637	14.27588	54.145	392.4206	43.35158	79.31393	1.083	14.31379	1.468	1	3	1	0.15	4977	130.6001	124.1381	57.96416	4.060288	200.2337	166.9085	0.9916318	12.96457	367.1151
8/12/2014 11:26:30 AM	11:26:30	523	A	10	59	84.28571	43086.86	59	84.28571	29500	1105.094	74.93961	71.55637	14.27588	54.145	392.6457	43.40184	79.40207	1.021999	14.31216	1.474001	1	3	1	0.15	5045	124	119.3025	58.25063	4.080355	200.3587	167.5177	0.9948623	13.0068	368.311
8/12/2014 11:26:40 AM	11:26:40	533	A	10	59	84.28571	43086.86	58	82.85715	29000	1104.713	74.80489	71.55637	14.27588	54.145	393.321	43.63805	79.26985	1.099001	14.31379	1.441999	1	3	1	0.15	5035	128.2002	122.7088	58.15013	4.073314	200.7339	167.1932	0.9845952	12.87257	364.51
8/12/2014 11:26:50 AM	11:26:50	543	A	10	59	85.71429	43817.14	58	82.85715	29000	1104.967	75.02943	71.55637	14.27588	54.145	393.8163	43.56768	79.4902	1.032	14.31314	1.476999	1	3	1	0.15	4998	126.7998	120.8554	58.25566	4.080707	201.0091	167.6024	0.9958225	13.01936	368.6665
8/12/2014 11:27:00 AM	11:27:00	553	A	10	60	85.71429	43817.14	58	82.85715	29000	1106.277	75.38869	71.55637	14.27588	54.145	393.9063	43.54256	79.44614	0.9960003	14.31187	1.462999	1	3	1	0.15	4958	124.7998	117.6227	58.43658	4.09338	201.0591	168.2824	0.9897529	12.94	366.4195
8/12/2014 11:27:10 AM	11:27:10	563	A	10	59	84.28571	43086.86	59	84.28571	29500	1105.516	75.29887	71.55637	14.27588	54.145	394.3566	43.24604	79.35799	1.066999	14.3152	1.481001	1	3	1	0.15	5038	126.2002	120.8634	58.25566	4.080707	201.3092	167.8245	0.9939867	12.99536	367.9869
8/12/2014 11:27:20 AM	11:27:20	573	A	10	59	84.28571	43086.86	59	82.85715	29000	1104.037	75.43359	71.55637	14.27588	54.145	394.2665	43.91948	79.40207	1.084999	14.31241	1.459	1	3	1	0.15	5014	127	121.2423	58.16018	4.074018	201.2592	167.7326	0.9884645	12.92316	365.9425
8/12/2014 11:27:30 AM	11:27:30	583	A	10	59	84.28571	43086.86	59	84.28571	29500	1103.742	75.65607	71.55637	14.27588	54.145	394.8969	43.53753	79.4902	0.9629993	14.31314	1.454	1	3	1	0.15	4988	127.3999	120.9934	58.16018	4.074018	201.6094	167.9158	0.9867361	12.90056	365.3026
8/12/2014 11:27:40 AM	11:27:40	593	A	10	59	84.28571	43086.86	58	81.42857	28500	1104.671	75.7442	71.55637	14.27588	54.145	394.4466	43.77876	79.31393	0.9950008	14.31259	1.455999	1	3	1	0.15	4965	124.3999	117.4107	57.85863	4.052896	201.3593	167.3455	0.9875565	12.91129	365.6064
8/12/2014 11:27:50 AM	11:27:50	603	A	10	60	85.71429	43817.14	59	84.28571	29500	1104.375	75.92049	71.55637	14.27588	54.145	394.3566	43.64809	79.35799	0.9529991	14.31183	1.438999	1	3	1	0.15	5023	126.3999	120.886	57.8536	4.052543	201.3092	167.4798	0.980355	12.81713	362.9402
8/12/2014 11:28:00 AM	11:28:00	613	A	10	59	84.28571	43086.86	59	82.85715	29000	1103.657	75.7442	71.55637	14.27588	54.145	394.4466	44.09537	79.31393	1.052	14.31762	1.459999	1	3	1	0.15	5008	126.3999	120.525	58.04961	4.066273	201.3593	167.7529	0.9873754	12.90892	365.5393
8/12/2014 11:28:10 AM	11:28:10	623	A	10	59	85.71429	43817.14	58	82.85715	29000	1103.657	75.7442	71.55637	14.27588	54.145	394.6718	43.64809	79.53428	1.08	14.3135	1.464001	1	3	1	0.15	4980	128.6001	121.9374	57.99935	4.062753	201.4843	167.6458	0.989732	12.93973	366.4117
8/12/2014 11:28:20 AM	11:28:20	633	A	10	59	84.28571	43086.86	59	82.85715	29000	1104.291	75.56792	71.55637	14.27588	54.145	394.7618	43.64809	79.35799	1.011999	14.31201	1.448	1	3	1	0.15	5014	123.3999	118.1872	57.73802	4.044447	201.5343	166.9427	0.9858079	12.88843	364.959
8/12/2014 11:28:30 AM	11:28:30	643	A	10	59	85.71429	43817.14	59	84.28571	29500	1101.798	75.38869	71.55637	14.27588	54.145	394.7618	43.99487	79.35799	1.013	14.31263	1.455999	1	3	1	0.15	5025	126	120.5516	58.00941	4.063457	201.5343	167.3746	0.9875191	12.9108	365.5925
8/12/2014 11:28:40 AM	11:28:40	653	A	10	59	84.28571	43086.86	59	84.28571	29500	1099.136	75.25397	71.55637	14.27588	54.145	394.9869	43.05507	79.44614	1.007999	14.31256	1.462999	1	3	1	0.15	4978	126.2002	119.803	57.76314	4.046207	201.6594	166.7383	0.9897729	12.94026	366.4269
8/12/2014 11:28:50 AM	11:28:50	663	A	10	59	84.28571	43086.86	58	82.85715	29000	1100.277	75.02943	71.55637	14.27588	54.145	394.5817	43.54256	79.44614	0.9599991	14.31465	1.444	1	3	1	0.15	4918	129.6001	121.5427	57.84858	4.052192	201.4343	166.7361	0.9830967	12.85298	363.9553
8/12/2014 11:29:00 AM	11:29:00	673	A	10	59	84.28571	43086.86	58	84.28571	29500	1098.249	75.16415	71.55637	14.27588	54.145	394.4466	43.64809	79.18172	0.9990005	14.3123	1.436001	1	3	1	0.15	5010	124.7998	119.0468	57.90386	4.056064	201.3593	166.9648	0.9808722	12.8239	363.1317
8/12/2014 11:31:37 AM	11:31:37	0	A	10	60	85.71429	43817.14	58	82.85715	29000	1103.742	75.92049	71.55637	14.27588	54.145	393.9514	43.08522	79.22578	0.9549999	14.31422	1.399	1	3	1	0.15	4928	126	118.4123	57.37617	4.0191	201.0841	166.4565	0.9682412	12.65876	358.4556
8/12/2014 11:31:47 AM	11:31:47	3	A	11	59	84.28571	43086.86	58	81.42857	28500	1108.051	76.8019	71.55637	14.27588	54.145	394.9869	43.42696	79.44614	1.007	14.31021	1.424999	1	3	1	0.15	4904	130	120.8233	57.01432	3.993753	201.6594	166.399	0.9768054	12.77073	361.6261
8/12/2014 11:31:57 AM	11:31:57	13	A	11	59	84.28571	43086.86	59	82.85715	29000	1102.347	76.14084	71.55637	14.27588	54.145	394.4466	43.39681	79.44614	0.9729996	14.30974	1.427999	1	3	1	0.15	4969	122.6001	115.9915	57.4817	4.026493	201.3593	166.8642	0.9788501	12.79746	362.3831
8/12/2014 11:32:07 AM	11:32:07	23	A	11	59	85.71429	43817.14	58	82.85715	29000	1100.826	76.22898	71.55637	14.27588	54.145	394.2215	43.36162	79.35799	1.02	14.3118	1.427999	1	3	1	0.15	4969	126.7998	119.5864	57.52693	4.029661	201.2342	167.0337	0.977968	12.78593	362.0566
8/12/2014 11:32:17 AM	11:32:17	33	A	11	59	84.28571	43086.86	58	82.85715	29000	1102.094	76.40527	71.55637	14.27588	54.145	394.5817	42.92942	79.71056	1.042999	14.31379	1.443001	1	3	1	0.15	4945	127	119.1973	57.3812	4.019452	201.4343	166.8652	0.9777372	12.78291	361.9711
8/12/2014 11:32:27 AM	11:32:27	43	A	11	59	84.28571	43086.86	58	81.42857	28500	1100.193	76.27305	71.55637	14.27588	54.145	394.4466	43.03999	79.44614	0.9990005	14.31339	1.445999	1	3	1	0.15	4902	123.7998	115.9209	57.32591	4.015579	201.3593	166.6377	0.9840727	12.86574	364.3166
8/12/2014 11:32:37 AM	11:32:37	53	A	11	59	84.28571	43086.86	59	82.85715	29000	1101.502	76.53748	71.55637	14.27588	54.145	393.8613	43.30132	79.53428	1.07	14.31205	1.433001	1	3	1	0.15	4984	123.2002	117.1006	57.69279	4.041279	201.0341	167.6431	0.975789	12.75744	361.2498
8/12/2014 11:32:47 AM	11:32:47	63	A	11	60	85.71429	43817.14	58	82.85715	29000	1100.869	76.00863	71.55637	14.27588	54.145	392.7357	43.26112	79.62242	0.9979992	14.31422	1.431999	1	3	1	0.15	4967	125.3999	118.5926	57.53196	4.030013	200.4088	166.8635	0.9784958	12.79283	362.2519
8/12/2014 11:32:57 AM	11:32:57	73	A	11	59	84.28571	43086.86	58	82.85715	29000	1097.995	76.00863	71.55637	14.27588	54.145	393.5012	43.33147	79.57835	1.069	14.31194	1.434999	1	3	1	0.15	4944	126.6001	119.3612	57.17011	4.004666	200.834	166.0853	0.9801658	12.81466	362.8702
8/12/2014 11:33:07 AM	11:33:07	83	A	11	59	85.71429	43817.14	58	82.85715	29000	1100.911	76.0527	71.55637	14.27588	54.145	392.9158	43.22091	79.66649	1.042	14.31299	1.443001	1	3	1	0.15	4953	123.6001	116.561	57.95412	4.059585	200.5088	167.8033	0.982846	12.8497	363.8625
8/12/2014 11:33:17 AM	11:33:17	93	A	11	59	84.28571	43086.86	58	82.85715	29000	1098.164	75.56792	71.55637	14.27588	54.145	392.5107	43.23598	79.53428	1.068001	14.31154	1.443001	1	3	1	0.15	4972	126.7998	119.6586	56.92386	3.987417	200.2837	165.1927	0.9829198	12.85067	363.8898
8/12/2014 11:33:27 AM	11:33:27	103	A	11	59	84.28571	43086.86	58	82.85715	29000	1096.643	75.29887	71.55637	14.27588	54.145	391.5651	43.14049	79.53428	1.011999	14.31418	1.441	1	3	1	0.15	4957	126.2002	119.1092	57.75813	4.045856	199.7584	166.7645	0.9850224	12.87816	364.6682
8/12/2014 11:33:37 AM	11:33:37	113	A	11	59	84.28571	43086.86	57	82.85715	29000	1100.953	75.16415	71.55637	14.27588	54.145	391.4751	43.17567	79.71056	0.9379997	14.3127	1.438	1	3	1	0.15	4902	130.6001	121.7073	57.83351	4.051136	199.7084	166.8147	0.9810877	12.82671	363.2115
8/12/2014 11:33:47 AM	11:33:47	123	A	11	59	84.28571	43086.86	58	82.85715	29000	1102.516	75.56792	71.55637	14.27588	54.145	392.8258	43.03496	79.57835	0.9570007	14.31093	1.424	1	3	1	0.15	4963	122.2002	115.4735	57.38622	4.019804	200.4588	166.1887	0.977742	12.78297	361.9729
8/12/2014 11:33:57 AM	11:33:57	133	A	11	59	84.28571	43086.86	58	82.85715	29000	1099.601	75.52385	71.55637	14.27588	54.145	392.6457	43.32143	79.53428	1.066999	14.31126	1.436001	1	3	1	0.15	4972	125.6001	119.0905	57.17011	4.004666	200.3587	165.6878	0.9798542	12.81059	362.7549
8/12/2014 11:34:07 AM	11:34:07	143	A	11	59	84.28571	43086.86	58	82.85715	29000	1102.263	75.61199	71.55637	14.27588	54.145	392.5107	43.21086	79.53428	1.021999	14.31314	1.433001	1	3	1	0.15	4946	125.7998	118.0912	57.24046	4.009594	200.2837	165.9115	0.9795605	12.80675	362.6461
8/12/2014 11:34:17 AM	11:34:17	153	A	11	59	84.28571	43086.86	58	82.85715	29000	1101.883	75.87642	71.55637	14.27588	54.145	392.4206	43.23598	79.44614	0.9750004	14.31317	1.426001	1	3	1	0.15	4966	123.2002	116.4888	57.58724	4.033885	200.2337	166.8735	0.9779306	12.78544	362.0427
8/12/2014 11:34:27 AM	11:34:27	163	A	11	59	84.28571	43086.86	58	82.85715	29000	1100.657	75.92049	71.55637	14.27588	54.145	392.2855	43.19578	79.71056	0.9939995	14.31382	1.427999	1	3	1	0.15	4974	126.3999	119.5176	57.33595	4.016283	200.1586	166.3701	0.9777384	12.78293	361.9716
8/12/2014 11:34:37 AM	11:34:37	173	A	11	59	84.28571	43086.86	58	82.85715	29000	1102.052	76.18491	71.55637	14.27588	54.145	392.3305	42.67814	79.75463	1.045	14.31234	1.426001	1	3	1	0.15	4945	125.6001	118.0673	56.84846	3.982135	200.1836	165.5348	0.9769584	12.77273	361.6828
8/12/2014 11:34:47 AM	11:34:47	183	A	11	60	84.28571	43086.86	58	82.85715	29000	1103.192	76.27305	71.55637	14.27588	54.145	391.7002	42.97968	79.7987	1.062	14.31346	1.423	1	3	1	0.15	4903	129.6001	120.9855	57.60735	4.035294	199.8335	167.2425	0.9759312	12.7593	361.3025
8/12/2014 11:34:57 AM	11:34:57	193	A	11	59	84.28571	43086.86	58	82.85715	29000	1108.896	77.37482	71.55637	14.27588	54.145	392.6007	42.41679	79.62242	0.9589996	14.31411	1.403999	1	3	1	0.15	4932	122.7998	115.6913	56.7178	3.972983	200.3337	166.2252	0.9695919	12.67642	358.9556
8/12/2014 11:35:07 AM	11:35:07	203	A	11	59	84.28571	43086.86	58	82.85715	29000	1108.516	77.68331	71.55637	14.27588	54.145	392.8708	42.74347	79.75463	1.113001	14.31245	1.415001	1	3	1	0.15	4936	125.2002	117.8524	56.76807	3.976503	200.4838	166.5869	0.9732032	12.72363	360.2926
8/12/2014 11:35:17 AM	11:35:17	213	A	11	59	84.28571	43086.86	57	81.42857	28500	1103.784	77.59517	71.55637	14.27588	54.145	392.9609	42.57259	79.84277	0.927	14.31299	1.421	1	3	1	0.15	4927	126	118.2005	57.52192	4.029309	200.5338	168.1451	0.9775704	12.78073	361.9093
8/12/2014 11:35:27 AM	11:35:27	223	A	11	59	84.28571	43086.86	57	81.42857	28500	1103.066	76.97818	71.55637	14.27588	54.145	393.186	43.08522	79.88684	1.014	14.31209	1.424	1	3	1	0.15	4930	123.3999	116.2072	57.21534	4.007834	200.6589	166.9779	0.9768263	12.771	361.6339
8/12/2014 11:35:37 AM	11:35:37	233	A	11	59	84.28571	43086.86	58	82.85715	29000	1101.671	77.02225	71.55637	14.27588	54.145	393.0509	42.88419	79.7987	1.035	14.3135	1.426001	1	3	1	0.15	4976	124.3999	118.0497	57.64253	4.037758	200.5838	167.9336	0.9779822	12.78611	362.0618
8/12/2014 11:35:47 AM	11:35:47	243	A	11	59	84.28571	43086.86	58	82.85715	29000	1099.517	76.66969	71.55637	14.27588	54.145	392.8708	43.52245	79.88684	1.056999	14.31248	1.436001	1	3	1	0.15	4942	124.2002	116.8668	57.23545	4.009243	200.4838	166.7683	0.9809179	12.8245	363.1487
8/12/2014 11:35:57 AM	11:35:57	253	A	11	59	84.28571	43086.86	58	82.85715	29000	1100.108	75.83234	71.55637	14.27588	54.145	392.1955	43.22091	79.88684	0.9969997	14.31407	1.457001	1	3	1	0.15	4940	125.6001	118.1362	57.41637	4.021916	200.1086	166.6877	0.9867401	12.90061	365.3041
8/12/2014 11:36:07 AM	11:36:07	263	A	11	59	84.28571	43086.86	58	82.85715	29000	1100.066	75.43359	71.55637	14.27588	54.145	391.5201	43.437	79.88684	1.049	14.31476	1.433001	1	3	1	0.15	4966	123	116.2995	57.24046	4.009594	199.7334	165.7652	0.9833888	12.8568	364.0634
8/12/2014 11:36:17 AM	11:36:17	273	A	11	60	85.71429	43817.14	58	84.28571	29500	1098.714	75.29887	71.55637	14.27588	54.145	391.5651	43.53249	79.7987	1.08	14.31353	1.436001	1	3	1	0.15	5012	124	118.3311	57.47667	4.02614	199.7584	166.162	0.9803672	12.81729	362.9447
8/12/2014 11:36:27 AM	11:36:27	283	A	11	59	84.28571	43086.86	58	82.85715	29000	1098.08	75.56792	71.55637	14.27588	54.145	391.8353	42.66808	79.7987	1.07	14.31436	1.426001	1	3	1	0.15	4979	125.6001	119.2582	57.67771	4.040223	199.9085	166.8137	0.9769776	12.77298	361.6899
8/12/2014 11:36:37 AM	11:36:37	293	A	11	60	85.71429	43817.14	58	82.85715	29000	1101.376	75.61199	71.55637	14.27588	54.145	392.0154	43.27116	79.71056	1.034	14.31368	1.440001	1	3	1	0.15	4930	128.2002	120.1498	57.86366	4.053248	200.0086	167.2475	0.982489	12.84504	363.7303
8/12/2014 11:36:47 AM	11:36:47	303	A	11	59	84.28571	43086.86	58	82.85715	29000	1100.404	75.7442	71.55637	14.27588	54.145	392.2855	43.45711	79.71056	0.9969997	14.31144	1.427999	1	3	1	0.15	4987	121.6001	115.4621	57.45658	4.024733	200.1586	166.4845	0.9776322	12.78154	361.9323
8/12/2014 11:36:57 AM	11:36:57	313	A	11	59	84.28571	43086.86	59	82.85715	29000	1099.136	75.70013	71.55637	14.27588	54.145	392.2855	43.437	79.84277	1.052	14.3157	1.445999	1	3	1	0.15	5002	124.2002	118.4759	57.64253	4.037758	200.1586	166.847	0.9841387	12.8666	364.341
8/12/2014 11:37:07 AM	11:37:07	323	A	11	59	84.28571	43086.86	58	82.85715	29000	1105.347	76.0527	71.55637	14.27588	54.145	392.9158	43.33147	79.93092	0.934	14.31064	1.417	1	3	1	0.15	4940	125.2002	117.7601	56.94395	3.988824	200.5088	165.6331	0.9736531	12.72952	360.4591
8/12/2014 11:37:17 AM	11:37:17	333	A	11	59	84.28571	43086.86	57	82.85715	29000	1102.981	76.31712	71.55637	14.27588	54.145	393.186	42.94951	79.7987	1.042	14.31585	1.434	1	3	1	0.15	4926	126	118.3643	57.42643	4.022621	200.6589	166.8902	0.9773799	12.77824	361.8388
8/12/2014 11:37:27 AM	11:37:27	343	A	11	59	85.71429	43817.14	57	81.42857	28500	1101.08	76.27305	71.55637	14.27588	54.145	392.8708	43.01988	79.75463	0.9500008	14.31364	1.434	1	3	1	0.15	4953	121.6001	114.4861	57.68273	4.040574	200.4838	167.4041	0.9814235	12.83111	363.3358
8/12/2014 11:37:37 AM	11:37:37	353	A	11	59	84.28571	43086.86	59	84.28571	29500	1099.432	76.36119	71.55637	14.27588	54.145	393.0059	42.96459	79.75463	1.032	14.31491	1.441	1	3	1	0.15	5002	123	117.3333	57.57719	4.033181	200.5588	167.2502	0.9821475	12.84057	363.6039
8/12/2014 11:37:47 AM	11:37:47	363	A	11	59	84.28571	43086.86	58	82.85715	29000	1101.502	76.40527	71.55637	14.27588	54.145	391.9703	43.17065	79.7987	1.044001	14.31086	1.426001	1	3	1	0.15	4964	124.7998	117.765	57.73299	4.044095	199.9835	167.6204	0.9751652	12.74928	361.0189
8/12/2014 11:37:57 AM	11:37:57	373	A	11	59	84.28571	43086.86	58	82.85715	29000	1103.911	76.53748	71.55637	14.27588	54.145	390.7997	43.26614	79.84277	1.021999	14.31556	1.424	1	3	1	0.15	4958	125.6001	118.0002	57.78828	4.047967	199.3332	167.8476	0.9773237	12.7775	361.818
8/12/2014 11:38:07 AM	11:38:07	383	A	11	59	84.28571	43086.86	58	82.85715	29000	1102.136	76.22898	71.55637	14.27588	54.145	390.5746	42.84398	79.88684	1.011	14.31147	1.424	1	3	1	0.15	4937	122	115.0563	57.45658	4.024733	199.2081	166.774	0.9761096	12.76163	361.3685
8/12/2014 11:38:17 AM	11:38:17	393	A	11	59	84.28571	43086.86	58	82.85715	29000	1100.657	76.71376	71.55637	14.27588	54.145	390.6197	43.34152	79.88684	1.150999	14.31277	1.445	1	3	1	0.15	4997	122.7998	117.0255	57.36611	4.018395	199.2332	167.086	0.9829747	12.85139	363.9101
8/12/2014 11:38:27 AM	11:38:27	403	A	11	59	84.28571	43086.86	58	82.85715	29000	1100.784	76.36119	71.55637	14.27588	54.145	390.0344	42.9847	79.88684	1.016001	14.31332	1.437	1	3	1	0.15	4985	123.7998	117.8837	57.0294	3.994809	198.908	166.0705	0.9806045	12.8204	363.0327
8/12/2014 11:38:37 AM	11:38:37	413	A	11	59	84.28571	43086.86	58	82.85715	29000	1101.038	76.31712	71.55637	14.27588	54.145	389.4941	43.19578	79.75463	1.017	14.31407	1.448	1	3	1	0.15	4959	124.3999	117.0798	58.03453	4.065217	198.6078	168.1926	0.9844882	12.87117	364.4705
8/12/2014 11:38:47 AM	11:38:47	423	A	11	60	85.71429	43817.14	57	82.85715	29000	1104.206	76.44933	71.55637	14.27588	54.145	389.2239	43.18572	79.88684	1.084	14.31194	1.437	1	3	1	0.15	4900	123.7998	115.8736	57.49678	4.027549	198.4577	167.1499	0.9805651	12.81988	363.018
8/12/2014 11:38:57 AM	11:38:57	433	A	11	59	84.28571	43086.86	60	84.28571	29500	1110.206	76.71376	71.55637	14.27588	54.145	391.9253	43.64306	80.01905	1.134001	14.31299	1.476	1	3	1	0.15	5060	124.7998	120.4278	58.49187	4.097253	199.9585	169.493	0.9939867	12.99536	367.9869
8/12/2014 11:39:07 AM	11:39:07	443	A	11	59	84.28571	43086.86	59	84.28571	29500	1107.629	76.18491	71.55637	14.27588	54.145	392.7808	43.86419	79.93092	1.139999	14.31733	1.465	1	3	1	0.15	5084	125.2002	120.999	58.13002	4.071906	200.4338	168.2873	0.9901739	12.94551	366.5753
8/12/2014 11:39:17 AM	11:39:17	453	A	11	60	85.71429	43817.14	59	84.28571	29500	1108.939	76.0527	71.55637	14.27588	54.145	393.0509	44.04512	79.93092	1.153	14.31491	1.492001	1	3	1	0.15	5062	128.2002	123.7522	58.44161	4.093732	200.5838	168.8409	0.9991544	13.06292	369.9
8/12/2014 11:39:27 AM	11:39:27	463	A	11	60	85.71429	43817.14	58	84.28571	29500	1110.84	76.09677	71.55637	14.27588	54.145	393.321	43.75363	80.06313	1.094999	14.31469	1.488001	1	3	1	0.15	4995	129.7998	124.0163	58.02449	4.064514	200.7339	167.9897	0.9953411	13.01306	368.4883
8/12/2014 11:39:37 AM	11:39:37	473	A	11	60	84.28571	43086.86	60	85.71429	30000	1113.29	76.58155	71.55637	14.27588	54.145	394.2215	43.71343	79.88684	1.106001	14.31472	1.462	1	3	1	0.15	5067	124.6001	119.8228	57.56715	4.032477	201.2342	167.4097	0.9891125	12.93163	366.1824
8/12/2014 11:39:47 AM	11:39:47	483	A	11	59	84.28571	43086.86	60	84.28571	29500	1111.347	78.07995	71.55637	14.27588	54.145	395.212	43.5526	79.93092	1.076	14.31628	1.457001	1	3	1	0.15	5061	125.3999	120.4516	58.05464	4.066626	201.7845	169.6872	0.9874381	12.90974	365.5625
8/12/2014 11:39:57 AM	11:39:57	493	A	11	59	85.71429	43817.14	58	82.85715	29000	1123.05	78.25623	71.55637	14.27588	54.145	395.7523	42.79372	79.93092	1.048	14.31285	1.438	1	3	1	0.15	5012	125.7998	120.0486	57.22539	4.008538	202.0846	168.0478	0.9809079	12.82436	363.1449
8/12/2014 11:40:07 AM	11:40:07	503	A	11	60	85.71429	43817.14	58	82.85715	29000	1117.22	78.741	71.55637	14.27588	54.145	397.103	43.38676	80.06313	1.069	14.31451	1.473	1	3	1	0.15	4952	130.3999	122.9487	57.74303	4.044798	202.835	169.6713	0.9926541	12.97793	367.4936
8/12/2014 11:40:17 AM	11:40:17	513	A	11	59	85.71429	43817.14	59	84.28571	29500	1111.643	78.07995	71.55637	14.27588	54.145	396.4276	43.93958	80.06313	1.104	14.31577	1.469	1	3	1	0.15	5066	124.3999	120.3775	57.96416	4.060288	202.4598	169.4934	0.9913538	12.96093	367.0121
8/12/2014 11:40:27 AM	11:40:27	523	A	11	59	84.28571	43086.86	60	84.28571	29500	1110.755	77.50703	71.55637	14.27588	54.145	396.2025	43.94461	79.97498	1.046	14.31592	1.466	1	3	1	0.15	5064	125.7998	121.2941	57.79329	4.048319	202.3348	168.6558	0.9904205	12.94873	366.6667
8/12/2014 11:40:37 AM	11:40:37	533	A	11	60	85.71429	43817.14	59	84.28571	29500	1106.108	77.19853	71.55637	14.27588	54.145	395.257	44.09537	80.1072	1.141001	14.31462	1.473	1	3	1	0.15	5054	126.2002	121.4399	58.16018	4.074018	201.8095	169.1867	0.9926189	12.97747	367.4805
8/12/2014 11:40:47 AM	11:40:47	543	A	11	60	85.71429	43817.14	58	82.85715	29000	1110.037	76.58155	71.55637	14.27588	54.145	394.9419	43.51742	80.06313	1.138	14.31718	1.466999	1	3	1	0.15	5007	131	124.3143	57.97423	4.060993	201.6344	168.2816	0.9883759	12.922	365.9097
8/12/2014 11:40:57 AM	11:40:57	553	A	11	59	84.28571	43086.86	59	84.28571	29500	1108.262	76.36119	71.55637	14.27588	54.145	393.7713	43.64306	80.1072	1.08	14.31447	1.469999	1	3	1	0.15	5035	124.6001	119.4494	58.13002	4.071906	200.9841	168.4325	0.9916114	12.9643	367.1075
8/12/2014 11:41:07 AM	11:41:07	563	A	11	59	85.71429	43817.14	59	84.28571	29500	1106.868	76.27305	71.55637	14.27588	54.145	393.186	43.85918	80.06313	1.110001	14.31476	1.473	1	3	1	0.15	5062	125	120.4754	58.25566	4.080707	200.6589	168.6274	0.9906531	12.95177	366.7527
8/12/2014 11:41:17 AM	11:41:17	573	A	11	60	85.71429	43817.14	59	84.28571	29500	1104.587	75.83234	71.55637	14.27588	54.145	392.8258	43.52748	80.1072	1.044001	14.31353	1.475	1	3	1	0.15	5046	125.2002	120.6711	57.97924	4.061344	200.4588	167.6756	0.9912405	12.95945	366.9702
8/12/2014 11:41:27 AM	11:41:27	583	A	11	59	84.28571	43086.86	59	82.85715	29000	1107.798	76.18491	71.55637	14.27588	54.145	393.141	43.17567	80.15127	1.017	14.31418	1.466999	1	3	1	0.15	5026	126.3999	120.9582	58.31094	4.084579	200.6339	168.6724	0.9878465	12.91508	365.7137
8/12/2014 11:41:37 AM	11:41:37	593	A	11	59	84.28571	43086.86	59	84.28571	29500	1108.178	76.18491	71.55637	14.27588	54.145	392.4656	43.38676	80.15127	1.084999	14.31454	1.455999	1	3	1	0.15	5015	123.7998	118.2108	57.97423	4.060993	200.2587	167.9551	0.9868478	12.90202	365.344
8/12/2014 11:41:47 AM	11:41:47	603	A	11	60	85.71429	43817.14	59	84.28571	29500	1109.192	76.75783	71.55637	14.27588	54.145	393.231	43.35158	79.97498	1.069	14.31364	1.454	1	3	1	0.15	5051	126.3999	121.1753	57.54704	4.031069	200.6839	167.5113	0.9862955	12.8948	365.1395
8/12/2014 11:41:57 AM	11:41:57	613	A	11	60	85.71429	43817.14	59	84.28571	29500	1107.882	76.97818	71.55637	14.27588	54.145	393.4561	43.69835	80.06313	1.018999	14.31379	1.474001	1	3	1	0.15	5039	126.2002	121.0795	58.25063	4.080355	200.809	169.198	0.9949718	13.00823	368.3516
8/12/2014 11:42:07 AM	11:42:07	623	A	11	59	85.71429	43817.14	58	82.85715	29000	1111.347	77.46296	71.55637	14.27588	54.145	393.5462	43.42696	80.15127	1.046	14.3131	1.464001	1	3	1	0.15	5006	127	121.0489	57.95412	4.059585	200.859	168.9641	0.9834083	12.85706	364.0706
8/12/2014 11:42:17 AM	11:42:17	633	A	11	59	84.28571	43086.86	59	82.85715	29000	1110.333	77.15446	71.55637	14.27588	54.145	393.5012	43.60286	79.97498	1.069	14.31617	1.448	1	3	1	0.15	4988	124.3999	118.1443	57.44151	4.023677	200.834	167.6101	0.9843557	12.86944	364.4214
8/12/2014 11:42:27 AM	11:42:27	643	A	11	60	85.71429	43817.14	58	84.28571	29500	1119.205	79.13764	71.55637	14.27588	54.145	395.3922	42.8088	80.1072	1.034	14.31205	1.406	1	3	1	0.15	5008	124.6001	118.8089	56.62231	3.966294	201.8845	167.4591	0.9697627	12.67865	359.0189
8/12/2014 11:42:37 AM	11:42:37	653	A	11	60	85.71429	43817.14	58	82.85715	29000	1121.022	79.97498	71.55637	14.27588	54.145	396.6528	43.08018	80.15127	1.031	14.31115	1.426001	1	3	1	0.15	4991	125.2002	118.7856	57.19022	4.006074	202.5849	169.3812	0.97656	12.76752	361.5353
8/12/2014 11:42:47 AM	11:42:47	663	A	11	59	85.71429	43817.14	58	82.85715	29000	1114.051	78.91729	71.55637	14.27588	54.145	395.7973	43.7084	80.23941	1.103001	14.31191	1.466999	1	3	1	0.15	4996	126.6001	120.6166	57.71791	4.043038	202.1096	169.6534	0.9900514	12.94391	366.53
8/12/2014 11:42:57 AM	11:42:57	673	A	11	60	85.71429	43817.14	57	82.85715	29000	1113.797	77.72738	71.55637	14.27588	54.145	395.122	42.87413	80.23941	1.018	14.3135	1.426001	1	3	1	0.15	4930	131.2002	123.1537	56.96406	3.990232	201.7344	167.0484	0.9765604	12.76752	361.5354
8/12/2014 11:43:07 AM	11:43:07	0	A	11	59	84.28571	43086.86	58	82.85715	29000	1108.347	77.50703	71.55637	14.27588	54.145	394.3566	42.81886	80.28348	1.098	14.31295	1.444	1	3	1	0.15	5019	123.3999	118.1142	57.2656	4.011355	201.3092	167.5202	0.9822767	12.84226	363.6517
8/12/2014 11:43:17 AM	11:43:17	5	A	12	60	84.28571	43086.86	59	84.28571	29500	1106.826	77.41888	71.55637	14.27588	54.145	393.7263	43.14049	80.32755	1.084999	14.31418	1.437	1	3	1	0.15	5019	124.3999	119.0698	57.76314	4.046207	200.959	168.5186	0.9758036	12.75763	361.2553
8/12/2014 11:43:27 AM	11:43:27	15	A	12	60	84.28571	43086.86	59	84.28571	29500	1107.46	77.1104	71.55637	14.27588	54.145	393.8613	43.40184	80.32755	1.077	14.31462	1.455999	1	3	1	0.15	4998	124.6001	118.5716	57.5973	4.03459	201.0341	167.909	0.9866954	12.90003	365.2876
8/12/2014 11:43:37 AM	11:43:37	25	A	12	59	85.71429	43817.14	57	81.42857	28500	1106.319	77.37482	71.55637	14.27588	54.145	394.1315	42.8289	80.45976	1.046	14.31288	1.441999	1	3	1	0.15	4940	131.6001	123.5914	57.32591	4.015579	201.1842	167.5418	0.981782	12.83579	363.4686
8/12/2014 11:43:47 AM	11:43:47	35	A	12	60	84.28571	43086.86	59	84.28571	29500	1105.305	76.97818	71.55637	14.27588	54.145	393.4111	43.26614	80.41569	1.059999	14.31353	1.451	1	3	1	0.15	5022	124.3999	118.9496	57.74807	4.045151	200.7839	168.1239	0.9862406	12.89408	365.1192
8/12/2014 11:43:57 AM	11:43:57	45	A	12	59	84.28571	43086.86	59	84.28571	29500	1105.601	76.71376	71.55637	14.27588	54.145	394.1765	43.63301	80.50383	1.108999	14.31216	1.448	1	3	1	0.15	5026	125.3999	120.0013	57.62745	4.036702	201.2092	167.6478	0.9844227	12.87032	364.4462
8/12/2014 11:44:07 AM	11:44:07	55	A	12	60	84.28571	43086.86	59	84.28571	29500	1111.812	76.97818	71.55637	14.27588	54.145	394.4916	42.90429	80.28348	1.047001	14.31364	1.433001	1	3	1	0.15	4979	125.3999	118.6898	57.33094	4.015932	201.3842	167.2272	0.9789121	12.79827	362.4061
8/12/2014 11:44:17 AM	11:44:17	65	A	12	60	85.71429	43817.14	58	82.85715	29000	1105.22	76.89004	71.55637	14.27588	54.145	394.5817	43.38173	80.37162	1.049	14.31599	1.452999	1	3	1	0.15	4989	124.7998	118.3581	57.56715	4.032477	201.4343	167.6631	0.985688	12.88686	364.9146
8/12/2014 11:44:27 AM	11:44:27	75	A	12	59	84.28571	43086.86	58	82.85715	29000	1105.981	76.89004	71.55637	14.27588	54.145	394.3116	43.1204	80.28348	1.072001	14.31501	1.452	1	3	1	0.15	4966	123.7998	117.2451	57.23042	4.008891	201.2842	166.9382	0.9843699	12.86963	364.4266
8/12/2014 11:44:37 AM	11:44:37	85	A	12	59	84.28571	43086.86	58	82.85715	29000	1103.699	76.97818	71.55637	14.27588	54.145	394.1765	43.5928	80.37162	1.040001	14.31133	1.450001	1	3	1	0.15	5018	123.2002	118.2815	57.67771	4.040223	201.2092	167.9729	0.984842	12.8758	364.6014
8/12/2014 11:44:47 AM	11:44:47	95	A	12	59	84.28571	43086.86	58	82.85715	29000	1104.587	76.4934	71.55637	14.27588	54.145	394.2665	43.32143	80.32755	1.028	14.31046	1.448999	1	3	1	0.15	4999	125.6001	119.3566	57.45155	4.02438	201.2592	167.0889	0.9841812	12.86716	364.3567
8/12/2014 11:44:57 AM	11:44:57	105	A	12	60	84.28571	43086.86	59	84.28571	29500	1105.263	77.24261	71.55637	14.27588	54.145	393.9514	42.96459	80.41569	1.087999	14.31129	1.459999	1	3	1	0.15	4970	125.6001	118.8537	57.25556	4.010652	201.0841	167.2816	0.9861665	12.89312	365.0918
8/12/2014 11:45:07 AM	11:45:07	115	A	12	59	84.28571	43086.86	58	82.85715	29000	1104.333	77.24261	71.55637	14.27588	54.145	393.7263	43.18071	80.45976	1.035999	14.31465	1.445999	1	3	1	0.15	4950	123	115.7362	57.56211	4.032125	200.959	167.9419	0.9831921	12.85423	363.9906
8/12/2014 11:45:17 AM	11:45:17	125	A	12	59	84.28571	43086.86	59	84.28571	29500	1103.699	77.06632	71.55637	14.27588	54.145	393.5912	42.98973	80.45976	1.025999	14.31491	1.443001	1	3	1	0.15	5007	123	117.2597	57.26057	4.011003	200.884	167.1478	0.9821697	12.84086	363.6121
8/12/2014 11:45:27 AM	11:45:27	135	A	12	59	84.28571	43086.86	59	82.85715	29000	1102.178	76.89004	71.55637	14.27588	54.145	393.5462	43.437	80.41569	1.077999	14.31469	1.465	1	3	1	0.15	4997	125.2002	119.1189	57.27565	4.012059	200.859	167.0357	0.9896425	12.93856	366.3786
8/12/2014 11:45:37 AM	11:45:37	145	A	12	60	84.28571	43086.86	58	84.28571	29500	1101.629	76.4934	71.55637	14.27588	54.145	393.4111	43.25106	80.41569	1.087	14.31234	1.462	1	3	1	0.15	4986	126.7998	120.1856	57.41135	4.021564	200.7839	167.0025	0.9885598	12.92441	365.9778
8/12/2014 11:45:47 AM	11:45:47	155	A	12	59	84.28571	43086.86	58	82.85715	29000	1102.432	76.09677	71.55637	14.27588	54.145	392.7357	43.74861	80.50383	0.9960003	14.3153	1.466999	1	3	1	0.15	4947	131.6001	123.9551	57.74807	4.045151	200.4088	167.3991	0.9909325	12.95543	366.8562
8/12/2014 11:45:57 AM	11:45:57	165	A	12	59	85.71429	43817.14	58	82.85715	29000	1100.404	75.7442	71.55637	14.27588	54.145	392.4206	43.45208	80.50383	1.114	14.31321	1.459	1	3	1	0.15	5007	123.2002	117.0689	57.43144	4.022972	200.2337	166.4306	0.9874986	12.91053	365.5849
8/12/2014 11:46:07 AM	11:46:07	175	A	12	60	84.28571	43086.86	59	84.28571	29500	1101.798	75.92049	71.55637	14.27588	54.145	391.8803	43.46716	80.37162	1.039	14.3148	1.461	1	3	1	0.15	5004	124.7998	118.714	57.76817	4.046559	199.9335	167.2972	0.9879973	12.91705	365.7695
8/12/2014 11:46:17 AM	11:46:17	185	A	12	60	85.71429	43817.14	58	82.85715	29000	1101.207	75.96455	71.55637	14.27588	54.145	391.6101	43.56768	80.32755	1.039	14.31162	1.452	1	3	1	0.15	4991	124.3999	118.2153	57.54704	4.031069	199.7834	166.8597	0.9852349	12.88093	364.7468
8/12/2014 11:46:27 AM	11:46:27	195	A	12	59	84.28571	43086.86	58	81.42857	28500	1118.572	78.52065	71.55637	14.27588	54.145	392.2405	42.19065	80.32755	1.046	14.31173	1.385	1	3	1	0.15	4912	124.3999	116.5314	56.52682	3.959605	200.1336	166.7461	0.9623179	12.58132	356.2627
8/12/2014 11:46:37 AM	11:46:37	205	A	12	59	84.28571	43086.86	58	81.42857	28500	1117.558	82.44294	71.55637	14.27588	54.145	395.032	42.88921	80.28348	0.9400005	14.31299	1.414	1	3	1	0.15	4903	122.2002	113.8906	56.66755	3.969462	201.6844	170.2613	0.9723898	12.713	359.9915
8/12/2014 11:46:47 AM	11:46:47	215	A	12	59	84.28571	43086.86	59	84.28571	29500	1104.206	81.20896	71.55637	14.27588	54.145	394.6718	42.89927	80.19534	1.038	14.31332	1.444	1	3	1	0.15	4994	123.7998	117.5259	57.52192	4.029309	201.4843	171.1133	0.9813492	12.83013	363.3083
8/12/2014 11:46:57 AM	11:46:57	225	A	12	59	84.28571	43086.86	58	82.85715	29000	1102.728	79.13764	71.55637	14.27588	54.145	393.5462	43.05003	80.28348	0.9839993	14.31173	1.421	1	3	1	0.15	4986	125	118.8567	57.11482	4.000793	200.859	168.531	0.9757615	12.75708	361.2397
8/12/2014 11:47:07 AM	11:47:07	235	A	12	59	84.28571	43086.86	58	82.85715	29000	1102.221	78.12402	71.55637	14.27588	54.145	393.276	43.4923	80.28348	1.056	14.3135	1.448	1	3	1	0.15	4964	125.6001	118.3322	57.43647	4.023324	200.7089	168.5038	0.9846545	12.87335	364.532
8/12/2014 11:47:17 AM	11:47:17	245	A	12	59	84.28571	43086.86	58	82.85715	29000	1101.84	77.24261	71.55637	14.27588	54.145	392.5107	42.96962	80.32755	1.045	14.31321	1.441999	1	3	1	0.15	4945	123.6001	116.5608	57.17514	4.005019	200.2837	167.1079	0.9819166	12.83755	363.5184
8/12/2014 11:47:27 AM	11:47:27	255	A	12	59	85.71429	43817.14	58	82.85715	29000	1100.615	76.53748	71.55637	14.27588	54.145	392.1054	43.54256	80.19534	1.066	14.31357	1.443001	1	3	1	0.15	5020	123.3999	117.7555	57.17011	4.004666	200.0586	166.5189	0.9810278	12.82593	363.1893
8/12/2014 11:47:37 AM	11:47:37	265	A	12	59	84.28571	43086.86	59	84.28571	29500	1100.615	76.36119	71.55637	14.27588	54.145	391.9703	42.92942	80.19534	1.033001	14.31415	1.441999	1	3	1	0.15	4997	125.6001	119.1189	57.55207	4.031422	199.9835	167.1963	0.9820688	12.83954	363.5747
8/12/2014 11:47:47 AM	11:47:47	275	A	12	59	84.28571	43086.86	58	82.85715	29000	1100.531	76.36119	71.55637	14.27588	54.145	392.1955	43.11537	80.28348	1.032	14.31321	1.447001	1	3	1	0.15	4970	124.7998	118.0964	57.12489	4.001498	200.1086	166.2767	0.9836339	12.86	364.1541
8/12/2014 11:47:57 AM	11:47:57	285	A	12	59	84.28571	43086.86	58	82.85715	29000	1101.038	76.44933	71.55637	14.27588	54.145	392.9158	43.55763	80.06313	0.9820004	14.31469	1.434	1	3	1	0.15	4933	130.3999	121.9134	57.49678	4.027549	200.5088	167.1499	0.9828665	12.84997	363.8701
8/12/2014 11:48:07 AM	11:48:07	295	A	12	59	84.28571	43086.86	58	82.85715	29000	1099.136	76.4934	71.55637	14.27588	54.145	392.6907	43.2762	80.23941	1.028999	14.31483	1.448	1	3	1	0.15	4980	122	115.8691	57.83852	4.051487	200.3837	167.9189	0.9840657	12.86565	364.314
8/12/2014 11:48:17 AM	11:48:17	305	A	12	59	84.28571	43086.86	59	84.28571	29500	1101.925	75.92049	71.55637	14.27588	54.145	392.3756	43.12542	80.19534	1.004	14.31057	1.415001	1	3	1	0.15	4990	122.6001	116.1017	57.61739	4.035997	200.2087	166.9743	0.9727203	12.71732	360.1138
8/12/2014 11:48:27 AM	11:48:27	315	A	12	59	84.28571	43086.86	58	82.85715	29000	1104.206	76.36119	71.55637	14.27588	54.145	392.9158	42.88921	80.06313	1.011	14.3131	1.438999	1	3	1	0.15	4958	124.3999	117.6227	57.55709	4.031773	200.5088	167.2071	0.9811109	12.82702	363.2201
8/12/2014 11:48:37 AM	11:48:37	325	A	12	59	84.28571	43086.86	58	82.85715	29000	1101.038	76.40527	71.55637	14.27588	54.145	392.1955	43.15055	80.28348	1.097	14.31436	1.440001	1	3	1	0.15	4953	125.6001	118.6355	57.39125	4.020156	200.1086	166.8869	0.9813125	12.82965	363.2947
8/12/2014 11:48:47 AM	11:48:47	335	A	12	59	84.28571	43086.86	58	82.85715	29000	1100.7	76.09677	71.55637	14.27588	54.145	392.1054	43.23598	80.06313	1.035	14.31151	1.448999	1	3	1	0.15	4969	122.7998	115.9915	57.62242	4.036349	200.0586	167.1299	0.9834307	12.85735	364.0789
8/12/2014 11:48:57 AM	11:48:57	345	A	12	59	84.28571	43086.86	59	82.85715	29000	1102.643	77.15446	71.55637	14.27588	54.145	392.3305	43.03999	80.15127	1.055	14.31559	1.424999	1	3	1	0.15	4991	123.6001	117.4553	57.40632	4.021212	200.1836	167.5343	0.9766968	12.76931	361.586
8/12/2014 11:49:07 AM	11:49:07	355	A	12	59	84.28571	43086.86	58	82.85715	29000	1104.418	77.41888	71.55637	14.27588	54.145	392.7357	42.84901	80.15127	1.063	14.31494	1.417999	1	3	1	0.15	4971	123.7998	117.3631	57.04447	3.995865	200.4088	166.9698	0.9773771	12.7782	361.8378
8/12/2014 11:49:17 AM	11:49:17	365	A	12	59	84.28571	43086.86	58	81.42857	28500	1110.375	78.91729	71.55637	14.27588	54.145	393.0959	42.44695	79.97498	1	14.31266	1.41	1	3	1	0.15	4918	122.6001	115.1754	56.79822	3.978616	200.6089	167.6623	0.9702558	12.6851	359.2014
8/12/2014 11:49:27 AM	11:49:27	375	A	12	59	84.28571	43086.86	57	81.42857	28500	1110.079	79.09357	71.55637	14.27588	54.145	393.6362	42.20572	80.23941	0.9799995	14.31176	1.385	1	3	1	0.15	4862	129.7998	120.1587	56.26046	3.940947	200.909	166.6312	0.9627593	12.58709	356.4261
8/12/2014 11:49:37 AM	11:49:37	385	A	12	60	85.71429	43817.14	57	82.85715	29000	1116.459	79.97498	71.55637	14.27588	54.145	395.3922	42.36655	80.23941	0.9990005	14.31147	1.391001	1	3	1	0.15	4913	121.2002	113.1875	56.69267	3.971222	201.8845	168.2976	0.9644825	12.60962	357.0641
8/12/2014 11:49:47 AM	11:49:47	395	A	12	59	84.28571	43086.86	58	82.85715	29000	1106.826	79.18172	71.55637	14.27588	54.145	394.4916	42.44193	80.28348	0.9850006	14.31292	1.42	1	3	1	0.15	4934	123.6001	116.3015	56.64242	3.967702	201.3842	167.539	0.9744549	12.74	360.756
8/12/2014 11:49:57 AM	11:49:57	405	A	12	59	84.28571	43086.86	58	82.85715	29000	1101.376	78.52065	71.55637	14.27588	54.145	394.3566	42.61783	80.28348	1.056999	14.31277	1.423	1	3	1	0.15	4933	122.7998	115.3387	56.92386	3.987417	201.3092	167.6109	0.9754618	12.75316	361.1287
8/12/2014 11:50:07 AM	11:50:07	415	A	12	59	84.28571	43086.86	57	82.85715	29000	1102.643	77.8596	71.55637	14.27588	54.145	393.276	42.48213	80.41569	1.004999	14.3144	1.417999	1	3	1	0.15	4924	123.7998	116.2535	57.12991	4.00185	200.7089	167.516	0.9736899	12.73	360.4727
8/12/2014 11:50:17 AM	11:50:17	425	A	12	59	84.28571	43086.86	57	81.42857	28500	1101.883	77.59517	71.55637	14.27588	54.145	393.141	42.76357	80.28348	1.066	14.3135	1.403	1	3	1	0.15	4904	122.2002	114.2872	56.99924	3.992697	200.6339	167.0163	0.9648367	12.61425	357.1952
8/12/2014 11:50:27 AM	11:50:27	435	A	12	59	84.28571	43086.86	58	82.85715	29000	1102.263	77.8596	71.55637	14.27588	54.145	393.276	42.7686	80.28348	0.993	14.31136	1.413	1	3	1	0.15	4958	121.7998	114.9792	57.35606	4.017691	200.7089	168.0047	0.9719933	12.70782	359.8446
8/12/2014 11:50:37 AM	11:50:37	445	A	12	59	84.28571	43086.86	57	81.42857	28500	1099.601	77.37482	71.55637	14.27588	54.145	393.0509	42.67814	80.32755	1.025	14.31339	1.424	1	3	1	0.15	4935	123.6001	115.9493	57.0897	3.999033	200.5838	167.0316	0.9757802	12.75733	361.2466
8/12/2014 11:50:47 AM	11:50:47	455	A	12	59	84.28571	43086.86	57	81.42857	28500	1105.347	77.77145	71.55637	14.27588	54.145	392.8258	42.41679	80.37162	1.013	14.31198	1.405001	1	3	1	0.15	4889	124.2002	115.7994	56.46652	3.955381	200.4588	166.0023	0.9681715	12.65785	358.4297
8/12/2014 11:50:57 AM	11:50:57	465	A	12	59	84.28571	43086.86	57	81.42857	28500	1099.897	77.59517	71.55637	14.27588	54.145	392.2855	42.7284	80.37162	1.018	14.31314	1.416	1	3	1	0.15	4899	122.2002	113.611	57.0897	3.999033	200.1586	167.14	0.972992	12.72087	360.2144
8/12/2014 11:51:07 AM	11:51:07	475	A	12	59	84.28571	43086.86	58	81.42857	28500	1105.601	77.46296	71.55637	14.27588	54.145	392.0604	42.19065	80.28348	0.9920006	14.31126	1.402	1	3	1	0.15	4938	122	114.5154	56.53687	3.960309	200.0336	165.9035	0.968227	12.65858	358.4503
8/12/2014 11:51:17 AM	11:51:17	485	A	12	59	84.28571	43086.86	58	82.85715	29000	1104.08	77.33075	71.55637	14.27588	54.145	392.2405	42.71331	80.45976	0.9950008	14.31281	1.409	1	3	1	0.15	4927	123.2002	115.7613	56.96909	3.990585	200.1336	166.7344	0.9701639	12.6839	359.1674
8/12/2014 11:51:27 AM	11:51:27	495	A	12	59	84.28571	43086.86	58	82.85715	29000	1101.038	76.89004	71.55637	14.27588	54.145	391.8353	43.10029	80.32755	0.9629993	14.30952	1.427	1	3	1	0.15	4920	124.2002	116.3466	56.99924	3.992697	199.9085	166.4386	0.97669	12.76922	361.5834
8/12/2014 11:51:37 AM	11:51:37	505	A	12	59	84.28571	43086.86	57	81.42857	28500	1098.164	76.89004	71.55637	14.27588	54.145	391.25	42.71834	80.41569	1.031	14.31245	1.407	1	3	1	0.15	4900	128	119.2319	56.83842	3.981431	199.5833	166.0903	0.9698676	12.68002	359.0577
8/12/2014 11:51:47 AM	11:51:47	515	A	12	59	84.28571	43086.86	58	82.85715	29000	1100.066	76.89004	71.55637	14.27588	54.145	390.8448	42.71331	80.28348	1.018	14.31335	1.414	1	3	1	0.15	4932	121.6001	114.5642	56.91883	3.987064	199.3582	166.2645	0.9724102	12.71326	359.999
8/12/2014 11:51:57 AM	11:51:57	525	A	12	59	84.28571	43086.86	58	82.85715	29000	1099.178	76.93411	71.55637	14.27588	54.145	390.5746	43.07516	80.28348	1.032	14.31234	1.407	1	3	1	0.15	4952	124.2002	117.1033	56.50672	3.958196	199.2081	165.4056	0.96997	12.68136	359.0956
8/12/2014 11:52:07 AM	11:52:07	535	A	12	59	84.28571	43086.86	58	81.42857	28500	1100.108	77.19853	71.55637	14.27588	54.145	390.7547	42.36655	80.32755	1.011	14.31198	1.410999	1	3	1	0.15	4922	123.7998	116.2063	57.64756	4.03811	199.3082	168.0893	0.9712896	12.69861	359.5841
8/12/2014 11:52:17 AM	11:52:17	545	A	12	59	84.28571	43086.86	57	81.42857	28500	1101.629	77.19853	71.55637	14.27588	54.145	390.6197	42.69823	80.23941	1.041	14.31165	1.410999	1	3	1	0.15	4902	124.6001	116.1073	56.86354	3.983191	199.2332	166.3973	0.9713666	12.69962	359.6126
8/12/2014 11:52:27 AM	11:52:27	555	A	12	59	84.28571	43086.86	57	81.42857	28500	1104.587	77.8596	71.55637	14.27588	54.145	391.385	42.67311	80.41569	1.030001	14.31379	1.382999	1	3	1	0.15	4887	121.2002	112.7747	56.99924	3.992697	199.6584	167.233	0.9616392	12.57245	356.0114
8/12/2014 11:52:37 AM	11:52:37	565	A	12	59	84.28571	43086.86	57	81.42857	28500	1106.065	77.99181	71.55637	14.27588	54.145	391.5201	42.56757	80.5479	1.002001	14.31089	1.389	1	3	1	0.15	4914	123.2002	115.2691	56.68765	3.97087	199.7334	166.6643	0.9614157	12.56952	355.9287
8/12/2014 11:52:47 AM	11:52:47	575	A	12	59	84.28571	43086.86	57	81.42857	28500	1114.093	79.53428	71.55637	14.27588	54.145	392.8258	42.44193	80.37162	0.9489994	14.30967	1.362	1	3	1	0.15	4867	122	112.6838	56.01923	3.924048	200.4588	166.4606	0.9542251	12.47551	353.2666
8/12/2014 11:52:57 AM	11:52:57	585	A	12	59	84.28571	43086.86	57	81.42857	28500	1108.516	79.84277	71.55637	14.27588	54.145	393.8163	41.90418	80.41569	0.9629993	14.30988	1.365999	1	3	1	0.15	4876	122	113.4493	56.90375	3.986008	201.0091	168.6499	0.9555752	12.49316	353.7664
8/12/2014 11:53:07 AM	11:53:07	595	A	12	59	84.28571	43086.86	56	81.42857	28500	1112.699	80.76826	71.55637	14.27588	54.145	394.9419	42.24091	80.45976	0.9990005	14.31212	1.403	1	3	1	0.15	4813	124	113.8163	56.58713	3.963829	201.6344	168.7154	0.9684426	12.66139	358.5301
8/12/2014 11:53:17 AM	11:53:17	605	A	12	59	84.28571	43086.86	57	82.85715	29000	1105.136	79.18172	71.55637	14.27588	54.145	394.2215	42.55751	80.41569	0.9419994	14.31075	1.370001	1	3	1	0.15	4931	121.2002	113.7901	56.5419	3.960661	201.2342	167.3195	0.956661	12.50736	354.1684
8/12/2014 11:53:27 AM	11:53:27	615	A	12	59	84.28571	43086.86	58	82.85715	29000	1103.911	78.78507	71.55637	14.27588	54.145	393.4561	42.16551	80.45976	1.002001	14.31357	1.392	1	3	1	0.15	4931	123	115.4799	56.13985	3.932498	200.809	166.1148	0.9646876	12.6123	357.14
8/12/2014 11:53:37 AM	11:53:37	625	A	12	59	84.28571	43086.86	57	81.42857	28500	1098.207	78.16809	71.55637	14.27588	54.145	392.8258	42.20069	80.5479	0.9890003	14.31205	1.396	1	3	1	0.15	4916	123.7998	116.0646	57.06458	3.997274	200.4588	167.6274	0.9659334	12.62859	357.6012
8/12/2014 11:53:47 AM	11:53:47	635	A	12	59	84.28571	43086.86	57	82.85715	29000	1099.897	77.8596	71.55637	14.27588	54.145	392.4206	42.3213	80.50383	1.018999	14.31285	1.408001	1	3	1	0.15	4896	124.2002	115.779	56.93893	3.988472	200.2337	167.1022	0.9680832	12.65669	358.3971
8/12/2014 11:53:57 AM	11:53:57	645	A	12	59	84.28571	43086.86	57	81.42857	28500	1101.418	77.72738	71.55637	14.27588	54.145	392.6007	42.41679	80.68011	1.059	14.31089	1.399	1	3	1	0.15	4867	121.3999	112.4983	56.91883	3.987064	200.3337	166.9503	0.9647467	12.61307	357.1618
8/12/2014 11:54:07 AM	11:54:07	655	A	12	59	84.28571	43086.86	58	81.42857	28500	1099.01	77.72738	71.55637	14.27588	54.145	392.4656	42.48716	80.5479	1.013	14.3131	1.396999	1	3	1	0.15	4916	122.2002	114.38	56.44138	3.95362	200.2587	165.9114	0.9673564	12.64719	358.128
8/12/2014 11:54:17 AM	11:54:17	665	A	12	59	84.28571	43086.86	57	81.42857	28500	1098.164	77.72738	71.55637	14.27588	54.145	392.4656	42.61783	80.68011	1.002001	14.31223	1.372999	1	3	1	0.15	4899	124.2002	115.85	56.72282	3.973334	200.2587	166.5246	0.9578826	12.52333	354.6207
8/12/2014 11:54:27 AM	11:54:27	675	A	12	59	84.28571	43086.86	57	81.42857	28500	1094.742	77.68331	71.55637	14.27588	54.145	392.2855	42.32633	80.76826	1.014	14.31465	1.386999	1	3	1	0.15	4885	123	114.5888	56.83842	3.981431	200.1586	166.7397	0.9627115	12.58646	356.4084
8/12/2014 11:54:42 AM	11:54:42	0	A	12	59	84.28571	43086.86	57	81.42857	28500	1098.925	77.8596	71.55637	14.27588	54.145	392.0154	42.9445	80.76826	1.058001	14.31223	1.396	1	3	1	0.15	4866	122	113.0311	56.66251	3.96911	200.0086	166.5014	0.9657584	12.6263	357.5364
8/12/2014 11:54:52 AM	11:54:52	3	A	13	59	84.28571	43086.86	57	81.42857	28500	1098.418	77.99181	71.55637	14.27588	54.145	391.9703	42.59269	80.72418	0.9960003	14.31263	1.400999	1	3	1	0.15	4911	122.6001	114.6376	56.74293	3.974742	199.9835	166.7846	0.9675147	12.64926	358.1866
8/12/2014 11:55:02 AM	11:55:02	13	A	13	58	84.28571	43086.86	57	81.42857	28500	1101.714	78.6088	71.55637	14.27588	54.145	391.7452	42.10019	80.76826	1.073	14.31176	1.403999	1	3	1	0.15	4879	122	113.3331	56.59718	3.964533	199.8585	166.9718	0.9688407	12.6666	358.6775
8/12/2014 11:55:12 AM	11:55:12	23	A	13	59	84.28571	43086.86	57	81.42857	28500	1100.531	78.43251	71.55637	14.27588	54.145	391.8353	42.57259	80.8564	1.059999	14.31082	1.392	1	3	1	0.15	4879	123.7998	115.0051	56.60221	3.964885	199.9085	166.8386	0.9652918	12.6202	357.3637
8/12/2014 11:55:22 AM	11:55:22	33	A	13	59	84.28571	43086.86	57	81.42857	28500	1097.869	78.12402	71.55637	14.27588	54.145	391.5201	42.77864	80.8564	1.004	14.31266	1.402	1	3	1	0.15	4855	126.7998	117.3976	57.2656	4.011355	199.7334	168.0263	0.9677448	12.65227	358.2718
8/12/2014 11:55:32 AM	11:55:32	43	A	13	59	84.28571	43086.86	57	81.42857	28500	1098.925	77.99181	71.55637	14.27588	54.145	391.6552	42.58766	80.81232	0.9820004	14.31216	1.415001	1	3	1	0.15	4902	122.2002	114.0542	56.61226	3.965589	199.8084	166.5001	0.9742939	12.73789	360.6964
8/12/2014 11:55:42 AM	11:55:42	53	A	13	59	84.28571	43086.86	58	82.85715	29000	1097.531	77.68331	71.55637	14.27588	54.145	391.5201	42.68315	80.81232	1.013	14.3127	1.382999	1	3	1	0.15	4906	122.7998	115.0814	56.73288	3.974039	199.7334	166.5103	0.9612303	12.5671	355.86
8/12/2014 11:55:52 AM	11:55:52	63	A	13	59	84.28571	43086.86	57	81.42857	28500	1097.784	77.72738	71.55637	14.27588	54.145	391.8803	42.25598	80.90047	0.9920006	14.30938	1.393999	1	3	1	0.15	4892	122.2002	113.8216	56.28559	3.942707	199.9335	165.571	0.9648491	12.61441	357.1998
8/12/2014 11:56:02 AM	11:56:02	73	A	13	59	84.28571	43086.86	57	81.42857	28500	1098.164	77.8596	71.55637	14.27588	54.145	391.9703	42.47711	80.8564	1.016001	14.31129	1.406	1	3	1	0.15	4869	124.7998	115.882	56.81329	3.979671	199.9835	166.8294	0.9663243	12.6337	357.7459
8/12/2014 11:56:12 AM	11:56:12	83	A	13	59	84.28571	43086.86	57	81.42857	28500	1097.277	77.5511	71.55637	14.27588	54.145	391.9703	42.62788	80.98861	1.017	14.31498	1.410999	1	3	1	0.15	4883	121.6001	112.8681	56.5218	3.959253	199.9835	165.9427	0.9708046	12.69228	359.4046
8/12/2014 11:56:22 AM	11:56:22	93	A	13	59	84.28571	43086.86	57	81.42857	28500	1096.39	77.33075	71.55637	14.27588	54.145	391.6101	42.67311	81.03268	1.054001	14.31726	1.409	1	3	1	0.15	4923	121.6001	114.1675	56.65247	3.968406	199.7834	166.047	0.9715227	12.70166	359.6704
8/12/2014 11:56:32 AM	11:56:32	103	A	13	59	84.28571	43086.86	57	81.42857	28500	1095.122	77.06632	71.55637	14.27588	54.145	391.5651	42.48716	80.98861	1.021	14.31371	1.402	1	3	1	0.15	4901	123	115.1505	56.88364	3.984599	199.7584	166.3327	0.9676708	12.6513	358.2444
8/12/2014 11:56:42 AM	11:56:42	113	A	13	59	84.28571	43086.86	58	81.42857	28500	1096.094	76.89004	71.55637	14.27588	54.145	391.385	42.81382	80.94453	1.021	14.31382	1.410999	1	3	1	0.15	4890	124.2002	115.4507	56.54693	3.961013	199.6584	165.4571	0.9707909	12.69209	359.3995
8/12/2014 11:56:52 AM	11:56:52	123	A	13	59	84.28571	43086.86	56	81.42857	28500	1096.094	76.93411	71.55637	14.27588	54.145	391.1149	43.09526	80.94453	0.9650002	14.3148	1.423	1	3	1	0.15	4835	127	117.4664	56.78314	3.97756	199.5083	166.0065	0.9749457	12.74641	360.9377
8/12/2014 11:57:02 AM	11:57:02	133	A	13	59	84.28571	43086.86	58	82.85715	29000	1096.981	76.66969	71.55637	14.27588	54.145	391.1599	42.84901	80.98861	1.072001	14.31321	1.421	1	3	1	0.15	4914	122	114.1461	56.84846	3.982135	199.5333	165.9317	0.9741527	12.73605	360.6441
8/12/2014 11:57:12 AM	11:57:12	143	A	13	59	84.28571	43086.86	58	81.42857	28500	1094.573	76.62562	71.55637	14.27588	54.145	390.8898	42.653	80.98861	0.9820004	14.31429	1.431	1	3	1	0.15	4928	123.6001	115.7849	56.89371	3.985304	199.3832	165.9936	0.9752336	12.75018	361.0442
8/12/2014 11:57:22 AM	11:57:22	153	A	13	59	84.28571	43086.86	57	82.85715	29000	1095.587	76.4934	71.55637	14.27588	54.145	390.5746	42.6128	80.81232	1.033001	14.31397	1.42	1	3	1	0.15	4912	124.3999	116.3442	56.93391	3.98812	199.2081	165.9723	0.9740161	12.73426	360.5935
8/12/2014 11:57:32 AM	11:57:32	163	A	13	59	84.28571	43086.86	57	81.42857	28500	1095.63	76.44933	71.55637	14.27588	54.145	390.5746	42.44695	80.81232	1.08	14.31126	1.419001	1	3	1	0.15	4859	128.2002	118.4195	56.83842	3.981431	199.2081	165.7295	0.9742589	12.73744	360.6834
8/12/2014 11:57:42 AM	11:57:42	173	A	13	59	84.28571	43086.86	58	82.85715	29000	1097.404	76.44933	71.55637	14.27588	54.145	390.7547	42.68315	80.8564	1.101999	14.30981	1.408001	1	3	1	0.15	4915	121	113.4209	56.78815	3.977911	199.3082	165.6205	0.9697271	12.67819	359.0056
8/12/2014 11:57:52 AM	11:57:52	183	A	13	59	84.28571	43086.86	58	82.85715	29000	1095.756	76.71376	71.55637	14.27588	54.145	390.8448	42.27106	80.68011	1.128	14.31361	1.41	1	3	1	0.15	4928	123.6001	115.9727	56.70774	3.972278	199.3582	165.6625	0.9665711	12.63693	357.8373
8/12/2014 11:58:02 AM	11:58:02	193	A	13	59	84.28571	43086.86	57	81.42857	28500	1092.883	76.66969	71.55637	14.27588	54.145	390.7097	42.82387	80.81232	0.9890003	14.31476	1.422001	1	3	1	0.15	4906	123.3999	115.4549	56.87863	3.984248	199.2832	165.997	0.9747196	12.74346	360.8539
8/12/2014 11:58:12 AM	11:58:12	203	A	13	59	84.28571	43086.86	57	81.42857	28500	1097.193	76.4934	71.55637	14.27588	54.145	390.5296	42.93947	80.76826	1.101	14.31368	1.421	1	3	1	0.15	4896	124.6001	115.9652	57.16508	4.004313	199.1831	166.4718	0.9743763	12.73897	360.7268
8/12/2014 11:58:22 AM	11:58:22	213	A	13	59	84.28571	43086.86	57	80	28000	1096.052	76.40527	71.55637	14.27588	54.145	390.1244	42.88419	80.76826	1.004	14.31335	1.421	1	3	1	0.15	4850	123.2002	113.5829	57.05955	3.996921	198.958	166.1718	0.9777741	12.78339	361.9848
8/12/2014 11:58:32 AM	11:58:32	223	A	13	59	84.28571	43086.86	58	82.85715	29000	1095.292	76.09677	71.55637	14.27588	54.145	389.7642	42.46705	80.68011	1.099001	14.31379	1.422001	1	3	1	0.15	4942	121.7998	114.6082	56.92887	3.987768	198.7579	165.6366	0.9747965	12.74446	360.8824
8/12/2014 11:58:42 AM	11:58:42	233	A	13	59	84.28571	43086.86	57	81.42857	28500	1095.08	76.27305	71.55637	14.27588	54.145	390.1694	42.83895	80.68011	1.023001	14.31534	1.431999	1	3	1	0.15	4924	123.7998	116.0658	57.21031	4.007482	198.983	166.3887	0.9782659	12.78982	362.1668
8/12/2014 11:58:52 AM	11:58:52	243	A	13	59	84.28571	43086.86	58	82.85715	29000	1096.179	76.27305	71.55637	14.27588	54.145	390.1694	42.58265	80.5479	1.007	14.31368	1.424	1	3	1	0.15	4908	122.7998	114.9412	57.10478	4.00009	198.983	166.1611	0.9779933	12.78626	362.0659
8/12/2014 11:59:02 AM	11:59:02	253	A	13	59	84.28571	43086.86	57	81.42857	28500	1097.742	76.53748	71.55637	14.27588	54.145	390.4395	42.91936	80.5479	1.066999	14.31465	1.417	1	3	1	0.15	4854	128.7998	119.0368	56.95401	3.989529	199.1331	166.052	0.9732519	12.72427	360.3106
8/12/2014 11:59:12 AM	11:59:12	263	A	13	59	84.28571	43086.86	58	81.42857	28500	1096.728	76.40527	71.55637	14.27588	54.145	390.3045	42.59772	80.5479	1.124001	14.31567	1.429001	1	3	1	0.15	4890	121.3999	113.4022	56.66251	3.96911	199.058	165.312	0.9773642	12.77803	361.833
8/12/2014 11:59:22 AM	11:59:22	273	A	13	59	84.28571	43086.86	57	81.42857	28500	1097.235	76.62562	71.55637	14.27588	54.145	389.8542	43.01988	80.63605	1.025999	14.3122	1.416	1	3	1	0.15	4926	122.3999	114.7999	56.77308	3.976855	198.8079	165.7322	0.9727269	12.71741	360.1162
8/12/2014 11:59:32 AM	11:59:32	283	A	13	59	84.28571	43086.86	57	81.42857	28500	1096.094	77.1104	71.55637	14.27588	54.145	389.7192	42.46705	80.63605	1.014999	14.3122	1.422001	1	3	1	0.15	4904	124.2002	115.7813	56.83339	3.981079	198.7329	166.2598	0.9737682	12.73102	360.5017
8/12/2014 11:59:42 AM	11:59:42	293	A	13	59	84.28571	43086.86	57	81.42857	28500	1096.981	77.15446	71.55637	14.27588	54.145	389.6742	42.36152	80.59197	1.087999	14.31361	1.417999	1	3	1	0.15	4889	124	115.2408	56.95903	3.98988	198.7079	166.5682	0.973506	12.72759	360.4047
8/12/2014 11:59:52 AM	11:59:52	303	A	13	59	84.28571	43086.86	57	81.42857	28500	1098.503	77.37482	71.55637	14.27588	54.145	389.7192	42.76357	80.50383	1.025	14.31397	1.419001	1	3	1	0.15	4842	121.2002	111.7363	56.89371	3.985304	198.7329	166.6071	0.9739436	12.73331	360.5667
8/12/2014 12:00:02 PM	12:00:02	313	A	13	59	84.28571	43086.86	58	82.85715	29000	1106.234	79.31393	71.55637	14.27588	54.145	390.3945	42.10019	80.63605	1.038	14.30956	1.400999	1	3	1	0.15	4899	121.3999	113.2379	56.25042	3.940243	199.1081	166.7891	0.9674939	12.64899	358.1789
8/12/2014 12:00:12 PM	12:00:12	323	A	13	59	84.28571	43086.86	57	81.42857	28500	1109.783	80.32755	71.55637	14.27588	54.145	392.1054	41.91925	80.72418	1.083	14.30916	1.396999	1	3	1	0.15	4880	123	114.0995	56.2655	3.941299	200.0586	167.6495	0.9660426	12.63002	357.6416
8/12/2014 12:00:22 PM	12:00:22	333	A	13	59	84.28571	43086.86	57	81.42857	28500	1113.333	80.32755	71.55637	14.27588	54.145	392.9609	41.86398	80.63605	1.035	14.3123	1.4	1	3	1	0.15	4864	122.3999	113.9108	56.51678	3.958901	200.5338	168.201	0.9662172	12.6323	357.7062
8/12/2014 12:00:32 PM	12:00:32	343	A	13	59	84.28571	43086.86	57	81.42857	28500	1109.699	79.84277	71.55637	14.27588	54.145	393.8613	42.08008	80.59197	0.9820004	14.31266	1.417	1	3	1	0.15	4864	124	114.8369	56.75299	3.975447	201.0341	168.3212	0.9710722	12.69577	359.5036
8/12/2014 12:00:42 PM	12:00:42	353	A	13	59	84.28571	43086.86	56	81.42857	28500	1119.459	80.01905	71.55637	14.27588	54.145	393.3661	40.91412	80.76826	0.9729996	14.30883	1.356001	1	3	1	0.15	4828	121	111.4132	55.54681	3.890957	200.7589	165.8116	0.9531413	12.46134	352.8654
8/12/2014 12:00:52 PM	12:00:52	363	A	13	59	84.28571	43086.86	58	82.85715	29000	1104.587	79.75463	71.55637	14.27588	54.145	393.141	42.41679	80.81232	1.018	14.31404	1.408001	1	3	1	0.15	4928	123.3999	115.5975	56.84846	3.982135	200.6339	168.4572	0.9698851	12.68025	359.0641
8/12/2014 12:01:02 PM	12:01:02	373	A	13	59	84.28571	43086.86	57	81.42857	28500	1100.573	78.56473	71.55637	14.27588	54.145	392.1955	42.34141	80.81232	1.025	14.31274	1.426001	1	3	1	0.15	4922	123.6001	116.0186	57.09473	3.999386	200.1086	168.0178	0.9766819	12.76911	361.5804
8/12/2014 12:01:12 PM	12:01:12	383	A	13	59	84.28571	43086.86	57	81.42857	28500	1103.235	78.741	71.55637	14.27588	54.145	392.3305	42.22583	80.81232	0.9899998	14.31476	1.402	1	3	1	0.15	4893	125	116.4532	56.4816	3.956437	200.1836	166.8274	0.9695923	12.67642	358.9557
8/12/2014 12:01:22 PM	12:01:22	393	A	13	59	84.28571	43086.86	56	81.42857	28500	1112.361	80.37162	71.55637	14.27588	54.145	393.141	41.26089	80.81232	0.9440002	14.3127	1.386999	1	3	1	0.15	4828	120.6001	111.0452	55.76293	3.906095	200.6339	166.5772	0.9626281	12.58537	356.3775
8/12/2014 12:01:32 PM	12:01:32	403	A	13	59	84.28571	43086.86	57	81.42857	28500	1109.868	80.68011	71.55637	14.27588	54.145	394.3566	41.63279	80.81232	1.002001	14.30945	1.403999	1	3	1	0.15	4880	121.7998	113.1703	56.1901	3.936018	201.3092	167.7714	0.968357	12.66027	358.4984
8/12/2014 12:01:42 PM	12:01:42	413	A	13	59	84.28571	43086.86	57	81.42857	28500	1114.896	80.37162	71.55637	14.27588	54.145	394.1315	41.90418	80.8564	1.004999	14.31256	1.379999	1	3	1	0.15	4874	121.2002	112.6601	56.03933	3.925457	201.1842	167.1877	0.9629217	12.58921	356.4862
8/12/2014 12:01:52 PM	12:01:52	423	A	13	59	84.28571	43086.86	57	81.42857	28500	1108.474	80.63605	71.55637	14.27588	54.145	394.4466	42.51731	80.90047	1.077999	14.31082	1.386999	1	3	1	0.15	4878	122	113.3099	56.51175	3.958549	201.3593	168.4421	0.9624808	12.58345	356.323
8/12/2014 12:02:02 PM	12:02:02	433	A	13	59	84.28571	43086.86	57	81.42857	28500	1101.376	79.13764	71.55637	14.27588	54.145	392.7808	42.51228	80.98861	1.02	14.31364	1.417999	1	3	1	0.15	4892	124.7998	115.8704	57.16007	4.003963	200.4338	168.6292	0.9731637	12.72312	360.2779
8/12/2014 12:02:12 PM	12:02:12	443	A	13	59	84.28571	43086.86	57	81.42857	28500	1096.813	78.16809	71.55637	14.27588	54.145	391.205	42.20069	81.03268	1.048	14.31223	1.416	1	3	1	0.15	4922	121.7998	113.7696	56.84846	3.982135	199.5583	167.1584	0.9723849	12.71293	359.9896
8/12/2014 12:02:22 PM	12:02:22	453	A	13	59	84.28571	43086.86	58	82.85715	29000	1099.854	77.33075	71.55637	14.27588	54.145	390.5296	42.49219	81.03268	1.025999	14.31126	1.416	1	3	1	0.15	4946	122.7998	116.0197	56.40622	3.951156	199.1831	165.5106	0.9706313	12.69001	359.3404
8/12/2014 12:02:32 PM	12:02:32	463	A	13	59	84.28571	43086.86	58	82.85715	29000	1097.235	77.28667	71.55637	14.27588	54.145	390.3495	42.50224	80.98861	1.027	14.31252	1.41	1	3	1	0.15	4931	123.7998	116.4187	56.79319	3.978263	199.0831	166.3168	0.9703835	12.68677	359.2487
8/12/2014 12:02:42 PM	12:02:42	473	A	13	59	84.28571	43086.86	57	81.42857	28500	1098.883	76.93411	71.55637	14.27588	54.145	389.8542	42.73341	81.03268	1.031	14.3101	1.400999	1	3	1	0.15	4923	125.3999	117.7297	57.42643	4.022621	198.8079	167.3967	0.9668249	12.64024	357.9312
8/12/2014 12:02:52 PM	12:02:52	483	A	13	59	84.28571	43086.86	57	81.42857	28500	1102.432	76.8019	71.55637	14.27588	54.145	389.7642	42.61783	80.94453	1.025999	14.31726	1.434	1	3	1	0.15	4884	122.7998	114.5653	57.22539	4.008538	198.7579	166.855	0.978779	12.79653	362.3568
8/12/2014 12:03:02 PM	12:03:02	493	A	13	59	84.28571	43086.86	58	82.85715	29000	1099.01	76.97818	71.55637	14.27588	54.145	390.2595	43.02491	80.90047	1.049999	14.31093	1.437	1	3	1	0.15	4973	123.2002	116.4635	57.04447	3.995865	199.0331	166.6087	0.9782491	12.7896	362.1606
8/12/2014 12:03:12 PM	12:03:12	503	A	13	59	84.28571	43086.86	58	82.85715	29000	1100.404	76.84597	71.55637	14.27588	54.145	390.7547	42.65803	80.98861	0.9839993	14.31523	1.431	1	3	1	0.15	4974	124.3999	118.0023	56.95401	3.989529	199.3082	166.3047	0.9776273	12.78147	361.9304
8/12/2014 12:03:22 PM	12:03:22	513	A	13	59	84.28571	43086.86	58	82.85715	29000	1102.728	77.15446	71.55637	14.27588	54.145	391.295	42.4369	80.8564	0.9899998	14.31266	1.426001	1	3	1	0.15	4938	124.3999	117.1482	56.95903	3.98988	199.6084	166.5682	0.9790436	12.79999	362.4548
8/12/2014 12:03:32 PM	12:03:32	523	A	13	59	84.28571	43086.86	57	82.85715	29000	1100.319	77.37482	71.55637	14.27588	54.145	391.5201	42.76357	80.94453	0.9629993	14.31361	1.43	1	3	1	0.15	4904	128.2002	119.7031	57.31586	4.014876	199.7334	167.5202	0.9772791	12.77692	361.8015
8/12/2014 12:03:42 PM	12:03:42	533	A	13	59	84.28571	43086.86	58	82.85715	29000	1101.967	77.15446	71.55637	14.27588	54.145	391.25	43.43199	80.81232	1.061001	14.31487	1.433001	1	3	1	0.15	4950	121.7998	114.7937	57.32088	4.015227	199.5833	167.3501	0.9784576	12.79233	362.2378
8/12/2014 12:03:52 PM	12:03:52	543	A	13	59	84.28571	43086.86	58	82.85715	29000	1101.84	77.15446	71.55637	14.27588	54.145	390.7547	43.28121	80.8564	1.094	14.31389	1.431999	1	3	1	0.15	4963	124.3999	117.7413	56.89872	3.985656	199.3082	166.4375	0.9773736	12.77816	361.8365
8/12/2014 12:04:02 PM	12:04:02	553	A	13	59	84.28571	43086.86	58	82.85715	29000	1105.432	77.59517	71.55637	14.27588	54.145	391.0248	42.68315	80.81232	1.065001	14.31248	1.413	1	3	1	0.15	4934	123.6001	116.1139	56.53687	3.960309	199.4583	166.0116	0.971558	12.70212	359.6835
8/12/2014 12:04:12 PM	12:04:12	563	A	13	59	84.28571	43086.86	58	82.85715	29000	1105.939	77.8596	71.55637	14.27588	54.145	391.7002	43.33147	80.98861	0.9850006	14.31353	1.412001	1	3	1	0.15	4928	125.3999	117.8493	56.56702	3.962421	199.8335	166.2935	0.9707634	12.69174	359.3893
8/12/2014 12:04:22 PM	12:04:22	573	A	13	59	84.28571	43086.86	58	81.42857	28500	1103.404	77.94774	71.55637	14.27588	54.145	391.8353	42.8289	80.98861	1.016001	14.31126	1.42	1	3	1	0.15	4924	122.6001	114.7533	56.93391	3.98812	199.9085	167.1635	0.9737583	12.73089	360.4981
8/12/2014 12:04:32 PM	12:04:32	583	A	13	59	84.28571	43086.86	58	82.85715	29000	1103.277	77.99181	71.55637	14.27588	54.145	392.6457	43.05507	81.12082	1.049	14.31418	1.436001	1	3	1	0.15	4973	121.7998	115.8953	57.44652	4.024028	200.3587	168.3084	0.9805474	12.81965	363.0115
8/12/2014 12:04:42 PM	12:04:42	593	A	13	59	84.28571	43086.86	58	82.85715	29000	1102.685	77.99181	71.55637	14.27588	54.145	392.6907	42.457	81.16489	0.9780006	14.31747	1.43	1	3	1	0.15	4949	125.2002	117.786	57.14499	4.002906	200.3837	167.657	0.9806224	12.82063	363.0393
8/12/2014 12:04:52 PM	12:04:52	603	A	13	59	84.28571	43086.86	57	81.42857	28500	1102.432	77.94774	71.55637	14.27588	54.145	392.5107	43.01988	81.12082	1.056	14.31115	1.431	1	3	1	0.15	4933	123.2002	115.9023	56.76303	3.976151	200.2837	166.7923	0.9777061	12.7825	361.9596
8/12/2014 12:05:02 PM	12:05:02	613	A	13	59	85.71429	43817.14	57	81.42857	28500	1104.333	77.50703	71.55637	14.27588	54.145	392.5557	42.86912	81.16489	1.011999	14.31248	1.417	1	3	1	0.15	4893	129	120.1797	56.94898	3.989176	200.3087	166.8352	0.972599	12.71573	360.0689
8/12/2014 12:05:12 PM	12:05:12	623	A	13	60	85.71429	43817.14	58	82.85715	29000	1102.77	77.41888	71.55637	14.27588	54.145	391.9703	42.91936	81.12082	1.006001	14.31418	1.445999	1	3	1	0.15	4957	122.3999	116.0888	57.37617	4.0191	199.9835	167.6864	0.982582	12.84625	363.7647
8/12/2014 12:05:22 PM	12:05:22	633	A	13	59	84.28571	43086.86	58	82.85715	29000	1100.15	77.33075	71.55637	14.27588	54.145	391.8803	43.2008	81.16489	1.063	14.31346	1.426001	1	3	1	0.15	4975	123.7998	117.0788	57.31083	4.014524	199.9335	167.4731	0.9770744	12.77425	361.7258
8/12/2014 12:05:32 PM	12:05:32	643	A	13	59	84.28571	43086.86	58	81.42857	28500	1101.164	77.06632	71.55637	14.27588	54.145	392.0154	42.71834	81.16489	0.9979992	14.3131	1.407	1	3	1	0.15	4947	125	117.927	57.38622	4.019804	200.0086	167.5271	0.9716029	12.70271	359.7001
8/12/2014 12:05:42 PM	12:05:42	653	A	13	59	84.28571	43086.86	57	81.42857	28500	1100.404	77.28667	71.55637	14.27588	54.145	392.2855	43.25106	81.03268	1.083	14.31198	1.424999	1	3	1	0.15	4919	125.3999	117.4465	57.44151	4.023677	200.1586	167.7186	0.9754307	12.75276	361.1172
8/12/2014 12:05:52 PM	12:05:52	663	A	13	59	84.28571	43086.86	58	82.85715	29000	1101.291	77.50703	71.55637	14.27588	54.145	392.4206	42.62788	81.03268	1.007	14.31136	1.417999	1	3	1	0.15	4937	122.7998	115.4322	56.74796	3.975095	200.2337	166.3989	0.9730315	12.72139	360.229
8/12/2014 12:06:02 PM	12:06:02	673	A	13	59	84.28571	43086.86	59	84.28571	29500	1097.404	77.37482	71.55637	14.27588	54.145	392.1955	43.2762	81.20896	1.069	14.31574	1.43	1	3	1	0.15	4974	124	117.2444	56.76807	3.976503	200.1086	166.3344	0.9771107	12.77472	361.7392
8/12/2014 12:06:22 PM	12:06:22	0	A	13	59	84.28571	43086.86	58	82.85715	29000	1100.319	76.75783	71.55637	14.27588	54.145	391.4751	42.73844	81.03268	1.003	14.31234	1.429001	1	3	1	0.15	4958	124.2002	117.2452	57.13996	4.002554	199.7084	166.6345	0.9768281	12.77103	361.6346
8/12/2014 12:06:47 PM	12:06:47	0	A	13	59	84.28571	43086.86	59	84.28571	29500	1098.714	76.62562	71.55637	14.27588	54.145	391.5651	43.07516	81.12082	1.063999	14.31426	1.448	1	3	1	0.15	4996	123	117.0021	57.36109	4.018044	199.7584	167.0029	0.9832501	12.85499	364.012
8/12/2014 12:06:57 PM	12:06:57	0	A	13	59	84.28571	43086.86	58	82.85715	29000	1102.009	76.8019	71.55637	14.27588	54.145	391.5651	43.09023	81.12082	1.033001	14.31223	1.43	1	3	1	0.15	4966	124.2002	117.4344	57.75309	4.045503	199.7584	167.9897	0.9770867	12.77441	361.7303
8/12/2014 12:07:07 PM	12:07:07	0	A	13	57	81.42857	41626.28	53	77.14286	27000	1055.745	76.84597	71.55637	14.27588	54.145	386.6576	37.67254	80.94453	0.7800007	14.30685	1.202999	1	3	1	0.15	4575	115.3999	101.0451	52.09417	3.649105	197.032	155.4438	0.8964164	11.71972	331.8651
8/12/2014 12:07:17 PM	12:07:17	0	A	13	56	80	40896	49	70	24500	1055.998	77.81553	71.55637	14.27588	54.145	377.5179	36.54679	80.8564	0.7679996	14.30547	1.131001	1	3	1	0.15	4210	110.3999	88.8152	50.83775	3.561095	191.9544	153.2872	0.8693092	11.36532	321.8296
8/12/2014 12:07:27 PM	12:07:27	0	A	13	55	80	40896	49	70	24500	1052.702	78.03587	71.55637	14.27588	54.145	370.5392	35.58187	80.90047	0.7609997	14.30135	1.108999	1	3	1	0.15	4170	104	82.73148	49.79742	3.488222	188.0774	150.9944	0.8637509	11.29266	319.7719
8/12/2014 12:07:37 PM	12:07:37	0	A	13	55	77.14286	39435.43	46	65.71429	23000	1042.309	78.56473	71.55637	14.27588	54.145	361.6246	33.20472	81.03268	0.6949997	14.29669	0.9979992	1	3	1	0.15	3971	100.6001	76.21243	47.18909	3.305513	183.1248	145.0509	0.8163429	10.67285	302.2208
8/12/2014 12:07:47 PM	12:07:47	0	A	13	53	75.71429	38705.14	44	62.85714	22000	1030.563	78.43251	71.55637	14.27588	54.145	352.9801	31.76235	81.16489	0.632	14.29893	0.9619999	1	3	1	0.15	3763	96.6001	68.92493	45.85729	3.212223	178.3223	141.6032	0.8015054	10.47886	296.7278
8/12/2014 12:07:57 PM	12:07:57	0	A	13	53	75.71429	38705.14	43	61.42857	21500	1032.718	77.41888	71.55637	14.27588	54.145	343.3451	31.03864	81.25303	0.5919991	14.29698	0.9130001	1	3	1	0.15	3646	93.2002	64.69932	45.00795	3.152728	173.945	138.6562	0.7841686	10.2522	290.3095
8/12/2014 12:08:07 PM	12:08:07	0	A	13	52	74.28571	37974.86	41	58.57143	20500	1035.633	79.71056	71.55637	14.27588	54.145	337.6722	29.8978	81.25303	0.5400009	14.29488	0.8880005	1	3	1	0.15	3477	87	57.59571	44.06313	3.086545	169.8179	137.9588	0.7699518	10.06633	285.0462
8/12/2014 12:08:17 PM	12:08:17	0	A	13	51	72.85714	37244.57	40	57.14286	20000	1011.043	79.18172	71.55637	14.27588	54.145	331.2229	27.65635	81.25303	0.4519997	14.29521	0.8209991	1	3	1	0.15	3398	84.7998	54.86362	41.95737	2.93904	166.235	131.9514	0.7404445	9.680552	274.1222
8/12/2014 12:08:27 PM	12:08:27	0	A	13	50	70	35784	37	52.85714	18500	986.5795	78.87322	71.55637	14.27588	54.145	322.3575	25.86721	81.38525	0.3810005	14.29149	0.7369995	1	3	1	0.15	3189	79.2002	48.21039	40.09785	2.808784	161.3098	126.6026	0.7014391	9.170596	259.6819
8/12/2014 12:08:37 PM	12:08:37	0	A	13	49	70	35784	35	50	17500	989.1146	78.741	71.55637	14.27588	54.145	315.2384	25.1234	81.38525	0.3810005	14.29048	0.7180004	1	3	1	0.15	3013	76.2002	43.59924	39.52995	2.769004	157.3547	124.9082	0.6894113	9.013346	255.2291
8/12/2014 12:08:47 PM	12:08:47	0	A	13	48	68.57143	35053.72	34	48.57143	17000	977.4534	78.34438	71.55637	14.27588	54.145	308.9252	23.9273	81.38525	0.375	14.28925	0.6580009	1	3	1	0.15	2822	72.2002	38.90104	38.16799	2.673601	153.8473	120.7212	0.6658126	8.704817	246.4926
8/12/2014 12:08:57 PM	12:08:57	0	A	13	47	67.14285	34323.43	32	45.71429	16000	966.2146	78.87322	71.55637	14.27588	54.145	301.0449	22.66082	81.56152	0.3460007	14.28607	0.6310005	1	3	1	0.15	2687	66.3999	33.86828	36.66532	2.568341	149.4694	116.6902	0.6458234	8.443479	239.0923
8/12/2014 12:09:07 PM	12:09:07	0	A	13	46	64.28571	32862.86	30	42.85714	15000	952.145	78.16809	71.55637	14.27588	54.145	294.0601	21.28882	81.56152	0.2539997	14.28567	0.5930004	1	3	1	0.15	2567	62	30.40072	35.49936	2.486668	145.5889	112.7604	0.6296047	8.231436	233.0879
8/12/2014 12:09:17 PM	12:09:17	0	A	13	44	64.28571	32862.86	29	41.42857	14500	949.8635	77.77145	71.55637	14.27588	54.145	285.9559	20.25854	81.64967	0.2630005	14.28379	0.5529995	1	3	1	0.15	2456	59.6001	27.87029	34.44899	2.413091	141.9821	109.1458	0.6085371	7.955999	225.2884
8/12/2014 12:09:27 PM	12:09:27	0	A	13	30	44.28571	22638.86	26	37.14286	13000	893.783	77.94774	71.55637	14.27588	54.145	280.0409	4.653791	81.47339	-0.1200008	14.27049	9.499931E-02	1	3	1	0.15	2210	52.6001	22.30151	19.05028	1.334439	137.8005	50.70962	0.2478785	3.240757	91.76786
8/12/2014 12:09:37 PM	12:09:37	0	A	13	7	8.571429	4381.715	10	14.28572	5000	393.8163	77.77145	71.55637	14.27588	54.145	271.9703	8.544341E-02	81.47339	-0.2040005	14.26742	-1.300049E-02	1	3	1	0.15	909	14.7998	2.5961	14.36132	1.005985	133.3168	25.92891	-999	-999	-28288.48
8/12/2014 12:09:47 PM	12:09:47	0	A	13	1	2.857143	1460.571	6	8.571429	3000	430.4261	77.28667	71.55637	14.27588	54.145	265.6638	-9.045868E-02	81.51746	-0.2770004	14.26605	-2.000046E-02	0	3	1	0.15	460	6.600098	0.5955531	14.18039	0.9933111	129.8132	24.59803	-999	-999	-28288.48
8/12/2014 12:09:57 PM	12:09:57	0	A	13	-1	0	0	0	0	0	508.9313	77.46296	71.55637	14.27588	54.145	264.2966	-0.1206116	81.47339	-0.257	14.26518	-1.499939E-02	0	3	1	0.15	260	3.799805	0.1881052	14.15526	0.9915514	129.0537	24.54768	-999	-999	-28288.48
8/12/2014 12:10:07 PM	12:10:07	0	A	13	-1	0	0	0	0	0	584.4187	77.41888	71.55637	14.27588	54.145	263.2382	-0.135688	81.47339	-0.2859993	14.26684	-1.300049E-02	0	3	1	0.15	145	1.799805	4.968892E-02	14.1452	0.9908466	128.4657	24.46386	-999	-999	-28288.48
8/12/2014 12:10:17 PM	12:10:17	0	A	13	-1	0	0	0	0	0	611.3633	77.63924	71.55637	14.27588	54.145	261.1213	-0.1407186	81.47339	-0.2630005	14.26518	-1.099968E-02	0	1	1	0.15	67	1.600098	2.041209E-02	14.13516	0.9901429	127.2896	24.52666	-999	-999	-28288.48
